<?xml version="1.0"?>
<gpx
 version="1.1"
 creator="Satmap Active 20"
 xmlns:xsi="http://www.w3.org/2001/XMLSchema-instance"
 xmlns="http://www.topografix.com/GPX/1/1"
 xmlns:satmap="http://www.satmap.com/updates/xmlschemas/GpxExtensions/v2/GpxExtensions_v2.xsd"
 xsi:schemaLocation="http://www.topografix.com/GPX/1/1 http://www.topografix.com/GPX/1/1/gpx.xsd">
<metadata>
<time>2022-03-29T08:53:44Z</time>
<extensions>
<satmap:platform>43</satmap:platform>
<satmap:software version="3.12.831">SM15.exe</satmap:software>
<satmap:username>Jim Grant</satmap:username>
<satmap:network_ids>
<satmap:network_id type="wifi">00-23-A7-EC-D5-78</satmap:network_id>
<satmap:network_id type="bluetooth">80-BB-EB-D7-5B-7C</satmap:network_id>
</satmap:network_ids>
<satmap:snap_type>simple</satmap:snap_type>
</extensions>
</metadata>
<trk>
<name>2022-03-29_0853</name>
<desc>Track 1</desc>
<number>1</number>
<trkseg>
<trkpt lat="54.467433" lon="-3.256881"><ele>84</ele><time>2022-03-29T08:53:44Z</time><name>PT1</name></trkpt>
<trkpt lat="54.467434" lon="-3.256874"><ele>86</ele><time>2022-03-29T08:54:23Z</time><name>PT2</name></trkpt>
<trkpt lat="54.467434" lon="-3.256856"><ele>87</ele><time>2022-03-29T08:54:24Z</time><name>PT3</name></trkpt>
<trkpt lat="54.467441" lon="-3.256848"><ele>87</ele><time>2022-03-29T08:54:25Z</time><name>PT4</name></trkpt>
<trkpt lat="54.467443" lon="-3.256843"><ele>87</ele><time>2022-03-29T08:54:26Z</time><name>PT5</name></trkpt>
<trkpt lat="54.467453" lon="-3.256837"><ele>87</ele><time>2022-03-29T08:54:27Z</time><name>PT6</name></trkpt>
<trkpt lat="54.467459" lon="-3.256827"><ele>87</ele><time>2022-03-29T08:54:28Z</time><name>PT7</name></trkpt>
<trkpt lat="54.467454" lon="-3.256817"><ele>87</ele><time>2022-03-29T08:54:29Z</time><name>PT8</name></trkpt>
<trkpt lat="54.467458" lon="-3.256814"><ele>87</ele><time>2022-03-29T08:54:30Z</time><name>PT9</name></trkpt>
<trkpt lat="54.467459" lon="-3.256819"><ele>87</ele><time>2022-03-29T08:54:42Z</time><name>PT10</name></trkpt>
<trkpt lat="54.467459" lon="-3.256827"><ele>87</ele><time>2022-03-29T08:54:43Z</time><name>PT11</name></trkpt>
<trkpt lat="54.467459" lon="-3.256836"><ele>88</ele><time>2022-03-29T08:54:45Z</time><name>PT12</name></trkpt>
<trkpt lat="54.467461" lon="-3.256833"><ele>88</ele><time>2022-03-29T08:54:46Z</time><name>PT13</name></trkpt>
<trkpt lat="54.467466" lon="-3.256824"><ele>88</ele><time>2022-03-29T08:54:47Z</time><name>PT14</name></trkpt>
<trkpt lat="54.467474" lon="-3.256833"><ele>88</ele><time>2022-03-29T08:54:48Z</time><name>PT15</name></trkpt>
<trkpt lat="54.467484" lon="-3.256832"><ele>88</ele><time>2022-03-29T08:54:49Z</time><name>PT16</name></trkpt>
<trkpt lat="54.467477" lon="-3.256837"><ele>88</ele><time>2022-03-29T08:54:50Z</time><name>PT17</name></trkpt>
<trkpt lat="54.467482" lon="-3.256843"><ele>88</ele><time>2022-03-29T08:54:51Z</time><name>PT18</name></trkpt>
<trkpt lat="54.467469" lon="-3.256842"><ele>88</ele><time>2022-03-29T08:54:52Z</time><name>PT19</name></trkpt>
<trkpt lat="54.467475" lon="-3.256834"><ele>87</ele><time>2022-03-29T08:54:53Z</time><name>PT20</name></trkpt>
<trkpt lat="54.467488" lon="-3.256806"><ele>87</ele><time>2022-03-29T08:54:54Z</time><name>PT21</name></trkpt>
<trkpt lat="54.467511" lon="-3.256783"><ele>88</ele><time>2022-03-29T08:54:55Z</time><name>PT22</name></trkpt></trkseg>
<trkseg>
<trkpt lat="54.467513" lon="-3.256770"><ele>88</ele><time>2022-03-29T08:54:57Z</time><name>PT23</name></trkpt>
<trkpt lat="54.467522" lon="-3.256762"><ele>88</ele><time>2022-03-29T08:54:58Z</time><name>PT24</name></trkpt>
<trkpt lat="54.467527" lon="-3.256738"><ele>88</ele><time>2022-03-29T08:54:59Z</time><name>PT25</name></trkpt></trkseg>
<trkseg>
<trkpt lat="54.467494" lon="-3.256622"><ele>88</ele><time>2022-03-29T08:55:55Z</time><name>PT26</name></trkpt>
<trkpt lat="54.467517" lon="-3.256571"><ele>89</ele><time>2022-03-29T08:56:30Z</time><name>PT27</name></trkpt>
<trkpt lat="54.467528" lon="-3.256566"><ele>89</ele><time>2022-03-29T08:56:33Z</time><name>PT28</name></trkpt>
<trkpt lat="54.467540" lon="-3.256490"><ele>87</ele><time>2022-03-29T08:56:51Z</time><name>PT29</name></trkpt>
<trkpt lat="54.467535" lon="-3.256493"><ele>86</ele><time>2022-03-29T08:56:55Z</time><name>PT30</name></trkpt>
<trkpt lat="54.467562" lon="-3.256483"><ele>86</ele><time>2022-03-29T08:56:59Z</time><name>PT31</name></trkpt></trkseg>
<trkseg>
<trkpt lat="54.467630" lon="-3.256522"><ele>86</ele><time>2022-03-29T08:57:05Z</time><name>PT32</name></trkpt></trkseg>
<trkseg>
<trkpt lat="54.467755" lon="-3.256635"><ele>86</ele><time>2022-03-29T08:57:16Z</time><name>PT33</name></trkpt>
<trkpt lat="54.467816" lon="-3.256686"><ele>86</ele><time>2022-03-29T08:57:20Z</time><name>PT34</name></trkpt>
<trkpt lat="54.467834" lon="-3.256760"><ele>86</ele><time>2022-03-29T08:57:24Z</time><name>PT35</name></trkpt>
<trkpt lat="54.467830" lon="-3.256777"><ele>86</ele><time>2022-03-29T08:57:27Z</time><name>PT36</name></trkpt>
<trkpt lat="54.467820" lon="-3.256778"><ele>87</ele><time>2022-03-29T08:57:30Z</time><name>PT37</name></trkpt></trkseg>
<trkseg>
<trkpt lat="54.469203" lon="-3.257764"><ele>87</ele><time>2022-03-29T08:57:54Z</time><name>PT38</name></trkpt>
<trkpt lat="54.468964" lon="-3.257632"><ele>89</ele><time>2022-03-29T08:57:55Z</time><name>PT39</name></trkpt>
<trkpt lat="54.468745" lon="-3.257490"><ele>90</ele><time>2022-03-29T08:57:56Z</time><name>PT40</name></trkpt>
<trkpt lat="54.468599" lon="-3.257413"><ele>90</ele><time>2022-03-29T08:57:57Z</time><name>PT41</name></trkpt>
<trkpt lat="54.468489" lon="-3.257348"><ele>90</ele><time>2022-03-29T08:57:58Z</time><name>PT42</name></trkpt>
<trkpt lat="54.468404" lon="-3.257285"><ele>90</ele><time>2022-03-29T08:57:59Z</time><name>PT43</name></trkpt></trkseg>
<trkseg>
<trkpt lat="54.467819" lon="-3.256944"><ele>89</ele><time>2022-03-29T08:58:16Z</time><name>PT44</name></trkpt>
<trkpt lat="54.467803" lon="-3.256949"><ele>87</ele><time>2022-03-29T08:58:17Z</time><name>PT45</name></trkpt>
<trkpt lat="54.467808" lon="-3.256958"><ele>87</ele><time>2022-03-29T08:58:18Z</time><name>PT46</name></trkpt>
<trkpt lat="54.467799" lon="-3.256908"><ele>85</ele><time>2022-03-29T08:58:19Z</time><name>PT47</name></trkpt>
<trkpt lat="54.467806" lon="-3.256898"><ele>86</ele><time>2022-03-29T08:58:20Z</time><name>PT48</name></trkpt>
<trkpt lat="54.467800" lon="-3.256893"><ele>87</ele><time>2022-03-29T08:58:21Z</time><name>PT49</name></trkpt>
<trkpt lat="54.467845" lon="-3.256858"><ele>87</ele><time>2022-03-29T08:58:22Z</time><name>PT50</name></trkpt>
<trkpt lat="54.467851" lon="-3.256866"><ele>87</ele><time>2022-03-29T08:58:23Z</time><name>PT51</name></trkpt>
<trkpt lat="54.467858" lon="-3.256860"><ele>87</ele><time>2022-03-29T08:58:24Z</time><name>PT52</name></trkpt>
<trkpt lat="54.467839" lon="-3.256858"><ele>89</ele><time>2022-03-29T08:58:25Z</time><name>PT53</name></trkpt>
<trkpt lat="54.467817" lon="-3.256844"><ele>90</ele><time>2022-03-29T08:58:26Z</time><name>PT54</name></trkpt>
<trkpt lat="54.467741" lon="-3.256786"><ele>93</ele><time>2022-03-29T08:58:27Z</time><name>PT55</name></trkpt>
<trkpt lat="54.467702" lon="-3.256762"><ele>94</ele><time>2022-03-29T08:58:28Z</time><name>PT56</name></trkpt>
<trkpt lat="54.467674" lon="-3.256748"><ele>94</ele><time>2022-03-29T08:58:29Z</time><name>PT57</name></trkpt>
<trkpt lat="54.467649" lon="-3.256716"><ele>89</ele><time>2022-03-29T08:58:30Z</time><name>PT58</name></trkpt>
<trkpt lat="54.467634" lon="-3.256738"><ele>90</ele><time>2022-03-29T08:58:31Z</time><name>PT59</name></trkpt>
<trkpt lat="54.467677" lon="-3.256757"><ele>88</ele><time>2022-03-29T08:58:32Z</time><name>PT60</name></trkpt>
<trkpt lat="54.467669" lon="-3.256779"><ele>87</ele><time>2022-03-29T08:58:33Z</time><name>PT61</name></trkpt>
<trkpt lat="54.467621" lon="-3.256792"><ele>85</ele><time>2022-03-29T08:58:34Z</time><name>PT62</name></trkpt>
<trkpt lat="54.467647" lon="-3.256785"><ele>86</ele><time>2022-03-29T08:58:35Z</time><name>PT63</name></trkpt>
<trkpt lat="54.467625" lon="-3.256779"><ele>86</ele><time>2022-03-29T08:59:01Z</time><name>PT64</name></trkpt>
<trkpt lat="54.467601" lon="-3.256784"><ele>86</ele><time>2022-03-29T08:59:02Z</time><name>PT65</name></trkpt>
<trkpt lat="54.467590" lon="-3.256773"><ele>86</ele><time>2022-03-29T08:59:03Z</time><name>PT66</name></trkpt>
<trkpt lat="54.467579" lon="-3.256784"><ele>86</ele><time>2022-03-29T08:59:06Z</time><name>PT67</name></trkpt>
<trkpt lat="54.467568" lon="-3.256768"><ele>86</ele><time>2022-03-29T08:59:07Z</time><name>PT68</name></trkpt>
<trkpt lat="54.467557" lon="-3.256768"><ele>86</ele><time>2022-03-29T08:59:12Z</time><name>PT69</name></trkpt>
<trkpt lat="54.467551" lon="-3.256747"><ele>86</ele><time>2022-03-29T08:59:13Z</time><name>PT70</name></trkpt>
<trkpt lat="54.467552" lon="-3.256733"><ele>87</ele><time>2022-03-29T08:59:14Z</time><name>PT71</name></trkpt>
<trkpt lat="54.467549" lon="-3.256717"><ele>87</ele><time>2022-03-29T08:59:15Z</time><name>PT72</name></trkpt>
<trkpt lat="54.467547" lon="-3.256714"><ele>86</ele><time>2022-03-29T09:00:38Z</time><name>PT73</name></trkpt>
<trkpt lat="54.467522" lon="-3.256688"><ele>85</ele><time>2022-03-29T09:00:42Z</time><name>PT74</name></trkpt>
<trkpt lat="54.467519" lon="-3.256685"><ele>85</ele><time>2022-03-29T09:00:46Z</time><name>PT75</name></trkpt>
<trkpt lat="54.467513" lon="-3.256685"><ele>86</ele><time>2022-03-29T09:00:59Z</time><name>PT76</name></trkpt>
<trkpt lat="54.467478" lon="-3.256650"><ele>86</ele><time>2022-03-29T09:01:03Z</time><name>PT77</name></trkpt>
<trkpt lat="54.467459" lon="-3.256608"><ele>86</ele><time>2022-03-29T09:01:07Z</time><name>PT78</name></trkpt>
<trkpt lat="54.467459" lon="-3.256606"><ele>86</ele><time>2022-03-29T09:01:11Z</time><name>PT79</name></trkpt>
<trkpt lat="54.467435" lon="-3.256548"><ele>87</ele><time>2022-03-29T09:01:32Z</time><name>PT80</name></trkpt>
<trkpt lat="54.467417" lon="-3.256514"><ele>87</ele><time>2022-03-29T09:01:36Z</time><name>PT81</name></trkpt>
<trkpt lat="54.467417" lon="-3.256513"><ele>87</ele><time>2022-03-29T09:01:39Z</time><name>PT82</name></trkpt>
<trkpt lat="54.467408" lon="-3.256505"><ele>87</ele><time>2022-03-29T09:01:53Z</time><name>PT83</name></trkpt>
<trkpt lat="54.467385" lon="-3.256475"><ele>87</ele><time>2022-03-29T09:01:56Z</time><name>PT84</name></trkpt>
<trkpt lat="54.467354" lon="-3.256413"><ele>87</ele><time>2022-03-29T09:02:00Z</time><name>PT85</name></trkpt>
<trkpt lat="54.467318" lon="-3.256369"><ele>87</ele><time>2022-03-29T09:02:04Z</time><name>PT86</name></trkpt>
<trkpt lat="54.467287" lon="-3.256355"><ele>86</ele><time>2022-03-29T09:02:07Z</time><name>PT87</name></trkpt>
<trkpt lat="54.467245" lon="-3.256355"><ele>86</ele><time>2022-03-29T09:02:11Z</time><name>PT88</name></trkpt>
<trkpt lat="54.467216" lon="-3.256352"><ele>85</ele><time>2022-03-29T09:02:14Z</time><name>PT89</name></trkpt>
<trkpt lat="54.467173" lon="-3.256357"><ele>85</ele><time>2022-03-29T09:02:18Z</time><name>PT90</name></trkpt>
<trkpt lat="54.467131" lon="-3.256359"><ele>85</ele><time>2022-03-29T09:02:21Z</time><name>PT91</name></trkpt>
<trkpt lat="54.467083" lon="-3.256363"><ele>85</ele><time>2022-03-29T09:02:25Z</time><name>PT92</name></trkpt>
<trkpt lat="54.467035" lon="-3.256367"><ele>84</ele><time>2022-03-29T09:02:29Z</time><name>PT93</name></trkpt>
<trkpt lat="54.466999" lon="-3.256370"><ele>83</ele><time>2022-03-29T09:02:32Z</time><name>PT94</name></trkpt>
<trkpt lat="54.466956" lon="-3.256376"><ele>83</ele><time>2022-03-29T09:02:36Z</time><name>PT95</name></trkpt>
<trkpt lat="54.466923" lon="-3.256388"><ele>84</ele><time>2022-03-29T09:02:39Z</time><name>PT96</name></trkpt>
<trkpt lat="54.466874" lon="-3.256391"><ele>84</ele><time>2022-03-29T09:02:43Z</time><name>PT97</name></trkpt>
<trkpt lat="54.466838" lon="-3.256406"><ele>83</ele><time>2022-03-29T09:02:46Z</time><name>PT98</name></trkpt>
<trkpt lat="54.466801" lon="-3.256417"><ele>83</ele><time>2022-03-29T09:02:49Z</time><name>PT99</name></trkpt>
<trkpt lat="54.466755" lon="-3.256447"><ele>83</ele><time>2022-03-29T09:02:53Z</time><name>PT100</name></trkpt>
<trkpt lat="54.466721" lon="-3.256464"><ele>82</ele><time>2022-03-29T09:02:56Z</time><name>PT101</name></trkpt>
<trkpt lat="54.466680" lon="-3.256514"><ele>82</ele><time>2022-03-29T09:03:00Z</time><name>PT102</name></trkpt>
<trkpt lat="54.466646" lon="-3.256535"><ele>82</ele><time>2022-03-29T09:03:03Z</time><name>PT103</name></trkpt>
<trkpt lat="54.466614" lon="-3.256563"><ele>82</ele><time>2022-03-29T09:03:06Z</time><name>PT104</name></trkpt>
<trkpt lat="54.466578" lon="-3.256583"><ele>82</ele><time>2022-03-29T09:03:09Z</time><name>PT105</name></trkpt>
<trkpt lat="54.466530" lon="-3.256615"><ele>81</ele><time>2022-03-29T09:03:13Z</time><name>PT106</name></trkpt>
<trkpt lat="54.466482" lon="-3.256636"><ele>81</ele><time>2022-03-29T09:03:17Z</time><name>PT107</name></trkpt>
<trkpt lat="54.466444" lon="-3.256648"><ele>81</ele><time>2022-03-29T09:03:20Z</time><name>PT108</name></trkpt>
<trkpt lat="54.466394" lon="-3.256653"><ele>81</ele><time>2022-03-29T09:03:24Z</time><name>PT109</name></trkpt>
<trkpt lat="54.466355" lon="-3.256654"><ele>81</ele><time>2022-03-29T09:03:27Z</time><name>PT110</name></trkpt>
<trkpt lat="54.466307" lon="-3.256647"><ele>81</ele><time>2022-03-29T09:03:31Z</time><name>PT111</name></trkpt>
<trkpt lat="54.466257" lon="-3.256637"><ele>81</ele><time>2022-03-29T09:03:35Z</time><name>PT112</name></trkpt>
<trkpt lat="54.466208" lon="-3.256633"><ele>82</ele><time>2022-03-29T09:03:39Z</time><name>PT113</name></trkpt>
<trkpt lat="54.466170" lon="-3.256624"><ele>82</ele><time>2022-03-29T09:03:42Z</time><name>PT114</name></trkpt>
<trkpt lat="54.466119" lon="-3.256618"><ele>82</ele><time>2022-03-29T09:03:46Z</time><name>PT115</name></trkpt>
<trkpt lat="54.466066" lon="-3.256614"><ele>83</ele><time>2022-03-29T09:03:50Z</time><name>PT116</name></trkpt>
<trkpt lat="54.466012" lon="-3.256600"><ele>82</ele><time>2022-03-29T09:03:54Z</time><name>PT117</name></trkpt>
<trkpt lat="54.465972" lon="-3.256594"><ele>82</ele><time>2022-03-29T09:03:57Z</time><name>PT118</name></trkpt>
<trkpt lat="54.465936" lon="-3.256587"><ele>83</ele><time>2022-03-29T09:04:00Z</time><name>PT119</name></trkpt>
<trkpt lat="54.465888" lon="-3.256593"><ele>82</ele><time>2022-03-29T09:04:04Z</time><name>PT120</name></trkpt>
<trkpt lat="54.465853" lon="-3.256598"><ele>80</ele><time>2022-03-29T09:04:07Z</time><name>PT121</name></trkpt>
<trkpt lat="54.465817" lon="-3.256608"><ele>80</ele><time>2022-03-29T09:04:10Z</time><name>PT122</name></trkpt>
<trkpt lat="54.465771" lon="-3.256604"><ele>80</ele><time>2022-03-29T09:04:14Z</time><name>PT123</name></trkpt>
<trkpt lat="54.465735" lon="-3.256612"><ele>81</ele><time>2022-03-29T09:04:17Z</time><name>PT124</name></trkpt>
<trkpt lat="54.465683" lon="-3.256598"><ele>81</ele><time>2022-03-29T09:04:21Z</time><name>PT125</name></trkpt>
<trkpt lat="54.465645" lon="-3.256595"><ele>81</ele><time>2022-03-29T09:04:24Z</time><name>PT126</name></trkpt>
<trkpt lat="54.465596" lon="-3.256574"><ele>81</ele><time>2022-03-29T09:04:28Z</time><name>PT127</name></trkpt>
<trkpt lat="54.465560" lon="-3.256558"><ele>81</ele><time>2022-03-29T09:04:31Z</time><name>PT128</name></trkpt>
<trkpt lat="54.465512" lon="-3.256532"><ele>82</ele><time>2022-03-29T09:04:35Z</time><name>PT129</name></trkpt>
<trkpt lat="54.465478" lon="-3.256514"><ele>81</ele><time>2022-03-29T09:04:38Z</time><name>PT130</name></trkpt>
<trkpt lat="54.465429" lon="-3.256497"><ele>80</ele><time>2022-03-29T09:04:42Z</time><name>PT131</name></trkpt>
<trkpt lat="54.465393" lon="-3.256488"><ele>80</ele><time>2022-03-29T09:04:45Z</time><name>PT132</name></trkpt>
<trkpt lat="54.465344" lon="-3.256479"><ele>79</ele><time>2022-03-29T09:04:49Z</time><name>PT133</name></trkpt>
<trkpt lat="54.465293" lon="-3.256469"><ele>79</ele><time>2022-03-29T09:04:53Z</time><name>PT134</name></trkpt>
<trkpt lat="54.465251" lon="-3.256469"><ele>79</ele><time>2022-03-29T09:04:56Z</time><name>PT135</name></trkpt>
<trkpt lat="54.465203" lon="-3.256473"><ele>80</ele><time>2022-03-29T09:05:00Z</time><name>PT136</name></trkpt>
<trkpt lat="54.465167" lon="-3.256478"><ele>80</ele><time>2022-03-29T09:05:03Z</time><name>PT137</name></trkpt>
<trkpt lat="54.465113" lon="-3.256484"><ele>79</ele><time>2022-03-29T09:05:07Z</time><name>PT138</name></trkpt>
<trkpt lat="54.465076" lon="-3.256490"><ele>80</ele><time>2022-03-29T09:05:10Z</time><name>PT139</name></trkpt>
<trkpt lat="54.465040" lon="-3.256489"><ele>79</ele><time>2022-03-29T09:05:13Z</time><name>PT140</name></trkpt>
<trkpt lat="54.464991" lon="-3.256496"><ele>79</ele><time>2022-03-29T09:05:17Z</time><name>PT141</name></trkpt>
<trkpt lat="54.464955" lon="-3.256502"><ele>79</ele><time>2022-03-29T09:05:20Z</time><name>PT142</name></trkpt>
<trkpt lat="54.464906" lon="-3.256510"><ele>79</ele><time>2022-03-29T09:05:24Z</time><name>PT143</name></trkpt>
<trkpt lat="54.464868" lon="-3.256516"><ele>79</ele><time>2022-03-29T09:05:27Z</time><name>PT144</name></trkpt>
<trkpt lat="54.464818" lon="-3.256524"><ele>78</ele><time>2022-03-29T09:05:31Z</time><name>PT145</name></trkpt>
<trkpt lat="54.464763" lon="-3.256530"><ele>78</ele><time>2022-03-29T09:05:35Z</time><name>PT146</name></trkpt>
<trkpt lat="54.464711" lon="-3.256530"><ele>79</ele><time>2022-03-29T09:05:39Z</time><name>PT147</name></trkpt>
<trkpt lat="54.464670" lon="-3.256528"><ele>78</ele><time>2022-03-29T09:05:42Z</time><name>PT148</name></trkpt>
<trkpt lat="54.464620" lon="-3.256529"><ele>78</ele><time>2022-03-29T09:05:46Z</time><name>PT149</name></trkpt>
<trkpt lat="54.464573" lon="-3.256539"><ele>78</ele><time>2022-03-29T09:05:50Z</time><name>PT150</name></trkpt>
<trkpt lat="54.464537" lon="-3.256543"><ele>78</ele><time>2022-03-29T09:05:53Z</time><name>PT151</name></trkpt>
<trkpt lat="54.464487" lon="-3.256553"><ele>79</ele><time>2022-03-29T09:05:57Z</time><name>PT152</name></trkpt>
<trkpt lat="54.464449" lon="-3.256552"><ele>79</ele><time>2022-03-29T09:06:00Z</time><name>PT153</name></trkpt>
<trkpt lat="54.464410" lon="-3.256559"><ele>79</ele><time>2022-03-29T09:06:03Z</time><name>PT154</name></trkpt>
<trkpt lat="54.464375" lon="-3.256561"><ele>79</ele><time>2022-03-29T09:06:06Z</time><name>PT155</name></trkpt>
<trkpt lat="54.464326" lon="-3.256569"><ele>79</ele><time>2022-03-29T09:06:10Z</time><name>PT156</name></trkpt>
<trkpt lat="54.464288" lon="-3.256581"><ele>78</ele><time>2022-03-29T09:06:13Z</time><name>PT157</name></trkpt>
<trkpt lat="54.464241" lon="-3.256612"><ele>78</ele><time>2022-03-29T09:06:17Z</time><name>PT158</name></trkpt>
<trkpt lat="54.464205" lon="-3.256624"><ele>77</ele><time>2022-03-29T09:06:20Z</time><name>PT159</name></trkpt>
<trkpt lat="54.464158" lon="-3.256659"><ele>78</ele><time>2022-03-29T09:06:24Z</time><name>PT160</name></trkpt>
<trkpt lat="54.464121" lon="-3.256680"><ele>78</ele><time>2022-03-29T09:06:27Z</time><name>PT161</name></trkpt>
<trkpt lat="54.464089" lon="-3.256715"><ele>78</ele><time>2022-03-29T09:06:30Z</time><name>PT162</name></trkpt>
<trkpt lat="54.464043" lon="-3.256743"><ele>78</ele><time>2022-03-29T09:06:34Z</time><name>PT163</name></trkpt>
<trkpt lat="54.463999" lon="-3.256773"><ele>79</ele><time>2022-03-29T09:06:38Z</time><name>PT164</name></trkpt>
<trkpt lat="54.463964" lon="-3.256780"><ele>79</ele><time>2022-03-29T09:06:41Z</time><name>PT165</name></trkpt>
<trkpt lat="54.463935" lon="-3.256779"><ele>79</ele><time>2022-03-29T09:06:44Z</time><name>PT166</name></trkpt>
<trkpt lat="54.463916" lon="-3.256763"><ele>79</ele><time>2022-03-29T09:06:48Z</time><name>PT167</name></trkpt>
<trkpt lat="54.463909" lon="-3.256750"><ele>79</ele><time>2022-03-29T09:06:51Z</time><name>PT168</name></trkpt>
<trkpt lat="54.463897" lon="-3.256722"><ele>79</ele><time>2022-03-29T09:06:54Z</time><name>PT169</name></trkpt>
<trkpt lat="54.463890" lon="-3.256699"><ele>78</ele><time>2022-03-29T09:06:57Z</time><name>PT170</name></trkpt>
<trkpt lat="54.463860" lon="-3.256632"><ele>78</ele><time>2022-03-29T09:07:01Z</time><name>PT171</name></trkpt>
<trkpt lat="54.463826" lon="-3.256560"><ele>78</ele><time>2022-03-29T09:07:05Z</time><name>PT172</name></trkpt>
<trkpt lat="54.463804" lon="-3.256515"><ele>78</ele><time>2022-03-29T09:07:08Z</time><name>PT173</name></trkpt>
<trkpt lat="54.463775" lon="-3.256461"><ele>78</ele><time>2022-03-29T09:07:11Z</time><name>PT174</name></trkpt>
<trkpt lat="54.463758" lon="-3.256406"><ele>78</ele><time>2022-03-29T09:07:14Z</time><name>PT175</name></trkpt>
<trkpt lat="54.463731" lon="-3.256337"><ele>78</ele><time>2022-03-29T09:07:18Z</time><name>PT176</name></trkpt>
<trkpt lat="54.463710" lon="-3.256280"><ele>78</ele><time>2022-03-29T09:07:21Z</time><name>PT177</name></trkpt>
<trkpt lat="54.463691" lon="-3.256216"><ele>79</ele><time>2022-03-29T09:07:25Z</time><name>PT178</name></trkpt>
<trkpt lat="54.463673" lon="-3.256146"><ele>79</ele><time>2022-03-29T09:07:29Z</time><name>PT179</name></trkpt>
<trkpt lat="54.463649" lon="-3.256064"><ele>79</ele><time>2022-03-29T09:07:33Z</time><name>PT180</name></trkpt>
<trkpt lat="54.463633" lon="-3.256009"><ele>79</ele><time>2022-03-29T09:07:36Z</time><name>PT181</name></trkpt>
<trkpt lat="54.463613" lon="-3.255934"><ele>79</ele><time>2022-03-29T09:07:40Z</time><name>PT182</name></trkpt>
<trkpt lat="54.463592" lon="-3.255856"><ele>79</ele><time>2022-03-29T09:07:44Z</time><name>PT183</name></trkpt>
<trkpt lat="54.463578" lon="-3.255802"><ele>79</ele><time>2022-03-29T09:07:47Z</time><name>PT184</name></trkpt>
<trkpt lat="54.463559" lon="-3.255726"><ele>79</ele><time>2022-03-29T09:07:51Z</time><name>PT185</name></trkpt>
<trkpt lat="54.463543" lon="-3.255667"><ele>78</ele><time>2022-03-29T09:07:54Z</time><name>PT186</name></trkpt>
<trkpt lat="54.463529" lon="-3.255624"><ele>79</ele><time>2022-03-29T09:07:57Z</time><name>PT187</name></trkpt>
<trkpt lat="54.463521" lon="-3.255574"><ele>79</ele><time>2022-03-29T09:08:00Z</time><name>PT188</name></trkpt>
<trkpt lat="54.463507" lon="-3.255495"><ele>79</ele><time>2022-03-29T09:08:04Z</time><name>PT189</name></trkpt>
<trkpt lat="54.463491" lon="-3.255440"><ele>79</ele><time>2022-03-29T09:08:07Z</time><name>PT190</name></trkpt>
<trkpt lat="54.463478" lon="-3.255381"><ele>79</ele><time>2022-03-29T09:08:10Z</time><name>PT191</name></trkpt>
<trkpt lat="54.463462" lon="-3.255319"><ele>80</ele><time>2022-03-29T09:08:13Z</time><name>PT192</name></trkpt>
<trkpt lat="54.463444" lon="-3.255251"><ele>80</ele><time>2022-03-29T09:08:17Z</time><name>PT193</name></trkpt>
<trkpt lat="54.463430" lon="-3.255179"><ele>81</ele><time>2022-03-29T09:08:21Z</time><name>PT194</name></trkpt>
<trkpt lat="54.463427" lon="-3.255132"><ele>80</ele><time>2022-03-29T09:08:24Z</time><name>PT195</name></trkpt>
<trkpt lat="54.463404" lon="-3.255070"><ele>81</ele><time>2022-03-29T09:08:28Z</time><name>PT196</name></trkpt>
<trkpt lat="54.463379" lon="-3.255017"><ele>81</ele><time>2022-03-29T09:08:32Z</time><name>PT197</name></trkpt>
<trkpt lat="54.463357" lon="-3.254987"><ele>81</ele><time>2022-03-29T09:08:35Z</time><name>PT198</name></trkpt>
<trkpt lat="54.463329" lon="-3.254951"><ele>82</ele><time>2022-03-29T09:08:38Z</time><name>PT199</name></trkpt>
<trkpt lat="54.463305" lon="-3.254902"><ele>82</ele><time>2022-03-29T09:08:42Z</time><name>PT200</name></trkpt>
<trkpt lat="54.463290" lon="-3.254868"><ele>82</ele><time>2022-03-29T09:08:45Z</time><name>PT201</name></trkpt>
<trkpt lat="54.463275" lon="-3.254827"><ele>82</ele><time>2022-03-29T09:08:49Z</time><name>PT202</name></trkpt>
<trkpt lat="54.463252" lon="-3.254791"><ele>82</ele><time>2022-03-29T09:08:53Z</time><name>PT203</name></trkpt>
<trkpt lat="54.463230" lon="-3.254746"><ele>82</ele><time>2022-03-29T09:08:56Z</time><name>PT204</name></trkpt>
<trkpt lat="54.463200" lon="-3.254691"><ele>82</ele><time>2022-03-29T09:09:00Z</time><name>PT205</name></trkpt>
<trkpt lat="54.463187" lon="-3.254641"><ele>81</ele><time>2022-03-29T09:09:03Z</time><name>PT206</name></trkpt>
<trkpt lat="54.463166" lon="-3.254580"><ele>81</ele><time>2022-03-29T09:09:07Z</time><name>PT207</name></trkpt>
<trkpt lat="54.463145" lon="-3.254528"><ele>81</ele><time>2022-03-29T09:09:10Z</time><name>PT208</name></trkpt>
<trkpt lat="54.463126" lon="-3.254466"><ele>81</ele><time>2022-03-29T09:09:14Z</time><name>PT209</name></trkpt>
<trkpt lat="54.463110" lon="-3.254414"><ele>81</ele><time>2022-03-29T09:09:17Z</time><name>PT210</name></trkpt>
<trkpt lat="54.463089" lon="-3.254375"><ele>81</ele><time>2022-03-29T09:09:20Z</time><name>PT211</name></trkpt>
<trkpt lat="54.463058" lon="-3.254326"><ele>81</ele><time>2022-03-29T09:09:24Z</time><name>PT212</name></trkpt>
<trkpt lat="54.463035" lon="-3.254295"><ele>81</ele><time>2022-03-29T09:09:27Z</time><name>PT213</name></trkpt>
<trkpt lat="54.463004" lon="-3.254252"><ele>81</ele><time>2022-03-29T09:09:31Z</time><name>PT214</name></trkpt>
<trkpt lat="54.462985" lon="-3.254210"><ele>81</ele><time>2022-03-29T09:09:34Z</time><name>PT215</name></trkpt>
<trkpt lat="54.462960" lon="-3.254168"><ele>82</ele><time>2022-03-29T09:09:37Z</time><name>PT216</name></trkpt>
<trkpt lat="54.462931" lon="-3.254116"><ele>81</ele><time>2022-03-29T09:09:41Z</time><name>PT217</name></trkpt>
<trkpt lat="54.462910" lon="-3.254064"><ele>81</ele><time>2022-03-29T09:09:45Z</time><name>PT218</name></trkpt>
<trkpt lat="54.462894" lon="-3.254016"><ele>81</ele><time>2022-03-29T09:09:48Z</time><name>PT219</name></trkpt>
<trkpt lat="54.462885" lon="-3.253958"><ele>81</ele><time>2022-03-29T09:09:51Z</time><name>PT220</name></trkpt>
<trkpt lat="54.462869" lon="-3.253893"><ele>81</ele><time>2022-03-29T09:09:55Z</time><name>PT221</name></trkpt>
<trkpt lat="54.462869" lon="-3.253845"><ele>79</ele><time>2022-03-29T09:09:59Z</time><name>PT222</name></trkpt>
<trkpt lat="54.462869" lon="-3.253849"><ele>79</ele><time>2022-03-29T09:10:02Z</time><name>PT223</name></trkpt>
<trkpt lat="54.462865" lon="-3.253840"><ele>79</ele><time>2022-03-29T09:10:12Z</time><name>PT224</name></trkpt>
<trkpt lat="54.462853" lon="-3.253806"><ele>80</ele><time>2022-03-29T09:10:15Z</time><name>PT225</name></trkpt>
<trkpt lat="54.462841" lon="-3.253754"><ele>80</ele><time>2022-03-29T09:10:18Z</time><name>PT226</name></trkpt>
<trkpt lat="54.462832" lon="-3.253719"><ele>79</ele><time>2022-03-29T09:10:22Z</time><name>PT227</name></trkpt>
<trkpt lat="54.462823" lon="-3.253696"><ele>80</ele><time>2022-03-29T09:10:25Z</time><name>PT228</name></trkpt>
<trkpt lat="54.462792" lon="-3.253636"><ele>80</ele><time>2022-03-29T09:10:29Z</time><name>PT229</name></trkpt>
<trkpt lat="54.462774" lon="-3.253580"><ele>80</ele><time>2022-03-29T09:10:32Z</time><name>PT230</name></trkpt>
<trkpt lat="54.462759" lon="-3.253522"><ele>80</ele><time>2022-03-29T09:10:35Z</time><name>PT231</name></trkpt>
<trkpt lat="54.462749" lon="-3.253468"><ele>80</ele><time>2022-03-29T09:10:38Z</time><name>PT232</name></trkpt>
<trkpt lat="54.462740" lon="-3.253383"><ele>80</ele><time>2022-03-29T09:10:42Z</time><name>PT233</name></trkpt>
<trkpt lat="54.462730" lon="-3.253324"><ele>80</ele><time>2022-03-29T09:10:45Z</time><name>PT234</name></trkpt>
<trkpt lat="54.462713" lon="-3.253250"><ele>80</ele><time>2022-03-29T09:10:49Z</time><name>PT235</name></trkpt>
<trkpt lat="54.462697" lon="-3.253183"><ele>81</ele><time>2022-03-29T09:10:53Z</time><name>PT236</name></trkpt>
<trkpt lat="54.462680" lon="-3.253137"><ele>80</ele><time>2022-03-29T09:10:56Z</time><name>PT237</name></trkpt>
<trkpt lat="54.462669" lon="-3.253065"><ele>80</ele><time>2022-03-29T09:11:00Z</time><name>PT238</name></trkpt>
<trkpt lat="54.462664" lon="-3.253013"><ele>80</ele><time>2022-03-29T09:11:03Z</time><name>PT239</name></trkpt>
<trkpt lat="54.462658" lon="-3.252957"><ele>80</ele><time>2022-03-29T09:11:06Z</time><name>PT240</name></trkpt>
<trkpt lat="54.462653" lon="-3.252899"><ele>80</ele><time>2022-03-29T09:11:09Z</time><name>PT241</name></trkpt>
<trkpt lat="54.462647" lon="-3.252836"><ele>80</ele><time>2022-03-29T09:11:13Z</time><name>PT242</name></trkpt>
<trkpt lat="54.462634" lon="-3.252775"><ele>80</ele><time>2022-03-29T09:11:17Z</time><name>PT243</name></trkpt>
<trkpt lat="54.462615" lon="-3.252736"><ele>81</ele><time>2022-03-29T09:11:21Z</time><name>PT244</name></trkpt>
<trkpt lat="54.462582" lon="-3.252705"><ele>81</ele><time>2022-03-29T09:11:25Z</time><name>PT245</name></trkpt>
<trkpt lat="54.462562" lon="-3.252677"><ele>82</ele><time>2022-03-29T09:11:28Z</time><name>PT246</name></trkpt>
<trkpt lat="54.462552" lon="-3.252629"><ele>81</ele><time>2022-03-29T09:11:32Z</time><name>PT247</name></trkpt>
<trkpt lat="54.462551" lon="-3.252597"><ele>81</ele><time>2022-03-29T09:11:36Z</time><name>PT248</name></trkpt>
<trkpt lat="54.462541" lon="-3.252545"><ele>82</ele><time>2022-03-29T09:11:40Z</time><name>PT249</name></trkpt>
<trkpt lat="54.462528" lon="-3.252492"><ele>83</ele><time>2022-03-29T09:11:43Z</time><name>PT250</name></trkpt>
<trkpt lat="54.462512" lon="-3.252437"><ele>84</ele><time>2022-03-29T09:11:47Z</time><name>PT251</name></trkpt>
<trkpt lat="54.462496" lon="-3.252425"><ele>84</ele><time>2022-03-29T09:11:50Z</time><name>PT252</name></trkpt>
<trkpt lat="54.462480" lon="-3.252416"><ele>85</ele><time>2022-03-29T09:11:54Z</time><name>PT253</name></trkpt>
<trkpt lat="54.462471" lon="-3.252416"><ele>86</ele><time>2022-03-29T09:11:58Z</time><name>PT254</name></trkpt>
<trkpt lat="54.462466" lon="-3.252410"><ele>87</ele><time>2022-03-29T09:12:02Z</time><name>PT255</name></trkpt>
<trkpt lat="54.462454" lon="-3.252413"><ele>87</ele><time>2022-03-29T09:12:05Z</time><name>PT256</name></trkpt>
<trkpt lat="54.462445" lon="-3.252420"><ele>87</ele><time>2022-03-29T09:12:09Z</time><name>PT257</name></trkpt>
<trkpt lat="54.462422" lon="-3.252441"><ele>87</ele><time>2022-03-29T09:12:13Z</time><name>PT258</name></trkpt>
<trkpt lat="54.462386" lon="-3.252465"><ele>87</ele><time>2022-03-29T09:12:17Z</time><name>PT259</name></trkpt>
<trkpt lat="54.462353" lon="-3.252463"><ele>86</ele><time>2022-03-29T09:12:20Z</time><name>PT260</name></trkpt>
<trkpt lat="54.462314" lon="-3.252457"><ele>86</ele><time>2022-03-29T09:12:24Z</time><name>PT261</name></trkpt>
<trkpt lat="54.462281" lon="-3.252457"><ele>86</ele><time>2022-03-29T09:12:28Z</time><name>PT262</name></trkpt>
<trkpt lat="54.462254" lon="-3.252466"><ele>86</ele><time>2022-03-29T09:12:31Z</time><name>PT263</name></trkpt>
<trkpt lat="54.462221" lon="-3.252455"><ele>86</ele><time>2022-03-29T09:12:35Z</time><name>PT264</name></trkpt>
<trkpt lat="54.462189" lon="-3.252447"><ele>86</ele><time>2022-03-29T09:12:39Z</time><name>PT265</name></trkpt>
<trkpt lat="54.462163" lon="-3.252448"><ele>86</ele><time>2022-03-29T09:12:42Z</time><name>PT266</name></trkpt>
<trkpt lat="54.462136" lon="-3.252437"><ele>87</ele><time>2022-03-29T09:12:46Z</time><name>PT267</name></trkpt>
<trkpt lat="54.462109" lon="-3.252420"><ele>87</ele><time>2022-03-29T09:12:50Z</time><name>PT268</name></trkpt>
<trkpt lat="54.462089" lon="-3.252408"><ele>87</ele><time>2022-03-29T09:12:53Z</time><name>PT269</name></trkpt>
<trkpt lat="54.462070" lon="-3.252396"><ele>88</ele><time>2022-03-29T09:12:56Z</time><name>PT270</name></trkpt>
<trkpt lat="54.462042" lon="-3.252389"><ele>89</ele><time>2022-03-29T09:13:00Z</time><name>PT271</name></trkpt>
<trkpt lat="54.462019" lon="-3.252389"><ele>89</ele><time>2022-03-29T09:13:03Z</time><name>PT272</name></trkpt>
<trkpt lat="54.461991" lon="-3.252375"><ele>90</ele><time>2022-03-29T09:13:07Z</time><name>PT273</name></trkpt>
<trkpt lat="54.461968" lon="-3.252374"><ele>91</ele><time>2022-03-29T09:13:11Z</time><name>PT274</name></trkpt>
<trkpt lat="54.461944" lon="-3.252387"><ele>92</ele><time>2022-03-29T09:13:14Z</time><name>PT275</name></trkpt>
<trkpt lat="54.461917" lon="-3.252395"><ele>92</ele><time>2022-03-29T09:13:18Z</time><name>PT276</name></trkpt>
<trkpt lat="54.461886" lon="-3.252401"><ele>92</ele><time>2022-03-29T09:13:22Z</time><name>PT277</name></trkpt>
<trkpt lat="54.461864" lon="-3.252406"><ele>93</ele><time>2022-03-29T09:13:25Z</time><name>PT278</name></trkpt>
<trkpt lat="54.461840" lon="-3.252405"><ele>94</ele><time>2022-03-29T09:13:29Z</time><name>PT279</name></trkpt>
<trkpt lat="54.461816" lon="-3.252387"><ele>94</ele><time>2022-03-29T09:13:32Z</time><name>PT280</name></trkpt>
<trkpt lat="54.461794" lon="-3.252358"><ele>95</ele><time>2022-03-29T09:13:35Z</time><name>PT281</name></trkpt>
<trkpt lat="54.461771" lon="-3.252329"><ele>95</ele><time>2022-03-29T09:13:39Z</time><name>PT282</name></trkpt>
<trkpt lat="54.461755" lon="-3.252312"><ele>96</ele><time>2022-03-29T09:13:43Z</time><name>PT283</name></trkpt>
<trkpt lat="54.461723" lon="-3.252312"><ele>95</ele><time>2022-03-29T09:13:47Z</time><name>PT284</name></trkpt>
<trkpt lat="54.461700" lon="-3.252303"><ele>95</ele><time>2022-03-29T09:13:50Z</time><name>PT285</name></trkpt>
<trkpt lat="54.461673" lon="-3.252305"><ele>95</ele><time>2022-03-29T09:13:54Z</time><name>PT286</name></trkpt>
<trkpt lat="54.461642" lon="-3.252308"><ele>95</ele><time>2022-03-29T09:13:58Z</time><name>PT287</name></trkpt>
<trkpt lat="54.461618" lon="-3.252313"><ele>96</ele><time>2022-03-29T09:14:01Z</time><name>PT288</name></trkpt>
<trkpt lat="54.461592" lon="-3.252314"><ele>96</ele><time>2022-03-29T09:14:05Z</time><name>PT289</name></trkpt>
<trkpt lat="54.461561" lon="-3.252307"><ele>96</ele><time>2022-03-29T09:14:09Z</time><name>PT290</name></trkpt>
<trkpt lat="54.461530" lon="-3.252304"><ele>97</ele><time>2022-03-29T09:14:13Z</time><name>PT291</name></trkpt>
<trkpt lat="54.461506" lon="-3.252307"><ele>97</ele><time>2022-03-29T09:14:16Z</time><name>PT292</name></trkpt>
<trkpt lat="54.461476" lon="-3.252302"><ele>97</ele><time>2022-03-29T09:14:20Z</time><name>PT293</name></trkpt>
<trkpt lat="54.461448" lon="-3.252286"><ele>98</ele><time>2022-03-29T09:14:24Z</time><name>PT294</name></trkpt>
<trkpt lat="54.461424" lon="-3.252289"><ele>98</ele><time>2022-03-29T09:14:27Z</time><name>PT295</name></trkpt>
<trkpt lat="54.461400" lon="-3.252294"><ele>98</ele><time>2022-03-29T09:14:30Z</time><name>PT296</name></trkpt>
<trkpt lat="54.461372" lon="-3.252314"><ele>99</ele><time>2022-03-29T09:14:34Z</time><name>PT297</name></trkpt>
<trkpt lat="54.461341" lon="-3.252328"><ele>99</ele><time>2022-03-29T09:14:38Z</time><name>PT298</name></trkpt>
<trkpt lat="54.461315" lon="-3.252348"><ele>98</ele><time>2022-03-29T09:14:41Z</time><name>PT299</name></trkpt>
<trkpt lat="54.461281" lon="-3.252358"><ele>98</ele><time>2022-03-29T09:14:45Z</time><name>PT300</name></trkpt>
<trkpt lat="54.461255" lon="-3.252356"><ele>99</ele><time>2022-03-29T09:14:48Z</time><name>PT301</name></trkpt>
<trkpt lat="54.461236" lon="-3.252353"><ele>99</ele><time>2022-03-29T09:14:51Z</time><name>PT302</name></trkpt>
<trkpt lat="54.461201" lon="-3.252352"><ele>98</ele><time>2022-03-29T09:14:55Z</time><name>PT303</name></trkpt>
<trkpt lat="54.461203" lon="-3.252353"><ele>99</ele><time>2022-03-29T09:14:59Z</time><name>PT304</name></trkpt>
<trkpt lat="54.461192" lon="-3.252342"><ele>99</ele><time>2022-03-29T09:15:03Z</time><name>PT305</name></trkpt>
<trkpt lat="54.461177" lon="-3.252350"><ele>100</ele><time>2022-03-29T09:15:07Z</time><name>PT306</name></trkpt>
<trkpt lat="54.461172" lon="-3.252345"><ele>99</ele><time>2022-03-29T09:15:11Z</time><name>PT307</name></trkpt>
<trkpt lat="54.461173" lon="-3.252339"><ele>99</ele><time>2022-03-29T09:15:14Z</time><name>PT308</name></trkpt>
<trkpt lat="54.461175" lon="-3.252343"><ele>99</ele><time>2022-03-29T09:15:21Z</time><name>PT309</name></trkpt>
<trkpt lat="54.461164" lon="-3.252355"><ele>99</ele><time>2022-03-29T09:16:04Z</time><name>PT310</name></trkpt>
<trkpt lat="54.461152" lon="-3.252349"><ele>99</ele><time>2022-03-29T09:16:08Z</time><name>PT311</name></trkpt>
<trkpt lat="54.461153" lon="-3.252348"><ele>98</ele><time>2022-03-29T09:16:09Z</time><name>PT312</name></trkpt>
<trkpt lat="54.461154" lon="-3.252350"><ele>98</ele><time>2022-03-29T09:16:10Z</time><name>PT313</name></trkpt>
<trkpt lat="54.461153" lon="-3.252354"><ele>98</ele><time>2022-03-29T09:16:11Z</time><name>PT314</name></trkpt>
<trkpt lat="54.461154" lon="-3.252355"><ele>98</ele><time>2022-03-29T09:16:12Z</time><name>PT315</name></trkpt>
<trkpt lat="54.461152" lon="-3.252352"><ele>98</ele><time>2022-03-29T09:16:13Z</time><name>PT316</name></trkpt>
<trkpt lat="54.461150" lon="-3.252350"><ele>99</ele><time>2022-03-29T09:16:14Z</time><name>PT317</name></trkpt>
<trkpt lat="54.461149" lon="-3.252341"><ele>98</ele><time>2022-03-29T09:16:15Z</time><name>PT318</name></trkpt>
<trkpt lat="54.461150" lon="-3.252323"><ele>98</ele><time>2022-03-29T09:16:16Z</time><name>PT319</name></trkpt>
<trkpt lat="54.461145" lon="-3.252322"><ele>98</ele><time>2022-03-29T09:16:17Z</time><name>PT320</name></trkpt>
<trkpt lat="54.461144" lon="-3.252325"><ele>99</ele><time>2022-03-29T09:16:18Z</time><name>PT321</name></trkpt>
<trkpt lat="54.461146" lon="-3.252324"><ele>98</ele><time>2022-03-29T09:16:19Z</time><name>PT322</name></trkpt>
<trkpt lat="54.461147" lon="-3.252327"><ele>98</ele><time>2022-03-29T09:16:22Z</time><name>PT323</name></trkpt>
<trkpt lat="54.461146" lon="-3.252327"><ele>98</ele><time>2022-03-29T09:16:23Z</time><name>PT324</name></trkpt>
<trkpt lat="54.461147" lon="-3.252324"><ele>98</ele><time>2022-03-29T09:16:24Z</time><name>PT325</name></trkpt>
<trkpt lat="54.461140" lon="-3.252333"><ele>99</ele><time>2022-03-29T09:16:30Z</time><name>PT326</name></trkpt>
<trkpt lat="54.461138" lon="-3.252344"><ele>100</ele><time>2022-03-29T09:16:31Z</time><name>PT327</name></trkpt>
<trkpt lat="54.461130" lon="-3.252349"><ele>100</ele><time>2022-03-29T09:16:32Z</time><name>PT328</name></trkpt>
<trkpt lat="54.461121" lon="-3.252352"><ele>101</ele><time>2022-03-29T09:16:33Z</time><name>PT329</name></trkpt>
<trkpt lat="54.461107" lon="-3.252354"><ele>101</ele><time>2022-03-29T09:16:34Z</time><name>PT330</name></trkpt>
<trkpt lat="54.461097" lon="-3.252347"><ele>102</ele><time>2022-03-29T09:16:35Z</time><name>PT331</name></trkpt>
<trkpt lat="54.461087" lon="-3.252343"><ele>102</ele><time>2022-03-29T09:16:36Z</time><name>PT332</name></trkpt>
<trkpt lat="54.461079" lon="-3.252341"><ele>102</ele><time>2022-03-29T09:16:37Z</time><name>PT333</name></trkpt>
<trkpt lat="54.461069" lon="-3.252336"><ele>103</ele><time>2022-03-29T09:16:38Z</time><name>PT334</name></trkpt>
<trkpt lat="54.461061" lon="-3.252334"><ele>103</ele><time>2022-03-29T09:16:39Z</time><name>PT335</name></trkpt>
<trkpt lat="54.461053" lon="-3.252335"><ele>103</ele><time>2022-03-29T09:16:40Z</time><name>PT336</name></trkpt>
<trkpt lat="54.461044" lon="-3.252337"><ele>103</ele><time>2022-03-29T09:16:41Z</time><name>PT337</name></trkpt>
<trkpt lat="54.461035" lon="-3.252334"><ele>103</ele><time>2022-03-29T09:16:42Z</time><name>PT338</name></trkpt>
<trkpt lat="54.461028" lon="-3.252329"><ele>103</ele><time>2022-03-29T09:16:43Z</time><name>PT339</name></trkpt>
<trkpt lat="54.461019" lon="-3.252333"><ele>103</ele><time>2022-03-29T09:16:44Z</time><name>PT340</name></trkpt>
<trkpt lat="54.461009" lon="-3.252337"><ele>104</ele><time>2022-03-29T09:16:45Z</time><name>PT341</name></trkpt>
<trkpt lat="54.460999" lon="-3.252337"><ele>104</ele><time>2022-03-29T09:16:46Z</time><name>PT342</name></trkpt>
<trkpt lat="54.460988" lon="-3.252339"><ele>104</ele><time>2022-03-29T09:16:47Z</time><name>PT343</name></trkpt>
<trkpt lat="54.460977" lon="-3.252338"><ele>104</ele><time>2022-03-29T09:16:48Z</time><name>PT344</name></trkpt>
<trkpt lat="54.460967" lon="-3.252333"><ele>104</ele><time>2022-03-29T09:16:49Z</time><name>PT345</name></trkpt>
<trkpt lat="54.460959" lon="-3.252326"><ele>104</ele><time>2022-03-29T09:16:50Z</time><name>PT346</name></trkpt>
<trkpt lat="54.460950" lon="-3.252320"><ele>104</ele><time>2022-03-29T09:16:51Z</time><name>PT347</name></trkpt>
<trkpt lat="54.460942" lon="-3.252319"><ele>105</ele><time>2022-03-29T09:16:52Z</time><name>PT348</name></trkpt>
<trkpt lat="54.460933" lon="-3.252315"><ele>105</ele><time>2022-03-29T09:16:53Z</time><name>PT349</name></trkpt>
<trkpt lat="54.460923" lon="-3.252316"><ele>105</ele><time>2022-03-29T09:16:54Z</time><name>PT350</name></trkpt>
<trkpt lat="54.460912" lon="-3.252321"><ele>105</ele><time>2022-03-29T09:16:55Z</time><name>PT351</name></trkpt>
<trkpt lat="54.460902" lon="-3.252327"><ele>105</ele><time>2022-03-29T09:16:56Z</time><name>PT352</name></trkpt>
<trkpt lat="54.460892" lon="-3.252328"><ele>105</ele><time>2022-03-29T09:16:57Z</time><name>PT353</name></trkpt>
<trkpt lat="54.460882" lon="-3.252332"><ele>105</ele><time>2022-03-29T09:16:58Z</time><name>PT354</name></trkpt>
<trkpt lat="54.460871" lon="-3.252338"><ele>105</ele><time>2022-03-29T09:16:59Z</time><name>PT355</name></trkpt>
<trkpt lat="54.460860" lon="-3.252346"><ele>105</ele><time>2022-03-29T09:17:00Z</time><name>PT356</name></trkpt>
<trkpt lat="54.460849" lon="-3.252349"><ele>105</ele><time>2022-03-29T09:17:01Z</time><name>PT357</name></trkpt>
<trkpt lat="54.460839" lon="-3.252347"><ele>106</ele><time>2022-03-29T09:17:02Z</time><name>PT358</name></trkpt>
<trkpt lat="54.460829" lon="-3.252346"><ele>106</ele><time>2022-03-29T09:17:03Z</time><name>PT359</name></trkpt>
<trkpt lat="54.460819" lon="-3.252346"><ele>106</ele><time>2022-03-29T09:17:04Z</time><name>PT360</name></trkpt>
<trkpt lat="54.460808" lon="-3.252344"><ele>106</ele><time>2022-03-29T09:17:05Z</time><name>PT361</name></trkpt>
<trkpt lat="54.460802" lon="-3.252339"><ele>106</ele><time>2022-03-29T09:17:06Z</time><name>PT362</name></trkpt>
<trkpt lat="54.460797" lon="-3.252336"><ele>106</ele><time>2022-03-29T09:17:07Z</time><name>PT363</name></trkpt>
<trkpt lat="54.460790" lon="-3.252338"><ele>106</ele><time>2022-03-29T09:17:08Z</time><name>PT364</name></trkpt>
<trkpt lat="54.460782" lon="-3.252338"><ele>106</ele><time>2022-03-29T09:17:09Z</time><name>PT365</name></trkpt>
<trkpt lat="54.460773" lon="-3.252332"><ele>106</ele><time>2022-03-29T09:17:10Z</time><name>PT366</name></trkpt>
<trkpt lat="54.460767" lon="-3.252329"><ele>107</ele><time>2022-03-29T09:17:11Z</time><name>PT367</name></trkpt>
<trkpt lat="54.460760" lon="-3.252332"><ele>107</ele><time>2022-03-29T09:17:12Z</time><name>PT368</name></trkpt>
<trkpt lat="54.460751" lon="-3.252333"><ele>107</ele><time>2022-03-29T09:17:13Z</time><name>PT369</name></trkpt>
<trkpt lat="54.460744" lon="-3.252330"><ele>107</ele><time>2022-03-29T09:17:14Z</time><name>PT370</name></trkpt>
<trkpt lat="54.460736" lon="-3.252329"><ele>107</ele><time>2022-03-29T09:17:15Z</time><name>PT371</name></trkpt>
<trkpt lat="54.460727" lon="-3.252326"><ele>107</ele><time>2022-03-29T09:17:16Z</time><name>PT372</name></trkpt>
<trkpt lat="54.460717" lon="-3.252324"><ele>107</ele><time>2022-03-29T09:17:17Z</time><name>PT373</name></trkpt>
<trkpt lat="54.460707" lon="-3.252319"><ele>107</ele><time>2022-03-29T09:17:18Z</time><name>PT374</name></trkpt>
<trkpt lat="54.460699" lon="-3.252317"><ele>108</ele><time>2022-03-29T09:17:19Z</time><name>PT375</name></trkpt>
<trkpt lat="54.460690" lon="-3.252316"><ele>108</ele><time>2022-03-29T09:17:20Z</time><name>PT376</name></trkpt>
<trkpt lat="54.460679" lon="-3.252317"><ele>108</ele><time>2022-03-29T09:17:21Z</time><name>PT377</name></trkpt>
<trkpt lat="54.460671" lon="-3.252319"><ele>108</ele><time>2022-03-29T09:17:22Z</time><name>PT378</name></trkpt>
<trkpt lat="54.460662" lon="-3.252324"><ele>108</ele><time>2022-03-29T09:17:23Z</time><name>PT379</name></trkpt>
<trkpt lat="54.460654" lon="-3.252325"><ele>108</ele><time>2022-03-29T09:17:24Z</time><name>PT380</name></trkpt>
<trkpt lat="54.460643" lon="-3.252323"><ele>108</ele><time>2022-03-29T09:17:25Z</time><name>PT381</name></trkpt>
<trkpt lat="54.460632" lon="-3.252322"><ele>108</ele><time>2022-03-29T09:17:26Z</time><name>PT382</name></trkpt>
<trkpt lat="54.460622" lon="-3.252323"><ele>108</ele><time>2022-03-29T09:17:27Z</time><name>PT383</name></trkpt>
<trkpt lat="54.460614" lon="-3.252323"><ele>108</ele><time>2022-03-29T09:17:28Z</time><name>PT384</name></trkpt>
<trkpt lat="54.460604" lon="-3.252329"><ele>108</ele><time>2022-03-29T09:17:29Z</time><name>PT385</name></trkpt>
<trkpt lat="54.460596" lon="-3.252332"><ele>108</ele><time>2022-03-29T09:17:30Z</time><name>PT386</name></trkpt>
<trkpt lat="54.460587" lon="-3.252331"><ele>108</ele><time>2022-03-29T09:17:31Z</time><name>PT387</name></trkpt>
<trkpt lat="54.460578" lon="-3.252334"><ele>108</ele><time>2022-03-29T09:17:32Z</time><name>PT388</name></trkpt>
<trkpt lat="54.460570" lon="-3.252337"><ele>108</ele><time>2022-03-29T09:17:33Z</time><name>PT389</name></trkpt>
<trkpt lat="54.460558" lon="-3.252340"><ele>109</ele><time>2022-03-29T09:17:34Z</time><name>PT390</name></trkpt>
<trkpt lat="54.460546" lon="-3.252345"><ele>109</ele><time>2022-03-29T09:17:35Z</time><name>PT391</name></trkpt>
<trkpt lat="54.460537" lon="-3.252351"><ele>109</ele><time>2022-03-29T09:17:36Z</time><name>PT392</name></trkpt>
<trkpt lat="54.460526" lon="-3.252356"><ele>109</ele><time>2022-03-29T09:17:37Z</time><name>PT393</name></trkpt>
<trkpt lat="54.460517" lon="-3.252358"><ele>109</ele><time>2022-03-29T09:17:38Z</time><name>PT394</name></trkpt>
<trkpt lat="54.460507" lon="-3.252359"><ele>109</ele><time>2022-03-29T09:17:39Z</time><name>PT395</name></trkpt>
<trkpt lat="54.460498" lon="-3.252361"><ele>109</ele><time>2022-03-29T09:17:40Z</time><name>PT396</name></trkpt>
<trkpt lat="54.460487" lon="-3.252367"><ele>110</ele><time>2022-03-29T09:17:41Z</time><name>PT397</name></trkpt>
<trkpt lat="54.460476" lon="-3.252373"><ele>110</ele><time>2022-03-29T09:17:42Z</time><name>PT398</name></trkpt>
<trkpt lat="54.460466" lon="-3.252374"><ele>110</ele><time>2022-03-29T09:17:43Z</time><name>PT399</name></trkpt>
<trkpt lat="54.460455" lon="-3.252372"><ele>110</ele><time>2022-03-29T09:17:44Z</time><name>PT400</name></trkpt>
<trkpt lat="54.460446" lon="-3.252369"><ele>110</ele><time>2022-03-29T09:17:45Z</time><name>PT401</name></trkpt>
<trkpt lat="54.460437" lon="-3.252366"><ele>110</ele><time>2022-03-29T09:17:46Z</time><name>PT402</name></trkpt>
<trkpt lat="54.460429" lon="-3.252361"><ele>110</ele><time>2022-03-29T09:17:47Z</time><name>PT403</name></trkpt>
<trkpt lat="54.460422" lon="-3.252356"><ele>110</ele><time>2022-03-29T09:17:48Z</time><name>PT404</name></trkpt>
<trkpt lat="54.460413" lon="-3.252353"><ele>110</ele><time>2022-03-29T09:17:49Z</time><name>PT405</name></trkpt>
<trkpt lat="54.460404" lon="-3.252347"><ele>111</ele><time>2022-03-29T09:17:50Z</time><name>PT406</name></trkpt>
<trkpt lat="54.460396" lon="-3.252342"><ele>111</ele><time>2022-03-29T09:17:51Z</time><name>PT407</name></trkpt>
<trkpt lat="54.460387" lon="-3.252338"><ele>111</ele><time>2022-03-29T09:17:52Z</time><name>PT408</name></trkpt>
<trkpt lat="54.460379" lon="-3.252333"><ele>111</ele><time>2022-03-29T09:17:53Z</time><name>PT409</name></trkpt>
<trkpt lat="54.460366" lon="-3.252328"><ele>111</ele><time>2022-03-29T09:17:54Z</time><name>PT410</name></trkpt>
<trkpt lat="54.460357" lon="-3.252324"><ele>111</ele><time>2022-03-29T09:17:55Z</time><name>PT411</name></trkpt>
<trkpt lat="54.460348" lon="-3.252319"><ele>111</ele><time>2022-03-29T09:17:56Z</time><name>PT412</name></trkpt>
<trkpt lat="54.460339" lon="-3.252314"><ele>111</ele><time>2022-03-29T09:17:57Z</time><name>PT413</name></trkpt>
<trkpt lat="54.460330" lon="-3.252306"><ele>111</ele><time>2022-03-29T09:17:58Z</time><name>PT414</name></trkpt>
<trkpt lat="54.460321" lon="-3.252302"><ele>111</ele><time>2022-03-29T09:17:59Z</time><name>PT415</name></trkpt>
<trkpt lat="54.460315" lon="-3.252297"><ele>111</ele><time>2022-03-29T09:18:00Z</time><name>PT416</name></trkpt>
<trkpt lat="54.460312" lon="-3.252300"><ele>111</ele><time>2022-03-29T09:18:01Z</time><name>PT417</name></trkpt>
<trkpt lat="54.460307" lon="-3.252297"><ele>111</ele><time>2022-03-29T09:18:02Z</time><name>PT418</name></trkpt>
<trkpt lat="54.460306" lon="-3.252300"><ele>111</ele><time>2022-03-29T09:18:03Z</time><name>PT419</name></trkpt>
<trkpt lat="54.460305" lon="-3.252305"><ele>111</ele><time>2022-03-29T09:18:04Z</time><name>PT420</name></trkpt>
<trkpt lat="54.460303" lon="-3.252316"><ele>111</ele><time>2022-03-29T09:18:05Z</time><name>PT421</name></trkpt>
<trkpt lat="54.460302" lon="-3.252320"><ele>111</ele><time>2022-03-29T09:18:06Z</time><name>PT422</name></trkpt>
<trkpt lat="54.460298" lon="-3.252317"><ele>111</ele><time>2022-03-29T09:18:07Z</time><name>PT423</name></trkpt>
<trkpt lat="54.460277" lon="-3.252337"><ele>111</ele><time>2022-03-29T09:18:10Z</time><name>PT424</name></trkpt>
<trkpt lat="54.460237" lon="-3.252373"><ele>112</ele><time>2022-03-29T09:18:14Z</time><name>PT425</name></trkpt>
<trkpt lat="54.460213" lon="-3.252395"><ele>113</ele><time>2022-03-29T09:18:17Z</time><name>PT426</name></trkpt>
<trkpt lat="54.460177" lon="-3.252410"><ele>114</ele><time>2022-03-29T09:18:21Z</time><name>PT427</name></trkpt>
<trkpt lat="54.460146" lon="-3.252423"><ele>114</ele><time>2022-03-29T09:18:25Z</time><name>PT428</name></trkpt>
<trkpt lat="54.460122" lon="-3.252427"><ele>115</ele><time>2022-03-29T09:18:28Z</time><name>PT429</name></trkpt>
<trkpt lat="54.460088" lon="-3.252437"><ele>116</ele><time>2022-03-29T09:18:32Z</time><name>PT430</name></trkpt>
<trkpt lat="54.460064" lon="-3.252447"><ele>116</ele><time>2022-03-29T09:18:35Z</time><name>PT431</name></trkpt>
<trkpt lat="54.460040" lon="-3.252444"><ele>117</ele><time>2022-03-29T09:18:38Z</time><name>PT432</name></trkpt>
<trkpt lat="54.460013" lon="-3.252441"><ele>118</ele><time>2022-03-29T09:18:42Z</time><name>PT433</name></trkpt>
<trkpt lat="54.459991" lon="-3.252428"><ele>119</ele><time>2022-03-29T09:18:46Z</time><name>PT434</name></trkpt>
<trkpt lat="54.459971" lon="-3.252422"><ele>119</ele><time>2022-03-29T09:18:49Z</time><name>PT435</name></trkpt>
<trkpt lat="54.459940" lon="-3.252414"><ele>119</ele><time>2022-03-29T09:18:53Z</time><name>PT436</name></trkpt>
<trkpt lat="54.459911" lon="-3.252405"><ele>120</ele><time>2022-03-29T09:18:57Z</time><name>PT437</name></trkpt>
<trkpt lat="54.459897" lon="-3.252403"><ele>121</ele><time>2022-03-29T09:19:00Z</time><name>PT438</name></trkpt>
<trkpt lat="54.459865" lon="-3.252396"><ele>122</ele><time>2022-03-29T09:19:04Z</time><name>PT439</name></trkpt>
<trkpt lat="54.459852" lon="-3.252390"><ele>122</ele><time>2022-03-29T09:19:07Z</time><name>PT440</name></trkpt>
<trkpt lat="54.459827" lon="-3.252385"><ele>122</ele><time>2022-03-29T09:19:11Z</time><name>PT441</name></trkpt>
<trkpt lat="54.459808" lon="-3.252384"><ele>122</ele><time>2022-03-29T09:19:14Z</time><name>PT442</name></trkpt>
<trkpt lat="54.459778" lon="-3.252383"><ele>122</ele><time>2022-03-29T09:19:18Z</time><name>PT443</name></trkpt>
<trkpt lat="54.459758" lon="-3.252380"><ele>123</ele><time>2022-03-29T09:19:21Z</time><name>PT444</name></trkpt>
<trkpt lat="54.459728" lon="-3.252383"><ele>123</ele><time>2022-03-29T09:19:25Z</time><name>PT445</name></trkpt>
<trkpt lat="54.459696" lon="-3.252380"><ele>124</ele><time>2022-03-29T09:19:29Z</time><name>PT446</name></trkpt>
<trkpt lat="54.459676" lon="-3.252385"><ele>124</ele><time>2022-03-29T09:19:32Z</time><name>PT447</name></trkpt>
<trkpt lat="54.459645" lon="-3.252391"><ele>123</ele><time>2022-03-29T09:19:36Z</time><name>PT448</name></trkpt>
<trkpt lat="54.459622" lon="-3.252393"><ele>124</ele><time>2022-03-29T09:19:39Z</time><name>PT449</name></trkpt>
<trkpt lat="54.459589" lon="-3.252394"><ele>124</ele><time>2022-03-29T09:19:43Z</time><name>PT450</name></trkpt>
<trkpt lat="54.459557" lon="-3.252393"><ele>124</ele><time>2022-03-29T09:19:47Z</time><name>PT451</name></trkpt>
<trkpt lat="54.459526" lon="-3.252397"><ele>124</ele><time>2022-03-29T09:19:51Z</time><name>PT452</name></trkpt>
<trkpt lat="54.459494" lon="-3.252392"><ele>124</ele><time>2022-03-29T09:19:55Z</time><name>PT453</name></trkpt>
<trkpt lat="54.459465" lon="-3.252390"><ele>124</ele><time>2022-03-29T09:19:59Z</time><name>PT454</name></trkpt>
<trkpt lat="54.459447" lon="-3.252394"><ele>124</ele><time>2022-03-29T09:20:02Z</time><name>PT455</name></trkpt>
<trkpt lat="54.459417" lon="-3.252399"><ele>125</ele><time>2022-03-29T09:20:06Z</time><name>PT456</name></trkpt>
<trkpt lat="54.459394" lon="-3.252400"><ele>125</ele><time>2022-03-29T09:20:09Z</time><name>PT457</name></trkpt>
<trkpt lat="54.459363" lon="-3.252396"><ele>125</ele><time>2022-03-29T09:20:13Z</time><name>PT458</name></trkpt>
<trkpt lat="54.459341" lon="-3.252389"><ele>126</ele><time>2022-03-29T09:20:17Z</time><name>PT459</name></trkpt>
<trkpt lat="54.459320" lon="-3.252399"><ele>126</ele><time>2022-03-29T09:20:20Z</time><name>PT460</name></trkpt>
<trkpt lat="54.459302" lon="-3.252421"><ele>127</ele><time>2022-03-29T09:20:23Z</time><name>PT461</name></trkpt>
<trkpt lat="54.459271" lon="-3.252423"><ele>127</ele><time>2022-03-29T09:20:27Z</time><name>PT462</name></trkpt>
<trkpt lat="54.459248" lon="-3.252423"><ele>127</ele><time>2022-03-29T09:20:30Z</time><name>PT463</name></trkpt>
<trkpt lat="54.459227" lon="-3.252417"><ele>127</ele><time>2022-03-29T09:20:33Z</time><name>PT464</name></trkpt>
<trkpt lat="54.459210" lon="-3.252410"><ele>128</ele><time>2022-03-29T09:20:36Z</time><name>PT465</name></trkpt>
<trkpt lat="54.459191" lon="-3.252405"><ele>129</ele><time>2022-03-29T09:20:40Z</time><name>PT466</name></trkpt>
<trkpt lat="54.459163" lon="-3.252396"><ele>129</ele><time>2022-03-29T09:20:44Z</time><name>PT467</name></trkpt>
<trkpt lat="54.459138" lon="-3.252384"><ele>131</ele><time>2022-03-29T09:20:48Z</time><name>PT468</name></trkpt>
<trkpt lat="54.459122" lon="-3.252376"><ele>131</ele><time>2022-03-29T09:20:51Z</time><name>PT469</name></trkpt>
<trkpt lat="54.459096" lon="-3.252351"><ele>132</ele><time>2022-03-29T09:20:55Z</time><name>PT470</name></trkpt>
<trkpt lat="54.459071" lon="-3.252323"><ele>133</ele><time>2022-03-29T09:20:59Z</time><name>PT471</name></trkpt>
<trkpt lat="54.459054" lon="-3.252308"><ele>133</ele><time>2022-03-29T09:21:02Z</time><name>PT472</name></trkpt>
<trkpt lat="54.459035" lon="-3.252293"><ele>133</ele><time>2022-03-29T09:21:05Z</time><name>PT473</name></trkpt>
<trkpt lat="54.459016" lon="-3.252283"><ele>133</ele><time>2022-03-29T09:21:08Z</time><name>PT474</name></trkpt>
<trkpt lat="54.458991" lon="-3.252278"><ele>133</ele><time>2022-03-29T09:21:12Z</time><name>PT475</name></trkpt>
<trkpt lat="54.458968" lon="-3.252272"><ele>133</ele><time>2022-03-29T09:21:15Z</time><name>PT476</name></trkpt>
<trkpt lat="54.458942" lon="-3.252264"><ele>133</ele><time>2022-03-29T09:21:19Z</time><name>PT477</name></trkpt>
<trkpt lat="54.458922" lon="-3.252261"><ele>134</ele><time>2022-03-29T09:21:22Z</time><name>PT478</name></trkpt>
<trkpt lat="54.458905" lon="-3.252255"><ele>135</ele><time>2022-03-29T09:21:25Z</time><name>PT479</name></trkpt>
<trkpt lat="54.458884" lon="-3.252255"><ele>135</ele><time>2022-03-29T09:21:28Z</time><name>PT480</name></trkpt>
<trkpt lat="54.458851" lon="-3.252253"><ele>135</ele><time>2022-03-29T09:21:32Z</time><name>PT481</name></trkpt>
<trkpt lat="54.458827" lon="-3.252250"><ele>135</ele><time>2022-03-29T09:21:35Z</time><name>PT482</name></trkpt>
<trkpt lat="54.458806" lon="-3.252246"><ele>136</ele><time>2022-03-29T09:21:38Z</time><name>PT483</name></trkpt>
<trkpt lat="54.458785" lon="-3.252233"><ele>137</ele><time>2022-03-29T09:21:42Z</time><name>PT484</name></trkpt>
<trkpt lat="54.458771" lon="-3.252205"><ele>138</ele><time>2022-03-29T09:21:46Z</time><name>PT485</name></trkpt>
<trkpt lat="54.458755" lon="-3.252187"><ele>138</ele><time>2022-03-29T09:21:49Z</time><name>PT486</name></trkpt>
<trkpt lat="54.458736" lon="-3.252183"><ele>138</ele><time>2022-03-29T09:21:52Z</time><name>PT487</name></trkpt>
<trkpt lat="54.458716" lon="-3.252188"><ele>139</ele><time>2022-03-29T09:21:55Z</time><name>PT488</name></trkpt>
<trkpt lat="54.458687" lon="-3.252174"><ele>139</ele><time>2022-03-29T09:21:59Z</time><name>PT489</name></trkpt>
<trkpt lat="54.458667" lon="-3.252176"><ele>139</ele><time>2022-03-29T09:22:02Z</time><name>PT490</name></trkpt>
<trkpt lat="54.458640" lon="-3.252170"><ele>140</ele><time>2022-03-29T09:22:06Z</time><name>PT491</name></trkpt>
<trkpt lat="54.458628" lon="-3.252162"><ele>140</ele><time>2022-03-29T09:22:09Z</time><name>PT492</name></trkpt>
<trkpt lat="54.458621" lon="-3.252156"><ele>140</ele><time>2022-03-29T09:22:13Z</time><name>PT493</name></trkpt>
<trkpt lat="54.458605" lon="-3.252145"><ele>141</ele><time>2022-03-29T09:22:16Z</time><name>PT494</name></trkpt>
<trkpt lat="54.458588" lon="-3.252129"><ele>141</ele><time>2022-03-29T09:22:19Z</time><name>PT495</name></trkpt>
<trkpt lat="54.458554" lon="-3.252130"><ele>142</ele><time>2022-03-29T09:22:23Z</time><name>PT496</name></trkpt>
<trkpt lat="54.458534" lon="-3.252153"><ele>142</ele><time>2022-03-29T09:22:26Z</time><name>PT497</name></trkpt>
<trkpt lat="54.458508" lon="-3.252162"><ele>142</ele><time>2022-03-29T09:22:29Z</time><name>PT498</name></trkpt>
<trkpt lat="54.458472" lon="-3.252171"><ele>142</ele><time>2022-03-29T09:22:33Z</time><name>PT499</name></trkpt>
<trkpt lat="54.458445" lon="-3.252170"><ele>142</ele><time>2022-03-29T09:22:36Z</time><name>PT500</name></trkpt>
<trkpt lat="54.458417" lon="-3.252162"><ele>142</ele><time>2022-03-29T09:22:39Z</time><name>PT501</name></trkpt>
<trkpt lat="54.458392" lon="-3.252156"><ele>143</ele><time>2022-03-29T09:22:42Z</time><name>PT502</name></trkpt>
<trkpt lat="54.458359" lon="-3.252147"><ele>143</ele><time>2022-03-29T09:22:46Z</time><name>PT503</name></trkpt>
<trkpt lat="54.458333" lon="-3.252140"><ele>143</ele><time>2022-03-29T09:22:49Z</time><name>PT504</name></trkpt>
<trkpt lat="54.458305" lon="-3.252118"><ele>144</ele><time>2022-03-29T09:22:53Z</time><name>PT505</name></trkpt>
<trkpt lat="54.458285" lon="-3.252113"><ele>145</ele><time>2022-03-29T09:22:56Z</time><name>PT506</name></trkpt>
<trkpt lat="54.458265" lon="-3.252123"><ele>145</ele><time>2022-03-29T09:22:59Z</time><name>PT507</name></trkpt>
<trkpt lat="54.458243" lon="-3.252132"><ele>146</ele><time>2022-03-29T09:23:02Z</time><name>PT508</name></trkpt>
<trkpt lat="54.458220" lon="-3.252135"><ele>146</ele><time>2022-03-29T09:23:06Z</time><name>PT509</name></trkpt>
<trkpt lat="54.458196" lon="-3.252120"><ele>146</ele><time>2022-03-29T09:23:10Z</time><name>PT510</name></trkpt>
<trkpt lat="54.458179" lon="-3.252121"><ele>147</ele><time>2022-03-29T09:23:13Z</time><name>PT511</name></trkpt>
<trkpt lat="54.458158" lon="-3.252119"><ele>147</ele><time>2022-03-29T09:23:17Z</time><name>PT512</name></trkpt>
<trkpt lat="54.458145" lon="-3.252118"><ele>148</ele><time>2022-03-29T09:23:20Z</time><name>PT513</name></trkpt>
<trkpt lat="54.458120" lon="-3.252106"><ele>149</ele><time>2022-03-29T09:23:24Z</time><name>PT514</name></trkpt>
<trkpt lat="54.458099" lon="-3.252113"><ele>149</ele><time>2022-03-29T09:23:27Z</time><name>PT515</name></trkpt>
<trkpt lat="54.458075" lon="-3.252131"><ele>150</ele><time>2022-03-29T09:23:31Z</time><name>PT516</name></trkpt>
<trkpt lat="54.458052" lon="-3.252134"><ele>151</ele><time>2022-03-29T09:23:35Z</time><name>PT517</name></trkpt>
<trkpt lat="54.458030" lon="-3.252127"><ele>151</ele><time>2022-03-29T09:23:38Z</time><name>PT518</name></trkpt>
<trkpt lat="54.458004" lon="-3.252131"><ele>151</ele><time>2022-03-29T09:23:42Z</time><name>PT519</name></trkpt>
<trkpt lat="54.457986" lon="-3.252155"><ele>152</ele><time>2022-03-29T09:23:45Z</time><name>PT520</name></trkpt>
<trkpt lat="54.457959" lon="-3.252162"><ele>152</ele><time>2022-03-29T09:23:49Z</time><name>PT521</name></trkpt>
<trkpt lat="54.457927" lon="-3.252157"><ele>152</ele><time>2022-03-29T09:23:53Z</time><name>PT522</name></trkpt>
<trkpt lat="54.457899" lon="-3.252158"><ele>153</ele><time>2022-03-29T09:23:57Z</time><name>PT523</name></trkpt>
<trkpt lat="54.457869" lon="-3.252164"><ele>153</ele><time>2022-03-29T09:24:01Z</time><name>PT524</name></trkpt>
<trkpt lat="54.457838" lon="-3.252177"><ele>154</ele><time>2022-03-29T09:24:05Z</time><name>PT525</name></trkpt>
<trkpt lat="54.457808" lon="-3.252172"><ele>154</ele><time>2022-03-29T09:24:09Z</time><name>PT526</name></trkpt>
<trkpt lat="54.457779" lon="-3.252166"><ele>155</ele><time>2022-03-29T09:24:13Z</time><name>PT527</name></trkpt>
<trkpt lat="54.457751" lon="-3.252158"><ele>156</ele><time>2022-03-29T09:24:17Z</time><name>PT528</name></trkpt>
<trkpt lat="54.457728" lon="-3.252161"><ele>156</ele><time>2022-03-29T09:24:20Z</time><name>PT529</name></trkpt>
<trkpt lat="54.457699" lon="-3.252158"><ele>156</ele><time>2022-03-29T09:24:24Z</time><name>PT530</name></trkpt>
<trkpt lat="54.457668" lon="-3.252155"><ele>156</ele><time>2022-03-29T09:24:28Z</time><name>PT531</name></trkpt>
<trkpt lat="54.457641" lon="-3.252141"><ele>157</ele><time>2022-03-29T09:24:32Z</time><name>PT532</name></trkpt>
<trkpt lat="54.457626" lon="-3.252117"><ele>158</ele><time>2022-03-29T09:24:35Z</time><name>PT533</name></trkpt>
<trkpt lat="54.457604" lon="-3.252096"><ele>158</ele><time>2022-03-29T09:24:39Z</time><name>PT534</name></trkpt>
<trkpt lat="54.457587" lon="-3.252063"><ele>159</ele><time>2022-03-29T09:24:43Z</time><name>PT535</name></trkpt>
<trkpt lat="54.457570" lon="-3.252031"><ele>159</ele><time>2022-03-29T09:24:47Z</time><name>PT536</name></trkpt>
<trkpt lat="54.457540" lon="-3.252025"><ele>160</ele><time>2022-03-29T09:24:51Z</time><name>PT537</name></trkpt>
<trkpt lat="54.457517" lon="-3.252023"><ele>160</ele><time>2022-03-29T09:24:54Z</time><name>PT538</name></trkpt>
<trkpt lat="54.457495" lon="-3.252024"><ele>160</ele><time>2022-03-29T09:24:57Z</time><name>PT539</name></trkpt>
<trkpt lat="54.457467" lon="-3.252041"><ele>160</ele><time>2022-03-29T09:25:01Z</time><name>PT540</name></trkpt>
<trkpt lat="54.457441" lon="-3.252033"><ele>161</ele><time>2022-03-29T09:25:05Z</time><name>PT541</name></trkpt>
<trkpt lat="54.457424" lon="-3.252017"><ele>162</ele><time>2022-03-29T09:25:08Z</time><name>PT542</name></trkpt>
<trkpt lat="54.457405" lon="-3.252022"><ele>162</ele><time>2022-03-29T09:25:11Z</time><name>PT543</name></trkpt>
<trkpt lat="54.457383" lon="-3.252016"><ele>163</ele><time>2022-03-29T09:25:15Z</time><name>PT544</name></trkpt>
<trkpt lat="54.457362" lon="-3.252024"><ele>164</ele><time>2022-03-29T09:25:19Z</time><name>PT545</name></trkpt>
<trkpt lat="54.457356" lon="-3.252024"><ele>164</ele><time>2022-03-29T09:25:23Z</time><name>PT546</name></trkpt>
<trkpt lat="54.457334" lon="-3.252035"><ele>164</ele><time>2022-03-29T09:25:31Z</time><name>PT547</name></trkpt>
<trkpt lat="54.457313" lon="-3.252035"><ele>165</ele><time>2022-03-29T09:25:34Z</time><name>PT548</name></trkpt>
<trkpt lat="54.457297" lon="-3.252029"><ele>165</ele><time>2022-03-29T09:25:37Z</time><name>PT549</name></trkpt>
<trkpt lat="54.457280" lon="-3.252028"><ele>166</ele><time>2022-03-29T09:25:41Z</time><name>PT550</name></trkpt>
<trkpt lat="54.457263" lon="-3.252032"><ele>166</ele><time>2022-03-29T09:25:45Z</time><name>PT551</name></trkpt>
<trkpt lat="54.457247" lon="-3.252031"><ele>167</ele><time>2022-03-29T09:25:48Z</time><name>PT552</name></trkpt>
<trkpt lat="54.457231" lon="-3.252031"><ele>168</ele><time>2022-03-29T09:25:51Z</time><name>PT553</name></trkpt>
<trkpt lat="54.457211" lon="-3.252016"><ele>168</ele><time>2022-03-29T09:25:55Z</time><name>PT554</name></trkpt>
<trkpt lat="54.457198" lon="-3.252004"><ele>169</ele><time>2022-03-29T09:25:58Z</time><name>PT555</name></trkpt>
<trkpt lat="54.457178" lon="-3.251994"><ele>169</ele><time>2022-03-29T09:26:02Z</time><name>PT556</name></trkpt>
<trkpt lat="54.457158" lon="-3.251977"><ele>170</ele><time>2022-03-29T09:26:06Z</time><name>PT557</name></trkpt>
<trkpt lat="54.457146" lon="-3.251963"><ele>171</ele><time>2022-03-29T09:26:09Z</time><name>PT558</name></trkpt>
<trkpt lat="54.457132" lon="-3.251949"><ele>172</ele><time>2022-03-29T09:26:12Z</time><name>PT559</name></trkpt>
<trkpt lat="54.457119" lon="-3.251936"><ele>172</ele><time>2022-03-29T09:26:15Z</time><name>PT560</name></trkpt>
<trkpt lat="54.457096" lon="-3.251922"><ele>172</ele><time>2022-03-29T09:26:19Z</time><name>PT561</name></trkpt>
<trkpt lat="54.457077" lon="-3.251894"><ele>173</ele><time>2022-03-29T09:26:23Z</time><name>PT562</name></trkpt>
<trkpt lat="54.457055" lon="-3.251862"><ele>174</ele><time>2022-03-29T09:26:27Z</time><name>PT563</name></trkpt>
<trkpt lat="54.457037" lon="-3.251842"><ele>174</ele><time>2022-03-29T09:26:31Z</time><name>PT564</name></trkpt>
<trkpt lat="54.457017" lon="-3.251824"><ele>175</ele><time>2022-03-29T09:26:35Z</time><name>PT565</name></trkpt>
<trkpt lat="54.456998" lon="-3.251817"><ele>175</ele><time>2022-03-29T09:26:38Z</time><name>PT566</name></trkpt>
<trkpt lat="54.456976" lon="-3.251810"><ele>175</ele><time>2022-03-29T09:26:41Z</time><name>PT567</name></trkpt>
<trkpt lat="54.456951" lon="-3.251782"><ele>176</ele><time>2022-03-29T09:26:45Z</time><name>PT568</name></trkpt>
<trkpt lat="54.456936" lon="-3.251761"><ele>176</ele><time>2022-03-29T09:26:48Z</time><name>PT569</name></trkpt>
<trkpt lat="54.456916" lon="-3.251728"><ele>177</ele><time>2022-03-29T09:26:52Z</time><name>PT570</name></trkpt>
<trkpt lat="54.456904" lon="-3.251704"><ele>178</ele><time>2022-03-29T09:26:55Z</time><name>PT571</name></trkpt>
<trkpt lat="54.456885" lon="-3.251680"><ele>179</ele><time>2022-03-29T09:26:59Z</time><name>PT572</name></trkpt>
<trkpt lat="54.456876" lon="-3.251656"><ele>180</ele><time>2022-03-29T09:27:02Z</time><name>PT573</name></trkpt>
<trkpt lat="54.456856" lon="-3.251641"><ele>180</ele><time>2022-03-29T09:27:06Z</time><name>PT574</name></trkpt>
<trkpt lat="54.456835" lon="-3.251637"><ele>181</ele><time>2022-03-29T09:27:10Z</time><name>PT575</name></trkpt>
<trkpt lat="54.456821" lon="-3.251622"><ele>182</ele><time>2022-03-29T09:27:13Z</time><name>PT576</name></trkpt>
<trkpt lat="54.456801" lon="-3.251609"><ele>182</ele><time>2022-03-29T09:27:17Z</time><name>PT577</name></trkpt>
<trkpt lat="54.456783" lon="-3.251601"><ele>182</ele><time>2022-03-29T09:27:20Z</time><name>PT578</name></trkpt>
<trkpt lat="54.456757" lon="-3.251584"><ele>183</ele><time>2022-03-29T09:27:24Z</time><name>PT579</name></trkpt>
<trkpt lat="54.456734" lon="-3.251577"><ele>183</ele><time>2022-03-29T09:27:28Z</time><name>PT580</name></trkpt>
<trkpt lat="54.456716" lon="-3.251557"><ele>183</ele><time>2022-03-29T09:27:32Z</time><name>PT581</name></trkpt>
<trkpt lat="54.456701" lon="-3.251544"><ele>183</ele><time>2022-03-29T09:27:35Z</time><name>PT582</name></trkpt>
<trkpt lat="54.456693" lon="-3.251542"><ele>183</ele><time>2022-03-29T09:27:39Z</time><name>PT583</name></trkpt>
<trkpt lat="54.456663" lon="-3.251529"><ele>184</ele><time>2022-03-29T09:27:45Z</time><name>PT584</name></trkpt>
<trkpt lat="54.456624" lon="-3.251519"><ele>184</ele><time>2022-03-29T09:27:49Z</time><name>PT585</name></trkpt>
<trkpt lat="54.456588" lon="-3.251509"><ele>185</ele><time>2022-03-29T09:27:53Z</time><name>PT586</name></trkpt>
<trkpt lat="54.456565" lon="-3.251494"><ele>186</ele><time>2022-03-29T09:27:56Z</time><name>PT587</name></trkpt>
<trkpt lat="54.456543" lon="-3.251472"><ele>186</ele><time>2022-03-29T09:28:00Z</time><name>PT588</name></trkpt>
<trkpt lat="54.456522" lon="-3.251451"><ele>187</ele><time>2022-03-29T09:28:04Z</time><name>PT589</name></trkpt>
<trkpt lat="54.456504" lon="-3.251445"><ele>187</ele><time>2022-03-29T09:28:07Z</time><name>PT590</name></trkpt>
<trkpt lat="54.456478" lon="-3.251443"><ele>188</ele><time>2022-03-29T09:28:11Z</time><name>PT591</name></trkpt>
<trkpt lat="54.456459" lon="-3.251427"><ele>188</ele><time>2022-03-29T09:28:14Z</time><name>PT592</name></trkpt>
<trkpt lat="54.456451" lon="-3.251402"><ele>188</ele><time>2022-03-29T09:28:18Z</time><name>PT593</name></trkpt>
<trkpt lat="54.456436" lon="-3.251388"><ele>189</ele><time>2022-03-29T09:28:21Z</time><name>PT594</name></trkpt>
<trkpt lat="54.456409" lon="-3.251379"><ele>189</ele><time>2022-03-29T09:28:25Z</time><name>PT595</name></trkpt>
<trkpt lat="54.456379" lon="-3.251378"><ele>190</ele><time>2022-03-29T09:28:29Z</time><name>PT596</name></trkpt>
<trkpt lat="54.456356" lon="-3.251359"><ele>190</ele><time>2022-03-29T09:28:33Z</time><name>PT597</name></trkpt>
<trkpt lat="54.456339" lon="-3.251347"><ele>191</ele><time>2022-03-29T09:28:36Z</time><name>PT598</name></trkpt>
<trkpt lat="54.456318" lon="-3.251334"><ele>191</ele><time>2022-03-29T09:28:40Z</time><name>PT599</name></trkpt>
<trkpt lat="54.456295" lon="-3.251341"><ele>192</ele><time>2022-03-29T09:28:44Z</time><name>PT600</name></trkpt>
<trkpt lat="54.456280" lon="-3.251347"><ele>192</ele><time>2022-03-29T09:28:47Z</time><name>PT601</name></trkpt>
<trkpt lat="54.456254" lon="-3.251351"><ele>193</ele><time>2022-03-29T09:28:51Z</time><name>PT602</name></trkpt>
<trkpt lat="54.456225" lon="-3.251358"><ele>193</ele><time>2022-03-29T09:28:55Z</time><name>PT603</name></trkpt>
<trkpt lat="54.456199" lon="-3.251348"><ele>194</ele><time>2022-03-29T09:28:59Z</time><name>PT604</name></trkpt>
<trkpt lat="54.456168" lon="-3.251339"><ele>194</ele><time>2022-03-29T09:29:03Z</time><name>PT605</name></trkpt>
<trkpt lat="54.456151" lon="-3.251318"><ele>194</ele><time>2022-03-29T09:29:07Z</time><name>PT606</name></trkpt>
<trkpt lat="54.456131" lon="-3.251295"><ele>195</ele><time>2022-03-29T09:29:11Z</time><name>PT607</name></trkpt>
<trkpt lat="54.456114" lon="-3.251266"><ele>195</ele><time>2022-03-29T09:29:15Z</time><name>PT608</name></trkpt>
<trkpt lat="54.456107" lon="-3.251242"><ele>196</ele><time>2022-03-29T09:29:18Z</time><name>PT609</name></trkpt>
<trkpt lat="54.456095" lon="-3.251224"><ele>196</ele><time>2022-03-29T09:29:21Z</time><name>PT610</name></trkpt>
<trkpt lat="54.456083" lon="-3.251209"><ele>197</ele><time>2022-03-29T09:29:24Z</time><name>PT611</name></trkpt>
<trkpt lat="54.456070" lon="-3.251179"><ele>198</ele><time>2022-03-29T09:29:28Z</time><name>PT612</name></trkpt>
<trkpt lat="54.456060" lon="-3.251155"><ele>198</ele><time>2022-03-29T09:29:31Z</time><name>PT613</name></trkpt>
<trkpt lat="54.456045" lon="-3.251153"><ele>198</ele><time>2022-03-29T09:29:35Z</time><name>PT614</name></trkpt>
<trkpt lat="54.456031" lon="-3.251151"><ele>199</ele><time>2022-03-29T09:29:38Z</time><name>PT615</name></trkpt>
<trkpt lat="54.456028" lon="-3.251146"><ele>199</ele><time>2022-03-29T09:29:42Z</time><name>PT616</name></trkpt>
<trkpt lat="54.456016" lon="-3.251121"><ele>200</ele><time>2022-03-29T09:29:45Z</time><name>PT617</name></trkpt>
<trkpt lat="54.455998" lon="-3.251100"><ele>201</ele><time>2022-03-29T09:29:49Z</time><name>PT618</name></trkpt>
<trkpt lat="54.455990" lon="-3.251078"><ele>202</ele><time>2022-03-29T09:29:52Z</time><name>PT619</name></trkpt>
<trkpt lat="54.455966" lon="-3.251069"><ele>203</ele><time>2022-03-29T09:29:56Z</time><name>PT620</name></trkpt>
<trkpt lat="54.455938" lon="-3.251074"><ele>203</ele><time>2022-03-29T09:30:00Z</time><name>PT621</name></trkpt>
<trkpt lat="54.455916" lon="-3.251081"><ele>203</ele><time>2022-03-29T09:30:03Z</time><name>PT622</name></trkpt>
<trkpt lat="54.455891" lon="-3.251082"><ele>204</ele><time>2022-03-29T09:30:07Z</time><name>PT623</name></trkpt>
<trkpt lat="54.455871" lon="-3.251078"><ele>205</ele><time>2022-03-29T09:30:10Z</time><name>PT624</name></trkpt>
<trkpt lat="54.455843" lon="-3.251081"><ele>206</ele><time>2022-03-29T09:30:14Z</time><name>PT625</name></trkpt>
<trkpt lat="54.455818" lon="-3.251071"><ele>206</ele><time>2022-03-29T09:30:18Z</time><name>PT626</name></trkpt>
<trkpt lat="54.455796" lon="-3.251070"><ele>206</ele><time>2022-03-29T09:30:21Z</time><name>PT627</name></trkpt>
<trkpt lat="54.455773" lon="-3.251060"><ele>207</ele><time>2022-03-29T09:30:25Z</time><name>PT628</name></trkpt>
<trkpt lat="54.455770" lon="-3.251050"><ele>207</ele><time>2022-03-29T09:30:29Z</time><name>PT629</name></trkpt>
<trkpt lat="54.455755" lon="-3.251042"><ele>208</ele><time>2022-03-29T09:30:33Z</time><name>PT630</name></trkpt>
<trkpt lat="54.455729" lon="-3.251041"><ele>209</ele><time>2022-03-29T09:30:37Z</time><name>PT631</name></trkpt>
<trkpt lat="54.455708" lon="-3.251033"><ele>209</ele><time>2022-03-29T09:30:40Z</time><name>PT632</name></trkpt>
<trkpt lat="54.455686" lon="-3.251017"><ele>210</ele><time>2022-03-29T09:30:44Z</time><name>PT633</name></trkpt>
<trkpt lat="54.455676" lon="-3.251012"><ele>210</ele><time>2022-03-29T09:30:48Z</time><name>PT634</name></trkpt>
<trkpt lat="54.455663" lon="-3.251022"><ele>210</ele><time>2022-03-29T09:30:51Z</time><name>PT635</name></trkpt>
<trkpt lat="54.455637" lon="-3.251031"><ele>211</ele><time>2022-03-29T09:30:54Z</time><name>PT636</name></trkpt>
<trkpt lat="54.455602" lon="-3.251031"><ele>211</ele><time>2022-03-29T09:30:58Z</time><name>PT637</name></trkpt>
<trkpt lat="54.455578" lon="-3.251035"><ele>212</ele><time>2022-03-29T09:31:01Z</time><name>PT638</name></trkpt>
<trkpt lat="54.455544" lon="-3.251020"><ele>213</ele><time>2022-03-29T09:31:05Z</time><name>PT639</name></trkpt>
<trkpt lat="54.455519" lon="-3.250995"><ele>214</ele><time>2022-03-29T09:31:09Z</time><name>PT640</name></trkpt>
<trkpt lat="54.455502" lon="-3.250971"><ele>214</ele><time>2022-03-29T09:31:12Z</time><name>PT641</name></trkpt>
<trkpt lat="54.455485" lon="-3.250952"><ele>215</ele><time>2022-03-29T09:31:15Z</time><name>PT642</name></trkpt>
<trkpt lat="54.455468" lon="-3.250940"><ele>216</ele><time>2022-03-29T09:31:18Z</time><name>PT643</name></trkpt>
<trkpt lat="54.455446" lon="-3.250927"><ele>216</ele><time>2022-03-29T09:31:22Z</time><name>PT644</name></trkpt>
<trkpt lat="54.455423" lon="-3.250911"><ele>217</ele><time>2022-03-29T09:31:26Z</time><name>PT645</name></trkpt>
<trkpt lat="54.455398" lon="-3.250911"><ele>217</ele><time>2022-03-29T09:31:29Z</time><name>PT646</name></trkpt>
<trkpt lat="54.455359" lon="-3.250908"><ele>217</ele><time>2022-03-29T09:31:33Z</time><name>PT647</name></trkpt>
<trkpt lat="54.455328" lon="-3.250914"><ele>217</ele><time>2022-03-29T09:31:36Z</time><name>PT648</name></trkpt>
<trkpt lat="54.455291" lon="-3.250909"><ele>218</ele><time>2022-03-29T09:31:40Z</time><name>PT649</name></trkpt>
<trkpt lat="54.455259" lon="-3.250892"><ele>218</ele><time>2022-03-29T09:31:44Z</time><name>PT650</name></trkpt>
<trkpt lat="54.455236" lon="-3.250873"><ele>218</ele><time>2022-03-29T09:31:47Z</time><name>PT651</name></trkpt>
<trkpt lat="54.455214" lon="-3.250855"><ele>219</ele><time>2022-03-29T09:31:50Z</time><name>PT652</name></trkpt>
<trkpt lat="54.455184" lon="-3.250827"><ele>220</ele><time>2022-03-29T09:31:54Z</time><name>PT653</name></trkpt>
<trkpt lat="54.455165" lon="-3.250810"><ele>220</ele><time>2022-03-29T09:31:57Z</time><name>PT654</name></trkpt>
<trkpt lat="54.455141" lon="-3.250774"><ele>221</ele><time>2022-03-29T09:32:01Z</time><name>PT655</name></trkpt>
<trkpt lat="54.455118" lon="-3.250746"><ele>222</ele><time>2022-03-29T09:32:05Z</time><name>PT656</name></trkpt>
<trkpt lat="54.455103" lon="-3.250716"><ele>222</ele><time>2022-03-29T09:32:08Z</time><name>PT657</name></trkpt>
<trkpt lat="54.455081" lon="-3.250673"><ele>223</ele><time>2022-03-29T09:32:12Z</time><name>PT658</name></trkpt>
<trkpt lat="54.455055" lon="-3.250628"><ele>223</ele><time>2022-03-29T09:32:16Z</time><name>PT659</name></trkpt>
<trkpt lat="54.455037" lon="-3.250572"><ele>223</ele><time>2022-03-29T09:32:20Z</time><name>PT660</name></trkpt>
<trkpt lat="54.455021" lon="-3.250526"><ele>223</ele><time>2022-03-29T09:32:23Z</time><name>PT661</name></trkpt>
<trkpt lat="54.455008" lon="-3.250476"><ele>224</ele><time>2022-03-29T09:32:26Z</time><name>PT662</name></trkpt>
<trkpt lat="54.455002" lon="-3.250418"><ele>224</ele><time>2022-03-29T09:32:30Z</time><name>PT663</name></trkpt>
<trkpt lat="54.454997" lon="-3.250371"><ele>224</ele><time>2022-03-29T09:32:33Z</time><name>PT664</name></trkpt>
<trkpt lat="54.454990" lon="-3.250317"><ele>224</ele><time>2022-03-29T09:32:37Z</time><name>PT665</name></trkpt>
<trkpt lat="54.454973" lon="-3.250273"><ele>224</ele><time>2022-03-29T09:32:40Z</time><name>PT666</name></trkpt>
<trkpt lat="54.454962" lon="-3.250225"><ele>223</ele><time>2022-03-29T09:32:43Z</time><name>PT667</name></trkpt>
<trkpt lat="54.454950" lon="-3.250179"><ele>223</ele><time>2022-03-29T09:32:46Z</time><name>PT668</name></trkpt>
<trkpt lat="54.454938" lon="-3.250126"><ele>223</ele><time>2022-03-29T09:32:49Z</time><name>PT669</name></trkpt>
<trkpt lat="54.454920" lon="-3.250050"><ele>223</ele><time>2022-03-29T09:32:53Z</time><name>PT670</name></trkpt>
<trkpt lat="54.454908" lon="-3.249984"><ele>224</ele><time>2022-03-29T09:32:57Z</time><name>PT671</name></trkpt>
<trkpt lat="54.454905" lon="-3.249941"><ele>224</ele><time>2022-03-29T09:33:00Z</time><name>PT672</name></trkpt>
<trkpt lat="54.454899" lon="-3.249883"><ele>225</ele><time>2022-03-29T09:33:04Z</time><name>PT673</name></trkpt>
<trkpt lat="54.454889" lon="-3.249822"><ele>225</ele><time>2022-03-29T09:33:08Z</time><name>PT674</name></trkpt>
<trkpt lat="54.454884" lon="-3.249774"><ele>225</ele><time>2022-03-29T09:33:11Z</time><name>PT675</name></trkpt>
<trkpt lat="54.454880" lon="-3.249708"><ele>226</ele><time>2022-03-29T09:33:15Z</time><name>PT676</name></trkpt>
<trkpt lat="54.454890" lon="-3.249652"><ele>226</ele><time>2022-03-29T09:33:19Z</time><name>PT677</name></trkpt>
<trkpt lat="54.454893" lon="-3.249610"><ele>226</ele><time>2022-03-29T09:33:22Z</time><name>PT678</name></trkpt>
<trkpt lat="54.454877" lon="-3.249551"><ele>226</ele><time>2022-03-29T09:33:26Z</time><name>PT679</name></trkpt>
<trkpt lat="54.454867" lon="-3.249477"><ele>225</ele><time>2022-03-29T09:33:30Z</time><name>PT680</name></trkpt>
<trkpt lat="54.454870" lon="-3.249418"><ele>225</ele><time>2022-03-29T09:33:33Z</time><name>PT681</name></trkpt>
<trkpt lat="54.454870" lon="-3.249359"><ele>225</ele><time>2022-03-29T09:33:36Z</time><name>PT682</name></trkpt>
<trkpt lat="54.454880" lon="-3.249287"><ele>226</ele><time>2022-03-29T09:33:40Z</time><name>PT683</name></trkpt>
<trkpt lat="54.454888" lon="-3.249234"><ele>226</ele><time>2022-03-29T09:33:43Z</time><name>PT684</name></trkpt>
<trkpt lat="54.454894" lon="-3.249165"><ele>226</ele><time>2022-03-29T09:33:47Z</time><name>PT685</name></trkpt>
<trkpt lat="54.454896" lon="-3.249106"><ele>227</ele><time>2022-03-29T09:33:50Z</time><name>PT686</name></trkpt>
<trkpt lat="54.454904" lon="-3.249056"><ele>227</ele><time>2022-03-29T09:33:53Z</time><name>PT687</name></trkpt>
<trkpt lat="54.454915" lon="-3.248992"><ele>227</ele><time>2022-03-29T09:33:57Z</time><name>PT688</name></trkpt>
<trkpt lat="54.454929" lon="-3.248928"><ele>228</ele><time>2022-03-29T09:34:01Z</time><name>PT689</name></trkpt>
<trkpt lat="54.454942" lon="-3.248890"><ele>229</ele><time>2022-03-29T09:34:04Z</time><name>PT690</name></trkpt>
<trkpt lat="54.454935" lon="-3.248829"><ele>230</ele><time>2022-03-29T09:34:08Z</time><name>PT691</name></trkpt>
<trkpt lat="54.454941" lon="-3.248786"><ele>230</ele><time>2022-03-29T09:34:11Z</time><name>PT692</name></trkpt>
<trkpt lat="54.454949" lon="-3.248742"><ele>230</ele><time>2022-03-29T09:34:14Z</time><name>PT693</name></trkpt>
<trkpt lat="54.454964" lon="-3.248684"><ele>231</ele><time>2022-03-29T09:34:18Z</time><name>PT694</name></trkpt>
<trkpt lat="54.454977" lon="-3.248629"><ele>232</ele><time>2022-03-29T09:34:22Z</time><name>PT695</name></trkpt>
<trkpt lat="54.454980" lon="-3.248585"><ele>233</ele><time>2022-03-29T09:34:25Z</time><name>PT696</name></trkpt>
<trkpt lat="54.454969" lon="-3.248518"><ele>232</ele><time>2022-03-29T09:34:29Z</time><name>PT697</name></trkpt>
<trkpt lat="54.454963" lon="-3.248467"><ele>231</ele><time>2022-03-29T09:34:32Z</time><name>PT698</name></trkpt>
<trkpt lat="54.454948" lon="-3.248397"><ele>230</ele><time>2022-03-29T09:34:36Z</time><name>PT699</name></trkpt>
<trkpt lat="54.454950" lon="-3.248340"><ele>230</ele><time>2022-03-29T09:34:39Z</time><name>PT700</name></trkpt>
<trkpt lat="54.454959" lon="-3.248282"><ele>229</ele><time>2022-03-29T09:34:43Z</time><name>PT701</name></trkpt>
<trkpt lat="54.454964" lon="-3.248225"><ele>228</ele><time>2022-03-29T09:34:46Z</time><name>PT702</name></trkpt>
<trkpt lat="54.454958" lon="-3.248153"><ele>228</ele><time>2022-03-29T09:34:50Z</time><name>PT703</name></trkpt>
<trkpt lat="54.454955" lon="-3.248085"><ele>228</ele><time>2022-03-29T09:34:54Z</time><name>PT704</name></trkpt>
<trkpt lat="54.454955" lon="-3.248034"><ele>229</ele><time>2022-03-29T09:34:57Z</time><name>PT705</name></trkpt>
<trkpt lat="54.454960" lon="-3.247980"><ele>228</ele><time>2022-03-29T09:35:01Z</time><name>PT706</name></trkpt>
<trkpt lat="54.454967" lon="-3.247906"><ele>228</ele><time>2022-03-29T09:35:05Z</time><name>PT707</name></trkpt>
<trkpt lat="54.454985" lon="-3.247835"><ele>228</ele><time>2022-03-29T09:35:09Z</time><name>PT708</name></trkpt>
<trkpt lat="54.454986" lon="-3.247792"><ele>227</ele><time>2022-03-29T09:35:12Z</time><name>PT709</name></trkpt>
<trkpt lat="54.454984" lon="-3.247745"><ele>227</ele><time>2022-03-29T09:35:15Z</time><name>PT710</name></trkpt>
<trkpt lat="54.454974" lon="-3.247710"><ele>227</ele><time>2022-03-29T09:35:18Z</time><name>PT711</name></trkpt>
<trkpt lat="54.454961" lon="-3.247658"><ele>228</ele><time>2022-03-29T09:35:22Z</time><name>PT712</name></trkpt>
<trkpt lat="54.454953" lon="-3.247619"><ele>228</ele><time>2022-03-29T09:35:25Z</time><name>PT713</name></trkpt>
<trkpt lat="54.454948" lon="-3.247577"><ele>229</ele><time>2022-03-29T09:35:29Z</time><name>PT714</name></trkpt>
<trkpt lat="54.454945" lon="-3.247546"><ele>230</ele><time>2022-03-29T09:35:32Z</time><name>PT715</name></trkpt>
<trkpt lat="54.454945" lon="-3.247505"><ele>231</ele><time>2022-03-29T09:35:36Z</time><name>PT716</name></trkpt>
<trkpt lat="54.454942" lon="-3.247470"><ele>231</ele><time>2022-03-29T09:35:39Z</time><name>PT717</name></trkpt>
<trkpt lat="54.454936" lon="-3.247433"><ele>232</ele><time>2022-03-29T09:35:42Z</time><name>PT718</name></trkpt>
<trkpt lat="54.454944" lon="-3.247419"><ele>232</ele><time>2022-03-29T09:35:46Z</time><name>PT719</name></trkpt>
<trkpt lat="54.454931" lon="-3.247399"><ele>232</ele><time>2022-03-29T09:35:50Z</time><name>PT720</name></trkpt>
<trkpt lat="54.454931" lon="-3.247365"><ele>231</ele><time>2022-03-29T09:35:54Z</time><name>PT721</name></trkpt>
<trkpt lat="54.454928" lon="-3.247321"><ele>231</ele><time>2022-03-29T09:35:57Z</time><name>PT722</name></trkpt>
<trkpt lat="54.454937" lon="-3.247286"><ele>232</ele><time>2022-03-29T09:36:01Z</time><name>PT723</name></trkpt>
<trkpt lat="54.454939" lon="-3.247240"><ele>232</ele><time>2022-03-29T09:36:05Z</time><name>PT724</name></trkpt>
<trkpt lat="54.454951" lon="-3.247209"><ele>232</ele><time>2022-03-29T09:36:08Z</time><name>PT725</name></trkpt>
<trkpt lat="54.454955" lon="-3.247175"><ele>233</ele><time>2022-03-29T09:36:12Z</time><name>PT726</name></trkpt>
<trkpt lat="54.454963" lon="-3.247149"><ele>234</ele><time>2022-03-29T09:36:15Z</time><name>PT727</name></trkpt>
<trkpt lat="54.454975" lon="-3.247103"><ele>235</ele><time>2022-03-29T09:36:19Z</time><name>PT728</name></trkpt>
<trkpt lat="54.454990" lon="-3.247072"><ele>236</ele><time>2022-03-29T09:36:23Z</time><name>PT729</name></trkpt>
<trkpt lat="54.454992" lon="-3.247054"><ele>237</ele><time>2022-03-29T09:36:26Z</time><name>PT730</name></trkpt>
<trkpt lat="54.455003" lon="-3.247021"><ele>237</ele><time>2022-03-29T09:36:30Z</time><name>PT731</name></trkpt>
<trkpt lat="54.455011" lon="-3.246992"><ele>238</ele><time>2022-03-29T09:36:33Z</time><name>PT732</name></trkpt>
<trkpt lat="54.455029" lon="-3.246958"><ele>239</ele><time>2022-03-29T09:36:37Z</time><name>PT733</name></trkpt>
<trkpt lat="54.455041" lon="-3.246936"><ele>238</ele><time>2022-03-29T09:36:40Z</time><name>PT734</name></trkpt>
<trkpt lat="54.455062" lon="-3.246909"><ele>239</ele><time>2022-03-29T09:36:44Z</time><name>PT735</name></trkpt>
<trkpt lat="54.455074" lon="-3.246878"><ele>239</ele><time>2022-03-29T09:36:47Z</time><name>PT736</name></trkpt>
<trkpt lat="54.455085" lon="-3.246846"><ele>239</ele><time>2022-03-29T09:36:50Z</time><name>PT737</name></trkpt>
<trkpt lat="54.455097" lon="-3.246823"><ele>240</ele><time>2022-03-29T09:36:53Z</time><name>PT738</name></trkpt>
<trkpt lat="54.455107" lon="-3.246799"><ele>242</ele><time>2022-03-29T09:36:57Z</time><name>PT739</name></trkpt>
<trkpt lat="54.455121" lon="-3.246770"><ele>241</ele><time>2022-03-29T09:37:00Z</time><name>PT740</name></trkpt>
<trkpt lat="54.455130" lon="-3.246740"><ele>241</ele><time>2022-03-29T09:37:03Z</time><name>PT741</name></trkpt>
<trkpt lat="54.455144" lon="-3.246710"><ele>242</ele><time>2022-03-29T09:37:07Z</time><name>PT742</name></trkpt>
<trkpt lat="54.455160" lon="-3.246656"><ele>240</ele><time>2022-03-29T09:37:10Z</time><name>PT743</name></trkpt>
<trkpt lat="54.455167" lon="-3.246622"><ele>241</ele><time>2022-03-29T09:37:13Z</time><name>PT744</name></trkpt>
<trkpt lat="54.455173" lon="-3.246601"><ele>242</ele><time>2022-03-29T09:37:16Z</time><name>PT745</name></trkpt>
<trkpt lat="54.455183" lon="-3.246574"><ele>242</ele><time>2022-03-29T09:37:19Z</time><name>PT746</name></trkpt>
<trkpt lat="54.455192" lon="-3.246541"><ele>243</ele><time>2022-03-29T09:37:23Z</time><name>PT747</name></trkpt>
<trkpt lat="54.455200" lon="-3.246494"><ele>243</ele><time>2022-03-29T09:37:27Z</time><name>PT748</name></trkpt>
<trkpt lat="54.455213" lon="-3.246472"><ele>244</ele><time>2022-03-29T09:37:31Z</time><name>PT749</name></trkpt>
<trkpt lat="54.455230" lon="-3.246439"><ele>244</ele><time>2022-03-29T09:37:35Z</time><name>PT750</name></trkpt>
<trkpt lat="54.455254" lon="-3.246425"><ele>245</ele><time>2022-03-29T09:37:39Z</time><name>PT751</name></trkpt>
<trkpt lat="54.455277" lon="-3.246406"><ele>246</ele><time>2022-03-29T09:37:43Z</time><name>PT752</name></trkpt>
<trkpt lat="54.455296" lon="-3.246388"><ele>247</ele><time>2022-03-29T09:37:46Z</time><name>PT753</name></trkpt>
<trkpt lat="54.455315" lon="-3.246364"><ele>248</ele><time>2022-03-29T09:37:50Z</time><name>PT754</name></trkpt>
<trkpt lat="54.455328" lon="-3.246343"><ele>249</ele><time>2022-03-29T09:37:54Z</time><name>PT755</name></trkpt>
<trkpt lat="54.455353" lon="-3.246332"><ele>249</ele><time>2022-03-29T09:37:58Z</time><name>PT756</name></trkpt>
<trkpt lat="54.455373" lon="-3.246322"><ele>250</ele><time>2022-03-29T09:38:02Z</time><name>PT757</name></trkpt>
<trkpt lat="54.455385" lon="-3.246290"><ele>251</ele><time>2022-03-29T09:38:06Z</time><name>PT758</name></trkpt>
<trkpt lat="54.455391" lon="-3.246250"><ele>252</ele><time>2022-03-29T09:38:10Z</time><name>PT759</name></trkpt>
<trkpt lat="54.455402" lon="-3.246237"><ele>252</ele><time>2022-03-29T09:38:13Z</time><name>PT760</name></trkpt>
<trkpt lat="54.455404" lon="-3.246204"><ele>253</ele><time>2022-03-29T09:38:17Z</time><name>PT761</name></trkpt>
<trkpt lat="54.455408" lon="-3.246187"><ele>254</ele><time>2022-03-29T09:38:20Z</time><name>PT762</name></trkpt>
<trkpt lat="54.455419" lon="-3.246187"><ele>254</ele><time>2022-03-29T09:38:24Z</time><name>PT763</name></trkpt>
<trkpt lat="54.455426" lon="-3.246161"><ele>254</ele><time>2022-03-29T09:38:27Z</time><name>PT764</name></trkpt>
<trkpt lat="54.455434" lon="-3.246131"><ele>255</ele><time>2022-03-29T09:38:31Z</time><name>PT765</name></trkpt>
<trkpt lat="54.455446" lon="-3.246104"><ele>256</ele><time>2022-03-29T09:38:35Z</time><name>PT766</name></trkpt>
<trkpt lat="54.455461" lon="-3.246086"><ele>256</ele><time>2022-03-29T09:38:39Z</time><name>PT767</name></trkpt>
<trkpt lat="54.455475" lon="-3.246049"><ele>258</ele><time>2022-03-29T09:38:43Z</time><name>PT768</name></trkpt>
<trkpt lat="54.455486" lon="-3.246025"><ele>258</ele><time>2022-03-29T09:38:46Z</time><name>PT769</name></trkpt>
<trkpt lat="54.455495" lon="-3.245994"><ele>258</ele><time>2022-03-29T09:38:50Z</time><name>PT770</name></trkpt>
<trkpt lat="54.455493" lon="-3.245978"><ele>259</ele><time>2022-03-29T09:38:54Z</time><name>PT771</name></trkpt>
<trkpt lat="54.455490" lon="-3.245971"><ele>259</ele><time>2022-03-29T09:38:58Z</time><name>PT772</name></trkpt>
<trkpt lat="54.455494" lon="-3.245974"><ele>259</ele><time>2022-03-29T09:39:21Z</time><name>PT773</name></trkpt>
<trkpt lat="54.455502" lon="-3.245967"><ele>259</ele><time>2022-03-29T09:39:25Z</time><name>PT774</name></trkpt>
<trkpt lat="54.455509" lon="-3.245919"><ele>259</ele><time>2022-03-29T09:40:03Z</time><name>PT775</name></trkpt>
<trkpt lat="54.455508" lon="-3.245876"><ele>259</ele><time>2022-03-29T09:40:07Z</time><name>PT776</name></trkpt>
<trkpt lat="54.455519" lon="-3.245850"><ele>261</ele><time>2022-03-29T09:40:11Z</time><name>PT777</name></trkpt>
<trkpt lat="54.455531" lon="-3.245822"><ele>261</ele><time>2022-03-29T09:40:14Z</time><name>PT778</name></trkpt>
<trkpt lat="54.455544" lon="-3.245787"><ele>262</ele><time>2022-03-29T09:40:18Z</time><name>PT779</name></trkpt>
<trkpt lat="54.455548" lon="-3.245756"><ele>263</ele><time>2022-03-29T09:40:21Z</time><name>PT780</name></trkpt>
<trkpt lat="54.455549" lon="-3.245719"><ele>263</ele><time>2022-03-29T09:40:25Z</time><name>PT781</name></trkpt>
<trkpt lat="54.455559" lon="-3.245681"><ele>264</ele><time>2022-03-29T09:40:29Z</time><name>PT782</name></trkpt>
<trkpt lat="54.455561" lon="-3.245653"><ele>265</ele><time>2022-03-29T09:40:32Z</time><name>PT783</name></trkpt>
<trkpt lat="54.455583" lon="-3.245608"><ele>266</ele><time>2022-03-29T09:40:36Z</time><name>PT784</name></trkpt>
<trkpt lat="54.455591" lon="-3.245579"><ele>266</ele><time>2022-03-29T09:40:39Z</time><name>PT785</name></trkpt>
<trkpt lat="54.455599" lon="-3.245549"><ele>266</ele><time>2022-03-29T09:40:42Z</time><name>PT786</name></trkpt>
<trkpt lat="54.455603" lon="-3.245511"><ele>266</ele><time>2022-03-29T09:40:45Z</time><name>PT787</name></trkpt>
<trkpt lat="54.455617" lon="-3.245465"><ele>267</ele><time>2022-03-29T09:40:49Z</time><name>PT788</name></trkpt>
<trkpt lat="54.455620" lon="-3.245418"><ele>267</ele><time>2022-03-29T09:40:53Z</time><name>PT789</name></trkpt>
<trkpt lat="54.455624" lon="-3.245373"><ele>267</ele><time>2022-03-29T09:40:56Z</time><name>PT790</name></trkpt>
<trkpt lat="54.455637" lon="-3.245328"><ele>268</ele><time>2022-03-29T09:41:00Z</time><name>PT791</name></trkpt>
<trkpt lat="54.455651" lon="-3.245299"><ele>269</ele><time>2022-03-29T09:41:03Z</time><name>PT792</name></trkpt>
<trkpt lat="54.455670" lon="-3.245261"><ele>270</ele><time>2022-03-29T09:41:07Z</time><name>PT793</name></trkpt>
<trkpt lat="54.455681" lon="-3.245225"><ele>270</ele><time>2022-03-29T09:41:11Z</time><name>PT794</name></trkpt>
<trkpt lat="54.455690" lon="-3.245192"><ele>270</ele><time>2022-03-29T09:41:14Z</time><name>PT795</name></trkpt>
<trkpt lat="54.455692" lon="-3.245153"><ele>270</ele><time>2022-03-29T09:41:17Z</time><name>PT796</name></trkpt>
<trkpt lat="54.455700" lon="-3.245107"><ele>270</ele><time>2022-03-29T09:41:21Z</time><name>PT797</name></trkpt>
<trkpt lat="54.455708" lon="-3.245078"><ele>271</ele><time>2022-03-29T09:41:24Z</time><name>PT798</name></trkpt>
<trkpt lat="54.455712" lon="-3.245048"><ele>272</ele><time>2022-03-29T09:41:28Z</time><name>PT799</name></trkpt>
<trkpt lat="54.455711" lon="-3.245013"><ele>272</ele><time>2022-03-29T09:41:31Z</time><name>PT800</name></trkpt>
<trkpt lat="54.455727" lon="-3.244981"><ele>272</ele><time>2022-03-29T09:41:35Z</time><name>PT801</name></trkpt>
<trkpt lat="54.455738" lon="-3.244938"><ele>272</ele><time>2022-03-29T09:41:39Z</time><name>PT802</name></trkpt>
<trkpt lat="54.455754" lon="-3.244898"><ele>274</ele><time>2022-03-29T09:41:43Z</time><name>PT803</name></trkpt>
<trkpt lat="54.455765" lon="-3.244851"><ele>274</ele><time>2022-03-29T09:41:47Z</time><name>PT804</name></trkpt>
<trkpt lat="54.455771" lon="-3.244829"><ele>275</ele><time>2022-03-29T09:41:50Z</time><name>PT805</name></trkpt>
<trkpt lat="54.455782" lon="-3.244777"><ele>275</ele><time>2022-03-29T09:41:54Z</time><name>PT806</name></trkpt>
<trkpt lat="54.455790" lon="-3.244734"><ele>275</ele><time>2022-03-29T09:41:58Z</time><name>PT807</name></trkpt>
<trkpt lat="54.455792" lon="-3.244700"><ele>276</ele><time>2022-03-29T09:42:01Z</time><name>PT808</name></trkpt>
<trkpt lat="54.455802" lon="-3.244647"><ele>276</ele><time>2022-03-29T09:42:05Z</time><name>PT809</name></trkpt>
<trkpt lat="54.455809" lon="-3.244623"><ele>277</ele><time>2022-03-29T09:42:08Z</time><name>PT810</name></trkpt>
<trkpt lat="54.455820" lon="-3.244597"><ele>277</ele><time>2022-03-29T09:42:12Z</time><name>PT811</name></trkpt>
<trkpt lat="54.455827" lon="-3.244564"><ele>277</ele><time>2022-03-29T09:42:15Z</time><name>PT812</name></trkpt>
<trkpt lat="54.455832" lon="-3.244517"><ele>278</ele><time>2022-03-29T09:42:18Z</time><name>PT813</name></trkpt>
<trkpt lat="54.455835" lon="-3.244475"><ele>279</ele><time>2022-03-29T09:42:22Z</time><name>PT814</name></trkpt>
<trkpt lat="54.455836" lon="-3.244442"><ele>279</ele><time>2022-03-29T09:42:25Z</time><name>PT815</name></trkpt>
<trkpt lat="54.455836" lon="-3.244404"><ele>280</ele><time>2022-03-29T09:42:29Z</time><name>PT816</name></trkpt>
<trkpt lat="54.455840" lon="-3.244364"><ele>280</ele><time>2022-03-29T09:42:33Z</time><name>PT817</name></trkpt>
<trkpt lat="54.455836" lon="-3.244335"><ele>281</ele><time>2022-03-29T09:42:36Z</time><name>PT818</name></trkpt>
<trkpt lat="54.455833" lon="-3.244313"><ele>282</ele><time>2022-03-29T09:42:39Z</time><name>PT819</name></trkpt>
<trkpt lat="54.455831" lon="-3.244277"><ele>283</ele><time>2022-03-29T09:42:43Z</time><name>PT820</name></trkpt>
<trkpt lat="54.455828" lon="-3.244246"><ele>284</ele><time>2022-03-29T09:42:46Z</time><name>PT821</name></trkpt>
<trkpt lat="54.455827" lon="-3.244208"><ele>285</ele><time>2022-03-29T09:42:50Z</time><name>PT822</name></trkpt>
<trkpt lat="54.455829" lon="-3.244171"><ele>286</ele><time>2022-03-29T09:42:54Z</time><name>PT823</name></trkpt>
<trkpt lat="54.455830" lon="-3.244156"><ele>287</ele><time>2022-03-29T09:42:57Z</time><name>PT824</name></trkpt>
<trkpt lat="54.455836" lon="-3.244118"><ele>287</ele><time>2022-03-29T09:43:01Z</time><name>PT825</name></trkpt>
<trkpt lat="54.455840" lon="-3.244085"><ele>287</ele><time>2022-03-29T09:43:04Z</time><name>PT826</name></trkpt>
<trkpt lat="54.455846" lon="-3.244035"><ele>288</ele><time>2022-03-29T09:43:08Z</time><name>PT827</name></trkpt>
<trkpt lat="54.455851" lon="-3.244003"><ele>288</ele><time>2022-03-29T09:43:11Z</time><name>PT828</name></trkpt>
<trkpt lat="54.455863" lon="-3.243980"><ele>289</ele><time>2022-03-29T09:43:14Z</time><name>PT829</name></trkpt>
<trkpt lat="54.455866" lon="-3.243945"><ele>289</ele><time>2022-03-29T09:43:18Z</time><name>PT830</name></trkpt>
<trkpt lat="54.455867" lon="-3.243916"><ele>290</ele><time>2022-03-29T09:43:21Z</time><name>PT831</name></trkpt>
<trkpt lat="54.455861" lon="-3.243878"><ele>290</ele><time>2022-03-29T09:43:25Z</time><name>PT832</name></trkpt>
<trkpt lat="54.455859" lon="-3.243834"><ele>290</ele><time>2022-03-29T09:43:29Z</time><name>PT833</name></trkpt>
<trkpt lat="54.455859" lon="-3.243785"><ele>290</ele><time>2022-03-29T09:43:33Z</time><name>PT834</name></trkpt>
<trkpt lat="54.455858" lon="-3.243753"><ele>290</ele><time>2022-03-29T09:43:36Z</time><name>PT835</name></trkpt>
<trkpt lat="54.455858" lon="-3.243721"><ele>290</ele><time>2022-03-29T09:43:39Z</time><name>PT836</name></trkpt>
<trkpt lat="54.455850" lon="-3.243686"><ele>291</ele><time>2022-03-29T09:43:42Z</time><name>PT837</name></trkpt>
<trkpt lat="54.455851" lon="-3.243645"><ele>291</ele><time>2022-03-29T09:43:46Z</time><name>PT838</name></trkpt>
<trkpt lat="54.455850" lon="-3.243611"><ele>291</ele><time>2022-03-29T09:43:49Z</time><name>PT839</name></trkpt>
<trkpt lat="54.455846" lon="-3.243583"><ele>291</ele><time>2022-03-29T09:43:52Z</time><name>PT840</name></trkpt>
<trkpt lat="54.455842" lon="-3.243541"><ele>292</ele><time>2022-03-29T09:43:56Z</time><name>PT841</name></trkpt>
<trkpt lat="54.455836" lon="-3.243512"><ele>293</ele><time>2022-03-29T09:43:59Z</time><name>PT842</name></trkpt>
<trkpt lat="54.455838" lon="-3.243476"><ele>293</ele><time>2022-03-29T09:44:02Z</time><name>PT843</name></trkpt>
<trkpt lat="54.455839" lon="-3.243433"><ele>293</ele><time>2022-03-29T09:44:06Z</time><name>PT844</name></trkpt>
<trkpt lat="54.455842" lon="-3.243392"><ele>293</ele><time>2022-03-29T09:44:10Z</time><name>PT845</name></trkpt>
<trkpt lat="54.455847" lon="-3.243361"><ele>295</ele><time>2022-03-29T09:44:13Z</time><name>PT846</name></trkpt>
<trkpt lat="54.455858" lon="-3.243320"><ele>295</ele><time>2022-03-29T09:44:17Z</time><name>PT847</name></trkpt>
<trkpt lat="54.455871" lon="-3.243295"><ele>295</ele><time>2022-03-29T09:44:20Z</time><name>PT848</name></trkpt>
<trkpt lat="54.455879" lon="-3.243258"><ele>295</ele><time>2022-03-29T09:44:24Z</time><name>PT849</name></trkpt>
<trkpt lat="54.455881" lon="-3.243220"><ele>296</ele><time>2022-03-29T09:44:27Z</time><name>PT850</name></trkpt>
<trkpt lat="54.455886" lon="-3.243199"><ele>296</ele><time>2022-03-29T09:44:30Z</time><name>PT851</name></trkpt>
<trkpt lat="54.455886" lon="-3.243182"><ele>296</ele><time>2022-03-29T09:44:33Z</time><name>PT852</name></trkpt>
<trkpt lat="54.455884" lon="-3.243171"><ele>296</ele><time>2022-03-29T09:44:37Z</time><name>PT853</name></trkpt>
<trkpt lat="54.455893" lon="-3.243125"><ele>296</ele><time>2022-03-29T09:44:41Z</time><name>PT854</name></trkpt>
<trkpt lat="54.455898" lon="-3.243099"><ele>298</ele><time>2022-03-29T09:44:44Z</time><name>PT855</name></trkpt>
<trkpt lat="54.455907" lon="-3.243051"><ele>298</ele><time>2022-03-29T09:44:48Z</time><name>PT856</name></trkpt>
<trkpt lat="54.455914" lon="-3.243007"><ele>298</ele><time>2022-03-29T09:44:52Z</time><name>PT857</name></trkpt>
<trkpt lat="54.455915" lon="-3.242977"><ele>298</ele><time>2022-03-29T09:44:56Z</time><name>PT858</name></trkpt>
<trkpt lat="54.455913" lon="-3.242952"><ele>298</ele><time>2022-03-29T09:45:00Z</time><name>PT859</name></trkpt>
<trkpt lat="54.455903" lon="-3.242925"><ele>299</ele><time>2022-03-29T09:45:03Z</time><name>PT860</name></trkpt>
<trkpt lat="54.455887" lon="-3.242892"><ele>298</ele><time>2022-03-29T09:45:06Z</time><name>PT861</name></trkpt>
<trkpt lat="54.455863" lon="-3.242870"><ele>297</ele><time>2022-03-29T09:45:09Z</time><name>PT862</name></trkpt>
<trkpt lat="54.455841" lon="-3.242855"><ele>298</ele><time>2022-03-29T09:45:13Z</time><name>PT863</name></trkpt>
<trkpt lat="54.455831" lon="-3.242838"><ele>298</ele><time>2022-03-29T09:45:16Z</time><name>PT864</name></trkpt>
<trkpt lat="54.455814" lon="-3.242824"><ele>298</ele><time>2022-03-29T09:45:20Z</time><name>PT865</name></trkpt>
<trkpt lat="54.455806" lon="-3.242796"><ele>299</ele><time>2022-03-29T09:45:23Z</time><name>PT866</name></trkpt>
<trkpt lat="54.455803" lon="-3.242763"><ele>299</ele><time>2022-03-29T09:45:27Z</time><name>PT867</name></trkpt>
<trkpt lat="54.455802" lon="-3.242735"><ele>300</ele><time>2022-03-29T09:45:31Z</time><name>PT868</name></trkpt>
<trkpt lat="54.455793" lon="-3.242716"><ele>301</ele><time>2022-03-29T09:45:34Z</time><name>PT869</name></trkpt>
<trkpt lat="54.455780" lon="-3.242697"><ele>301</ele><time>2022-03-29T09:45:38Z</time><name>PT870</name></trkpt>
<trkpt lat="54.455766" lon="-3.242688"><ele>302</ele><time>2022-03-29T09:45:41Z</time><name>PT871</name></trkpt>
<trkpt lat="54.455747" lon="-3.242688"><ele>304</ele><time>2022-03-29T09:45:45Z</time><name>PT872</name></trkpt>
<trkpt lat="54.455739" lon="-3.242672"><ele>305</ele><time>2022-03-29T09:45:48Z</time><name>PT873</name></trkpt>
<trkpt lat="54.455732" lon="-3.242650"><ele>306</ele><time>2022-03-29T09:45:52Z</time><name>PT874</name></trkpt>
<trkpt lat="54.455731" lon="-3.242635"><ele>307</ele><time>2022-03-29T09:45:55Z</time><name>PT875</name></trkpt>
<trkpt lat="54.455724" lon="-3.242607"><ele>308</ele><time>2022-03-29T09:45:59Z</time><name>PT876</name></trkpt>
<trkpt lat="54.455720" lon="-3.242583"><ele>308</ele><time>2022-03-29T09:46:02Z</time><name>PT877</name></trkpt>
<trkpt lat="54.455709" lon="-3.242556"><ele>308</ele><time>2022-03-29T09:46:05Z</time><name>PT878</name></trkpt>
<trkpt lat="54.455694" lon="-3.242520"><ele>309</ele><time>2022-03-29T09:46:09Z</time><name>PT879</name></trkpt>
<trkpt lat="54.455684" lon="-3.242493"><ele>309</ele><time>2022-03-29T09:46:12Z</time><name>PT880</name></trkpt>
<trkpt lat="54.455678" lon="-3.242460"><ele>310</ele><time>2022-03-29T09:46:16Z</time><name>PT881</name></trkpt>
<trkpt lat="54.455661" lon="-3.242422"><ele>308</ele><time>2022-03-29T09:46:19Z</time><name>PT882</name></trkpt>
<trkpt lat="54.455646" lon="-3.242383"><ele>308</ele><time>2022-03-29T09:46:23Z</time><name>PT883</name></trkpt>
<trkpt lat="54.455635" lon="-3.242369"><ele>308</ele><time>2022-03-29T09:46:26Z</time><name>PT884</name></trkpt>
<trkpt lat="54.455630" lon="-3.242363"><ele>308</ele><time>2022-03-29T09:46:30Z</time><name>PT885</name></trkpt>
<trkpt lat="54.455621" lon="-3.242332"><ele>309</ele><time>2022-03-29T09:46:33Z</time><name>PT886</name></trkpt>
<trkpt lat="54.455615" lon="-3.242303"><ele>311</ele><time>2022-03-29T09:46:37Z</time><name>PT887</name></trkpt>
<trkpt lat="54.455603" lon="-3.242276"><ele>311</ele><time>2022-03-29T09:46:40Z</time><name>PT888</name></trkpt>
<trkpt lat="54.455596" lon="-3.242258"><ele>310</ele><time>2022-03-29T09:46:44Z</time><name>PT889</name></trkpt>
<trkpt lat="54.455575" lon="-3.242218"><ele>311</ele><time>2022-03-29T09:46:54Z</time><name>PT890</name></trkpt>
<trkpt lat="54.455558" lon="-3.242187"><ele>312</ele><time>2022-03-29T09:46:58Z</time><name>PT891</name></trkpt>
<trkpt lat="54.455555" lon="-3.242183"><ele>312</ele><time>2022-03-29T09:47:01Z</time><name>PT892</name></trkpt>
<trkpt lat="54.455549" lon="-3.242170"><ele>312</ele><time>2022-03-29T09:47:19Z</time><name>PT893</name></trkpt>
<trkpt lat="54.455536" lon="-3.242156"><ele>313</ele><time>2022-03-29T09:47:22Z</time><name>PT894</name></trkpt>
<trkpt lat="54.455527" lon="-3.242139"><ele>314</ele><time>2022-03-29T09:47:25Z</time><name>PT895</name></trkpt>
<trkpt lat="54.455513" lon="-3.242117"><ele>315</ele><time>2022-03-29T09:47:29Z</time><name>PT896</name></trkpt>
<trkpt lat="54.455505" lon="-3.242078"><ele>315</ele><time>2022-03-29T09:47:33Z</time><name>PT897</name></trkpt>
<trkpt lat="54.455498" lon="-3.242057"><ele>315</ele><time>2022-03-29T09:47:36Z</time><name>PT898</name></trkpt>
<trkpt lat="54.455490" lon="-3.242030"><ele>316</ele><time>2022-03-29T09:47:40Z</time><name>PT899</name></trkpt>
<trkpt lat="54.455476" lon="-3.242004"><ele>316</ele><time>2022-03-29T09:47:44Z</time><name>PT900</name></trkpt>
<trkpt lat="54.455475" lon="-3.241978"><ele>317</ele><time>2022-03-29T09:47:47Z</time><name>PT901</name></trkpt>
<trkpt lat="54.455467" lon="-3.241952"><ele>317</ele><time>2022-03-29T09:47:50Z</time><name>PT902</name></trkpt>
<trkpt lat="54.455464" lon="-3.241922"><ele>318</ele><time>2022-03-29T09:47:53Z</time><name>PT903</name></trkpt>
<trkpt lat="54.455462" lon="-3.241896"><ele>319</ele><time>2022-03-29T09:47:57Z</time><name>PT904</name></trkpt>
<trkpt lat="54.455453" lon="-3.241864"><ele>320</ele><time>2022-03-29T09:48:01Z</time><name>PT905</name></trkpt>
<trkpt lat="54.455451" lon="-3.241842"><ele>321</ele><time>2022-03-29T09:48:04Z</time><name>PT906</name></trkpt>
<trkpt lat="54.455450" lon="-3.241814"><ele>321</ele><time>2022-03-29T09:48:07Z</time><name>PT907</name></trkpt>
<trkpt lat="54.455447" lon="-3.241769"><ele>322</ele><time>2022-03-29T09:48:11Z</time><name>PT908</name></trkpt>
<trkpt lat="54.455439" lon="-3.241736"><ele>323</ele><time>2022-03-29T09:48:14Z</time><name>PT909</name></trkpt>
<trkpt lat="54.455435" lon="-3.241700"><ele>323</ele><time>2022-03-29T09:48:18Z</time><name>PT910</name></trkpt>
<trkpt lat="54.455432" lon="-3.241664"><ele>324</ele><time>2022-03-29T09:48:22Z</time><name>PT911</name></trkpt>
<trkpt lat="54.455428" lon="-3.241643"><ele>325</ele><time>2022-03-29T09:48:25Z</time><name>PT912</name></trkpt>
<trkpt lat="54.455421" lon="-3.241614"><ele>324</ele><time>2022-03-29T09:48:29Z</time><name>PT913</name></trkpt>
<trkpt lat="54.455421" lon="-3.241593"><ele>325</ele><time>2022-03-29T09:48:32Z</time><name>PT914</name></trkpt>
<trkpt lat="54.455421" lon="-3.241578"><ele>325</ele><time>2022-03-29T09:48:36Z</time><name>PT915</name></trkpt>
<trkpt lat="54.455428" lon="-3.241548"><ele>326</ele><time>2022-03-29T09:48:40Z</time><name>PT916</name></trkpt>
<trkpt lat="54.455435" lon="-3.241536"><ele>327</ele><time>2022-03-29T09:48:43Z</time><name>PT917</name></trkpt>
<trkpt lat="54.455444" lon="-3.241510"><ele>328</ele><time>2022-03-29T09:48:47Z</time><name>PT918</name></trkpt>
<trkpt lat="54.455445" lon="-3.241508"><ele>328</ele><time>2022-03-29T09:48:50Z</time><name>PT919</name></trkpt>
<trkpt lat="54.455447" lon="-3.241489"><ele>328</ele><time>2022-03-29T09:48:53Z</time><name>PT920</name></trkpt>
<trkpt lat="54.455454" lon="-3.241475"><ele>329</ele><time>2022-03-29T09:48:56Z</time><name>PT921</name></trkpt>
<trkpt lat="54.455454" lon="-3.241439"><ele>330</ele><time>2022-03-29T09:49:00Z</time><name>PT922</name></trkpt>
<trkpt lat="54.455449" lon="-3.241407"><ele>331</ele><time>2022-03-29T09:49:03Z</time><name>PT923</name></trkpt>
<trkpt lat="54.455454" lon="-3.241387"><ele>331</ele><time>2022-03-29T09:49:06Z</time><name>PT924</name></trkpt>
<trkpt lat="54.455452" lon="-3.241369"><ele>332</ele><time>2022-03-29T09:49:09Z</time><name>PT925</name></trkpt>
<trkpt lat="54.455458" lon="-3.241346"><ele>332</ele><time>2022-03-29T09:49:20Z</time><name>PT926</name></trkpt>
<trkpt lat="54.455459" lon="-3.241343"><ele>332</ele><time>2022-03-29T09:49:24Z</time><name>PT927</name></trkpt>
<trkpt lat="54.455467" lon="-3.241285"><ele>335</ele><time>2022-03-29T09:49:31Z</time><name>PT928</name></trkpt>
<trkpt lat="54.455469" lon="-3.241256"><ele>335</ele><time>2022-03-29T09:49:35Z</time><name>PT929</name></trkpt>
<trkpt lat="54.455478" lon="-3.241224"><ele>335</ele><time>2022-03-29T09:49:38Z</time><name>PT930</name></trkpt>
<trkpt lat="54.455478" lon="-3.241221"><ele>336</ele><time>2022-03-29T09:49:41Z</time><name>PT931</name></trkpt>
<trkpt lat="54.455477" lon="-3.241206"><ele>336</ele><time>2022-03-29T09:49:45Z</time><name>PT932</name></trkpt>
<trkpt lat="54.455478" lon="-3.241171"><ele>337</ele><time>2022-03-29T09:49:48Z</time><name>PT933</name></trkpt>
<trkpt lat="54.455478" lon="-3.241135"><ele>338</ele><time>2022-03-29T09:49:52Z</time><name>PT934</name></trkpt>
<trkpt lat="54.455483" lon="-3.241083"><ele>339</ele><time>2022-03-29T09:49:56Z</time><name>PT935</name></trkpt>
<trkpt lat="54.455483" lon="-3.241056"><ele>340</ele><time>2022-03-29T09:49:59Z</time><name>PT936</name></trkpt>
<trkpt lat="54.455487" lon="-3.241037"><ele>340</ele><time>2022-03-29T09:50:03Z</time><name>PT937</name></trkpt>
<trkpt lat="54.455498" lon="-3.241011"><ele>341</ele><time>2022-03-29T09:50:06Z</time><name>PT938</name></trkpt>
<trkpt lat="54.455496" lon="-3.240977"><ele>342</ele><time>2022-03-29T09:50:09Z</time><name>PT939</name></trkpt>
<trkpt lat="54.455494" lon="-3.240947"><ele>343</ele><time>2022-03-29T09:50:12Z</time><name>PT940</name></trkpt>
<trkpt lat="54.455488" lon="-3.240905"><ele>343</ele><time>2022-03-29T09:50:16Z</time><name>PT941</name></trkpt>
<trkpt lat="54.455481" lon="-3.240872"><ele>343</ele><time>2022-03-29T09:50:19Z</time><name>PT942</name></trkpt>
<trkpt lat="54.455478" lon="-3.240833"><ele>344</ele><time>2022-03-29T09:50:23Z</time><name>PT943</name></trkpt>
<trkpt lat="54.455476" lon="-3.240807"><ele>344</ele><time>2022-03-29T09:50:26Z</time><name>PT944</name></trkpt>
<trkpt lat="54.455477" lon="-3.240801"><ele>345</ele><time>2022-03-29T09:50:30Z</time><name>PT945</name></trkpt>
<trkpt lat="54.455469" lon="-3.240758"><ele>346</ele><time>2022-03-29T09:50:33Z</time><name>PT946</name></trkpt>
<trkpt lat="54.455468" lon="-3.240724"><ele>346</ele><time>2022-03-29T09:50:36Z</time><name>PT947</name></trkpt>
<trkpt lat="54.455463" lon="-3.240691"><ele>346</ele><time>2022-03-29T09:50:39Z</time><name>PT948</name></trkpt>
<trkpt lat="54.455452" lon="-3.240663"><ele>346</ele><time>2022-03-29T09:50:42Z</time><name>PT949</name></trkpt>
<trkpt lat="54.455444" lon="-3.240634"><ele>346</ele><time>2022-03-29T09:50:45Z</time><name>PT950</name></trkpt>
<trkpt lat="54.455432" lon="-3.240590"><ele>347</ele><time>2022-03-29T09:50:49Z</time><name>PT951</name></trkpt>
<trkpt lat="54.455423" lon="-3.240544"><ele>347</ele><time>2022-03-29T09:50:53Z</time><name>PT952</name></trkpt>
<trkpt lat="54.455420" lon="-3.240520"><ele>348</ele><time>2022-03-29T09:50:56Z</time><name>PT953</name></trkpt>
<trkpt lat="54.455417" lon="-3.240484"><ele>349</ele><time>2022-03-29T09:51:00Z</time><name>PT954</name></trkpt>
<trkpt lat="54.455414" lon="-3.240455"><ele>349</ele><time>2022-03-29T09:51:03Z</time><name>PT955</name></trkpt>
<trkpt lat="54.455405" lon="-3.240430"><ele>350</ele><time>2022-03-29T09:51:07Z</time><name>PT956</name></trkpt>
<trkpt lat="54.455402" lon="-3.240402"><ele>351</ele><time>2022-03-29T09:51:11Z</time><name>PT957</name></trkpt>
<trkpt lat="54.455398" lon="-3.240379"><ele>351</ele><time>2022-03-29T09:51:14Z</time><name>PT958</name></trkpt>
<trkpt lat="54.455395" lon="-3.240358"><ele>351</ele><time>2022-03-29T09:51:17Z</time><name>PT959</name></trkpt>
<trkpt lat="54.455384" lon="-3.240324"><ele>351</ele><time>2022-03-29T09:51:21Z</time><name>PT960</name></trkpt>
<trkpt lat="54.455378" lon="-3.240294"><ele>352</ele><time>2022-03-29T09:51:25Z</time><name>PT961</name></trkpt>
<trkpt lat="54.455366" lon="-3.240266"><ele>353</ele><time>2022-03-29T09:51:28Z</time><name>PT962</name></trkpt>
<trkpt lat="54.455357" lon="-3.240231"><ele>354</ele><time>2022-03-29T09:51:32Z</time><name>PT963</name></trkpt>
<trkpt lat="54.455355" lon="-3.240202"><ele>355</ele><time>2022-03-29T09:51:36Z</time><name>PT964</name></trkpt>
<trkpt lat="54.455351" lon="-3.240174"><ele>355</ele><time>2022-03-29T09:51:40Z</time><name>PT965</name></trkpt>
<trkpt lat="54.455347" lon="-3.240155"><ele>356</ele><time>2022-03-29T09:51:43Z</time><name>PT966</name></trkpt>
<trkpt lat="54.455343" lon="-3.240131"><ele>357</ele><time>2022-03-29T09:51:46Z</time><name>PT967</name></trkpt>
<trkpt lat="54.455346" lon="-3.240104"><ele>357</ele><time>2022-03-29T09:51:49Z</time><name>PT968</name></trkpt>
<trkpt lat="54.455347" lon="-3.240072"><ele>358</ele><time>2022-03-29T09:51:53Z</time><name>PT969</name></trkpt>
<trkpt lat="54.455343" lon="-3.240043"><ele>359</ele><time>2022-03-29T09:51:57Z</time><name>PT970</name></trkpt>
<trkpt lat="54.455339" lon="-3.240021"><ele>360</ele><time>2022-03-29T09:52:00Z</time><name>PT971</name></trkpt>
<trkpt lat="54.455339" lon="-3.239988"><ele>360</ele><time>2022-03-29T09:52:04Z</time><name>PT972</name></trkpt>
<trkpt lat="54.455340" lon="-3.239963"><ele>360</ele><time>2022-03-29T09:52:07Z</time><name>PT973</name></trkpt>
<trkpt lat="54.455332" lon="-3.239924"><ele>361</ele><time>2022-03-29T09:52:11Z</time><name>PT974</name></trkpt>
<trkpt lat="54.455328" lon="-3.239898"><ele>361</ele><time>2022-03-29T09:52:14Z</time><name>PT975</name></trkpt>
<trkpt lat="54.455325" lon="-3.239866"><ele>361</ele><time>2022-03-29T09:52:17Z</time><name>PT976</name></trkpt>
<trkpt lat="54.455327" lon="-3.239837"><ele>362</ele><time>2022-03-29T09:52:21Z</time><name>PT977</name></trkpt>
<trkpt lat="54.455327" lon="-3.239824"><ele>363</ele><time>2022-03-29T09:52:24Z</time><name>PT978</name></trkpt>
<trkpt lat="54.455328" lon="-3.239805"><ele>364</ele><time>2022-03-29T09:52:27Z</time><name>PT979</name></trkpt>
<trkpt lat="54.455324" lon="-3.239781"><ele>364</ele><time>2022-03-29T09:52:30Z</time><name>PT980</name></trkpt>
<trkpt lat="54.455311" lon="-3.239747"><ele>365</ele><time>2022-03-29T09:52:34Z</time><name>PT981</name></trkpt>
<trkpt lat="54.455309" lon="-3.239727"><ele>366</ele><time>2022-03-29T09:52:37Z</time><name>PT982</name></trkpt>
<trkpt lat="54.455304" lon="-3.239696"><ele>366</ele><time>2022-03-29T09:52:41Z</time><name>PT983</name></trkpt>
<trkpt lat="54.455292" lon="-3.239662"><ele>367</ele><time>2022-03-29T09:52:45Z</time><name>PT984</name></trkpt>
<trkpt lat="54.455289" lon="-3.239632"><ele>368</ele><time>2022-03-29T09:52:48Z</time><name>PT985</name></trkpt>
<trkpt lat="54.455289" lon="-3.239605"><ele>368</ele><time>2022-03-29T09:52:51Z</time><name>PT986</name></trkpt>
<trkpt lat="54.455284" lon="-3.239571"><ele>368</ele><time>2022-03-29T09:52:55Z</time><name>PT987</name></trkpt>
<trkpt lat="54.455283" lon="-3.239564"><ele>368</ele><time>2022-03-29T09:52:59Z</time><name>PT988</name></trkpt>
<trkpt lat="54.455269" lon="-3.239526"><ele>370</ele><time>2022-03-29T09:53:05Z</time><name>PT989</name></trkpt>
<trkpt lat="54.455273" lon="-3.239498"><ele>371</ele><time>2022-03-29T09:53:08Z</time><name>PT990</name></trkpt>
<trkpt lat="54.455280" lon="-3.239438"><ele>372</ele><time>2022-03-29T09:53:12Z</time><name>PT991</name></trkpt>
<trkpt lat="54.455276" lon="-3.239409"><ele>373</ele><time>2022-03-29T09:53:15Z</time><name>PT992</name></trkpt>
<trkpt lat="54.455268" lon="-3.239370"><ele>374</ele><time>2022-03-29T09:53:19Z</time><name>PT993</name></trkpt>
<trkpt lat="54.455266" lon="-3.239341"><ele>374</ele><time>2022-03-29T09:53:23Z</time><name>PT994</name></trkpt>
<trkpt lat="54.455265" lon="-3.239335"><ele>374</ele><time>2022-03-29T09:53:26Z</time><name>PT995</name></trkpt>
<trkpt lat="54.455264" lon="-3.239307"><ele>375</ele><time>2022-03-29T09:53:30Z</time><name>PT996</name></trkpt>
<trkpt lat="54.455264" lon="-3.239279"><ele>375</ele><time>2022-03-29T09:53:33Z</time><name>PT997</name></trkpt>
<trkpt lat="54.455262" lon="-3.239246"><ele>375</ele><time>2022-03-29T09:53:37Z</time><name>PT998</name></trkpt>
<trkpt lat="54.455268" lon="-3.239241"><ele>376</ele><time>2022-03-29T09:53:41Z</time><name>PT999</name></trkpt>
<trkpt lat="54.455269" lon="-3.239234"><ele>376</ele><time>2022-03-29T09:53:45Z</time><name>PT1000</name></trkpt>
<trkpt lat="54.455282" lon="-3.239174"><ele>378</ele><time>2022-03-29T09:53:52Z</time><name>PT1001</name></trkpt>
<trkpt lat="54.455284" lon="-3.239140"><ele>378</ele><time>2022-03-29T09:53:55Z</time><name>PT1002</name></trkpt>
<trkpt lat="54.455279" lon="-3.239112"><ele>380</ele><time>2022-03-29T09:53:59Z</time><name>PT1003</name></trkpt>
<trkpt lat="54.455273" lon="-3.239078"><ele>380</ele><time>2022-03-29T09:54:03Z</time><name>PT1004</name></trkpt>
<trkpt lat="54.455269" lon="-3.239047"><ele>381</ele><time>2022-03-29T09:54:07Z</time><name>PT1005</name></trkpt>
<trkpt lat="54.455267" lon="-3.239010"><ele>382</ele><time>2022-03-29T09:54:11Z</time><name>PT1006</name></trkpt>
<trkpt lat="54.455265" lon="-3.238996"><ele>382</ele><time>2022-03-29T09:54:15Z</time><name>PT1007</name></trkpt>
<trkpt lat="54.455261" lon="-3.238968"><ele>382</ele><time>2022-03-29T09:54:18Z</time><name>PT1008</name></trkpt>
<trkpt lat="54.455258" lon="-3.238940"><ele>382</ele><time>2022-03-29T09:54:21Z</time><name>PT1009</name></trkpt>
<trkpt lat="54.455261" lon="-3.238923"><ele>383</ele><time>2022-03-29T09:54:24Z</time><name>PT1010</name></trkpt>
<trkpt lat="54.455248" lon="-3.238899"><ele>384</ele><time>2022-03-29T09:54:28Z</time><name>PT1011</name></trkpt>
<trkpt lat="54.455234" lon="-3.238854"><ele>385</ele><time>2022-03-29T09:54:32Z</time><name>PT1012</name></trkpt>
<trkpt lat="54.455229" lon="-3.238824"><ele>385</ele><time>2022-03-29T09:54:36Z</time><name>PT1013</name></trkpt>
<trkpt lat="54.455224" lon="-3.238795"><ele>386</ele><time>2022-03-29T09:54:40Z</time><name>PT1014</name></trkpt>
<trkpt lat="54.455219" lon="-3.238756"><ele>386</ele><time>2022-03-29T09:54:44Z</time><name>PT1015</name></trkpt>
<trkpt lat="54.455216" lon="-3.238726"><ele>387</ele><time>2022-03-29T09:54:47Z</time><name>PT1016</name></trkpt>
<trkpt lat="54.455215" lon="-3.238694"><ele>387</ele><time>2022-03-29T09:54:51Z</time><name>PT1017</name></trkpt>
<trkpt lat="54.455216" lon="-3.238669"><ele>388</ele><time>2022-03-29T09:54:55Z</time><name>PT1018</name></trkpt>
<trkpt lat="54.455211" lon="-3.238644"><ele>389</ele><time>2022-03-29T09:54:59Z</time><name>PT1019</name></trkpt>
<trkpt lat="54.455212" lon="-3.238622"><ele>389</ele><time>2022-03-29T09:55:02Z</time><name>PT1020</name></trkpt>
<trkpt lat="54.455212" lon="-3.238600"><ele>390</ele><time>2022-03-29T09:55:06Z</time><name>PT1021</name></trkpt>
<trkpt lat="54.455213" lon="-3.238593"><ele>391</ele><time>2022-03-29T09:55:10Z</time><name>PT1022</name></trkpt>
<trkpt lat="54.455210" lon="-3.238583"><ele>392</ele><time>2022-03-29T09:55:16Z</time><name>PT1023</name></trkpt>
<trkpt lat="54.455188" lon="-3.238532"><ele>393</ele><time>2022-03-29T09:55:20Z</time><name>PT1024</name></trkpt>
<trkpt lat="54.455177" lon="-3.238513"><ele>393</ele><time>2022-03-29T09:55:23Z</time><name>PT1025</name></trkpt>
<trkpt lat="54.455169" lon="-3.238495"><ele>394</ele><time>2022-03-29T09:55:26Z</time><name>PT1026</name></trkpt>
<trkpt lat="54.455154" lon="-3.238474"><ele>394</ele><time>2022-03-29T09:55:29Z</time><name>PT1027</name></trkpt>
<trkpt lat="54.455132" lon="-3.238446"><ele>395</ele><time>2022-03-29T09:55:33Z</time><name>PT1028</name></trkpt>
<trkpt lat="54.455120" lon="-3.238433"><ele>396</ele><time>2022-03-29T09:55:36Z</time><name>PT1029</name></trkpt>
<trkpt lat="54.455106" lon="-3.238413"><ele>396</ele><time>2022-03-29T09:55:39Z</time><name>PT1030</name></trkpt>
<trkpt lat="54.455087" lon="-3.238397"><ele>396</ele><time>2022-03-29T09:55:43Z</time><name>PT1031</name></trkpt>
<trkpt lat="54.455074" lon="-3.238379"><ele>396</ele><time>2022-03-29T09:55:46Z</time><name>PT1032</name></trkpt>
<trkpt lat="54.455060" lon="-3.238365"><ele>396</ele><time>2022-03-29T09:55:50Z</time><name>PT1033</name></trkpt>
<trkpt lat="54.455049" lon="-3.238347"><ele>397</ele><time>2022-03-29T09:55:53Z</time><name>PT1034</name></trkpt>
<trkpt lat="54.455049" lon="-3.238315"><ele>398</ele><time>2022-03-29T09:55:57Z</time><name>PT1035</name></trkpt>
<trkpt lat="54.455057" lon="-3.238312"><ele>398</ele><time>2022-03-29T09:56:00Z</time><name>PT1036</name></trkpt>
<trkpt lat="54.455066" lon="-3.238283"><ele>399</ele><time>2022-03-29T09:56:04Z</time><name>PT1037</name></trkpt>
<trkpt lat="54.455075" lon="-3.238272"><ele>400</ele><time>2022-03-29T09:56:07Z</time><name>PT1038</name></trkpt>
<trkpt lat="54.455075" lon="-3.238242"><ele>400</ele><time>2022-03-29T09:56:10Z</time><name>PT1039</name></trkpt>
<trkpt lat="54.455083" lon="-3.238222"><ele>401</ele><time>2022-03-29T09:56:14Z</time><name>PT1040</name></trkpt>
<trkpt lat="54.455085" lon="-3.238197"><ele>402</ele><time>2022-03-29T09:56:17Z</time><name>PT1041</name></trkpt>
<trkpt lat="54.455095" lon="-3.238175"><ele>402</ele><time>2022-03-29T09:56:21Z</time><name>PT1042</name></trkpt>
<trkpt lat="54.455102" lon="-3.238161"><ele>402</ele><time>2022-03-29T09:56:24Z</time><name>PT1043</name></trkpt>
<trkpt lat="54.455106" lon="-3.238145"><ele>403</ele><time>2022-03-29T09:56:27Z</time><name>PT1044</name></trkpt>
<trkpt lat="54.455111" lon="-3.238138"><ele>403</ele><time>2022-03-29T09:56:30Z</time><name>PT1045</name></trkpt>
<trkpt lat="54.455128" lon="-3.238089"><ele>405</ele><time>2022-03-29T09:56:46Z</time><name>PT1046</name></trkpt>
<trkpt lat="54.455146" lon="-3.238062"><ele>406</ele><time>2022-03-29T09:56:49Z</time><name>PT1047</name></trkpt>
<trkpt lat="54.455158" lon="-3.238039"><ele>407</ele><time>2022-03-29T09:56:52Z</time><name>PT1048</name></trkpt>
<trkpt lat="54.455167" lon="-3.238018"><ele>408</ele><time>2022-03-29T09:56:56Z</time><name>PT1049</name></trkpt>
<trkpt lat="54.455167" lon="-3.237986"><ele>409</ele><time>2022-03-29T09:56:59Z</time><name>PT1050</name></trkpt>
<trkpt lat="54.455179" lon="-3.237960"><ele>409</ele><time>2022-03-29T09:57:03Z</time><name>PT1051</name></trkpt>
<trkpt lat="54.455195" lon="-3.237946"><ele>409</ele><time>2022-03-29T09:57:07Z</time><name>PT1052</name></trkpt>
<trkpt lat="54.455204" lon="-3.237933"><ele>410</ele><time>2022-03-29T09:57:11Z</time><name>PT1053</name></trkpt>
<trkpt lat="54.455207" lon="-3.237917"><ele>410</ele><time>2022-03-29T09:57:14Z</time><name>PT1054</name></trkpt>
<trkpt lat="54.455203" lon="-3.237905"><ele>410</ele><time>2022-03-29T09:57:18Z</time><name>PT1055</name></trkpt>
<trkpt lat="54.455192" lon="-3.237882"><ele>411</ele><time>2022-03-29T09:57:21Z</time><name>PT1056</name></trkpt>
<trkpt lat="54.455186" lon="-3.237863"><ele>411</ele><time>2022-03-29T09:57:25Z</time><name>PT1057</name></trkpt>
<trkpt lat="54.455179" lon="-3.237841"><ele>411</ele><time>2022-03-29T09:57:28Z</time><name>PT1058</name></trkpt>
<trkpt lat="54.455183" lon="-3.237808"><ele>412</ele><time>2022-03-29T09:57:32Z</time><name>PT1059</name></trkpt>
<trkpt lat="54.455190" lon="-3.237789"><ele>413</ele><time>2022-03-29T09:57:36Z</time><name>PT1060</name></trkpt>
<trkpt lat="54.455190" lon="-3.237781"><ele>413</ele><time>2022-03-29T09:57:39Z</time><name>PT1061</name></trkpt>
<trkpt lat="54.455183" lon="-3.237764"><ele>414</ele><time>2022-03-29T09:57:42Z</time><name>PT1062</name></trkpt>
<trkpt lat="54.455181" lon="-3.237752"><ele>415</ele><time>2022-03-29T09:57:45Z</time><name>PT1063</name></trkpt>
<trkpt lat="54.455180" lon="-3.237739"><ele>416</ele><time>2022-03-29T09:57:49Z</time><name>PT1064</name></trkpt>
<trkpt lat="54.455177" lon="-3.237729"><ele>416</ele><time>2022-03-29T09:57:52Z</time><name>PT1065</name></trkpt>
<trkpt lat="54.455176" lon="-3.237717"><ele>416</ele><time>2022-03-29T09:57:59Z</time><name>PT1066</name></trkpt>
<trkpt lat="54.455182" lon="-3.237692"><ele>417</ele><time>2022-03-29T09:58:03Z</time><name>PT1067</name></trkpt>
<trkpt lat="54.455182" lon="-3.237676"><ele>418</ele><time>2022-03-29T09:58:06Z</time><name>PT1068</name></trkpt>
<trkpt lat="54.455190" lon="-3.237646"><ele>418</ele><time>2022-03-29T09:58:10Z</time><name>PT1069</name></trkpt>
<trkpt lat="54.455186" lon="-3.237610"><ele>419</ele><time>2022-03-29T09:58:14Z</time><name>PT1070</name></trkpt>
<trkpt lat="54.455180" lon="-3.237591"><ele>420</ele><time>2022-03-29T09:58:17Z</time><name>PT1071</name></trkpt>
<trkpt lat="54.455168" lon="-3.237570"><ele>420</ele><time>2022-03-29T09:58:20Z</time><name>PT1072</name></trkpt>
<trkpt lat="54.455161" lon="-3.237551"><ele>420</ele><time>2022-03-29T09:58:23Z</time><name>PT1073</name></trkpt>
<trkpt lat="54.455147" lon="-3.237526"><ele>421</ele><time>2022-03-29T09:58:27Z</time><name>PT1074</name></trkpt>
<trkpt lat="54.455142" lon="-3.237497"><ele>422</ele><time>2022-03-29T09:58:31Z</time><name>PT1075</name></trkpt>
<trkpt lat="54.455142" lon="-3.237492"><ele>422</ele><time>2022-03-29T09:58:34Z</time><name>PT1076</name></trkpt>
<trkpt lat="54.455135" lon="-3.237466"><ele>423</ele><time>2022-03-29T09:58:38Z</time><name>PT1077</name></trkpt>
<trkpt lat="54.455124" lon="-3.237426"><ele>424</ele><time>2022-03-29T09:58:42Z</time><name>PT1078</name></trkpt>
<trkpt lat="54.455112" lon="-3.237404"><ele>425</ele><time>2022-03-29T09:58:46Z</time><name>PT1079</name></trkpt>
<trkpt lat="54.455111" lon="-3.237381"><ele>426</ele><time>2022-03-29T09:58:49Z</time><name>PT1080</name></trkpt>
<trkpt lat="54.455096" lon="-3.237347"><ele>427</ele><time>2022-03-29T09:58:53Z</time><name>PT1081</name></trkpt>
<trkpt lat="54.455090" lon="-3.237330"><ele>427</ele><time>2022-03-29T09:58:56Z</time><name>PT1082</name></trkpt>
<trkpt lat="54.455090" lon="-3.237320"><ele>428</ele><time>2022-03-29T09:59:03Z</time><name>PT1083</name></trkpt>
<trkpt lat="54.455097" lon="-3.237294"><ele>428</ele><time>2022-03-29T09:59:06Z</time><name>PT1084</name></trkpt>
<trkpt lat="54.455096" lon="-3.237249"><ele>430</ele><time>2022-03-29T09:59:09Z</time><name>PT1085</name></trkpt>
<trkpt lat="54.455091" lon="-3.237223"><ele>430</ele><time>2022-03-29T09:59:13Z</time><name>PT1086</name></trkpt>
<trkpt lat="54.455082" lon="-3.237204"><ele>431</ele><time>2022-03-29T09:59:20Z</time><name>PT1087</name></trkpt>
<trkpt lat="54.455069" lon="-3.237171"><ele>432</ele><time>2022-03-29T09:59:23Z</time><name>PT1088</name></trkpt>
<trkpt lat="54.455049" lon="-3.237148"><ele>432</ele><time>2022-03-29T09:59:26Z</time><name>PT1089</name></trkpt>
<trkpt lat="54.455030" lon="-3.237114"><ele>433</ele><time>2022-03-29T09:59:30Z</time><name>PT1090</name></trkpt>
<trkpt lat="54.455009" lon="-3.237079"><ele>433</ele><time>2022-03-29T09:59:34Z</time><name>PT1091</name></trkpt>
<trkpt lat="54.454999" lon="-3.237050"><ele>434</ele><time>2022-03-29T09:59:38Z</time><name>PT1092</name></trkpt>
<trkpt lat="54.454991" lon="-3.237027"><ele>434</ele><time>2022-03-29T09:59:41Z</time><name>PT1093</name></trkpt>
<trkpt lat="54.454982" lon="-3.237000"><ele>435</ele><time>2022-03-29T09:59:44Z</time><name>PT1094</name></trkpt>
<trkpt lat="54.454967" lon="-3.236974"><ele>436</ele><time>2022-03-29T09:59:48Z</time><name>PT1095</name></trkpt>
<trkpt lat="54.454963" lon="-3.236952"><ele>436</ele><time>2022-03-29T09:59:51Z</time><name>PT1096</name></trkpt>
<trkpt lat="54.454957" lon="-3.236943"><ele>437</ele><time>2022-03-29T09:59:55Z</time><name>PT1097</name></trkpt>
<trkpt lat="54.454943" lon="-3.236899"><ele>437</ele><time>2022-03-29T09:59:59Z</time><name>PT1098</name></trkpt>
<trkpt lat="54.454922" lon="-3.236856"><ele>438</ele><time>2022-03-29T10:00:03Z</time><name>PT1099</name></trkpt>
<trkpt lat="54.454910" lon="-3.236833"><ele>438</ele><time>2022-03-29T10:00:06Z</time><name>PT1100</name></trkpt>
<trkpt lat="54.454897" lon="-3.236798"><ele>439</ele><time>2022-03-29T10:00:10Z</time><name>PT1101</name></trkpt>
<trkpt lat="54.454883" lon="-3.236755"><ele>439</ele><time>2022-03-29T10:00:14Z</time><name>PT1102</name></trkpt>
<trkpt lat="54.454868" lon="-3.236726"><ele>439</ele><time>2022-03-29T10:00:17Z</time><name>PT1103</name></trkpt>
<trkpt lat="54.454853" lon="-3.236688"><ele>440</ele><time>2022-03-29T10:00:21Z</time><name>PT1104</name></trkpt>
<trkpt lat="54.454845" lon="-3.236653"><ele>440</ele><time>2022-03-29T10:00:25Z</time><name>PT1105</name></trkpt>
<trkpt lat="54.454836" lon="-3.236635"><ele>441</ele><time>2022-03-29T10:00:29Z</time><name>PT1106</name></trkpt>
<trkpt lat="54.454825" lon="-3.236595"><ele>442</ele><time>2022-03-29T10:00:33Z</time><name>PT1107</name></trkpt>
<trkpt lat="54.454820" lon="-3.236574"><ele>443</ele><time>2022-03-29T10:00:36Z</time><name>PT1108</name></trkpt>
<trkpt lat="54.454811" lon="-3.236545"><ele>445</ele><time>2022-03-29T10:00:40Z</time><name>PT1109</name></trkpt>
<trkpt lat="54.454806" lon="-3.236505"><ele>445</ele><time>2022-03-29T10:00:44Z</time><name>PT1110</name></trkpt>
<trkpt lat="54.454800" lon="-3.236472"><ele>445</ele><time>2022-03-29T10:00:47Z</time><name>PT1111</name></trkpt>
<trkpt lat="54.454793" lon="-3.236443"><ele>446</ele><time>2022-03-29T10:00:51Z</time><name>PT1112</name></trkpt>
<trkpt lat="54.454782" lon="-3.236415"><ele>446</ele><time>2022-03-29T10:00:54Z</time><name>PT1113</name></trkpt>
<trkpt lat="54.454771" lon="-3.236368"><ele>446</ele><time>2022-03-29T10:00:58Z</time><name>PT1114</name></trkpt>
<trkpt lat="54.454756" lon="-3.236340"><ele>446</ele><time>2022-03-29T10:01:01Z</time><name>PT1115</name></trkpt>
<trkpt lat="54.454740" lon="-3.236308"><ele>446</ele><time>2022-03-29T10:01:05Z</time><name>PT1116</name></trkpt>
<trkpt lat="54.454734" lon="-3.236298"><ele>446</ele><time>2022-03-29T10:01:08Z</time><name>PT1117</name></trkpt>
<trkpt lat="54.454733" lon="-3.236284"><ele>447</ele><time>2022-03-29T10:01:11Z</time><name>PT1118</name></trkpt>
<trkpt lat="54.454720" lon="-3.236249"><ele>447</ele><time>2022-03-29T10:01:15Z</time><name>PT1119</name></trkpt>
<trkpt lat="54.454710" lon="-3.236205"><ele>448</ele><time>2022-03-29T10:01:19Z</time><name>PT1120</name></trkpt>
<trkpt lat="54.454697" lon="-3.236176"><ele>449</ele><time>2022-03-29T10:01:22Z</time><name>PT1121</name></trkpt>
<trkpt lat="54.454693" lon="-3.236152"><ele>449</ele><time>2022-03-29T10:01:25Z</time><name>PT1122</name></trkpt>
<trkpt lat="54.454682" lon="-3.236115"><ele>450</ele><time>2022-03-29T10:01:29Z</time><name>PT1123</name></trkpt>
<trkpt lat="54.454673" lon="-3.236096"><ele>450</ele><time>2022-03-29T10:01:32Z</time><name>PT1124</name></trkpt>
<trkpt lat="54.454657" lon="-3.236062"><ele>451</ele><time>2022-03-29T10:01:36Z</time><name>PT1125</name></trkpt>
<trkpt lat="54.454645" lon="-3.236029"><ele>452</ele><time>2022-03-29T10:01:40Z</time><name>PT1126</name></trkpt>
<trkpt lat="54.454637" lon="-3.235998"><ele>453</ele><time>2022-03-29T10:01:43Z</time><name>PT1127</name></trkpt>
<trkpt lat="54.454618" lon="-3.235960"><ele>453</ele><time>2022-03-29T10:01:47Z</time><name>PT1128</name></trkpt>
<trkpt lat="54.454608" lon="-3.235935"><ele>454</ele><time>2022-03-29T10:01:51Z</time><name>PT1129</name></trkpt>
<trkpt lat="54.454596" lon="-3.235910"><ele>455</ele><time>2022-03-29T10:01:55Z</time><name>PT1130</name></trkpt>
<trkpt lat="54.454585" lon="-3.235887"><ele>456</ele><time>2022-03-29T10:01:58Z</time><name>PT1131</name></trkpt>
<trkpt lat="54.454580" lon="-3.235865"><ele>456</ele><time>2022-03-29T10:02:01Z</time><name>PT1132</name></trkpt>
<trkpt lat="54.454562" lon="-3.235827"><ele>457</ele><time>2022-03-29T10:02:05Z</time><name>PT1133</name></trkpt>
<trkpt lat="54.454553" lon="-3.235804"><ele>457</ele><time>2022-03-29T10:02:08Z</time><name>PT1134</name></trkpt>
<trkpt lat="54.454546" lon="-3.235790"><ele>458</ele><time>2022-03-29T10:02:11Z</time><name>PT1135</name></trkpt>
<trkpt lat="54.454536" lon="-3.235766"><ele>458</ele><time>2022-03-29T10:02:15Z</time><name>PT1136</name></trkpt>
<trkpt lat="54.454526" lon="-3.235754"><ele>459</ele><time>2022-03-29T10:02:18Z</time><name>PT1137</name></trkpt>
<trkpt lat="54.454521" lon="-3.235737"><ele>459</ele><time>2022-03-29T10:02:21Z</time><name>PT1138</name></trkpt>
<trkpt lat="54.454518" lon="-3.235718"><ele>460</ele><time>2022-03-29T10:02:24Z</time><name>PT1139</name></trkpt>
<trkpt lat="54.454508" lon="-3.235681"><ele>460</ele><time>2022-03-29T10:02:28Z</time><name>PT1140</name></trkpt>
<trkpt lat="54.454492" lon="-3.235659"><ele>460</ele><time>2022-03-29T10:02:31Z</time><name>PT1141</name></trkpt>
<trkpt lat="54.454482" lon="-3.235629"><ele>460</ele><time>2022-03-29T10:02:35Z</time><name>PT1142</name></trkpt>
<trkpt lat="54.454482" lon="-3.235620"><ele>460</ele><time>2022-03-29T10:02:39Z</time><name>PT1143</name></trkpt>
<trkpt lat="54.454462" lon="-3.235587"><ele>461</ele><time>2022-03-29T10:02:43Z</time><name>PT1144</name></trkpt>
<trkpt lat="54.454463" lon="-3.235568"><ele>462</ele><time>2022-03-29T10:02:46Z</time><name>PT1145</name></trkpt>
<trkpt lat="54.454454" lon="-3.235547"><ele>462</ele><time>2022-03-29T10:02:50Z</time><name>PT1146</name></trkpt>
<trkpt lat="54.454447" lon="-3.235519"><ele>463</ele><time>2022-03-29T10:02:54Z</time><name>PT1147</name></trkpt>
<trkpt lat="54.454447" lon="-3.235506"><ele>464</ele><time>2022-03-29T10:02:57Z</time><name>PT1148</name></trkpt>
<trkpt lat="54.454441" lon="-3.235490"><ele>464</ele><time>2022-03-29T10:03:00Z</time><name>PT1149</name></trkpt>
<trkpt lat="54.454438" lon="-3.235460"><ele>465</ele><time>2022-03-29T10:03:04Z</time><name>PT1150</name></trkpt>
<trkpt lat="54.454436" lon="-3.235448"><ele>466</ele><time>2022-03-29T10:03:07Z</time><name>PT1151</name></trkpt>
<trkpt lat="54.454431" lon="-3.235439"><ele>466</ele><time>2022-03-29T10:03:10Z</time><name>PT1152</name></trkpt>
<trkpt lat="54.454429" lon="-3.235399"><ele>467</ele><time>2022-03-29T10:03:14Z</time><name>PT1153</name></trkpt>
<trkpt lat="54.454420" lon="-3.235373"><ele>468</ele><time>2022-03-29T10:03:17Z</time><name>PT1154</name></trkpt>
<trkpt lat="54.454421" lon="-3.235357"><ele>468</ele><time>2022-03-29T10:03:20Z</time><name>PT1155</name></trkpt>
<trkpt lat="54.454424" lon="-3.235336"><ele>469</ele><time>2022-03-29T10:03:23Z</time><name>PT1156</name></trkpt>
<trkpt lat="54.454425" lon="-3.235327"><ele>469</ele><time>2022-03-29T10:03:26Z</time><name>PT1157</name></trkpt>
<trkpt lat="54.454432" lon="-3.235314"><ele>470</ele><time>2022-03-29T10:03:30Z</time><name>PT1158</name></trkpt>
<trkpt lat="54.454434" lon="-3.235306"><ele>470</ele><time>2022-03-29T10:03:33Z</time><name>PT1159</name></trkpt>
<trkpt lat="54.454439" lon="-3.235287"><ele>471</ele><time>2022-03-29T10:03:37Z</time><name>PT1160</name></trkpt>
<trkpt lat="54.454430" lon="-3.235254"><ele>472</ele><time>2022-03-29T10:03:41Z</time><name>PT1161</name></trkpt>
<trkpt lat="54.454420" lon="-3.235229"><ele>472</ele><time>2022-03-29T10:03:44Z</time><name>PT1162</name></trkpt>
<trkpt lat="54.454415" lon="-3.235203"><ele>473</ele><time>2022-03-29T10:03:47Z</time><name>PT1163</name></trkpt>
<trkpt lat="54.454410" lon="-3.235174"><ele>474</ele><time>2022-03-29T10:03:51Z</time><name>PT1164</name></trkpt>
<trkpt lat="54.454407" lon="-3.235143"><ele>475</ele><time>2022-03-29T10:03:55Z</time><name>PT1165</name></trkpt>
<trkpt lat="54.454398" lon="-3.235118"><ele>475</ele><time>2022-03-29T10:03:59Z</time><name>PT1166</name></trkpt>
<trkpt lat="54.454395" lon="-3.235096"><ele>476</ele><time>2022-03-29T10:04:02Z</time><name>PT1167</name></trkpt>
<trkpt lat="54.454393" lon="-3.235070"><ele>476</ele><time>2022-03-29T10:04:06Z</time><name>PT1168</name></trkpt>
<trkpt lat="54.454392" lon="-3.235050"><ele>477</ele><time>2022-03-29T10:04:09Z</time><name>PT1169</name></trkpt>
<trkpt lat="54.454388" lon="-3.235022"><ele>477</ele><time>2022-03-29T10:04:13Z</time><name>PT1170</name></trkpt>
<trkpt lat="54.454383" lon="-3.234999"><ele>477</ele><time>2022-03-29T10:04:17Z</time><name>PT1171</name></trkpt>
<trkpt lat="54.454380" lon="-3.234982"><ele>478</ele><time>2022-03-29T10:04:20Z</time><name>PT1172</name></trkpt>
<trkpt lat="54.454375" lon="-3.234969"><ele>478</ele><time>2022-03-29T10:04:24Z</time><name>PT1173</name></trkpt>
<trkpt lat="54.454359" lon="-3.234947"><ele>479</ele><time>2022-03-29T10:04:28Z</time><name>PT1174</name></trkpt>
<trkpt lat="54.454340" lon="-3.234905"><ele>479</ele><time>2022-03-29T10:04:32Z</time><name>PT1175</name></trkpt>
<trkpt lat="54.454320" lon="-3.234872"><ele>479</ele><time>2022-03-29T10:04:36Z</time><name>PT1176</name></trkpt>
<trkpt lat="54.454310" lon="-3.234845"><ele>480</ele><time>2022-03-29T10:04:39Z</time><name>PT1177</name></trkpt>
<trkpt lat="54.454302" lon="-3.234822"><ele>480</ele><time>2022-03-29T10:04:42Z</time><name>PT1178</name></trkpt>
<trkpt lat="54.454295" lon="-3.234787"><ele>481</ele><time>2022-03-29T10:04:46Z</time><name>PT1179</name></trkpt>
<trkpt lat="54.454291" lon="-3.234751"><ele>481</ele><time>2022-03-29T10:04:50Z</time><name>PT1180</name></trkpt>
<trkpt lat="54.454282" lon="-3.234735"><ele>482</ele><time>2022-03-29T10:04:53Z</time><name>PT1181</name></trkpt>
<trkpt lat="54.454275" lon="-3.234723"><ele>483</ele><time>2022-03-29T10:04:56Z</time><name>PT1182</name></trkpt>
<trkpt lat="54.454274" lon="-3.234717"><ele>483</ele><time>2022-03-29T10:04:59Z</time><name>PT1183</name></trkpt>
<trkpt lat="54.454262" lon="-3.234655"><ele>484</ele><time>2022-03-29T10:05:10Z</time><name>PT1184</name></trkpt>
<trkpt lat="54.454250" lon="-3.234619"><ele>485</ele><time>2022-03-29T10:05:14Z</time><name>PT1185</name></trkpt>
<trkpt lat="54.454238" lon="-3.234608"><ele>486</ele><time>2022-03-29T10:05:17Z</time><name>PT1186</name></trkpt>
<trkpt lat="54.454234" lon="-3.234590"><ele>487</ele><time>2022-03-29T10:05:20Z</time><name>PT1187</name></trkpt>
<trkpt lat="54.454224" lon="-3.234574"><ele>488</ele><time>2022-03-29T10:05:23Z</time><name>PT1188</name></trkpt>
<trkpt lat="54.454221" lon="-3.234545"><ele>489</ele><time>2022-03-29T10:05:27Z</time><name>PT1189</name></trkpt>
<trkpt lat="54.454212" lon="-3.234518"><ele>489</ele><time>2022-03-29T10:05:31Z</time><name>PT1190</name></trkpt>
<trkpt lat="54.454207" lon="-3.234494"><ele>490</ele><time>2022-03-29T10:05:35Z</time><name>PT1191</name></trkpt>
<trkpt lat="54.454198" lon="-3.234467"><ele>491</ele><time>2022-03-29T10:05:39Z</time><name>PT1192</name></trkpt>
<trkpt lat="54.454191" lon="-3.234448"><ele>491</ele><time>2022-03-29T10:05:42Z</time><name>PT1193</name></trkpt>
<trkpt lat="54.454187" lon="-3.234421"><ele>492</ele><time>2022-03-29T10:05:45Z</time><name>PT1194</name></trkpt>
<trkpt lat="54.454186" lon="-3.234387"><ele>493</ele><time>2022-03-29T10:05:49Z</time><name>PT1195</name></trkpt>
<trkpt lat="54.454177" lon="-3.234362"><ele>494</ele><time>2022-03-29T10:05:53Z</time><name>PT1196</name></trkpt>
<trkpt lat="54.454171" lon="-3.234332"><ele>495</ele><time>2022-03-29T10:05:57Z</time><name>PT1197</name></trkpt>
<trkpt lat="54.454161" lon="-3.234295"><ele>496</ele><time>2022-03-29T10:06:01Z</time><name>PT1198</name></trkpt>
<trkpt lat="54.454156" lon="-3.234267"><ele>496</ele><time>2022-03-29T10:06:05Z</time><name>PT1199</name></trkpt>
<trkpt lat="54.454149" lon="-3.234236"><ele>496</ele><time>2022-03-29T10:06:09Z</time><name>PT1200</name></trkpt>
<trkpt lat="54.454148" lon="-3.234206"><ele>497</ele><time>2022-03-29T10:06:13Z</time><name>PT1201</name></trkpt>
<trkpt lat="54.454153" lon="-3.234174"><ele>498</ele><time>2022-03-29T10:06:17Z</time><name>PT1202</name></trkpt>
<trkpt lat="54.454156" lon="-3.234150"><ele>499</ele><time>2022-03-29T10:06:20Z</time><name>PT1203</name></trkpt>
<trkpt lat="54.454158" lon="-3.234113"><ele>499</ele><time>2022-03-29T10:06:24Z</time><name>PT1204</name></trkpt>
<trkpt lat="54.454160" lon="-3.234090"><ele>500</ele><time>2022-03-29T10:06:27Z</time><name>PT1205</name></trkpt>
<trkpt lat="54.454159" lon="-3.234071"><ele>500</ele><time>2022-03-29T10:06:30Z</time><name>PT1206</name></trkpt>
<trkpt lat="54.454156" lon="-3.234041"><ele>501</ele><time>2022-03-29T10:06:34Z</time><name>PT1207</name></trkpt>
<trkpt lat="54.454153" lon="-3.234017"><ele>502</ele><time>2022-03-29T10:06:38Z</time><name>PT1208</name></trkpt>
<trkpt lat="54.454152" lon="-3.234008"><ele>502</ele><time>2022-03-29T10:06:42Z</time><name>PT1209</name></trkpt>
<trkpt lat="54.454151" lon="-3.234003"><ele>502</ele><time>2022-03-29T10:06:48Z</time><name>PT1210</name></trkpt>
<trkpt lat="54.454143" lon="-3.233932"><ele>504</ele><time>2022-03-29T10:06:52Z</time><name>PT1211</name></trkpt>
<trkpt lat="54.454138" lon="-3.233900"><ele>504</ele><time>2022-03-29T10:06:55Z</time><name>PT1212</name></trkpt>
<trkpt lat="54.454130" lon="-3.233863"><ele>505</ele><time>2022-03-29T10:06:59Z</time><name>PT1213</name></trkpt>
<trkpt lat="54.454122" lon="-3.233835"><ele>506</ele><time>2022-03-29T10:07:02Z</time><name>PT1214</name></trkpt>
<trkpt lat="54.454117" lon="-3.233795"><ele>507</ele><time>2022-03-29T10:07:06Z</time><name>PT1215</name></trkpt>
<trkpt lat="54.454118" lon="-3.233773"><ele>508</ele><time>2022-03-29T10:07:09Z</time><name>PT1216</name></trkpt>
<trkpt lat="54.454111" lon="-3.233743"><ele>508</ele><time>2022-03-29T10:07:12Z</time><name>PT1217</name></trkpt>
<trkpt lat="54.454107" lon="-3.233714"><ele>508</ele><time>2022-03-29T10:07:16Z</time><name>PT1218</name></trkpt>
<trkpt lat="54.454097" lon="-3.233680"><ele>509</ele><time>2022-03-29T10:07:20Z</time><name>PT1219</name></trkpt>
<trkpt lat="54.454089" lon="-3.233654"><ele>509</ele><time>2022-03-29T10:07:23Z</time><name>PT1220</name></trkpt>
<trkpt lat="54.454088" lon="-3.233613"><ele>510</ele><time>2022-03-29T10:07:27Z</time><name>PT1221</name></trkpt>
<trkpt lat="54.454087" lon="-3.233574"><ele>510</ele><time>2022-03-29T10:07:31Z</time><name>PT1222</name></trkpt>
<trkpt lat="54.454083" lon="-3.233547"><ele>512</ele><time>2022-03-29T10:07:35Z</time><name>PT1223</name></trkpt>
<trkpt lat="54.454082" lon="-3.233519"><ele>512</ele><time>2022-03-29T10:07:38Z</time><name>PT1224</name></trkpt>
<trkpt lat="54.454082" lon="-3.233488"><ele>513</ele><time>2022-03-29T10:07:42Z</time><name>PT1225</name></trkpt>
<trkpt lat="54.454089" lon="-3.233485"><ele>514</ele><time>2022-03-29T10:07:45Z</time><name>PT1226</name></trkpt>
<trkpt lat="54.454088" lon="-3.233451"><ele>514</ele><time>2022-03-29T10:07:49Z</time><name>PT1227</name></trkpt>
<trkpt lat="54.454090" lon="-3.233426"><ele>514</ele><time>2022-03-29T10:07:52Z</time><name>PT1228</name></trkpt>
<trkpt lat="54.454091" lon="-3.233418"><ele>515</ele><time>2022-03-29T10:07:55Z</time><name>PT1229</name></trkpt>
<trkpt lat="54.454095" lon="-3.233398"><ele>516</ele><time>2022-03-29T10:08:03Z</time><name>PT1230</name></trkpt>
<trkpt lat="54.454100" lon="-3.233340"><ele>518</ele><time>2022-03-29T10:08:07Z</time><name>PT1231</name></trkpt>
<trkpt lat="54.454102" lon="-3.233315"><ele>519</ele><time>2022-03-29T10:08:10Z</time><name>PT1232</name></trkpt>
<trkpt lat="54.454103" lon="-3.233300"><ele>519</ele><time>2022-03-29T10:08:18Z</time><name>PT1233</name></trkpt>
<trkpt lat="54.454107" lon="-3.233269"><ele>520</ele><time>2022-03-29T10:08:21Z</time><name>PT1234</name></trkpt>
<trkpt lat="54.454113" lon="-3.233236"><ele>521</ele><time>2022-03-29T10:08:32Z</time><name>PT1235</name></trkpt>
<trkpt lat="54.454117" lon="-3.233181"><ele>523</ele><time>2022-03-29T10:08:35Z</time><name>PT1236</name></trkpt>
<trkpt lat="54.454121" lon="-3.233126"><ele>524</ele><time>2022-03-29T10:08:39Z</time><name>PT1237</name></trkpt>
<trkpt lat="54.454126" lon="-3.233097"><ele>525</ele><time>2022-03-29T10:08:42Z</time><name>PT1238</name></trkpt>
<trkpt lat="54.454133" lon="-3.233058"><ele>526</ele><time>2022-03-29T10:08:46Z</time><name>PT1239</name></trkpt>
<trkpt lat="54.454134" lon="-3.233031"><ele>527</ele><time>2022-03-29T10:08:49Z</time><name>PT1240</name></trkpt>
<trkpt lat="54.454136" lon="-3.233024"><ele>527</ele><time>2022-03-29T10:08:53Z</time><name>PT1241</name></trkpt>
<trkpt lat="54.454137" lon="-3.232983"><ele>527</ele><time>2022-03-29T10:08:57Z</time><name>PT1242</name></trkpt>
<trkpt lat="54.454144" lon="-3.232960"><ele>528</ele><time>2022-03-29T10:09:01Z</time><name>PT1243</name></trkpt>
<trkpt lat="54.454149" lon="-3.232938"><ele>529</ele><time>2022-03-29T10:09:05Z</time><name>PT1244</name></trkpt>
<trkpt lat="54.454144" lon="-3.232896"><ele>530</ele><time>2022-03-29T10:09:08Z</time><name>PT1245</name></trkpt>
<trkpt lat="54.454147" lon="-3.232870"><ele>530</ele><time>2022-03-29T10:09:11Z</time><name>PT1246</name></trkpt>
<trkpt lat="54.454142" lon="-3.232838"><ele>531</ele><time>2022-03-29T10:09:14Z</time><name>PT1247</name></trkpt>
<trkpt lat="54.454141" lon="-3.232795"><ele>532</ele><time>2022-03-29T10:09:18Z</time><name>PT1248</name></trkpt>
<trkpt lat="54.454132" lon="-3.232750"><ele>532</ele><time>2022-03-29T10:09:22Z</time><name>PT1249</name></trkpt>
<trkpt lat="54.454130" lon="-3.232719"><ele>532</ele><time>2022-03-29T10:09:25Z</time><name>PT1250</name></trkpt>
<trkpt lat="54.454118" lon="-3.232669"><ele>532</ele><time>2022-03-29T10:09:29Z</time><name>PT1251</name></trkpt>
<trkpt lat="54.454112" lon="-3.232643"><ele>532</ele><time>2022-03-29T10:09:32Z</time><name>PT1252</name></trkpt>
<trkpt lat="54.454107" lon="-3.232610"><ele>533</ele><time>2022-03-29T10:09:36Z</time><name>PT1253</name></trkpt>
<trkpt lat="54.454103" lon="-3.232586"><ele>534</ele><time>2022-03-29T10:09:39Z</time><name>PT1254</name></trkpt>
<trkpt lat="54.454100" lon="-3.232559"><ele>534</ele><time>2022-03-29T10:09:42Z</time><name>PT1255</name></trkpt>
<trkpt lat="54.454100" lon="-3.232539"><ele>535</ele><time>2022-03-29T10:09:45Z</time><name>PT1256</name></trkpt>
<trkpt lat="54.454091" lon="-3.232520"><ele>536</ele><time>2022-03-29T10:09:49Z</time><name>PT1257</name></trkpt>
<trkpt lat="54.454087" lon="-3.232487"><ele>537</ele><time>2022-03-29T10:09:53Z</time><name>PT1258</name></trkpt>
<trkpt lat="54.454080" lon="-3.232456"><ele>538</ele><time>2022-03-29T10:09:56Z</time><name>PT1259</name></trkpt>
<trkpt lat="54.454066" lon="-3.232416"><ele>538</ele><time>2022-03-29T10:10:00Z</time><name>PT1260</name></trkpt>
<trkpt lat="54.454059" lon="-3.232387"><ele>538</ele><time>2022-03-29T10:10:03Z</time><name>PT1261</name></trkpt>
<trkpt lat="54.454048" lon="-3.232340"><ele>539</ele><time>2022-03-29T10:10:07Z</time><name>PT1262</name></trkpt>
<trkpt lat="54.454038" lon="-3.232306"><ele>540</ele><time>2022-03-29T10:10:11Z</time><name>PT1263</name></trkpt>
<trkpt lat="54.454017" lon="-3.232283"><ele>541</ele><time>2022-03-29T10:10:14Z</time><name>PT1264</name></trkpt>
<trkpt lat="54.453993" lon="-3.232231"><ele>541</ele><time>2022-03-29T10:10:18Z</time><name>PT1265</name></trkpt>
<trkpt lat="54.453984" lon="-3.232191"><ele>542</ele><time>2022-03-29T10:10:21Z</time><name>PT1266</name></trkpt>
<trkpt lat="54.453961" lon="-3.232150"><ele>542</ele><time>2022-03-29T10:10:25Z</time><name>PT1267</name></trkpt>
<trkpt lat="54.453944" lon="-3.232106"><ele>543</ele><time>2022-03-29T10:10:29Z</time><name>PT1268</name></trkpt>
<trkpt lat="54.453932" lon="-3.232065"><ele>544</ele><time>2022-03-29T10:10:33Z</time><name>PT1269</name></trkpt>
<trkpt lat="54.453921" lon="-3.232034"><ele>544</ele><time>2022-03-29T10:10:36Z</time><name>PT1270</name></trkpt>
<trkpt lat="54.453906" lon="-3.231998"><ele>544</ele><time>2022-03-29T10:10:40Z</time><name>PT1271</name></trkpt>
<trkpt lat="54.453892" lon="-3.231968"><ele>545</ele><time>2022-03-29T10:10:43Z</time><name>PT1272</name></trkpt>
<trkpt lat="54.453881" lon="-3.231931"><ele>545</ele><time>2022-03-29T10:10:47Z</time><name>PT1273</name></trkpt>
<trkpt lat="54.453874" lon="-3.231897"><ele>546</ele><time>2022-03-29T10:10:51Z</time><name>PT1274</name></trkpt>
<trkpt lat="54.453865" lon="-3.231877"><ele>546</ele><time>2022-03-29T10:10:54Z</time><name>PT1275</name></trkpt>
<trkpt lat="54.453862" lon="-3.231863"><ele>546</ele><time>2022-03-29T10:10:58Z</time><name>PT1276</name></trkpt>
<trkpt lat="54.453862" lon="-3.231862"><ele>546</ele><time>2022-03-29T10:11:02Z</time><name>PT1277</name></trkpt>
<trkpt lat="54.453849" lon="-3.231822"><ele>547</ele><time>2022-03-29T10:11:14Z</time><name>PT1278</name></trkpt>
<trkpt lat="54.453840" lon="-3.231779"><ele>548</ele><time>2022-03-29T10:11:17Z</time><name>PT1279</name></trkpt>
<trkpt lat="54.453830" lon="-3.231731"><ele>549</ele><time>2022-03-29T10:11:21Z</time><name>PT1280</name></trkpt>
<trkpt lat="54.453821" lon="-3.231696"><ele>550</ele><time>2022-03-29T10:11:24Z</time><name>PT1281</name></trkpt>
<trkpt lat="54.453808" lon="-3.231648"><ele>551</ele><time>2022-03-29T10:11:28Z</time><name>PT1282</name></trkpt>
<trkpt lat="54.453804" lon="-3.231603"><ele>551</ele><time>2022-03-29T10:11:31Z</time><name>PT1283</name></trkpt>
<trkpt lat="54.453802" lon="-3.231550"><ele>552</ele><time>2022-03-29T10:11:35Z</time><name>PT1284</name></trkpt>
<trkpt lat="54.453795" lon="-3.231499"><ele>553</ele><time>2022-03-29T10:11:39Z</time><name>PT1285</name></trkpt>
<trkpt lat="54.453787" lon="-3.231447"><ele>553</ele><time>2022-03-29T10:11:43Z</time><name>PT1286</name></trkpt>
<trkpt lat="54.453782" lon="-3.231410"><ele>554</ele><time>2022-03-29T10:11:47Z</time><name>PT1287</name></trkpt>
<trkpt lat="54.453783" lon="-3.231407"><ele>554</ele><time>2022-03-29T10:11:50Z</time><name>PT1288</name></trkpt>
<trkpt lat="54.453798" lon="-3.231381"><ele>552</ele><time>2022-03-29T10:11:54Z</time><name>PT1289</name></trkpt>
<trkpt lat="54.453802" lon="-3.231381"><ele>552</ele><time>2022-03-29T10:11:58Z</time><name>PT1290</name></trkpt>
<trkpt lat="54.453800" lon="-3.231379"><ele>552</ele><time>2022-03-29T10:19:47Z</time><name>PT1291</name></trkpt>
<trkpt lat="54.453801" lon="-3.231394"><ele>551</ele><time>2022-03-29T10:19:50Z</time><name>PT1292</name></trkpt>
<trkpt lat="54.453800" lon="-3.231395"><ele>552</ele><time>2022-03-29T10:19:53Z</time><name>PT1293</name></trkpt>
<trkpt lat="54.453799" lon="-3.231389"><ele>552</ele><time>2022-03-29T10:20:19Z</time><name>PT1294</name></trkpt>
<trkpt lat="54.453798" lon="-3.231389"><ele>552</ele><time>2022-03-29T10:20:26Z</time><name>PT1295</name></trkpt>
<trkpt lat="54.453802" lon="-3.231384"><ele>553</ele><time>2022-03-29T10:20:30Z</time><name>PT1296</name></trkpt>
<trkpt lat="54.453798" lon="-3.231382"><ele>553</ele><time>2022-03-29T10:20:38Z</time><name>PT1297</name></trkpt>
<trkpt lat="54.453796" lon="-3.231371"><ele>553</ele><time>2022-03-29T10:20:42Z</time><name>PT1298</name></trkpt>
<trkpt lat="54.453798" lon="-3.231372"><ele>553</ele><time>2022-03-29T10:21:16Z</time><name>PT1299</name></trkpt>
<trkpt lat="54.453788" lon="-3.231318"><ele>554</ele><time>2022-03-29T10:21:20Z</time><name>PT1300</name></trkpt>
<trkpt lat="54.453784" lon="-3.231295"><ele>554</ele><time>2022-03-29T10:21:24Z</time><name>PT1301</name></trkpt>
<trkpt lat="54.453772" lon="-3.231275"><ele>554</ele><time>2022-03-29T10:21:28Z</time><name>PT1302</name></trkpt>
<trkpt lat="54.453771" lon="-3.231262"><ele>554</ele><time>2022-03-29T10:21:31Z</time><name>PT1303</name></trkpt>
<trkpt lat="54.453756" lon="-3.231210"><ele>555</ele><time>2022-03-29T10:21:35Z</time><name>PT1304</name></trkpt>
<trkpt lat="54.453742" lon="-3.231163"><ele>555</ele><time>2022-03-29T10:21:38Z</time><name>PT1305</name></trkpt>
<trkpt lat="54.453728" lon="-3.231118"><ele>555</ele><time>2022-03-29T10:21:41Z</time><name>PT1306</name></trkpt>
<trkpt lat="54.453714" lon="-3.231069"><ele>555</ele><time>2022-03-29T10:21:45Z</time><name>PT1307</name></trkpt>
<trkpt lat="54.453700" lon="-3.231024"><ele>556</ele><time>2022-03-29T10:21:49Z</time><name>PT1308</name></trkpt>
<trkpt lat="54.453690" lon="-3.230985"><ele>557</ele><time>2022-03-29T10:21:52Z</time><name>PT1309</name></trkpt>
<trkpt lat="54.453677" lon="-3.230937"><ele>557</ele><time>2022-03-29T10:21:56Z</time><name>PT1310</name></trkpt>
<trkpt lat="54.453665" lon="-3.230891"><ele>558</ele><time>2022-03-29T10:22:00Z</time><name>PT1311</name></trkpt>
<trkpt lat="54.453657" lon="-3.230857"><ele>559</ele><time>2022-03-29T10:22:03Z</time><name>PT1312</name></trkpt>
<trkpt lat="54.453646" lon="-3.230815"><ele>559</ele><time>2022-03-29T10:22:07Z</time><name>PT1313</name></trkpt>
<trkpt lat="54.453626" lon="-3.230767"><ele>560</ele><time>2022-03-29T10:22:11Z</time><name>PT1314</name></trkpt>
<trkpt lat="54.453607" lon="-3.230714"><ele>560</ele><time>2022-03-29T10:22:15Z</time><name>PT1315</name></trkpt>
<trkpt lat="54.453586" lon="-3.230668"><ele>561</ele><time>2022-03-29T10:22:19Z</time><name>PT1316</name></trkpt>
<trkpt lat="54.453570" lon="-3.230628"><ele>561</ele><time>2022-03-29T10:22:22Z</time><name>PT1317</name></trkpt>
<trkpt lat="54.453551" lon="-3.230595"><ele>562</ele><time>2022-03-29T10:22:25Z</time><name>PT1318</name></trkpt>
<trkpt lat="54.453534" lon="-3.230549"><ele>563</ele><time>2022-03-29T10:22:29Z</time><name>PT1319</name></trkpt>
<trkpt lat="54.453525" lon="-3.230518"><ele>564</ele><time>2022-03-29T10:22:32Z</time><name>PT1320</name></trkpt>
<trkpt lat="54.453519" lon="-3.230476"><ele>565</ele><time>2022-03-29T10:22:36Z</time><name>PT1321</name></trkpt>
<trkpt lat="54.453507" lon="-3.230434"><ele>566</ele><time>2022-03-29T10:22:40Z</time><name>PT1322</name></trkpt>
<trkpt lat="54.453494" lon="-3.230408"><ele>566</ele><time>2022-03-29T10:22:43Z</time><name>PT1323</name></trkpt>
<trkpt lat="54.453459" lon="-3.230360"><ele>566</ele><time>2022-03-29T10:22:47Z</time><name>PT1324</name></trkpt>
<trkpt lat="54.453440" lon="-3.230331"><ele>566</ele><time>2022-03-29T10:22:50Z</time><name>PT1325</name></trkpt>
<trkpt lat="54.453417" lon="-3.230283"><ele>567</ele><time>2022-03-29T10:22:54Z</time><name>PT1326</name></trkpt>
<trkpt lat="54.453397" lon="-3.230249"><ele>568</ele><time>2022-03-29T10:22:57Z</time><name>PT1327</name></trkpt>
<trkpt lat="54.453377" lon="-3.230197"><ele>568</ele><time>2022-03-29T10:23:01Z</time><name>PT1328</name></trkpt>
<trkpt lat="54.453364" lon="-3.230148"><ele>569</ele><time>2022-03-29T10:23:05Z</time><name>PT1329</name></trkpt>
<trkpt lat="54.453351" lon="-3.230104"><ele>569</ele><time>2022-03-29T10:23:08Z</time><name>PT1330</name></trkpt>
<trkpt lat="54.453336" lon="-3.230054"><ele>569</ele><time>2022-03-29T10:23:12Z</time><name>PT1331</name></trkpt>
<trkpt lat="54.453320" lon="-3.230018"><ele>569</ele><time>2022-03-29T10:23:16Z</time><name>PT1332</name></trkpt>
<trkpt lat="54.453318" lon="-3.229983"><ele>569</ele><time>2022-03-29T10:23:19Z</time><name>PT1333</name></trkpt>
<trkpt lat="54.453315" lon="-3.229945"><ele>569</ele><time>2022-03-29T10:23:22Z</time><name>PT1334</name></trkpt>
<trkpt lat="54.453315" lon="-3.229896"><ele>571</ele><time>2022-03-29T10:23:26Z</time><name>PT1335</name></trkpt>
<trkpt lat="54.453312" lon="-3.229846"><ele>572</ele><time>2022-03-29T10:23:30Z</time><name>PT1336</name></trkpt>
<trkpt lat="54.453302" lon="-3.229823"><ele>573</ele><time>2022-03-29T10:23:33Z</time><name>PT1337</name></trkpt>
<trkpt lat="54.453296" lon="-3.229785"><ele>573</ele><time>2022-03-29T10:23:36Z</time><name>PT1338</name></trkpt>
<trkpt lat="54.453282" lon="-3.229728"><ele>573</ele><time>2022-03-29T10:23:40Z</time><name>PT1339</name></trkpt>
<trkpt lat="54.453276" lon="-3.229683"><ele>574</ele><time>2022-03-29T10:23:43Z</time><name>PT1340</name></trkpt>
<trkpt lat="54.453259" lon="-3.229632"><ele>574</ele><time>2022-03-29T10:23:47Z</time><name>PT1341</name></trkpt>
<trkpt lat="54.453254" lon="-3.229581"><ele>575</ele><time>2022-03-29T10:23:51Z</time><name>PT1342</name></trkpt>
<trkpt lat="54.453246" lon="-3.229526"><ele>576</ele><time>2022-03-29T10:23:55Z</time><name>PT1343</name></trkpt>
<trkpt lat="54.453234" lon="-3.229483"><ele>577</ele><time>2022-03-29T10:23:59Z</time><name>PT1344</name></trkpt>
<trkpt lat="54.453220" lon="-3.229460"><ele>577</ele><time>2022-03-29T10:24:02Z</time><name>PT1345</name></trkpt>
<trkpt lat="54.453200" lon="-3.229415"><ele>578</ele><time>2022-03-29T10:24:06Z</time><name>PT1346</name></trkpt>
<trkpt lat="54.453201" lon="-3.229365"><ele>578</ele><time>2022-03-29T10:24:09Z</time><name>PT1347</name></trkpt>
<trkpt lat="54.453198" lon="-3.229304"><ele>579</ele><time>2022-03-29T10:24:13Z</time><name>PT1348</name></trkpt>
<trkpt lat="54.453189" lon="-3.229231"><ele>579</ele><time>2022-03-29T10:24:17Z</time><name>PT1349</name></trkpt>
<trkpt lat="54.453195" lon="-3.229185"><ele>580</ele><time>2022-03-29T10:24:20Z</time><name>PT1350</name></trkpt>
<trkpt lat="54.453196" lon="-3.229133"><ele>580</ele><time>2022-03-29T10:24:23Z</time><name>PT1351</name></trkpt>
<trkpt lat="54.453191" lon="-3.229080"><ele>580</ele><time>2022-03-29T10:24:26Z</time><name>PT1352</name></trkpt>
<trkpt lat="54.453198" lon="-3.229006"><ele>581</ele><time>2022-03-29T10:24:30Z</time><name>PT1353</name></trkpt>
<trkpt lat="54.453204" lon="-3.228930"><ele>581</ele><time>2022-03-29T10:24:34Z</time><name>PT1354</name></trkpt>
<trkpt lat="54.453204" lon="-3.228881"><ele>581</ele><time>2022-03-29T10:24:37Z</time><name>PT1355</name></trkpt>
<trkpt lat="54.453192" lon="-3.228806"><ele>581</ele><time>2022-03-29T10:24:41Z</time><name>PT1356</name></trkpt>
<trkpt lat="54.453189" lon="-3.228766"><ele>582</ele><time>2022-03-29T10:24:44Z</time><name>PT1357</name></trkpt>
<trkpt lat="54.453184" lon="-3.228730"><ele>582</ele><time>2022-03-29T10:24:47Z</time><name>PT1358</name></trkpt>
<trkpt lat="54.453172" lon="-3.228683"><ele>583</ele><time>2022-03-29T10:24:51Z</time><name>PT1359</name></trkpt>
<trkpt lat="54.453169" lon="-3.228643"><ele>583</ele><time>2022-03-29T10:24:55Z</time><name>PT1360</name></trkpt>
<trkpt lat="54.453167" lon="-3.228599"><ele>584</ele><time>2022-03-29T10:24:59Z</time><name>PT1361</name></trkpt>
<trkpt lat="54.453170" lon="-3.228563"><ele>584</ele><time>2022-03-29T10:25:02Z</time><name>PT1362</name></trkpt>
<trkpt lat="54.453175" lon="-3.228519"><ele>585</ele><time>2022-03-29T10:25:06Z</time><name>PT1363</name></trkpt>
<trkpt lat="54.453173" lon="-3.228495"><ele>585</ele><time>2022-03-29T10:25:09Z</time><name>PT1364</name></trkpt>
<trkpt lat="54.453170" lon="-3.228453"><ele>586</ele><time>2022-03-29T10:25:13Z</time><name>PT1365</name></trkpt>
<trkpt lat="54.453170" lon="-3.228442"><ele>586</ele><time>2022-03-29T10:25:14Z</time><name>PT1366</name></trkpt>
<trkpt lat="54.453168" lon="-3.228430"><ele>586</ele><time>2022-03-29T10:25:15Z</time><name>PT1367</name></trkpt>
<trkpt lat="54.453167" lon="-3.228418"><ele>587</ele><time>2022-03-29T10:25:16Z</time><name>PT1368</name></trkpt>
<trkpt lat="54.453164" lon="-3.228402"><ele>587</ele><time>2022-03-29T10:25:17Z</time><name>PT1369</name></trkpt>
<trkpt lat="54.453164" lon="-3.228392"><ele>587</ele><time>2022-03-29T10:25:18Z</time><name>PT1370</name></trkpt>
<trkpt lat="54.453163" lon="-3.228379"><ele>587</ele><time>2022-03-29T10:25:19Z</time><name>PT1371</name></trkpt>
<trkpt lat="54.453163" lon="-3.228367"><ele>587</ele><time>2022-03-29T10:25:20Z</time><name>PT1372</name></trkpt>
<trkpt lat="54.453163" lon="-3.228349"><ele>587</ele><time>2022-03-29T10:25:21Z</time><name>PT1373</name></trkpt>
<trkpt lat="54.453161" lon="-3.228336"><ele>587</ele><time>2022-03-29T10:25:22Z</time><name>PT1374</name></trkpt>
<trkpt lat="54.453160" lon="-3.228324"><ele>587</ele><time>2022-03-29T10:25:23Z</time><name>PT1375</name></trkpt>
<trkpt lat="54.453160" lon="-3.228315"><ele>588</ele><time>2022-03-29T10:25:24Z</time><name>PT1376</name></trkpt>
<trkpt lat="54.453160" lon="-3.228302"><ele>588</ele><time>2022-03-29T10:25:25Z</time><name>PT1377</name></trkpt>
<trkpt lat="54.453158" lon="-3.228288"><ele>588</ele><time>2022-03-29T10:25:26Z</time><name>PT1378</name></trkpt>
<trkpt lat="54.453156" lon="-3.228274"><ele>588</ele><time>2022-03-29T10:25:27Z</time><name>PT1379</name></trkpt>
<trkpt lat="54.453158" lon="-3.228261"><ele>588</ele><time>2022-03-29T10:25:28Z</time><name>PT1380</name></trkpt>
<trkpt lat="54.453161" lon="-3.228250"><ele>588</ele><time>2022-03-29T10:25:29Z</time><name>PT1381</name></trkpt>
<trkpt lat="54.453162" lon="-3.228239"><ele>588</ele><time>2022-03-29T10:25:30Z</time><name>PT1382</name></trkpt>
<trkpt lat="54.453163" lon="-3.228227"><ele>588</ele><time>2022-03-29T10:25:31Z</time><name>PT1383</name></trkpt>
<trkpt lat="54.453167" lon="-3.228215"><ele>589</ele><time>2022-03-29T10:25:32Z</time><name>PT1384</name></trkpt>
<trkpt lat="54.453167" lon="-3.228204"><ele>589</ele><time>2022-03-29T10:25:33Z</time><name>PT1385</name></trkpt>
<trkpt lat="54.453166" lon="-3.228193"><ele>589</ele><time>2022-03-29T10:25:34Z</time><name>PT1386</name></trkpt>
<trkpt lat="54.453166" lon="-3.228183"><ele>589</ele><time>2022-03-29T10:25:35Z</time><name>PT1387</name></trkpt>
<trkpt lat="54.453166" lon="-3.228172"><ele>590</ele><time>2022-03-29T10:25:36Z</time><name>PT1388</name></trkpt>
<trkpt lat="54.453162" lon="-3.228160"><ele>590</ele><time>2022-03-29T10:25:37Z</time><name>PT1389</name></trkpt>
<trkpt lat="54.453161" lon="-3.228149"><ele>590</ele><time>2022-03-29T10:25:38Z</time><name>PT1390</name></trkpt>
<trkpt lat="54.453160" lon="-3.228138"><ele>590</ele><time>2022-03-29T10:25:39Z</time><name>PT1391</name></trkpt>
<trkpt lat="54.453158" lon="-3.228127"><ele>590</ele><time>2022-03-29T10:25:40Z</time><name>PT1392</name></trkpt>
<trkpt lat="54.453156" lon="-3.228113"><ele>590</ele><time>2022-03-29T10:25:41Z</time><name>PT1393</name></trkpt>
<trkpt lat="54.453154" lon="-3.228099"><ele>591</ele><time>2022-03-29T10:25:42Z</time><name>PT1394</name></trkpt>
<trkpt lat="54.453151" lon="-3.228089"><ele>591</ele><time>2022-03-29T10:25:43Z</time><name>PT1395</name></trkpt>
<trkpt lat="54.453149" lon="-3.228079"><ele>591</ele><time>2022-03-29T10:25:44Z</time><name>PT1396</name></trkpt>
<trkpt lat="54.453148" lon="-3.228071"><ele>591</ele><time>2022-03-29T10:25:45Z</time><name>PT1397</name></trkpt>
<trkpt lat="54.453147" lon="-3.228063"><ele>591</ele><time>2022-03-29T10:25:46Z</time><name>PT1398</name></trkpt>
<trkpt lat="54.453147" lon="-3.228059"><ele>591</ele><time>2022-03-29T10:25:47Z</time><name>PT1399</name></trkpt>
<trkpt lat="54.453145" lon="-3.228053"><ele>591</ele><time>2022-03-29T10:25:48Z</time><name>PT1400</name></trkpt>
<trkpt lat="54.453143" lon="-3.228051"><ele>591</ele><time>2022-03-29T10:25:49Z</time><name>PT1401</name></trkpt>
<trkpt lat="54.453144" lon="-3.228053"><ele>591</ele><time>2022-03-29T10:25:51Z</time><name>PT1402</name></trkpt>
<trkpt lat="54.453142" lon="-3.228057"><ele>592</ele><time>2022-03-29T10:25:52Z</time><name>PT1403</name></trkpt>
<trkpt lat="54.453140" lon="-3.228056"><ele>592</ele><time>2022-03-29T10:25:53Z</time><name>PT1404</name></trkpt>
<trkpt lat="54.453138" lon="-3.228053"><ele>592</ele><time>2022-03-29T10:25:54Z</time><name>PT1405</name></trkpt>
<trkpt lat="54.453135" lon="-3.228050"><ele>592</ele><time>2022-03-29T10:25:55Z</time><name>PT1406</name></trkpt>
<trkpt lat="54.453132" lon="-3.228044"><ele>592</ele><time>2022-03-29T10:25:56Z</time><name>PT1407</name></trkpt>
<trkpt lat="54.453128" lon="-3.228034"><ele>592</ele><time>2022-03-29T10:25:57Z</time><name>PT1408</name></trkpt>
<trkpt lat="54.453126" lon="-3.228025"><ele>593</ele><time>2022-03-29T10:25:58Z</time><name>PT1409</name></trkpt>
<trkpt lat="54.453126" lon="-3.228013"><ele>593</ele><time>2022-03-29T10:25:59Z</time><name>PT1410</name></trkpt>
<trkpt lat="54.453126" lon="-3.228003"><ele>593</ele><time>2022-03-29T10:26:00Z</time><name>PT1411</name></trkpt>
<trkpt lat="54.453128" lon="-3.227991"><ele>593</ele><time>2022-03-29T10:26:01Z</time><name>PT1412</name></trkpt>
<trkpt lat="54.453128" lon="-3.227983"><ele>593</ele><time>2022-03-29T10:26:02Z</time><name>PT1413</name></trkpt>
<trkpt lat="54.453129" lon="-3.227975"><ele>593</ele><time>2022-03-29T10:26:03Z</time><name>PT1414</name></trkpt>
<trkpt lat="54.453128" lon="-3.227962"><ele>594</ele><time>2022-03-29T10:26:04Z</time><name>PT1415</name></trkpt>
<trkpt lat="54.453124" lon="-3.227955"><ele>594</ele><time>2022-03-29T10:26:05Z</time><name>PT1416</name></trkpt>
<trkpt lat="54.453123" lon="-3.227947"><ele>594</ele><time>2022-03-29T10:26:06Z</time><name>PT1417</name></trkpt>
<trkpt lat="54.453118" lon="-3.227942"><ele>594</ele><time>2022-03-29T10:26:07Z</time><name>PT1418</name></trkpt>
<trkpt lat="54.453117" lon="-3.227937"><ele>594</ele><time>2022-03-29T10:26:08Z</time><name>PT1419</name></trkpt>
<trkpt lat="54.453115" lon="-3.227933"><ele>594</ele><time>2022-03-29T10:26:09Z</time><name>PT1420</name></trkpt>
<trkpt lat="54.453111" lon="-3.227926"><ele>594</ele><time>2022-03-29T10:26:10Z</time><name>PT1421</name></trkpt>
<trkpt lat="54.453107" lon="-3.227916"><ele>594</ele><time>2022-03-29T10:26:11Z</time><name>PT1422</name></trkpt>
<trkpt lat="54.453103" lon="-3.227907"><ele>594</ele><time>2022-03-29T10:26:12Z</time><name>PT1423</name></trkpt>
<trkpt lat="54.453097" lon="-3.227899"><ele>594</ele><time>2022-03-29T10:26:13Z</time><name>PT1424</name></trkpt>
<trkpt lat="54.453094" lon="-3.227889"><ele>595</ele><time>2022-03-29T10:26:14Z</time><name>PT1425</name></trkpt>
<trkpt lat="54.453089" lon="-3.227879"><ele>595</ele><time>2022-03-29T10:26:15Z</time><name>PT1426</name></trkpt>
<trkpt lat="54.453086" lon="-3.227872"><ele>595</ele><time>2022-03-29T10:26:16Z</time><name>PT1427</name></trkpt>
<trkpt lat="54.453083" lon="-3.227867"><ele>595</ele><time>2022-03-29T10:26:17Z</time><name>PT1428</name></trkpt>
<trkpt lat="54.453081" lon="-3.227862"><ele>596</ele><time>2022-03-29T10:26:18Z</time><name>PT1429</name></trkpt>
<trkpt lat="54.453078" lon="-3.227860"><ele>596</ele><time>2022-03-29T10:26:19Z</time><name>PT1430</name></trkpt>
<trkpt lat="54.453076" lon="-3.227856"><ele>596</ele><time>2022-03-29T10:26:20Z</time><name>PT1431</name></trkpt>
<trkpt lat="54.453078" lon="-3.227843"><ele>596</ele><time>2022-03-29T10:26:29Z</time><name>PT1432</name></trkpt>
<trkpt lat="54.453074" lon="-3.227829"><ele>597</ele><time>2022-03-29T10:26:30Z</time><name>PT1433</name></trkpt>
<trkpt lat="54.453067" lon="-3.227819"><ele>597</ele><time>2022-03-29T10:26:31Z</time><name>PT1434</name></trkpt>
<trkpt lat="54.453064" lon="-3.227811"><ele>598</ele><time>2022-03-29T10:26:32Z</time><name>PT1435</name></trkpt>
<trkpt lat="54.453065" lon="-3.227803"><ele>598</ele><time>2022-03-29T10:26:33Z</time><name>PT1436</name></trkpt>
<trkpt lat="54.453062" lon="-3.227793"><ele>598</ele><time>2022-03-29T10:26:34Z</time><name>PT1437</name></trkpt>
<trkpt lat="54.453059" lon="-3.227785"><ele>599</ele><time>2022-03-29T10:26:35Z</time><name>PT1438</name></trkpt>
<trkpt lat="54.453057" lon="-3.227775"><ele>599</ele><time>2022-03-29T10:26:36Z</time><name>PT1439</name></trkpt>
<trkpt lat="54.453054" lon="-3.227768"><ele>599</ele><time>2022-03-29T10:26:37Z</time><name>PT1440</name></trkpt>
<trkpt lat="54.453053" lon="-3.227758"><ele>599</ele><time>2022-03-29T10:26:38Z</time><name>PT1441</name></trkpt>
<trkpt lat="54.453048" lon="-3.227745"><ele>599</ele><time>2022-03-29T10:26:47Z</time><name>PT1442</name></trkpt>
<trkpt lat="54.453045" lon="-3.227725"><ele>600</ele><time>2022-03-29T10:26:48Z</time><name>PT1443</name></trkpt>
<trkpt lat="54.453043" lon="-3.227711"><ele>600</ele><time>2022-03-29T10:26:49Z</time><name>PT1444</name></trkpt>
<trkpt lat="54.453041" lon="-3.227696"><ele>600</ele><time>2022-03-29T10:26:50Z</time><name>PT1445</name></trkpt>
<trkpt lat="54.453039" lon="-3.227684"><ele>600</ele><time>2022-03-29T10:26:51Z</time><name>PT1446</name></trkpt>
<trkpt lat="54.453038" lon="-3.227673"><ele>601</ele><time>2022-03-29T10:26:52Z</time><name>PT1447</name></trkpt>
<trkpt lat="54.453037" lon="-3.227661"><ele>601</ele><time>2022-03-29T10:26:53Z</time><name>PT1448</name></trkpt>
<trkpt lat="54.453037" lon="-3.227651"><ele>601</ele><time>2022-03-29T10:26:54Z</time><name>PT1449</name></trkpt>
<trkpt lat="54.453036" lon="-3.227640"><ele>601</ele><time>2022-03-29T10:26:55Z</time><name>PT1450</name></trkpt>
<trkpt lat="54.453036" lon="-3.227631"><ele>601</ele><time>2022-03-29T10:26:56Z</time><name>PT1451</name></trkpt>
<trkpt lat="54.453033" lon="-3.227621"><ele>601</ele><time>2022-03-29T10:26:57Z</time><name>PT1452</name></trkpt>
<trkpt lat="54.453031" lon="-3.227611"><ele>601</ele><time>2022-03-29T10:26:58Z</time><name>PT1453</name></trkpt>
<trkpt lat="54.453030" lon="-3.227598"><ele>601</ele><time>2022-03-29T10:26:59Z</time><name>PT1454</name></trkpt>
<trkpt lat="54.453030" lon="-3.227587"><ele>602</ele><time>2022-03-29T10:27:00Z</time><name>PT1455</name></trkpt>
<trkpt lat="54.453031" lon="-3.227572"><ele>602</ele><time>2022-03-29T10:27:01Z</time><name>PT1456</name></trkpt>
<trkpt lat="54.453030" lon="-3.227558"><ele>602</ele><time>2022-03-29T10:27:02Z</time><name>PT1457</name></trkpt>
<trkpt lat="54.453032" lon="-3.227548"><ele>603</ele><time>2022-03-29T10:27:03Z</time><name>PT1458</name></trkpt>
<trkpt lat="54.453032" lon="-3.227538"><ele>603</ele><time>2022-03-29T10:27:04Z</time><name>PT1459</name></trkpt>
<trkpt lat="54.453034" lon="-3.227531"><ele>603</ele><time>2022-03-29T10:27:05Z</time><name>PT1460</name></trkpt>
<trkpt lat="54.453030" lon="-3.227522"><ele>604</ele><time>2022-03-29T10:27:06Z</time><name>PT1461</name></trkpt>
<trkpt lat="54.453025" lon="-3.227510"><ele>603</ele><time>2022-03-29T10:27:07Z</time><name>PT1462</name></trkpt>
<trkpt lat="54.453024" lon="-3.227503"><ele>603</ele><time>2022-03-29T10:27:08Z</time><name>PT1463</name></trkpt>
<trkpt lat="54.453021" lon="-3.227497"><ele>604</ele><time>2022-03-29T10:27:09Z</time><name>PT1464</name></trkpt>
<trkpt lat="54.453019" lon="-3.227493"><ele>604</ele><time>2022-03-29T10:27:10Z</time><name>PT1465</name></trkpt>
<trkpt lat="54.453020" lon="-3.227487"><ele>604</ele><time>2022-03-29T10:27:11Z</time><name>PT1466</name></trkpt>
<trkpt lat="54.453022" lon="-3.227480"><ele>604</ele><time>2022-03-29T10:27:12Z</time><name>PT1467</name></trkpt>
<trkpt lat="54.453023" lon="-3.227473"><ele>604</ele><time>2022-03-29T10:27:13Z</time><name>PT1468</name></trkpt>
<trkpt lat="54.453016" lon="-3.227437"><ele>605</ele><time>2022-03-29T10:27:17Z</time><name>PT1469</name></trkpt>
<trkpt lat="54.453009" lon="-3.227400"><ele>606</ele><time>2022-03-29T10:27:21Z</time><name>PT1470</name></trkpt>
<trkpt lat="54.453001" lon="-3.227376"><ele>607</ele><time>2022-03-29T10:27:24Z</time><name>PT1471</name></trkpt>
<trkpt lat="54.452996" lon="-3.227343"><ele>607</ele><time>2022-03-29T10:27:27Z</time><name>PT1472</name></trkpt>
<trkpt lat="54.452993" lon="-3.227298"><ele>608</ele><time>2022-03-29T10:27:31Z</time><name>PT1473</name></trkpt>
<trkpt lat="54.452993" lon="-3.227251"><ele>609</ele><time>2022-03-29T10:27:35Z</time><name>PT1474</name></trkpt>
<trkpt lat="54.452995" lon="-3.227219"><ele>610</ele><time>2022-03-29T10:27:39Z</time><name>PT1475</name></trkpt>
<trkpt lat="54.452993" lon="-3.227184"><ele>611</ele><time>2022-03-29T10:27:43Z</time><name>PT1476</name></trkpt>
<trkpt lat="54.452988" lon="-3.227152"><ele>611</ele><time>2022-03-29T10:27:47Z</time><name>PT1477</name></trkpt>
<trkpt lat="54.452986" lon="-3.227146"><ele>612</ele><time>2022-03-29T10:27:54Z</time><name>PT1478</name></trkpt>
<trkpt lat="54.452976" lon="-3.227104"><ele>613</ele><time>2022-03-29T10:27:58Z</time><name>PT1479</name></trkpt>
<trkpt lat="54.452970" lon="-3.227066"><ele>614</ele><time>2022-03-29T10:28:01Z</time><name>PT1480</name></trkpt>
<trkpt lat="54.452964" lon="-3.227032"><ele>615</ele><time>2022-03-29T10:28:04Z</time><name>PT1481</name></trkpt>
<trkpt lat="54.452965" lon="-3.226981"><ele>615</ele><time>2022-03-29T10:28:08Z</time><name>PT1482</name></trkpt>
<trkpt lat="54.452962" lon="-3.226953"><ele>616</ele><time>2022-03-29T10:28:11Z</time><name>PT1483</name></trkpt>
<trkpt lat="54.452963" lon="-3.226926"><ele>617</ele><time>2022-03-29T10:28:14Z</time><name>PT1484</name></trkpt>
<trkpt lat="54.452965" lon="-3.226903"><ele>617</ele><time>2022-03-29T10:28:17Z</time><name>PT1485</name></trkpt>
<trkpt lat="54.452964" lon="-3.226868"><ele>618</ele><time>2022-03-29T10:28:21Z</time><name>PT1486</name></trkpt>
<trkpt lat="54.452963" lon="-3.226840"><ele>619</ele><time>2022-03-29T10:28:25Z</time><name>PT1487</name></trkpt>
<trkpt lat="54.452957" lon="-3.226815"><ele>620</ele><time>2022-03-29T10:28:29Z</time><name>PT1488</name></trkpt>
<trkpt lat="54.452953" lon="-3.226787"><ele>620</ele><time>2022-03-29T10:28:33Z</time><name>PT1489</name></trkpt>
<trkpt lat="54.452951" lon="-3.226759"><ele>621</ele><time>2022-03-29T10:28:37Z</time><name>PT1490</name></trkpt>
<trkpt lat="54.452944" lon="-3.226727"><ele>622</ele><time>2022-03-29T10:28:40Z</time><name>PT1491</name></trkpt>
<trkpt lat="54.452941" lon="-3.226701"><ele>622</ele><time>2022-03-29T10:28:43Z</time><name>PT1492</name></trkpt>
<trkpt lat="54.452935" lon="-3.226673"><ele>623</ele><time>2022-03-29T10:28:47Z</time><name>PT1493</name></trkpt>
<trkpt lat="54.452926" lon="-3.226654"><ele>623</ele><time>2022-03-29T10:28:50Z</time><name>PT1494</name></trkpt>
<trkpt lat="54.452914" lon="-3.226627"><ele>624</ele><time>2022-03-29T10:28:54Z</time><name>PT1495</name></trkpt>
<trkpt lat="54.452906" lon="-3.226611"><ele>625</ele><time>2022-03-29T10:28:57Z</time><name>PT1496</name></trkpt>
<trkpt lat="54.452896" lon="-3.226584"><ele>625</ele><time>2022-03-29T10:29:01Z</time><name>PT1497</name></trkpt>
<trkpt lat="54.452889" lon="-3.226556"><ele>626</ele><time>2022-03-29T10:29:05Z</time><name>PT1498</name></trkpt>
<trkpt lat="54.452887" lon="-3.226528"><ele>627</ele><time>2022-03-29T10:29:08Z</time><name>PT1499</name></trkpt>
<trkpt lat="54.452890" lon="-3.226495"><ele>627</ele><time>2022-03-29T10:29:12Z</time><name>PT1500</name></trkpt>
<trkpt lat="54.452886" lon="-3.226471"><ele>628</ele><time>2022-03-29T10:29:15Z</time><name>PT1501</name></trkpt>
<trkpt lat="54.452881" lon="-3.226441"><ele>629</ele><time>2022-03-29T10:29:19Z</time><name>PT1502</name></trkpt>
<trkpt lat="54.452881" lon="-3.226434"><ele>629</ele><time>2022-03-29T10:29:22Z</time><name>PT1503</name></trkpt>
<trkpt lat="54.452878" lon="-3.226404"><ele>629</ele><time>2022-03-29T10:29:26Z</time><name>PT1504</name></trkpt>
<trkpt lat="54.452872" lon="-3.226365"><ele>630</ele><time>2022-03-29T10:29:30Z</time><name>PT1505</name></trkpt>
<trkpt lat="54.452873" lon="-3.226344"><ele>631</ele><time>2022-03-29T10:29:33Z</time><name>PT1506</name></trkpt>
<trkpt lat="54.452872" lon="-3.226336"><ele>631</ele><time>2022-03-29T10:29:37Z</time><name>PT1507</name></trkpt>
<trkpt lat="54.452872" lon="-3.226306"><ele>631</ele><time>2022-03-29T10:29:41Z</time><name>PT1508</name></trkpt>
<trkpt lat="54.452868" lon="-3.226262"><ele>632</ele><time>2022-03-29T10:29:45Z</time><name>PT1509</name></trkpt>
<trkpt lat="54.452868" lon="-3.226224"><ele>633</ele><time>2022-03-29T10:29:49Z</time><name>PT1510</name></trkpt>
<trkpt lat="54.452870" lon="-3.226210"><ele>633</ele><time>2022-03-29T10:29:56Z</time><name>PT1511</name></trkpt>
<trkpt lat="54.452864" lon="-3.226188"><ele>634</ele><time>2022-03-29T10:29:59Z</time><name>PT1512</name></trkpt>
<trkpt lat="54.452861" lon="-3.226177"><ele>634</ele><time>2022-03-29T10:30:03Z</time><name>PT1513</name></trkpt>
<trkpt lat="54.452859" lon="-3.226138"><ele>635</ele><time>2022-03-29T10:30:14Z</time><name>PT1514</name></trkpt>
<trkpt lat="54.452842" lon="-3.226049"><ele>636</ele><time>2022-03-29T10:30:21Z</time><name>PT1515</name></trkpt>
<trkpt lat="54.452838" lon="-3.226017"><ele>638</ele><time>2022-03-29T10:30:24Z</time><name>PT1516</name></trkpt>
<trkpt lat="54.452838" lon="-3.225987"><ele>639</ele><time>2022-03-29T10:30:28Z</time><name>PT1517</name></trkpt>
<trkpt lat="54.452835" lon="-3.225956"><ele>640</ele><time>2022-03-29T10:30:32Z</time><name>PT1518</name></trkpt>
<trkpt lat="54.452828" lon="-3.225919"><ele>641</ele><time>2022-03-29T10:30:36Z</time><name>PT1519</name></trkpt>
<trkpt lat="54.452826" lon="-3.225899"><ele>642</ele><time>2022-03-29T10:30:39Z</time><name>PT1520</name></trkpt>
<trkpt lat="54.452825" lon="-3.225873"><ele>643</ele><time>2022-03-29T10:30:42Z</time><name>PT1521</name></trkpt>
<trkpt lat="54.452823" lon="-3.225849"><ele>643</ele><time>2022-03-29T10:30:45Z</time><name>PT1522</name></trkpt>
<trkpt lat="54.452825" lon="-3.225821"><ele>644</ele><time>2022-03-29T10:30:49Z</time><name>PT1523</name></trkpt>
<trkpt lat="54.452821" lon="-3.225797"><ele>644</ele><time>2022-03-29T10:30:52Z</time><name>PT1524</name></trkpt>
<trkpt lat="54.452820" lon="-3.225769"><ele>645</ele><time>2022-03-29T10:30:55Z</time><name>PT1525</name></trkpt>
<trkpt lat="54.452821" lon="-3.225762"><ele>645</ele><time>2022-03-29T10:30:59Z</time><name>PT1526</name></trkpt>
<trkpt lat="54.452825" lon="-3.225750"><ele>645</ele><time>2022-03-29T10:31:03Z</time><name>PT1527</name></trkpt>
<trkpt lat="54.452824" lon="-3.225751"><ele>645</ele><time>2022-03-29T10:31:13Z</time><name>PT1528</name></trkpt>
<trkpt lat="54.452825" lon="-3.225734"><ele>646</ele><time>2022-03-29T10:31:16Z</time><name>PT1529</name></trkpt>
<trkpt lat="54.452817" lon="-3.225700"><ele>646</ele><time>2022-03-29T10:31:20Z</time><name>PT1530</name></trkpt>
<trkpt lat="54.452815" lon="-3.225672"><ele>647</ele><time>2022-03-29T10:31:23Z</time><name>PT1531</name></trkpt>
<trkpt lat="54.452814" lon="-3.225647"><ele>648</ele><time>2022-03-29T10:31:26Z</time><name>PT1532</name></trkpt>
<trkpt lat="54.452813" lon="-3.225633"><ele>648</ele><time>2022-03-29T10:31:30Z</time><name>PT1533</name></trkpt>
<trkpt lat="54.452807" lon="-3.225591"><ele>649</ele><time>2022-03-29T10:31:34Z</time><name>PT1534</name></trkpt>
<trkpt lat="54.452808" lon="-3.225568"><ele>649</ele><time>2022-03-29T10:31:37Z</time><name>PT1535</name></trkpt>
<trkpt lat="54.452807" lon="-3.225542"><ele>650</ele><time>2022-03-29T10:31:40Z</time><name>PT1536</name></trkpt>
<trkpt lat="54.452808" lon="-3.225508"><ele>651</ele><time>2022-03-29T10:31:44Z</time><name>PT1537</name></trkpt>
<trkpt lat="54.452809" lon="-3.225486"><ele>651</ele><time>2022-03-29T10:31:47Z</time><name>PT1538</name></trkpt>
<trkpt lat="54.452808" lon="-3.225461"><ele>652</ele><time>2022-03-29T10:31:51Z</time><name>PT1539</name></trkpt>
<trkpt lat="54.452809" lon="-3.225432"><ele>652</ele><time>2022-03-29T10:31:55Z</time><name>PT1540</name></trkpt>
<trkpt lat="54.452811" lon="-3.225411"><ele>654</ele><time>2022-03-29T10:31:59Z</time><name>PT1541</name></trkpt>
<trkpt lat="54.452807" lon="-3.225383"><ele>654</ele><time>2022-03-29T10:32:03Z</time><name>PT1542</name></trkpt>
<trkpt lat="54.452811" lon="-3.225357"><ele>655</ele><time>2022-03-29T10:32:09Z</time><name>PT1543</name></trkpt>
<trkpt lat="54.452810" lon="-3.225326"><ele>655</ele><time>2022-03-29T10:32:12Z</time><name>PT1544</name></trkpt>
<trkpt lat="54.452814" lon="-3.225289"><ele>656</ele><time>2022-03-29T10:32:16Z</time><name>PT1545</name></trkpt>
<trkpt lat="54.452818" lon="-3.225270"><ele>657</ele><time>2022-03-29T10:32:19Z</time><name>PT1546</name></trkpt>
<trkpt lat="54.452817" lon="-3.225266"><ele>657</ele><time>2022-03-29T10:32:23Z</time><name>PT1547</name></trkpt>
<trkpt lat="54.452815" lon="-3.225257"><ele>657</ele><time>2022-03-29T10:32:29Z</time><name>PT1548</name></trkpt>
<trkpt lat="54.452829" lon="-3.225218"><ele>658</ele><time>2022-03-29T10:32:33Z</time><name>PT1549</name></trkpt>
<trkpt lat="54.452829" lon="-3.225190"><ele>659</ele><time>2022-03-29T10:32:36Z</time><name>PT1550</name></trkpt>
<trkpt lat="54.452827" lon="-3.225169"><ele>660</ele><time>2022-03-29T10:32:39Z</time><name>PT1551</name></trkpt>
<trkpt lat="54.452830" lon="-3.225161"><ele>661</ele><time>2022-03-29T10:32:43Z</time><name>PT1552</name></trkpt>
<trkpt lat="54.452834" lon="-3.225133"><ele>662</ele><time>2022-03-29T10:32:47Z</time><name>PT1553</name></trkpt>
<trkpt lat="54.452827" lon="-3.225113"><ele>663</ele><time>2022-03-29T10:32:50Z</time><name>PT1554</name></trkpt>
<trkpt lat="54.452814" lon="-3.225089"><ele>663</ele><time>2022-03-29T10:32:54Z</time><name>PT1555</name></trkpt>
<trkpt lat="54.452809" lon="-3.225060"><ele>665</ele><time>2022-03-29T10:32:58Z</time><name>PT1556</name></trkpt>
<trkpt lat="54.452801" lon="-3.225042"><ele>665</ele><time>2022-03-29T10:33:01Z</time><name>PT1557</name></trkpt>
<trkpt lat="54.452795" lon="-3.225024"><ele>666</ele><time>2022-03-29T10:33:05Z</time><name>PT1558</name></trkpt>
<trkpt lat="54.452796" lon="-3.225000"><ele>666</ele><time>2022-03-29T10:33:09Z</time><name>PT1559</name></trkpt>
<trkpt lat="54.452790" lon="-3.224982"><ele>667</ele><time>2022-03-29T10:33:15Z</time><name>PT1560</name></trkpt>
<trkpt lat="54.452785" lon="-3.224967"><ele>667</ele><time>2022-03-29T10:33:19Z</time><name>PT1561</name></trkpt>
<trkpt lat="54.452777" lon="-3.224956"><ele>669</ele><time>2022-03-29T10:33:22Z</time><name>PT1562</name></trkpt>
<trkpt lat="54.452763" lon="-3.224925"><ele>670</ele><time>2022-03-29T10:33:26Z</time><name>PT1563</name></trkpt>
<trkpt lat="54.452756" lon="-3.224902"><ele>670</ele><time>2022-03-29T10:33:29Z</time><name>PT1564</name></trkpt>
<trkpt lat="54.452751" lon="-3.224874"><ele>671</ele><time>2022-03-29T10:33:33Z</time><name>PT1565</name></trkpt>
<trkpt lat="54.452749" lon="-3.224867"><ele>671</ele><time>2022-03-29T10:33:36Z</time><name>PT1566</name></trkpt>
<trkpt lat="54.452745" lon="-3.224839"><ele>672</ele><time>2022-03-29T10:33:40Z</time><name>PT1567</name></trkpt>
<trkpt lat="54.452737" lon="-3.224808"><ele>673</ele><time>2022-03-29T10:33:43Z</time><name>PT1568</name></trkpt>
<trkpt lat="54.452728" lon="-3.224779"><ele>673</ele><time>2022-03-29T10:33:47Z</time><name>PT1569</name></trkpt>
<trkpt lat="54.452717" lon="-3.224736"><ele>674</ele><time>2022-03-29T10:33:54Z</time><name>PT1570</name></trkpt>
<trkpt lat="54.452714" lon="-3.224695"><ele>675</ele><time>2022-03-29T10:33:58Z</time><name>PT1571</name></trkpt>
<trkpt lat="54.452709" lon="-3.224666"><ele>676</ele><time>2022-03-29T10:34:01Z</time><name>PT1572</name></trkpt>
<trkpt lat="54.452699" lon="-3.224623"><ele>677</ele><time>2022-03-29T10:34:05Z</time><name>PT1573</name></trkpt>
<trkpt lat="54.452693" lon="-3.224583"><ele>678</ele><time>2022-03-29T10:34:09Z</time><name>PT1574</name></trkpt>
<trkpt lat="54.452699" lon="-3.224552"><ele>678</ele><time>2022-03-29T10:34:12Z</time><name>PT1575</name></trkpt>
<trkpt lat="54.452712" lon="-3.224520"><ele>679</ele><time>2022-03-29T10:34:16Z</time><name>PT1576</name></trkpt>
<trkpt lat="54.452714" lon="-3.224500"><ele>679</ele><time>2022-03-29T10:34:19Z</time><name>PT1577</name></trkpt>
<trkpt lat="54.452708" lon="-3.224463"><ele>680</ele><time>2022-03-29T10:34:23Z</time><name>PT1578</name></trkpt>
<trkpt lat="54.452717" lon="-3.224432"><ele>681</ele><time>2022-03-29T10:34:27Z</time><name>PT1579</name></trkpt>
<trkpt lat="54.452721" lon="-3.224432"><ele>680</ele><time>2022-03-29T10:34:30Z</time><name>PT1580</name></trkpt>
<trkpt lat="54.452725" lon="-3.224431"><ele>680</ele><time>2022-03-29T10:34:38Z</time><name>PT1581</name></trkpt>
<trkpt lat="54.452724" lon="-3.224418"><ele>680</ele><time>2022-03-29T10:34:48Z</time><name>PT1582</name></trkpt>
<trkpt lat="54.452729" lon="-3.224417"><ele>680</ele><time>2022-03-29T10:34:51Z</time><name>PT1583</name></trkpt>
<trkpt lat="54.452722" lon="-3.224385"><ele>681</ele><time>2022-03-29T10:35:02Z</time><name>PT1584</name></trkpt>
<trkpt lat="54.452723" lon="-3.224348"><ele>682</ele><time>2022-03-29T10:35:06Z</time><name>PT1585</name></trkpt>
<trkpt lat="54.452724" lon="-3.224318"><ele>683</ele><time>2022-03-29T10:35:09Z</time><name>PT1586</name></trkpt>
<trkpt lat="54.452719" lon="-3.224302"><ele>683</ele><time>2022-03-29T10:35:13Z</time><name>PT1587</name></trkpt>
<trkpt lat="54.452717" lon="-3.224301"><ele>683</ele><time>2022-03-29T10:35:17Z</time><name>PT1588</name></trkpt>
<trkpt lat="54.452715" lon="-3.224277"><ele>684</ele><time>2022-03-29T10:35:24Z</time><name>PT1589</name></trkpt>
<trkpt lat="54.452721" lon="-3.224252"><ele>685</ele><time>2022-03-29T10:35:27Z</time><name>PT1590</name></trkpt>
<trkpt lat="54.452722" lon="-3.224215"><ele>686</ele><time>2022-03-29T10:35:31Z</time><name>PT1591</name></trkpt>
<trkpt lat="54.452733" lon="-3.224166"><ele>686</ele><time>2022-03-29T10:35:35Z</time><name>PT1592</name></trkpt>
<trkpt lat="54.452734" lon="-3.224137"><ele>687</ele><time>2022-03-29T10:35:39Z</time><name>PT1593</name></trkpt>
<trkpt lat="54.452737" lon="-3.224115"><ele>688</ele><time>2022-03-29T10:35:42Z</time><name>PT1594</name></trkpt>
<trkpt lat="54.452727" lon="-3.224101"><ele>688</ele><time>2022-03-29T10:35:45Z</time><name>PT1595</name></trkpt>
<trkpt lat="54.452706" lon="-3.224083"><ele>689</ele><time>2022-03-29T10:35:49Z</time><name>PT1596</name></trkpt>
<trkpt lat="54.452694" lon="-3.224063"><ele>691</ele><time>2022-03-29T10:35:53Z</time><name>PT1597</name></trkpt>
<trkpt lat="54.452687" lon="-3.224033"><ele>691</ele><time>2022-03-29T10:35:56Z</time><name>PT1598</name></trkpt>
<trkpt lat="54.452685" lon="-3.224008"><ele>692</ele><time>2022-03-29T10:35:59Z</time><name>PT1599</name></trkpt>
<trkpt lat="54.452678" lon="-3.223980"><ele>693</ele><time>2022-03-29T10:36:03Z</time><name>PT1600</name></trkpt>
<trkpt lat="54.452670" lon="-3.223954"><ele>694</ele><time>2022-03-29T10:36:07Z</time><name>PT1601</name></trkpt>
<trkpt lat="54.452665" lon="-3.223936"><ele>695</ele><time>2022-03-29T10:36:11Z</time><name>PT1602</name></trkpt>
<trkpt lat="54.452664" lon="-3.223931"><ele>695</ele><time>2022-03-29T10:36:15Z</time><name>PT1603</name></trkpt>
<trkpt lat="54.452653" lon="-3.223904"><ele>695</ele><time>2022-03-29T10:36:19Z</time><name>PT1604</name></trkpt>
<trkpt lat="54.452638" lon="-3.223872"><ele>696</ele><time>2022-03-29T10:36:23Z</time><name>PT1605</name></trkpt>
<trkpt lat="54.452631" lon="-3.223849"><ele>697</ele><time>2022-03-29T10:36:26Z</time><name>PT1606</name></trkpt>
<trkpt lat="54.452618" lon="-3.223816"><ele>698</ele><time>2022-03-29T10:36:30Z</time><name>PT1607</name></trkpt>
<trkpt lat="54.452608" lon="-3.223798"><ele>698</ele><time>2022-03-29T10:36:33Z</time><name>PT1608</name></trkpt>
<trkpt lat="54.452591" lon="-3.223775"><ele>699</ele><time>2022-03-29T10:36:37Z</time><name>PT1609</name></trkpt>
<trkpt lat="54.452583" lon="-3.223748"><ele>699</ele><time>2022-03-29T10:36:40Z</time><name>PT1610</name></trkpt>
<trkpt lat="54.452573" lon="-3.223708"><ele>700</ele><time>2022-03-29T10:36:44Z</time><name>PT1611</name></trkpt>
<trkpt lat="54.452566" lon="-3.223673"><ele>701</ele><time>2022-03-29T10:36:48Z</time><name>PT1612</name></trkpt>
<trkpt lat="54.452558" lon="-3.223646"><ele>701</ele><time>2022-03-29T10:36:51Z</time><name>PT1613</name></trkpt>
<trkpt lat="54.452552" lon="-3.223614"><ele>702</ele><time>2022-03-29T10:36:54Z</time><name>PT1614</name></trkpt>
<trkpt lat="54.452548" lon="-3.223583"><ele>702</ele><time>2022-03-29T10:36:57Z</time><name>PT1615</name></trkpt>
<trkpt lat="54.452545" lon="-3.223556"><ele>703</ele><time>2022-03-29T10:37:01Z</time><name>PT1616</name></trkpt>
<trkpt lat="54.452542" lon="-3.223539"><ele>704</ele><time>2022-03-29T10:37:04Z</time><name>PT1617</name></trkpt>
<trkpt lat="54.452529" lon="-3.223510"><ele>705</ele><time>2022-03-29T10:37:08Z</time><name>PT1618</name></trkpt>
<trkpt lat="54.452523" lon="-3.223483"><ele>705</ele><time>2022-03-29T10:37:12Z</time><name>PT1619</name></trkpt>
<trkpt lat="54.452521" lon="-3.223453"><ele>706</ele><time>2022-03-29T10:37:15Z</time><name>PT1620</name></trkpt>
<trkpt lat="54.452518" lon="-3.223430"><ele>707</ele><time>2022-03-29T10:37:19Z</time><name>PT1621</name></trkpt>
<trkpt lat="54.452509" lon="-3.223407"><ele>707</ele><time>2022-03-29T10:37:22Z</time><name>PT1622</name></trkpt>
<trkpt lat="54.452493" lon="-3.223372"><ele>707</ele><time>2022-03-29T10:37:26Z</time><name>PT1623</name></trkpt>
<trkpt lat="54.452482" lon="-3.223342"><ele>708</ele><time>2022-03-29T10:37:29Z</time><name>PT1624</name></trkpt>
<trkpt lat="54.452472" lon="-3.223322"><ele>708</ele><time>2022-03-29T10:37:32Z</time><name>PT1625</name></trkpt>
<trkpt lat="54.452457" lon="-3.223281"><ele>709</ele><time>2022-03-29T10:37:36Z</time><name>PT1626</name></trkpt>
<trkpt lat="54.452448" lon="-3.223257"><ele>709</ele><time>2022-03-29T10:37:39Z</time><name>PT1627</name></trkpt>
<trkpt lat="54.452437" lon="-3.223221"><ele>710</ele><time>2022-03-29T10:37:43Z</time><name>PT1628</name></trkpt>
<trkpt lat="54.452432" lon="-3.223213"><ele>710</ele><time>2022-03-29T10:37:47Z</time><name>PT1629</name></trkpt>
<trkpt lat="54.452430" lon="-3.223203"><ele>710</ele><time>2022-03-29T10:37:50Z</time><name>PT1630</name></trkpt>
<trkpt lat="54.452415" lon="-3.223163"><ele>712</ele><time>2022-03-29T10:37:54Z</time><name>PT1631</name></trkpt>
<trkpt lat="54.452416" lon="-3.223155"><ele>712</ele><time>2022-03-29T10:37:57Z</time><name>PT1632</name></trkpt>
<trkpt lat="54.452404" lon="-3.223145"><ele>712</ele><time>2022-03-29T10:38:17Z</time><name>PT1633</name></trkpt>
<trkpt lat="54.452388" lon="-3.223120"><ele>712</ele><time>2022-03-29T10:38:21Z</time><name>PT1634</name></trkpt>
<trkpt lat="54.452377" lon="-3.223109"><ele>712</ele><time>2022-03-29T10:38:25Z</time><name>PT1635</name></trkpt>
<trkpt lat="54.452376" lon="-3.223110"><ele>713</ele><time>2022-03-29T10:39:00Z</time><name>PT1636</name></trkpt>
<trkpt lat="54.452372" lon="-3.223099"><ele>713</ele><time>2022-03-29T10:39:03Z</time><name>PT1637</name></trkpt>
<trkpt lat="54.452363" lon="-3.223112"><ele>713</ele><time>2022-03-29T10:39:11Z</time><name>PT1638</name></trkpt>
<trkpt lat="54.452350" lon="-3.223160"><ele>713</ele><time>2022-03-29T10:39:15Z</time><name>PT1639</name></trkpt>
<trkpt lat="54.452336" lon="-3.223188"><ele>712</ele><time>2022-03-29T10:39:18Z</time><name>PT1640</name></trkpt>
<trkpt lat="54.452321" lon="-3.223199"><ele>712</ele><time>2022-03-29T10:39:21Z</time><name>PT1641</name></trkpt>
<trkpt lat="54.452312" lon="-3.223223"><ele>711</ele><time>2022-03-29T10:39:25Z</time><name>PT1642</name></trkpt>
<trkpt lat="54.452298" lon="-3.223266"><ele>712</ele><time>2022-03-29T10:39:29Z</time><name>PT1643</name></trkpt>
<trkpt lat="54.452289" lon="-3.223313"><ele>712</ele><time>2022-03-29T10:39:33Z</time><name>PT1644</name></trkpt>
<trkpt lat="54.452276" lon="-3.223353"><ele>713</ele><time>2022-03-29T10:39:37Z</time><name>PT1645</name></trkpt>
<trkpt lat="54.452272" lon="-3.223379"><ele>714</ele><time>2022-03-29T10:39:40Z</time><name>PT1646</name></trkpt>
<trkpt lat="54.452267" lon="-3.223406"><ele>715</ele><time>2022-03-29T10:39:44Z</time><name>PT1647</name></trkpt>
<trkpt lat="54.452247" lon="-3.223421"><ele>716</ele><time>2022-03-29T10:39:55Z</time><name>PT1648</name></trkpt>
<trkpt lat="54.452237" lon="-3.223428"><ele>717</ele><time>2022-03-29T10:39:59Z</time><name>PT1649</name></trkpt>
<trkpt lat="54.452230" lon="-3.223445"><ele>719</ele><time>2022-03-29T10:40:03Z</time><name>PT1650</name></trkpt>
<trkpt lat="54.452215" lon="-3.223458"><ele>719</ele><time>2022-03-29T10:40:06Z</time><name>PT1651</name></trkpt>
<trkpt lat="54.452196" lon="-3.223447"><ele>720</ele><time>2022-03-29T10:40:10Z</time><name>PT1652</name></trkpt>
<trkpt lat="54.452187" lon="-3.223464"><ele>720</ele><time>2022-03-29T10:40:13Z</time><name>PT1653</name></trkpt>
<trkpt lat="54.452178" lon="-3.223490"><ele>722</ele><time>2022-03-29T10:40:17Z</time><name>PT1654</name></trkpt>
<trkpt lat="54.452171" lon="-3.223508"><ele>722</ele><time>2022-03-29T10:40:20Z</time><name>PT1655</name></trkpt>
<trkpt lat="54.452163" lon="-3.223525"><ele>723</ele><time>2022-03-29T10:40:23Z</time><name>PT1656</name></trkpt>
<trkpt lat="54.452156" lon="-3.223535"><ele>723</ele><time>2022-03-29T10:40:27Z</time><name>PT1657</name></trkpt>
<trkpt lat="54.452147" lon="-3.223542"><ele>723</ele><time>2022-03-29T10:40:30Z</time><name>PT1658</name></trkpt>
<trkpt lat="54.452131" lon="-3.223556"><ele>723</ele><time>2022-03-29T10:40:33Z</time><name>PT1659</name></trkpt>
<trkpt lat="54.452123" lon="-3.223544"><ele>724</ele><time>2022-03-29T10:40:36Z</time><name>PT1660</name></trkpt>
<trkpt lat="54.452114" lon="-3.223544"><ele>725</ele><time>2022-03-29T10:40:40Z</time><name>PT1661</name></trkpt>
<trkpt lat="54.452107" lon="-3.223556"><ele>726</ele><time>2022-03-29T10:40:43Z</time><name>PT1662</name></trkpt>
<trkpt lat="54.452103" lon="-3.223548"><ele>726</ele><time>2022-03-29T10:40:47Z</time><name>PT1663</name></trkpt>
<trkpt lat="54.452088" lon="-3.223558"><ele>726</ele><time>2022-03-29T10:40:51Z</time><name>PT1664</name></trkpt>
<trkpt lat="54.452078" lon="-3.223577"><ele>726</ele><time>2022-03-29T10:40:55Z</time><name>PT1665</name></trkpt>
<trkpt lat="54.452061" lon="-3.223588"><ele>727</ele><time>2022-03-29T10:40:59Z</time><name>PT1666</name></trkpt>
<trkpt lat="54.452054" lon="-3.223604"><ele>727</ele><time>2022-03-29T10:41:02Z</time><name>PT1667</name></trkpt>
<trkpt lat="54.452041" lon="-3.223609"><ele>727</ele><time>2022-03-29T10:41:06Z</time><name>PT1668</name></trkpt>
<trkpt lat="54.452039" lon="-3.223604"><ele>727</ele><time>2022-03-29T10:41:09Z</time><name>PT1669</name></trkpt>
<trkpt lat="54.452025" lon="-3.223587"><ele>729</ele><time>2022-03-29T10:41:13Z</time><name>PT1670</name></trkpt>
<trkpt lat="54.452019" lon="-3.223591"><ele>729</ele><time>2022-03-29T10:41:17Z</time><name>PT1671</name></trkpt>
<trkpt lat="54.452006" lon="-3.223602"><ele>729</ele><time>2022-03-29T10:41:20Z</time><name>PT1672</name></trkpt>
<trkpt lat="54.451993" lon="-3.223602"><ele>730</ele><time>2022-03-29T10:41:24Z</time><name>PT1673</name></trkpt>
<trkpt lat="54.451990" lon="-3.223593"><ele>730</ele><time>2022-03-29T10:41:27Z</time><name>PT1674</name></trkpt>
<trkpt lat="54.451989" lon="-3.223594"><ele>731</ele><time>2022-03-29T10:41:31Z</time><name>PT1675</name></trkpt>
<trkpt lat="54.451986" lon="-3.223591"><ele>732</ele><time>2022-03-29T10:41:34Z</time><name>PT1676</name></trkpt>
<trkpt lat="54.451973" lon="-3.223597"><ele>733</ele><time>2022-03-29T10:41:38Z</time><name>PT1677</name></trkpt>
<trkpt lat="54.451964" lon="-3.223589"><ele>734</ele><time>2022-03-29T10:41:41Z</time><name>PT1678</name></trkpt>
<trkpt lat="54.451955" lon="-3.223590"><ele>735</ele><time>2022-03-29T10:41:44Z</time><name>PT1679</name></trkpt>
<trkpt lat="54.451951" lon="-3.223604"><ele>736</ele><time>2022-03-29T10:41:48Z</time><name>PT1680</name></trkpt>
<trkpt lat="54.451944" lon="-3.223617"><ele>736</ele><time>2022-03-29T10:41:51Z</time><name>PT1681</name></trkpt>
<trkpt lat="54.451931" lon="-3.223611"><ele>737</ele><time>2022-03-29T10:41:55Z</time><name>PT1682</name></trkpt>
<trkpt lat="54.451922" lon="-3.223602"><ele>738</ele><time>2022-03-29T10:41:58Z</time><name>PT1683</name></trkpt>
<trkpt lat="54.451911" lon="-3.223596"><ele>738</ele><time>2022-03-29T10:42:01Z</time><name>PT1684</name></trkpt>
<trkpt lat="54.451903" lon="-3.223587"><ele>739</ele><time>2022-03-29T10:42:04Z</time><name>PT1685</name></trkpt>
<trkpt lat="54.451895" lon="-3.223603"><ele>739</ele><time>2022-03-29T10:42:08Z</time><name>PT1686</name></trkpt>
<trkpt lat="54.451888" lon="-3.223612"><ele>738</ele><time>2022-03-29T10:42:12Z</time><name>PT1687</name></trkpt>
<trkpt lat="54.451881" lon="-3.223609"><ele>739</ele><time>2022-03-29T10:42:16Z</time><name>PT1688</name></trkpt>
<trkpt lat="54.451867" lon="-3.223601"><ele>740</ele><time>2022-03-29T10:42:19Z</time><name>PT1689</name></trkpt>
<trkpt lat="54.451857" lon="-3.223580"><ele>740</ele><time>2022-03-29T10:42:23Z</time><name>PT1690</name></trkpt>
<trkpt lat="54.451849" lon="-3.223579"><ele>740</ele><time>2022-03-29T10:42:26Z</time><name>PT1691</name></trkpt>
<trkpt lat="54.451849" lon="-3.223586"><ele>741</ele><time>2022-03-29T10:42:29Z</time><name>PT1692</name></trkpt>
<trkpt lat="54.451848" lon="-3.223579"><ele>742</ele><time>2022-03-29T10:42:33Z</time><name>PT1693</name></trkpt>
<trkpt lat="54.451837" lon="-3.223583"><ele>743</ele><time>2022-03-29T10:42:37Z</time><name>PT1694</name></trkpt>
<trkpt lat="54.451823" lon="-3.223578"><ele>742</ele><time>2022-03-29T10:42:40Z</time><name>PT1695</name></trkpt>
<trkpt lat="54.451816" lon="-3.223576"><ele>743</ele><time>2022-03-29T10:42:44Z</time><name>PT1696</name></trkpt>
<trkpt lat="54.451804" lon="-3.223590"><ele>744</ele><time>2022-03-29T10:42:51Z</time><name>PT1697</name></trkpt>
<trkpt lat="54.451795" lon="-3.223595"><ele>744</ele><time>2022-03-29T10:42:54Z</time><name>PT1698</name></trkpt>
<trkpt lat="54.451787" lon="-3.223588"><ele>745</ele><time>2022-03-29T10:42:58Z</time><name>PT1699</name></trkpt>
<trkpt lat="54.451780" lon="-3.223577"><ele>746</ele><time>2022-03-29T10:43:01Z</time><name>PT1700</name></trkpt>
<trkpt lat="54.451759" lon="-3.223566"><ele>747</ele><time>2022-03-29T10:43:05Z</time><name>PT1701</name></trkpt>
<trkpt lat="54.451761" lon="-3.223560"><ele>747</ele><time>2022-03-29T10:43:12Z</time><name>PT1702</name></trkpt>
<trkpt lat="54.451753" lon="-3.223552"><ele>750</ele><time>2022-03-29T10:43:16Z</time><name>PT1703</name></trkpt>
<trkpt lat="54.451750" lon="-3.223585"><ele>750</ele><time>2022-03-29T10:43:19Z</time><name>PT1704</name></trkpt>
<trkpt lat="54.451736" lon="-3.223601"><ele>750</ele><time>2022-03-29T10:43:23Z</time><name>PT1705</name></trkpt>
<trkpt lat="54.451728" lon="-3.223613"><ele>751</ele><time>2022-03-29T10:43:27Z</time><name>PT1706</name></trkpt>
<trkpt lat="54.451725" lon="-3.223605"><ele>752</ele><time>2022-03-29T10:43:30Z</time><name>PT1707</name></trkpt>
<trkpt lat="54.451712" lon="-3.223615"><ele>753</ele><time>2022-03-29T10:43:33Z</time><name>PT1708</name></trkpt>
<trkpt lat="54.451700" lon="-3.223622"><ele>753</ele><time>2022-03-29T10:43:37Z</time><name>PT1709</name></trkpt>
<trkpt lat="54.451699" lon="-3.223619"><ele>753</ele><time>2022-03-29T10:43:45Z</time><name>PT1710</name></trkpt>
<trkpt lat="54.451688" lon="-3.223643"><ele>755</ele><time>2022-03-29T10:43:49Z</time><name>PT1711</name></trkpt>
<trkpt lat="54.451678" lon="-3.223647"><ele>756</ele><time>2022-03-29T10:43:53Z</time><name>PT1712</name></trkpt>
<trkpt lat="54.451667" lon="-3.223641"><ele>757</ele><time>2022-03-29T10:43:57Z</time><name>PT1713</name></trkpt>
<trkpt lat="54.451652" lon="-3.223648"><ele>758</ele><time>2022-03-29T10:44:01Z</time><name>PT1714</name></trkpt>
<trkpt lat="54.451631" lon="-3.223655"><ele>757</ele><time>2022-03-29T10:44:04Z</time><name>PT1715</name></trkpt>
<trkpt lat="54.451612" lon="-3.223635"><ele>756</ele><time>2022-03-29T10:44:08Z</time><name>PT1716</name></trkpt>
<trkpt lat="54.451603" lon="-3.223620"><ele>756</ele><time>2022-03-29T10:44:11Z</time><name>PT1717</name></trkpt>
<trkpt lat="54.451598" lon="-3.223613"><ele>757</ele><time>2022-03-29T10:44:14Z</time><name>PT1718</name></trkpt>
<trkpt lat="54.451586" lon="-3.223602"><ele>756</ele><time>2022-03-29T10:44:18Z</time><name>PT1719</name></trkpt>
<trkpt lat="54.451581" lon="-3.223584"><ele>758</ele><time>2022-03-29T10:44:22Z</time><name>PT1720</name></trkpt>
<trkpt lat="54.451568" lon="-3.223575"><ele>759</ele><time>2022-03-29T10:44:26Z</time><name>PT1721</name></trkpt>
<trkpt lat="54.451555" lon="-3.223570"><ele>760</ele><time>2022-03-29T10:44:30Z</time><name>PT1722</name></trkpt>
<trkpt lat="54.451558" lon="-3.223568"><ele>761</ele><time>2022-03-29T10:44:33Z</time><name>PT1723</name></trkpt>
<trkpt lat="54.451551" lon="-3.223560"><ele>762</ele><time>2022-03-29T10:44:36Z</time><name>PT1724</name></trkpt>
<trkpt lat="54.451552" lon="-3.223554"><ele>762</ele><time>2022-03-29T10:44:40Z</time><name>PT1725</name></trkpt>
<trkpt lat="54.451554" lon="-3.223548"><ele>762</ele><time>2022-03-29T10:44:44Z</time><name>PT1726</name></trkpt>
<trkpt lat="54.451544" lon="-3.223554"><ele>763</ele><time>2022-03-29T10:44:48Z</time><name>PT1727</name></trkpt>
<trkpt lat="54.451545" lon="-3.223559"><ele>763</ele><time>2022-03-29T10:44:52Z</time><name>PT1728</name></trkpt>
<trkpt lat="54.451537" lon="-3.223552"><ele>764</ele><time>2022-03-29T10:44:55Z</time><name>PT1729</name></trkpt>
<trkpt lat="54.451540" lon="-3.223552"><ele>764</ele><time>2022-03-29T10:44:59Z</time><name>PT1730</name></trkpt>
<trkpt lat="54.451535" lon="-3.223542"><ele>765</ele><time>2022-03-29T10:45:05Z</time><name>PT1731</name></trkpt>
<trkpt lat="54.451528" lon="-3.223542"><ele>765</ele><time>2022-03-29T10:45:09Z</time><name>PT1732</name></trkpt>
<trkpt lat="54.451522" lon="-3.223521"><ele>767</ele><time>2022-03-29T10:45:15Z</time><name>PT1733</name></trkpt>
<trkpt lat="54.451515" lon="-3.223507"><ele>767</ele><time>2022-03-29T10:45:19Z</time><name>PT1734</name></trkpt>
<trkpt lat="54.451511" lon="-3.223500"><ele>768</ele><time>2022-03-29T10:45:39Z</time><name>PT1735</name></trkpt>
<trkpt lat="54.451487" lon="-3.223454"><ele>770</ele><time>2022-03-29T10:45:43Z</time><name>PT1736</name></trkpt>
<trkpt lat="54.451468" lon="-3.223426"><ele>771</ele><time>2022-03-29T10:45:47Z</time><name>PT1737</name></trkpt>
<trkpt lat="54.451452" lon="-3.223403"><ele>773</ele><time>2022-03-29T10:45:51Z</time><name>PT1738</name></trkpt>
<trkpt lat="54.451444" lon="-3.223386"><ele>773</ele><time>2022-03-29T10:45:55Z</time><name>PT1739</name></trkpt>
<trkpt lat="54.451429" lon="-3.223363"><ele>774</ele><time>2022-03-29T10:46:02Z</time><name>PT1740</name></trkpt>
<trkpt lat="54.451415" lon="-3.223350"><ele>775</ele><time>2022-03-29T10:46:06Z</time><name>PT1741</name></trkpt>
<trkpt lat="54.451414" lon="-3.223342"><ele>776</ele><time>2022-03-29T10:46:09Z</time><name>PT1742</name></trkpt>
<trkpt lat="54.451409" lon="-3.223334"><ele>776</ele><time>2022-03-29T10:46:13Z</time><name>PT1743</name></trkpt>
<trkpt lat="54.451397" lon="-3.223320"><ele>778</ele><time>2022-03-29T10:46:17Z</time><name>PT1744</name></trkpt>
<trkpt lat="54.451388" lon="-3.223317"><ele>778</ele><time>2022-03-29T10:46:20Z</time><name>PT1745</name></trkpt>
<trkpt lat="54.451384" lon="-3.223301"><ele>779</ele><time>2022-03-29T10:46:24Z</time><name>PT1746</name></trkpt>
<trkpt lat="54.451373" lon="-3.223289"><ele>780</ele><time>2022-03-29T10:46:27Z</time><name>PT1747</name></trkpt>
<trkpt lat="54.451367" lon="-3.223274"><ele>782</ele><time>2022-03-29T10:46:30Z</time><name>PT1748</name></trkpt>
<trkpt lat="54.451360" lon="-3.223246"><ele>782</ele><time>2022-03-29T10:46:34Z</time><name>PT1749</name></trkpt>
<trkpt lat="54.451354" lon="-3.223245"><ele>782</ele><time>2022-03-29T10:46:37Z</time><name>PT1750</name></trkpt>
<trkpt lat="54.451346" lon="-3.223245"><ele>782</ele><time>2022-03-29T10:46:40Z</time><name>PT1751</name></trkpt>
<trkpt lat="54.451340" lon="-3.223246"><ele>782</ele><time>2022-03-29T10:46:44Z</time><name>PT1752</name></trkpt>
<trkpt lat="54.451335" lon="-3.223230"><ele>783</ele><time>2022-03-29T10:46:47Z</time><name>PT1753</name></trkpt>
<trkpt lat="54.451326" lon="-3.223237"><ele>784</ele><time>2022-03-29T10:46:50Z</time><name>PT1754</name></trkpt>
<trkpt lat="54.451320" lon="-3.223241"><ele>785</ele><time>2022-03-29T10:46:54Z</time><name>PT1755</name></trkpt>
<trkpt lat="54.451301" lon="-3.223243"><ele>785</ele><time>2022-03-29T10:46:58Z</time><name>PT1756</name></trkpt>
<trkpt lat="54.451298" lon="-3.223228"><ele>785</ele><time>2022-03-29T10:47:02Z</time><name>PT1757</name></trkpt>
<trkpt lat="54.451286" lon="-3.223232"><ele>786</ele><time>2022-03-29T10:47:05Z</time><name>PT1758</name></trkpt>
<trkpt lat="54.451277" lon="-3.223235"><ele>786</ele><time>2022-03-29T10:47:08Z</time><name>PT1759</name></trkpt>
<trkpt lat="54.451267" lon="-3.223217"><ele>787</ele><time>2022-03-29T10:47:12Z</time><name>PT1760</name></trkpt>
<trkpt lat="54.451262" lon="-3.223215"><ele>789</ele><time>2022-03-29T10:47:16Z</time><name>PT1761</name></trkpt>
<trkpt lat="54.451256" lon="-3.223220"><ele>789</ele><time>2022-03-29T10:47:19Z</time><name>PT1762</name></trkpt>
<trkpt lat="54.451253" lon="-3.223236"><ele>790</ele><time>2022-03-29T10:47:23Z</time><name>PT1763</name></trkpt>
<trkpt lat="54.451240" lon="-3.223257"><ele>791</ele><time>2022-03-29T10:47:33Z</time><name>PT1764</name></trkpt>
<trkpt lat="54.451221" lon="-3.223283"><ele>791</ele><time>2022-03-29T10:47:37Z</time><name>PT1765</name></trkpt>
<trkpt lat="54.451212" lon="-3.223296"><ele>791</ele><time>2022-03-29T10:47:41Z</time><name>PT1766</name></trkpt>
<trkpt lat="54.451205" lon="-3.223304"><ele>791</ele><time>2022-03-29T10:47:44Z</time><name>PT1767</name></trkpt>
<trkpt lat="54.451190" lon="-3.223296"><ele>792</ele><time>2022-03-29T10:47:48Z</time><name>PT1768</name></trkpt>
<trkpt lat="54.451187" lon="-3.223292"><ele>792</ele><time>2022-03-29T10:47:51Z</time><name>PT1769</name></trkpt>
<trkpt lat="54.451178" lon="-3.223279"><ele>793</ele><time>2022-03-29T10:47:55Z</time><name>PT1770</name></trkpt>
<trkpt lat="54.451168" lon="-3.223278"><ele>793</ele><time>2022-03-29T10:47:59Z</time><name>PT1771</name></trkpt>
<trkpt lat="54.451162" lon="-3.223287"><ele>793</ele><time>2022-03-29T10:48:02Z</time><name>PT1772</name></trkpt>
<trkpt lat="54.451152" lon="-3.223302"><ele>794</ele><time>2022-03-29T10:48:05Z</time><name>PT1773</name></trkpt>
<trkpt lat="54.451141" lon="-3.223309"><ele>795</ele><time>2022-03-29T10:48:09Z</time><name>PT1774</name></trkpt>
<trkpt lat="54.451132" lon="-3.223305"><ele>795</ele><time>2022-03-29T10:48:13Z</time><name>PT1775</name></trkpt>
<trkpt lat="54.451126" lon="-3.223312"><ele>796</ele><time>2022-03-29T10:48:17Z</time><name>PT1776</name></trkpt>
<trkpt lat="54.451125" lon="-3.223311"><ele>796</ele><time>2022-03-29T10:48:20Z</time><name>PT1777</name></trkpt>
<trkpt lat="54.451116" lon="-3.223308"><ele>797</ele><time>2022-03-29T10:48:26Z</time><name>PT1778</name></trkpt>
<trkpt lat="54.451101" lon="-3.223316"><ele>798</ele><time>2022-03-29T10:48:29Z</time><name>PT1779</name></trkpt>
<trkpt lat="54.451101" lon="-3.223312"><ele>798</ele><time>2022-03-29T10:48:32Z</time><name>PT1780</name></trkpt>
<trkpt lat="54.451098" lon="-3.223314"><ele>798</ele><time>2022-03-29T10:48:35Z</time><name>PT1781</name></trkpt>
<trkpt lat="54.451095" lon="-3.223308"><ele>798</ele><time>2022-03-29T10:48:38Z</time><name>PT1782</name></trkpt>
<trkpt lat="54.451088" lon="-3.223296"><ele>799</ele><time>2022-03-29T10:48:42Z</time><name>PT1783</name></trkpt>
<trkpt lat="54.451096" lon="-3.223295"><ele>800</ele><time>2022-03-29T10:48:46Z</time><name>PT1784</name></trkpt>
<trkpt lat="54.451108" lon="-3.223287"><ele>800</ele><time>2022-03-29T10:48:49Z</time><name>PT1785</name></trkpt>
<trkpt lat="54.451107" lon="-3.223288"><ele>800</ele><time>2022-03-29T10:48:53Z</time><name>PT1786</name></trkpt>
<trkpt lat="54.451097" lon="-3.223299"><ele>802</ele><time>2022-03-29T10:49:21Z</time><name>PT1787</name></trkpt>
<trkpt lat="54.451092" lon="-3.223289"><ele>801</ele><time>2022-03-29T10:49:51Z</time><name>PT1788</name></trkpt>
<trkpt lat="54.451093" lon="-3.223287"><ele>801</ele><time>2022-03-29T10:49:52Z</time><name>PT1789</name></trkpt>
<trkpt lat="54.451095" lon="-3.223295"><ele>801</ele><time>2022-03-29T10:49:53Z</time><name>PT1790</name></trkpt>
<trkpt lat="54.451095" lon="-3.223296"><ele>801</ele><time>2022-03-29T10:49:54Z</time><name>PT1791</name></trkpt>
<trkpt lat="54.451094" lon="-3.223297"><ele>801</ele><time>2022-03-29T10:49:55Z</time><name>PT1792</name></trkpt>
<trkpt lat="54.451102" lon="-3.223297"><ele>801</ele><time>2022-03-29T10:50:14Z</time><name>PT1793</name></trkpt>
<trkpt lat="54.451104" lon="-3.223295"><ele>802</ele><time>2022-03-29T10:50:15Z</time><name>PT1794</name></trkpt>
<trkpt lat="54.451107" lon="-3.223302"><ele>802</ele><time>2022-03-29T10:50:16Z</time><name>PT1795</name></trkpt>
<trkpt lat="54.451110" lon="-3.223315"><ele>802</ele><time>2022-03-29T10:50:17Z</time><name>PT1796</name></trkpt>
<trkpt lat="54.451110" lon="-3.223313"><ele>802</ele><time>2022-03-29T10:50:18Z</time><name>PT1797</name></trkpt>
<trkpt lat="54.451112" lon="-3.223303"><ele>802</ele><time>2022-03-29T10:50:20Z</time><name>PT1798</name></trkpt>
<trkpt lat="54.451109" lon="-3.223294"><ele>802</ele><time>2022-03-29T10:50:21Z</time><name>PT1799</name></trkpt>
<trkpt lat="54.451111" lon="-3.223285"><ele>801</ele><time>2022-03-29T10:50:22Z</time><name>PT1800</name></trkpt>
<trkpt lat="54.451116" lon="-3.223286"><ele>803</ele><time>2022-03-29T10:50:51Z</time><name>PT1801</name></trkpt>
<trkpt lat="54.451122" lon="-3.223286"><ele>803</ele><time>2022-03-29T10:50:52Z</time><name>PT1802</name></trkpt>
<trkpt lat="54.451120" lon="-3.223289"><ele>803</ele><time>2022-03-29T10:50:53Z</time><name>PT1803</name></trkpt>
<trkpt lat="54.451120" lon="-3.223287"><ele>803</ele><time>2022-03-29T10:50:54Z</time><name>PT1804</name></trkpt>
<trkpt lat="54.451120" lon="-3.223278"><ele>803</ele><time>2022-03-29T10:50:55Z</time><name>PT1805</name></trkpt>
<trkpt lat="54.451117" lon="-3.223275"><ele>803</ele><time>2022-03-29T10:50:56Z</time><name>PT1806</name></trkpt>
<trkpt lat="54.451117" lon="-3.223281"><ele>803</ele><time>2022-03-29T10:50:57Z</time><name>PT1807</name></trkpt>
<trkpt lat="54.451114" lon="-3.223287"><ele>803</ele><time>2022-03-29T10:50:58Z</time><name>PT1808</name></trkpt>
<trkpt lat="54.451115" lon="-3.223301"><ele>803</ele><time>2022-03-29T10:50:59Z</time><name>PT1809</name></trkpt>
<trkpt lat="54.451112" lon="-3.223311"><ele>803</ele><time>2022-03-29T10:51:00Z</time><name>PT1810</name></trkpt>
<trkpt lat="54.451113" lon="-3.223324"><ele>802</ele><time>2022-03-29T10:51:01Z</time><name>PT1811</name></trkpt>
<trkpt lat="54.451111" lon="-3.223339"><ele>803</ele><time>2022-03-29T10:51:02Z</time><name>PT1812</name></trkpt>
<trkpt lat="54.451108" lon="-3.223346"><ele>803</ele><time>2022-03-29T10:51:03Z</time><name>PT1813</name></trkpt>
<trkpt lat="54.451106" lon="-3.223345"><ele>803</ele><time>2022-03-29T10:51:04Z</time><name>PT1814</name></trkpt>
<trkpt lat="54.451105" lon="-3.223344"><ele>803</ele><time>2022-03-29T10:51:05Z</time><name>PT1815</name></trkpt>
<trkpt lat="54.451104" lon="-3.223350"><ele>803</ele><time>2022-03-29T10:51:06Z</time><name>PT1816</name></trkpt>
<trkpt lat="54.451104" lon="-3.223357"><ele>803</ele><time>2022-03-29T10:51:07Z</time><name>PT1817</name></trkpt>
<trkpt lat="54.451100" lon="-3.223364"><ele>802</ele><time>2022-03-29T10:51:08Z</time><name>PT1818</name></trkpt>
<trkpt lat="54.451097" lon="-3.223370"><ele>802</ele><time>2022-03-29T10:51:09Z</time><name>PT1819</name></trkpt>
<trkpt lat="54.451097" lon="-3.223378"><ele>802</ele><time>2022-03-29T10:51:10Z</time><name>PT1820</name></trkpt>
<trkpt lat="54.451094" lon="-3.223385"><ele>802</ele><time>2022-03-29T10:51:11Z</time><name>PT1821</name></trkpt>
<trkpt lat="54.451092" lon="-3.223391"><ele>802</ele><time>2022-03-29T10:51:12Z</time><name>PT1822</name></trkpt>
<trkpt lat="54.451090" lon="-3.223396"><ele>802</ele><time>2022-03-29T10:51:13Z</time><name>PT1823</name></trkpt>
<trkpt lat="54.451090" lon="-3.223397"><ele>802</ele><time>2022-03-29T10:51:14Z</time><name>PT1824</name></trkpt>
<trkpt lat="54.451090" lon="-3.223397"><ele>802</ele><time>2022-03-29T10:51:15Z</time><name>PT1825</name></trkpt>
<trkpt lat="54.451088" lon="-3.223399"><ele>802</ele><time>2022-03-29T10:51:16Z</time><name>PT1826</name></trkpt>
<trkpt lat="54.451088" lon="-3.223402"><ele>803</ele><time>2022-03-29T10:51:17Z</time><name>PT1827</name></trkpt>
<trkpt lat="54.451088" lon="-3.223408"><ele>803</ele><time>2022-03-29T10:51:18Z</time><name>PT1828</name></trkpt>
<trkpt lat="54.451087" lon="-3.223416"><ele>803</ele><time>2022-03-29T10:51:19Z</time><name>PT1829</name></trkpt>
<trkpt lat="54.451085" lon="-3.223421"><ele>803</ele><time>2022-03-29T10:51:20Z</time><name>PT1830</name></trkpt>
<trkpt lat="54.451083" lon="-3.223426"><ele>803</ele><time>2022-03-29T10:51:21Z</time><name>PT1831</name></trkpt>
<trkpt lat="54.451082" lon="-3.223427"><ele>803</ele><time>2022-03-29T10:51:22Z</time><name>PT1832</name></trkpt>
<trkpt lat="54.451081" lon="-3.223427"><ele>803</ele><time>2022-03-29T10:51:23Z</time><name>PT1833</name></trkpt>
<trkpt lat="54.451085" lon="-3.223429"><ele>804</ele><time>2022-03-29T10:51:24Z</time><name>PT1834</name></trkpt>
<trkpt lat="54.451089" lon="-3.223435"><ele>805</ele><time>2022-03-29T10:51:25Z</time><name>PT1835</name></trkpt>
<trkpt lat="54.451086" lon="-3.223446"><ele>805</ele><time>2022-03-29T10:51:26Z</time><name>PT1836</name></trkpt>
<trkpt lat="54.451086" lon="-3.223447"><ele>806</ele><time>2022-03-29T10:51:27Z</time><name>PT1837</name></trkpt>
<trkpt lat="54.451084" lon="-3.223449"><ele>807</ele><time>2022-03-29T10:51:28Z</time><name>PT1838</name></trkpt>
<trkpt lat="54.451085" lon="-3.223453"><ele>807</ele><time>2022-03-29T10:51:29Z</time><name>PT1839</name></trkpt>
<trkpt lat="54.451084" lon="-3.223457"><ele>807</ele><time>2022-03-29T10:51:30Z</time><name>PT1840</name></trkpt>
<trkpt lat="54.451086" lon="-3.223462"><ele>807</ele><time>2022-03-29T10:51:31Z</time><name>PT1841</name></trkpt>
<trkpt lat="54.451092" lon="-3.223466"><ele>808</ele><time>2022-03-29T10:51:40Z</time><name>PT1842</name></trkpt>
<trkpt lat="54.451093" lon="-3.223474"><ele>808</ele><time>2022-03-29T10:51:41Z</time><name>PT1843</name></trkpt>
<trkpt lat="54.451094" lon="-3.223483"><ele>808</ele><time>2022-03-29T10:51:42Z</time><name>PT1844</name></trkpt>
<trkpt lat="54.451092" lon="-3.223480"><ele>809</ele><time>2022-03-29T10:51:43Z</time><name>PT1845</name></trkpt>
<trkpt lat="54.451093" lon="-3.223485"><ele>809</ele><time>2022-03-29T10:51:44Z</time><name>PT1846</name></trkpt>
<trkpt lat="54.451089" lon="-3.223487"><ele>808</ele><time>2022-03-29T10:51:45Z</time><name>PT1847</name></trkpt>
<trkpt lat="54.451088" lon="-3.223487"><ele>809</ele><time>2022-03-29T10:51:46Z</time><name>PT1848</name></trkpt>
<trkpt lat="54.451084" lon="-3.223493"><ele>809</ele><time>2022-03-29T10:51:47Z</time><name>PT1849</name></trkpt>
<trkpt lat="54.451081" lon="-3.223496"><ele>809</ele><time>2022-03-29T10:51:48Z</time><name>PT1850</name></trkpt>
<trkpt lat="54.451076" lon="-3.223495"><ele>809</ele><time>2022-03-29T10:51:49Z</time><name>PT1851</name></trkpt>
<trkpt lat="54.451066" lon="-3.223500"><ele>810</ele><time>2022-03-29T10:51:50Z</time><name>PT1852</name></trkpt>
<trkpt lat="54.451060" lon="-3.223502"><ele>810</ele><time>2022-03-29T10:51:51Z</time><name>PT1853</name></trkpt>
<trkpt lat="54.451052" lon="-3.223508"><ele>810</ele><time>2022-03-29T10:51:54Z</time><name>PT1854</name></trkpt>
<trkpt lat="54.451045" lon="-3.223516"><ele>810</ele><time>2022-03-29T10:51:57Z</time><name>PT1855</name></trkpt>
<trkpt lat="54.451040" lon="-3.223514"><ele>810</ele><time>2022-03-29T10:52:11Z</time><name>PT1856</name></trkpt>
<trkpt lat="54.451033" lon="-3.223530"><ele>810</ele><time>2022-03-29T10:52:14Z</time><name>PT1857</name></trkpt>
<trkpt lat="54.451019" lon="-3.223568"><ele>809</ele><time>2022-03-29T10:52:21Z</time><name>PT1858</name></trkpt>
<trkpt lat="54.451017" lon="-3.223567"><ele>810</ele><time>2022-03-29T10:52:25Z</time><name>PT1859</name></trkpt>
<trkpt lat="54.451014" lon="-3.223575"><ele>811</ele><time>2022-03-29T10:52:28Z</time><name>PT1860</name></trkpt>
<trkpt lat="54.451019" lon="-3.223581"><ele>811</ele><time>2022-03-29T10:52:31Z</time><name>PT1861</name></trkpt>
<trkpt lat="54.451025" lon="-3.223582"><ele>813</ele><time>2022-03-29T10:52:34Z</time><name>PT1862</name></trkpt>
<trkpt lat="54.451030" lon="-3.223604"><ele>814</ele><time>2022-03-29T10:52:38Z</time><name>PT1863</name></trkpt>
<trkpt lat="54.451032" lon="-3.223610"><ele>814</ele><time>2022-03-29T10:52:41Z</time><name>PT1864</name></trkpt>
<trkpt lat="54.451036" lon="-3.223628"><ele>815</ele><time>2022-03-29T10:52:44Z</time><name>PT1865</name></trkpt>
<trkpt lat="54.451032" lon="-3.223638"><ele>816</ele><time>2022-03-29T10:52:47Z</time><name>PT1866</name></trkpt>
<trkpt lat="54.451026" lon="-3.223635"><ele>816</ele><time>2022-03-29T10:52:51Z</time><name>PT1867</name></trkpt>
<trkpt lat="54.451022" lon="-3.223646"><ele>817</ele><time>2022-03-29T10:52:54Z</time><name>PT1868</name></trkpt>
<trkpt lat="54.451024" lon="-3.223657"><ele>817</ele><time>2022-03-29T10:52:58Z</time><name>PT1869</name></trkpt>
<trkpt lat="54.451030" lon="-3.223667"><ele>816</ele><time>2022-03-29T10:53:01Z</time><name>PT1870</name></trkpt>
<trkpt lat="54.451038" lon="-3.223677"><ele>816</ele><time>2022-03-29T10:53:04Z</time><name>PT1871</name></trkpt>
<trkpt lat="54.451048" lon="-3.223677"><ele>818</ele><time>2022-03-29T10:53:08Z</time><name>PT1872</name></trkpt>
<trkpt lat="54.451042" lon="-3.223692"><ele>816</ele><time>2022-03-29T10:53:12Z</time><name>PT1873</name></trkpt>
<trkpt lat="54.451049" lon="-3.223694"><ele>818</ele><time>2022-03-29T10:53:16Z</time><name>PT1874</name></trkpt>
<trkpt lat="54.451045" lon="-3.223713"><ele>818</ele><time>2022-03-29T10:53:30Z</time><name>PT1875</name></trkpt>
<trkpt lat="54.451041" lon="-3.223731"><ele>818</ele><time>2022-03-29T10:53:33Z</time><name>PT1876</name></trkpt>
<trkpt lat="54.451037" lon="-3.223737"><ele>817</ele><time>2022-03-29T10:53:37Z</time><name>PT1877</name></trkpt>
<trkpt lat="54.451025" lon="-3.223739"><ele>817</ele><time>2022-03-29T10:53:40Z</time><name>PT1878</name></trkpt>
<trkpt lat="54.451016" lon="-3.223752"><ele>817</ele><time>2022-03-29T10:53:43Z</time><name>PT1879</name></trkpt>
<trkpt lat="54.450999" lon="-3.223757"><ele>817</ele><time>2022-03-29T10:53:47Z</time><name>PT1880</name></trkpt>
<trkpt lat="54.450992" lon="-3.223764"><ele>818</ele><time>2022-03-29T10:53:50Z</time><name>PT1881</name></trkpt>
<trkpt lat="54.450975" lon="-3.223757"><ele>818</ele><time>2022-03-29T10:53:57Z</time><name>PT1882</name></trkpt>
<trkpt lat="54.450974" lon="-3.223757"><ele>818</ele><time>2022-03-29T10:54:01Z</time><name>PT1883</name></trkpt>
<trkpt lat="54.450956" lon="-3.223762"><ele>819</ele><time>2022-03-29T10:54:05Z</time><name>PT1884</name></trkpt>
<trkpt lat="54.450954" lon="-3.223761"><ele>819</ele><time>2022-03-29T10:54:09Z</time><name>PT1885</name></trkpt>
<trkpt lat="54.450959" lon="-3.223755"><ele>818</ele><time>2022-03-29T10:54:20Z</time><name>PT1886</name></trkpt>
<trkpt lat="54.450958" lon="-3.223756"><ele>817</ele><time>2022-03-29T10:54:23Z</time><name>PT1887</name></trkpt>
<trkpt lat="54.450950" lon="-3.223765"><ele>816</ele><time>2022-03-29T10:54:33Z</time><name>PT1888</name></trkpt>
<trkpt lat="54.450948" lon="-3.223765"><ele>816</ele><time>2022-03-29T10:54:37Z</time><name>PT1889</name></trkpt>
<trkpt lat="54.450945" lon="-3.223767"><ele>816</ele><time>2022-03-29T10:54:41Z</time><name>PT1890</name></trkpt>
<trkpt lat="54.450943" lon="-3.223767"><ele>816</ele><time>2022-03-29T10:54:45Z</time><name>PT1891</name></trkpt>
<trkpt lat="54.450939" lon="-3.223774"><ele>817</ele><time>2022-03-29T10:54:48Z</time><name>PT1892</name></trkpt>
<trkpt lat="54.450930" lon="-3.223782"><ele>817</ele><time>2022-03-29T10:54:52Z</time><name>PT1893</name></trkpt>
<trkpt lat="54.450924" lon="-3.223784"><ele>818</ele><time>2022-03-29T10:54:55Z</time><name>PT1894</name></trkpt>
<trkpt lat="54.450933" lon="-3.223770"><ele>819</ele><time>2022-03-29T10:54:59Z</time><name>PT1895</name></trkpt>
<trkpt lat="54.450935" lon="-3.223766"><ele>819</ele><time>2022-03-29T10:55:02Z</time><name>PT1896</name></trkpt>
<trkpt lat="54.450926" lon="-3.223824"><ele>819</ele><time>2022-03-29T10:55:09Z</time><name>PT1897</name></trkpt>
<trkpt lat="54.450923" lon="-3.223860"><ele>821</ele><time>2022-03-29T10:55:13Z</time><name>PT1898</name></trkpt>
<trkpt lat="54.450925" lon="-3.223868"><ele>821</ele><time>2022-03-29T10:55:16Z</time><name>PT1899</name></trkpt>
<trkpt lat="54.450928" lon="-3.223872"><ele>822</ele><time>2022-03-29T10:55:19Z</time><name>PT1900</name></trkpt>
<trkpt lat="54.450922" lon="-3.223879"><ele>823</ele><time>2022-03-29T10:55:22Z</time><name>PT1901</name></trkpt>
<trkpt lat="54.450951" lon="-3.223907"><ele>823</ele><time>2022-03-29T10:55:26Z</time><name>PT1902</name></trkpt>
<trkpt lat="54.450961" lon="-3.223930"><ele>823</ele><time>2022-03-29T10:55:30Z</time><name>PT1903</name></trkpt>
<trkpt lat="54.450970" lon="-3.223938"><ele>823</ele><time>2022-03-29T10:55:34Z</time><name>PT1904</name></trkpt>
<trkpt lat="54.450980" lon="-3.223966"><ele>824</ele><time>2022-03-29T10:55:38Z</time><name>PT1905</name></trkpt>
<trkpt lat="54.450987" lon="-3.223978"><ele>824</ele><time>2022-03-29T10:55:42Z</time><name>PT1906</name></trkpt>
<trkpt lat="54.450992" lon="-3.223983"><ele>824</ele><time>2022-03-29T10:55:46Z</time><name>PT1907</name></trkpt>
<trkpt lat="54.450994" lon="-3.223991"><ele>824</ele><time>2022-03-29T10:55:49Z</time><name>PT1908</name></trkpt>
<trkpt lat="54.450993" lon="-3.223994"><ele>824</ele><time>2022-03-29T10:55:53Z</time><name>PT1909</name></trkpt>
<trkpt lat="54.450978" lon="-3.224018"><ele>826</ele><time>2022-03-29T10:56:03Z</time><name>PT1910</name></trkpt>
<trkpt lat="54.450962" lon="-3.224024"><ele>826</ele><time>2022-03-29T10:56:07Z</time><name>PT1911</name></trkpt>
<trkpt lat="54.450957" lon="-3.224042"><ele>828</ele><time>2022-03-29T10:56:11Z</time><name>PT1912</name></trkpt>
<trkpt lat="54.450955" lon="-3.224042"><ele>828</ele><time>2022-03-29T10:56:14Z</time><name>PT1913</name></trkpt>
<trkpt lat="54.450951" lon="-3.224057"><ele>830</ele><time>2022-03-29T10:56:18Z</time><name>PT1914</name></trkpt>
<trkpt lat="54.450958" lon="-3.224062"><ele>831</ele><time>2022-03-29T10:56:21Z</time><name>PT1915</name></trkpt>
<trkpt lat="54.450961" lon="-3.224071"><ele>832</ele><time>2022-03-29T10:56:25Z</time><name>PT1916</name></trkpt>
<trkpt lat="54.450959" lon="-3.224080"><ele>832</ele><time>2022-03-29T10:56:29Z</time><name>PT1917</name></trkpt>
<trkpt lat="54.450958" lon="-3.224087"><ele>832</ele><time>2022-03-29T10:56:33Z</time><name>PT1918</name></trkpt>
<trkpt lat="54.450950" lon="-3.224104"><ele>833</ele><time>2022-03-29T10:56:37Z</time><name>PT1919</name></trkpt>
<trkpt lat="54.450943" lon="-3.224121"><ele>834</ele><time>2022-03-29T10:56:41Z</time><name>PT1920</name></trkpt>
<trkpt lat="54.450943" lon="-3.224120"><ele>834</ele><time>2022-03-29T10:56:44Z</time><name>PT1921</name></trkpt>
<trkpt lat="54.450937" lon="-3.224145"><ele>835</ele><time>2022-03-29T10:57:15Z</time><name>PT1922</name></trkpt>
<trkpt lat="54.450937" lon="-3.224156"><ele>835</ele><time>2022-03-29T10:57:19Z</time><name>PT1923</name></trkpt>
<trkpt lat="54.450935" lon="-3.224167"><ele>836</ele><time>2022-03-29T10:57:29Z</time><name>PT1924</name></trkpt>
<trkpt lat="54.450935" lon="-3.224187"><ele>837</ele><time>2022-03-29T10:57:36Z</time><name>PT1925</name></trkpt>
<trkpt lat="54.450924" lon="-3.224224"><ele>838</ele><time>2022-03-29T10:57:40Z</time><name>PT1926</name></trkpt>
<trkpt lat="54.450925" lon="-3.224240"><ele>839</ele><time>2022-03-29T10:57:44Z</time><name>PT1927</name></trkpt>
<trkpt lat="54.450909" lon="-3.224279"><ele>841</ele><time>2022-03-29T10:59:15Z</time><name>PT1928</name></trkpt>
<trkpt lat="54.450902" lon="-3.224294"><ele>842</ele><time>2022-03-29T10:59:18Z</time><name>PT1929</name></trkpt>
<trkpt lat="54.450887" lon="-3.224323"><ele>843</ele><time>2022-03-29T10:59:22Z</time><name>PT1930</name></trkpt>
<trkpt lat="54.450883" lon="-3.224343"><ele>844</ele><time>2022-03-29T10:59:25Z</time><name>PT1931</name></trkpt>
<trkpt lat="54.450880" lon="-3.224350"><ele>844</ele><time>2022-03-29T10:59:28Z</time><name>PT1932</name></trkpt>
<trkpt lat="54.450879" lon="-3.224366"><ele>845</ele><time>2022-03-29T10:59:32Z</time><name>PT1933</name></trkpt>
<trkpt lat="54.450881" lon="-3.224380"><ele>845</ele><time>2022-03-29T10:59:35Z</time><name>PT1934</name></trkpt>
<trkpt lat="54.450880" lon="-3.224390"><ele>845</ele><time>2022-03-29T10:59:39Z</time><name>PT1935</name></trkpt>
<trkpt lat="54.450887" lon="-3.224404"><ele>846</ele><time>2022-03-29T10:59:42Z</time><name>PT1936</name></trkpt>
<trkpt lat="54.450894" lon="-3.224408"><ele>846</ele><time>2022-03-29T10:59:46Z</time><name>PT1937</name></trkpt>
<trkpt lat="54.450895" lon="-3.224406"><ele>847</ele><time>2022-03-29T10:59:49Z</time><name>PT1938</name></trkpt>
<trkpt lat="54.450888" lon="-3.224408"><ele>848</ele><time>2022-03-29T10:59:52Z</time><name>PT1939</name></trkpt>
<trkpt lat="54.450897" lon="-3.224421"><ele>848</ele><time>2022-03-29T10:59:55Z</time><name>PT1940</name></trkpt>
<trkpt lat="54.450901" lon="-3.224420"><ele>848</ele><time>2022-03-29T10:59:59Z</time><name>PT1941</name></trkpt>
<trkpt lat="54.450905" lon="-3.224426"><ele>849</ele><time>2022-03-29T11:00:05Z</time><name>PT1942</name></trkpt>
<trkpt lat="54.450905" lon="-3.224428"><ele>849</ele><time>2022-03-29T11:00:08Z</time><name>PT1943</name></trkpt>
<trkpt lat="54.450904" lon="-3.224427"><ele>849</ele><time>2022-03-29T11:00:12Z</time><name>PT1944</name></trkpt>
<trkpt lat="54.450903" lon="-3.224453"><ele>849</ele><time>2022-03-29T11:00:31Z</time><name>PT1945</name></trkpt>
<trkpt lat="54.450902" lon="-3.224442"><ele>849</ele><time>2022-03-29T11:01:27Z</time><name>PT1946</name></trkpt>
<trkpt lat="54.450904" lon="-3.224423"><ele>850</ele><time>2022-03-29T11:01:30Z</time><name>PT1947</name></trkpt>
<trkpt lat="54.450902" lon="-3.224425"><ele>850</ele><time>2022-03-29T11:02:07Z</time><name>PT1948</name></trkpt>
<trkpt lat="54.450897" lon="-3.224486"><ele>850</ele><time>2022-03-29T11:02:11Z</time><name>PT1949</name></trkpt>
<trkpt lat="54.450895" lon="-3.224517"><ele>849</ele><time>2022-03-29T11:02:14Z</time><name>PT1950</name></trkpt>
<trkpt lat="54.450891" lon="-3.224570"><ele>849</ele><time>2022-03-29T11:02:18Z</time><name>PT1951</name></trkpt>
<trkpt lat="54.450885" lon="-3.224588"><ele>849</ele><time>2022-03-29T11:02:21Z</time><name>PT1952</name></trkpt>
<trkpt lat="54.450886" lon="-3.224590"><ele>849</ele><time>2022-03-29T11:02:27Z</time><name>PT1953</name></trkpt>
<trkpt lat="54.450885" lon="-3.224649"><ele>851</ele><time>2022-03-29T11:02:38Z</time><name>PT1954</name></trkpt>
<trkpt lat="54.450880" lon="-3.224674"><ele>851</ele><time>2022-03-29T11:02:41Z</time><name>PT1955</name></trkpt>
<trkpt lat="54.450877" lon="-3.224700"><ele>851</ele><time>2022-03-29T11:02:45Z</time><name>PT1956</name></trkpt>
<trkpt lat="54.450882" lon="-3.224724"><ele>852</ele><time>2022-03-29T11:02:48Z</time><name>PT1957</name></trkpt>
<trkpt lat="54.450878" lon="-3.224736"><ele>852</ele><time>2022-03-29T11:02:51Z</time><name>PT1958</name></trkpt>
<trkpt lat="54.450867" lon="-3.224756"><ele>853</ele><time>2022-03-29T11:02:55Z</time><name>PT1959</name></trkpt>
<trkpt lat="54.450867" lon="-3.224786"><ele>854</ele><time>2022-03-29T11:02:59Z</time><name>PT1960</name></trkpt>
<trkpt lat="54.450867" lon="-3.224795"><ele>855</ele><time>2022-03-29T11:03:03Z</time><name>PT1961</name></trkpt>
<trkpt lat="54.450864" lon="-3.224814"><ele>855</ele><time>2022-03-29T11:03:09Z</time><name>PT1962</name></trkpt>
<trkpt lat="54.450854" lon="-3.224825"><ele>856</ele><time>2022-03-29T11:03:13Z</time><name>PT1963</name></trkpt>
<trkpt lat="54.450846" lon="-3.224850"><ele>857</ele><time>2022-03-29T11:03:20Z</time><name>PT1964</name></trkpt>
<trkpt lat="54.450844" lon="-3.224864"><ele>857</ele><time>2022-03-29T11:03:23Z</time><name>PT1965</name></trkpt>
<trkpt lat="54.450841" lon="-3.224880"><ele>858</ele><time>2022-03-29T11:03:26Z</time><name>PT1966</name></trkpt>
<trkpt lat="54.450831" lon="-3.224897"><ele>859</ele><time>2022-03-29T11:03:29Z</time><name>PT1967</name></trkpt>
<trkpt lat="54.450826" lon="-3.224923"><ele>860</ele><time>2022-03-29T11:03:33Z</time><name>PT1968</name></trkpt>
<trkpt lat="54.450827" lon="-3.224921"><ele>860</ele><time>2022-03-29T11:03:37Z</time><name>PT1969</name></trkpt>
<trkpt lat="54.450825" lon="-3.224933"><ele>860</ele><time>2022-03-29T11:03:44Z</time><name>PT1970</name></trkpt>
<trkpt lat="54.450824" lon="-3.224939"><ele>860</ele><time>2022-03-29T11:03:48Z</time><name>PT1971</name></trkpt>
<trkpt lat="54.450827" lon="-3.224952"><ele>860</ele><time>2022-03-29T11:03:52Z</time><name>PT1972</name></trkpt>
<trkpt lat="54.450826" lon="-3.224953"><ele>860</ele><time>2022-03-29T11:04:06Z</time><name>PT1973</name></trkpt>
<trkpt lat="54.450829" lon="-3.224962"><ele>860</ele><time>2022-03-29T11:04:09Z</time><name>PT1974</name></trkpt>
<trkpt lat="54.450827" lon="-3.224970"><ele>860</ele><time>2022-03-29T11:04:13Z</time><name>PT1975</name></trkpt>
<trkpt lat="54.450829" lon="-3.224981"><ele>860</ele><time>2022-03-29T11:04:17Z</time><name>PT1976</name></trkpt>
<trkpt lat="54.450826" lon="-3.224984"><ele>860</ele><time>2022-03-29T11:04:20Z</time><name>PT1977</name></trkpt>
<trkpt lat="54.450824" lon="-3.224983"><ele>859</ele><time>2022-03-29T11:04:24Z</time><name>PT1978</name></trkpt>
<trkpt lat="54.450821" lon="-3.224989"><ele>861</ele><time>2022-03-29T11:05:08Z</time><name>PT1979</name></trkpt>
<trkpt lat="54.450831" lon="-3.224987"><ele>860</ele><time>2022-03-29T11:05:12Z</time><name>PT1980</name></trkpt>
<trkpt lat="54.450831" lon="-3.224988"><ele>860</ele><time>2022-03-29T11:05:16Z</time><name>PT1981</name></trkpt>
<trkpt lat="54.450833" lon="-3.224989"><ele>859</ele><time>2022-03-29T11:05:22Z</time><name>PT1982</name></trkpt>
<trkpt lat="54.450830" lon="-3.225002"><ele>860</ele><time>2022-03-29T11:05:26Z</time><name>PT1983</name></trkpt>
<trkpt lat="54.450829" lon="-3.225009"><ele>860</ele><time>2022-03-29T11:05:30Z</time><name>PT1984</name></trkpt>
<trkpt lat="54.450819" lon="-3.225032"><ele>858</ele><time>2022-03-29T11:05:34Z</time><name>PT1985</name></trkpt>
<trkpt lat="54.450815" lon="-3.225044"><ele>858</ele><time>2022-03-29T11:05:37Z</time><name>PT1986</name></trkpt>
<trkpt lat="54.450810" lon="-3.225077"><ele>858</ele><time>2022-03-29T11:05:41Z</time><name>PT1987</name></trkpt>
<trkpt lat="54.450807" lon="-3.225093"><ele>857</ele><time>2022-03-29T11:05:44Z</time><name>PT1988</name></trkpt>
<trkpt lat="54.450804" lon="-3.225111"><ele>856</ele><time>2022-03-29T11:05:47Z</time><name>PT1989</name></trkpt>
<trkpt lat="54.450807" lon="-3.225145"><ele>855</ele><time>2022-03-29T11:05:51Z</time><name>PT1990</name></trkpt>
<trkpt lat="54.450799" lon="-3.225158"><ele>855</ele><time>2022-03-29T11:05:54Z</time><name>PT1991</name></trkpt>
<trkpt lat="54.450810" lon="-3.225168"><ele>855</ele><time>2022-03-29T11:05:58Z</time><name>PT1992</name></trkpt>
<trkpt lat="54.450808" lon="-3.225180"><ele>854</ele><time>2022-03-29T11:06:02Z</time><name>PT1993</name></trkpt>
<trkpt lat="54.450807" lon="-3.225200"><ele>853</ele><time>2022-03-29T11:06:05Z</time><name>PT1994</name></trkpt>
<trkpt lat="54.450803" lon="-3.225217"><ele>853</ele><time>2022-03-29T11:06:08Z</time><name>PT1995</name></trkpt>
<trkpt lat="54.450798" lon="-3.225225"><ele>852</ele><time>2022-03-29T11:06:11Z</time><name>PT1996</name></trkpt>
<trkpt lat="54.450795" lon="-3.225239"><ele>852</ele><time>2022-03-29T11:06:14Z</time><name>PT1997</name></trkpt>
<trkpt lat="54.450808" lon="-3.225262"><ele>852</ele><time>2022-03-29T11:06:18Z</time><name>PT1998</name></trkpt>
<trkpt lat="54.450804" lon="-3.225269"><ele>852</ele><time>2022-03-29T11:06:21Z</time><name>PT1999</name></trkpt>
<trkpt lat="54.450808" lon="-3.225284"><ele>852</ele><time>2022-03-29T11:06:24Z</time><name>PT2000</name></trkpt>
<trkpt lat="54.450809" lon="-3.225298"><ele>853</ele><time>2022-03-29T11:06:27Z</time><name>PT2001</name></trkpt>
<trkpt lat="54.450816" lon="-3.225328"><ele>852</ele><time>2022-03-29T11:06:31Z</time><name>PT2002</name></trkpt>
<trkpt lat="54.450810" lon="-3.225361"><ele>850</ele><time>2022-03-29T11:06:35Z</time><name>PT2003</name></trkpt>
<trkpt lat="54.450807" lon="-3.225373"><ele>848</ele><time>2022-03-29T11:06:38Z</time><name>PT2004</name></trkpt>
<trkpt lat="54.450789" lon="-3.225388"><ele>847</ele><time>2022-03-29T11:06:42Z</time><name>PT2005</name></trkpt>
<trkpt lat="54.450785" lon="-3.225413"><ele>846</ele><time>2022-03-29T11:06:45Z</time><name>PT2006</name></trkpt>
<trkpt lat="54.450784" lon="-3.225432"><ele>846</ele><time>2022-03-29T11:06:48Z</time><name>PT2007</name></trkpt>
<trkpt lat="54.450787" lon="-3.225449"><ele>846</ele><time>2022-03-29T11:06:51Z</time><name>PT2008</name></trkpt>
<trkpt lat="54.450782" lon="-3.225472"><ele>845</ele><time>2022-03-29T11:06:54Z</time><name>PT2009</name></trkpt>
<trkpt lat="54.450772" lon="-3.225494"><ele>844</ele><time>2022-03-29T11:06:58Z</time><name>PT2010</name></trkpt>
<trkpt lat="54.450766" lon="-3.225509"><ele>843</ele><time>2022-03-29T11:07:01Z</time><name>PT2011</name></trkpt>
<trkpt lat="54.450776" lon="-3.225538"><ele>843</ele><time>2022-03-29T11:07:05Z</time><name>PT2012</name></trkpt>
<trkpt lat="54.450773" lon="-3.225552"><ele>843</ele><time>2022-03-29T11:07:08Z</time><name>PT2013</name></trkpt>
<trkpt lat="54.450782" lon="-3.225587"><ele>842</ele><time>2022-03-29T11:07:12Z</time><name>PT2014</name></trkpt>
<trkpt lat="54.450781" lon="-3.225613"><ele>841</ele><time>2022-03-29T11:07:15Z</time><name>PT2015</name></trkpt>
<trkpt lat="54.450763" lon="-3.225635"><ele>839</ele><time>2022-03-29T11:07:19Z</time><name>PT2016</name></trkpt>
<trkpt lat="54.450756" lon="-3.225650"><ele>838</ele><time>2022-03-29T11:07:22Z</time><name>PT2017</name></trkpt>
<trkpt lat="54.450745" lon="-3.225667"><ele>837</ele><time>2022-03-29T11:07:26Z</time><name>PT2018</name></trkpt>
<trkpt lat="54.450744" lon="-3.225694"><ele>836</ele><time>2022-03-29T11:07:29Z</time><name>PT2019</name></trkpt>
<trkpt lat="54.450736" lon="-3.225701"><ele>836</ele><time>2022-03-29T11:07:33Z</time><name>PT2020</name></trkpt>
<trkpt lat="54.450741" lon="-3.225709"><ele>836</ele><time>2022-03-29T11:07:36Z</time><name>PT2021</name></trkpt>
<trkpt lat="54.450740" lon="-3.225744"><ele>836</ele><time>2022-03-29T11:07:39Z</time><name>PT2022</name></trkpt>
<trkpt lat="54.450741" lon="-3.225780"><ele>835</ele><time>2022-03-29T11:07:42Z</time><name>PT2023</name></trkpt>
<trkpt lat="54.450720" lon="-3.225838"><ele>835</ele><time>2022-03-29T11:07:46Z</time><name>PT2024</name></trkpt>
<trkpt lat="54.450707" lon="-3.225872"><ele>835</ele><time>2022-03-29T11:07:49Z</time><name>PT2025</name></trkpt>
<trkpt lat="54.450701" lon="-3.225911"><ele>836</ele><time>2022-03-29T11:07:53Z</time><name>PT2026</name></trkpt>
<trkpt lat="54.450691" lon="-3.225949"><ele>836</ele><time>2022-03-29T11:07:57Z</time><name>PT2027</name></trkpt>
<trkpt lat="54.450687" lon="-3.225989"><ele>836</ele><time>2022-03-29T11:08:01Z</time><name>PT2028</name></trkpt>
<trkpt lat="54.450687" lon="-3.226006"><ele>836</ele><time>2022-03-29T11:08:04Z</time><name>PT2029</name></trkpt>
<trkpt lat="54.450686" lon="-3.226006"><ele>836</ele><time>2022-03-29T11:08:08Z</time><name>PT2030</name></trkpt>
<trkpt lat="54.450673" lon="-3.226046"><ele>835</ele><time>2022-03-29T11:08:12Z</time><name>PT2031</name></trkpt>
<trkpt lat="54.450675" lon="-3.226073"><ele>835</ele><time>2022-03-29T11:08:16Z</time><name>PT2032</name></trkpt>
<trkpt lat="54.450671" lon="-3.226073"><ele>835</ele><time>2022-03-29T11:08:20Z</time><name>PT2033</name></trkpt>
<trkpt lat="54.450669" lon="-3.226072"><ele>835</ele><time>2022-03-29T11:08:27Z</time><name>PT2034</name></trkpt>
<trkpt lat="54.450662" lon="-3.226066"><ele>834</ele><time>2022-03-29T11:08:35Z</time><name>PT2035</name></trkpt>
<trkpt lat="54.450659" lon="-3.226059"><ele>834</ele><time>2022-03-29T11:08:39Z</time><name>PT2036</name></trkpt>
<trkpt lat="54.450657" lon="-3.226057"><ele>834</ele><time>2022-03-29T11:08:49Z</time><name>PT2037</name></trkpt>
<trkpt lat="54.450661" lon="-3.226063"><ele>834</ele><time>2022-03-29T11:09:31Z</time><name>PT2038</name></trkpt>
<trkpt lat="54.450661" lon="-3.226088"><ele>834</ele><time>2022-03-29T11:09:35Z</time><name>PT2039</name></trkpt>
<trkpt lat="54.450662" lon="-3.226096"><ele>834</ele><time>2022-03-29T11:09:39Z</time><name>PT2040</name></trkpt>
<trkpt lat="54.450656" lon="-3.226085"><ele>834</ele><time>2022-03-29T11:09:42Z</time><name>PT2041</name></trkpt>
<trkpt lat="54.450653" lon="-3.226089"><ele>834</ele><time>2022-03-29T11:09:44Z</time><name>PT2042</name></trkpt>
<trkpt lat="54.450654" lon="-3.226087"><ele>833</ele><time>2022-03-29T11:09:48Z</time><name>PT2043</name></trkpt>
<trkpt lat="54.450658" lon="-3.226096"><ele>833</ele><time>2022-03-29T11:09:49Z</time><name>PT2044</name></trkpt>
<trkpt lat="54.450665" lon="-3.226111"><ele>833</ele><time>2022-03-29T11:09:50Z</time><name>PT2045</name></trkpt>
<trkpt lat="54.450666" lon="-3.226135"><ele>833</ele><time>2022-03-29T11:09:51Z</time><name>PT2046</name></trkpt>
<trkpt lat="54.450667" lon="-3.226160"><ele>832</ele><time>2022-03-29T11:09:52Z</time><name>PT2047</name></trkpt>
<trkpt lat="54.450669" lon="-3.226171"><ele>832</ele><time>2022-03-29T11:09:53Z</time><name>PT2048</name></trkpt>
<trkpt lat="54.450672" lon="-3.226186"><ele>833</ele><time>2022-03-29T11:09:54Z</time><name>PT2049</name></trkpt>
<trkpt lat="54.450674" lon="-3.226206"><ele>833</ele><time>2022-03-29T11:09:55Z</time><name>PT2050</name></trkpt>
<trkpt lat="54.450670" lon="-3.226221"><ele>833</ele><time>2022-03-29T11:09:56Z</time><name>PT2051</name></trkpt>
<trkpt lat="54.450665" lon="-3.226235"><ele>833</ele><time>2022-03-29T11:09:57Z</time><name>PT2052</name></trkpt>
<trkpt lat="54.450664" lon="-3.226248"><ele>833</ele><time>2022-03-29T11:09:58Z</time><name>PT2053</name></trkpt>
<trkpt lat="54.450663" lon="-3.226262"><ele>833</ele><time>2022-03-29T11:09:59Z</time><name>PT2054</name></trkpt>
<trkpt lat="54.450657" lon="-3.226278"><ele>832</ele><time>2022-03-29T11:10:00Z</time><name>PT2055</name></trkpt>
<trkpt lat="54.450652" lon="-3.226295"><ele>832</ele><time>2022-03-29T11:10:01Z</time><name>PT2056</name></trkpt>
<trkpt lat="54.450646" lon="-3.226311"><ele>832</ele><time>2022-03-29T11:10:02Z</time><name>PT2057</name></trkpt>
<trkpt lat="54.450640" lon="-3.226329"><ele>832</ele><time>2022-03-29T11:10:03Z</time><name>PT2058</name></trkpt>
<trkpt lat="54.450635" lon="-3.226344"><ele>832</ele><time>2022-03-29T11:10:04Z</time><name>PT2059</name></trkpt>
<trkpt lat="54.450630" lon="-3.226358"><ele>832</ele><time>2022-03-29T11:10:05Z</time><name>PT2060</name></trkpt>
<trkpt lat="54.450629" lon="-3.226375"><ele>831</ele><time>2022-03-29T11:10:06Z</time><name>PT2061</name></trkpt>
<trkpt lat="54.450629" lon="-3.226391"><ele>831</ele><time>2022-03-29T11:10:07Z</time><name>PT2062</name></trkpt>
<trkpt lat="54.450627" lon="-3.226409"><ele>831</ele><time>2022-03-29T11:10:08Z</time><name>PT2063</name></trkpt>
<trkpt lat="54.450624" lon="-3.226430"><ele>832</ele><time>2022-03-29T11:10:09Z</time><name>PT2064</name></trkpt>
<trkpt lat="54.450618" lon="-3.226444"><ele>832</ele><time>2022-03-29T11:10:10Z</time><name>PT2065</name></trkpt>
<trkpt lat="54.450610" lon="-3.226458"><ele>831</ele><time>2022-03-29T11:10:11Z</time><name>PT2066</name></trkpt>
<trkpt lat="54.450609" lon="-3.226472"><ele>832</ele><time>2022-03-29T11:10:12Z</time><name>PT2067</name></trkpt>
<trkpt lat="54.450605" lon="-3.226483"><ele>831</ele><time>2022-03-29T11:10:13Z</time><name>PT2068</name></trkpt>
<trkpt lat="54.450598" lon="-3.226492"><ele>831</ele><time>2022-03-29T11:10:14Z</time><name>PT2069</name></trkpt>
<trkpt lat="54.450596" lon="-3.226502"><ele>831</ele><time>2022-03-29T11:10:15Z</time><name>PT2070</name></trkpt>
<trkpt lat="54.450596" lon="-3.226511"><ele>831</ele><time>2022-03-29T11:10:16Z</time><name>PT2071</name></trkpt>
<trkpt lat="54.450599" lon="-3.226528"><ele>831</ele><time>2022-03-29T11:10:17Z</time><name>PT2072</name></trkpt>
<trkpt lat="54.450601" lon="-3.226549"><ele>831</ele><time>2022-03-29T11:10:18Z</time><name>PT2073</name></trkpt>
<trkpt lat="54.450599" lon="-3.226562"><ele>831</ele><time>2022-03-29T11:10:19Z</time><name>PT2074</name></trkpt>
<trkpt lat="54.450598" lon="-3.226570"><ele>831</ele><time>2022-03-29T11:10:20Z</time><name>PT2075</name></trkpt>
<trkpt lat="54.450598" lon="-3.226581"><ele>832</ele><time>2022-03-29T11:10:21Z</time><name>PT2076</name></trkpt>
<trkpt lat="54.450592" lon="-3.226586"><ele>832</ele><time>2022-03-29T11:10:22Z</time><name>PT2077</name></trkpt>
<trkpt lat="54.450587" lon="-3.226592"><ele>832</ele><time>2022-03-29T11:10:23Z</time><name>PT2078</name></trkpt>
<trkpt lat="54.450586" lon="-3.226598"><ele>832</ele><time>2022-03-29T11:10:24Z</time><name>PT2079</name></trkpt>
<trkpt lat="54.450584" lon="-3.226602"><ele>832</ele><time>2022-03-29T11:10:25Z</time><name>PT2080</name></trkpt>
<trkpt lat="54.450584" lon="-3.226609"><ele>833</ele><time>2022-03-29T11:10:26Z</time><name>PT2081</name></trkpt>
<trkpt lat="54.450582" lon="-3.226614"><ele>833</ele><time>2022-03-29T11:10:27Z</time><name>PT2082</name></trkpt>
<trkpt lat="54.450579" lon="-3.226619"><ele>833</ele><time>2022-03-29T11:10:28Z</time><name>PT2083</name></trkpt>
<trkpt lat="54.450577" lon="-3.226621"><ele>833</ele><time>2022-03-29T11:10:29Z</time><name>PT2084</name></trkpt>
<trkpt lat="54.450576" lon="-3.226625"><ele>833</ele><time>2022-03-29T11:10:30Z</time><name>PT2085</name></trkpt>
<trkpt lat="54.450578" lon="-3.226634"><ele>834</ele><time>2022-03-29T11:10:31Z</time><name>PT2086</name></trkpt>
<trkpt lat="54.450578" lon="-3.226646"><ele>834</ele><time>2022-03-29T11:10:32Z</time><name>PT2087</name></trkpt>
<trkpt lat="54.450578" lon="-3.226657"><ele>834</ele><time>2022-03-29T11:10:33Z</time><name>PT2088</name></trkpt>
<trkpt lat="54.450577" lon="-3.226662"><ele>834</ele><time>2022-03-29T11:10:34Z</time><name>PT2089</name></trkpt>
<trkpt lat="54.450576" lon="-3.226668"><ele>835</ele><time>2022-03-29T11:10:35Z</time><name>PT2090</name></trkpt>
<trkpt lat="54.450578" lon="-3.226675"><ele>835</ele><time>2022-03-29T11:10:36Z</time><name>PT2091</name></trkpt>
<trkpt lat="54.450579" lon="-3.226683"><ele>835</ele><time>2022-03-29T11:10:37Z</time><name>PT2092</name></trkpt>
<trkpt lat="54.450580" lon="-3.226693"><ele>835</ele><time>2022-03-29T11:10:38Z</time><name>PT2093</name></trkpt>
<trkpt lat="54.450578" lon="-3.226700"><ele>835</ele><time>2022-03-29T11:10:39Z</time><name>PT2094</name></trkpt>
<trkpt lat="54.450576" lon="-3.226707"><ele>835</ele><time>2022-03-29T11:10:40Z</time><name>PT2095</name></trkpt>
<trkpt lat="54.450575" lon="-3.226712"><ele>835</ele><time>2022-03-29T11:10:41Z</time><name>PT2096</name></trkpt>
<trkpt lat="54.450574" lon="-3.226719"><ele>835</ele><time>2022-03-29T11:10:42Z</time><name>PT2097</name></trkpt>
<trkpt lat="54.450573" lon="-3.226726"><ele>836</ele><time>2022-03-29T11:10:43Z</time><name>PT2098</name></trkpt>
<trkpt lat="54.450573" lon="-3.226732"><ele>836</ele><time>2022-03-29T11:10:44Z</time><name>PT2099</name></trkpt>
<trkpt lat="54.450572" lon="-3.226738"><ele>836</ele><time>2022-03-29T11:10:45Z</time><name>PT2100</name></trkpt>
<trkpt lat="54.450570" lon="-3.226741"><ele>836</ele><time>2022-03-29T11:10:46Z</time><name>PT2101</name></trkpt>
<trkpt lat="54.450568" lon="-3.226741"><ele>836</ele><time>2022-03-29T11:10:47Z</time><name>PT2102</name></trkpt>
<trkpt lat="54.450568" lon="-3.226746"><ele>836</ele><time>2022-03-29T11:10:48Z</time><name>PT2103</name></trkpt>
<trkpt lat="54.450565" lon="-3.226751"><ele>837</ele><time>2022-03-29T11:10:49Z</time><name>PT2104</name></trkpt>
<trkpt lat="54.450563" lon="-3.226755"><ele>837</ele><time>2022-03-29T11:10:50Z</time><name>PT2105</name></trkpt>
<trkpt lat="54.450562" lon="-3.226761"><ele>837</ele><time>2022-03-29T11:10:51Z</time><name>PT2106</name></trkpt>
<trkpt lat="54.450556" lon="-3.226768"><ele>837</ele><time>2022-03-29T11:10:55Z</time><name>PT2107</name></trkpt>
<trkpt lat="54.450558" lon="-3.226778"><ele>838</ele><time>2022-03-29T11:10:56Z</time><name>PT2108</name></trkpt>
<trkpt lat="54.450557" lon="-3.226784"><ele>838</ele><time>2022-03-29T11:10:57Z</time><name>PT2109</name></trkpt>
<trkpt lat="54.450555" lon="-3.226788"><ele>838</ele><time>2022-03-29T11:10:58Z</time><name>PT2110</name></trkpt>
<trkpt lat="54.450555" lon="-3.226795"><ele>839</ele><time>2022-03-29T11:10:59Z</time><name>PT2111</name></trkpt>
<trkpt lat="54.450555" lon="-3.226801"><ele>839</ele><time>2022-03-29T11:11:00Z</time><name>PT2112</name></trkpt>
<trkpt lat="54.450555" lon="-3.226806"><ele>839</ele><time>2022-03-29T11:11:01Z</time><name>PT2113</name></trkpt>
<trkpt lat="54.450556" lon="-3.226813"><ele>839</ele><time>2022-03-29T11:11:02Z</time><name>PT2114</name></trkpt>
<trkpt lat="54.450558" lon="-3.226821"><ele>839</ele><time>2022-03-29T11:11:03Z</time><name>PT2115</name></trkpt>
<trkpt lat="54.450559" lon="-3.226826"><ele>839</ele><time>2022-03-29T11:11:04Z</time><name>PT2116</name></trkpt>
<trkpt lat="54.450561" lon="-3.226830"><ele>839</ele><time>2022-03-29T11:11:05Z</time><name>PT2117</name></trkpt>
<trkpt lat="54.450561" lon="-3.226836"><ele>840</ele><time>2022-03-29T11:11:06Z</time><name>PT2118</name></trkpt>
<trkpt lat="54.450560" lon="-3.226842"><ele>840</ele><time>2022-03-29T11:11:07Z</time><name>PT2119</name></trkpt>
<trkpt lat="54.450560" lon="-3.226844"><ele>840</ele><time>2022-03-29T11:11:08Z</time><name>PT2120</name></trkpt>
<trkpt lat="54.450559" lon="-3.226848"><ele>840</ele><time>2022-03-29T11:11:09Z</time><name>PT2121</name></trkpt>
<trkpt lat="54.450558" lon="-3.226857"><ele>840</ele><time>2022-03-29T11:11:13Z</time><name>PT2122</name></trkpt>
<trkpt lat="54.450557" lon="-3.226867"><ele>840</ele><time>2022-03-29T11:11:14Z</time><name>PT2123</name></trkpt>
<trkpt lat="54.450557" lon="-3.226871"><ele>840</ele><time>2022-03-29T11:11:15Z</time><name>PT2124</name></trkpt>
<trkpt lat="54.450558" lon="-3.226875"><ele>840</ele><time>2022-03-29T11:11:16Z</time><name>PT2125</name></trkpt>
<trkpt lat="54.450556" lon="-3.226881"><ele>840</ele><time>2022-03-29T11:11:17Z</time><name>PT2126</name></trkpt>
<trkpt lat="54.450553" lon="-3.226886"><ele>841</ele><time>2022-03-29T11:11:18Z</time><name>PT2127</name></trkpt>
<trkpt lat="54.450551" lon="-3.226887"><ele>841</ele><time>2022-03-29T11:11:19Z</time><name>PT2128</name></trkpt>
<trkpt lat="54.450550" lon="-3.226893"><ele>841</ele><time>2022-03-29T11:11:20Z</time><name>PT2129</name></trkpt>
<trkpt lat="54.450549" lon="-3.226900"><ele>841</ele><time>2022-03-29T11:11:21Z</time><name>PT2130</name></trkpt>
<trkpt lat="54.450546" lon="-3.226913"><ele>842</ele><time>2022-03-29T11:11:22Z</time><name>PT2131</name></trkpt>
<trkpt lat="54.450546" lon="-3.226923"><ele>842</ele><time>2022-03-29T11:11:23Z</time><name>PT2132</name></trkpt>
<trkpt lat="54.450544" lon="-3.226927"><ele>842</ele><time>2022-03-29T11:11:24Z</time><name>PT2133</name></trkpt>
<trkpt lat="54.450545" lon="-3.226931"><ele>842</ele><time>2022-03-29T11:11:25Z</time><name>PT2134</name></trkpt>
<trkpt lat="54.450545" lon="-3.226936"><ele>842</ele><time>2022-03-29T11:11:26Z</time><name>PT2135</name></trkpt>
<trkpt lat="54.450542" lon="-3.226941"><ele>842</ele><time>2022-03-29T11:11:30Z</time><name>PT2136</name></trkpt>
<trkpt lat="54.450541" lon="-3.226949"><ele>842</ele><time>2022-03-29T11:11:31Z</time><name>PT2137</name></trkpt>
<trkpt lat="54.450540" lon="-3.226960"><ele>842</ele><time>2022-03-29T11:11:32Z</time><name>PT2138</name></trkpt>
<trkpt lat="54.450536" lon="-3.226969"><ele>843</ele><time>2022-03-29T11:11:33Z</time><name>PT2139</name></trkpt>
<trkpt lat="54.450534" lon="-3.226977"><ele>843</ele><time>2022-03-29T11:11:34Z</time><name>PT2140</name></trkpt>
<trkpt lat="54.450531" lon="-3.226978"><ele>843</ele><time>2022-03-29T11:11:35Z</time><name>PT2141</name></trkpt>
<trkpt lat="54.450529" lon="-3.226977"><ele>843</ele><time>2022-03-29T11:11:36Z</time><name>PT2142</name></trkpt>
<trkpt lat="54.450530" lon="-3.226982"><ele>843</ele><time>2022-03-29T11:11:37Z</time><name>PT2143</name></trkpt>
<trkpt lat="54.450528" lon="-3.226987"><ele>844</ele><time>2022-03-29T11:11:38Z</time><name>PT2144</name></trkpt>
<trkpt lat="54.450527" lon="-3.226990"><ele>844</ele><time>2022-03-29T11:11:39Z</time><name>PT2145</name></trkpt>
<trkpt lat="54.450528" lon="-3.226992"><ele>844</ele><time>2022-03-29T11:11:40Z</time><name>PT2146</name></trkpt>
<trkpt lat="54.450527" lon="-3.226994"><ele>844</ele><time>2022-03-29T11:11:41Z</time><name>PT2147</name></trkpt>
<trkpt lat="54.450523" lon="-3.227014"><ele>845</ele><time>2022-03-29T11:11:47Z</time><name>PT2148</name></trkpt>
<trkpt lat="54.450526" lon="-3.227041"><ele>847</ele><time>2022-03-29T11:11:51Z</time><name>PT2149</name></trkpt>
<trkpt lat="54.450523" lon="-3.227050"><ele>847</ele><time>2022-03-29T11:11:54Z</time><name>PT2150</name></trkpt>
<trkpt lat="54.450523" lon="-3.227058"><ele>848</ele><time>2022-03-29T11:11:58Z</time><name>PT2151</name></trkpt>
<trkpt lat="54.450525" lon="-3.227071"><ele>848</ele><time>2022-03-29T11:12:01Z</time><name>PT2152</name></trkpt>
<trkpt lat="54.450528" lon="-3.227082"><ele>848</ele><time>2022-03-29T11:12:05Z</time><name>PT2153</name></trkpt>
<trkpt lat="54.450534" lon="-3.227089"><ele>849</ele><time>2022-03-29T11:12:09Z</time><name>PT2154</name></trkpt>
<trkpt lat="54.450536" lon="-3.227098"><ele>848</ele><time>2022-03-29T11:12:18Z</time><name>PT2155</name></trkpt>
<trkpt lat="54.450538" lon="-3.227106"><ele>848</ele><time>2022-03-29T11:12:22Z</time><name>PT2156</name></trkpt>
<trkpt lat="54.450549" lon="-3.227106"><ele>848</ele><time>2022-03-29T11:13:01Z</time><name>PT2157</name></trkpt>
<trkpt lat="54.450541" lon="-3.227099"><ele>849</ele><time>2022-03-29T11:13:03Z</time><name>PT2158</name></trkpt>
<trkpt lat="54.450539" lon="-3.227098"><ele>849</ele><time>2022-03-29T11:13:04Z</time><name>PT2159</name></trkpt>
<trkpt lat="54.450539" lon="-3.227098"><ele>849</ele><time>2022-03-29T11:13:05Z</time><name>PT2160</name></trkpt>
<trkpt lat="54.450538" lon="-3.227099"><ele>849</ele><time>2022-03-29T11:13:06Z</time><name>PT2161</name></trkpt>
<trkpt lat="54.450536" lon="-3.227113"><ele>850</ele><time>2022-03-29T11:13:09Z</time><name>PT2162</name></trkpt>
<trkpt lat="54.450534" lon="-3.227125"><ele>850</ele><time>2022-03-29T11:13:10Z</time><name>PT2163</name></trkpt>
<trkpt lat="54.450531" lon="-3.227126"><ele>850</ele><time>2022-03-29T11:13:20Z</time><name>PT2164</name></trkpt>
<trkpt lat="54.450529" lon="-3.227125"><ele>850</ele><time>2022-03-29T11:13:21Z</time><name>PT2165</name></trkpt>
<trkpt lat="54.450528" lon="-3.227125"><ele>850</ele><time>2022-03-29T11:13:22Z</time><name>PT2166</name></trkpt>
<trkpt lat="54.450528" lon="-3.227123"><ele>850</ele><time>2022-03-29T11:13:23Z</time><name>PT2167</name></trkpt>
<trkpt lat="54.450527" lon="-3.227122"><ele>850</ele><time>2022-03-29T11:13:24Z</time><name>PT2168</name></trkpt>
<trkpt lat="54.450530" lon="-3.227123"><ele>849</ele><time>2022-03-29T11:18:43Z</time><name>PT2169</name></trkpt>
<trkpt lat="54.450531" lon="-3.227126"><ele>849</ele><time>2022-03-29T11:18:44Z</time><name>PT2170</name></trkpt>
<trkpt lat="54.450535" lon="-3.227128"><ele>849</ele><time>2022-03-29T11:18:45Z</time><name>PT2171</name></trkpt>
<trkpt lat="54.450538" lon="-3.227123"><ele>849</ele><time>2022-03-29T11:18:55Z</time><name>PT2172</name></trkpt>
<trkpt lat="54.450532" lon="-3.227115"><ele>849</ele><time>2022-03-29T11:18:56Z</time><name>PT2173</name></trkpt>
<trkpt lat="54.450527" lon="-3.227114"><ele>849</ele><time>2022-03-29T11:18:57Z</time><name>PT2174</name></trkpt>
<trkpt lat="54.450523" lon="-3.227113"><ele>849</ele><time>2022-03-29T11:18:58Z</time><name>PT2175</name></trkpt>
<trkpt lat="54.450517" lon="-3.227111"><ele>849</ele><time>2022-03-29T11:18:59Z</time><name>PT2176</name></trkpt>
<trkpt lat="54.450514" lon="-3.227113"><ele>849</ele><time>2022-03-29T11:19:00Z</time><name>PT2177</name></trkpt>
<trkpt lat="54.450508" lon="-3.227117"><ele>849</ele><time>2022-03-29T11:19:01Z</time><name>PT2178</name></trkpt>
<trkpt lat="54.450502" lon="-3.227120"><ele>849</ele><time>2022-03-29T11:19:02Z</time><name>PT2179</name></trkpt>
<trkpt lat="54.450497" lon="-3.227122"><ele>850</ele><time>2022-03-29T11:19:03Z</time><name>PT2180</name></trkpt>
<trkpt lat="54.450492" lon="-3.227122"><ele>850</ele><time>2022-03-29T11:19:04Z</time><name>PT2181</name></trkpt>
<trkpt lat="54.450487" lon="-3.227120"><ele>850</ele><time>2022-03-29T11:19:05Z</time><name>PT2182</name></trkpt>
<trkpt lat="54.450480" lon="-3.227117"><ele>850</ele><time>2022-03-29T11:19:06Z</time><name>PT2183</name></trkpt>
<trkpt lat="54.450476" lon="-3.227111"><ele>850</ele><time>2022-03-29T11:19:07Z</time><name>PT2184</name></trkpt>
<trkpt lat="54.450474" lon="-3.227102"><ele>850</ele><time>2022-03-29T11:19:08Z</time><name>PT2185</name></trkpt>
<trkpt lat="54.450470" lon="-3.227099"><ele>851</ele><time>2022-03-29T11:19:09Z</time><name>PT2186</name></trkpt>
<trkpt lat="54.450467" lon="-3.227100"><ele>851</ele><time>2022-03-29T11:19:10Z</time><name>PT2187</name></trkpt>
<trkpt lat="54.450462" lon="-3.227100"><ele>851</ele><time>2022-03-29T11:19:11Z</time><name>PT2188</name></trkpt>
<trkpt lat="54.450457" lon="-3.227103"><ele>851</ele><time>2022-03-29T11:19:12Z</time><name>PT2189</name></trkpt>
<trkpt lat="54.450451" lon="-3.227104"><ele>852</ele><time>2022-03-29T11:19:13Z</time><name>PT2190</name></trkpt>
<trkpt lat="54.450445" lon="-3.227100"><ele>852</ele><time>2022-03-29T11:19:14Z</time><name>PT2191</name></trkpt>
<trkpt lat="54.450440" lon="-3.227095"><ele>852</ele><time>2022-03-29T11:19:15Z</time><name>PT2192</name></trkpt>
<trkpt lat="54.450434" lon="-3.227093"><ele>852</ele><time>2022-03-29T11:19:16Z</time><name>PT2193</name></trkpt>
<trkpt lat="54.450431" lon="-3.227090"><ele>853</ele><time>2022-03-29T11:19:17Z</time><name>PT2194</name></trkpt>
<trkpt lat="54.450428" lon="-3.227088"><ele>853</ele><time>2022-03-29T11:19:18Z</time><name>PT2195</name></trkpt>
<trkpt lat="54.450423" lon="-3.227082"><ele>853</ele><time>2022-03-29T11:19:19Z</time><name>PT2196</name></trkpt>
<trkpt lat="54.450417" lon="-3.227077"><ele>854</ele><time>2022-03-29T11:19:20Z</time><name>PT2197</name></trkpt>
<trkpt lat="54.450412" lon="-3.227083"><ele>854</ele><time>2022-03-29T11:19:21Z</time><name>PT2198</name></trkpt>
<trkpt lat="54.450407" lon="-3.227083"><ele>854</ele><time>2022-03-29T11:19:22Z</time><name>PT2199</name></trkpt>
<trkpt lat="54.450404" lon="-3.227081"><ele>854</ele><time>2022-03-29T11:19:23Z</time><name>PT2200</name></trkpt>
<trkpt lat="54.450401" lon="-3.227078"><ele>854</ele><time>2022-03-29T11:19:24Z</time><name>PT2201</name></trkpt>
<trkpt lat="54.450393" lon="-3.227073"><ele>855</ele><time>2022-03-29T11:19:31Z</time><name>PT2202</name></trkpt>
<trkpt lat="54.450387" lon="-3.227066"><ele>855</ele><time>2022-03-29T11:19:32Z</time><name>PT2203</name></trkpt>
<trkpt lat="54.450385" lon="-3.227053"><ele>855</ele><time>2022-03-29T11:19:33Z</time><name>PT2204</name></trkpt>
<trkpt lat="54.450381" lon="-3.227042"><ele>855</ele><time>2022-03-29T11:19:34Z</time><name>PT2205</name></trkpt>
<trkpt lat="54.450381" lon="-3.227034"><ele>856</ele><time>2022-03-29T11:19:35Z</time><name>PT2206</name></trkpt>
<trkpt lat="54.450382" lon="-3.227029"><ele>856</ele><time>2022-03-29T11:19:36Z</time><name>PT2207</name></trkpt>
<trkpt lat="54.450380" lon="-3.227023"><ele>856</ele><time>2022-03-29T11:19:37Z</time><name>PT2208</name></trkpt>
<trkpt lat="54.450377" lon="-3.227019"><ele>856</ele><time>2022-03-29T11:19:38Z</time><name>PT2209</name></trkpt>
<trkpt lat="54.450373" lon="-3.227012"><ele>856</ele><time>2022-03-29T11:19:39Z</time><name>PT2210</name></trkpt>
<trkpt lat="54.450370" lon="-3.227010"><ele>856</ele><time>2022-03-29T11:19:40Z</time><name>PT2211</name></trkpt>
<trkpt lat="54.450368" lon="-3.227001"><ele>856</ele><time>2022-03-29T11:19:41Z</time><name>PT2212</name></trkpt>
<trkpt lat="54.450365" lon="-3.226989"><ele>856</ele><time>2022-03-29T11:19:42Z</time><name>PT2213</name></trkpt>
<trkpt lat="54.450361" lon="-3.226981"><ele>857</ele><time>2022-03-29T11:19:43Z</time><name>PT2214</name></trkpt>
<trkpt lat="54.450360" lon="-3.226975"><ele>857</ele><time>2022-03-29T11:19:44Z</time><name>PT2215</name></trkpt>
<trkpt lat="54.450359" lon="-3.226970"><ele>857</ele><time>2022-03-29T11:19:45Z</time><name>PT2216</name></trkpt>
<trkpt lat="54.450357" lon="-3.226960"><ele>858</ele><time>2022-03-29T11:19:46Z</time><name>PT2217</name></trkpt>
<trkpt lat="54.450356" lon="-3.226956"><ele>858</ele><time>2022-03-29T11:19:47Z</time><name>PT2218</name></trkpt>
<trkpt lat="54.450355" lon="-3.226947"><ele>858</ele><time>2022-03-29T11:19:48Z</time><name>PT2219</name></trkpt>
<trkpt lat="54.450352" lon="-3.226942"><ele>858</ele><time>2022-03-29T11:19:49Z</time><name>PT2220</name></trkpt>
<trkpt lat="54.450349" lon="-3.226940"><ele>858</ele><time>2022-03-29T11:19:50Z</time><name>PT2221</name></trkpt>
<trkpt lat="54.450345" lon="-3.226935"><ele>858</ele><time>2022-03-29T11:19:51Z</time><name>PT2222</name></trkpt>
<trkpt lat="54.450343" lon="-3.226932"><ele>859</ele><time>2022-03-29T11:19:52Z</time><name>PT2223</name></trkpt>
<trkpt lat="54.450339" lon="-3.226931"><ele>859</ele><time>2022-03-29T11:19:53Z</time><name>PT2224</name></trkpt>
<trkpt lat="54.450334" lon="-3.226932"><ele>859</ele><time>2022-03-29T11:19:54Z</time><name>PT2225</name></trkpt>
<trkpt lat="54.450328" lon="-3.226930"><ele>859</ele><time>2022-03-29T11:19:55Z</time><name>PT2226</name></trkpt>
<trkpt lat="54.450324" lon="-3.226926"><ele>859</ele><time>2022-03-29T11:19:56Z</time><name>PT2227</name></trkpt>
<trkpt lat="54.450322" lon="-3.226919"><ele>859</ele><time>2022-03-29T11:19:57Z</time><name>PT2228</name></trkpt>
<trkpt lat="54.450320" lon="-3.226911"><ele>859</ele><time>2022-03-29T11:19:58Z</time><name>PT2229</name></trkpt>
<trkpt lat="54.450317" lon="-3.226910"><ele>860</ele><time>2022-03-29T11:19:59Z</time><name>PT2230</name></trkpt>
<trkpt lat="54.450313" lon="-3.226909"><ele>860</ele><time>2022-03-29T11:20:00Z</time><name>PT2231</name></trkpt>
<trkpt lat="54.450311" lon="-3.226906"><ele>860</ele><time>2022-03-29T11:20:01Z</time><name>PT2232</name></trkpt>
<trkpt lat="54.450306" lon="-3.226905"><ele>860</ele><time>2022-03-29T11:20:07Z</time><name>PT2233</name></trkpt>
<trkpt lat="54.450305" lon="-3.226899"><ele>860</ele><time>2022-03-29T11:20:08Z</time><name>PT2234</name></trkpt>
<trkpt lat="54.450301" lon="-3.226892"><ele>860</ele><time>2022-03-29T11:20:09Z</time><name>PT2235</name></trkpt>
<trkpt lat="54.450296" lon="-3.226884"><ele>860</ele><time>2022-03-29T11:20:10Z</time><name>PT2236</name></trkpt>
<trkpt lat="54.450292" lon="-3.226879"><ele>861</ele><time>2022-03-29T11:20:11Z</time><name>PT2237</name></trkpt>
<trkpt lat="54.450290" lon="-3.226872"><ele>861</ele><time>2022-03-29T11:20:12Z</time><name>PT2238</name></trkpt>
<trkpt lat="54.450288" lon="-3.226869"><ele>862</ele><time>2022-03-29T11:20:13Z</time><name>PT2239</name></trkpt>
<trkpt lat="54.450286" lon="-3.226863"><ele>862</ele><time>2022-03-29T11:20:14Z</time><name>PT2240</name></trkpt>
<trkpt lat="54.450285" lon="-3.226859"><ele>862</ele><time>2022-03-29T11:20:15Z</time><name>PT2241</name></trkpt>
<trkpt lat="54.450280" lon="-3.226858"><ele>863</ele><time>2022-03-29T11:20:16Z</time><name>PT2242</name></trkpt>
<trkpt lat="54.450273" lon="-3.226854"><ele>863</ele><time>2022-03-29T11:20:17Z</time><name>PT2243</name></trkpt>
<trkpt lat="54.450268" lon="-3.226846"><ele>863</ele><time>2022-03-29T11:20:18Z</time><name>PT2244</name></trkpt>
<trkpt lat="54.450266" lon="-3.226834"><ele>863</ele><time>2022-03-29T11:20:19Z</time><name>PT2245</name></trkpt>
<trkpt lat="54.450267" lon="-3.226826"><ele>863</ele><time>2022-03-29T11:20:20Z</time><name>PT2246</name></trkpt>
<trkpt lat="54.450270" lon="-3.226805"><ele>864</ele><time>2022-03-29T11:20:24Z</time><name>PT2247</name></trkpt>
<trkpt lat="54.450257" lon="-3.226789"><ele>865</ele><time>2022-03-29T11:20:28Z</time><name>PT2248</name></trkpt>
<trkpt lat="54.450246" lon="-3.226768"><ele>866</ele><time>2022-03-29T11:20:32Z</time><name>PT2249</name></trkpt>
<trkpt lat="54.450243" lon="-3.226754"><ele>867</ele><time>2022-03-29T11:20:36Z</time><name>PT2250</name></trkpt>
<trkpt lat="54.450236" lon="-3.226710"><ele>868</ele><time>2022-03-29T11:20:40Z</time><name>PT2251</name></trkpt>
<trkpt lat="54.450231" lon="-3.226677"><ele>869</ele><time>2022-03-29T11:20:44Z</time><name>PT2252</name></trkpt>
<trkpt lat="54.450230" lon="-3.226649"><ele>869</ele><time>2022-03-29T11:20:47Z</time><name>PT2253</name></trkpt>
<trkpt lat="54.450233" lon="-3.226626"><ele>870</ele><time>2022-03-29T11:20:51Z</time><name>PT2254</name></trkpt>
<trkpt lat="54.450226" lon="-3.226628"><ele>870</ele><time>2022-03-29T11:20:54Z</time><name>PT2255</name></trkpt>
<trkpt lat="54.450214" lon="-3.226631"><ele>870</ele><time>2022-03-29T11:20:57Z</time><name>PT2256</name></trkpt>
<trkpt lat="54.450213" lon="-3.226622"><ele>870</ele><time>2022-03-29T11:21:01Z</time><name>PT2257</name></trkpt>
<trkpt lat="54.450206" lon="-3.226627"><ele>871</ele><time>2022-03-29T11:21:05Z</time><name>PT2258</name></trkpt>
<trkpt lat="54.450203" lon="-3.226625"><ele>871</ele><time>2022-03-29T11:21:08Z</time><name>PT2259</name></trkpt>
<trkpt lat="54.450201" lon="-3.226627"><ele>871</ele><time>2022-03-29T11:21:12Z</time><name>PT2260</name></trkpt>
<trkpt lat="54.450191" lon="-3.226566"><ele>872</ele><time>2022-03-29T11:21:16Z</time><name>PT2261</name></trkpt>
<trkpt lat="54.450173" lon="-3.226540"><ele>873</ele><time>2022-03-29T11:21:20Z</time><name>PT2262</name></trkpt>
<trkpt lat="54.450167" lon="-3.226506"><ele>874</ele><time>2022-03-29T11:21:24Z</time><name>PT2263</name></trkpt>
<trkpt lat="54.450168" lon="-3.226500"><ele>874</ele><time>2022-03-29T11:21:28Z</time><name>PT2264</name></trkpt>
<trkpt lat="54.450166" lon="-3.226452"><ele>874</ele><time>2022-03-29T11:21:32Z</time><name>PT2265</name></trkpt>
<trkpt lat="54.450159" lon="-3.226439"><ele>875</ele><time>2022-03-29T11:21:35Z</time><name>PT2266</name></trkpt>
<trkpt lat="54.450144" lon="-3.226440"><ele>876</ele><time>2022-03-29T11:21:39Z</time><name>PT2267</name></trkpt>
<trkpt lat="54.450132" lon="-3.226440"><ele>876</ele><time>2022-03-29T11:21:42Z</time><name>PT2268</name></trkpt>
<trkpt lat="54.450121" lon="-3.226429"><ele>877</ele><time>2022-03-29T11:21:45Z</time><name>PT2269</name></trkpt>
<trkpt lat="54.450118" lon="-3.226421"><ele>877</ele><time>2022-03-29T11:21:49Z</time><name>PT2270</name></trkpt>
<trkpt lat="54.450127" lon="-3.226394"><ele>878</ele><time>2022-03-29T11:21:53Z</time><name>PT2271</name></trkpt>
<trkpt lat="54.450126" lon="-3.226351"><ele>878</ele><time>2022-03-29T11:21:57Z</time><name>PT2272</name></trkpt>
<trkpt lat="54.450131" lon="-3.226337"><ele>878</ele><time>2022-03-29T11:22:00Z</time><name>PT2273</name></trkpt>
<trkpt lat="54.450135" lon="-3.226316"><ele>879</ele><time>2022-03-29T11:22:04Z</time><name>PT2274</name></trkpt>
<trkpt lat="54.450141" lon="-3.226285"><ele>879</ele><time>2022-03-29T11:22:08Z</time><name>PT2275</name></trkpt>
<trkpt lat="54.450143" lon="-3.226269"><ele>880</ele><time>2022-03-29T11:22:11Z</time><name>PT2276</name></trkpt>
<trkpt lat="54.450150" lon="-3.226251"><ele>880</ele><time>2022-03-29T11:22:14Z</time><name>PT2277</name></trkpt>
<trkpt lat="54.450139" lon="-3.226239"><ele>881</ele><time>2022-03-29T11:22:18Z</time><name>PT2278</name></trkpt>
<trkpt lat="54.450130" lon="-3.226222"><ele>882</ele><time>2022-03-29T11:22:21Z</time><name>PT2279</name></trkpt>
<trkpt lat="54.450117" lon="-3.226201"><ele>883</ele><time>2022-03-29T11:22:24Z</time><name>PT2280</name></trkpt>
<trkpt lat="54.450109" lon="-3.226184"><ele>883</ele><time>2022-03-29T11:22:28Z</time><name>PT2281</name></trkpt>
<trkpt lat="54.450110" lon="-3.226159"><ele>884</ele><time>2022-03-29T11:22:32Z</time><name>PT2282</name></trkpt>
<trkpt lat="54.450105" lon="-3.226146"><ele>885</ele><time>2022-03-29T11:22:35Z</time><name>PT2283</name></trkpt>
<trkpt lat="54.450098" lon="-3.226118"><ele>886</ele><time>2022-03-29T11:22:39Z</time><name>PT2284</name></trkpt>
<trkpt lat="54.450099" lon="-3.226082"><ele>887</ele><time>2022-03-29T11:22:43Z</time><name>PT2285</name></trkpt>
<trkpt lat="54.450102" lon="-3.226060"><ele>888</ele><time>2022-03-29T11:22:46Z</time><name>PT2286</name></trkpt>
<trkpt lat="54.450112" lon="-3.226037"><ele>889</ele><time>2022-03-29T11:22:50Z</time><name>PT2287</name></trkpt>
<trkpt lat="54.450114" lon="-3.226013"><ele>890</ele><time>2022-03-29T11:22:53Z</time><name>PT2288</name></trkpt>
<trkpt lat="54.450114" lon="-3.225977"><ele>891</ele><time>2022-03-29T11:22:57Z</time><name>PT2289</name></trkpt>
<trkpt lat="54.450106" lon="-3.225941"><ele>891</ele><time>2022-03-29T11:23:01Z</time><name>PT2290</name></trkpt>
<trkpt lat="54.450091" lon="-3.225919"><ele>891</ele><time>2022-03-29T11:23:05Z</time><name>PT2291</name></trkpt>
<trkpt lat="54.450086" lon="-3.225910"><ele>890</ele><time>2022-03-29T11:23:09Z</time><name>PT2292</name></trkpt>
<trkpt lat="54.450082" lon="-3.225887"><ele>891</ele><time>2022-03-29T11:23:16Z</time><name>PT2293</name></trkpt>
<trkpt lat="54.450075" lon="-3.225844"><ele>892</ele><time>2022-03-29T11:23:20Z</time><name>PT2294</name></trkpt>
<trkpt lat="54.450074" lon="-3.225801"><ele>892</ele><time>2022-03-29T11:23:24Z</time><name>PT2295</name></trkpt>
<trkpt lat="54.450077" lon="-3.225773"><ele>893</ele><time>2022-03-29T11:23:27Z</time><name>PT2296</name></trkpt>
<trkpt lat="54.450080" lon="-3.225750"><ele>894</ele><time>2022-03-29T11:23:31Z</time><name>PT2297</name></trkpt>
<trkpt lat="54.450085" lon="-3.225724"><ele>894</ele><time>2022-03-29T11:23:35Z</time><name>PT2298</name></trkpt>
<trkpt lat="54.450094" lon="-3.225697"><ele>895</ele><time>2022-03-29T11:23:38Z</time><name>PT2299</name></trkpt>
<trkpt lat="54.450113" lon="-3.225681"><ele>895</ele><time>2022-03-29T11:23:42Z</time><name>PT2300</name></trkpt>
<trkpt lat="54.450120" lon="-3.225660"><ele>897</ele><time>2022-03-29T11:23:46Z</time><name>PT2301</name></trkpt>
<trkpt lat="54.450125" lon="-3.225642"><ele>897</ele><time>2022-03-29T11:23:49Z</time><name>PT2302</name></trkpt>
<trkpt lat="54.450122" lon="-3.225616"><ele>898</ele><time>2022-03-29T11:23:52Z</time><name>PT2303</name></trkpt>
<trkpt lat="54.450128" lon="-3.225599"><ele>898</ele><time>2022-03-29T11:23:56Z</time><name>PT2304</name></trkpt>
<trkpt lat="54.450131" lon="-3.225583"><ele>899</ele><time>2022-03-29T11:23:59Z</time><name>PT2305</name></trkpt>
<trkpt lat="54.450134" lon="-3.225566"><ele>899</ele><time>2022-03-29T11:24:02Z</time><name>PT2306</name></trkpt>
<trkpt lat="54.450136" lon="-3.225559"><ele>899</ele><time>2022-03-29T11:24:06Z</time><name>PT2307</name></trkpt>
<trkpt lat="54.450133" lon="-3.225551"><ele>899</ele><time>2022-03-29T11:24:10Z</time><name>PT2308</name></trkpt>
<trkpt lat="54.450126" lon="-3.225556"><ele>900</ele><time>2022-03-29T11:24:14Z</time><name>PT2309</name></trkpt>
<trkpt lat="54.450118" lon="-3.225558"><ele>901</ele><time>2022-03-29T11:24:17Z</time><name>PT2310</name></trkpt>
<trkpt lat="54.450099" lon="-3.225547"><ele>901</ele><time>2022-03-29T11:24:21Z</time><name>PT2311</name></trkpt>
<trkpt lat="54.450084" lon="-3.225529"><ele>901</ele><time>2022-03-29T11:24:24Z</time><name>PT2312</name></trkpt>
<trkpt lat="54.450079" lon="-3.225510"><ele>902</ele><time>2022-03-29T11:24:28Z</time><name>PT2313</name></trkpt>
<trkpt lat="54.450071" lon="-3.225486"><ele>902</ele><time>2022-03-29T11:24:31Z</time><name>PT2314</name></trkpt>
<trkpt lat="54.450069" lon="-3.225452"><ele>903</ele><time>2022-03-29T11:24:35Z</time><name>PT2315</name></trkpt>
<trkpt lat="54.450055" lon="-3.225429"><ele>904</ele><time>2022-03-29T11:24:38Z</time><name>PT2316</name></trkpt>
<trkpt lat="54.450039" lon="-3.225425"><ele>905</ele><time>2022-03-29T11:24:41Z</time><name>PT2317</name></trkpt>
<trkpt lat="54.450020" lon="-3.225413"><ele>905</ele><time>2022-03-29T11:24:45Z</time><name>PT2318</name></trkpt>
<trkpt lat="54.450009" lon="-3.225404"><ele>905</ele><time>2022-03-29T11:24:48Z</time><name>PT2319</name></trkpt>
<trkpt lat="54.449995" lon="-3.225396"><ele>906</ele><time>2022-03-29T11:24:51Z</time><name>PT2320</name></trkpt>
<trkpt lat="54.449981" lon="-3.225393"><ele>907</ele><time>2022-03-29T11:24:54Z</time><name>PT2321</name></trkpt>
<trkpt lat="54.449959" lon="-3.225379"><ele>908</ele><time>2022-03-29T11:24:58Z</time><name>PT2322</name></trkpt>
<trkpt lat="54.449940" lon="-3.225351"><ele>908</ele><time>2022-03-29T11:25:02Z</time><name>PT2323</name></trkpt>
<trkpt lat="54.449932" lon="-3.225336"><ele>908</ele><time>2022-03-29T11:25:05Z</time><name>PT2324</name></trkpt>
<trkpt lat="54.449914" lon="-3.225313"><ele>908</ele><time>2022-03-29T11:25:09Z</time><name>PT2325</name></trkpt>
<trkpt lat="54.449896" lon="-3.225305"><ele>908</ele><time>2022-03-29T11:25:12Z</time><name>PT2326</name></trkpt>
<trkpt lat="54.449861" lon="-3.225300"><ele>908</ele><time>2022-03-29T11:25:16Z</time><name>PT2327</name></trkpt>
<trkpt lat="54.449847" lon="-3.225276"><ele>909</ele><time>2022-03-29T11:25:19Z</time><name>PT2328</name></trkpt>
<trkpt lat="54.449821" lon="-3.225263"><ele>910</ele><time>2022-03-29T11:25:23Z</time><name>PT2329</name></trkpt>
<trkpt lat="54.449800" lon="-3.225241"><ele>910</ele><time>2022-03-29T11:25:27Z</time><name>PT2330</name></trkpt>
<trkpt lat="54.449797" lon="-3.225209"><ele>910</ele><time>2022-03-29T11:25:30Z</time><name>PT2331</name></trkpt>
<trkpt lat="54.449795" lon="-3.225184"><ele>911</ele><time>2022-03-29T11:25:33Z</time><name>PT2332</name></trkpt>
<trkpt lat="54.449780" lon="-3.225165"><ele>912</ele><time>2022-03-29T11:25:37Z</time><name>PT2333</name></trkpt>
<trkpt lat="54.449769" lon="-3.225143"><ele>913</ele><time>2022-03-29T11:25:41Z</time><name>PT2334</name></trkpt>
<trkpt lat="54.449756" lon="-3.225131"><ele>913</ele><time>2022-03-29T11:25:44Z</time><name>PT2335</name></trkpt>
<trkpt lat="54.449746" lon="-3.225111"><ele>913</ele><time>2022-03-29T11:25:47Z</time><name>PT2336</name></trkpt>
<trkpt lat="54.449751" lon="-3.225091"><ele>913</ele><time>2022-03-29T11:25:51Z</time><name>PT2337</name></trkpt>
<trkpt lat="54.449752" lon="-3.225072"><ele>914</ele><time>2022-03-29T11:25:55Z</time><name>PT2338</name></trkpt>
<trkpt lat="54.449747" lon="-3.225058"><ele>914</ele><time>2022-03-29T11:25:59Z</time><name>PT2339</name></trkpt>
<trkpt lat="54.449719" lon="-3.225059"><ele>915</ele><time>2022-03-29T11:26:03Z</time><name>PT2340</name></trkpt>
<trkpt lat="54.449700" lon="-3.225048"><ele>916</ele><time>2022-03-29T11:26:06Z</time><name>PT2341</name></trkpt>
<trkpt lat="54.449676" lon="-3.225040"><ele>916</ele><time>2022-03-29T11:26:10Z</time><name>PT2342</name></trkpt>
<trkpt lat="54.449652" lon="-3.225025"><ele>917</ele><time>2022-03-29T11:26:14Z</time><name>PT2343</name></trkpt>
<trkpt lat="54.449644" lon="-3.224990"><ele>917</ele><time>2022-03-29T11:26:18Z</time><name>PT2344</name></trkpt>
<trkpt lat="54.449647" lon="-3.224971"><ele>918</ele><time>2022-03-29T11:26:21Z</time><name>PT2345</name></trkpt>
<trkpt lat="54.449640" lon="-3.224949"><ele>918</ele><time>2022-03-29T11:26:24Z</time><name>PT2346</name></trkpt>
<trkpt lat="54.449634" lon="-3.224935"><ele>918</ele><time>2022-03-29T11:26:28Z</time><name>PT2347</name></trkpt>
<trkpt lat="54.449633" lon="-3.224925"><ele>919</ele><time>2022-03-29T11:26:31Z</time><name>PT2348</name></trkpt>
<trkpt lat="54.449619" lon="-3.224899"><ele>920</ele><time>2022-03-29T11:26:35Z</time><name>PT2349</name></trkpt>
<trkpt lat="54.449608" lon="-3.224857"><ele>921</ele><time>2022-03-29T11:26:39Z</time><name>PT2350</name></trkpt>
<trkpt lat="54.449586" lon="-3.224840"><ele>921</ele><time>2022-03-29T11:26:43Z</time><name>PT2351</name></trkpt>
<trkpt lat="54.449569" lon="-3.224833"><ele>922</ele><time>2022-03-29T11:26:47Z</time><name>PT2352</name></trkpt>
<trkpt lat="54.449563" lon="-3.224813"><ele>923</ele><time>2022-03-29T11:26:50Z</time><name>PT2353</name></trkpt>
<trkpt lat="54.449558" lon="-3.224794"><ele>924</ele><time>2022-03-29T11:26:53Z</time><name>PT2354</name></trkpt>
<trkpt lat="54.449543" lon="-3.224781"><ele>924</ele><time>2022-03-29T11:26:57Z</time><name>PT2355</name></trkpt>
<trkpt lat="54.449530" lon="-3.224758"><ele>924</ele><time>2022-03-29T11:27:00Z</time><name>PT2356</name></trkpt>
<trkpt lat="54.449517" lon="-3.224724"><ele>925</ele><time>2022-03-29T11:27:04Z</time><name>PT2357</name></trkpt>
<trkpt lat="54.449500" lon="-3.224713"><ele>926</ele><time>2022-03-29T11:27:07Z</time><name>PT2358</name></trkpt>
<trkpt lat="54.449486" lon="-3.224710"><ele>926</ele><time>2022-03-29T11:27:10Z</time><name>PT2359</name></trkpt>
<trkpt lat="54.449465" lon="-3.224680"><ele>926</ele><time>2022-03-29T11:27:14Z</time><name>PT2360</name></trkpt>
<trkpt lat="54.449465" lon="-3.224647"><ele>927</ele><time>2022-03-29T11:27:17Z</time><name>PT2361</name></trkpt>
<trkpt lat="54.449455" lon="-3.224623"><ele>927</ele><time>2022-03-29T11:27:20Z</time><name>PT2362</name></trkpt>
<trkpt lat="54.449432" lon="-3.224620"><ele>928</ele><time>2022-03-29T11:27:24Z</time><name>PT2363</name></trkpt>
<trkpt lat="54.449416" lon="-3.224604"><ele>928</ele><time>2022-03-29T11:27:27Z</time><name>PT2364</name></trkpt>
<trkpt lat="54.449412" lon="-3.224575"><ele>929</ele><time>2022-03-29T11:27:31Z</time><name>PT2365</name></trkpt>
<trkpt lat="54.449407" lon="-3.224538"><ele>930</ele><time>2022-03-29T11:27:35Z</time><name>PT2366</name></trkpt>
<trkpt lat="54.449414" lon="-3.224510"><ele>930</ele><time>2022-03-29T11:27:38Z</time><name>PT2367</name></trkpt>
<trkpt lat="54.449413" lon="-3.224483"><ele>931</ele><time>2022-03-29T11:27:42Z</time><name>PT2368</name></trkpt>
<trkpt lat="54.449396" lon="-3.224474"><ele>932</ele><time>2022-03-29T11:27:45Z</time><name>PT2369</name></trkpt>
<trkpt lat="54.449387" lon="-3.224449"><ele>932</ele><time>2022-03-29T11:27:48Z</time><name>PT2370</name></trkpt>
<trkpt lat="54.449379" lon="-3.224432"><ele>933</ele><time>2022-03-29T11:27:51Z</time><name>PT2371</name></trkpt>
<trkpt lat="54.449361" lon="-3.224413"><ele>933</ele><time>2022-03-29T11:27:55Z</time><name>PT2372</name></trkpt>
<trkpt lat="54.449359" lon="-3.224362"><ele>934</ele><time>2022-03-29T11:27:59Z</time><name>PT2373</name></trkpt>
<trkpt lat="54.449350" lon="-3.224335"><ele>935</ele><time>2022-03-29T11:28:02Z</time><name>PT2374</name></trkpt>
<trkpt lat="54.449333" lon="-3.224304"><ele>936</ele><time>2022-03-29T11:28:06Z</time><name>PT2375</name></trkpt>
<trkpt lat="54.449316" lon="-3.224284"><ele>936</ele><time>2022-03-29T11:28:09Z</time><name>PT2376</name></trkpt>
<trkpt lat="54.449305" lon="-3.224256"><ele>937</ele><time>2022-03-29T11:28:12Z</time><name>PT2377</name></trkpt>
<trkpt lat="54.449290" lon="-3.224224"><ele>937</ele><time>2022-03-29T11:28:16Z</time><name>PT2378</name></trkpt>
<trkpt lat="54.449276" lon="-3.224184"><ele>938</ele><time>2022-03-29T11:28:20Z</time><name>PT2379</name></trkpt>
<trkpt lat="54.449268" lon="-3.224152"><ele>939</ele><time>2022-03-29T11:28:23Z</time><name>PT2380</name></trkpt>
<trkpt lat="54.449259" lon="-3.224120"><ele>939</ele><time>2022-03-29T11:28:26Z</time><name>PT2381</name></trkpt>
<trkpt lat="54.449249" lon="-3.224085"><ele>940</ele><time>2022-03-29T11:28:29Z</time><name>PT2382</name></trkpt>
<trkpt lat="54.449237" lon="-3.224034"><ele>941</ele><time>2022-03-29T11:28:33Z</time><name>PT2383</name></trkpt>
<trkpt lat="54.449231" lon="-3.223972"><ele>941</ele><time>2022-03-29T11:28:37Z</time><name>PT2384</name></trkpt>
<trkpt lat="54.449223" lon="-3.223932"><ele>942</ele><time>2022-03-29T11:28:40Z</time><name>PT2385</name></trkpt>
<trkpt lat="54.449206" lon="-3.223872"><ele>942</ele><time>2022-03-29T11:28:44Z</time><name>PT2386</name></trkpt>
<trkpt lat="54.449194" lon="-3.223812"><ele>942</ele><time>2022-03-29T11:28:48Z</time><name>PT2387</name></trkpt>
<trkpt lat="54.449179" lon="-3.223755"><ele>942</ele><time>2022-03-29T11:28:52Z</time><name>PT2388</name></trkpt>
<trkpt lat="54.449173" lon="-3.223712"><ele>942</ele><time>2022-03-29T11:28:56Z</time><name>PT2389</name></trkpt>
<trkpt lat="54.449177" lon="-3.223699"><ele>942</ele><time>2022-03-29T11:28:59Z</time><name>PT2390</name></trkpt>
<trkpt lat="54.449172" lon="-3.223701"><ele>942</ele><time>2022-03-29T11:29:02Z</time><name>PT2391</name></trkpt>
<trkpt lat="54.449171" lon="-3.223704"><ele>942</ele><time>2022-03-29T11:29:03Z</time><name>PT2392</name></trkpt>
<trkpt lat="54.449173" lon="-3.223705"><ele>942</ele><time>2022-03-29T11:29:04Z</time><name>PT2393</name></trkpt>
<trkpt lat="54.449172" lon="-3.223707"><ele>943</ele><time>2022-03-29T11:29:05Z</time><name>PT2394</name></trkpt>
<trkpt lat="54.449175" lon="-3.223710"><ele>942</ele><time>2022-03-29T11:29:10Z</time><name>PT2395</name></trkpt>
<trkpt lat="54.449175" lon="-3.223709"><ele>943</ele><time>2022-03-29T11:29:11Z</time><name>PT2396</name></trkpt>
<trkpt lat="54.449175" lon="-3.223707"><ele>943</ele><time>2022-03-29T11:29:12Z</time><name>PT2397</name></trkpt>
<trkpt lat="54.449174" lon="-3.223710"><ele>943</ele><time>2022-03-29T11:29:13Z</time><name>PT2398</name></trkpt>
<trkpt lat="54.449177" lon="-3.223708"><ele>943</ele><time>2022-03-29T11:29:14Z</time><name>PT2399</name></trkpt>
<trkpt lat="54.449176" lon="-3.223709"><ele>943</ele><time>2022-03-29T11:29:15Z</time><name>PT2400</name></trkpt>
<trkpt lat="54.449185" lon="-3.223703"><ele>942</ele><time>2022-03-29T11:29:22Z</time><name>PT2401</name></trkpt>
<trkpt lat="54.449181" lon="-3.223703"><ele>942</ele><time>2022-03-29T11:29:23Z</time><name>PT2402</name></trkpt>
<trkpt lat="54.449178" lon="-3.223692"><ele>942</ele><time>2022-03-29T11:29:24Z</time><name>PT2403</name></trkpt>
<trkpt lat="54.449178" lon="-3.223689"><ele>942</ele><time>2022-03-29T11:29:25Z</time><name>PT2404</name></trkpt>
<trkpt lat="54.449178" lon="-3.223692"><ele>942</ele><time>2022-03-29T11:29:26Z</time><name>PT2405</name></trkpt>
<trkpt lat="54.449174" lon="-3.223689"><ele>942</ele><time>2022-03-29T11:29:32Z</time><name>PT2406</name></trkpt>
<trkpt lat="54.449174" lon="-3.223689"><ele>942</ele><time>2022-03-29T11:29:33Z</time><name>PT2407</name></trkpt>
<trkpt lat="54.449173" lon="-3.223688"><ele>942</ele><time>2022-03-29T11:29:34Z</time><name>PT2408</name></trkpt>
<trkpt lat="54.449181" lon="-3.223686"><ele>943</ele><time>2022-03-29T11:29:36Z</time><name>PT2409</name></trkpt>
<trkpt lat="54.449183" lon="-3.223682"><ele>943</ele><time>2022-03-29T11:29:37Z</time><name>PT2410</name></trkpt>
<trkpt lat="54.449180" lon="-3.223684"><ele>943</ele><time>2022-03-29T11:29:38Z</time><name>PT2411</name></trkpt>
<trkpt lat="54.449177" lon="-3.223690"><ele>943</ele><time>2022-03-29T11:29:39Z</time><name>PT2412</name></trkpt>
<trkpt lat="54.449169" lon="-3.223690"><ele>943</ele><time>2022-03-29T11:29:40Z</time><name>PT2413</name></trkpt>
<trkpt lat="54.449159" lon="-3.223692"><ele>943</ele><time>2022-03-29T11:29:41Z</time><name>PT2414</name></trkpt>
<trkpt lat="54.449154" lon="-3.223689"><ele>943</ele><time>2022-03-29T11:29:42Z</time><name>PT2415</name></trkpt>
<trkpt lat="54.449152" lon="-3.223690"><ele>943</ele><time>2022-03-29T11:29:43Z</time><name>PT2416</name></trkpt>
<trkpt lat="54.449143" lon="-3.223690"><ele>942</ele><time>2022-03-29T11:29:44Z</time><name>PT2417</name></trkpt>
<trkpt lat="54.449139" lon="-3.223691"><ele>942</ele><time>2022-03-29T11:29:45Z</time><name>PT2418</name></trkpt>
<trkpt lat="54.449136" lon="-3.223687"><ele>942</ele><time>2022-03-29T11:29:46Z</time><name>PT2419</name></trkpt>
<trkpt lat="54.449131" lon="-3.223682"><ele>942</ele><time>2022-03-29T11:29:47Z</time><name>PT2420</name></trkpt>
<trkpt lat="54.449122" lon="-3.223677"><ele>942</ele><time>2022-03-29T11:29:48Z</time><name>PT2421</name></trkpt>
<trkpt lat="54.449117" lon="-3.223670"><ele>942</ele><time>2022-03-29T11:29:49Z</time><name>PT2422</name></trkpt>
<trkpt lat="54.449112" lon="-3.223661"><ele>942</ele><time>2022-03-29T11:29:50Z</time><name>PT2423</name></trkpt>
<trkpt lat="54.449107" lon="-3.223654"><ele>942</ele><time>2022-03-29T11:29:51Z</time><name>PT2424</name></trkpt>
<trkpt lat="54.449104" lon="-3.223648"><ele>942</ele><time>2022-03-29T11:29:52Z</time><name>PT2425</name></trkpt>
<trkpt lat="54.449098" lon="-3.223642"><ele>942</ele><time>2022-03-29T11:29:53Z</time><name>PT2426</name></trkpt>
<trkpt lat="54.449090" lon="-3.223642"><ele>942</ele><time>2022-03-29T11:29:54Z</time><name>PT2427</name></trkpt>
<trkpt lat="54.449083" lon="-3.223641"><ele>942</ele><time>2022-03-29T11:29:55Z</time><name>PT2428</name></trkpt>
<trkpt lat="54.449075" lon="-3.223638"><ele>942</ele><time>2022-03-29T11:29:56Z</time><name>PT2429</name></trkpt>
<trkpt lat="54.449065" lon="-3.223634"><ele>942</ele><time>2022-03-29T11:29:57Z</time><name>PT2430</name></trkpt>
<trkpt lat="54.449055" lon="-3.223629"><ele>942</ele><time>2022-03-29T11:29:58Z</time><name>PT2431</name></trkpt>
<trkpt lat="54.449046" lon="-3.223617"><ele>941</ele><time>2022-03-29T11:29:59Z</time><name>PT2432</name></trkpt>
<trkpt lat="54.449038" lon="-3.223605"><ele>941</ele><time>2022-03-29T11:30:00Z</time><name>PT2433</name></trkpt>
<trkpt lat="54.449030" lon="-3.223599"><ele>941</ele><time>2022-03-29T11:30:01Z</time><name>PT2434</name></trkpt>
<trkpt lat="54.449023" lon="-3.223591"><ele>942</ele><time>2022-03-29T11:30:02Z</time><name>PT2435</name></trkpt>
<trkpt lat="54.449014" lon="-3.223581"><ele>942</ele><time>2022-03-29T11:30:03Z</time><name>PT2436</name></trkpt>
<trkpt lat="54.449007" lon="-3.223573"><ele>942</ele><time>2022-03-29T11:30:04Z</time><name>PT2437</name></trkpt>
<trkpt lat="54.449000" lon="-3.223563"><ele>941</ele><time>2022-03-29T11:30:05Z</time><name>PT2438</name></trkpt>
<trkpt lat="54.448996" lon="-3.223551"><ele>942</ele><time>2022-03-29T11:30:06Z</time><name>PT2439</name></trkpt>
<trkpt lat="54.448989" lon="-3.223538"><ele>942</ele><time>2022-03-29T11:30:07Z</time><name>PT2440</name></trkpt>
<trkpt lat="54.448981" lon="-3.223528"><ele>942</ele><time>2022-03-29T11:30:08Z</time><name>PT2441</name></trkpt>
<trkpt lat="54.448973" lon="-3.223518"><ele>942</ele><time>2022-03-29T11:30:09Z</time><name>PT2442</name></trkpt>
<trkpt lat="54.448967" lon="-3.223506"><ele>942</ele><time>2022-03-29T11:30:10Z</time><name>PT2443</name></trkpt>
<trkpt lat="54.448961" lon="-3.223496"><ele>942</ele><time>2022-03-29T11:30:11Z</time><name>PT2444</name></trkpt>
<trkpt lat="54.448953" lon="-3.223489"><ele>942</ele><time>2022-03-29T11:30:12Z</time><name>PT2445</name></trkpt>
<trkpt lat="54.448944" lon="-3.223484"><ele>942</ele><time>2022-03-29T11:30:13Z</time><name>PT2446</name></trkpt>
<trkpt lat="54.448938" lon="-3.223483"><ele>942</ele><time>2022-03-29T11:30:14Z</time><name>PT2447</name></trkpt>
<trkpt lat="54.448930" lon="-3.223484"><ele>942</ele><time>2022-03-29T11:30:15Z</time><name>PT2448</name></trkpt>
<trkpt lat="54.448920" lon="-3.223478"><ele>942</ele><time>2022-03-29T11:30:16Z</time><name>PT2449</name></trkpt>
<trkpt lat="54.448911" lon="-3.223468"><ele>942</ele><time>2022-03-29T11:30:17Z</time><name>PT2450</name></trkpt>
<trkpt lat="54.448901" lon="-3.223456"><ele>942</ele><time>2022-03-29T11:30:18Z</time><name>PT2451</name></trkpt>
<trkpt lat="54.448892" lon="-3.223448"><ele>941</ele><time>2022-03-29T11:30:19Z</time><name>PT2452</name></trkpt>
<trkpt lat="54.448883" lon="-3.223445"><ele>941</ele><time>2022-03-29T11:30:20Z</time><name>PT2453</name></trkpt>
<trkpt lat="54.448876" lon="-3.223437"><ele>942</ele><time>2022-03-29T11:30:21Z</time><name>PT2454</name></trkpt>
<trkpt lat="54.448870" lon="-3.223432"><ele>942</ele><time>2022-03-29T11:30:22Z</time><name>PT2455</name></trkpt>
<trkpt lat="54.448860" lon="-3.223432"><ele>942</ele><time>2022-03-29T11:30:23Z</time><name>PT2456</name></trkpt>
<trkpt lat="54.448852" lon="-3.223430"><ele>942</ele><time>2022-03-29T11:30:24Z</time><name>PT2457</name></trkpt>
<trkpt lat="54.448844" lon="-3.223428"><ele>942</ele><time>2022-03-29T11:30:25Z</time><name>PT2458</name></trkpt>
<trkpt lat="54.448838" lon="-3.223432"><ele>942</ele><time>2022-03-29T11:30:26Z</time><name>PT2459</name></trkpt>
<trkpt lat="54.448833" lon="-3.223440"><ele>942</ele><time>2022-03-29T11:30:27Z</time><name>PT2460</name></trkpt>
<trkpt lat="54.448828" lon="-3.223443"><ele>943</ele><time>2022-03-29T11:30:28Z</time><name>PT2461</name></trkpt>
<trkpt lat="54.448825" lon="-3.223449"><ele>943</ele><time>2022-03-29T11:30:29Z</time><name>PT2462</name></trkpt>
<trkpt lat="54.448823" lon="-3.223462"><ele>943</ele><time>2022-03-29T11:30:30Z</time><name>PT2463</name></trkpt>
<trkpt lat="54.448818" lon="-3.223470"><ele>944</ele><time>2022-03-29T11:30:31Z</time><name>PT2464</name></trkpt>
<trkpt lat="54.448814" lon="-3.223480"><ele>944</ele><time>2022-03-29T11:30:32Z</time><name>PT2465</name></trkpt>
<trkpt lat="54.448812" lon="-3.223494"><ele>944</ele><time>2022-03-29T11:30:33Z</time><name>PT2466</name></trkpt>
<trkpt lat="54.448809" lon="-3.223505"><ele>944</ele><time>2022-03-29T11:30:34Z</time><name>PT2467</name></trkpt>
<trkpt lat="54.448807" lon="-3.223516"><ele>945</ele><time>2022-03-29T11:30:35Z</time><name>PT2468</name></trkpt>
<trkpt lat="54.448807" lon="-3.223528"><ele>945</ele><time>2022-03-29T11:30:36Z</time><name>PT2469</name></trkpt>
<trkpt lat="54.448804" lon="-3.223542"><ele>945</ele><time>2022-03-29T11:30:37Z</time><name>PT2470</name></trkpt>
<trkpt lat="54.448801" lon="-3.223554"><ele>945</ele><time>2022-03-29T11:30:38Z</time><name>PT2471</name></trkpt>
<trkpt lat="54.448797" lon="-3.223570"><ele>946</ele><time>2022-03-29T11:30:39Z</time><name>PT2472</name></trkpt>
<trkpt lat="54.448793" lon="-3.223586"><ele>946</ele><time>2022-03-29T11:30:40Z</time><name>PT2473</name></trkpt>
<trkpt lat="54.448788" lon="-3.223598"><ele>946</ele><time>2022-03-29T11:30:41Z</time><name>PT2474</name></trkpt>
<trkpt lat="54.448781" lon="-3.223612"><ele>947</ele><time>2022-03-29T11:30:42Z</time><name>PT2475</name></trkpt>
<trkpt lat="54.448775" lon="-3.223626"><ele>947</ele><time>2022-03-29T11:30:43Z</time><name>PT2476</name></trkpt>
<trkpt lat="54.448774" lon="-3.223642"><ele>947</ele><time>2022-03-29T11:30:44Z</time><name>PT2477</name></trkpt>
<trkpt lat="54.448774" lon="-3.223660"><ele>947</ele><time>2022-03-29T11:30:45Z</time><name>PT2478</name></trkpt>
<trkpt lat="54.448770" lon="-3.223678"><ele>948</ele><time>2022-03-29T11:30:46Z</time><name>PT2479</name></trkpt>
<trkpt lat="54.448766" lon="-3.223693"><ele>948</ele><time>2022-03-29T11:30:47Z</time><name>PT2480</name></trkpt>
<trkpt lat="54.448759" lon="-3.223708"><ele>948</ele><time>2022-03-29T11:30:48Z</time><name>PT2481</name></trkpt>
<trkpt lat="54.448754" lon="-3.223725"><ele>949</ele><time>2022-03-29T11:30:49Z</time><name>PT2482</name></trkpt>
<trkpt lat="54.448748" lon="-3.223743"><ele>948</ele><time>2022-03-29T11:30:50Z</time><name>PT2483</name></trkpt>
<trkpt lat="54.448742" lon="-3.223759"><ele>949</ele><time>2022-03-29T11:30:51Z</time><name>PT2484</name></trkpt>
<trkpt lat="54.448738" lon="-3.223775"><ele>949</ele><time>2022-03-29T11:30:52Z</time><name>PT2485</name></trkpt>
<trkpt lat="54.448734" lon="-3.223791"><ele>949</ele><time>2022-03-29T11:30:53Z</time><name>PT2486</name></trkpt>
<trkpt lat="54.448731" lon="-3.223808"><ele>949</ele><time>2022-03-29T11:30:54Z</time><name>PT2487</name></trkpt>
<trkpt lat="54.448726" lon="-3.223822"><ele>949</ele><time>2022-03-29T11:30:55Z</time><name>PT2488</name></trkpt>
<trkpt lat="54.448723" lon="-3.223839"><ele>949</ele><time>2022-03-29T11:30:56Z</time><name>PT2489</name></trkpt>
<trkpt lat="54.448719" lon="-3.223851"><ele>949</ele><time>2022-03-29T11:30:57Z</time><name>PT2490</name></trkpt>
<trkpt lat="54.448716" lon="-3.223868"><ele>949</ele><time>2022-03-29T11:30:58Z</time><name>PT2491</name></trkpt>
<trkpt lat="54.448711" lon="-3.223883"><ele>949</ele><time>2022-03-29T11:30:59Z</time><name>PT2492</name></trkpt>
<trkpt lat="54.448706" lon="-3.223896"><ele>949</ele><time>2022-03-29T11:31:00Z</time><name>PT2493</name></trkpt>
<trkpt lat="54.448703" lon="-3.223909"><ele>950</ele><time>2022-03-29T11:31:01Z</time><name>PT2494</name></trkpt>
<trkpt lat="54.448698" lon="-3.223924"><ele>950</ele><time>2022-03-29T11:31:02Z</time><name>PT2495</name></trkpt>
<trkpt lat="54.448675" lon="-3.223976"><ele>950</ele><time>2022-03-29T11:31:06Z</time><name>PT2496</name></trkpt>
<trkpt lat="54.448659" lon="-3.224009"><ele>949</ele><time>2022-03-29T11:31:09Z</time><name>PT2497</name></trkpt>
<trkpt lat="54.448635" lon="-3.224031"><ele>949</ele><time>2022-03-29T11:31:12Z</time><name>PT2498</name></trkpt>
<trkpt lat="54.448603" lon="-3.224059"><ele>949</ele><time>2022-03-29T11:31:16Z</time><name>PT2499</name></trkpt>
<trkpt lat="54.448579" lon="-3.224081"><ele>949</ele><time>2022-03-29T11:31:19Z</time><name>PT2500</name></trkpt>
<trkpt lat="54.448552" lon="-3.224101"><ele>950</ele><time>2022-03-29T11:31:23Z</time><name>PT2501</name></trkpt>
<trkpt lat="54.448535" lon="-3.224102"><ele>951</ele><time>2022-03-29T11:31:26Z</time><name>PT2502</name></trkpt>
<trkpt lat="54.448513" lon="-3.224113"><ele>951</ele><time>2022-03-29T11:31:30Z</time><name>PT2503</name></trkpt>
<trkpt lat="54.448496" lon="-3.224145"><ele>952</ele><time>2022-03-29T11:31:33Z</time><name>PT2504</name></trkpt>
<trkpt lat="54.448473" lon="-3.224165"><ele>952</ele><time>2022-03-29T11:31:36Z</time><name>PT2505</name></trkpt>
<trkpt lat="54.448455" lon="-3.224172"><ele>952</ele><time>2022-03-29T11:31:39Z</time><name>PT2506</name></trkpt>
<trkpt lat="54.448438" lon="-3.224179"><ele>952</ele><time>2022-03-29T11:31:43Z</time><name>PT2507</name></trkpt>
<trkpt lat="54.448436" lon="-3.224178"><ele>952</ele><time>2022-03-29T11:31:46Z</time><name>PT2508</name></trkpt>
<trkpt lat="54.448406" lon="-3.224189"><ele>952</ele><time>2022-03-29T11:31:49Z</time><name>PT2509</name></trkpt>
<trkpt lat="54.448377" lon="-3.224188"><ele>953</ele><time>2022-03-29T11:31:52Z</time><name>PT2510</name></trkpt>
<trkpt lat="54.448352" lon="-3.224190"><ele>953</ele><time>2022-03-29T11:31:55Z</time><name>PT2511</name></trkpt>
<trkpt lat="54.448325" lon="-3.224206"><ele>953</ele><time>2022-03-29T11:31:58Z</time><name>PT2512</name></trkpt>
<trkpt lat="54.448293" lon="-3.224241"><ele>954</ele><time>2022-03-29T11:32:02Z</time><name>PT2513</name></trkpt>
<trkpt lat="54.448272" lon="-3.224270"><ele>955</ele><time>2022-03-29T11:32:05Z</time><name>PT2514</name></trkpt>
<trkpt lat="54.448254" lon="-3.224298"><ele>955</ele><time>2022-03-29T11:32:08Z</time><name>PT2515</name></trkpt>
<trkpt lat="54.448223" lon="-3.224317"><ele>956</ele><time>2022-03-29T11:32:12Z</time><name>PT2516</name></trkpt>
<trkpt lat="54.448198" lon="-3.224348"><ele>956</ele><time>2022-03-29T11:32:15Z</time><name>PT2517</name></trkpt>
<trkpt lat="54.448175" lon="-3.224357"><ele>957</ele><time>2022-03-29T11:32:18Z</time><name>PT2518</name></trkpt>
<trkpt lat="54.448133" lon="-3.224365"><ele>957</ele><time>2022-03-29T11:32:22Z</time><name>PT2519</name></trkpt>
<trkpt lat="54.448106" lon="-3.224387"><ele>957</ele><time>2022-03-29T11:32:25Z</time><name>PT2520</name></trkpt>
<trkpt lat="54.448075" lon="-3.224411"><ele>958</ele><time>2022-03-29T11:32:29Z</time><name>PT2521</name></trkpt>
<trkpt lat="54.448050" lon="-3.224433"><ele>958</ele><time>2022-03-29T11:32:32Z</time><name>PT2522</name></trkpt>
<trkpt lat="54.448033" lon="-3.224464"><ele>958</ele><time>2022-03-29T11:32:35Z</time><name>PT2523</name></trkpt>
<trkpt lat="54.448015" lon="-3.224491"><ele>959</ele><time>2022-03-29T11:32:38Z</time><name>PT2524</name></trkpt>
<trkpt lat="54.447991" lon="-3.224530"><ele>958</ele><time>2022-03-29T11:32:41Z</time><name>PT2525</name></trkpt>
<trkpt lat="54.447968" lon="-3.224554"><ele>958</ele><time>2022-03-29T11:32:45Z</time><name>PT2526</name></trkpt>
<trkpt lat="54.447946" lon="-3.224581"><ele>958</ele><time>2022-03-29T11:32:48Z</time><name>PT2527</name></trkpt>
<trkpt lat="54.447911" lon="-3.224600"><ele>957</ele><time>2022-03-29T11:32:52Z</time><name>PT2528</name></trkpt>
<trkpt lat="54.447887" lon="-3.224624"><ele>957</ele><time>2022-03-29T11:32:55Z</time><name>PT2529</name></trkpt>
<trkpt lat="54.447856" lon="-3.224639"><ele>957</ele><time>2022-03-29T11:32:59Z</time><name>PT2530</name></trkpt>
<trkpt lat="54.447827" lon="-3.224650"><ele>958</ele><time>2022-03-29T11:33:03Z</time><name>PT2531</name></trkpt>
<trkpt lat="54.447809" lon="-3.224677"><ele>957</ele><time>2022-03-29T11:33:06Z</time><name>PT2532</name></trkpt>
<trkpt lat="54.447785" lon="-3.224685"><ele>958</ele><time>2022-03-29T11:33:10Z</time><name>PT2533</name></trkpt>
<trkpt lat="54.447779" lon="-3.224696"><ele>959</ele><time>2022-03-29T11:33:13Z</time><name>PT2534</name></trkpt>
<trkpt lat="54.447771" lon="-3.224719"><ele>959</ele><time>2022-03-29T11:33:17Z</time><name>PT2535</name></trkpt>
<trkpt lat="54.447756" lon="-3.224716"><ele>960</ele><time>2022-03-29T11:33:20Z</time><name>PT2536</name></trkpt>
<trkpt lat="54.447741" lon="-3.224702"><ele>961</ele><time>2022-03-29T11:33:24Z</time><name>PT2537</name></trkpt>
<trkpt lat="54.447722" lon="-3.224696"><ele>962</ele><time>2022-03-29T11:33:27Z</time><name>PT2538</name></trkpt>
<trkpt lat="54.447694" lon="-3.224706"><ele>962</ele><time>2022-03-29T11:33:31Z</time><name>PT2539</name></trkpt>
<trkpt lat="54.447671" lon="-3.224709"><ele>963</ele><time>2022-03-29T11:33:35Z</time><name>PT2540</name></trkpt>
<trkpt lat="54.447660" lon="-3.224716"><ele>964</ele><time>2022-03-29T11:33:38Z</time><name>PT2541</name></trkpt>
<trkpt lat="54.447641" lon="-3.224706"><ele>964</ele><time>2022-03-29T11:33:41Z</time><name>PT2542</name></trkpt>
<trkpt lat="54.447622" lon="-3.224685"><ele>964</ele><time>2022-03-29T11:33:44Z</time><name>PT2543</name></trkpt>
<trkpt lat="54.447596" lon="-3.224672"><ele>965</ele><time>2022-03-29T11:33:48Z</time><name>PT2544</name></trkpt>
<trkpt lat="54.447578" lon="-3.224670"><ele>965</ele><time>2022-03-29T11:33:51Z</time><name>PT2545</name></trkpt>
<trkpt lat="54.447556" lon="-3.224672"><ele>966</ele><time>2022-03-29T11:33:55Z</time><name>PT2546</name></trkpt>
<trkpt lat="54.447545" lon="-3.224684"><ele>966</ele><time>2022-03-29T11:33:59Z</time><name>PT2547</name></trkpt>
<trkpt lat="54.447526" lon="-3.224685"><ele>967</ele><time>2022-03-29T11:34:03Z</time><name>PT2548</name></trkpt>
<trkpt lat="54.447514" lon="-3.224699"><ele>967</ele><time>2022-03-29T11:34:06Z</time><name>PT2549</name></trkpt>
<trkpt lat="54.447507" lon="-3.224720"><ele>967</ele><time>2022-03-29T11:34:09Z</time><name>PT2550</name></trkpt>
<trkpt lat="54.447495" lon="-3.224725"><ele>967</ele><time>2022-03-29T11:34:13Z</time><name>PT2551</name></trkpt>
<trkpt lat="54.447493" lon="-3.224727"><ele>967</ele><time>2022-03-29T11:34:16Z</time><name>PT2552</name></trkpt>
<trkpt lat="54.447493" lon="-3.224723"><ele>967</ele><time>2022-03-29T11:34:20Z</time><name>PT2553</name></trkpt>
<trkpt lat="54.447490" lon="-3.224727"><ele>967</ele><time>2022-03-29T11:34:24Z</time><name>PT2554</name></trkpt>
<trkpt lat="54.447494" lon="-3.224725"><ele>967</ele><time>2022-03-29T11:39:32Z</time><name>PT2555</name></trkpt>
<trkpt lat="54.447494" lon="-3.224724"><ele>967</ele><time>2022-03-29T11:39:35Z</time><name>PT2556</name></trkpt>
<trkpt lat="54.447495" lon="-3.224725"><ele>967</ele><time>2022-03-29T11:39:39Z</time><name>PT2557</name></trkpt>
<trkpt lat="54.447494" lon="-3.224716"><ele>967</ele><time>2022-03-29T11:39:42Z</time><name>PT2558</name></trkpt>
<trkpt lat="54.447490" lon="-3.224719"><ele>967</ele><time>2022-03-29T11:39:49Z</time><name>PT2559</name></trkpt>
<trkpt lat="54.447490" lon="-3.224724"><ele>967</ele><time>2022-03-29T11:39:52Z</time><name>PT2560</name></trkpt>
<trkpt lat="54.447486" lon="-3.224729"><ele>967</ele><time>2022-03-29T11:39:56Z</time><name>PT2561</name></trkpt>
<trkpt lat="54.447484" lon="-3.224725"><ele>967</ele><time>2022-03-29T11:40:00Z</time><name>PT2562</name></trkpt>
<trkpt lat="54.447482" lon="-3.224710"><ele>967</ele><time>2022-03-29T11:54:06Z</time><name>PT2563</name></trkpt>
<trkpt lat="54.447482" lon="-3.224707"><ele>967</ele><time>2022-03-29T11:54:10Z</time><name>PT2564</name></trkpt>
<trkpt lat="54.447481" lon="-3.224706"><ele>967</ele><time>2022-03-29T11:54:24Z</time><name>PT2565</name></trkpt>
<trkpt lat="54.447475" lon="-3.224708"><ele>967</ele><time>2022-03-29T11:54:27Z</time><name>PT2566</name></trkpt>
<trkpt lat="54.447479" lon="-3.224727"><ele>966</ele><time>2022-03-29T11:54:31Z</time><name>PT2567</name></trkpt>
<trkpt lat="54.447473" lon="-3.224718"><ele>966</ele><time>2022-03-29T11:54:41Z</time><name>PT2568</name></trkpt>
<trkpt lat="54.447476" lon="-3.224701"><ele>966</ele><time>2022-03-29T11:54:44Z</time><name>PT2569</name></trkpt>
<trkpt lat="54.447473" lon="-3.224696"><ele>967</ele><time>2022-03-29T11:54:59Z</time><name>PT2570</name></trkpt>
<trkpt lat="54.447475" lon="-3.224692"><ele>967</ele><time>2022-03-29T11:55:23Z</time><name>PT2571</name></trkpt>
<trkpt lat="54.447475" lon="-3.224690"><ele>967</ele><time>2022-03-29T11:55:27Z</time><name>PT2572</name></trkpt>
<trkpt lat="54.447481" lon="-3.224683"><ele>966</ele><time>2022-03-29T11:55:44Z</time><name>PT2573</name></trkpt>
<trkpt lat="54.447489" lon="-3.224671"><ele>966</ele><time>2022-03-29T11:55:47Z</time><name>PT2574</name></trkpt>
<trkpt lat="54.447506" lon="-3.224676"><ele>965</ele><time>2022-03-29T11:55:51Z</time><name>PT2575</name></trkpt>
<trkpt lat="54.447516" lon="-3.224666"><ele>965</ele><time>2022-03-29T11:55:54Z</time><name>PT2576</name></trkpt>
<trkpt lat="54.447527" lon="-3.224661"><ele>966</ele><time>2022-03-29T11:55:58Z</time><name>PT2577</name></trkpt>
<trkpt lat="54.447535" lon="-3.224650"><ele>966</ele><time>2022-03-29T11:56:01Z</time><name>PT2578</name></trkpt>
<trkpt lat="54.447550" lon="-3.224653"><ele>966</ele><time>2022-03-29T11:56:05Z</time><name>PT2579</name></trkpt>
<trkpt lat="54.447567" lon="-3.224644"><ele>966</ele><time>2022-03-29T11:56:08Z</time><name>PT2580</name></trkpt>
<trkpt lat="54.447585" lon="-3.224632"><ele>966</ele><time>2022-03-29T11:56:11Z</time><name>PT2581</name></trkpt>
<trkpt lat="54.447607" lon="-3.224651"><ele>966</ele><time>2022-03-29T11:56:15Z</time><name>PT2582</name></trkpt>
<trkpt lat="54.447634" lon="-3.224670"><ele>965</ele><time>2022-03-29T11:56:19Z</time><name>PT2583</name></trkpt>
<trkpt lat="54.447654" lon="-3.224686"><ele>964</ele><time>2022-03-29T11:56:22Z</time><name>PT2584</name></trkpt>
<trkpt lat="54.447682" lon="-3.224697"><ele>963</ele><time>2022-03-29T11:56:26Z</time><name>PT2585</name></trkpt>
<trkpt lat="54.447704" lon="-3.224697"><ele>964</ele><time>2022-03-29T11:56:30Z</time><name>PT2586</name></trkpt>
<trkpt lat="54.447720" lon="-3.224707"><ele>963</ele><time>2022-03-29T11:56:33Z</time><name>PT2587</name></trkpt>
<trkpt lat="54.447731" lon="-3.224722"><ele>962</ele><time>2022-03-29T11:56:36Z</time><name>PT2588</name></trkpt>
<trkpt lat="54.447743" lon="-3.224729"><ele>961</ele><time>2022-03-29T11:56:39Z</time><name>PT2589</name></trkpt>
<trkpt lat="54.447762" lon="-3.224741"><ele>960</ele><time>2022-03-29T11:56:43Z</time><name>PT2590</name></trkpt>
<trkpt lat="54.447792" lon="-3.224745"><ele>960</ele><time>2022-03-29T11:56:47Z</time><name>PT2591</name></trkpt>
<trkpt lat="54.447823" lon="-3.224754"><ele>960</ele><time>2022-03-29T11:56:50Z</time><name>PT2592</name></trkpt>
<trkpt lat="54.447838" lon="-3.224813"><ele>959</ele><time>2022-03-29T11:56:54Z</time><name>PT2593</name></trkpt>
<trkpt lat="54.447852" lon="-3.224878"><ele>958</ele><time>2022-03-29T11:56:58Z</time><name>PT2594</name></trkpt>
<trkpt lat="54.447857" lon="-3.224922"><ele>958</ele><time>2022-03-29T11:57:01Z</time><name>PT2595</name></trkpt>
<trkpt lat="54.447868" lon="-3.224969"><ele>957</ele><time>2022-03-29T11:57:04Z</time><name>PT2596</name></trkpt>
<trkpt lat="54.447880" lon="-3.225012"><ele>957</ele><time>2022-03-29T11:57:07Z</time><name>PT2597</name></trkpt>
<trkpt lat="54.447879" lon="-3.225068"><ele>956</ele><time>2022-03-29T11:57:11Z</time><name>PT2598</name></trkpt>
<trkpt lat="54.447893" lon="-3.225114"><ele>955</ele><time>2022-03-29T11:57:15Z</time><name>PT2599</name></trkpt>
<trkpt lat="54.447890" lon="-3.225163"><ele>954</ele><time>2022-03-29T11:57:19Z</time><name>PT2600</name></trkpt>
<trkpt lat="54.447881" lon="-3.225195"><ele>954</ele><time>2022-03-29T11:57:22Z</time><name>PT2601</name></trkpt>
<trkpt lat="54.447869" lon="-3.225227"><ele>953</ele><time>2022-03-29T11:57:25Z</time><name>PT2602</name></trkpt>
<trkpt lat="54.447881" lon="-3.225257"><ele>953</ele><time>2022-03-29T11:57:29Z</time><name>PT2603</name></trkpt>
<trkpt lat="54.447896" lon="-3.225291"><ele>953</ele><time>2022-03-29T11:57:32Z</time><name>PT2604</name></trkpt>
<trkpt lat="54.447902" lon="-3.225333"><ele>952</ele><time>2022-03-29T11:57:36Z</time><name>PT2605</name></trkpt>
<trkpt lat="54.447911" lon="-3.225355"><ele>951</ele><time>2022-03-29T11:57:39Z</time><name>PT2606</name></trkpt>
<trkpt lat="54.447919" lon="-3.225379"><ele>949</ele><time>2022-03-29T11:57:42Z</time><name>PT2607</name></trkpt>
<trkpt lat="54.447917" lon="-3.225410"><ele>948</ele><time>2022-03-29T11:57:46Z</time><name>PT2608</name></trkpt>
<trkpt lat="54.447923" lon="-3.225439"><ele>947</ele><time>2022-03-29T11:57:50Z</time><name>PT2609</name></trkpt>
<trkpt lat="54.447919" lon="-3.225452"><ele>946</ele><time>2022-03-29T11:57:53Z</time><name>PT2610</name></trkpt>
<trkpt lat="54.447918" lon="-3.225453"><ele>946</ele><time>2022-03-29T11:57:57Z</time><name>PT2611</name></trkpt>
<trkpt lat="54.447900" lon="-3.225541"><ele>945</ele><time>2022-03-29T11:58:10Z</time><name>PT2612</name></trkpt>
<trkpt lat="54.447915" lon="-3.225572"><ele>944</ele><time>2022-03-29T11:58:14Z</time><name>PT2613</name></trkpt>
<trkpt lat="54.447927" lon="-3.225579"><ele>943</ele><time>2022-03-29T11:58:17Z</time><name>PT2614</name></trkpt>
<trkpt lat="54.447941" lon="-3.225602"><ele>942</ele><time>2022-03-29T11:58:20Z</time><name>PT2615</name></trkpt>
<trkpt lat="54.447941" lon="-3.225638"><ele>941</ele><time>2022-03-29T11:58:24Z</time><name>PT2616</name></trkpt>
<trkpt lat="54.447956" lon="-3.225655"><ele>940</ele><time>2022-03-29T11:58:27Z</time><name>PT2617</name></trkpt>
<trkpt lat="54.447952" lon="-3.225678"><ele>940</ele><time>2022-03-29T11:58:30Z</time><name>PT2618</name></trkpt>
<trkpt lat="54.447951" lon="-3.225698"><ele>940</ele><time>2022-03-29T11:58:34Z</time><name>PT2619</name></trkpt>
<trkpt lat="54.447941" lon="-3.225715"><ele>939</ele><time>2022-03-29T11:58:37Z</time><name>PT2620</name></trkpt>
<trkpt lat="54.447939" lon="-3.225740"><ele>938</ele><time>2022-03-29T11:58:41Z</time><name>PT2621</name></trkpt>
<trkpt lat="54.447933" lon="-3.225743"><ele>937</ele><time>2022-03-29T11:58:42Z</time><name>PT2622</name></trkpt>
<trkpt lat="54.447934" lon="-3.225746"><ele>937</ele><time>2022-03-29T11:58:43Z</time><name>PT2623</name></trkpt>
<trkpt lat="54.447934" lon="-3.225751"><ele>937</ele><time>2022-03-29T11:58:44Z</time><name>PT2624</name></trkpt>
<trkpt lat="54.447935" lon="-3.225755"><ele>937</ele><time>2022-03-29T11:58:45Z</time><name>PT2625</name></trkpt>
<trkpt lat="54.447936" lon="-3.225758"><ele>937</ele><time>2022-03-29T11:58:46Z</time><name>PT2626</name></trkpt>
<trkpt lat="54.447939" lon="-3.225759"><ele>937</ele><time>2022-03-29T11:58:47Z</time><name>PT2627</name></trkpt>
<trkpt lat="54.447943" lon="-3.225757"><ele>937</ele><time>2022-03-29T11:58:48Z</time><name>PT2628</name></trkpt>
<trkpt lat="54.447944" lon="-3.225759"><ele>937</ele><time>2022-03-29T11:58:49Z</time><name>PT2629</name></trkpt>
<trkpt lat="54.447943" lon="-3.225761"><ele>937</ele><time>2022-03-29T11:58:50Z</time><name>PT2630</name></trkpt>
<trkpt lat="54.447942" lon="-3.225763"><ele>937</ele><time>2022-03-29T11:58:51Z</time><name>PT2631</name></trkpt>
<trkpt lat="54.447940" lon="-3.225757"><ele>937</ele><time>2022-03-29T11:58:55Z</time><name>PT2632</name></trkpt>
<trkpt lat="54.447936" lon="-3.225772"><ele>937</ele><time>2022-03-29T11:58:56Z</time><name>PT2633</name></trkpt>
<trkpt lat="54.447934" lon="-3.225780"><ele>937</ele><time>2022-03-29T11:58:57Z</time><name>PT2634</name></trkpt>
<trkpt lat="54.447934" lon="-3.225783"><ele>938</ele><time>2022-03-29T11:58:58Z</time><name>PT2635</name></trkpt>
<trkpt lat="54.447933" lon="-3.225783"><ele>938</ele><time>2022-03-29T11:58:59Z</time><name>PT2636</name></trkpt>
<trkpt lat="54.447931" lon="-3.225784"><ele>937</ele><time>2022-03-29T11:59:13Z</time><name>PT2637</name></trkpt>
<trkpt lat="54.447935" lon="-3.225784"><ele>937</ele><time>2022-03-29T11:59:14Z</time><name>PT2638</name></trkpt>
<trkpt lat="54.447940" lon="-3.225783"><ele>936</ele><time>2022-03-29T11:59:15Z</time><name>PT2639</name></trkpt>
<trkpt lat="54.447941" lon="-3.225785"><ele>936</ele><time>2022-03-29T11:59:16Z</time><name>PT2640</name></trkpt>
<trkpt lat="54.447944" lon="-3.225788"><ele>936</ele><time>2022-03-29T11:59:17Z</time><name>PT2641</name></trkpt>
<trkpt lat="54.447950" lon="-3.225791"><ele>935</ele><time>2022-03-29T11:59:18Z</time><name>PT2642</name></trkpt>
<trkpt lat="54.447956" lon="-3.225795"><ele>935</ele><time>2022-03-29T11:59:19Z</time><name>PT2643</name></trkpt>
<trkpt lat="54.447961" lon="-3.225797"><ele>935</ele><time>2022-03-29T11:59:20Z</time><name>PT2644</name></trkpt>
<trkpt lat="54.447962" lon="-3.225810"><ele>934</ele><time>2022-03-29T11:59:21Z</time><name>PT2645</name></trkpt>
<trkpt lat="54.447963" lon="-3.225821"><ele>934</ele><time>2022-03-29T11:59:22Z</time><name>PT2646</name></trkpt>
<trkpt lat="54.447964" lon="-3.225829"><ele>934</ele><time>2022-03-29T11:59:23Z</time><name>PT2647</name></trkpt>
<trkpt lat="54.447975" lon="-3.225832"><ele>934</ele><time>2022-03-29T11:59:24Z</time><name>PT2648</name></trkpt>
<trkpt lat="54.447981" lon="-3.225834"><ele>934</ele><time>2022-03-29T11:59:25Z</time><name>PT2649</name></trkpt>
<trkpt lat="54.447984" lon="-3.225832"><ele>934</ele><time>2022-03-29T11:59:26Z</time><name>PT2650</name></trkpt>
<trkpt lat="54.447985" lon="-3.225835"><ele>934</ele><time>2022-03-29T11:59:27Z</time><name>PT2651</name></trkpt>
<trkpt lat="54.447988" lon="-3.225842"><ele>933</ele><time>2022-03-29T11:59:28Z</time><name>PT2652</name></trkpt>
<trkpt lat="54.447988" lon="-3.225852"><ele>932</ele><time>2022-03-29T11:59:29Z</time><name>PT2653</name></trkpt>
<trkpt lat="54.447988" lon="-3.225857"><ele>932</ele><time>2022-03-29T11:59:30Z</time><name>PT2654</name></trkpt>
<trkpt lat="54.447991" lon="-3.225860"><ele>932</ele><time>2022-03-29T11:59:31Z</time><name>PT2655</name></trkpt>
<trkpt lat="54.447990" lon="-3.225868"><ele>931</ele><time>2022-03-29T11:59:32Z</time><name>PT2656</name></trkpt>
<trkpt lat="54.447988" lon="-3.225876"><ele>931</ele><time>2022-03-29T11:59:33Z</time><name>PT2657</name></trkpt>
<trkpt lat="54.447985" lon="-3.225892"><ele>930</ele><time>2022-03-29T11:59:34Z</time><name>PT2658</name></trkpt>
<trkpt lat="54.447984" lon="-3.225901"><ele>930</ele><time>2022-03-29T11:59:35Z</time><name>PT2659</name></trkpt>
<trkpt lat="54.447984" lon="-3.225903"><ele>930</ele><time>2022-03-29T11:59:36Z</time><name>PT2660</name></trkpt>
<trkpt lat="54.447985" lon="-3.225912"><ele>929</ele><time>2022-03-29T11:59:37Z</time><name>PT2661</name></trkpt>
<trkpt lat="54.447984" lon="-3.225925"><ele>929</ele><time>2022-03-29T11:59:38Z</time><name>PT2662</name></trkpt>
<trkpt lat="54.447986" lon="-3.225929"><ele>929</ele><time>2022-03-29T11:59:39Z</time><name>PT2663</name></trkpt>
<trkpt lat="54.447979" lon="-3.225940"><ele>929</ele><time>2022-03-29T11:59:40Z</time><name>PT2664</name></trkpt>
<trkpt lat="54.447975" lon="-3.225948"><ele>929</ele><time>2022-03-29T11:59:41Z</time><name>PT2665</name></trkpt>
<trkpt lat="54.447975" lon="-3.225953"><ele>929</ele><time>2022-03-29T11:59:42Z</time><name>PT2666</name></trkpt>
<trkpt lat="54.447972" lon="-3.225966"><ele>929</ele><time>2022-03-29T11:59:43Z</time><name>PT2667</name></trkpt>
<trkpt lat="54.447969" lon="-3.225971"><ele>930</ele><time>2022-03-29T11:59:44Z</time><name>PT2668</name></trkpt>
<trkpt lat="54.447967" lon="-3.225972"><ele>929</ele><time>2022-03-29T11:59:45Z</time><name>PT2669</name></trkpt>
<trkpt lat="54.447966" lon="-3.225979"><ele>929</ele><time>2022-03-29T11:59:46Z</time><name>PT2670</name></trkpt>
<trkpt lat="54.447969" lon="-3.225985"><ele>929</ele><time>2022-03-29T11:59:47Z</time><name>PT2671</name></trkpt>
<trkpt lat="54.447974" lon="-3.225983"><ele>928</ele><time>2022-03-29T11:59:48Z</time><name>PT2672</name></trkpt>
<trkpt lat="54.447977" lon="-3.225982"><ele>927</ele><time>2022-03-29T11:59:49Z</time><name>PT2673</name></trkpt>
<trkpt lat="54.447980" lon="-3.225996"><ele>927</ele><time>2022-03-29T11:59:50Z</time><name>PT2674</name></trkpt>
<trkpt lat="54.447989" lon="-3.226004"><ele>927</ele><time>2022-03-29T11:59:51Z</time><name>PT2675</name></trkpt>
<trkpt lat="54.447997" lon="-3.226010"><ele>927</ele><time>2022-03-29T11:59:52Z</time><name>PT2676</name></trkpt>
<trkpt lat="54.448003" lon="-3.226017"><ele>927</ele><time>2022-03-29T11:59:53Z</time><name>PT2677</name></trkpt>
<trkpt lat="54.448005" lon="-3.226029"><ele>927</ele><time>2022-03-29T11:59:54Z</time><name>PT2678</name></trkpt>
<trkpt lat="54.448008" lon="-3.226030"><ele>926</ele><time>2022-03-29T11:59:55Z</time><name>PT2679</name></trkpt>
<trkpt lat="54.448007" lon="-3.226034"><ele>926</ele><time>2022-03-29T11:59:56Z</time><name>PT2680</name></trkpt>
<trkpt lat="54.448011" lon="-3.226043"><ele>926</ele><time>2022-03-29T11:59:57Z</time><name>PT2681</name></trkpt>
<trkpt lat="54.448014" lon="-3.226041"><ele>926</ele><time>2022-03-29T11:59:58Z</time><name>PT2682</name></trkpt>
<trkpt lat="54.448019" lon="-3.226036"><ele>925</ele><time>2022-03-29T11:59:59Z</time><name>PT2683</name></trkpt>
<trkpt lat="54.448021" lon="-3.226044"><ele>925</ele><time>2022-03-29T12:00:00Z</time><name>PT2684</name></trkpt>
<trkpt lat="54.448015" lon="-3.226049"><ele>924</ele><time>2022-03-29T12:00:01Z</time><name>PT2685</name></trkpt>
<trkpt lat="54.448011" lon="-3.226050"><ele>924</ele><time>2022-03-29T12:00:02Z</time><name>PT2686</name></trkpt>
<trkpt lat="54.448011" lon="-3.226053"><ele>924</ele><time>2022-03-29T12:00:03Z</time><name>PT2687</name></trkpt>
<trkpt lat="54.448012" lon="-3.226057"><ele>924</ele><time>2022-03-29T12:00:04Z</time><name>PT2688</name></trkpt>
<trkpt lat="54.448015" lon="-3.226061"><ele>924</ele><time>2022-03-29T12:00:05Z</time><name>PT2689</name></trkpt>
<trkpt lat="54.448014" lon="-3.226065"><ele>924</ele><time>2022-03-29T12:00:06Z</time><name>PT2690</name></trkpt>
<trkpt lat="54.448016" lon="-3.226063"><ele>924</ele><time>2022-03-29T12:00:07Z</time><name>PT2691</name></trkpt>
<trkpt lat="54.448021" lon="-3.226066"><ele>924</ele><time>2022-03-29T12:00:08Z</time><name>PT2692</name></trkpt>
<trkpt lat="54.448024" lon="-3.226072"><ele>924</ele><time>2022-03-29T12:00:09Z</time><name>PT2693</name></trkpt>
<trkpt lat="54.448028" lon="-3.226078"><ele>924</ele><time>2022-03-29T12:00:10Z</time><name>PT2694</name></trkpt>
<trkpt lat="54.448027" lon="-3.226082"><ele>924</ele><time>2022-03-29T12:00:11Z</time><name>PT2695</name></trkpt>
<trkpt lat="54.448029" lon="-3.226083"><ele>924</ele><time>2022-03-29T12:00:12Z</time><name>PT2696</name></trkpt>
<trkpt lat="54.448033" lon="-3.226086"><ele>923</ele><time>2022-03-29T12:00:13Z</time><name>PT2697</name></trkpt>
<trkpt lat="54.448037" lon="-3.226089"><ele>922</ele><time>2022-03-29T12:00:14Z</time><name>PT2698</name></trkpt>
<trkpt lat="54.448035" lon="-3.226099"><ele>922</ele><time>2022-03-29T12:00:15Z</time><name>PT2699</name></trkpt>
<trkpt lat="54.448033" lon="-3.226107"><ele>922</ele><time>2022-03-29T12:00:16Z</time><name>PT2700</name></trkpt>
<trkpt lat="54.448031" lon="-3.226116"><ele>921</ele><time>2022-03-29T12:00:17Z</time><name>PT2701</name></trkpt>
<trkpt lat="54.448030" lon="-3.226120"><ele>921</ele><time>2022-03-29T12:00:18Z</time><name>PT2702</name></trkpt>
<trkpt lat="54.448026" lon="-3.226130"><ele>922</ele><time>2022-03-29T12:00:19Z</time><name>PT2703</name></trkpt>
<trkpt lat="54.448022" lon="-3.226145"><ele>921</ele><time>2022-03-29T12:00:20Z</time><name>PT2704</name></trkpt>
<trkpt lat="54.448017" lon="-3.226153"><ele>921</ele><time>2022-03-29T12:00:21Z</time><name>PT2705</name></trkpt>
<trkpt lat="54.448014" lon="-3.226152"><ele>921</ele><time>2022-03-29T12:00:22Z</time><name>PT2706</name></trkpt>
<trkpt lat="54.448014" lon="-3.226157"><ele>921</ele><time>2022-03-29T12:00:23Z</time><name>PT2707</name></trkpt>
<trkpt lat="54.448011" lon="-3.226165"><ele>920</ele><time>2022-03-29T12:00:24Z</time><name>PT2708</name></trkpt>
<trkpt lat="54.448007" lon="-3.226175"><ele>920</ele><time>2022-03-29T12:00:25Z</time><name>PT2709</name></trkpt>
<trkpt lat="54.448004" lon="-3.226176"><ele>920</ele><time>2022-03-29T12:00:26Z</time><name>PT2710</name></trkpt>
<trkpt lat="54.447996" lon="-3.226190"><ele>919</ele><time>2022-03-29T12:00:27Z</time><name>PT2711</name></trkpt>
<trkpt lat="54.447996" lon="-3.226211"><ele>919</ele><time>2022-03-29T12:00:28Z</time><name>PT2712</name></trkpt>
<trkpt lat="54.447999" lon="-3.226219"><ele>919</ele><time>2022-03-29T12:00:29Z</time><name>PT2713</name></trkpt>
<trkpt lat="54.448002" lon="-3.226240"><ele>920</ele><time>2022-03-29T12:00:30Z</time><name>PT2714</name></trkpt>
<trkpt lat="54.448000" lon="-3.226244"><ele>920</ele><time>2022-03-29T12:00:31Z</time><name>PT2715</name></trkpt>
<trkpt lat="54.448007" lon="-3.226243"><ele>920</ele><time>2022-03-29T12:00:32Z</time><name>PT2716</name></trkpt>
<trkpt lat="54.448014" lon="-3.226230"><ele>919</ele><time>2022-03-29T12:00:33Z</time><name>PT2717</name></trkpt>
<trkpt lat="54.448019" lon="-3.226216"><ele>918</ele><time>2022-03-29T12:00:34Z</time><name>PT2718</name></trkpt>
<trkpt lat="54.448023" lon="-3.226205"><ele>918</ele><time>2022-03-29T12:00:35Z</time><name>PT2719</name></trkpt>
<trkpt lat="54.448026" lon="-3.226199"><ele>916</ele><time>2022-03-29T12:00:36Z</time><name>PT2720</name></trkpt>
<trkpt lat="54.448030" lon="-3.226200"><ele>916</ele><time>2022-03-29T12:00:37Z</time><name>PT2721</name></trkpt>
<trkpt lat="54.448035" lon="-3.226194"><ele>916</ele><time>2022-03-29T12:00:38Z</time><name>PT2722</name></trkpt>
<trkpt lat="54.448035" lon="-3.226189"><ele>915</ele><time>2022-03-29T12:00:39Z</time><name>PT2723</name></trkpt>
<trkpt lat="54.448041" lon="-3.226192"><ele>916</ele><time>2022-03-29T12:00:40Z</time><name>PT2724</name></trkpt>
<trkpt lat="54.448039" lon="-3.226205"><ele>915</ele><time>2022-03-29T12:00:41Z</time><name>PT2725</name></trkpt>
<trkpt lat="54.448034" lon="-3.226223"><ele>915</ele><time>2022-03-29T12:00:42Z</time><name>PT2726</name></trkpt>
<trkpt lat="54.448032" lon="-3.226236"><ele>915</ele><time>2022-03-29T12:00:43Z</time><name>PT2727</name></trkpt>
<trkpt lat="54.448033" lon="-3.226249"><ele>914</ele><time>2022-03-29T12:00:44Z</time><name>PT2728</name></trkpt>
<trkpt lat="54.448032" lon="-3.226261"><ele>913</ele><time>2022-03-29T12:00:45Z</time><name>PT2729</name></trkpt>
<trkpt lat="54.448034" lon="-3.226277"><ele>913</ele><time>2022-03-29T12:00:46Z</time><name>PT2730</name></trkpt>
<trkpt lat="54.448040" lon="-3.226287"><ele>913</ele><time>2022-03-29T12:00:47Z</time><name>PT2731</name></trkpt>
<trkpt lat="54.448044" lon="-3.226289"><ele>913</ele><time>2022-03-29T12:00:48Z</time><name>PT2732</name></trkpt>
<trkpt lat="54.448045" lon="-3.226287"><ele>913</ele><time>2022-03-29T12:00:49Z</time><name>PT2733</name></trkpt>
<trkpt lat="54.448041" lon="-3.226284"><ele>912</ele><time>2022-03-29T12:00:50Z</time><name>PT2734</name></trkpt>
<trkpt lat="54.448041" lon="-3.226279"><ele>912</ele><time>2022-03-29T12:00:51Z</time><name>PT2735</name></trkpt>
<trkpt lat="54.448042" lon="-3.226278"><ele>912</ele><time>2022-03-29T12:00:52Z</time><name>PT2736</name></trkpt>
<trkpt lat="54.448044" lon="-3.226278"><ele>911</ele><time>2022-03-29T12:00:53Z</time><name>PT2737</name></trkpt>
<trkpt lat="54.448049" lon="-3.226279"><ele>911</ele><time>2022-03-29T12:00:54Z</time><name>PT2738</name></trkpt>
<trkpt lat="54.448058" lon="-3.226288"><ele>910</ele><time>2022-03-29T12:00:55Z</time><name>PT2739</name></trkpt>
<trkpt lat="54.448065" lon="-3.226303"><ele>909</ele><time>2022-03-29T12:00:56Z</time><name>PT2740</name></trkpt>
<trkpt lat="54.448068" lon="-3.226321"><ele>909</ele><time>2022-03-29T12:00:57Z</time><name>PT2741</name></trkpt>
<trkpt lat="54.448068" lon="-3.226334"><ele>909</ele><time>2022-03-29T12:00:58Z</time><name>PT2742</name></trkpt>
<trkpt lat="54.448066" lon="-3.226345"><ele>909</ele><time>2022-03-29T12:00:59Z</time><name>PT2743</name></trkpt>
<trkpt lat="54.448064" lon="-3.226354"><ele>908</ele><time>2022-03-29T12:01:00Z</time><name>PT2744</name></trkpt>
<trkpt lat="54.448066" lon="-3.226348"><ele>908</ele><time>2022-03-29T12:01:01Z</time><name>PT2745</name></trkpt>
<trkpt lat="54.448061" lon="-3.226353"><ele>908</ele><time>2022-03-29T12:01:02Z</time><name>PT2746</name></trkpt>
<trkpt lat="54.448055" lon="-3.226360"><ele>908</ele><time>2022-03-29T12:01:03Z</time><name>PT2747</name></trkpt>
<trkpt lat="54.448043" lon="-3.226373"><ele>908</ele><time>2022-03-29T12:01:04Z</time><name>PT2748</name></trkpt>
<trkpt lat="54.448041" lon="-3.226381"><ele>908</ele><time>2022-03-29T12:01:05Z</time><name>PT2749</name></trkpt>
<trkpt lat="54.448045" lon="-3.226382"><ele>908</ele><time>2022-03-29T12:01:06Z</time><name>PT2750</name></trkpt>
<trkpt lat="54.448047" lon="-3.226379"><ele>908</ele><time>2022-03-29T12:01:07Z</time><name>PT2751</name></trkpt>
<trkpt lat="54.448049" lon="-3.226375"><ele>908</ele><time>2022-03-29T12:01:08Z</time><name>PT2752</name></trkpt>
<trkpt lat="54.448052" lon="-3.226377"><ele>907</ele><time>2022-03-29T12:01:09Z</time><name>PT2753</name></trkpt>
<trkpt lat="54.448053" lon="-3.226380"><ele>908</ele><time>2022-03-29T12:01:10Z</time><name>PT2754</name></trkpt>
<trkpt lat="54.448060" lon="-3.226385"><ele>908</ele><time>2022-03-29T12:01:11Z</time><name>PT2755</name></trkpt>
<trkpt lat="54.448067" lon="-3.226385"><ele>907</ele><time>2022-03-29T12:01:12Z</time><name>PT2756</name></trkpt>
<trkpt lat="54.448071" lon="-3.226387"><ele>907</ele><time>2022-03-29T12:01:13Z</time><name>PT2757</name></trkpt>
<trkpt lat="54.448075" lon="-3.226392"><ele>907</ele><time>2022-03-29T12:01:14Z</time><name>PT2758</name></trkpt>
<trkpt lat="54.448081" lon="-3.226399"><ele>907</ele><time>2022-03-29T12:01:15Z</time><name>PT2759</name></trkpt>
<trkpt lat="54.448086" lon="-3.226411"><ele>906</ele><time>2022-03-29T12:01:16Z</time><name>PT2760</name></trkpt>
<trkpt lat="54.448097" lon="-3.226415"><ele>906</ele><time>2022-03-29T12:01:17Z</time><name>PT2761</name></trkpt>
<trkpt lat="54.448099" lon="-3.226420"><ele>905</ele><time>2022-03-29T12:01:18Z</time><name>PT2762</name></trkpt>
<trkpt lat="54.448099" lon="-3.226422"><ele>905</ele><time>2022-03-29T12:01:19Z</time><name>PT2763</name></trkpt>
<trkpt lat="54.448100" lon="-3.226425"><ele>905</ele><time>2022-03-29T12:01:20Z</time><name>PT2764</name></trkpt>
<trkpt lat="54.448098" lon="-3.226440"><ele>904</ele><time>2022-03-29T12:01:21Z</time><name>PT2765</name></trkpt>
<trkpt lat="54.448099" lon="-3.226457"><ele>904</ele><time>2022-03-29T12:01:22Z</time><name>PT2766</name></trkpt>
<trkpt lat="54.448100" lon="-3.226462"><ele>904</ele><time>2022-03-29T12:01:23Z</time><name>PT2767</name></trkpt>
<trkpt lat="54.448098" lon="-3.226463"><ele>904</ele><time>2022-03-29T12:01:24Z</time><name>PT2768</name></trkpt>
<trkpt lat="54.448093" lon="-3.226480"><ele>903</ele><time>2022-03-29T12:01:25Z</time><name>PT2769</name></trkpt>
<trkpt lat="54.448091" lon="-3.226493"><ele>903</ele><time>2022-03-29T12:01:26Z</time><name>PT2770</name></trkpt>
<trkpt lat="54.448091" lon="-3.226512"><ele>903</ele><time>2022-03-29T12:01:27Z</time><name>PT2771</name></trkpt>
<trkpt lat="54.448093" lon="-3.226524"><ele>903</ele><time>2022-03-29T12:01:28Z</time><name>PT2772</name></trkpt>
<trkpt lat="54.448095" lon="-3.226536"><ele>902</ele><time>2022-03-29T12:01:29Z</time><name>PT2773</name></trkpt>
<trkpt lat="54.448098" lon="-3.226559"><ele>903</ele><time>2022-03-29T12:01:30Z</time><name>PT2774</name></trkpt>
<trkpt lat="54.448102" lon="-3.226568"><ele>903</ele><time>2022-03-29T12:01:31Z</time><name>PT2775</name></trkpt>
<trkpt lat="54.448110" lon="-3.226567"><ele>903</ele><time>2022-03-29T12:01:32Z</time><name>PT2776</name></trkpt>
<trkpt lat="54.448118" lon="-3.226569"><ele>903</ele><time>2022-03-29T12:01:33Z</time><name>PT2777</name></trkpt>
<trkpt lat="54.448121" lon="-3.226572"><ele>903</ele><time>2022-03-29T12:01:34Z</time><name>PT2778</name></trkpt>
<trkpt lat="54.448120" lon="-3.226568"><ele>903</ele><time>2022-03-29T12:01:35Z</time><name>PT2779</name></trkpt>
<trkpt lat="54.448118" lon="-3.226571"><ele>902</ele><time>2022-03-29T12:01:36Z</time><name>PT2780</name></trkpt>
<trkpt lat="54.448120" lon="-3.226571"><ele>902</ele><time>2022-03-29T12:01:37Z</time><name>PT2781</name></trkpt>
<trkpt lat="54.448121" lon="-3.226585"><ele>902</ele><time>2022-03-29T12:01:38Z</time><name>PT2782</name></trkpt>
<trkpt lat="54.448125" lon="-3.226605"><ele>902</ele><time>2022-03-29T12:01:39Z</time><name>PT2783</name></trkpt>
<trkpt lat="54.448134" lon="-3.226613"><ele>902</ele><time>2022-03-29T12:01:40Z</time><name>PT2784</name></trkpt>
<trkpt lat="54.448145" lon="-3.226614"><ele>902</ele><time>2022-03-29T12:01:41Z</time><name>PT2785</name></trkpt>
<trkpt lat="54.448156" lon="-3.226613"><ele>901</ele><time>2022-03-29T12:01:42Z</time><name>PT2786</name></trkpt>
<trkpt lat="54.448160" lon="-3.226616"><ele>901</ele><time>2022-03-29T12:01:43Z</time><name>PT2787</name></trkpt>
<trkpt lat="54.448162" lon="-3.226623"><ele>901</ele><time>2022-03-29T12:01:44Z</time><name>PT2788</name></trkpt>
<trkpt lat="54.448161" lon="-3.226624"><ele>900</ele><time>2022-03-29T12:01:45Z</time><name>PT2789</name></trkpt>
<trkpt lat="54.448164" lon="-3.226620"><ele>900</ele><time>2022-03-29T12:01:46Z</time><name>PT2790</name></trkpt>
<trkpt lat="54.448164" lon="-3.226623"><ele>899</ele><time>2022-03-29T12:01:47Z</time><name>PT2791</name></trkpt>
<trkpt lat="54.448162" lon="-3.226636"><ele>899</ele><time>2022-03-29T12:01:48Z</time><name>PT2792</name></trkpt>
<trkpt lat="54.448161" lon="-3.226648"><ele>899</ele><time>2022-03-29T12:01:49Z</time><name>PT2793</name></trkpt>
<trkpt lat="54.448164" lon="-3.226653"><ele>899</ele><time>2022-03-29T12:01:50Z</time><name>PT2794</name></trkpt>
<trkpt lat="54.448172" lon="-3.226657"><ele>899</ele><time>2022-03-29T12:01:51Z</time><name>PT2795</name></trkpt>
<trkpt lat="54.448182" lon="-3.226660"><ele>899</ele><time>2022-03-29T12:01:52Z</time><name>PT2796</name></trkpt>
<trkpt lat="54.448185" lon="-3.226661"><ele>898</ele><time>2022-03-29T12:01:53Z</time><name>PT2797</name></trkpt>
<trkpt lat="54.448184" lon="-3.226662"><ele>899</ele><time>2022-03-29T12:01:54Z</time><name>PT2798</name></trkpt>
<trkpt lat="54.448184" lon="-3.226658"><ele>898</ele><time>2022-03-29T12:01:55Z</time><name>PT2799</name></trkpt>
<trkpt lat="54.448186" lon="-3.226662"><ele>898</ele><time>2022-03-29T12:01:56Z</time><name>PT2800</name></trkpt>
<trkpt lat="54.448187" lon="-3.226675"><ele>898</ele><time>2022-03-29T12:01:57Z</time><name>PT2801</name></trkpt>
<trkpt lat="54.448185" lon="-3.226682"><ele>898</ele><time>2022-03-29T12:01:58Z</time><name>PT2802</name></trkpt>
<trkpt lat="54.448180" lon="-3.226677"><ele>898</ele><time>2022-03-29T12:01:59Z</time><name>PT2803</name></trkpt>
<trkpt lat="54.448180" lon="-3.226688"><ele>898</ele><time>2022-03-29T12:02:00Z</time><name>PT2804</name></trkpt>
<trkpt lat="54.448179" lon="-3.226706"><ele>897</ele><time>2022-03-29T12:02:01Z</time><name>PT2805</name></trkpt>
<trkpt lat="54.448182" lon="-3.226713"><ele>897</ele><time>2022-03-29T12:02:02Z</time><name>PT2806</name></trkpt>
<trkpt lat="54.448181" lon="-3.226704"><ele>897</ele><time>2022-03-29T12:02:03Z</time><name>PT2807</name></trkpt>
<trkpt lat="54.448183" lon="-3.226704"><ele>897</ele><time>2022-03-29T12:02:04Z</time><name>PT2808</name></trkpt>
<trkpt lat="54.448186" lon="-3.226710"><ele>897</ele><time>2022-03-29T12:02:05Z</time><name>PT2809</name></trkpt>
<trkpt lat="54.448191" lon="-3.226719"><ele>897</ele><time>2022-03-29T12:02:06Z</time><name>PT2810</name></trkpt>
<trkpt lat="54.448198" lon="-3.226732"><ele>897</ele><time>2022-03-29T12:02:07Z</time><name>PT2811</name></trkpt>
<trkpt lat="54.448207" lon="-3.226747"><ele>897</ele><time>2022-03-29T12:02:08Z</time><name>PT2812</name></trkpt>
<trkpt lat="54.448212" lon="-3.226758"><ele>897</ele><time>2022-03-29T12:02:09Z</time><name>PT2813</name></trkpt>
<trkpt lat="54.448214" lon="-3.226767"><ele>896</ele><time>2022-03-29T12:02:10Z</time><name>PT2814</name></trkpt>
<trkpt lat="54.448220" lon="-3.226762"><ele>896</ele><time>2022-03-29T12:02:11Z</time><name>PT2815</name></trkpt>
<trkpt lat="54.448220" lon="-3.226768"><ele>896</ele><time>2022-03-29T12:02:12Z</time><name>PT2816</name></trkpt>
<trkpt lat="54.448220" lon="-3.226775"><ele>896</ele><time>2022-03-29T12:02:13Z</time><name>PT2817</name></trkpt>
<trkpt lat="54.448222" lon="-3.226778"><ele>896</ele><time>2022-03-29T12:02:14Z</time><name>PT2818</name></trkpt>
<trkpt lat="54.448224" lon="-3.226779"><ele>896</ele><time>2022-03-29T12:02:15Z</time><name>PT2819</name></trkpt>
<trkpt lat="54.448231" lon="-3.226793"><ele>896</ele><time>2022-03-29T12:02:16Z</time><name>PT2820</name></trkpt>
<trkpt lat="54.448234" lon="-3.226800"><ele>895</ele><time>2022-03-29T12:02:17Z</time><name>PT2821</name></trkpt>
<trkpt lat="54.448233" lon="-3.226794"><ele>895</ele><time>2022-03-29T12:02:18Z</time><name>PT2822</name></trkpt>
<trkpt lat="54.448232" lon="-3.226807"><ele>895</ele><time>2022-03-29T12:02:19Z</time><name>PT2823</name></trkpt>
<trkpt lat="54.448231" lon="-3.226813"><ele>895</ele><time>2022-03-29T12:02:20Z</time><name>PT2824</name></trkpt>
<trkpt lat="54.448230" lon="-3.226818"><ele>895</ele><time>2022-03-29T12:02:21Z</time><name>PT2825</name></trkpt>
<trkpt lat="54.448231" lon="-3.226826"><ele>894</ele><time>2022-03-29T12:02:22Z</time><name>PT2826</name></trkpt>
<trkpt lat="54.448239" lon="-3.226820"><ele>894</ele><time>2022-03-29T12:02:23Z</time><name>PT2827</name></trkpt>
<trkpt lat="54.448241" lon="-3.226818"><ele>894</ele><time>2022-03-29T12:02:24Z</time><name>PT2828</name></trkpt>
<trkpt lat="54.448236" lon="-3.226824"><ele>894</ele><time>2022-03-29T12:02:25Z</time><name>PT2829</name></trkpt>
<trkpt lat="54.448231" lon="-3.226840"><ele>894</ele><time>2022-03-29T12:02:26Z</time><name>PT2830</name></trkpt>
<trkpt lat="54.448228" lon="-3.226850"><ele>894</ele><time>2022-03-29T12:02:27Z</time><name>PT2831</name></trkpt>
<trkpt lat="54.448229" lon="-3.226857"><ele>894</ele><time>2022-03-29T12:02:28Z</time><name>PT2832</name></trkpt>
<trkpt lat="54.448213" lon="-3.226898"><ele>893</ele><time>2022-03-29T12:02:32Z</time><name>PT2833</name></trkpt>
<trkpt lat="54.448199" lon="-3.226901"><ele>892</ele><time>2022-03-29T12:02:35Z</time><name>PT2834</name></trkpt>
<trkpt lat="54.448205" lon="-3.226931"><ele>892</ele><time>2022-03-29T12:02:38Z</time><name>PT2835</name></trkpt>
<trkpt lat="54.448208" lon="-3.226931"><ele>891</ele><time>2022-03-29T12:02:41Z</time><name>PT2836</name></trkpt>
<trkpt lat="54.448214" lon="-3.226974"><ele>891</ele><time>2022-03-29T12:02:45Z</time><name>PT2837</name></trkpt>
<trkpt lat="54.448224" lon="-3.226971"><ele>890</ele><time>2022-03-29T12:02:49Z</time><name>PT2838</name></trkpt>
<trkpt lat="54.448221" lon="-3.227003"><ele>890</ele><time>2022-03-29T12:02:53Z</time><name>PT2839</name></trkpt>
<trkpt lat="54.448225" lon="-3.227014"><ele>889</ele><time>2022-03-29T12:02:56Z</time><name>PT2840</name></trkpt>
<trkpt lat="54.448211" lon="-3.227044"><ele>889</ele><time>2022-03-29T12:02:59Z</time><name>PT2841</name></trkpt>
<trkpt lat="54.448183" lon="-3.227061"><ele>890</ele><time>2022-03-29T12:03:03Z</time><name>PT2842</name></trkpt>
<trkpt lat="54.448172" lon="-3.227097"><ele>889</ele><time>2022-03-29T12:03:06Z</time><name>PT2843</name></trkpt>
<trkpt lat="54.448192" lon="-3.227116"><ele>888</ele><time>2022-03-29T12:03:09Z</time><name>PT2844</name></trkpt>
<trkpt lat="54.448205" lon="-3.227127"><ele>887</ele><time>2022-03-29T12:03:13Z</time><name>PT2845</name></trkpt>
<trkpt lat="54.448209" lon="-3.227125"><ele>886</ele><time>2022-03-29T12:03:17Z</time><name>PT2846</name></trkpt>
<trkpt lat="54.448185" lon="-3.227158"><ele>883</ele><time>2022-03-29T12:03:20Z</time><name>PT2847</name></trkpt>
<trkpt lat="54.448182" lon="-3.227191"><ele>882</ele><time>2022-03-29T12:03:24Z</time><name>PT2848</name></trkpt>
<trkpt lat="54.448199" lon="-3.227198"><ele>881</ele><time>2022-03-29T12:03:27Z</time><name>PT2849</name></trkpt>
<trkpt lat="54.448202" lon="-3.227198"><ele>880</ele><time>2022-03-29T12:03:30Z</time><name>PT2850</name></trkpt>
<trkpt lat="54.448188" lon="-3.227206"><ele>879</ele><time>2022-03-29T12:03:33Z</time><name>PT2851</name></trkpt>
<trkpt lat="54.448201" lon="-3.227217"><ele>879</ele><time>2022-03-29T12:03:37Z</time><name>PT2852</name></trkpt>
<trkpt lat="54.448190" lon="-3.227256"><ele>879</ele><time>2022-03-29T12:03:41Z</time><name>PT2853</name></trkpt>
<trkpt lat="54.448191" lon="-3.227294"><ele>878</ele><time>2022-03-29T12:03:45Z</time><name>PT2854</name></trkpt>
<trkpt lat="54.448190" lon="-3.227318"><ele>878</ele><time>2022-03-29T12:03:49Z</time><name>PT2855</name></trkpt>
<trkpt lat="54.448183" lon="-3.227330"><ele>877</ele><time>2022-03-29T12:03:53Z</time><name>PT2856</name></trkpt>
<trkpt lat="54.448184" lon="-3.227339"><ele>877</ele><time>2022-03-29T12:03:56Z</time><name>PT2857</name></trkpt>
<trkpt lat="54.448183" lon="-3.227342"><ele>877</ele><time>2022-03-29T12:03:57Z</time><name>PT2858</name></trkpt>
<trkpt lat="54.448186" lon="-3.227357"><ele>876</ele><time>2022-03-29T12:03:58Z</time><name>PT2859</name></trkpt>
<trkpt lat="54.448194" lon="-3.227373"><ele>877</ele><time>2022-03-29T12:03:59Z</time><name>PT2860</name></trkpt>
<trkpt lat="54.448196" lon="-3.227382"><ele>876</ele><time>2022-03-29T12:04:00Z</time><name>PT2861</name></trkpt>
<trkpt lat="54.448202" lon="-3.227388"><ele>876</ele><time>2022-03-29T12:04:01Z</time><name>PT2862</name></trkpt>
<trkpt lat="54.448205" lon="-3.227394"><ele>876</ele><time>2022-03-29T12:04:02Z</time><name>PT2863</name></trkpt>
<trkpt lat="54.448207" lon="-3.227398"><ele>876</ele><time>2022-03-29T12:04:03Z</time><name>PT2864</name></trkpt>
<trkpt lat="54.448208" lon="-3.227402"><ele>876</ele><time>2022-03-29T12:04:04Z</time><name>PT2865</name></trkpt>
<trkpt lat="54.448212" lon="-3.227419"><ele>876</ele><time>2022-03-29T12:04:05Z</time><name>PT2866</name></trkpt>
<trkpt lat="54.448219" lon="-3.227434"><ele>875</ele><time>2022-03-29T12:04:06Z</time><name>PT2867</name></trkpt>
<trkpt lat="54.448225" lon="-3.227443"><ele>875</ele><time>2022-03-29T12:04:07Z</time><name>PT2868</name></trkpt>
<trkpt lat="54.448230" lon="-3.227445"><ele>875</ele><time>2022-03-29T12:04:08Z</time><name>PT2869</name></trkpt>
<trkpt lat="54.448235" lon="-3.227443"><ele>874</ele><time>2022-03-29T12:04:09Z</time><name>PT2870</name></trkpt>
<trkpt lat="54.448239" lon="-3.227433"><ele>874</ele><time>2022-03-29T12:04:10Z</time><name>PT2871</name></trkpt>
<trkpt lat="54.448242" lon="-3.227430"><ele>874</ele><time>2022-03-29T12:04:11Z</time><name>PT2872</name></trkpt>
<trkpt lat="54.448242" lon="-3.227434"><ele>874</ele><time>2022-03-29T12:04:12Z</time><name>PT2873</name></trkpt>
<trkpt lat="54.448241" lon="-3.227437"><ele>874</ele><time>2022-03-29T12:04:13Z</time><name>PT2874</name></trkpt>
<trkpt lat="54.448240" lon="-3.227439"><ele>874</ele><time>2022-03-29T12:04:14Z</time><name>PT2875</name></trkpt>
<trkpt lat="54.448241" lon="-3.227437"><ele>874</ele><time>2022-03-29T12:04:15Z</time><name>PT2876</name></trkpt>
<trkpt lat="54.448247" lon="-3.227433"><ele>873</ele><time>2022-03-29T12:04:16Z</time><name>PT2877</name></trkpt>
<trkpt lat="54.448255" lon="-3.227430"><ele>873</ele><time>2022-03-29T12:04:17Z</time><name>PT2878</name></trkpt>
<trkpt lat="54.448259" lon="-3.227429"><ele>873</ele><time>2022-03-29T12:04:18Z</time><name>PT2879</name></trkpt>
<trkpt lat="54.448262" lon="-3.227429"><ele>872</ele><time>2022-03-29T12:04:19Z</time><name>PT2880</name></trkpt>
<trkpt lat="54.448266" lon="-3.227442"><ele>872</ele><time>2022-03-29T12:04:20Z</time><name>PT2881</name></trkpt>
<trkpt lat="54.448266" lon="-3.227455"><ele>872</ele><time>2022-03-29T12:04:21Z</time><name>PT2882</name></trkpt>
<trkpt lat="54.448268" lon="-3.227466"><ele>871</ele><time>2022-03-29T12:04:22Z</time><name>PT2883</name></trkpt>
<trkpt lat="54.448268" lon="-3.227469"><ele>871</ele><time>2022-03-29T12:04:23Z</time><name>PT2884</name></trkpt>
<trkpt lat="54.448270" lon="-3.227472"><ele>871</ele><time>2022-03-29T12:04:24Z</time><name>PT2885</name></trkpt>
<trkpt lat="54.448278" lon="-3.227479"><ele>870</ele><time>2022-03-29T12:04:25Z</time><name>PT2886</name></trkpt>
<trkpt lat="54.448288" lon="-3.227491"><ele>871</ele><time>2022-03-29T12:04:26Z</time><name>PT2887</name></trkpt>
<trkpt lat="54.448292" lon="-3.227502"><ele>870</ele><time>2022-03-29T12:04:27Z</time><name>PT2888</name></trkpt>
<trkpt lat="54.448295" lon="-3.227504"><ele>870</ele><time>2022-03-29T12:04:28Z</time><name>PT2889</name></trkpt>
<trkpt lat="54.448300" lon="-3.227507"><ele>870</ele><time>2022-03-29T12:04:29Z</time><name>PT2890</name></trkpt>
<trkpt lat="54.448306" lon="-3.227514"><ele>870</ele><time>2022-03-29T12:04:30Z</time><name>PT2891</name></trkpt>
<trkpt lat="54.448313" lon="-3.227526"><ele>869</ele><time>2022-03-29T12:04:31Z</time><name>PT2892</name></trkpt>
<trkpt lat="54.448319" lon="-3.227540"><ele>869</ele><time>2022-03-29T12:04:32Z</time><name>PT2893</name></trkpt>
<trkpt lat="54.448324" lon="-3.227553"><ele>869</ele><time>2022-03-29T12:04:33Z</time><name>PT2894</name></trkpt>
<trkpt lat="54.448327" lon="-3.227554"><ele>868</ele><time>2022-03-29T12:04:34Z</time><name>PT2895</name></trkpt>
<trkpt lat="54.448333" lon="-3.227552"><ele>868</ele><time>2022-03-29T12:04:35Z</time><name>PT2896</name></trkpt>
<trkpt lat="54.448339" lon="-3.227561"><ele>867</ele><time>2022-03-29T12:04:36Z</time><name>PT2897</name></trkpt>
<trkpt lat="54.448345" lon="-3.227570"><ele>867</ele><time>2022-03-29T12:04:37Z</time><name>PT2898</name></trkpt>
<trkpt lat="54.448351" lon="-3.227576"><ele>868</ele><time>2022-03-29T12:04:38Z</time><name>PT2899</name></trkpt>
<trkpt lat="54.448348" lon="-3.227571"><ele>868</ele><time>2022-03-29T12:04:39Z</time><name>PT2900</name></trkpt>
<trkpt lat="54.448349" lon="-3.227576"><ele>867</ele><time>2022-03-29T12:04:40Z</time><name>PT2901</name></trkpt>
<trkpt lat="54.448362" lon="-3.227590"><ele>866</ele><time>2022-03-29T12:04:41Z</time><name>PT2902</name></trkpt>
<trkpt lat="54.448372" lon="-3.227597"><ele>867</ele><time>2022-03-29T12:04:42Z</time><name>PT2903</name></trkpt>
<trkpt lat="54.448375" lon="-3.227608"><ele>867</ele><time>2022-03-29T12:04:43Z</time><name>PT2904</name></trkpt>
<trkpt lat="54.448378" lon="-3.227612"><ele>867</ele><time>2022-03-29T12:04:44Z</time><name>PT2905</name></trkpt>
<trkpt lat="54.448378" lon="-3.227608"><ele>866</ele><time>2022-03-29T12:04:45Z</time><name>PT2906</name></trkpt>
<trkpt lat="54.448379" lon="-3.227607"><ele>866</ele><time>2022-03-29T12:04:46Z</time><name>PT2907</name></trkpt>
<trkpt lat="54.448379" lon="-3.227607"><ele>866</ele><time>2022-03-29T12:04:47Z</time><name>PT2908</name></trkpt>
<trkpt lat="54.448385" lon="-3.227606"><ele>865</ele><time>2022-03-29T12:04:48Z</time><name>PT2909</name></trkpt>
<trkpt lat="54.448390" lon="-3.227611"><ele>864</ele><time>2022-03-29T12:04:49Z</time><name>PT2910</name></trkpt>
<trkpt lat="54.448397" lon="-3.227621"><ele>864</ele><time>2022-03-29T12:04:50Z</time><name>PT2911</name></trkpt>
<trkpt lat="54.448403" lon="-3.227624"><ele>864</ele><time>2022-03-29T12:04:51Z</time><name>PT2912</name></trkpt>
<trkpt lat="54.448405" lon="-3.227628"><ele>864</ele><time>2022-03-29T12:04:52Z</time><name>PT2913</name></trkpt>
<trkpt lat="54.448401" lon="-3.227648"><ele>864</ele><time>2022-03-29T12:04:53Z</time><name>PT2914</name></trkpt>
<trkpt lat="54.448396" lon="-3.227665"><ele>863</ele><time>2022-03-29T12:04:54Z</time><name>PT2915</name></trkpt>
<trkpt lat="54.448400" lon="-3.227673"><ele>864</ele><time>2022-03-29T12:04:55Z</time><name>PT2916</name></trkpt>
<trkpt lat="54.448401" lon="-3.227672"><ele>863</ele><time>2022-03-29T12:04:56Z</time><name>PT2917</name></trkpt>
<trkpt lat="54.448400" lon="-3.227669"><ele>862</ele><time>2022-03-29T12:04:57Z</time><name>PT2918</name></trkpt>
<trkpt lat="54.448392" lon="-3.227677"><ele>862</ele><time>2022-03-29T12:04:58Z</time><name>PT2919</name></trkpt>
<trkpt lat="54.448383" lon="-3.227690"><ele>862</ele><time>2022-03-29T12:04:59Z</time><name>PT2920</name></trkpt>
<trkpt lat="54.448375" lon="-3.227700"><ele>862</ele><time>2022-03-29T12:05:00Z</time><name>PT2921</name></trkpt>
<trkpt lat="54.448372" lon="-3.227697"><ele>862</ele><time>2022-03-29T12:05:01Z</time><name>PT2922</name></trkpt>
<trkpt lat="54.448369" lon="-3.227701"><ele>862</ele><time>2022-03-29T12:05:02Z</time><name>PT2923</name></trkpt>
<trkpt lat="54.448369" lon="-3.227712"><ele>862</ele><time>2022-03-29T12:05:03Z</time><name>PT2924</name></trkpt>
<trkpt lat="54.448371" lon="-3.227717"><ele>862</ele><time>2022-03-29T12:05:04Z</time><name>PT2925</name></trkpt>
<trkpt lat="54.448373" lon="-3.227721"><ele>862</ele><time>2022-03-29T12:05:05Z</time><name>PT2926</name></trkpt>
<trkpt lat="54.448376" lon="-3.227731"><ele>861</ele><time>2022-03-29T12:05:06Z</time><name>PT2927</name></trkpt>
<trkpt lat="54.448380" lon="-3.227743"><ele>861</ele><time>2022-03-29T12:05:07Z</time><name>PT2928</name></trkpt>
<trkpt lat="54.448382" lon="-3.227753"><ele>861</ele><time>2022-03-29T12:05:08Z</time><name>PT2929</name></trkpt>
<trkpt lat="54.448380" lon="-3.227755"><ele>861</ele><time>2022-03-29T12:05:09Z</time><name>PT2930</name></trkpt>
<trkpt lat="54.448381" lon="-3.227760"><ele>862</ele><time>2022-03-29T12:05:10Z</time><name>PT2931</name></trkpt>
<trkpt lat="54.448379" lon="-3.227773"><ele>862</ele><time>2022-03-29T12:05:11Z</time><name>PT2932</name></trkpt>
<trkpt lat="54.448379" lon="-3.227779"><ele>861</ele><time>2022-03-29T12:05:12Z</time><name>PT2933</name></trkpt>
<trkpt lat="54.448384" lon="-3.227785"><ele>861</ele><time>2022-03-29T12:05:13Z</time><name>PT2934</name></trkpt>
<trkpt lat="54.448386" lon="-3.227790"><ele>861</ele><time>2022-03-29T12:05:14Z</time><name>PT2935</name></trkpt>
<trkpt lat="54.448389" lon="-3.227797"><ele>860</ele><time>2022-03-29T12:05:15Z</time><name>PT2936</name></trkpt>
<trkpt lat="54.448393" lon="-3.227809"><ele>860</ele><time>2022-03-29T12:05:16Z</time><name>PT2937</name></trkpt>
<trkpt lat="54.448398" lon="-3.227821"><ele>860</ele><time>2022-03-29T12:05:17Z</time><name>PT2938</name></trkpt>
<trkpt lat="54.448400" lon="-3.227834"><ele>859</ele><time>2022-03-29T12:05:18Z</time><name>PT2939</name></trkpt>
<trkpt lat="54.448399" lon="-3.227844"><ele>859</ele><time>2022-03-29T12:05:19Z</time><name>PT2940</name></trkpt>
<trkpt lat="54.448396" lon="-3.227851"><ele>859</ele><time>2022-03-29T12:05:20Z</time><name>PT2941</name></trkpt>
<trkpt lat="54.448393" lon="-3.227851"><ele>859</ele><time>2022-03-29T12:05:21Z</time><name>PT2942</name></trkpt>
<trkpt lat="54.448393" lon="-3.227848"><ele>858</ele><time>2022-03-29T12:05:22Z</time><name>PT2943</name></trkpt>
<trkpt lat="54.448393" lon="-3.227853"><ele>858</ele><time>2022-03-29T12:05:23Z</time><name>PT2944</name></trkpt>
<trkpt lat="54.448400" lon="-3.227870"><ele>858</ele><time>2022-03-29T12:05:24Z</time><name>PT2945</name></trkpt>
<trkpt lat="54.448402" lon="-3.227881"><ele>857</ele><time>2022-03-29T12:05:25Z</time><name>PT2946</name></trkpt>
<trkpt lat="54.448398" lon="-3.227881"><ele>857</ele><time>2022-03-29T12:05:26Z</time><name>PT2947</name></trkpt>
<trkpt lat="54.448400" lon="-3.227877"><ele>857</ele><time>2022-03-29T12:05:27Z</time><name>PT2948</name></trkpt>
<trkpt lat="54.448399" lon="-3.227880"><ele>857</ele><time>2022-03-29T12:05:28Z</time><name>PT2949</name></trkpt>
<trkpt lat="54.448400" lon="-3.227882"><ele>857</ele><time>2022-03-29T12:05:29Z</time><name>PT2950</name></trkpt>
<trkpt lat="54.448401" lon="-3.227892"><ele>856</ele><time>2022-03-29T12:05:30Z</time><name>PT2951</name></trkpt>
<trkpt lat="54.448401" lon="-3.227912"><ele>856</ele><time>2022-03-29T12:05:31Z</time><name>PT2952</name></trkpt>
<trkpt lat="54.448402" lon="-3.227923"><ele>856</ele><time>2022-03-29T12:05:32Z</time><name>PT2953</name></trkpt>
<trkpt lat="54.448401" lon="-3.227932"><ele>856</ele><time>2022-03-29T12:05:33Z</time><name>PT2954</name></trkpt>
<trkpt lat="54.448401" lon="-3.227945"><ele>855</ele><time>2022-03-29T12:05:34Z</time><name>PT2955</name></trkpt>
<trkpt lat="54.448404" lon="-3.227951"><ele>855</ele><time>2022-03-29T12:05:35Z</time><name>PT2956</name></trkpt>
<trkpt lat="54.448405" lon="-3.227953"><ele>854</ele><time>2022-03-29T12:05:36Z</time><name>PT2957</name></trkpt>
<trkpt lat="54.448404" lon="-3.227957"><ele>854</ele><time>2022-03-29T12:05:37Z</time><name>PT2958</name></trkpt>
<trkpt lat="54.448402" lon="-3.227962"><ele>854</ele><time>2022-03-29T12:05:38Z</time><name>PT2959</name></trkpt>
<trkpt lat="54.448401" lon="-3.227972"><ele>854</ele><time>2022-03-29T12:05:39Z</time><name>PT2960</name></trkpt>
<trkpt lat="54.448400" lon="-3.227977"><ele>854</ele><time>2022-03-29T12:05:40Z</time><name>PT2961</name></trkpt>
<trkpt lat="54.448399" lon="-3.227981"><ele>854</ele><time>2022-03-29T12:05:41Z</time><name>PT2962</name></trkpt>
<trkpt lat="54.448392" lon="-3.227996"><ele>854</ele><time>2022-03-29T12:05:42Z</time><name>PT2963</name></trkpt>
<trkpt lat="54.448385" lon="-3.228012"><ele>854</ele><time>2022-03-29T12:05:43Z</time><name>PT2964</name></trkpt>
<trkpt lat="54.448379" lon="-3.228030"><ele>854</ele><time>2022-03-29T12:05:44Z</time><name>PT2965</name></trkpt>
<trkpt lat="54.448372" lon="-3.228047"><ele>854</ele><time>2022-03-29T12:05:45Z</time><name>PT2966</name></trkpt>
<trkpt lat="54.448366" lon="-3.228064"><ele>854</ele><time>2022-03-29T12:05:46Z</time><name>PT2967</name></trkpt>
<trkpt lat="54.448360" lon="-3.228087"><ele>854</ele><time>2022-03-29T12:05:47Z</time><name>PT2968</name></trkpt>
<trkpt lat="54.448358" lon="-3.228106"><ele>853</ele><time>2022-03-29T12:05:48Z</time><name>PT2969</name></trkpt>
<trkpt lat="54.448351" lon="-3.228122"><ele>853</ele><time>2022-03-29T12:05:49Z</time><name>PT2970</name></trkpt>
<trkpt lat="54.448346" lon="-3.228141"><ele>853</ele><time>2022-03-29T12:05:50Z</time><name>PT2971</name></trkpt>
<trkpt lat="54.448345" lon="-3.228154"><ele>853</ele><time>2022-03-29T12:05:51Z</time><name>PT2972</name></trkpt>
<trkpt lat="54.448348" lon="-3.228166"><ele>853</ele><time>2022-03-29T12:05:52Z</time><name>PT2973</name></trkpt>
<trkpt lat="54.448382" lon="-3.228176"><ele>853</ele><time>2022-03-29T12:05:56Z</time><name>PT2974</name></trkpt>
<trkpt lat="54.448411" lon="-3.228202"><ele>852</ele><time>2022-03-29T12:05:59Z</time><name>PT2975</name></trkpt>
<trkpt lat="54.448440" lon="-3.228225"><ele>853</ele><time>2022-03-29T12:06:02Z</time><name>PT2976</name></trkpt>
<trkpt lat="54.448435" lon="-3.228266"><ele>852</ele><time>2022-03-29T12:06:05Z</time><name>PT2977</name></trkpt>
<trkpt lat="54.448445" lon="-3.228266"><ele>851</ele><time>2022-03-29T12:06:09Z</time><name>PT2978</name></trkpt>
<trkpt lat="54.448444" lon="-3.228260"><ele>849</ele><time>2022-03-29T12:06:12Z</time><name>PT2979</name></trkpt>
<trkpt lat="54.448463" lon="-3.228293"><ele>848</ele><time>2022-03-29T12:06:16Z</time><name>PT2980</name></trkpt>
<trkpt lat="54.448460" lon="-3.228318"><ele>847</ele><time>2022-03-29T12:06:19Z</time><name>PT2981</name></trkpt>
<trkpt lat="54.448447" lon="-3.228361"><ele>847</ele><time>2022-03-29T12:06:23Z</time><name>PT2982</name></trkpt>
<trkpt lat="54.448443" lon="-3.228376"><ele>846</ele><time>2022-03-29T12:06:26Z</time><name>PT2983</name></trkpt>
<trkpt lat="54.448436" lon="-3.228373"><ele>845</ele><time>2022-03-29T12:06:29Z</time><name>PT2984</name></trkpt>
<trkpt lat="54.448447" lon="-3.228361"><ele>844</ele><time>2022-03-29T12:06:33Z</time><name>PT2985</name></trkpt>
<trkpt lat="54.448455" lon="-3.228397"><ele>844</ele><time>2022-03-29T12:06:37Z</time><name>PT2986</name></trkpt>
<trkpt lat="54.448444" lon="-3.228447"><ele>843</ele><time>2022-03-29T12:06:40Z</time><name>PT2987</name></trkpt>
<trkpt lat="54.448438" lon="-3.228459"><ele>842</ele><time>2022-03-29T12:06:44Z</time><name>PT2988</name></trkpt>
<trkpt lat="54.448448" lon="-3.228473"><ele>841</ele><time>2022-03-29T12:06:48Z</time><name>PT2989</name></trkpt>
<trkpt lat="54.448457" lon="-3.228482"><ele>840</ele><time>2022-03-29T12:06:51Z</time><name>PT2990</name></trkpt>
<trkpt lat="54.448456" lon="-3.228477"><ele>840</ele><time>2022-03-29T12:06:54Z</time><name>PT2991</name></trkpt>
<trkpt lat="54.448444" lon="-3.228530"><ele>839</ele><time>2022-03-29T12:06:58Z</time><name>PT2992</name></trkpt>
<trkpt lat="54.448465" lon="-3.228576"><ele>839</ele><time>2022-03-29T12:07:01Z</time><name>PT2993</name></trkpt>
<trkpt lat="54.448479" lon="-3.228583"><ele>838</ele><time>2022-03-29T12:07:04Z</time><name>PT2994</name></trkpt>
<trkpt lat="54.448508" lon="-3.228589"><ele>837</ele><time>2022-03-29T12:07:08Z</time><name>PT2995</name></trkpt>
<trkpt lat="54.448520" lon="-3.228638"><ele>836</ele><time>2022-03-29T12:07:12Z</time><name>PT2996</name></trkpt>
<trkpt lat="54.448515" lon="-3.228638"><ele>835</ele><time>2022-03-29T12:07:15Z</time><name>PT2997</name></trkpt>
<trkpt lat="54.448514" lon="-3.228651"><ele>833</ele><time>2022-03-29T12:07:19Z</time><name>PT2998</name></trkpt>
<trkpt lat="54.448509" lon="-3.228649"><ele>833</ele><time>2022-03-29T12:07:22Z</time><name>PT2999</name></trkpt>
<trkpt lat="54.448513" lon="-3.228656"><ele>833</ele><time>2022-03-29T12:07:26Z</time><name>PT3000</name></trkpt>
<trkpt lat="54.448522" lon="-3.228650"><ele>832</ele><time>2022-03-29T12:07:29Z</time><name>PT3001</name></trkpt>
<trkpt lat="54.448523" lon="-3.228660"><ele>831</ele><time>2022-03-29T12:07:32Z</time><name>PT3002</name></trkpt>
<trkpt lat="54.448538" lon="-3.228718"><ele>831</ele><time>2022-03-29T12:07:37Z</time><name>PT3003</name></trkpt>
<trkpt lat="54.448544" lon="-3.228725"><ele>829</ele><time>2022-03-29T12:07:41Z</time><name>PT3004</name></trkpt>
<trkpt lat="54.448539" lon="-3.228752"><ele>828</ele><time>2022-03-29T12:07:45Z</time><name>PT3005</name></trkpt>
<trkpt lat="54.448519" lon="-3.228810"><ele>826</ele><time>2022-03-29T12:07:49Z</time><name>PT3006</name></trkpt>
<trkpt lat="54.448520" lon="-3.228825"><ele>826</ele><time>2022-03-29T12:07:52Z</time><name>PT3007</name></trkpt>
<trkpt lat="54.448529" lon="-3.228835"><ele>825</ele><time>2022-03-29T12:07:55Z</time><name>PT3008</name></trkpt>
<trkpt lat="54.448533" lon="-3.228853"><ele>824</ele><time>2022-03-29T12:07:59Z</time><name>PT3009</name></trkpt>
<trkpt lat="54.448525" lon="-3.228873"><ele>823</ele><time>2022-03-29T12:08:03Z</time><name>PT3010</name></trkpt>
<trkpt lat="54.448530" lon="-3.228910"><ele>822</ele><time>2022-03-29T12:08:07Z</time><name>PT3011</name></trkpt>
<trkpt lat="54.448527" lon="-3.228937"><ele>822</ele><time>2022-03-29T12:08:11Z</time><name>PT3012</name></trkpt>
<trkpt lat="54.448528" lon="-3.228958"><ele>822</ele><time>2022-03-29T12:08:14Z</time><name>PT3013</name></trkpt>
<trkpt lat="54.448514" lon="-3.229018"><ele>821</ele><time>2022-03-29T12:08:18Z</time><name>PT3014</name></trkpt>
<trkpt lat="54.448516" lon="-3.229050"><ele>821</ele><time>2022-03-29T12:08:22Z</time><name>PT3015</name></trkpt>
<trkpt lat="54.448508" lon="-3.229067"><ele>818</ele><time>2022-03-29T12:08:26Z</time><name>PT3016</name></trkpt>
<trkpt lat="54.448509" lon="-3.229092"><ele>818</ele><time>2022-03-29T12:08:30Z</time><name>PT3017</name></trkpt>
<trkpt lat="54.448505" lon="-3.229123"><ele>816</ele><time>2022-03-29T12:08:34Z</time><name>PT3018</name></trkpt>
<trkpt lat="54.448525" lon="-3.229143"><ele>816</ele><time>2022-03-29T12:08:37Z</time><name>PT3019</name></trkpt>
<trkpt lat="54.448536" lon="-3.229175"><ele>815</ele><time>2022-03-29T12:08:41Z</time><name>PT3020</name></trkpt>
<trkpt lat="54.448543" lon="-3.229200"><ele>815</ele><time>2022-03-29T12:08:45Z</time><name>PT3021</name></trkpt>
<trkpt lat="54.448543" lon="-3.229202"><ele>814</ele><time>2022-03-29T12:08:48Z</time><name>PT3022</name></trkpt>
<trkpt lat="54.448556" lon="-3.229197"><ele>813</ele><time>2022-03-29T12:08:52Z</time><name>PT3023</name></trkpt>
<trkpt lat="54.448535" lon="-3.229229"><ele>812</ele><time>2022-03-29T12:08:56Z</time><name>PT3024</name></trkpt>
<trkpt lat="54.448546" lon="-3.229291"><ele>813</ele><time>2022-03-29T12:08:59Z</time><name>PT3025</name></trkpt>
<trkpt lat="54.448571" lon="-3.229351"><ele>812</ele><time>2022-03-29T12:09:02Z</time><name>PT3026</name></trkpt>
<trkpt lat="54.448595" lon="-3.229365"><ele>811</ele><time>2022-03-29T12:09:05Z</time><name>PT3027</name></trkpt>
<trkpt lat="54.448600" lon="-3.229366"><ele>810</ele><time>2022-03-29T12:09:09Z</time><name>PT3028</name></trkpt>
<trkpt lat="54.448590" lon="-3.229397"><ele>809</ele><time>2022-03-29T12:09:12Z</time><name>PT3029</name></trkpt>
<trkpt lat="54.448591" lon="-3.229399"><ele>810</ele><time>2022-03-29T12:09:15Z</time><name>PT3030</name></trkpt>
<trkpt lat="54.448586" lon="-3.229417"><ele>808</ele><time>2022-03-29T12:09:18Z</time><name>PT3031</name></trkpt>
<trkpt lat="54.448574" lon="-3.229458"><ele>807</ele><time>2022-03-29T12:09:22Z</time><name>PT3032</name></trkpt>
<trkpt lat="54.448586" lon="-3.229501"><ele>806</ele><time>2022-03-29T12:09:25Z</time><name>PT3033</name></trkpt>
<trkpt lat="54.448586" lon="-3.229519"><ele>805</ele><time>2022-03-29T12:09:28Z</time><name>PT3034</name></trkpt>
<trkpt lat="54.448574" lon="-3.229577"><ele>805</ele><time>2022-03-29T12:09:32Z</time><name>PT3035</name></trkpt>
<trkpt lat="54.448575" lon="-3.229593"><ele>804</ele><time>2022-03-29T12:09:35Z</time><name>PT3036</name></trkpt>
<trkpt lat="54.448573" lon="-3.229597"><ele>804</ele><time>2022-03-29T12:09:38Z</time><name>PT3037</name></trkpt>
<trkpt lat="54.448569" lon="-3.229612"><ele>804</ele><time>2022-03-29T12:09:42Z</time><name>PT3038</name></trkpt>
<trkpt lat="54.448550" lon="-3.229654"><ele>803</ele><time>2022-03-29T12:09:45Z</time><name>PT3039</name></trkpt>
<trkpt lat="54.448549" lon="-3.229664"><ele>803</ele><time>2022-03-29T12:09:48Z</time><name>PT3040</name></trkpt>
<trkpt lat="54.448564" lon="-3.229697"><ele>801</ele><time>2022-03-29T12:09:52Z</time><name>PT3041</name></trkpt>
<trkpt lat="54.448560" lon="-3.229744"><ele>801</ele><time>2022-03-29T12:09:55Z</time><name>PT3042</name></trkpt>
<trkpt lat="54.448568" lon="-3.229789"><ele>800</ele><time>2022-03-29T12:09:58Z</time><name>PT3043</name></trkpt>
<trkpt lat="54.448586" lon="-3.229804"><ele>799</ele><time>2022-03-29T12:10:02Z</time><name>PT3044</name></trkpt>
<trkpt lat="54.448593" lon="-3.229851"><ele>798</ele><time>2022-03-29T12:10:06Z</time><name>PT3045</name></trkpt>
<trkpt lat="54.448569" lon="-3.229876"><ele>797</ele><time>2022-03-29T12:10:09Z</time><name>PT3046</name></trkpt>
<trkpt lat="54.448534" lon="-3.229910"><ele>796</ele><time>2022-03-29T12:10:13Z</time><name>PT3047</name></trkpt>
<trkpt lat="54.448522" lon="-3.229935"><ele>794</ele><time>2022-03-29T12:10:17Z</time><name>PT3048</name></trkpt>
<trkpt lat="54.448519" lon="-3.229945"><ele>793</ele><time>2022-03-29T12:10:21Z</time><name>PT3049</name></trkpt>
<trkpt lat="54.448512" lon="-3.229980"><ele>791</ele><time>2022-03-29T12:10:25Z</time><name>PT3050</name></trkpt>
<trkpt lat="54.448515" lon="-3.229981"><ele>791</ele><time>2022-03-29T12:10:28Z</time><name>PT3051</name></trkpt>
<trkpt lat="54.448513" lon="-3.229980"><ele>791</ele><time>2022-03-29T12:10:31Z</time><name>PT3052</name></trkpt>
<trkpt lat="54.448496" lon="-3.229990"><ele>790</ele><time>2022-03-29T12:10:35Z</time><name>PT3053</name></trkpt>
<trkpt lat="54.448483" lon="-3.230014"><ele>790</ele><time>2022-03-29T12:10:38Z</time><name>PT3054</name></trkpt>
<trkpt lat="54.448466" lon="-3.230041"><ele>789</ele><time>2022-03-29T12:10:42Z</time><name>PT3055</name></trkpt>
<trkpt lat="54.448464" lon="-3.230059"><ele>788</ele><time>2022-03-29T12:10:46Z</time><name>PT3056</name></trkpt>
<trkpt lat="54.448461" lon="-3.230077"><ele>786</ele><time>2022-03-29T12:10:49Z</time><name>PT3057</name></trkpt>
<trkpt lat="54.448460" lon="-3.230114"><ele>785</ele><time>2022-03-29T12:10:53Z</time><name>PT3058</name></trkpt>
<trkpt lat="54.448468" lon="-3.230159"><ele>784</ele><time>2022-03-29T12:10:56Z</time><name>PT3059</name></trkpt>
<trkpt lat="54.448480" lon="-3.230168"><ele>784</ele><time>2022-03-29T12:10:59Z</time><name>PT3060</name></trkpt>
<trkpt lat="54.448473" lon="-3.230184"><ele>783</ele><time>2022-03-29T12:11:02Z</time><name>PT3061</name></trkpt>
<trkpt lat="54.448436" lon="-3.230227"><ele>783</ele><time>2022-03-29T12:11:06Z</time><name>PT3062</name></trkpt>
<trkpt lat="54.448430" lon="-3.230234"><ele>783</ele><time>2022-03-29T12:11:10Z</time><name>PT3063</name></trkpt>
<trkpt lat="54.448421" lon="-3.230241"><ele>783</ele><time>2022-03-29T12:11:13Z</time><name>PT3064</name></trkpt>
<trkpt lat="54.448428" lon="-3.230266"><ele>782</ele><time>2022-03-29T12:11:17Z</time><name>PT3065</name></trkpt>
<trkpt lat="54.448427" lon="-3.230288"><ele>781</ele><time>2022-03-29T12:11:20Z</time><name>PT3066</name></trkpt>
<trkpt lat="54.448435" lon="-3.230302"><ele>780</ele><time>2022-03-29T12:11:24Z</time><name>PT3067</name></trkpt>
<trkpt lat="54.448433" lon="-3.230323"><ele>780</ele><time>2022-03-29T12:11:27Z</time><name>PT3068</name></trkpt>
<trkpt lat="54.448436" lon="-3.230310"><ele>779</ele><time>2022-03-29T12:11:30Z</time><name>PT3069</name></trkpt>
<trkpt lat="54.448436" lon="-3.230317"><ele>779</ele><time>2022-03-29T12:11:33Z</time><name>PT3070</name></trkpt>
<trkpt lat="54.448426" lon="-3.230345"><ele>778</ele><time>2022-03-29T12:11:37Z</time><name>PT3071</name></trkpt>
<trkpt lat="54.448401" lon="-3.230364"><ele>779</ele><time>2022-03-29T12:11:40Z</time><name>PT3072</name></trkpt>
<trkpt lat="54.448399" lon="-3.230373"><ele>778</ele><time>2022-03-29T12:11:41Z</time><name>PT3073</name></trkpt>
<trkpt lat="54.448397" lon="-3.230383"><ele>778</ele><time>2022-03-29T12:11:42Z</time><name>PT3074</name></trkpt>
<trkpt lat="54.448395" lon="-3.230391"><ele>778</ele><time>2022-03-29T12:11:43Z</time><name>PT3075</name></trkpt>
<trkpt lat="54.448394" lon="-3.230399"><ele>777</ele><time>2022-03-29T12:11:44Z</time><name>PT3076</name></trkpt>
<trkpt lat="54.448395" lon="-3.230411"><ele>777</ele><time>2022-03-29T12:11:45Z</time><name>PT3077</name></trkpt>
<trkpt lat="54.448396" lon="-3.230422"><ele>777</ele><time>2022-03-29T12:11:46Z</time><name>PT3078</name></trkpt>
<trkpt lat="54.448396" lon="-3.230435"><ele>777</ele><time>2022-03-29T12:11:47Z</time><name>PT3079</name></trkpt>
<trkpt lat="54.448399" lon="-3.230447"><ele>777</ele><time>2022-03-29T12:11:48Z</time><name>PT3080</name></trkpt>
<trkpt lat="54.448400" lon="-3.230459"><ele>777</ele><time>2022-03-29T12:11:49Z</time><name>PT3081</name></trkpt>
<trkpt lat="54.448400" lon="-3.230469"><ele>777</ele><time>2022-03-29T12:11:50Z</time><name>PT3082</name></trkpt>
<trkpt lat="54.448400" lon="-3.230478"><ele>776</ele><time>2022-03-29T12:11:51Z</time><name>PT3083</name></trkpt>
<trkpt lat="54.448401" lon="-3.230487"><ele>776</ele><time>2022-03-29T12:11:52Z</time><name>PT3084</name></trkpt>
<trkpt lat="54.448402" lon="-3.230492"><ele>776</ele><time>2022-03-29T12:11:53Z</time><name>PT3085</name></trkpt>
<trkpt lat="54.448403" lon="-3.230497"><ele>776</ele><time>2022-03-29T12:11:54Z</time><name>PT3086</name></trkpt>
<trkpt lat="54.448403" lon="-3.230505"><ele>776</ele><time>2022-03-29T12:11:55Z</time><name>PT3087</name></trkpt>
<trkpt lat="54.448401" lon="-3.230512"><ele>776</ele><time>2022-03-29T12:11:56Z</time><name>PT3088</name></trkpt>
<trkpt lat="54.448402" lon="-3.230517"><ele>776</ele><time>2022-03-29T12:11:57Z</time><name>PT3089</name></trkpt>
<trkpt lat="54.448401" lon="-3.230517"><ele>776</ele><time>2022-03-29T12:11:58Z</time><name>PT3090</name></trkpt>
<trkpt lat="54.448402" lon="-3.230518"><ele>776</ele><time>2022-03-29T12:11:59Z</time><name>PT3091</name></trkpt>
<trkpt lat="54.448401" lon="-3.230517"><ele>776</ele><time>2022-03-29T12:12:00Z</time><name>PT3092</name></trkpt>
<trkpt lat="54.448402" lon="-3.230519"><ele>776</ele><time>2022-03-29T12:12:01Z</time><name>PT3093</name></trkpt>
<trkpt lat="54.448403" lon="-3.230521"><ele>776</ele><time>2022-03-29T12:12:02Z</time><name>PT3094</name></trkpt>
<trkpt lat="54.448403" lon="-3.230522"><ele>776</ele><time>2022-03-29T12:12:03Z</time><name>PT3095</name></trkpt>
<trkpt lat="54.448403" lon="-3.230523"><ele>776</ele><time>2022-03-29T12:12:04Z</time><name>PT3096</name></trkpt>
<trkpt lat="54.448404" lon="-3.230523"><ele>776</ele><time>2022-03-29T12:12:07Z</time><name>PT3097</name></trkpt>
<trkpt lat="54.448406" lon="-3.230518"><ele>776</ele><time>2022-03-29T12:12:08Z</time><name>PT3098</name></trkpt>
<trkpt lat="54.448406" lon="-3.230523"><ele>776</ele><time>2022-03-29T12:12:09Z</time><name>PT3099</name></trkpt>
<trkpt lat="54.448408" lon="-3.230525"><ele>775</ele><time>2022-03-29T12:12:10Z</time><name>PT3100</name></trkpt>
<trkpt lat="54.448408" lon="-3.230523"><ele>775</ele><time>2022-03-29T12:12:11Z</time><name>PT3101</name></trkpt>
<trkpt lat="54.448406" lon="-3.230518"><ele>775</ele><time>2022-03-29T12:12:12Z</time><name>PT3102</name></trkpt>
<trkpt lat="54.448401" lon="-3.230523"><ele>775</ele><time>2022-03-29T12:12:13Z</time><name>PT3103</name></trkpt>
<trkpt lat="54.448401" lon="-3.230526"><ele>776</ele><time>2022-03-29T12:12:14Z</time><name>PT3104</name></trkpt>
<trkpt lat="54.448400" lon="-3.230524"><ele>775</ele><time>2022-03-29T12:12:15Z</time><name>PT3105</name></trkpt>
<trkpt lat="54.448399" lon="-3.230524"><ele>775</ele><time>2022-03-29T12:12:16Z</time><name>PT3106</name></trkpt>
<trkpt lat="54.448401" lon="-3.230518"><ele>776</ele><time>2022-03-29T12:12:25Z</time><name>PT3107</name></trkpt>
<trkpt lat="54.448409" lon="-3.230524"><ele>776</ele><time>2022-03-29T12:12:26Z</time><name>PT3108</name></trkpt>
<trkpt lat="54.448408" lon="-3.230519"><ele>776</ele><time>2022-03-29T12:12:27Z</time><name>PT3109</name></trkpt>
<trkpt lat="54.448408" lon="-3.230516"><ele>776</ele><time>2022-03-29T12:12:28Z</time><name>PT3110</name></trkpt>
<trkpt lat="54.448408" lon="-3.230517"><ele>776</ele><time>2022-03-29T12:12:29Z</time><name>PT3111</name></trkpt>
<trkpt lat="54.448406" lon="-3.230516"><ele>776</ele><time>2022-03-29T12:12:30Z</time><name>PT3112</name></trkpt>
<trkpt lat="54.448405" lon="-3.230512"><ele>776</ele><time>2022-03-29T12:12:31Z</time><name>PT3113</name></trkpt>
<trkpt lat="54.448403" lon="-3.230514"><ele>776</ele><time>2022-03-29T12:12:32Z</time><name>PT3114</name></trkpt>
<trkpt lat="54.448406" lon="-3.230508"><ele>776</ele><time>2022-03-29T12:13:21Z</time><name>PT3115</name></trkpt>
<trkpt lat="54.448407" lon="-3.230510"><ele>776</ele><time>2022-03-29T12:13:22Z</time><name>PT3116</name></trkpt>
<trkpt lat="54.448405" lon="-3.230512"><ele>776</ele><time>2022-03-29T12:13:23Z</time><name>PT3117</name></trkpt>
<trkpt lat="54.448403" lon="-3.230515"><ele>776</ele><time>2022-03-29T12:13:24Z</time><name>PT3118</name></trkpt>
<trkpt lat="54.448402" lon="-3.230517"><ele>776</ele><time>2022-03-29T12:13:25Z</time><name>PT3119</name></trkpt>
<trkpt lat="54.448402" lon="-3.230518"><ele>776</ele><time>2022-03-29T12:13:26Z</time><name>PT3120</name></trkpt>
<trkpt lat="54.448400" lon="-3.230525"><ele>775</ele><time>2022-03-29T12:13:38Z</time><name>PT3121</name></trkpt>
<trkpt lat="54.448400" lon="-3.230527"><ele>775</ele><time>2022-03-29T12:13:39Z</time><name>PT3122</name></trkpt>
<trkpt lat="54.448399" lon="-3.230529"><ele>775</ele><time>2022-03-29T12:13:40Z</time><name>PT3123</name></trkpt>
<trkpt lat="54.448400" lon="-3.230528"><ele>775</ele><time>2022-03-29T12:13:41Z</time><name>PT3124</name></trkpt>
<trkpt lat="54.448401" lon="-3.230532"><ele>775</ele><time>2022-03-29T12:13:45Z</time><name>PT3125</name></trkpt>
<trkpt lat="54.448401" lon="-3.230532"><ele>775</ele><time>2022-03-29T12:13:49Z</time><name>PT3126</name></trkpt>
<trkpt lat="54.448398" lon="-3.230532"><ele>775</ele><time>2022-03-29T12:14:27Z</time><name>PT3127</name></trkpt>
<trkpt lat="54.448399" lon="-3.230542"><ele>775</ele><time>2022-03-29T12:14:31Z</time><name>PT3128</name></trkpt>
<trkpt lat="54.448400" lon="-3.230544"><ele>774</ele><time>2022-03-29T12:14:38Z</time><name>PT3129</name></trkpt>
<trkpt lat="54.448400" lon="-3.230546"><ele>774</ele><time>2022-03-29T12:14:41Z</time><name>PT3130</name></trkpt>
<trkpt lat="54.448402" lon="-3.230547"><ele>774</ele><time>2022-03-29T12:14:45Z</time><name>PT3131</name></trkpt>
<trkpt lat="54.448401" lon="-3.230551"><ele>774</ele><time>2022-03-29T12:14:49Z</time><name>PT3132</name></trkpt>
<trkpt lat="54.448402" lon="-3.230556"><ele>774</ele><time>2022-03-29T12:15:03Z</time><name>PT3133</name></trkpt>
<trkpt lat="54.448410" lon="-3.230564"><ele>774</ele><time>2022-03-29T12:15:06Z</time><name>PT3134</name></trkpt>
<trkpt lat="54.448418" lon="-3.230583"><ele>773</ele><time>2022-03-29T12:15:10Z</time><name>PT3135</name></trkpt>
<trkpt lat="54.448446" lon="-3.230592"><ele>773</ele><time>2022-03-29T12:15:14Z</time><name>PT3136</name></trkpt>
<trkpt lat="54.448464" lon="-3.230603"><ele>772</ele><time>2022-03-29T12:15:17Z</time><name>PT3137</name></trkpt>
<trkpt lat="54.448463" lon="-3.230629"><ele>772</ele><time>2022-03-29T12:15:20Z</time><name>PT3138</name></trkpt>
<trkpt lat="54.448472" lon="-3.230663"><ele>771</ele><time>2022-03-29T12:15:24Z</time><name>PT3139</name></trkpt>
<trkpt lat="54.448477" lon="-3.230689"><ele>771</ele><time>2022-03-29T12:15:27Z</time><name>PT3140</name></trkpt>
<trkpt lat="54.448483" lon="-3.230725"><ele>770</ele><time>2022-03-29T12:15:31Z</time><name>PT3141</name></trkpt>
<trkpt lat="54.448480" lon="-3.230771"><ele>769</ele><time>2022-03-29T12:15:35Z</time><name>PT3142</name></trkpt>
<trkpt lat="54.448472" lon="-3.230807"><ele>769</ele><time>2022-03-29T12:15:39Z</time><name>PT3143</name></trkpt>
<trkpt lat="54.448464" lon="-3.230833"><ele>768</ele><time>2022-03-29T12:15:42Z</time><name>PT3144</name></trkpt>
<trkpt lat="54.448452" lon="-3.230847"><ele>767</ele><time>2022-03-29T12:15:45Z</time><name>PT3145</name></trkpt>
<trkpt lat="54.448444" lon="-3.230870"><ele>766</ele><time>2022-03-29T12:15:48Z</time><name>PT3146</name></trkpt>
<trkpt lat="54.448435" lon="-3.230906"><ele>766</ele><time>2022-03-29T12:15:52Z</time><name>PT3147</name></trkpt>
<trkpt lat="54.448427" lon="-3.230938"><ele>764</ele><time>2022-03-29T12:15:56Z</time><name>PT3148</name></trkpt>
<trkpt lat="54.448423" lon="-3.230974"><ele>763</ele><time>2022-03-29T12:16:00Z</time><name>PT3149</name></trkpt>
<trkpt lat="54.448422" lon="-3.230991"><ele>763</ele><time>2022-03-29T12:16:04Z</time><name>PT3150</name></trkpt>
<trkpt lat="54.448416" lon="-3.230995"><ele>762</ele><time>2022-03-29T12:16:08Z</time><name>PT3151</name></trkpt>
<trkpt lat="54.448422" lon="-3.231027"><ele>761</ele><time>2022-03-29T12:16:11Z</time><name>PT3152</name></trkpt>
<trkpt lat="54.448423" lon="-3.231041"><ele>760</ele><time>2022-03-29T12:16:14Z</time><name>PT3153</name></trkpt>
<trkpt lat="54.448427" lon="-3.231101"><ele>759</ele><time>2022-03-29T12:16:18Z</time><name>PT3154</name></trkpt>
<trkpt lat="54.448410" lon="-3.231118"><ele>758</ele><time>2022-03-29T12:16:21Z</time><name>PT3155</name></trkpt>
<trkpt lat="54.448388" lon="-3.231140"><ele>758</ele><time>2022-03-29T12:16:25Z</time><name>PT3156</name></trkpt>
<trkpt lat="54.448371" lon="-3.231176"><ele>756</ele><time>2022-03-29T12:16:29Z</time><name>PT3157</name></trkpt>
<trkpt lat="54.448368" lon="-3.231198"><ele>756</ele><time>2022-03-29T12:16:32Z</time><name>PT3158</name></trkpt>
<trkpt lat="54.448357" lon="-3.231230"><ele>755</ele><time>2022-03-29T12:16:36Z</time><name>PT3159</name></trkpt>
<trkpt lat="54.448344" lon="-3.231242"><ele>754</ele><time>2022-03-29T12:16:39Z</time><name>PT3160</name></trkpt>
<trkpt lat="54.448325" lon="-3.231265"><ele>753</ele><time>2022-03-29T12:16:43Z</time><name>PT3161</name></trkpt>
<trkpt lat="54.448309" lon="-3.231279"><ele>753</ele><time>2022-03-29T12:16:46Z</time><name>PT3162</name></trkpt>
<trkpt lat="54.448289" lon="-3.231295"><ele>751</ele><time>2022-03-29T12:16:50Z</time><name>PT3163</name></trkpt>
<trkpt lat="54.448268" lon="-3.231315"><ele>751</ele><time>2022-03-29T12:16:54Z</time><name>PT3164</name></trkpt>
<trkpt lat="54.448253" lon="-3.231348"><ele>749</ele><time>2022-03-29T12:16:58Z</time><name>PT3165</name></trkpt>
<trkpt lat="54.448254" lon="-3.231380"><ele>749</ele><time>2022-03-29T12:17:01Z</time><name>PT3166</name></trkpt>
<trkpt lat="54.448248" lon="-3.231412"><ele>749</ele><time>2022-03-29T12:17:04Z</time><name>PT3167</name></trkpt>
<trkpt lat="54.448244" lon="-3.231452"><ele>748</ele><time>2022-03-29T12:17:08Z</time><name>PT3168</name></trkpt>
<trkpt lat="54.448239" lon="-3.231484"><ele>748</ele><time>2022-03-29T12:17:12Z</time><name>PT3169</name></trkpt>
<trkpt lat="54.448227" lon="-3.231517"><ele>746</ele><time>2022-03-29T12:17:16Z</time><name>PT3170</name></trkpt>
<trkpt lat="54.448208" lon="-3.231529"><ele>745</ele><time>2022-03-29T12:17:19Z</time><name>PT3171</name></trkpt>
<trkpt lat="54.448205" lon="-3.231557"><ele>743</ele><time>2022-03-29T12:17:23Z</time><name>PT3172</name></trkpt>
<trkpt lat="54.448216" lon="-3.231590"><ele>742</ele><time>2022-03-29T12:17:26Z</time><name>PT3173</name></trkpt>
<trkpt lat="54.448202" lon="-3.231627"><ele>741</ele><time>2022-03-29T12:17:30Z</time><name>PT3174</name></trkpt>
<trkpt lat="54.448185" lon="-3.231656"><ele>739</ele><time>2022-03-29T12:17:34Z</time><name>PT3175</name></trkpt>
<trkpt lat="54.448191" lon="-3.231677"><ele>739</ele><time>2022-03-29T12:17:37Z</time><name>PT3176</name></trkpt>
<trkpt lat="54.448187" lon="-3.231713"><ele>738</ele><time>2022-03-29T12:17:41Z</time><name>PT3177</name></trkpt>
<trkpt lat="54.448166" lon="-3.231728"><ele>737</ele><time>2022-03-29T12:17:45Z</time><name>PT3178</name></trkpt>
<trkpt lat="54.448164" lon="-3.231754"><ele>736</ele><time>2022-03-29T12:17:49Z</time><name>PT3179</name></trkpt>
<trkpt lat="54.448154" lon="-3.231781"><ele>736</ele><time>2022-03-29T12:17:53Z</time><name>PT3180</name></trkpt>
<trkpt lat="54.448146" lon="-3.231810"><ele>735</ele><time>2022-03-29T12:17:57Z</time><name>PT3181</name></trkpt>
<trkpt lat="54.448142" lon="-3.231853"><ele>734</ele><time>2022-03-29T12:18:01Z</time><name>PT3182</name></trkpt>
<trkpt lat="54.448127" lon="-3.231871"><ele>733</ele><time>2022-03-29T12:18:05Z</time><name>PT3183</name></trkpt>
<trkpt lat="54.448140" lon="-3.231904"><ele>732</ele><time>2022-03-29T12:18:09Z</time><name>PT3184</name></trkpt>
<trkpt lat="54.448142" lon="-3.231928"><ele>731</ele><time>2022-03-29T12:18:12Z</time><name>PT3185</name></trkpt>
<trkpt lat="54.448135" lon="-3.231955"><ele>731</ele><time>2022-03-29T12:18:15Z</time><name>PT3186</name></trkpt>
<trkpt lat="54.448127" lon="-3.231993"><ele>731</ele><time>2022-03-29T12:18:19Z</time><name>PT3187</name></trkpt>
<trkpt lat="54.448128" lon="-3.232031"><ele>730</ele><time>2022-03-29T12:18:23Z</time><name>PT3188</name></trkpt>
<trkpt lat="54.448119" lon="-3.232064"><ele>730</ele><time>2022-03-29T12:18:27Z</time><name>PT3189</name></trkpt>
<trkpt lat="54.448126" lon="-3.232092"><ele>729</ele><time>2022-03-29T12:18:31Z</time><name>PT3190</name></trkpt>
<trkpt lat="54.448129" lon="-3.232117"><ele>728</ele><time>2022-03-29T12:18:34Z</time><name>PT3191</name></trkpt>
<trkpt lat="54.448133" lon="-3.232142"><ele>728</ele><time>2022-03-29T12:18:37Z</time><name>PT3192</name></trkpt>
<trkpt lat="54.448146" lon="-3.232189"><ele>727</ele><time>2022-03-29T12:18:41Z</time><name>PT3193</name></trkpt>
<trkpt lat="54.448147" lon="-3.232219"><ele>727</ele><time>2022-03-29T12:18:44Z</time><name>PT3194</name></trkpt>
<trkpt lat="54.448139" lon="-3.232250"><ele>726</ele><time>2022-03-29T12:18:48Z</time><name>PT3195</name></trkpt>
<trkpt lat="54.448136" lon="-3.232276"><ele>725</ele><time>2022-03-29T12:18:52Z</time><name>PT3196</name></trkpt>
<trkpt lat="54.448144" lon="-3.232304"><ele>724</ele><time>2022-03-29T12:18:56Z</time><name>PT3197</name></trkpt>
<trkpt lat="54.448148" lon="-3.232330"><ele>723</ele><time>2022-03-29T12:19:00Z</time><name>PT3198</name></trkpt>
<trkpt lat="54.448149" lon="-3.232364"><ele>722</ele><time>2022-03-29T12:19:03Z</time><name>PT3199</name></trkpt>
<trkpt lat="54.448146" lon="-3.232378"><ele>722</ele><time>2022-03-29T12:19:06Z</time><name>PT3200</name></trkpt>
<trkpt lat="54.448148" lon="-3.232411"><ele>720</ele><time>2022-03-29T12:19:10Z</time><name>PT3201</name></trkpt>
<trkpt lat="54.448154" lon="-3.232453"><ele>719</ele><time>2022-03-29T12:19:14Z</time><name>PT3202</name></trkpt>
<trkpt lat="54.448160" lon="-3.232500"><ele>718</ele><time>2022-03-29T12:19:18Z</time><name>PT3203</name></trkpt>
<trkpt lat="54.448155" lon="-3.232533"><ele>718</ele><time>2022-03-29T12:19:22Z</time><name>PT3204</name></trkpt>
<trkpt lat="54.448155" lon="-3.232539"><ele>717</ele><time>2022-03-29T12:19:26Z</time><name>PT3205</name></trkpt>
<trkpt lat="54.448143" lon="-3.232580"><ele>716</ele><time>2022-03-29T12:19:30Z</time><name>PT3206</name></trkpt>
<trkpt lat="54.448141" lon="-3.232614"><ele>715</ele><time>2022-03-29T12:19:34Z</time><name>PT3207</name></trkpt>
<trkpt lat="54.448155" lon="-3.232625"><ele>715</ele><time>2022-03-29T12:19:37Z</time><name>PT3208</name></trkpt>
<trkpt lat="54.448160" lon="-3.232668"><ele>714</ele><time>2022-03-29T12:19:41Z</time><name>PT3209</name></trkpt>
<trkpt lat="54.448177" lon="-3.232700"><ele>713</ele><time>2022-03-29T12:19:45Z</time><name>PT3210</name></trkpt>
<trkpt lat="54.448175" lon="-3.232738"><ele>711</ele><time>2022-03-29T12:19:48Z</time><name>PT3211</name></trkpt>
<trkpt lat="54.448173" lon="-3.232775"><ele>710</ele><time>2022-03-29T12:19:51Z</time><name>PT3212</name></trkpt>
<trkpt lat="54.448173" lon="-3.232815"><ele>710</ele><time>2022-03-29T12:19:55Z</time><name>PT3213</name></trkpt>
<trkpt lat="54.448171" lon="-3.232845"><ele>709</ele><time>2022-03-29T12:19:58Z</time><name>PT3214</name></trkpt>
<trkpt lat="54.448174" lon="-3.232892"><ele>708</ele><time>2022-03-29T12:20:02Z</time><name>PT3215</name></trkpt>
<trkpt lat="54.448168" lon="-3.232927"><ele>707</ele><time>2022-03-29T12:20:06Z</time><name>PT3216</name></trkpt>
<trkpt lat="54.448160" lon="-3.232952"><ele>705</ele><time>2022-03-29T12:20:09Z</time><name>PT3217</name></trkpt>
<trkpt lat="54.448159" lon="-3.232980"><ele>705</ele><time>2022-03-29T12:20:13Z</time><name>PT3218</name></trkpt>
<trkpt lat="54.448159" lon="-3.232990"><ele>704</ele><time>2022-03-29T12:20:21Z</time><name>PT3219</name></trkpt>
<trkpt lat="54.448159" lon="-3.232995"><ele>704</ele><time>2022-03-29T12:20:24Z</time><name>PT3220</name></trkpt>
<trkpt lat="54.448159" lon="-3.233004"><ele>703</ele><time>2022-03-29T12:20:28Z</time><name>PT3221</name></trkpt>
<trkpt lat="54.448158" lon="-3.233015"><ele>703</ele><time>2022-03-29T12:20:31Z</time><name>PT3222</name></trkpt>
<trkpt lat="54.448158" lon="-3.233075"><ele>702</ele><time>2022-03-29T12:20:39Z</time><name>PT3223</name></trkpt>
<trkpt lat="54.448164" lon="-3.233118"><ele>701</ele><time>2022-03-29T12:20:42Z</time><name>PT3224</name></trkpt>
<trkpt lat="54.448181" lon="-3.233167"><ele>701</ele><time>2022-03-29T12:20:46Z</time><name>PT3225</name></trkpt>
<trkpt lat="54.448191" lon="-3.233218"><ele>700</ele><time>2022-03-29T12:20:50Z</time><name>PT3226</name></trkpt>
<trkpt lat="54.448197" lon="-3.233261"><ele>699</ele><time>2022-03-29T12:20:54Z</time><name>PT3227</name></trkpt>
<trkpt lat="54.448197" lon="-3.233268"><ele>699</ele><time>2022-03-29T12:20:57Z</time><name>PT3228</name></trkpt>
<trkpt lat="54.448194" lon="-3.233291"><ele>698</ele><time>2022-03-29T12:21:00Z</time><name>PT3229</name></trkpt>
<trkpt lat="54.448190" lon="-3.233306"><ele>698</ele><time>2022-03-29T12:21:04Z</time><name>PT3230</name></trkpt>
<trkpt lat="54.448188" lon="-3.233330"><ele>698</ele><time>2022-03-29T12:21:07Z</time><name>PT3231</name></trkpt>
<trkpt lat="54.448189" lon="-3.233335"><ele>698</ele><time>2022-03-29T12:21:10Z</time><name>PT3232</name></trkpt>
<trkpt lat="54.448189" lon="-3.233342"><ele>697</ele><time>2022-03-29T12:21:13Z</time><name>PT3233</name></trkpt>
<trkpt lat="54.448177" lon="-3.233381"><ele>696</ele><time>2022-03-29T12:21:17Z</time><name>PT3234</name></trkpt>
<trkpt lat="54.448173" lon="-3.233396"><ele>694</ele><time>2022-03-29T12:21:20Z</time><name>PT3235</name></trkpt>
<trkpt lat="54.448175" lon="-3.233423"><ele>693</ele><time>2022-03-29T12:21:23Z</time><name>PT3236</name></trkpt>
<trkpt lat="54.448166" lon="-3.233444"><ele>693</ele><time>2022-03-29T12:21:26Z</time><name>PT3237</name></trkpt>
<trkpt lat="54.448152" lon="-3.233447"><ele>693</ele><time>2022-03-29T12:21:29Z</time><name>PT3238</name></trkpt>
<trkpt lat="54.448158" lon="-3.233468"><ele>692</ele><time>2022-03-29T12:21:33Z</time><name>PT3239</name></trkpt>
<trkpt lat="54.448174" lon="-3.233492"><ele>690</ele><time>2022-03-29T12:21:36Z</time><name>PT3240</name></trkpt>
<trkpt lat="54.448190" lon="-3.233523"><ele>689</ele><time>2022-03-29T12:21:40Z</time><name>PT3241</name></trkpt>
<trkpt lat="54.448209" lon="-3.233551"><ele>689</ele><time>2022-03-29T12:21:43Z</time><name>PT3242</name></trkpt>
<trkpt lat="54.448218" lon="-3.233596"><ele>688</ele><time>2022-03-29T12:21:46Z</time><name>PT3243</name></trkpt>
<trkpt lat="54.448204" lon="-3.233619"><ele>687</ele><time>2022-03-29T12:21:49Z</time><name>PT3244</name></trkpt>
<trkpt lat="54.448189" lon="-3.233647"><ele>685</ele><time>2022-03-29T12:21:52Z</time><name>PT3245</name></trkpt>
<trkpt lat="54.448176" lon="-3.233698"><ele>684</ele><time>2022-03-29T12:21:56Z</time><name>PT3246</name></trkpt>
<trkpt lat="54.448158" lon="-3.233725"><ele>683</ele><time>2022-03-29T12:21:59Z</time><name>PT3247</name></trkpt>
<trkpt lat="54.448151" lon="-3.233757"><ele>682</ele><time>2022-03-29T12:22:02Z</time><name>PT3248</name></trkpt>
<trkpt lat="54.448155" lon="-3.233807"><ele>682</ele><time>2022-03-29T12:22:06Z</time><name>PT3249</name></trkpt>
<trkpt lat="54.448137" lon="-3.233824"><ele>680</ele><time>2022-03-29T12:22:09Z</time><name>PT3250</name></trkpt>
<trkpt lat="54.448116" lon="-3.233846"><ele>679</ele><time>2022-03-29T12:22:13Z</time><name>PT3251</name></trkpt>
<trkpt lat="54.448103" lon="-3.233867"><ele>678</ele><time>2022-03-29T12:22:16Z</time><name>PT3252</name></trkpt>
<trkpt lat="54.448104" lon="-3.233895"><ele>677</ele><time>2022-03-29T12:22:20Z</time><name>PT3253</name></trkpt>
<trkpt lat="54.448119" lon="-3.233932"><ele>677</ele><time>2022-03-29T12:22:24Z</time><name>PT3254</name></trkpt>
<trkpt lat="54.448120" lon="-3.233956"><ele>677</ele><time>2022-03-29T12:22:27Z</time><name>PT3255</name></trkpt>
<trkpt lat="54.448112" lon="-3.233999"><ele>676</ele><time>2022-03-29T12:22:31Z</time><name>PT3256</name></trkpt>
<trkpt lat="54.448100" lon="-3.234026"><ele>675</ele><time>2022-03-29T12:22:35Z</time><name>PT3257</name></trkpt>
<trkpt lat="54.448100" lon="-3.234050"><ele>675</ele><time>2022-03-29T12:22:38Z</time><name>PT3258</name></trkpt>
<trkpt lat="54.448091" lon="-3.234074"><ele>674</ele><time>2022-03-29T12:22:41Z</time><name>PT3259</name></trkpt>
<trkpt lat="54.448082" lon="-3.234101"><ele>674</ele><time>2022-03-29T12:22:45Z</time><name>PT3260</name></trkpt>
<trkpt lat="54.448084" lon="-3.234125"><ele>674</ele><time>2022-03-29T12:22:48Z</time><name>PT3261</name></trkpt>
<trkpt lat="54.448093" lon="-3.234146"><ele>674</ele><time>2022-03-29T12:22:51Z</time><name>PT3262</name></trkpt>
<trkpt lat="54.448107" lon="-3.234181"><ele>672</ele><time>2022-03-29T12:22:55Z</time><name>PT3263</name></trkpt>
<trkpt lat="54.448109" lon="-3.234212"><ele>672</ele><time>2022-03-29T12:22:58Z</time><name>PT3264</name></trkpt>
<trkpt lat="54.448091" lon="-3.234250"><ele>670</ele><time>2022-03-29T12:23:02Z</time><name>PT3265</name></trkpt>
<trkpt lat="54.448068" lon="-3.234278"><ele>669</ele><time>2022-03-29T12:23:05Z</time><name>PT3266</name></trkpt>
<trkpt lat="54.448047" lon="-3.234310"><ele>668</ele><time>2022-03-29T12:23:09Z</time><name>PT3267</name></trkpt>
<trkpt lat="54.448030" lon="-3.234352"><ele>668</ele><time>2022-03-29T12:23:13Z</time><name>PT3268</name></trkpt>
<trkpt lat="54.448014" lon="-3.234369"><ele>667</ele><time>2022-03-29T12:23:16Z</time><name>PT3269</name></trkpt>
<trkpt lat="54.448009" lon="-3.234401"><ele>666</ele><time>2022-03-29T12:23:20Z</time><name>PT3270</name></trkpt>
<trkpt lat="54.448008" lon="-3.234421"><ele>666</ele><time>2022-03-29T12:23:23Z</time><name>PT3271</name></trkpt>
<trkpt lat="54.448014" lon="-3.234450"><ele>665</ele><time>2022-03-29T12:23:27Z</time><name>PT3272</name></trkpt>
<trkpt lat="54.448024" lon="-3.234486"><ele>665</ele><time>2022-03-29T12:23:30Z</time><name>PT3273</name></trkpt>
<trkpt lat="54.448016" lon="-3.234530"><ele>663</ele><time>2022-03-29T12:23:34Z</time><name>PT3274</name></trkpt>
<trkpt lat="54.448020" lon="-3.234559"><ele>663</ele><time>2022-03-29T12:23:37Z</time><name>PT3275</name></trkpt>
<trkpt lat="54.448019" lon="-3.234559"><ele>663</ele><time>2022-03-29T12:23:41Z</time><name>PT3276</name></trkpt>
<trkpt lat="54.448015" lon="-3.234593"><ele>662</ele><time>2022-03-29T12:23:45Z</time><name>PT3277</name></trkpt>
<trkpt lat="54.447998" lon="-3.234644"><ele>661</ele><time>2022-03-29T12:23:49Z</time><name>PT3278</name></trkpt>
<trkpt lat="54.447981" lon="-3.234683"><ele>660</ele><time>2022-03-29T12:23:53Z</time><name>PT3279</name></trkpt>
<trkpt lat="54.447951" lon="-3.234706"><ele>659</ele><time>2022-03-29T12:23:57Z</time><name>PT3280</name></trkpt>
<trkpt lat="54.447932" lon="-3.234731"><ele>658</ele><time>2022-03-29T12:24:00Z</time><name>PT3281</name></trkpt>
<trkpt lat="54.447911" lon="-3.234766"><ele>656</ele><time>2022-03-29T12:24:04Z</time><name>PT3282</name></trkpt>
<trkpt lat="54.447892" lon="-3.234778"><ele>656</ele><time>2022-03-29T12:24:07Z</time><name>PT3283</name></trkpt>
<trkpt lat="54.447873" lon="-3.234784"><ele>655</ele><time>2022-03-29T12:24:10Z</time><name>PT3284</name></trkpt>
<trkpt lat="54.447856" lon="-3.234818"><ele>654</ele><time>2022-03-29T12:24:14Z</time><name>PT3285</name></trkpt>
<trkpt lat="54.447837" lon="-3.234835"><ele>653</ele><time>2022-03-29T12:24:18Z</time><name>PT3286</name></trkpt>
<trkpt lat="54.447835" lon="-3.234867"><ele>652</ele><time>2022-03-29T12:24:21Z</time><name>PT3287</name></trkpt>
<trkpt lat="54.447827" lon="-3.234908"><ele>651</ele><time>2022-03-29T12:24:25Z</time><name>PT3288</name></trkpt>
<trkpt lat="54.447808" lon="-3.234958"><ele>650</ele><time>2022-03-29T12:24:29Z</time><name>PT3289</name></trkpt>
<trkpt lat="54.447784" lon="-3.234985"><ele>649</ele><time>2022-03-29T12:24:33Z</time><name>PT3290</name></trkpt>
<trkpt lat="54.447770" lon="-3.235011"><ele>649</ele><time>2022-03-29T12:24:37Z</time><name>PT3291</name></trkpt>
<trkpt lat="54.447756" lon="-3.235040"><ele>648</ele><time>2022-03-29T12:24:40Z</time><name>PT3292</name></trkpt>
<trkpt lat="54.447759" lon="-3.235081"><ele>647</ele><time>2022-03-29T12:24:44Z</time><name>PT3293</name></trkpt>
<trkpt lat="54.447769" lon="-3.235112"><ele>646</ele><time>2022-03-29T12:24:48Z</time><name>PT3294</name></trkpt>
<trkpt lat="54.447769" lon="-3.235143"><ele>645</ele><time>2022-03-29T12:24:51Z</time><name>PT3295</name></trkpt>
<trkpt lat="54.447787" lon="-3.235179"><ele>644</ele><time>2022-03-29T12:24:55Z</time><name>PT3296</name></trkpt>
<trkpt lat="54.447813" lon="-3.235216"><ele>642</ele><time>2022-03-29T12:24:59Z</time><name>PT3297</name></trkpt>
<trkpt lat="54.447834" lon="-3.235254"><ele>641</ele><time>2022-03-29T12:25:03Z</time><name>PT3298</name></trkpt>
<trkpt lat="54.447842" lon="-3.235296"><ele>640</ele><time>2022-03-29T12:25:07Z</time><name>PT3299</name></trkpt>
<trkpt lat="54.447838" lon="-3.235325"><ele>639</ele><time>2022-03-29T12:25:10Z</time><name>PT3300</name></trkpt>
<trkpt lat="54.447854" lon="-3.235359"><ele>638</ele><time>2022-03-29T12:25:14Z</time><name>PT3301</name></trkpt>
<trkpt lat="54.447861" lon="-3.235402"><ele>637</ele><time>2022-03-29T12:25:18Z</time><name>PT3302</name></trkpt>
<trkpt lat="54.447860" lon="-3.235435"><ele>637</ele><time>2022-03-29T12:25:22Z</time><name>PT3303</name></trkpt>
<trkpt lat="54.447854" lon="-3.235476"><ele>636</ele><time>2022-03-29T12:25:26Z</time><name>PT3304</name></trkpt>
<trkpt lat="54.447844" lon="-3.235508"><ele>635</ele><time>2022-03-29T12:25:29Z</time><name>PT3305</name></trkpt>
<trkpt lat="54.447830" lon="-3.235549"><ele>633</ele><time>2022-03-29T12:25:33Z</time><name>PT3306</name></trkpt>
<trkpt lat="54.447822" lon="-3.235577"><ele>632</ele><time>2022-03-29T12:25:36Z</time><name>PT3307</name></trkpt>
<trkpt lat="54.447806" lon="-3.235610"><ele>631</ele><time>2022-03-29T12:25:40Z</time><name>PT3308</name></trkpt>
<trkpt lat="54.447792" lon="-3.235645"><ele>630</ele><time>2022-03-29T12:25:44Z</time><name>PT3309</name></trkpt>
<trkpt lat="54.447796" lon="-3.235696"><ele>630</ele><time>2022-03-29T12:25:47Z</time><name>PT3310</name></trkpt>
<trkpt lat="54.447789" lon="-3.235741"><ele>629</ele><time>2022-03-29T12:25:50Z</time><name>PT3311</name></trkpt>
<trkpt lat="54.447783" lon="-3.235797"><ele>628</ele><time>2022-03-29T12:25:54Z</time><name>PT3312</name></trkpt>
<trkpt lat="54.447787" lon="-3.235837"><ele>628</ele><time>2022-03-29T12:25:57Z</time><name>PT3313</name></trkpt>
<trkpt lat="54.447797" lon="-3.235891"><ele>627</ele><time>2022-03-29T12:26:01Z</time><name>PT3314</name></trkpt>
<trkpt lat="54.447787" lon="-3.235928"><ele>626</ele><time>2022-03-29T12:26:05Z</time><name>PT3315</name></trkpt>
<trkpt lat="54.447785" lon="-3.235933"><ele>626</ele><time>2022-03-29T12:26:08Z</time><name>PT3316</name></trkpt>
<trkpt lat="54.447784" lon="-3.235943"><ele>625</ele><time>2022-03-29T12:26:19Z</time><name>PT3317</name></trkpt>
<trkpt lat="54.447776" lon="-3.235958"><ele>625</ele><time>2022-03-29T12:26:23Z</time><name>PT3318</name></trkpt>
<trkpt lat="54.447776" lon="-3.235959"><ele>625</ele><time>2022-03-29T12:26:26Z</time><name>PT3319</name></trkpt>
<trkpt lat="54.447779" lon="-3.235956"><ele>625</ele><time>2022-03-29T12:26:41Z</time><name>PT3320</name></trkpt>
<trkpt lat="54.447778" lon="-3.235955"><ele>625</ele><time>2022-03-29T12:26:51Z</time><name>PT3321</name></trkpt>
<trkpt lat="54.447778" lon="-3.235960"><ele>625</ele><time>2022-03-29T12:26:55Z</time><name>PT3322</name></trkpt>
<trkpt lat="54.447775" lon="-3.235953"><ele>624</ele><time>2022-03-29T12:27:25Z</time><name>PT3323</name></trkpt>
<trkpt lat="54.447775" lon="-3.235952"><ele>624</ele><time>2022-03-29T12:27:29Z</time><name>PT3324</name></trkpt>
<trkpt lat="54.447775" lon="-3.235948"><ele>624</ele><time>2022-03-29T12:28:21Z</time><name>PT3325</name></trkpt>
<trkpt lat="54.447768" lon="-3.235964"><ele>625</ele><time>2022-03-29T12:29:20Z</time><name>PT3326</name></trkpt>
<trkpt lat="54.447756" lon="-3.236011"><ele>623</ele><time>2022-03-29T12:29:23Z</time><name>PT3327</name></trkpt>
<trkpt lat="54.447739" lon="-3.236068"><ele>622</ele><time>2022-03-29T12:29:27Z</time><name>PT3328</name></trkpt>
<trkpt lat="54.447724" lon="-3.236125"><ele>621</ele><time>2022-03-29T12:29:31Z</time><name>PT3329</name></trkpt>
<trkpt lat="54.447720" lon="-3.236159"><ele>621</ele><time>2022-03-29T12:29:34Z</time><name>PT3330</name></trkpt>
<trkpt lat="54.447708" lon="-3.236198"><ele>621</ele><time>2022-03-29T12:29:38Z</time><name>PT3331</name></trkpt>
<trkpt lat="54.447689" lon="-3.236236"><ele>620</ele><time>2022-03-29T12:29:41Z</time><name>PT3332</name></trkpt>
<trkpt lat="54.447670" lon="-3.236270"><ele>619</ele><time>2022-03-29T12:29:45Z</time><name>PT3333</name></trkpt>
<trkpt lat="54.447659" lon="-3.236305"><ele>619</ele><time>2022-03-29T12:29:48Z</time><name>PT3334</name></trkpt>
<trkpt lat="54.447636" lon="-3.236351"><ele>618</ele><time>2022-03-29T12:29:52Z</time><name>PT3335</name></trkpt>
<trkpt lat="54.447621" lon="-3.236420"><ele>618</ele><time>2022-03-29T12:29:56Z</time><name>PT3336</name></trkpt>
<trkpt lat="54.447600" lon="-3.236482"><ele>617</ele><time>2022-03-29T12:30:00Z</time><name>PT3337</name></trkpt>
<trkpt lat="54.447585" lon="-3.236541"><ele>617</ele><time>2022-03-29T12:30:03Z</time><name>PT3338</name></trkpt>
<trkpt lat="54.447572" lon="-3.236584"><ele>616</ele><time>2022-03-29T12:30:07Z</time><name>PT3339</name></trkpt>
<trkpt lat="54.447559" lon="-3.236628"><ele>616</ele><time>2022-03-29T12:30:10Z</time><name>PT3340</name></trkpt>
<trkpt lat="54.447545" lon="-3.236668"><ele>615</ele><time>2022-03-29T12:30:13Z</time><name>PT3341</name></trkpt>
<trkpt lat="54.447525" lon="-3.236720"><ele>614</ele><time>2022-03-29T12:30:17Z</time><name>PT3342</name></trkpt>
<trkpt lat="54.447511" lon="-3.236772"><ele>614</ele><time>2022-03-29T12:30:20Z</time><name>PT3343</name></trkpt>
<trkpt lat="54.447486" lon="-3.236824"><ele>613</ele><time>2022-03-29T12:30:24Z</time><name>PT3344</name></trkpt>
<trkpt lat="54.447478" lon="-3.236890"><ele>613</ele><time>2022-03-29T12:30:28Z</time><name>PT3345</name></trkpt>
<trkpt lat="54.447470" lon="-3.236929"><ele>613</ele><time>2022-03-29T12:30:31Z</time><name>PT3346</name></trkpt>
<trkpt lat="54.447456" lon="-3.236958"><ele>613</ele><time>2022-03-29T12:30:34Z</time><name>PT3347</name></trkpt>
<trkpt lat="54.447449" lon="-3.236996"><ele>612</ele><time>2022-03-29T12:30:38Z</time><name>PT3348</name></trkpt>
<trkpt lat="54.447437" lon="-3.237047"><ele>611</ele><time>2022-03-29T12:30:42Z</time><name>PT3349</name></trkpt>
<trkpt lat="54.447422" lon="-3.237080"><ele>609</ele><time>2022-03-29T12:30:46Z</time><name>PT3350</name></trkpt>
<trkpt lat="54.447411" lon="-3.237119"><ele>609</ele><time>2022-03-29T12:30:50Z</time><name>PT3351</name></trkpt>
<trkpt lat="54.447406" lon="-3.237150"><ele>609</ele><time>2022-03-29T12:30:53Z</time><name>PT3352</name></trkpt>
<trkpt lat="54.447411" lon="-3.237199"><ele>608</ele><time>2022-03-29T12:30:57Z</time><name>PT3353</name></trkpt>
<trkpt lat="54.447400" lon="-3.237231"><ele>608</ele><time>2022-03-29T12:31:00Z</time><name>PT3354</name></trkpt>
<trkpt lat="54.447393" lon="-3.237268"><ele>607</ele><time>2022-03-29T12:31:04Z</time><name>PT3355</name></trkpt>
<trkpt lat="54.447387" lon="-3.237305"><ele>607</ele><time>2022-03-29T12:31:08Z</time><name>PT3356</name></trkpt>
<trkpt lat="54.447385" lon="-3.237308"><ele>606</ele><time>2022-03-29T12:31:11Z</time><name>PT3357</name></trkpt>
<trkpt lat="54.447375" lon="-3.237320"><ele>606</ele><time>2022-03-29T12:31:21Z</time><name>PT3358</name></trkpt>
<trkpt lat="54.447366" lon="-3.237353"><ele>605</ele><time>2022-03-29T12:31:24Z</time><name>PT3359</name></trkpt>
<trkpt lat="54.447355" lon="-3.237395"><ele>604</ele><time>2022-03-29T12:31:28Z</time><name>PT3360</name></trkpt>
<trkpt lat="54.447349" lon="-3.237440"><ele>603</ele><time>2022-03-29T12:31:31Z</time><name>PT3361</name></trkpt>
<trkpt lat="54.447337" lon="-3.237481"><ele>602</ele><time>2022-03-29T12:31:34Z</time><name>PT3362</name></trkpt>
<trkpt lat="54.447317" lon="-3.237524"><ele>601</ele><time>2022-03-29T12:31:38Z</time><name>PT3363</name></trkpt>
<trkpt lat="54.447300" lon="-3.237558"><ele>600</ele><time>2022-03-29T12:31:41Z</time><name>PT3364</name></trkpt>
<trkpt lat="54.447284" lon="-3.237596"><ele>599</ele><time>2022-03-29T12:31:44Z</time><name>PT3365</name></trkpt>
<trkpt lat="54.447281" lon="-3.237629"><ele>598</ele><time>2022-03-29T12:31:48Z</time><name>PT3366</name></trkpt>
<trkpt lat="54.447279" lon="-3.237682"><ele>597</ele><time>2022-03-29T12:31:52Z</time><name>PT3367</name></trkpt>
<trkpt lat="54.447270" lon="-3.237711"><ele>597</ele><time>2022-03-29T12:31:55Z</time><name>PT3368</name></trkpt>
<trkpt lat="54.447256" lon="-3.237743"><ele>595</ele><time>2022-03-29T12:31:58Z</time><name>PT3369</name></trkpt>
<trkpt lat="54.447240" lon="-3.237776"><ele>594</ele><time>2022-03-29T12:32:01Z</time><name>PT3370</name></trkpt>
<trkpt lat="54.447221" lon="-3.237823"><ele>593</ele><time>2022-03-29T12:32:05Z</time><name>PT3371</name></trkpt>
<trkpt lat="54.447218" lon="-3.237864"><ele>592</ele><time>2022-03-29T12:32:08Z</time><name>PT3372</name></trkpt>
<trkpt lat="54.447222" lon="-3.237898"><ele>592</ele><time>2022-03-29T12:32:12Z</time><name>PT3373</name></trkpt>
<trkpt lat="54.447218" lon="-3.237939"><ele>590</ele><time>2022-03-29T12:32:16Z</time><name>PT3374</name></trkpt>
<trkpt lat="54.447216" lon="-3.237972"><ele>589</ele><time>2022-03-29T12:32:19Z</time><name>PT3375</name></trkpt>
<trkpt lat="54.447206" lon="-3.238013"><ele>589</ele><time>2022-03-29T12:32:23Z</time><name>PT3376</name></trkpt>
<trkpt lat="54.447183" lon="-3.238044"><ele>587</ele><time>2022-03-29T12:32:27Z</time><name>PT3377</name></trkpt>
<trkpt lat="54.447176" lon="-3.238082"><ele>585</ele><time>2022-03-29T12:32:30Z</time><name>PT3378</name></trkpt>
<trkpt lat="54.447157" lon="-3.238132"><ele>583</ele><time>2022-03-29T12:32:34Z</time><name>PT3379</name></trkpt>
<trkpt lat="54.447134" lon="-3.238165"><ele>582</ele><time>2022-03-29T12:32:37Z</time><name>PT3380</name></trkpt>
<trkpt lat="54.447110" lon="-3.238204"><ele>580</ele><time>2022-03-29T12:32:41Z</time><name>PT3381</name></trkpt>
<trkpt lat="54.447095" lon="-3.238245"><ele>579</ele><time>2022-03-29T12:32:44Z</time><name>PT3382</name></trkpt>
<trkpt lat="54.447072" lon="-3.238297"><ele>578</ele><time>2022-03-29T12:32:48Z</time><name>PT3383</name></trkpt>
<trkpt lat="54.447051" lon="-3.238354"><ele>578</ele><time>2022-03-29T12:32:52Z</time><name>PT3384</name></trkpt>
<trkpt lat="54.447035" lon="-3.238390"><ele>578</ele><time>2022-03-29T12:32:55Z</time><name>PT3385</name></trkpt>
<trkpt lat="54.447010" lon="-3.238447"><ele>577</ele><time>2022-03-29T12:32:59Z</time><name>PT3386</name></trkpt>
<trkpt lat="54.447005" lon="-3.238497"><ele>576</ele><time>2022-03-29T12:33:02Z</time><name>PT3387</name></trkpt>
<trkpt lat="54.446994" lon="-3.238554"><ele>575</ele><time>2022-03-29T12:33:05Z</time><name>PT3388</name></trkpt>
<trkpt lat="54.446987" lon="-3.238613"><ele>575</ele><time>2022-03-29T12:33:09Z</time><name>PT3389</name></trkpt>
<trkpt lat="54.446990" lon="-3.238661"><ele>574</ele><time>2022-03-29T12:33:12Z</time><name>PT3390</name></trkpt>
<trkpt lat="54.446989" lon="-3.238714"><ele>574</ele><time>2022-03-29T12:33:15Z</time><name>PT3391</name></trkpt>
<trkpt lat="54.446972" lon="-3.238769"><ele>573</ele><time>2022-03-29T12:33:19Z</time><name>PT3392</name></trkpt>
<trkpt lat="54.446962" lon="-3.238818"><ele>572</ele><time>2022-03-29T12:33:22Z</time><name>PT3393</name></trkpt>
<trkpt lat="54.446944" lon="-3.238875"><ele>572</ele><time>2022-03-29T12:33:26Z</time><name>PT3394</name></trkpt>
<trkpt lat="54.446933" lon="-3.238914"><ele>571</ele><time>2022-03-29T12:33:29Z</time><name>PT3395</name></trkpt>
<trkpt lat="54.446913" lon="-3.238969"><ele>570</ele><time>2022-03-29T12:33:33Z</time><name>PT3396</name></trkpt>
<trkpt lat="54.446889" lon="-3.239021"><ele>569</ele><time>2022-03-29T12:33:37Z</time><name>PT3397</name></trkpt>
<trkpt lat="54.446863" lon="-3.239059"><ele>569</ele><time>2022-03-29T12:33:41Z</time><name>PT3398</name></trkpt>
<trkpt lat="54.446839" lon="-3.239085"><ele>568</ele><time>2022-03-29T12:33:44Z</time><name>PT3399</name></trkpt>
<trkpt lat="54.446822" lon="-3.239118"><ele>567</ele><time>2022-03-29T12:33:47Z</time><name>PT3400</name></trkpt>
<trkpt lat="54.446804" lon="-3.239176"><ele>568</ele><time>2022-03-29T12:33:51Z</time><name>PT3401</name></trkpt>
<trkpt lat="54.446784" lon="-3.239210"><ele>567</ele><time>2022-03-29T12:33:54Z</time><name>PT3402</name></trkpt>
<trkpt lat="54.446767" lon="-3.239247"><ele>566</ele><time>2022-03-29T12:33:57Z</time><name>PT3403</name></trkpt>
<trkpt lat="54.446747" lon="-3.239303"><ele>564</ele><time>2022-03-29T12:34:01Z</time><name>PT3404</name></trkpt>
<trkpt lat="54.446734" lon="-3.239335"><ele>564</ele><time>2022-03-29T12:34:04Z</time><name>PT3405</name></trkpt>
<trkpt lat="54.446717" lon="-3.239372"><ele>564</ele><time>2022-03-29T12:34:08Z</time><name>PT3406</name></trkpt>
<trkpt lat="54.446709" lon="-3.239384"><ele>563</ele><time>2022-03-29T12:34:11Z</time><name>PT3407</name></trkpt>
<trkpt lat="54.446709" lon="-3.239385"><ele>563</ele><time>2022-03-29T12:34:14Z</time><name>PT3408</name></trkpt>
<trkpt lat="54.446700" lon="-3.239432"><ele>562</ele><time>2022-03-29T12:34:35Z</time><name>PT3409</name></trkpt>
<trkpt lat="54.446694" lon="-3.239474"><ele>562</ele><time>2022-03-29T12:34:39Z</time><name>PT3410</name></trkpt>
<trkpt lat="54.446698" lon="-3.239537"><ele>562</ele><time>2022-03-29T12:34:43Z</time><name>PT3411</name></trkpt>
<trkpt lat="54.446697" lon="-3.239561"><ele>562</ele><time>2022-03-29T12:34:46Z</time><name>PT3412</name></trkpt>
<trkpt lat="54.446695" lon="-3.239625"><ele>561</ele><time>2022-03-29T12:34:50Z</time><name>PT3413</name></trkpt>
<trkpt lat="54.446689" lon="-3.239682"><ele>560</ele><time>2022-03-29T12:34:53Z</time><name>PT3414</name></trkpt>
<trkpt lat="54.446667" lon="-3.239712"><ele>559</ele><time>2022-03-29T12:34:57Z</time><name>PT3415</name></trkpt>
<trkpt lat="54.446656" lon="-3.239752"><ele>559</ele><time>2022-03-29T12:35:00Z</time><name>PT3416</name></trkpt>
<trkpt lat="54.446631" lon="-3.239813"><ele>557</ele><time>2022-03-29T12:35:04Z</time><name>PT3417</name></trkpt>
<trkpt lat="54.446600" lon="-3.239858"><ele>556</ele><time>2022-03-29T12:35:08Z</time><name>PT3418</name></trkpt>
<trkpt lat="54.446571" lon="-3.239878"><ele>555</ele><time>2022-03-29T12:35:12Z</time><name>PT3419</name></trkpt>
<trkpt lat="54.446569" lon="-3.239879"><ele>555</ele><time>2022-03-29T12:35:16Z</time><name>PT3420</name></trkpt>
<trkpt lat="54.446559" lon="-3.239884"><ele>554</ele><time>2022-03-29T12:35:23Z</time><name>PT3421</name></trkpt>
<trkpt lat="54.446525" lon="-3.239919"><ele>553</ele><time>2022-03-29T12:35:27Z</time><name>PT3422</name></trkpt>
<trkpt lat="54.446493" lon="-3.239959"><ele>552</ele><time>2022-03-29T12:35:31Z</time><name>PT3423</name></trkpt>
<trkpt lat="54.446483" lon="-3.240011"><ele>552</ele><time>2022-03-29T12:35:34Z</time><name>PT3424</name></trkpt>
<trkpt lat="54.446460" lon="-3.240055"><ele>551</ele><time>2022-03-29T12:35:38Z</time><name>PT3425</name></trkpt>
<trkpt lat="54.446445" lon="-3.240084"><ele>550</ele><time>2022-03-29T12:35:41Z</time><name>PT3426</name></trkpt>
<trkpt lat="54.446435" lon="-3.240139"><ele>550</ele><time>2022-03-29T12:35:45Z</time><name>PT3427</name></trkpt>
<trkpt lat="54.446418" lon="-3.240193"><ele>550</ele><time>2022-03-29T12:35:49Z</time><name>PT3428</name></trkpt>
<trkpt lat="54.446387" lon="-3.240233"><ele>548</ele><time>2022-03-29T12:35:53Z</time><name>PT3429</name></trkpt>
<trkpt lat="54.446360" lon="-3.240281"><ele>547</ele><time>2022-03-29T12:35:57Z</time><name>PT3430</name></trkpt>
<trkpt lat="54.446347" lon="-3.240324"><ele>546</ele><time>2022-03-29T12:36:00Z</time><name>PT3431</name></trkpt>
<trkpt lat="54.446326" lon="-3.240378"><ele>546</ele><time>2022-03-29T12:36:04Z</time><name>PT3432</name></trkpt>
<trkpt lat="54.446301" lon="-3.240430"><ele>545</ele><time>2022-03-29T12:36:08Z</time><name>PT3433</name></trkpt>
<trkpt lat="54.446289" lon="-3.240464"><ele>544</ele><time>2022-03-29T12:36:11Z</time><name>PT3434</name></trkpt>
<trkpt lat="54.446274" lon="-3.240505"><ele>543</ele><time>2022-03-29T12:36:14Z</time><name>PT3435</name></trkpt>
<trkpt lat="54.446242" lon="-3.240545"><ele>542</ele><time>2022-03-29T12:36:18Z</time><name>PT3436</name></trkpt>
<trkpt lat="54.446201" lon="-3.240557"><ele>542</ele><time>2022-03-29T12:36:22Z</time><name>PT3437</name></trkpt>
<trkpt lat="54.446182" lon="-3.240584"><ele>541</ele><time>2022-03-29T12:36:25Z</time><name>PT3438</name></trkpt>
<trkpt lat="54.446158" lon="-3.240635"><ele>539</ele><time>2022-03-29T12:36:29Z</time><name>PT3439</name></trkpt>
<trkpt lat="54.446136" lon="-3.240647"><ele>539</ele><time>2022-03-29T12:36:32Z</time><name>PT3440</name></trkpt>
<trkpt lat="54.446107" lon="-3.240693"><ele>538</ele><time>2022-03-29T12:36:36Z</time><name>PT3441</name></trkpt>
<trkpt lat="54.446090" lon="-3.240725"><ele>537</ele><time>2022-03-29T12:36:39Z</time><name>PT3442</name></trkpt>
<trkpt lat="54.446079" lon="-3.240786"><ele>536</ele><time>2022-03-29T12:36:43Z</time><name>PT3443</name></trkpt>
<trkpt lat="54.446060" lon="-3.240831"><ele>536</ele><time>2022-03-29T12:36:47Z</time><name>PT3444</name></trkpt>
<trkpt lat="54.446060" lon="-3.240857"><ele>536</ele><time>2022-03-29T12:36:50Z</time><name>PT3445</name></trkpt>
<trkpt lat="54.446053" lon="-3.240885"><ele>535</ele><time>2022-03-29T12:36:53Z</time><name>PT3446</name></trkpt>
<trkpt lat="54.446043" lon="-3.240932"><ele>535</ele><time>2022-03-29T12:36:57Z</time><name>PT3447</name></trkpt>
<trkpt lat="54.446030" lon="-3.240977"><ele>535</ele><time>2022-03-29T12:37:00Z</time><name>PT3448</name></trkpt>
<trkpt lat="54.446022" lon="-3.241011"><ele>535</ele><time>2022-03-29T12:37:04Z</time><name>PT3449</name></trkpt>
<trkpt lat="54.446020" lon="-3.241017"><ele>535</ele><time>2022-03-29T12:37:07Z</time><name>PT3450</name></trkpt>
<trkpt lat="54.446025" lon="-3.241063"><ele>535</ele><time>2022-03-29T12:37:10Z</time><name>PT3451</name></trkpt>
<trkpt lat="54.446028" lon="-3.241086"><ele>536</ele><time>2022-03-29T12:37:14Z</time><name>PT3452</name></trkpt>
<trkpt lat="54.446032" lon="-3.241129"><ele>536</ele><time>2022-03-29T12:37:18Z</time><name>PT3453</name></trkpt>
<trkpt lat="54.446039" lon="-3.241176"><ele>536</ele><time>2022-03-29T12:37:21Z</time><name>PT3454</name></trkpt>
<trkpt lat="54.446040" lon="-3.241198"><ele>536</ele><time>2022-03-29T12:37:24Z</time><name>PT3455</name></trkpt>
<trkpt lat="54.446041" lon="-3.241223"><ele>535</ele><time>2022-03-29T12:37:28Z</time><name>PT3456</name></trkpt>
<trkpt lat="54.446053" lon="-3.241295"><ele>535</ele><time>2022-03-29T12:37:32Z</time><name>PT3457</name></trkpt>
<trkpt lat="54.446056" lon="-3.241350"><ele>535</ele><time>2022-03-29T12:37:35Z</time><name>PT3458</name></trkpt>
<trkpt lat="54.446056" lon="-3.241421"><ele>534</ele><time>2022-03-29T12:37:39Z</time><name>PT3459</name></trkpt>
<trkpt lat="54.446056" lon="-3.241437"><ele>534</ele><time>2022-03-29T12:37:40Z</time><name>PT3460</name></trkpt>
<trkpt lat="54.446058" lon="-3.241450"><ele>534</ele><time>2022-03-29T12:37:41Z</time><name>PT3461</name></trkpt>
<trkpt lat="54.446061" lon="-3.241467"><ele>534</ele><time>2022-03-29T12:37:41Z</time><name>PT3462</name></trkpt>
<trkpt lat="54.446061" lon="-3.241487"><ele>533</ele><time>2022-03-29T12:37:43Z</time><name>PT3463</name></trkpt>
<trkpt lat="54.446063" lon="-3.241503"><ele>533</ele><time>2022-03-29T12:37:44Z</time><name>PT3464</name></trkpt>
<trkpt lat="54.446064" lon="-3.241521"><ele>533</ele><time>2022-03-29T12:37:45Z</time><name>PT3465</name></trkpt>
<trkpt lat="54.446059" lon="-3.241534"><ele>533</ele><time>2022-03-29T12:37:46Z</time><name>PT3466</name></trkpt>
<trkpt lat="54.446057" lon="-3.241549"><ele>533</ele><time>2022-03-29T12:37:47Z</time><name>PT3467</name></trkpt>
<trkpt lat="54.446055" lon="-3.241560"><ele>533</ele><time>2022-03-29T12:37:48Z</time><name>PT3468</name></trkpt>
<trkpt lat="54.446055" lon="-3.241569"><ele>532</ele><time>2022-03-29T12:37:49Z</time><name>PT3469</name></trkpt>
<trkpt lat="54.446055" lon="-3.241575"><ele>532</ele><time>2022-03-29T12:37:50Z</time><name>PT3470</name></trkpt>
<trkpt lat="54.446053" lon="-3.241580"><ele>531</ele><time>2022-03-29T12:37:51Z</time><name>PT3471</name></trkpt>
<trkpt lat="54.446051" lon="-3.241590"><ele>531</ele><time>2022-03-29T12:37:52Z</time><name>PT3472</name></trkpt>
<trkpt lat="54.446050" lon="-3.241604"><ele>531</ele><time>2022-03-29T12:37:53Z</time><name>PT3473</name></trkpt>
<trkpt lat="54.446052" lon="-3.241618"><ele>531</ele><time>2022-03-29T12:37:53Z</time><name>PT3474</name></trkpt>
<trkpt lat="54.446053" lon="-3.241632"><ele>531</ele><time>2022-03-29T12:37:55Z</time><name>PT3475</name></trkpt>
<trkpt lat="54.446052" lon="-3.241646"><ele>530</ele><time>2022-03-29T12:37:56Z</time><name>PT3476</name></trkpt>
<trkpt lat="54.446053" lon="-3.241663"><ele>531</ele><time>2022-03-29T12:37:56Z</time><name>PT3477</name></trkpt>
<trkpt lat="54.446052" lon="-3.241677"><ele>531</ele><time>2022-03-29T12:37:58Z</time><name>PT3478</name></trkpt>
<trkpt lat="54.446052" lon="-3.241691"><ele>530</ele><time>2022-03-29T12:37:59Z</time><name>PT3479</name></trkpt>
<trkpt lat="54.446051" lon="-3.241706"><ele>530</ele><time>2022-03-29T12:37:59Z</time><name>PT3480</name></trkpt>
<trkpt lat="54.446050" lon="-3.241723"><ele>530</ele><time>2022-03-29T12:38:01Z</time><name>PT3481</name></trkpt>
<trkpt lat="54.446049" lon="-3.241741"><ele>530</ele><time>2022-03-29T12:38:02Z</time><name>PT3482</name></trkpt>
<trkpt lat="54.446045" lon="-3.241759"><ele>530</ele><time>2022-03-29T12:38:03Z</time><name>PT3483</name></trkpt>
<trkpt lat="54.446047" lon="-3.241772"><ele>530</ele><time>2022-03-29T12:38:04Z</time><name>PT3484</name></trkpt>
<trkpt lat="54.446049" lon="-3.241785"><ele>530</ele><time>2022-03-29T12:38:05Z</time><name>PT3485</name></trkpt>
<trkpt lat="54.446052" lon="-3.241803"><ele>529</ele><time>2022-03-29T12:38:05Z</time><name>PT3486</name></trkpt>
<trkpt lat="54.446052" lon="-3.241820"><ele>529</ele><time>2022-03-29T12:38:07Z</time><name>PT3487</name></trkpt>
<trkpt lat="54.446052" lon="-3.241836"><ele>529</ele><time>2022-03-29T12:38:08Z</time><name>PT3488</name></trkpt>
<trkpt lat="54.446052" lon="-3.241853"><ele>529</ele><time>2022-03-29T12:38:08Z</time><name>PT3489</name></trkpt>
<trkpt lat="54.446053" lon="-3.241869"><ele>529</ele><time>2022-03-29T12:38:10Z</time><name>PT3490</name></trkpt>
<trkpt lat="54.446056" lon="-3.241887"><ele>529</ele><time>2022-03-29T12:38:11Z</time><name>PT3491</name></trkpt>
<trkpt lat="54.446058" lon="-3.241905"><ele>529</ele><time>2022-03-29T12:38:11Z</time><name>PT3492</name></trkpt>
<trkpt lat="54.446059" lon="-3.241925"><ele>529</ele><time>2022-03-29T12:38:13Z</time><name>PT3493</name></trkpt>
<trkpt lat="54.446057" lon="-3.241944"><ele>528</ele><time>2022-03-29T12:38:14Z</time><name>PT3494</name></trkpt>
<trkpt lat="54.446056" lon="-3.241963"><ele>528</ele><time>2022-03-29T12:38:15Z</time><name>PT3495</name></trkpt>
<trkpt lat="54.446058" lon="-3.241981"><ele>528</ele><time>2022-03-29T12:38:16Z</time><name>PT3496</name></trkpt>
<trkpt lat="54.446057" lon="-3.242000"><ele>528</ele><time>2022-03-29T12:38:17Z</time><name>PT3497</name></trkpt>
<trkpt lat="54.446054" lon="-3.242014"><ele>528</ele><time>2022-03-29T12:38:17Z</time><name>PT3498</name></trkpt>
<trkpt lat="54.446053" lon="-3.242029"><ele>528</ele><time>2022-03-29T12:38:19Z</time><name>PT3499</name></trkpt>
<trkpt lat="54.446052" lon="-3.242047"><ele>528</ele><time>2022-03-29T12:38:20Z</time><name>PT3500</name></trkpt>
<trkpt lat="54.446052" lon="-3.242065"><ele>527</ele><time>2022-03-29T12:38:20Z</time><name>PT3501</name></trkpt>
<trkpt lat="54.446052" lon="-3.242074"><ele>527</ele><time>2022-03-29T12:38:22Z</time><name>PT3502</name></trkpt>
<trkpt lat="54.446052" lon="-3.242085"><ele>527</ele><time>2022-03-29T12:38:23Z</time><name>PT3503</name></trkpt>
<trkpt lat="54.446053" lon="-3.242110"><ele>527</ele><time>2022-03-29T12:38:23Z</time><name>PT3504</name></trkpt>
<trkpt lat="54.446056" lon="-3.242128"><ele>527</ele><time>2022-03-29T12:38:25Z</time><name>PT3505</name></trkpt>
<trkpt lat="54.446057" lon="-3.242141"><ele>527</ele><time>2022-03-29T12:38:26Z</time><name>PT3506</name></trkpt>
<trkpt lat="54.446058" lon="-3.242170"><ele>527</ele><time>2022-03-29T12:38:27Z</time><name>PT3507</name></trkpt>
<trkpt lat="54.446059" lon="-3.242196"><ele>527</ele><time>2022-03-29T12:38:28Z</time><name>PT3508</name></trkpt>
<trkpt lat="54.446060" lon="-3.242207"><ele>528</ele><time>2022-03-29T12:38:29Z</time><name>PT3509</name></trkpt>
<trkpt lat="54.446067" lon="-3.242242"><ele>528</ele><time>2022-03-29T12:38:31Z</time><name>PT3510</name></trkpt>
<trkpt lat="54.446070" lon="-3.242260"><ele>528</ele><time>2022-03-29T12:38:32Z</time><name>PT3511</name></trkpt>
<trkpt lat="54.446071" lon="-3.242270"><ele>528</ele><time>2022-03-29T12:38:32Z</time><name>PT3512</name></trkpt>
<trkpt lat="54.446075" lon="-3.242290"><ele>528</ele><time>2022-03-29T12:38:34Z</time><name>PT3513</name></trkpt>
<trkpt lat="54.446077" lon="-3.242314"><ele>527</ele><time>2022-03-29T12:38:35Z</time><name>PT3514</name></trkpt>
<trkpt lat="54.446077" lon="-3.242322"><ele>527</ele><time>2022-03-29T12:38:35Z</time><name>PT3515</name></trkpt>
<trkpt lat="54.446077" lon="-3.242331"><ele>527</ele><time>2022-03-29T12:38:37Z</time><name>PT3516</name></trkpt>
<trkpt lat="54.446079" lon="-3.242357"><ele>527</ele><time>2022-03-29T12:38:38Z</time><name>PT3517</name></trkpt>
<trkpt lat="54.446081" lon="-3.242373"><ele>527</ele><time>2022-03-29T12:38:38Z</time><name>PT3518</name></trkpt>
<trkpt lat="54.446084" lon="-3.242382"><ele>527</ele><time>2022-03-29T12:38:40Z</time><name>PT3519</name></trkpt>
<trkpt lat="54.446092" lon="-3.242393"><ele>526</ele><time>2022-03-29T12:38:41Z</time><name>PT3520</name></trkpt>
<trkpt lat="54.446106" lon="-3.242407"><ele>526</ele><time>2022-03-29T12:38:42Z</time><name>PT3521</name></trkpt>
<trkpt lat="54.446112" lon="-3.242418"><ele>527</ele><time>2022-03-29T12:38:43Z</time><name>PT3522</name></trkpt>
<trkpt lat="54.446115" lon="-3.242435"><ele>527</ele><time>2022-03-29T12:38:44Z</time><name>PT3523</name></trkpt>
<trkpt lat="54.446121" lon="-3.242459"><ele>527</ele><time>2022-03-29T12:38:44Z</time><name>PT3524</name></trkpt>
<trkpt lat="54.446125" lon="-3.242472"><ele>527</ele><time>2022-03-29T12:38:46Z</time><name>PT3525</name></trkpt>
<trkpt lat="54.446127" lon="-3.242489"><ele>528</ele><time>2022-03-29T12:38:47Z</time><name>PT3526</name></trkpt>
<trkpt lat="54.446128" lon="-3.242505"><ele>528</ele><time>2022-03-29T12:38:47Z</time><name>PT3527</name></trkpt>
<trkpt lat="54.446126" lon="-3.242520"><ele>528</ele><time>2022-03-29T12:38:49Z</time><name>PT3528</name></trkpt>
<trkpt lat="54.446125" lon="-3.242540"><ele>527</ele><time>2022-03-29T12:38:50Z</time><name>PT3529</name></trkpt>
<trkpt lat="54.446126" lon="-3.242553"><ele>527</ele><time>2022-03-29T12:38:50Z</time><name>PT3530</name></trkpt>
<trkpt lat="54.446126" lon="-3.242578"><ele>527</ele><time>2022-03-29T12:38:52Z</time><name>PT3531</name></trkpt>
<trkpt lat="54.446124" lon="-3.242596"><ele>527</ele><time>2022-03-29T12:38:53Z</time><name>PT3532</name></trkpt>
<trkpt lat="54.446122" lon="-3.242603"><ele>526</ele><time>2022-03-29T12:38:54Z</time><name>PT3533</name></trkpt>
<trkpt lat="54.446120" lon="-3.242622"><ele>528</ele><time>2022-03-29T12:38:55Z</time><name>PT3534</name></trkpt>
<trkpt lat="54.446116" lon="-3.242641"><ele>527</ele><time>2022-03-29T12:38:56Z</time><name>PT3535</name></trkpt>
<trkpt lat="54.446113" lon="-3.242654"><ele>527</ele><time>2022-03-29T12:38:56Z</time><name>PT3536</name></trkpt>
<trkpt lat="54.446108" lon="-3.242664"><ele>527</ele><time>2022-03-29T12:38:58Z</time><name>PT3537</name></trkpt>
<trkpt lat="54.446107" lon="-3.242683"><ele>526</ele><time>2022-03-29T12:38:59Z</time><name>PT3538</name></trkpt>
<trkpt lat="54.446105" lon="-3.242700"><ele>526</ele><time>2022-03-29T12:39:00Z</time><name>PT3539</name></trkpt>
<trkpt lat="54.446103" lon="-3.242718"><ele>527</ele><time>2022-03-29T12:39:01Z</time><name>PT3540</name></trkpt>
<trkpt lat="54.446109" lon="-3.242742"><ele>527</ele><time>2022-03-29T12:39:02Z</time><name>PT3541</name></trkpt>
<trkpt lat="54.446113" lon="-3.242743"><ele>526</ele><time>2022-03-29T12:39:02Z</time><name>PT3542</name></trkpt>
<trkpt lat="54.446117" lon="-3.242750"><ele>526</ele><time>2022-03-29T12:39:04Z</time><name>PT3543</name></trkpt>
<trkpt lat="54.446122" lon="-3.242773"><ele>526</ele><time>2022-03-29T12:39:05Z</time><name>PT3544</name></trkpt>
<trkpt lat="54.446128" lon="-3.242797"><ele>526</ele><time>2022-03-29T12:39:06Z</time><name>PT3545</name></trkpt>
<trkpt lat="54.446130" lon="-3.242814"><ele>526</ele><time>2022-03-29T12:39:07Z</time><name>PT3546</name></trkpt>
<trkpt lat="54.446136" lon="-3.242835"><ele>527</ele><time>2022-03-29T12:39:08Z</time><name>PT3547</name></trkpt>
<trkpt lat="54.446144" lon="-3.242859"><ele>527</ele><time>2022-03-29T12:39:09Z</time><name>PT3548</name></trkpt>
<trkpt lat="54.446147" lon="-3.242869"><ele>527</ele><time>2022-03-29T12:39:10Z</time><name>PT3549</name></trkpt>
<trkpt lat="54.446151" lon="-3.242884"><ele>527</ele><time>2022-03-29T12:39:11Z</time><name>PT3550</name></trkpt>
<trkpt lat="54.446152" lon="-3.242898"><ele>527</ele><time>2022-03-29T12:39:11Z</time><name>PT3551</name></trkpt>
<trkpt lat="54.446153" lon="-3.242922"><ele>527</ele><time>2022-03-29T12:39:13Z</time><name>PT3552</name></trkpt>
<trkpt lat="54.446154" lon="-3.242946"><ele>527</ele><time>2022-03-29T12:39:14Z</time><name>PT3553</name></trkpt>
<trkpt lat="54.446157" lon="-3.242974"><ele>528</ele><time>2022-03-29T12:39:15Z</time><name>PT3554</name></trkpt>
<trkpt lat="54.446156" lon="-3.242993"><ele>528</ele><time>2022-03-29T12:39:16Z</time><name>PT3555</name></trkpt>
<trkpt lat="54.446155" lon="-3.243006"><ele>527</ele><time>2022-03-29T12:39:17Z</time><name>PT3556</name></trkpt>
<trkpt lat="54.446155" lon="-3.243018"><ele>527</ele><time>2022-03-29T12:39:18Z</time><name>PT3557</name></trkpt>
<trkpt lat="54.446154" lon="-3.243032"><ele>527</ele><time>2022-03-29T12:39:19Z</time><name>PT3558</name></trkpt>
<trkpt lat="54.446153" lon="-3.243051"><ele>526</ele><time>2022-03-29T12:39:20Z</time><name>PT3559</name></trkpt>
<trkpt lat="54.446153" lon="-3.243072"><ele>526</ele><time>2022-03-29T12:39:21Z</time><name>PT3560</name></trkpt>
<trkpt lat="54.446155" lon="-3.243091"><ele>526</ele><time>2022-03-29T12:39:22Z</time><name>PT3561</name></trkpt>
<trkpt lat="54.446157" lon="-3.243102"><ele>526</ele><time>2022-03-29T12:39:23Z</time><name>PT3562</name></trkpt>
<trkpt lat="54.446152" lon="-3.243120"><ele>526</ele><time>2022-03-29T12:39:24Z</time><name>PT3563</name></trkpt>
<trkpt lat="54.446149" lon="-3.243138"><ele>526</ele><time>2022-03-29T12:39:25Z</time><name>PT3564</name></trkpt>
<trkpt lat="54.446151" lon="-3.243148"><ele>526</ele><time>2022-03-29T12:39:26Z</time><name>PT3565</name></trkpt>
<trkpt lat="54.446152" lon="-3.243169"><ele>526</ele><time>2022-03-29T12:39:27Z</time><name>PT3566</name></trkpt>
<trkpt lat="54.446150" lon="-3.243199"><ele>526</ele><time>2022-03-29T12:39:28Z</time><name>PT3567</name></trkpt>
<trkpt lat="54.446150" lon="-3.243214"><ele>526</ele><time>2022-03-29T12:39:29Z</time><name>PT3568</name></trkpt>
<trkpt lat="54.446150" lon="-3.243221"><ele>526</ele><time>2022-03-29T12:39:30Z</time><name>PT3569</name></trkpt>
<trkpt lat="54.446159" lon="-3.243233"><ele>526</ele><time>2022-03-29T12:39:31Z</time><name>PT3570</name></trkpt>
<trkpt lat="54.446169" lon="-3.243242"><ele>526</ele><time>2022-03-29T12:39:32Z</time><name>PT3571</name></trkpt>
<trkpt lat="54.446171" lon="-3.243241"><ele>526</ele><time>2022-03-29T12:39:33Z</time><name>PT3572</name></trkpt>
<trkpt lat="54.446177" lon="-3.243261"><ele>526</ele><time>2022-03-29T12:39:34Z</time><name>PT3573</name></trkpt>
<trkpt lat="54.446179" lon="-3.243288"><ele>527</ele><time>2022-03-29T12:39:35Z</time><name>PT3574</name></trkpt>
<trkpt lat="54.446177" lon="-3.243301"><ele>527</ele><time>2022-03-29T12:39:36Z</time><name>PT3575</name></trkpt>
<trkpt lat="54.446175" lon="-3.243311"><ele>527</ele><time>2022-03-29T12:39:37Z</time><name>PT3576</name></trkpt>
<trkpt lat="54.446173" lon="-3.243323"><ele>527</ele><time>2022-03-29T12:39:38Z</time><name>PT3577</name></trkpt>
<trkpt lat="54.446172" lon="-3.243348"><ele>527</ele><time>2022-03-29T12:39:39Z</time><name>PT3578</name></trkpt>
<trkpt lat="54.446171" lon="-3.243363"><ele>526</ele><time>2022-03-29T12:39:40Z</time><name>PT3579</name></trkpt>
<trkpt lat="54.446167" lon="-3.243393"><ele>527</ele><time>2022-03-29T12:39:42Z</time><name>PT3580</name></trkpt>
<trkpt lat="54.446161" lon="-3.243421"><ele>527</ele><time>2022-03-29T12:39:43Z</time><name>PT3581</name></trkpt>
<trkpt lat="54.446157" lon="-3.243448"><ele>527</ele><time>2022-03-29T12:39:44Z</time><name>PT3582</name></trkpt>
<trkpt lat="54.446151" lon="-3.243461"><ele>526</ele><time>2022-03-29T12:39:45Z</time><name>PT3583</name></trkpt>
<trkpt lat="54.446150" lon="-3.243484"><ele>526</ele><time>2022-03-29T12:39:46Z</time><name>PT3584</name></trkpt>
<trkpt lat="54.446150" lon="-3.243515"><ele>526</ele><time>2022-03-29T12:39:47Z</time><name>PT3585</name></trkpt>
<trkpt lat="54.446152" lon="-3.243536"><ele>526</ele><time>2022-03-29T12:39:48Z</time><name>PT3586</name></trkpt>
<trkpt lat="54.446150" lon="-3.243545"><ele>526</ele><time>2022-03-29T12:39:49Z</time><name>PT3587</name></trkpt>
<trkpt lat="54.446147" lon="-3.243567"><ele>526</ele><time>2022-03-29T12:39:50Z</time><name>PT3588</name></trkpt>
<trkpt lat="54.446147" lon="-3.243586"><ele>526</ele><time>2022-03-29T12:39:51Z</time><name>PT3589</name></trkpt>
<trkpt lat="54.446147" lon="-3.243592"><ele>526</ele><time>2022-03-29T12:39:52Z</time><name>PT3590</name></trkpt>
<trkpt lat="54.446147" lon="-3.243609"><ele>526</ele><time>2022-03-29T12:39:53Z</time><name>PT3591</name></trkpt>
<trkpt lat="54.446143" lon="-3.243640"><ele>526</ele><time>2022-03-29T12:39:54Z</time><name>PT3592</name></trkpt>
<trkpt lat="54.446140" lon="-3.243655"><ele>526</ele><time>2022-03-29T12:39:55Z</time><name>PT3593</name></trkpt>
<trkpt lat="54.446138" lon="-3.243668"><ele>526</ele><time>2022-03-29T12:39:56Z</time><name>PT3594</name></trkpt>
<trkpt lat="54.446134" lon="-3.243679"><ele>525</ele><time>2022-03-29T12:39:57Z</time><name>PT3595</name></trkpt>
<trkpt lat="54.446135" lon="-3.243691"><ele>525</ele><time>2022-03-29T12:39:58Z</time><name>PT3596</name></trkpt>
<trkpt lat="54.446135" lon="-3.243704"><ele>525</ele><time>2022-03-29T12:39:59Z</time><name>PT3597</name></trkpt>
<trkpt lat="54.446135" lon="-3.243725"><ele>525</ele><time>2022-03-29T12:39:59Z</time><name>PT3598</name></trkpt>
<trkpt lat="54.446135" lon="-3.243739"><ele>524</ele><time>2022-03-29T12:40:01Z</time><name>PT3599</name></trkpt>
<trkpt lat="54.446134" lon="-3.243743"><ele>524</ele><time>2022-03-29T12:40:02Z</time><name>PT3600</name></trkpt>
<trkpt lat="54.446131" lon="-3.243747"><ele>524</ele><time>2022-03-29T12:40:03Z</time><name>PT3601</name></trkpt>
<trkpt lat="54.446130" lon="-3.243758"><ele>524</ele><time>2022-03-29T12:40:04Z</time><name>PT3602</name></trkpt>
<trkpt lat="54.446128" lon="-3.243776"><ele>524</ele><time>2022-03-29T12:40:05Z</time><name>PT3603</name></trkpt>
<trkpt lat="54.446124" lon="-3.243790"><ele>524</ele><time>2022-03-29T12:40:05Z</time><name>PT3604</name></trkpt>
<trkpt lat="54.446123" lon="-3.243803"><ele>524</ele><time>2022-03-29T12:40:07Z</time><name>PT3605</name></trkpt>
<trkpt lat="54.446122" lon="-3.243817"><ele>524</ele><time>2022-03-29T12:40:08Z</time><name>PT3606</name></trkpt>
<trkpt lat="54.446121" lon="-3.243831"><ele>524</ele><time>2022-03-29T12:40:08Z</time><name>PT3607</name></trkpt>
<trkpt lat="54.446122" lon="-3.243851"><ele>524</ele><time>2022-03-29T12:40:10Z</time><name>PT3608</name></trkpt>
<trkpt lat="54.446122" lon="-3.243868"><ele>524</ele><time>2022-03-29T12:40:11Z</time><name>PT3609</name></trkpt>
<trkpt lat="54.446119" lon="-3.243893"><ele>524</ele><time>2022-03-29T12:40:12Z</time><name>PT3610</name></trkpt>
<trkpt lat="54.446115" lon="-3.243921"><ele>523</ele><time>2022-03-29T12:40:13Z</time><name>PT3611</name></trkpt>
<trkpt lat="54.446115" lon="-3.243935"><ele>523</ele><time>2022-03-29T12:40:14Z</time><name>PT3612</name></trkpt>
<trkpt lat="54.446115" lon="-3.243953"><ele>524</ele><time>2022-03-29T12:40:15Z</time><name>PT3613</name></trkpt>
<trkpt lat="54.446114" lon="-3.243969"><ele>524</ele><time>2022-03-29T12:40:16Z</time><name>PT3614</name></trkpt>
<trkpt lat="54.446120" lon="-3.244016"><ele>524</ele><time>2022-03-29T12:40:19Z</time><name>PT3615</name></trkpt>
<trkpt lat="54.446120" lon="-3.244043"><ele>524</ele><time>2022-03-29T12:40:22Z</time><name>PT3616</name></trkpt>
<trkpt lat="54.446122" lon="-3.244102"><ele>523</ele><time>2022-03-29T12:40:26Z</time><name>PT3617</name></trkpt>
<trkpt lat="54.446129" lon="-3.244152"><ele>522</ele><time>2022-03-29T12:40:29Z</time><name>PT3618</name></trkpt>
<trkpt lat="54.446145" lon="-3.244202"><ele>522</ele><time>2022-03-29T12:40:32Z</time><name>PT3619</name></trkpt>
<trkpt lat="54.446183" lon="-3.244267"><ele>523</ele><time>2022-03-29T12:40:36Z</time><name>PT3620</name></trkpt>
<trkpt lat="54.446204" lon="-3.244300"><ele>521</ele><time>2022-03-29T12:40:40Z</time><name>PT3621</name></trkpt>
<trkpt lat="54.446207" lon="-3.244310"><ele>520</ele><time>2022-03-29T12:40:41Z</time><name>PT3622</name></trkpt>
<trkpt lat="54.446212" lon="-3.244318"><ele>520</ele><time>2022-03-29T12:40:41Z</time><name>PT3623</name></trkpt>
<trkpt lat="54.446210" lon="-3.244325"><ele>519</ele><time>2022-03-29T12:40:43Z</time><name>PT3624</name></trkpt>
<trkpt lat="54.446209" lon="-3.244336"><ele>519</ele><time>2022-03-29T12:40:44Z</time><name>PT3625</name></trkpt>
<trkpt lat="54.446208" lon="-3.244362"><ele>519</ele><time>2022-03-29T12:40:44Z</time><name>PT3626</name></trkpt>
<trkpt lat="54.446206" lon="-3.244380"><ele>519</ele><time>2022-03-29T12:40:46Z</time><name>PT3627</name></trkpt>
<trkpt lat="54.446203" lon="-3.244389"><ele>518</ele><time>2022-03-29T12:40:47Z</time><name>PT3628</name></trkpt>
<trkpt lat="54.446199" lon="-3.244406"><ele>519</ele><time>2022-03-29T12:40:47Z</time><name>PT3629</name></trkpt>
<trkpt lat="54.446193" lon="-3.244430"><ele>518</ele><time>2022-03-29T12:40:49Z</time><name>PT3630</name></trkpt>
<trkpt lat="54.446182" lon="-3.244444"><ele>518</ele><time>2022-03-29T12:40:50Z</time><name>PT3631</name></trkpt>
<trkpt lat="54.446175" lon="-3.244454"><ele>518</ele><time>2022-03-29T12:40:50Z</time><name>PT3632</name></trkpt>
<trkpt lat="54.446171" lon="-3.244460"><ele>517</ele><time>2022-03-29T12:40:52Z</time><name>PT3633</name></trkpt>
<trkpt lat="54.446166" lon="-3.244476"><ele>518</ele><time>2022-03-29T12:40:53Z</time><name>PT3634</name></trkpt>
<trkpt lat="54.446158" lon="-3.244487"><ele>518</ele><time>2022-03-29T12:40:53Z</time><name>PT3635</name></trkpt>
<trkpt lat="54.446152" lon="-3.244495"><ele>518</ele><time>2022-03-29T12:40:55Z</time><name>PT3636</name></trkpt>
<trkpt lat="54.446146" lon="-3.244503"><ele>518</ele><time>2022-03-29T12:40:56Z</time><name>PT3637</name></trkpt>
<trkpt lat="54.446142" lon="-3.244512"><ele>517</ele><time>2022-03-29T12:40:56Z</time><name>PT3638</name></trkpt>
<trkpt lat="54.446137" lon="-3.244525"><ele>517</ele><time>2022-03-29T12:40:58Z</time><name>PT3639</name></trkpt>
<trkpt lat="54.446131" lon="-3.244541"><ele>517</ele><time>2022-03-29T12:40:59Z</time><name>PT3640</name></trkpt>
<trkpt lat="54.446127" lon="-3.244549"><ele>517</ele><time>2022-03-29T12:40:59Z</time><name>PT3641</name></trkpt>
<trkpt lat="54.446123" lon="-3.244555"><ele>517</ele><time>2022-03-29T12:41:01Z</time><name>PT3642</name></trkpt>
<trkpt lat="54.446118" lon="-3.244563"><ele>516</ele><time>2022-03-29T12:41:02Z</time><name>PT3643</name></trkpt>
<trkpt lat="54.446114" lon="-3.244572"><ele>516</ele><time>2022-03-29T12:41:02Z</time><name>PT3644</name></trkpt>
<trkpt lat="54.446111" lon="-3.244572"><ele>516</ele><time>2022-03-29T12:41:04Z</time><name>PT3645</name></trkpt>
<trkpt lat="54.446109" lon="-3.244572"><ele>516</ele><time>2022-03-29T12:41:05Z</time><name>PT3646</name></trkpt>
<trkpt lat="54.446108" lon="-3.244576"><ele>516</ele><time>2022-03-29T12:41:05Z</time><name>PT3647</name></trkpt>
<trkpt lat="54.446108" lon="-3.244576"><ele>516</ele><time>2022-03-29T12:41:07Z</time><name>PT3648</name></trkpt>
<trkpt lat="54.446107" lon="-3.244573"><ele>516</ele><time>2022-03-29T12:41:12Z</time><name>PT3649</name></trkpt>
<trkpt lat="54.446103" lon="-3.244576"><ele>515</ele><time>2022-03-29T12:41:13Z</time><name>PT3650</name></trkpt>
<trkpt lat="54.446100" lon="-3.244578"><ele>515</ele><time>2022-03-29T12:41:14Z</time><name>PT3651</name></trkpt>
<trkpt lat="54.446098" lon="-3.244582"><ele>515</ele><time>2022-03-29T12:41:15Z</time><name>PT3652</name></trkpt>
<trkpt lat="54.446094" lon="-3.244589"><ele>515</ele><time>2022-03-29T12:41:16Z</time><name>PT3653</name></trkpt>
<trkpt lat="54.446090" lon="-3.244593"><ele>515</ele><time>2022-03-29T12:41:17Z</time><name>PT3654</name></trkpt>
<trkpt lat="54.446089" lon="-3.244590"><ele>515</ele><time>2022-03-29T12:41:17Z</time><name>PT3655</name></trkpt>
<trkpt lat="54.446089" lon="-3.244586"><ele>515</ele><time>2022-03-29T12:41:19Z</time><name>PT3656</name></trkpt>
<trkpt lat="54.446088" lon="-3.244586"><ele>515</ele><time>2022-03-29T12:41:20Z</time><name>PT3657</name></trkpt>
<trkpt lat="54.446091" lon="-3.244590"><ele>514</ele><time>2022-03-29T12:41:22Z</time><name>PT3658</name></trkpt>
<trkpt lat="54.446092" lon="-3.244595"><ele>514</ele><time>2022-03-29T12:41:23Z</time><name>PT3659</name></trkpt>
<trkpt lat="54.446092" lon="-3.244597"><ele>514</ele><time>2022-03-29T12:41:24Z</time><name>PT3660</name></trkpt>
<trkpt lat="54.446092" lon="-3.244598"><ele>514</ele><time>2022-03-29T12:41:25Z</time><name>PT3661</name></trkpt>
<trkpt lat="54.446092" lon="-3.244598"><ele>514</ele><time>2022-03-29T12:41:26Z</time><name>PT3662</name></trkpt>
<trkpt lat="54.446094" lon="-3.244595"><ele>514</ele><time>2022-03-29T12:41:29Z</time><name>PT3663</name></trkpt>
<trkpt lat="54.446094" lon="-3.244594"><ele>514</ele><time>2022-03-29T12:41:30Z</time><name>PT3664</name></trkpt>
<trkpt lat="54.446092" lon="-3.244592"><ele>514</ele><time>2022-03-29T12:41:31Z</time><name>PT3665</name></trkpt>
<trkpt lat="54.446092" lon="-3.244598"><ele>514</ele><time>2022-03-29T12:41:32Z</time><name>PT3666</name></trkpt>
<trkpt lat="54.446092" lon="-3.244599"><ele>514</ele><time>2022-03-29T12:41:32Z</time><name>PT3667</name></trkpt>
<trkpt lat="54.446089" lon="-3.244603"><ele>514</ele><time>2022-03-29T12:41:43Z</time><name>PT3668</name></trkpt>
<trkpt lat="54.446089" lon="-3.244607"><ele>514</ele><time>2022-03-29T12:41:44Z</time><name>PT3669</name></trkpt>
<trkpt lat="54.446089" lon="-3.244608"><ele>514</ele><time>2022-03-29T12:41:44Z</time><name>PT3670</name></trkpt>
<trkpt lat="54.446089" lon="-3.244613"><ele>514</ele><time>2022-03-29T12:42:10Z</time><name>PT3671</name></trkpt>
<trkpt lat="54.446088" lon="-3.244613"><ele>514</ele><time>2022-03-29T12:42:11Z</time><name>PT3672</name></trkpt>
<trkpt lat="54.446088" lon="-3.244616"><ele>514</ele><time>2022-03-29T12:42:11Z</time><name>PT3673</name></trkpt>
<trkpt lat="54.446090" lon="-3.244614"><ele>514</ele><time>2022-03-29T12:42:13Z</time><name>PT3674</name></trkpt>
<trkpt lat="54.446090" lon="-3.244614"><ele>514</ele><time>2022-03-29T12:42:14Z</time><name>PT3675</name></trkpt>
<trkpt lat="54.446090" lon="-3.244620"><ele>513</ele><time>2022-03-29T12:42:14Z</time><name>PT3676</name></trkpt>
<trkpt lat="54.446087" lon="-3.244620"><ele>514</ele><time>2022-03-29T12:42:16Z</time><name>PT3677</name></trkpt>
<trkpt lat="54.446087" lon="-3.244625"><ele>513</ele><time>2022-03-29T12:42:17Z</time><name>PT3678</name></trkpt>
<trkpt lat="54.446088" lon="-3.244629"><ele>513</ele><time>2022-03-29T12:42:17Z</time><name>PT3679</name></trkpt>
<trkpt lat="54.446087" lon="-3.244629"><ele>513</ele><time>2022-03-29T12:42:19Z</time><name>PT3680</name></trkpt>
<trkpt lat="54.446087" lon="-3.244628"><ele>513</ele><time>2022-03-29T12:42:20Z</time><name>PT3681</name></trkpt>
<trkpt lat="54.446087" lon="-3.244628"><ele>513</ele><time>2022-03-29T12:42:32Z</time><name>PT3682</name></trkpt>
<trkpt lat="54.446087" lon="-3.244626"><ele>513</ele><time>2022-03-29T12:42:33Z</time><name>PT3683</name></trkpt>
<trkpt lat="54.446086" lon="-3.244629"><ele>513</ele><time>2022-03-29T12:42:34Z</time><name>PT3684</name></trkpt>
<trkpt lat="54.446086" lon="-3.244626"><ele>513</ele><time>2022-03-29T12:42:35Z</time><name>PT3685</name></trkpt>
<trkpt lat="54.446086" lon="-3.244623"><ele>513</ele><time>2022-03-29T12:42:36Z</time><name>PT3686</name></trkpt>
<trkpt lat="54.446085" lon="-3.244623"><ele>513</ele><time>2022-03-29T12:42:37Z</time><name>PT3687</name></trkpt>
<trkpt lat="54.446082" lon="-3.244616"><ele>513</ele><time>2022-03-29T12:42:41Z</time><name>PT3688</name></trkpt>
<trkpt lat="54.446081" lon="-3.244611"><ele>513</ele><time>2022-03-29T12:42:41Z</time><name>PT3689</name></trkpt>
<trkpt lat="54.446079" lon="-3.244618"><ele>514</ele><time>2022-03-29T12:42:43Z</time><name>PT3690</name></trkpt>
<trkpt lat="54.446076" lon="-3.244622"><ele>513</ele><time>2022-03-29T12:42:44Z</time><name>PT3691</name></trkpt>
<trkpt lat="54.446073" lon="-3.244623"><ele>513</ele><time>2022-03-29T12:42:44Z</time><name>PT3692</name></trkpt>
<trkpt lat="54.446069" lon="-3.244629"><ele>513</ele><time>2022-03-29T12:42:46Z</time><name>PT3693</name></trkpt>
<trkpt lat="54.446064" lon="-3.244627"><ele>513</ele><time>2022-03-29T12:42:47Z</time><name>PT3694</name></trkpt>
<trkpt lat="54.446059" lon="-3.244629"><ele>513</ele><time>2022-03-29T12:42:48Z</time><name>PT3695</name></trkpt>
<trkpt lat="54.446053" lon="-3.244637"><ele>513</ele><time>2022-03-29T12:42:49Z</time><name>PT3696</name></trkpt>
<trkpt lat="54.446046" lon="-3.244648"><ele>513</ele><time>2022-03-29T12:42:50Z</time><name>PT3697</name></trkpt>
<trkpt lat="54.446038" lon="-3.244663"><ele>513</ele><time>2022-03-29T12:42:50Z</time><name>PT3698</name></trkpt>
<trkpt lat="54.446026" lon="-3.244682"><ele>513</ele><time>2022-03-29T12:42:52Z</time><name>PT3699</name></trkpt>
<trkpt lat="54.446012" lon="-3.244701"><ele>513</ele><time>2022-03-29T12:42:53Z</time><name>PT3700</name></trkpt>
<trkpt lat="54.446000" lon="-3.244717"><ele>513</ele><time>2022-03-29T12:42:53Z</time><name>PT3701</name></trkpt>
<trkpt lat="54.445991" lon="-3.244729"><ele>513</ele><time>2022-03-29T12:42:55Z</time><name>PT3702</name></trkpt>
<trkpt lat="54.445985" lon="-3.244733"><ele>513</ele><time>2022-03-29T12:42:56Z</time><name>PT3703</name></trkpt>
<trkpt lat="54.445979" lon="-3.244745"><ele>513</ele><time>2022-03-29T12:42:56Z</time><name>PT3704</name></trkpt>
<trkpt lat="54.445973" lon="-3.244758"><ele>512</ele><time>2022-03-29T12:42:58Z</time><name>PT3705</name></trkpt>
<trkpt lat="54.445965" lon="-3.244770"><ele>512</ele><time>2022-03-29T12:42:59Z</time><name>PT3706</name></trkpt>
<trkpt lat="54.445956" lon="-3.244779"><ele>512</ele><time>2022-03-29T12:42:59Z</time><name>PT3707</name></trkpt>
<trkpt lat="54.445946" lon="-3.244788"><ele>512</ele><time>2022-03-29T12:43:01Z</time><name>PT3708</name></trkpt>
<trkpt lat="54.445938" lon="-3.244802"><ele>511</ele><time>2022-03-29T12:43:02Z</time><name>PT3709</name></trkpt>
<trkpt lat="54.445931" lon="-3.244815"><ele>511</ele><time>2022-03-29T12:43:02Z</time><name>PT3710</name></trkpt>
<trkpt lat="54.445926" lon="-3.244829"><ele>511</ele><time>2022-03-29T12:43:04Z</time><name>PT3711</name></trkpt>
<trkpt lat="54.445920" lon="-3.244845"><ele>511</ele><time>2022-03-29T12:43:05Z</time><name>PT3712</name></trkpt>
<trkpt lat="54.445912" lon="-3.244864"><ele>510</ele><time>2022-03-29T12:43:05Z</time><name>PT3713</name></trkpt>
<trkpt lat="54.445903" lon="-3.244888"><ele>511</ele><time>2022-03-29T12:43:07Z</time><name>PT3714</name></trkpt>
<trkpt lat="54.445895" lon="-3.244912"><ele>511</ele><time>2022-03-29T12:43:08Z</time><name>PT3715</name></trkpt>
<trkpt lat="54.445887" lon="-3.244928"><ele>510</ele><time>2022-03-29T12:43:08Z</time><name>PT3716</name></trkpt>
<trkpt lat="54.445881" lon="-3.244939"><ele>510</ele><time>2022-03-29T12:43:10Z</time><name>PT3717</name></trkpt>
<trkpt lat="54.445878" lon="-3.244943"><ele>509</ele><time>2022-03-29T12:43:11Z</time><name>PT3718</name></trkpt>
<trkpt lat="54.445873" lon="-3.244946"><ele>509</ele><time>2022-03-29T12:43:11Z</time><name>PT3719</name></trkpt>
<trkpt lat="54.445867" lon="-3.244948"><ele>508</ele><time>2022-03-29T12:43:13Z</time><name>PT3720</name></trkpt>
<trkpt lat="54.445862" lon="-3.244958"><ele>508</ele><time>2022-03-29T12:43:14Z</time><name>PT3721</name></trkpt>
<trkpt lat="54.445851" lon="-3.244979"><ele>508</ele><time>2022-03-29T12:43:14Z</time><name>PT3722</name></trkpt>
<trkpt lat="54.445839" lon="-3.245005"><ele>509</ele><time>2022-03-29T12:43:16Z</time><name>PT3723</name></trkpt>
<trkpt lat="54.445831" lon="-3.245022"><ele>508</ele><time>2022-03-29T12:43:17Z</time><name>PT3724</name></trkpt>
<trkpt lat="54.445825" lon="-3.245036"><ele>508</ele><time>2022-03-29T12:43:17Z</time><name>PT3725</name></trkpt>
<trkpt lat="54.445818" lon="-3.245047"><ele>508</ele><time>2022-03-29T12:43:19Z</time><name>PT3726</name></trkpt>
<trkpt lat="54.445811" lon="-3.245058"><ele>508</ele><time>2022-03-29T12:43:20Z</time><name>PT3727</name></trkpt>
<trkpt lat="54.445804" lon="-3.245070"><ele>508</ele><time>2022-03-29T12:43:20Z</time><name>PT3728</name></trkpt>
<trkpt lat="54.445797" lon="-3.245079"><ele>508</ele><time>2022-03-29T12:43:22Z</time><name>PT3729</name></trkpt>
<trkpt lat="54.445790" lon="-3.245090"><ele>507</ele><time>2022-03-29T12:43:23Z</time><name>PT3730</name></trkpt>
<trkpt lat="54.445783" lon="-3.245104"><ele>507</ele><time>2022-03-29T12:43:23Z</time><name>PT3731</name></trkpt>
<trkpt lat="54.445777" lon="-3.245116"><ele>507</ele><time>2022-03-29T12:43:25Z</time><name>PT3732</name></trkpt>
<trkpt lat="54.445774" lon="-3.245122"><ele>507</ele><time>2022-03-29T12:43:26Z</time><name>PT3733</name></trkpt>
<trkpt lat="54.445771" lon="-3.245132"><ele>506</ele><time>2022-03-29T12:43:26Z</time><name>PT3734</name></trkpt>
<trkpt lat="54.445766" lon="-3.245142"><ele>506</ele><time>2022-03-29T12:43:28Z</time><name>PT3735</name></trkpt>
<trkpt lat="54.445758" lon="-3.245159"><ele>506</ele><time>2022-03-29T12:43:29Z</time><name>PT3736</name></trkpt>
<trkpt lat="54.445746" lon="-3.245184"><ele>506</ele><time>2022-03-29T12:43:29Z</time><name>PT3737</name></trkpt>
<trkpt lat="54.445733" lon="-3.245205"><ele>507</ele><time>2022-03-29T12:43:31Z</time><name>PT3738</name></trkpt>
<trkpt lat="54.445720" lon="-3.245218"><ele>507</ele><time>2022-03-29T12:43:32Z</time><name>PT3739</name></trkpt>
<trkpt lat="54.445712" lon="-3.245226"><ele>506</ele><time>2022-03-29T12:43:33Z</time><name>PT3740</name></trkpt>
<trkpt lat="54.445707" lon="-3.245229"><ele>506</ele><time>2022-03-29T12:43:34Z</time><name>PT3741</name></trkpt>
<trkpt lat="54.445702" lon="-3.245235"><ele>505</ele><time>2022-03-29T12:43:35Z</time><name>PT3742</name></trkpt>
<trkpt lat="54.445696" lon="-3.245248"><ele>505</ele><time>2022-03-29T12:43:35Z</time><name>PT3743</name></trkpt>
<trkpt lat="54.445691" lon="-3.245251"><ele>505</ele><time>2022-03-29T12:43:37Z</time><name>PT3744</name></trkpt>
<trkpt lat="54.445680" lon="-3.245255"><ele>505</ele><time>2022-03-29T12:43:38Z</time><name>PT3745</name></trkpt>
<trkpt lat="54.445666" lon="-3.245262"><ele>505</ele><time>2022-03-29T12:43:38Z</time><name>PT3746</name></trkpt>
<trkpt lat="54.445659" lon="-3.245272"><ele>504</ele><time>2022-03-29T12:43:40Z</time><name>PT3747</name></trkpt>
<trkpt lat="54.445654" lon="-3.245276"><ele>504</ele><time>2022-03-29T12:43:41Z</time><name>PT3748</name></trkpt>
<trkpt lat="54.445649" lon="-3.245281"><ele>504</ele><time>2022-03-29T12:43:41Z</time><name>PT3749</name></trkpt>
<trkpt lat="54.445638" lon="-3.245296"><ele>504</ele><time>2022-03-29T12:43:43Z</time><name>PT3750</name></trkpt>
<trkpt lat="54.445624" lon="-3.245314"><ele>504</ele><time>2022-03-29T12:43:44Z</time><name>PT3751</name></trkpt>
<trkpt lat="54.445608" lon="-3.245329"><ele>504</ele><time>2022-03-29T12:43:44Z</time><name>PT3752</name></trkpt>
<trkpt lat="54.445595" lon="-3.245344"><ele>504</ele><time>2022-03-29T12:43:46Z</time><name>PT3753</name></trkpt>
<trkpt lat="54.445585" lon="-3.245353"><ele>503</ele><time>2022-03-29T12:43:47Z</time><name>PT3754</name></trkpt>
<trkpt lat="54.445580" lon="-3.245358"><ele>503</ele><time>2022-03-29T12:43:47Z</time><name>PT3755</name></trkpt>
<trkpt lat="54.445574" lon="-3.245363"><ele>503</ele><time>2022-03-29T12:43:49Z</time><name>PT3756</name></trkpt>
<trkpt lat="54.445565" lon="-3.245372"><ele>503</ele><time>2022-03-29T12:43:50Z</time><name>PT3757</name></trkpt>
<trkpt lat="54.445551" lon="-3.245388"><ele>503</ele><time>2022-03-29T12:43:50Z</time><name>PT3758</name></trkpt>
<trkpt lat="54.445535" lon="-3.245405"><ele>503</ele><time>2022-03-29T12:43:52Z</time><name>PT3759</name></trkpt>
<trkpt lat="54.445522" lon="-3.245416"><ele>503</ele><time>2022-03-29T12:43:53Z</time><name>PT3760</name></trkpt>
<trkpt lat="54.445512" lon="-3.245425"><ele>502</ele><time>2022-03-29T12:43:53Z</time><name>PT3761</name></trkpt>
<trkpt lat="54.445507" lon="-3.245431"><ele>502</ele><time>2022-03-29T12:43:55Z</time><name>PT3762</name></trkpt>
<trkpt lat="54.445502" lon="-3.245437"><ele>502</ele><time>2022-03-29T12:43:56Z</time><name>PT3763</name></trkpt>
<trkpt lat="54.445495" lon="-3.245447"><ele>502</ele><time>2022-03-29T12:43:56Z</time><name>PT3764</name></trkpt>
<trkpt lat="54.445487" lon="-3.245458"><ele>502</ele><time>2022-03-29T12:43:58Z</time><name>PT3765</name></trkpt>
<trkpt lat="54.445476" lon="-3.245474"><ele>502</ele><time>2022-03-29T12:43:59Z</time><name>PT3766</name></trkpt>
<trkpt lat="54.445466" lon="-3.245485"><ele>501</ele><time>2022-03-29T12:43:59Z</time><name>PT3767</name></trkpt>
<trkpt lat="54.445459" lon="-3.245485"><ele>500</ele><time>2022-03-29T12:44:01Z</time><name>PT3768</name></trkpt>
<trkpt lat="54.445454" lon="-3.245484"><ele>500</ele><time>2022-03-29T12:44:02Z</time><name>PT3769</name></trkpt>
<trkpt lat="54.445448" lon="-3.245491"><ele>499</ele><time>2022-03-29T12:44:02Z</time><name>PT3770</name></trkpt>
<trkpt lat="54.445443" lon="-3.245503"><ele>499</ele><time>2022-03-29T12:44:04Z</time><name>PT3771</name></trkpt>
<trkpt lat="54.445437" lon="-3.245524"><ele>499</ele><time>2022-03-29T12:44:05Z</time><name>PT3772</name></trkpt>
<trkpt lat="54.445429" lon="-3.245551"><ele>499</ele><time>2022-03-29T12:44:05Z</time><name>PT3773</name></trkpt>
<trkpt lat="54.445421" lon="-3.245582"><ele>499</ele><time>2022-03-29T12:44:07Z</time><name>PT3774</name></trkpt>
<trkpt lat="54.445414" lon="-3.245607"><ele>498</ele><time>2022-03-29T12:44:08Z</time><name>PT3775</name></trkpt>
<trkpt lat="54.445408" lon="-3.245624"><ele>498</ele><time>2022-03-29T12:44:08Z</time><name>PT3776</name></trkpt>
<trkpt lat="54.445403" lon="-3.245636"><ele>498</ele><time>2022-03-29T12:44:10Z</time><name>PT3777</name></trkpt>
<trkpt lat="54.445400" lon="-3.245641"><ele>497</ele><time>2022-03-29T12:44:11Z</time><name>PT3778</name></trkpt>
<trkpt lat="54.445394" lon="-3.245650"><ele>497</ele><time>2022-03-29T12:44:11Z</time><name>PT3779</name></trkpt>
<trkpt lat="54.445386" lon="-3.245667"><ele>497</ele><time>2022-03-29T12:44:13Z</time><name>PT3780</name></trkpt>
<trkpt lat="54.445373" lon="-3.245685"><ele>498</ele><time>2022-03-29T12:44:14Z</time><name>PT3781</name></trkpt>
<trkpt lat="54.445357" lon="-3.245701"><ele>498</ele><time>2022-03-29T12:44:14Z</time><name>PT3782</name></trkpt>
<trkpt lat="54.445346" lon="-3.245709"><ele>497</ele><time>2022-03-29T12:44:16Z</time><name>PT3783</name></trkpt>
<trkpt lat="54.445338" lon="-3.245716"><ele>497</ele><time>2022-03-29T12:44:17Z</time><name>PT3784</name></trkpt>
<trkpt lat="54.445332" lon="-3.245720"><ele>497</ele><time>2022-03-29T12:44:17Z</time><name>PT3785</name></trkpt>
<trkpt lat="54.445330" lon="-3.245723"><ele>497</ele><time>2022-03-29T12:44:19Z</time><name>PT3786</name></trkpt>
<trkpt lat="54.445316" lon="-3.245728"><ele>496</ele><time>2022-03-29T12:44:20Z</time><name>PT3787</name></trkpt>
<trkpt lat="54.445298" lon="-3.245737"><ele>497</ele><time>2022-03-29T12:44:20Z</time><name>PT3788</name></trkpt>
<trkpt lat="54.445285" lon="-3.245746"><ele>496</ele><time>2022-03-29T12:44:22Z</time><name>PT3789</name></trkpt>
<trkpt lat="54.445276" lon="-3.245753"><ele>496</ele><time>2022-03-29T12:44:23Z</time><name>PT3790</name></trkpt>
<trkpt lat="54.445271" lon="-3.245755"><ele>496</ele><time>2022-03-29T12:44:23Z</time><name>PT3791</name></trkpt>
<trkpt lat="54.445267" lon="-3.245756"><ele>496</ele><time>2022-03-29T12:44:25Z</time><name>PT3792</name></trkpt>
<trkpt lat="54.445261" lon="-3.245763"><ele>495</ele><time>2022-03-29T12:44:26Z</time><name>PT3793</name></trkpt>
<trkpt lat="54.445253" lon="-3.245770"><ele>495</ele><time>2022-03-29T12:44:26Z</time><name>PT3794</name></trkpt>
<trkpt lat="54.445245" lon="-3.245786"><ele>495</ele><time>2022-03-29T12:44:28Z</time><name>PT3795</name></trkpt>
<trkpt lat="54.445237" lon="-3.245808"><ele>495</ele><time>2022-03-29T12:44:29Z</time><name>PT3796</name></trkpt>
<trkpt lat="54.445227" lon="-3.245833"><ele>495</ele><time>2022-03-29T12:44:29Z</time><name>PT3797</name></trkpt>
<trkpt lat="54.445218" lon="-3.245854"><ele>495</ele><time>2022-03-29T12:44:31Z</time><name>PT3798</name></trkpt>
<trkpt lat="54.445214" lon="-3.245865"><ele>495</ele><time>2022-03-29T12:44:32Z</time><name>PT3799</name></trkpt>
<trkpt lat="54.445208" lon="-3.245868"><ele>494</ele><time>2022-03-29T12:44:32Z</time><name>PT3800</name></trkpt>
<trkpt lat="54.445200" lon="-3.245874"><ele>494</ele><time>2022-03-29T12:44:34Z</time><name>PT3801</name></trkpt>
<trkpt lat="54.445188" lon="-3.245890"><ele>494</ele><time>2022-03-29T12:44:35Z</time><name>PT3802</name></trkpt>
<trkpt lat="54.445171" lon="-3.245911"><ele>494</ele><time>2022-03-29T12:44:35Z</time><name>PT3803</name></trkpt>
<trkpt lat="54.445158" lon="-3.245927"><ele>494</ele><time>2022-03-29T12:44:37Z</time><name>PT3804</name></trkpt>
<trkpt lat="54.445150" lon="-3.245939"><ele>493</ele><time>2022-03-29T12:44:38Z</time><name>PT3805</name></trkpt>
<trkpt lat="54.445144" lon="-3.245946"><ele>493</ele><time>2022-03-29T12:44:38Z</time><name>PT3806</name></trkpt>
<trkpt lat="54.445139" lon="-3.245950"><ele>493</ele><time>2022-03-29T12:44:40Z</time><name>PT3807</name></trkpt>
<trkpt lat="54.445134" lon="-3.245965"><ele>493</ele><time>2022-03-29T12:44:41Z</time><name>PT3808</name></trkpt>
<trkpt lat="54.445126" lon="-3.245982"><ele>493</ele><time>2022-03-29T12:44:42Z</time><name>PT3809</name></trkpt>
<trkpt lat="54.445117" lon="-3.245999"><ele>493</ele><time>2022-03-29T12:44:43Z</time><name>PT3810</name></trkpt>
<trkpt lat="54.445112" lon="-3.246012"><ele>493</ele><time>2022-03-29T12:44:44Z</time><name>PT3811</name></trkpt>
<trkpt lat="54.445107" lon="-3.246024"><ele>493</ele><time>2022-03-29T12:44:44Z</time><name>PT3812</name></trkpt>
<trkpt lat="54.445101" lon="-3.246038"><ele>493</ele><time>2022-03-29T12:44:46Z</time><name>PT3813</name></trkpt>
<trkpt lat="54.445095" lon="-3.246051"><ele>493</ele><time>2022-03-29T12:44:47Z</time><name>PT3814</name></trkpt>
<trkpt lat="54.445091" lon="-3.246063"><ele>492</ele><time>2022-03-29T12:44:47Z</time><name>PT3815</name></trkpt>
<trkpt lat="54.445087" lon="-3.246072"><ele>492</ele><time>2022-03-29T12:44:49Z</time><name>PT3816</name></trkpt>
<trkpt lat="54.445085" lon="-3.246084"><ele>492</ele><time>2022-03-29T12:44:50Z</time><name>PT3817</name></trkpt>
<trkpt lat="54.445081" lon="-3.246092"><ele>491</ele><time>2022-03-29T12:44:50Z</time><name>PT3818</name></trkpt>
<trkpt lat="54.445078" lon="-3.246109"><ele>491</ele><time>2022-03-29T12:44:52Z</time><name>PT3819</name></trkpt>
<trkpt lat="54.445073" lon="-3.246130"><ele>490</ele><time>2022-03-29T12:44:53Z</time><name>PT3820</name></trkpt>
<trkpt lat="54.445068" lon="-3.246146"><ele>490</ele><time>2022-03-29T12:44:54Z</time><name>PT3821</name></trkpt>
<trkpt lat="54.445066" lon="-3.246155"><ele>490</ele><time>2022-03-29T12:44:55Z</time><name>PT3822</name></trkpt>
<trkpt lat="54.445064" lon="-3.246164"><ele>490</ele><time>2022-03-29T12:44:56Z</time><name>PT3823</name></trkpt>
<trkpt lat="54.445063" lon="-3.246171"><ele>490</ele><time>2022-03-29T12:44:56Z</time><name>PT3824</name></trkpt>
<trkpt lat="54.445065" lon="-3.246173"><ele>489</ele><time>2022-03-29T12:44:58Z</time><name>PT3825</name></trkpt>
<trkpt lat="54.445065" lon="-3.246171"><ele>489</ele><time>2022-03-29T12:44:59Z</time><name>PT3826</name></trkpt>
<trkpt lat="54.445063" lon="-3.246174"><ele>489</ele><time>2022-03-29T12:44:59Z</time><name>PT3827</name></trkpt>
<trkpt lat="54.445062" lon="-3.246186"><ele>489</ele><time>2022-03-29T12:45:01Z</time><name>PT3828</name></trkpt>
<trkpt lat="54.445060" lon="-3.246199"><ele>488</ele><time>2022-03-29T12:45:02Z</time><name>PT3829</name></trkpt>
<trkpt lat="54.445059" lon="-3.246220"><ele>489</ele><time>2022-03-29T12:45:02Z</time><name>PT3830</name></trkpt>
<trkpt lat="54.445057" lon="-3.246235"><ele>489</ele><time>2022-03-29T12:45:04Z</time><name>PT3831</name></trkpt>
<trkpt lat="54.445055" lon="-3.246248"><ele>489</ele><time>2022-03-29T12:45:05Z</time><name>PT3832</name></trkpt>
<trkpt lat="54.445053" lon="-3.246262"><ele>488</ele><time>2022-03-29T12:45:06Z</time><name>PT3833</name></trkpt>
<trkpt lat="54.445051" lon="-3.246276"><ele>488</ele><time>2022-03-29T12:45:07Z</time><name>PT3834</name></trkpt>
<trkpt lat="54.445050" lon="-3.246289"><ele>488</ele><time>2022-03-29T12:45:08Z</time><name>PT3835</name></trkpt>
<trkpt lat="54.445048" lon="-3.246303"><ele>487</ele><time>2022-03-29T12:45:09Z</time><name>PT3836</name></trkpt>
<trkpt lat="54.445047" lon="-3.246317"><ele>487</ele><time>2022-03-29T12:45:10Z</time><name>PT3837</name></trkpt>
<trkpt lat="54.445046" lon="-3.246326"><ele>487</ele><time>2022-03-29T12:45:11Z</time><name>PT3838</name></trkpt>
<trkpt lat="54.445047" lon="-3.246332"><ele>487</ele><time>2022-03-29T12:45:11Z</time><name>PT3839</name></trkpt>
<trkpt lat="54.445045" lon="-3.246345"><ele>486</ele><time>2022-03-29T12:45:13Z</time><name>PT3840</name></trkpt>
<trkpt lat="54.445044" lon="-3.246360"><ele>486</ele><time>2022-03-29T12:45:14Z</time><name>PT3841</name></trkpt>
<trkpt lat="54.445043" lon="-3.246375"><ele>486</ele><time>2022-03-29T12:45:15Z</time><name>PT3842</name></trkpt>
<trkpt lat="54.445042" lon="-3.246390"><ele>486</ele><time>2022-03-29T12:45:16Z</time><name>PT3843</name></trkpt>
<trkpt lat="54.445038" lon="-3.246395"><ele>485</ele><time>2022-03-29T12:45:17Z</time><name>PT3844</name></trkpt>
<trkpt lat="54.445034" lon="-3.246404"><ele>485</ele><time>2022-03-29T12:45:17Z</time><name>PT3845</name></trkpt>
<trkpt lat="54.445030" lon="-3.246429"><ele>485</ele><time>2022-03-29T12:45:19Z</time><name>PT3846</name></trkpt>
<trkpt lat="54.445022" lon="-3.246456"><ele>485</ele><time>2022-03-29T12:45:20Z</time><name>PT3847</name></trkpt>
<trkpt lat="54.445016" lon="-3.246474"><ele>484</ele><time>2022-03-29T12:45:21Z</time><name>PT3848</name></trkpt>
<trkpt lat="54.445013" lon="-3.246478"><ele>484</ele><time>2022-03-29T12:45:22Z</time><name>PT3849</name></trkpt>
<trkpt lat="54.445010" lon="-3.246482"><ele>484</ele><time>2022-03-29T12:45:23Z</time><name>PT3850</name></trkpt>
<trkpt lat="54.445010" lon="-3.246492"><ele>484</ele><time>2022-03-29T12:45:24Z</time><name>PT3851</name></trkpt>
<trkpt lat="54.445010" lon="-3.246511"><ele>484</ele><time>2022-03-29T12:45:25Z</time><name>PT3852</name></trkpt>
<trkpt lat="54.445009" lon="-3.246533"><ele>484</ele><time>2022-03-29T12:45:26Z</time><name>PT3853</name></trkpt>
<trkpt lat="54.445006" lon="-3.246561"><ele>484</ele><time>2022-03-29T12:45:27Z</time><name>PT3854</name></trkpt>
<trkpt lat="54.445004" lon="-3.246571"><ele>484</ele><time>2022-03-29T12:45:28Z</time><name>PT3855</name></trkpt>
<trkpt lat="54.445002" lon="-3.246582"><ele>484</ele><time>2022-03-29T12:45:29Z</time><name>PT3856</name></trkpt>
<trkpt lat="54.445004" lon="-3.246606"><ele>484</ele><time>2022-03-29T12:45:30Z</time><name>PT3857</name></trkpt>
<trkpt lat="54.445006" lon="-3.246636"><ele>485</ele><time>2022-03-29T12:45:31Z</time><name>PT3858</name></trkpt>
<trkpt lat="54.445007" lon="-3.246653"><ele>484</ele><time>2022-03-29T12:45:32Z</time><name>PT3859</name></trkpt>
<trkpt lat="54.445007" lon="-3.246660"><ele>484</ele><time>2022-03-29T12:45:32Z</time><name>PT3860</name></trkpt>
<trkpt lat="54.445007" lon="-3.246664"><ele>484</ele><time>2022-03-29T12:45:34Z</time><name>PT3861</name></trkpt>
<trkpt lat="54.445007" lon="-3.246670"><ele>484</ele><time>2022-03-29T12:45:35Z</time><name>PT3862</name></trkpt>
<trkpt lat="54.445003" lon="-3.246689"><ele>484</ele><time>2022-03-29T12:45:35Z</time><name>PT3863</name></trkpt>
<trkpt lat="54.445000" lon="-3.246707"><ele>483</ele><time>2022-03-29T12:45:37Z</time><name>PT3864</name></trkpt>
<trkpt lat="54.444997" lon="-3.246718"><ele>483</ele><time>2022-03-29T12:45:38Z</time><name>PT3865</name></trkpt>
<trkpt lat="54.444991" lon="-3.246736"><ele>484</ele><time>2022-03-29T12:45:38Z</time><name>PT3866</name></trkpt>
<trkpt lat="54.444987" lon="-3.246748"><ele>483</ele><time>2022-03-29T12:45:40Z</time><name>PT3867</name></trkpt>
<trkpt lat="54.444983" lon="-3.246770"><ele>484</ele><time>2022-03-29T12:45:41Z</time><name>PT3868</name></trkpt>
<trkpt lat="54.444979" lon="-3.246795"><ele>484</ele><time>2022-03-29T12:45:41Z</time><name>PT3869</name></trkpt>
<trkpt lat="54.444974" lon="-3.246814"><ele>484</ele><time>2022-03-29T12:45:43Z</time><name>PT3870</name></trkpt>
<trkpt lat="54.444971" lon="-3.246824"><ele>483</ele><time>2022-03-29T12:45:44Z</time><name>PT3871</name></trkpt>
<trkpt lat="54.444969" lon="-3.246830"><ele>483</ele><time>2022-03-29T12:45:45Z</time><name>PT3872</name></trkpt>
<trkpt lat="54.444966" lon="-3.246847"><ele>484</ele><time>2022-03-29T12:45:46Z</time><name>PT3873</name></trkpt>
<trkpt lat="54.444964" lon="-3.246861"><ele>483</ele><time>2022-03-29T12:45:47Z</time><name>PT3874</name></trkpt>
<trkpt lat="54.444960" lon="-3.246874"><ele>484</ele><time>2022-03-29T12:45:47Z</time><name>PT3875</name></trkpt>
<trkpt lat="54.444957" lon="-3.246887"><ele>484</ele><time>2022-03-29T12:45:49Z</time><name>PT3876</name></trkpt>
<trkpt lat="54.444954" lon="-3.246902"><ele>483</ele><time>2022-03-29T12:45:50Z</time><name>PT3877</name></trkpt>
<trkpt lat="54.444953" lon="-3.246917"><ele>483</ele><time>2022-03-29T12:45:50Z</time><name>PT3878</name></trkpt>
<trkpt lat="54.444951" lon="-3.246927"><ele>483</ele><time>2022-03-29T12:45:52Z</time><name>PT3879</name></trkpt>
<trkpt lat="54.444949" lon="-3.246935"><ele>483</ele><time>2022-03-29T12:45:53Z</time><name>PT3880</name></trkpt>
<trkpt lat="54.444945" lon="-3.246949"><ele>483</ele><time>2022-03-29T12:45:53Z</time><name>PT3881</name></trkpt>
<trkpt lat="54.444941" lon="-3.246968"><ele>483</ele><time>2022-03-29T12:45:55Z</time><name>PT3882</name></trkpt>
<trkpt lat="54.444937" lon="-3.246989"><ele>483</ele><time>2022-03-29T12:45:56Z</time><name>PT3883</name></trkpt>
<trkpt lat="54.444933" lon="-3.247008"><ele>483</ele><time>2022-03-29T12:45:56Z</time><name>PT3884</name></trkpt>
<trkpt lat="54.444929" lon="-3.247024"><ele>482</ele><time>2022-03-29T12:45:58Z</time><name>PT3885</name></trkpt>
<trkpt lat="54.444926" lon="-3.247031"><ele>482</ele><time>2022-03-29T12:45:59Z</time><name>PT3886</name></trkpt>
<trkpt lat="54.444921" lon="-3.247039"><ele>482</ele><time>2022-03-29T12:45:59Z</time><name>PT3887</name></trkpt>
<trkpt lat="54.444913" lon="-3.247051"><ele>481</ele><time>2022-03-29T12:46:01Z</time><name>PT3888</name></trkpt>
<trkpt lat="54.444904" lon="-3.247068"><ele>482</ele><time>2022-03-29T12:46:02Z</time><name>PT3889</name></trkpt>
<trkpt lat="54.444892" lon="-3.247082"><ele>481</ele><time>2022-03-29T12:46:02Z</time><name>PT3890</name></trkpt>
<trkpt lat="54.444881" lon="-3.247096"><ele>481</ele><time>2022-03-29T12:46:04Z</time><name>PT3891</name></trkpt>
<trkpt lat="54.444873" lon="-3.247106"><ele>481</ele><time>2022-03-29T12:46:05Z</time><name>PT3892</name></trkpt>
<trkpt lat="54.444869" lon="-3.247108"><ele>481</ele><time>2022-03-29T12:46:05Z</time><name>PT3893</name></trkpt>
<trkpt lat="54.444865" lon="-3.247111"><ele>480</ele><time>2022-03-29T12:46:07Z</time><name>PT3894</name></trkpt>
<trkpt lat="54.444862" lon="-3.247117"><ele>480</ele><time>2022-03-29T12:46:08Z</time><name>PT3895</name></trkpt>
<trkpt lat="54.444862" lon="-3.247120"><ele>480</ele><time>2022-03-29T12:46:08Z</time><name>PT3896</name></trkpt>
<trkpt lat="54.444860" lon="-3.247120"><ele>479</ele><time>2022-03-29T12:46:10Z</time><name>PT3897</name></trkpt>
<trkpt lat="54.444857" lon="-3.247123"><ele>479</ele><time>2022-03-29T12:46:11Z</time><name>PT3898</name></trkpt>
<trkpt lat="54.444853" lon="-3.247123"><ele>479</ele><time>2022-03-29T12:46:11Z</time><name>PT3899</name></trkpt>
<trkpt lat="54.444849" lon="-3.247128"><ele>478</ele><time>2022-03-29T12:46:13Z</time><name>PT3900</name></trkpt>
<trkpt lat="54.444848" lon="-3.247135"><ele>478</ele><time>2022-03-29T12:46:14Z</time><name>PT3901</name></trkpt>
<trkpt lat="54.444833" lon="-3.247158"><ele>478</ele><time>2022-03-29T12:46:14Z</time><name>PT3902</name></trkpt>
<trkpt lat="54.444822" lon="-3.247179"><ele>478</ele><time>2022-03-29T12:46:16Z</time><name>PT3903</name></trkpt>
<trkpt lat="54.444817" lon="-3.247197"><ele>478</ele><time>2022-03-29T12:46:17Z</time><name>PT3904</name></trkpt>
<trkpt lat="54.444811" lon="-3.247205"><ele>479</ele><time>2022-03-29T12:46:17Z</time><name>PT3905</name></trkpt>
<trkpt lat="54.444807" lon="-3.247213"><ele>479</ele><time>2022-03-29T12:46:19Z</time><name>PT3906</name></trkpt>
<trkpt lat="54.444800" lon="-3.247233"><ele>479</ele><time>2022-03-29T12:46:20Z</time><name>PT3907</name></trkpt>
<trkpt lat="54.444793" lon="-3.247250"><ele>479</ele><time>2022-03-29T12:46:20Z</time><name>PT3908</name></trkpt>
<trkpt lat="54.444786" lon="-3.247259"><ele>479</ele><time>2022-03-29T12:46:22Z</time><name>PT3909</name></trkpt>
<trkpt lat="54.444781" lon="-3.247266"><ele>479</ele><time>2022-03-29T12:46:23Z</time><name>PT3910</name></trkpt>
<trkpt lat="54.444776" lon="-3.247284"><ele>479</ele><time>2022-03-29T12:46:23Z</time><name>PT3911</name></trkpt>
<trkpt lat="54.444772" lon="-3.247309"><ele>479</ele><time>2022-03-29T12:46:25Z</time><name>PT3912</name></trkpt>
<trkpt lat="54.444763" lon="-3.247323"><ele>478</ele><time>2022-03-29T12:46:26Z</time><name>PT3913</name></trkpt>
<trkpt lat="54.444752" lon="-3.247331"><ele>477</ele><time>2022-03-29T12:46:26Z</time><name>PT3914</name></trkpt>
<trkpt lat="54.444746" lon="-3.247337"><ele>477</ele><time>2022-03-29T12:46:28Z</time><name>PT3915</name></trkpt>
<trkpt lat="54.444739" lon="-3.247348"><ele>477</ele><time>2022-03-29T12:46:29Z</time><name>PT3916</name></trkpt>
<trkpt lat="54.444728" lon="-3.247362"><ele>477</ele><time>2022-03-29T12:46:29Z</time><name>PT3917</name></trkpt>
<trkpt lat="54.444717" lon="-3.247378"><ele>477</ele><time>2022-03-29T12:46:31Z</time><name>PT3918</name></trkpt>
<trkpt lat="54.444710" lon="-3.247385"><ele>477</ele><time>2022-03-29T12:46:32Z</time><name>PT3919</name></trkpt>
<trkpt lat="54.444703" lon="-3.247392"><ele>476</ele><time>2022-03-29T12:46:32Z</time><name>PT3920</name></trkpt>
<trkpt lat="54.444695" lon="-3.247399"><ele>476</ele><time>2022-03-29T12:46:34Z</time><name>PT3921</name></trkpt>
<trkpt lat="54.444686" lon="-3.247416"><ele>476</ele><time>2022-03-29T12:46:35Z</time><name>PT3922</name></trkpt>
<trkpt lat="54.444676" lon="-3.247435"><ele>476</ele><time>2022-03-29T12:46:35Z</time><name>PT3923</name></trkpt>
<trkpt lat="54.444665" lon="-3.247453"><ele>475</ele><time>2022-03-29T12:46:37Z</time><name>PT3924</name></trkpt>
<trkpt lat="54.444654" lon="-3.247467"><ele>475</ele><time>2022-03-29T12:46:38Z</time><name>PT3925</name></trkpt>
<trkpt lat="54.444646" lon="-3.247476"><ele>475</ele><time>2022-03-29T12:46:38Z</time><name>PT3926</name></trkpt>
<trkpt lat="54.444638" lon="-3.247482"><ele>474</ele><time>2022-03-29T12:46:40Z</time><name>PT3927</name></trkpt>
<trkpt lat="54.444631" lon="-3.247493"><ele>474</ele><time>2022-03-29T12:46:41Z</time><name>PT3928</name></trkpt>
<trkpt lat="54.444619" lon="-3.247510"><ele>475</ele><time>2022-03-29T12:46:42Z</time><name>PT3929</name></trkpt>
<trkpt lat="54.444607" lon="-3.247525"><ele>475</ele><time>2022-03-29T12:46:43Z</time><name>PT3930</name></trkpt>
<trkpt lat="54.444600" lon="-3.247533"><ele>474</ele><time>2022-03-29T12:46:44Z</time><name>PT3931</name></trkpt>
<trkpt lat="54.444594" lon="-3.247537"><ele>474</ele><time>2022-03-29T12:46:44Z</time><name>PT3932</name></trkpt>
<trkpt lat="54.444585" lon="-3.247544"><ele>474</ele><time>2022-03-29T12:46:46Z</time><name>PT3933</name></trkpt>
<trkpt lat="54.444576" lon="-3.247555"><ele>474</ele><time>2022-03-29T12:46:47Z</time><name>PT3934</name></trkpt>
<trkpt lat="54.444564" lon="-3.247565"><ele>474</ele><time>2022-03-29T12:46:47Z</time><name>PT3935</name></trkpt>
<trkpt lat="54.444553" lon="-3.247575"><ele>474</ele><time>2022-03-29T12:46:49Z</time><name>PT3936</name></trkpt>
<trkpt lat="54.444544" lon="-3.247581"><ele>474</ele><time>2022-03-29T12:46:50Z</time><name>PT3937</name></trkpt>
<trkpt lat="54.444532" lon="-3.247586"><ele>474</ele><time>2022-03-29T12:46:50Z</time><name>PT3938</name></trkpt>
<trkpt lat="54.444521" lon="-3.247595"><ele>474</ele><time>2022-03-29T12:46:52Z</time><name>PT3939</name></trkpt>
<trkpt lat="54.444510" lon="-3.247603"><ele>474</ele><time>2022-03-29T12:46:53Z</time><name>PT3940</name></trkpt>
<trkpt lat="54.444502" lon="-3.247606"><ele>473</ele><time>2022-03-29T12:46:53Z</time><name>PT3941</name></trkpt>
<trkpt lat="54.444496" lon="-3.247608"><ele>473</ele><time>2022-03-29T12:46:55Z</time><name>PT3942</name></trkpt>
<trkpt lat="54.444488" lon="-3.247608"><ele>473</ele><time>2022-03-29T12:46:56Z</time><name>PT3943</name></trkpt>
<trkpt lat="54.444473" lon="-3.247615"><ele>473</ele><time>2022-03-29T12:46:56Z</time><name>PT3944</name></trkpt>
<trkpt lat="54.444459" lon="-3.247628"><ele>474</ele><time>2022-03-29T12:46:58Z</time><name>PT3945</name></trkpt>
<trkpt lat="54.444444" lon="-3.247641"><ele>474</ele><time>2022-03-29T12:46:59Z</time><name>PT3946</name></trkpt>
<trkpt lat="54.444432" lon="-3.247649"><ele>475</ele><time>2022-03-29T12:46:59Z</time><name>PT3947</name></trkpt>
<trkpt lat="54.444424" lon="-3.247658"><ele>474</ele><time>2022-03-29T12:47:01Z</time><name>PT3948</name></trkpt>
<trkpt lat="54.444416" lon="-3.247666"><ele>474</ele><time>2022-03-29T12:47:02Z</time><name>PT3949</name></trkpt>
<trkpt lat="54.444408" lon="-3.247673"><ele>474</ele><time>2022-03-29T12:47:02Z</time><name>PT3950</name></trkpt>
<trkpt lat="54.444402" lon="-3.247678"><ele>474</ele><time>2022-03-29T12:47:04Z</time><name>PT3951</name></trkpt>
<trkpt lat="54.444398" lon="-3.247681"><ele>473</ele><time>2022-03-29T12:47:05Z</time><name>PT3952</name></trkpt>
<trkpt lat="54.444391" lon="-3.247684"><ele>474</ele><time>2022-03-29T12:47:05Z</time><name>PT3953</name></trkpt>
<trkpt lat="54.444382" lon="-3.247687"><ele>473</ele><time>2022-03-29T12:47:07Z</time><name>PT3954</name></trkpt>
<trkpt lat="54.444377" lon="-3.247689"><ele>473</ele><time>2022-03-29T12:47:08Z</time><name>PT3955</name></trkpt>
<trkpt lat="54.444371" lon="-3.247691"><ele>473</ele><time>2022-03-29T12:47:08Z</time><name>PT3956</name></trkpt>
<trkpt lat="54.444360" lon="-3.247704"><ele>473</ele><time>2022-03-29T12:47:10Z</time><name>PT3957</name></trkpt>
<trkpt lat="54.444349" lon="-3.247711"><ele>473</ele><time>2022-03-29T12:47:11Z</time><name>PT3958</name></trkpt>
<trkpt lat="54.444344" lon="-3.247714"><ele>472</ele><time>2022-03-29T12:47:11Z</time><name>PT3959</name></trkpt>
<trkpt lat="54.444338" lon="-3.247717"><ele>472</ele><time>2022-03-29T12:47:13Z</time><name>PT3960</name></trkpt>
<trkpt lat="54.444332" lon="-3.247727"><ele>472</ele><time>2022-03-29T12:47:14Z</time><name>PT3961</name></trkpt>
<trkpt lat="54.444321" lon="-3.247743"><ele>472</ele><time>2022-03-29T12:47:14Z</time><name>PT3962</name></trkpt>
<trkpt lat="54.444309" lon="-3.247759"><ele>472</ele><time>2022-03-29T12:47:16Z</time><name>PT3963</name></trkpt>
<trkpt lat="54.444297" lon="-3.247772"><ele>471</ele><time>2022-03-29T12:47:17Z</time><name>PT3964</name></trkpt>
<trkpt lat="54.444288" lon="-3.247781"><ele>471</ele><time>2022-03-29T12:47:17Z</time><name>PT3965</name></trkpt>
<trkpt lat="54.444280" lon="-3.247785"><ele>471</ele><time>2022-03-29T12:47:19Z</time><name>PT3966</name></trkpt>
<trkpt lat="54.444273" lon="-3.247788"><ele>471</ele><time>2022-03-29T12:47:20Z</time><name>PT3967</name></trkpt>
<trkpt lat="54.444264" lon="-3.247796"><ele>470</ele><time>2022-03-29T12:47:21Z</time><name>PT3968</name></trkpt>
<trkpt lat="54.444249" lon="-3.247809"><ele>470</ele><time>2022-03-29T12:47:22Z</time><name>PT3969</name></trkpt>
<trkpt lat="54.444232" lon="-3.247822"><ele>470</ele><time>2022-03-29T12:47:23Z</time><name>PT3970</name></trkpt>
<trkpt lat="54.444214" lon="-3.247842"><ele>470</ele><time>2022-03-29T12:47:23Z</time><name>PT3971</name></trkpt>
<trkpt lat="54.444204" lon="-3.247850"><ele>469</ele><time>2022-03-29T12:47:25Z</time><name>PT3972</name></trkpt>
<trkpt lat="54.444204" lon="-3.247852"><ele>469</ele><time>2022-03-29T12:47:26Z</time><name>PT3973</name></trkpt>
<trkpt lat="54.444201" lon="-3.247856"><ele>469</ele><time>2022-03-29T12:47:26Z</time><name>PT3974</name></trkpt>
<trkpt lat="54.444189" lon="-3.247867"><ele>470</ele><time>2022-03-29T12:47:28Z</time><name>PT3975</name></trkpt>
<trkpt lat="54.444179" lon="-3.247869"><ele>469</ele><time>2022-03-29T12:47:29Z</time><name>PT3976</name></trkpt>
<trkpt lat="54.444164" lon="-3.247878"><ele>469</ele><time>2022-03-29T12:47:29Z</time><name>PT3977</name></trkpt>
<trkpt lat="54.444148" lon="-3.247885"><ele>468</ele><time>2022-03-29T12:47:31Z</time><name>PT3978</name></trkpt>
<trkpt lat="54.444142" lon="-3.247888"><ele>468</ele><time>2022-03-29T12:47:32Z</time><name>PT3979</name></trkpt>
<trkpt lat="54.444140" lon="-3.247886"><ele>467</ele><time>2022-03-29T12:47:32Z</time><name>PT3980</name></trkpt>
<trkpt lat="54.444131" lon="-3.247885"><ele>468</ele><time>2022-03-29T12:47:34Z</time><name>PT3981</name></trkpt>
<trkpt lat="54.444113" lon="-3.247883"><ele>468</ele><time>2022-03-29T12:47:35Z</time><name>PT3982</name></trkpt>
<trkpt lat="54.444098" lon="-3.247882"><ele>468</ele><time>2022-03-29T12:47:35Z</time><name>PT3983</name></trkpt>
<trkpt lat="54.444087" lon="-3.247878"><ele>468</ele><time>2022-03-29T12:47:37Z</time><name>PT3984</name></trkpt>
<trkpt lat="54.444080" lon="-3.247877"><ele>468</ele><time>2022-03-29T12:47:38Z</time><name>PT3985</name></trkpt>
<trkpt lat="54.444075" lon="-3.247879"><ele>468</ele><time>2022-03-29T12:47:39Z</time><name>PT3986</name></trkpt>
<trkpt lat="54.444067" lon="-3.247880"><ele>468</ele><time>2022-03-29T12:47:40Z</time><name>PT3987</name></trkpt>
<trkpt lat="54.444050" lon="-3.247893"><ele>468</ele><time>2022-03-29T12:47:41Z</time><name>PT3988</name></trkpt>
<trkpt lat="54.444032" lon="-3.247907"><ele>468</ele><time>2022-03-29T12:47:41Z</time><name>PT3989</name></trkpt>
<trkpt lat="54.444015" lon="-3.247919"><ele>468</ele><time>2022-03-29T12:47:43Z</time><name>PT3990</name></trkpt>
<trkpt lat="54.444009" lon="-3.247923"><ele>468</ele><time>2022-03-29T12:47:44Z</time><name>PT3991</name></trkpt>
<trkpt lat="54.444001" lon="-3.247933"><ele>468</ele><time>2022-03-29T12:47:44Z</time><name>PT3992</name></trkpt>
<trkpt lat="54.443990" lon="-3.247937"><ele>469</ele><time>2022-03-29T12:47:46Z</time><name>PT3993</name></trkpt>
<trkpt lat="54.443964" lon="-3.247953"><ele>469</ele><time>2022-03-29T12:47:49Z</time><name>PT3994</name></trkpt>
<trkpt lat="54.443935" lon="-3.247972"><ele>468</ele><time>2022-03-29T12:47:52Z</time><name>PT3995</name></trkpt>
<trkpt lat="54.443895" lon="-3.248005"><ele>469</ele><time>2022-03-29T12:47:56Z</time><name>PT3996</name></trkpt>
<trkpt lat="54.443870" lon="-3.248026"><ele>468</ele><time>2022-03-29T12:47:59Z</time><name>PT3997</name></trkpt>
<trkpt lat="54.443844" lon="-3.248046"><ele>467</ele><time>2022-03-29T12:48:02Z</time><name>PT3998</name></trkpt>
<trkpt lat="54.443824" lon="-3.248050"><ele>466</ele><time>2022-03-29T12:48:07Z</time><name>PT3999</name></trkpt>
<trkpt lat="54.443819" lon="-3.248045"><ele>465</ele><time>2022-03-29T12:48:10Z</time><name>PT4000</name></trkpt>
<trkpt lat="54.443795" lon="-3.248072"><ele>464</ele><time>2022-03-29T12:48:13Z</time><name>PT4001</name></trkpt>
<trkpt lat="54.443758" lon="-3.248096"><ele>463</ele><time>2022-03-29T12:48:16Z</time><name>PT4002</name></trkpt>
<trkpt lat="54.443749" lon="-3.248101"><ele>461</ele><time>2022-03-29T12:48:20Z</time><name>PT4003</name></trkpt>
<trkpt lat="54.443707" lon="-3.248130"><ele>462</ele><time>2022-03-29T12:48:23Z</time><name>PT4004</name></trkpt>
<trkpt lat="54.443668" lon="-3.248167"><ele>461</ele><time>2022-03-29T12:48:28Z</time><name>PT4005</name></trkpt>
<trkpt lat="54.443620" lon="-3.248214"><ele>460</ele><time>2022-03-29T12:48:32Z</time><name>PT4006</name></trkpt>
<trkpt lat="54.443617" lon="-3.248234"><ele>461</ele><time>2022-03-29T12:48:35Z</time><name>PT4007</name></trkpt>
<trkpt lat="54.443593" lon="-3.248273"><ele>459</ele><time>2022-03-29T12:48:38Z</time><name>PT4008</name></trkpt>
<trkpt lat="54.443587" lon="-3.248288"><ele>458</ele><time>2022-03-29T12:48:41Z</time><name>PT4009</name></trkpt>
<trkpt lat="54.443571" lon="-3.248340"><ele>457</ele><time>2022-03-29T12:48:44Z</time><name>PT4010</name></trkpt>
<trkpt lat="54.443573" lon="-3.248334"><ele>455</ele><time>2022-03-29T12:48:49Z</time><name>PT4011</name></trkpt>
<trkpt lat="54.443545" lon="-3.248378"><ele>455</ele><time>2022-03-29T12:48:52Z</time><name>PT4012</name></trkpt>
<trkpt lat="54.443513" lon="-3.248418"><ele>454</ele><time>2022-03-29T12:48:55Z</time><name>PT4013</name></trkpt>
<trkpt lat="54.443497" lon="-3.248444"><ele>454</ele><time>2022-03-29T12:48:59Z</time><name>PT4014</name></trkpt>
<trkpt lat="54.443470" lon="-3.248496"><ele>452</ele><time>2022-03-29T12:49:02Z</time><name>PT4015</name></trkpt>
<trkpt lat="54.443450" lon="-3.248525"><ele>452</ele><time>2022-03-29T12:49:07Z</time><name>PT4016</name></trkpt>
<trkpt lat="54.443435" lon="-3.248558"><ele>451</ele><time>2022-03-29T12:49:11Z</time><name>PT4017</name></trkpt>
<trkpt lat="54.443418" lon="-3.248612"><ele>450</ele><time>2022-03-29T12:49:14Z</time><name>PT4018</name></trkpt>
<trkpt lat="54.443409" lon="-3.248620"><ele>448</ele><time>2022-03-29T12:49:19Z</time><name>PT4019</name></trkpt>
<trkpt lat="54.443385" lon="-3.248663"><ele>447</ele><time>2022-03-29T12:49:23Z</time><name>PT4020</name></trkpt>
<trkpt lat="54.443361" lon="-3.248695"><ele>447</ele><time>2022-03-29T12:49:26Z</time><name>PT4021</name></trkpt>
<trkpt lat="54.443340" lon="-3.248723"><ele>446</ele><time>2022-03-29T12:49:29Z</time><name>PT4022</name></trkpt>
<trkpt lat="54.443311" lon="-3.248745"><ele>446</ele><time>2022-03-29T12:49:34Z</time><name>PT4023</name></trkpt>
<trkpt lat="54.443284" lon="-3.248778"><ele>445</ele><time>2022-03-29T12:49:37Z</time><name>PT4024</name></trkpt>
<trkpt lat="54.443276" lon="-3.248794"><ele>445</ele><time>2022-03-29T12:49:38Z</time><name>PT4025</name></trkpt>
<trkpt lat="54.443267" lon="-3.248808"><ele>445</ele><time>2022-03-29T12:49:38Z</time><name>PT4026</name></trkpt>
<trkpt lat="54.443253" lon="-3.248822"><ele>444</ele><time>2022-03-29T12:49:40Z</time><name>PT4027</name></trkpt>
<trkpt lat="54.443244" lon="-3.248837"><ele>444</ele><time>2022-03-29T12:49:41Z</time><name>PT4028</name></trkpt>
<trkpt lat="54.443230" lon="-3.248850"><ele>444</ele><time>2022-03-29T12:49:41Z</time><name>PT4029</name></trkpt>
<trkpt lat="54.443216" lon="-3.248865"><ele>444</ele><time>2022-03-29T12:49:43Z</time><name>PT4030</name></trkpt>
<trkpt lat="54.443202" lon="-3.248879"><ele>445</ele><time>2022-03-29T12:49:44Z</time><name>PT4031</name></trkpt>
<trkpt lat="54.443187" lon="-3.248887"><ele>444</ele><time>2022-03-29T12:49:44Z</time><name>PT4032</name></trkpt>
<trkpt lat="54.443176" lon="-3.248895"><ele>443</ele><time>2022-03-29T12:49:46Z</time><name>PT4033</name></trkpt>
<trkpt lat="54.443172" lon="-3.248896"><ele>443</ele><time>2022-03-29T12:49:47Z</time><name>PT4034</name></trkpt>
<trkpt lat="54.443174" lon="-3.248896"><ele>442</ele><time>2022-03-29T12:49:47Z</time><name>PT4035</name></trkpt>
<trkpt lat="54.443171" lon="-3.248897"><ele>441</ele><time>2022-03-29T12:49:49Z</time><name>PT4036</name></trkpt>
<trkpt lat="54.443173" lon="-3.248895"><ele>441</ele><time>2022-03-29T12:49:50Z</time><name>PT4037</name></trkpt>
<trkpt lat="54.443174" lon="-3.248895"><ele>440</ele><time>2022-03-29T12:49:50Z</time><name>PT4038</name></trkpt>
<trkpt lat="54.443171" lon="-3.248893"><ele>440</ele><time>2022-03-29T12:49:52Z</time><name>PT4039</name></trkpt>
<trkpt lat="54.443171" lon="-3.248895"><ele>440</ele><time>2022-03-29T12:49:53Z</time><name>PT4040</name></trkpt>
<trkpt lat="54.443169" lon="-3.248902"><ele>440</ele><time>2022-03-29T12:49:54Z</time><name>PT4041</name></trkpt>
<trkpt lat="54.443166" lon="-3.248907"><ele>440</ele><time>2022-03-29T12:49:55Z</time><name>PT4042</name></trkpt>
<trkpt lat="54.443166" lon="-3.248910"><ele>439</ele><time>2022-03-29T12:49:56Z</time><name>PT4043</name></trkpt>
<trkpt lat="54.443166" lon="-3.248922"><ele>439</ele><time>2022-03-29T12:49:56Z</time><name>PT4044</name></trkpt>
<trkpt lat="54.443161" lon="-3.248932"><ele>439</ele><time>2022-03-29T12:49:58Z</time><name>PT4045</name></trkpt>
<trkpt lat="54.443157" lon="-3.248942"><ele>439</ele><time>2022-03-29T12:49:59Z</time><name>PT4046</name></trkpt>
<trkpt lat="54.443152" lon="-3.248953"><ele>439</ele><time>2022-03-29T12:49:59Z</time><name>PT4047</name></trkpt>
<trkpt lat="54.443145" lon="-3.248961"><ele>439</ele><time>2022-03-29T12:50:01Z</time><name>PT4048</name></trkpt>
<trkpt lat="54.443139" lon="-3.248972"><ele>439</ele><time>2022-03-29T12:50:02Z</time><name>PT4049</name></trkpt>
<trkpt lat="54.443132" lon="-3.248984"><ele>439</ele><time>2022-03-29T12:50:02Z</time><name>PT4050</name></trkpt>
<trkpt lat="54.443125" lon="-3.248997"><ele>439</ele><time>2022-03-29T12:50:04Z</time><name>PT4051</name></trkpt>
<trkpt lat="54.443118" lon="-3.249015"><ele>439</ele><time>2022-03-29T12:50:05Z</time><name>PT4052</name></trkpt>
<trkpt lat="54.443108" lon="-3.249036"><ele>440</ele><time>2022-03-29T12:50:05Z</time><name>PT4053</name></trkpt>
<trkpt lat="54.443092" lon="-3.249058"><ele>440</ele><time>2022-03-29T12:50:07Z</time><name>PT4054</name></trkpt>
<trkpt lat="54.443078" lon="-3.249077"><ele>440</ele><time>2022-03-29T12:50:08Z</time><name>PT4055</name></trkpt>
<trkpt lat="54.443075" lon="-3.249084"><ele>440</ele><time>2022-03-29T12:50:08Z</time><name>PT4056</name></trkpt>
<trkpt lat="54.443071" lon="-3.249079"><ele>439</ele><time>2022-03-29T12:50:10Z</time><name>PT4057</name></trkpt>
<trkpt lat="54.443070" lon="-3.249080"><ele>438</ele><time>2022-03-29T12:50:11Z</time><name>PT4058</name></trkpt>
<trkpt lat="54.443071" lon="-3.249072"><ele>437</ele><time>2022-03-29T12:50:11Z</time><name>PT4059</name></trkpt>
<trkpt lat="54.443073" lon="-3.249064"><ele>436</ele><time>2022-03-29T12:50:13Z</time><name>PT4060</name></trkpt>
<trkpt lat="54.443074" lon="-3.249061"><ele>436</ele><time>2022-03-29T12:50:14Z</time><name>PT4061</name></trkpt>
<trkpt lat="54.443073" lon="-3.249065"><ele>435</ele><time>2022-03-29T12:50:14Z</time><name>PT4062</name></trkpt>
<trkpt lat="54.443076" lon="-3.249080"><ele>436</ele><time>2022-03-29T12:50:16Z</time><name>PT4063</name></trkpt>
<trkpt lat="54.443073" lon="-3.249093"><ele>436</ele><time>2022-03-29T12:50:17Z</time><name>PT4064</name></trkpt>
<trkpt lat="54.443063" lon="-3.249103"><ele>436</ele><time>2022-03-29T12:50:17Z</time><name>PT4065</name></trkpt>
<trkpt lat="54.443050" lon="-3.249113"><ele>435</ele><time>2022-03-29T12:50:19Z</time><name>PT4066</name></trkpt>
<trkpt lat="54.443041" lon="-3.249126"><ele>435</ele><time>2022-03-29T12:50:20Z</time><name>PT4067</name></trkpt>
<trkpt lat="54.443033" lon="-3.249142"><ele>435</ele><time>2022-03-29T12:50:20Z</time><name>PT4068</name></trkpt>
<trkpt lat="54.443030" lon="-3.249154"><ele>435</ele><time>2022-03-29T12:50:22Z</time><name>PT4069</name></trkpt>
<trkpt lat="54.443028" lon="-3.249154"><ele>434</ele><time>2022-03-29T12:50:23Z</time><name>PT4070</name></trkpt>
<trkpt lat="54.443029" lon="-3.249146"><ele>433</ele><time>2022-03-29T12:50:23Z</time><name>PT4071</name></trkpt>
<trkpt lat="54.443034" lon="-3.249141"><ele>432</ele><time>2022-03-29T12:50:25Z</time><name>PT4072</name></trkpt>
<trkpt lat="54.443036" lon="-3.249136"><ele>432</ele><time>2022-03-29T12:50:26Z</time><name>PT4073</name></trkpt>
<trkpt lat="54.443036" lon="-3.249134"><ele>431</ele><time>2022-03-29T12:50:26Z</time><name>PT4074</name></trkpt>
<trkpt lat="54.443034" lon="-3.249135"><ele>431</ele><time>2022-03-29T12:50:28Z</time><name>PT4075</name></trkpt>
<trkpt lat="54.443034" lon="-3.249133"><ele>430</ele><time>2022-03-29T12:50:29Z</time><name>PT4076</name></trkpt>
<trkpt lat="54.443033" lon="-3.249131"><ele>430</ele><time>2022-03-29T12:50:29Z</time><name>PT4077</name></trkpt>
<trkpt lat="54.443033" lon="-3.249127"><ele>429</ele><time>2022-03-29T12:50:31Z</time><name>PT4078</name></trkpt>
<trkpt lat="54.443027" lon="-3.249128"><ele>428</ele><time>2022-03-29T12:50:32Z</time><name>PT4079</name></trkpt>
<trkpt lat="54.443019" lon="-3.249134"><ele>427</ele><time>2022-03-29T12:50:32Z</time><name>PT4080</name></trkpt>
<trkpt lat="54.443008" lon="-3.249141"><ele>426</ele><time>2022-03-29T12:50:34Z</time><name>PT4081</name></trkpt>
<trkpt lat="54.443000" lon="-3.249158"><ele>426</ele><time>2022-03-29T12:50:35Z</time><name>PT4082</name></trkpt>
<trkpt lat="54.442987" lon="-3.249173"><ele>426</ele><time>2022-03-29T12:50:35Z</time><name>PT4083</name></trkpt>
<trkpt lat="54.442976" lon="-3.249188"><ele>425</ele><time>2022-03-29T12:50:37Z</time><name>PT4084</name></trkpt>
<trkpt lat="54.442970" lon="-3.249207"><ele>425</ele><time>2022-03-29T12:50:38Z</time><name>PT4085</name></trkpt>
<trkpt lat="54.442960" lon="-3.249220"><ele>424</ele><time>2022-03-29T12:50:38Z</time><name>PT4086</name></trkpt>
<trkpt lat="54.442955" lon="-3.249229"><ele>424</ele><time>2022-03-29T12:50:40Z</time><name>PT4087</name></trkpt>
<trkpt lat="54.442952" lon="-3.249232"><ele>424</ele><time>2022-03-29T12:50:41Z</time><name>PT4088</name></trkpt>
<trkpt lat="54.442947" lon="-3.249232"><ele>424</ele><time>2022-03-29T12:50:41Z</time><name>PT4089</name></trkpt>
<trkpt lat="54.442944" lon="-3.249233"><ele>424</ele><time>2022-03-29T12:50:43Z</time><name>PT4090</name></trkpt>
<trkpt lat="54.442947" lon="-3.249255"><ele>424</ele><time>2022-03-29T12:50:44Z</time><name>PT4091</name></trkpt>
<trkpt lat="54.442937" lon="-3.249277"><ele>423</ele><time>2022-03-29T12:50:44Z</time><name>PT4092</name></trkpt>
<trkpt lat="54.442929" lon="-3.249298"><ele>423</ele><time>2022-03-29T12:50:46Z</time><name>PT4093</name></trkpt>
<trkpt lat="54.442922" lon="-3.249324"><ele>424</ele><time>2022-03-29T12:50:47Z</time><name>PT4094</name></trkpt>
<trkpt lat="54.442909" lon="-3.249350"><ele>424</ele><time>2022-03-29T12:50:48Z</time><name>PT4095</name></trkpt>
<trkpt lat="54.442895" lon="-3.249369"><ele>424</ele><time>2022-03-29T12:50:49Z</time><name>PT4096</name></trkpt>
<trkpt lat="54.442886" lon="-3.249385"><ele>424</ele><time>2022-03-29T12:50:50Z</time><name>PT4097</name></trkpt>
<trkpt lat="54.442881" lon="-3.249395"><ele>423</ele><time>2022-03-29T12:50:50Z</time><name>PT4098</name></trkpt>
<trkpt lat="54.442877" lon="-3.249395"><ele>423</ele><time>2022-03-29T12:50:52Z</time><name>PT4099</name></trkpt>
<trkpt lat="54.442877" lon="-3.249391"><ele>422</ele><time>2022-03-29T12:50:53Z</time><name>PT4100</name></trkpt>
<trkpt lat="54.442876" lon="-3.249389"><ele>421</ele><time>2022-03-29T12:50:53Z</time><name>PT4101</name></trkpt>
<trkpt lat="54.442875" lon="-3.249386"><ele>421</ele><time>2022-03-29T12:50:55Z</time><name>PT4102</name></trkpt>
<trkpt lat="54.442876" lon="-3.249380"><ele>421</ele><time>2022-03-29T12:50:56Z</time><name>PT4103</name></trkpt>
<trkpt lat="54.442877" lon="-3.249382"><ele>421</ele><time>2022-03-29T12:50:57Z</time><name>PT4104</name></trkpt>
<trkpt lat="54.442880" lon="-3.249389"><ele>421</ele><time>2022-03-29T12:50:58Z</time><name>PT4105</name></trkpt>
<trkpt lat="54.442878" lon="-3.249414"><ele>421</ele><time>2022-03-29T12:50:59Z</time><name>PT4106</name></trkpt>
<trkpt lat="54.442867" lon="-3.249444"><ele>421</ele><time>2022-03-29T12:51:00Z</time><name>PT4107</name></trkpt>
<trkpt lat="54.442858" lon="-3.249473"><ele>422</ele><time>2022-03-29T12:51:01Z</time><name>PT4108</name></trkpt>
<trkpt lat="54.442849" lon="-3.249495"><ele>422</ele><time>2022-03-29T12:51:02Z</time><name>PT4109</name></trkpt>
<trkpt lat="54.442838" lon="-3.249512"><ele>422</ele><time>2022-03-29T12:51:02Z</time><name>PT4110</name></trkpt>
<trkpt lat="54.442835" lon="-3.249519"><ele>422</ele><time>2022-03-29T12:51:04Z</time><name>PT4111</name></trkpt>
<trkpt lat="54.442832" lon="-3.249517"><ele>421</ele><time>2022-03-29T12:51:05Z</time><name>PT4112</name></trkpt>
<trkpt lat="54.442829" lon="-3.249515"><ele>421</ele><time>2022-03-29T12:51:05Z</time><name>PT4113</name></trkpt>
<trkpt lat="54.442827" lon="-3.249516"><ele>421</ele><time>2022-03-29T12:51:07Z</time><name>PT4114</name></trkpt>
<trkpt lat="54.442824" lon="-3.249520"><ele>420</ele><time>2022-03-29T12:51:08Z</time><name>PT4115</name></trkpt>
<trkpt lat="54.442821" lon="-3.249536"><ele>419</ele><time>2022-03-29T12:51:09Z</time><name>PT4116</name></trkpt>
<trkpt lat="54.442811" lon="-3.249562"><ele>420</ele><time>2022-03-29T12:51:10Z</time><name>PT4117</name></trkpt>
<trkpt lat="54.442798" lon="-3.249580"><ele>419</ele><time>2022-03-29T12:51:11Z</time><name>PT4118</name></trkpt>
<trkpt lat="54.442786" lon="-3.249607"><ele>418</ele><time>2022-03-29T12:51:11Z</time><name>PT4119</name></trkpt>
<trkpt lat="54.442777" lon="-3.249631"><ele>418</ele><time>2022-03-29T12:51:13Z</time><name>PT4120</name></trkpt>
<trkpt lat="54.442770" lon="-3.249646"><ele>417</ele><time>2022-03-29T12:51:14Z</time><name>PT4121</name></trkpt>
<trkpt lat="54.442766" lon="-3.249644"><ele>417</ele><time>2022-03-29T12:51:14Z</time><name>PT4122</name></trkpt>
<trkpt lat="54.442767" lon="-3.249648"><ele>417</ele><time>2022-03-29T12:51:16Z</time><name>PT4123</name></trkpt>
<trkpt lat="54.442763" lon="-3.249663"><ele>417</ele><time>2022-03-29T12:51:17Z</time><name>PT4124</name></trkpt>
<trkpt lat="54.442758" lon="-3.249683"><ele>417</ele><time>2022-03-29T12:51:17Z</time><name>PT4125</name></trkpt>
<trkpt lat="54.442756" lon="-3.249695"><ele>417</ele><time>2022-03-29T12:51:19Z</time><name>PT4126</name></trkpt>
<trkpt lat="54.442753" lon="-3.249702"><ele>416</ele><time>2022-03-29T12:51:20Z</time><name>PT4127</name></trkpt>
<trkpt lat="54.442746" lon="-3.249711"><ele>416</ele><time>2022-03-29T12:51:20Z</time><name>PT4128</name></trkpt>
<trkpt lat="54.442735" lon="-3.249732"><ele>417</ele><time>2022-03-29T12:51:22Z</time><name>PT4129</name></trkpt>
<trkpt lat="54.442727" lon="-3.249755"><ele>416</ele><time>2022-03-29T12:51:23Z</time><name>PT4130</name></trkpt>
<trkpt lat="54.442725" lon="-3.249768"><ele>416</ele><time>2022-03-29T12:51:24Z</time><name>PT4131</name></trkpt>
<trkpt lat="54.442725" lon="-3.249767"><ele>416</ele><time>2022-03-29T12:51:25Z</time><name>PT4132</name></trkpt>
<trkpt lat="54.442725" lon="-3.249763"><ele>415</ele><time>2022-03-29T12:51:26Z</time><name>PT4133</name></trkpt>
<trkpt lat="54.442723" lon="-3.249767"><ele>415</ele><time>2022-03-29T12:51:26Z</time><name>PT4134</name></trkpt>
<trkpt lat="54.442719" lon="-3.249779"><ele>415</ele><time>2022-03-29T12:51:28Z</time><name>PT4135</name></trkpt>
<trkpt lat="54.442714" lon="-3.249796"><ele>415</ele><time>2022-03-29T12:51:29Z</time><name>PT4136</name></trkpt>
<trkpt lat="54.442707" lon="-3.249813"><ele>415</ele><time>2022-03-29T12:51:29Z</time><name>PT4137</name></trkpt>
<trkpt lat="54.442703" lon="-3.249832"><ele>415</ele><time>2022-03-29T12:51:31Z</time><name>PT4138</name></trkpt>
<trkpt lat="54.442702" lon="-3.249841"><ele>415</ele><time>2022-03-29T12:51:32Z</time><name>PT4139</name></trkpt>
<trkpt lat="54.442706" lon="-3.249844"><ele>415</ele><time>2022-03-29T12:51:32Z</time><name>PT4140</name></trkpt>
<trkpt lat="54.442708" lon="-3.249840"><ele>414</ele><time>2022-03-29T12:51:34Z</time><name>PT4141</name></trkpt>
<trkpt lat="54.442707" lon="-3.249847"><ele>414</ele><time>2022-03-29T12:51:35Z</time><name>PT4142</name></trkpt>
<trkpt lat="54.442702" lon="-3.249862"><ele>414</ele><time>2022-03-29T12:51:35Z</time><name>PT4143</name></trkpt>
<trkpt lat="54.442699" lon="-3.249880"><ele>414</ele><time>2022-03-29T12:51:37Z</time><name>PT4144</name></trkpt>
<trkpt lat="54.442696" lon="-3.249894"><ele>415</ele><time>2022-03-29T12:51:38Z</time><name>PT4145</name></trkpt>
<trkpt lat="54.442694" lon="-3.249907"><ele>415</ele><time>2022-03-29T12:51:38Z</time><name>PT4146</name></trkpt>
<trkpt lat="54.442692" lon="-3.249918"><ele>415</ele><time>2022-03-29T12:51:40Z</time><name>PT4147</name></trkpt>
<trkpt lat="54.442686" lon="-3.249925"><ele>414</ele><time>2022-03-29T12:51:41Z</time><name>PT4148</name></trkpt>
<trkpt lat="54.442679" lon="-3.249926"><ele>413</ele><time>2022-03-29T12:51:41Z</time><name>PT4149</name></trkpt>
<trkpt lat="54.442677" lon="-3.249925"><ele>413</ele><time>2022-03-29T12:51:43Z</time><name>PT4150</name></trkpt>
<trkpt lat="54.442674" lon="-3.249921"><ele>413</ele><time>2022-03-29T12:51:44Z</time><name>PT4151</name></trkpt>
<trkpt lat="54.442673" lon="-3.249922"><ele>412</ele><time>2022-03-29T12:51:44Z</time><name>PT4152</name></trkpt>
<trkpt lat="54.442673" lon="-3.249926"><ele>412</ele><time>2022-03-29T12:51:46Z</time><name>PT4153</name></trkpt>
<trkpt lat="54.442672" lon="-3.249952"><ele>413</ele><time>2022-03-29T12:51:47Z</time><name>PT4154</name></trkpt>
<trkpt lat="54.442667" lon="-3.249972"><ele>413</ele><time>2022-03-29T12:51:47Z</time><name>PT4155</name></trkpt>
<trkpt lat="54.442661" lon="-3.249989"><ele>413</ele><time>2022-03-29T12:51:49Z</time><name>PT4156</name></trkpt>
<trkpt lat="54.442654" lon="-3.250003"><ele>412</ele><time>2022-03-29T12:51:50Z</time><name>PT4157</name></trkpt>
<trkpt lat="54.442649" lon="-3.250009"><ele>412</ele><time>2022-03-29T12:51:50Z</time><name>PT4158</name></trkpt>
<trkpt lat="54.442643" lon="-3.250012"><ele>412</ele><time>2022-03-29T12:51:52Z</time><name>PT4159</name></trkpt>
<trkpt lat="54.442645" lon="-3.250018"><ele>412</ele><time>2022-03-29T12:51:53Z</time><name>PT4160</name></trkpt>
<trkpt lat="54.442640" lon="-3.250025"><ele>412</ele><time>2022-03-29T12:51:54Z</time><name>PT4161</name></trkpt>
<trkpt lat="54.442638" lon="-3.250037"><ele>411</ele><time>2022-03-29T12:51:55Z</time><name>PT4162</name></trkpt>
<trkpt lat="54.442638" lon="-3.250044"><ele>411</ele><time>2022-03-29T12:51:56Z</time><name>PT4163</name></trkpt>
<trkpt lat="54.442637" lon="-3.250047"><ele>410</ele><time>2022-03-29T12:51:56Z</time><name>PT4164</name></trkpt>
<trkpt lat="54.442638" lon="-3.250058"><ele>411</ele><time>2022-03-29T12:51:58Z</time><name>PT4165</name></trkpt>
<trkpt lat="54.442632" lon="-3.250075"><ele>411</ele><time>2022-03-29T12:51:59Z</time><name>PT4166</name></trkpt>
<trkpt lat="54.442628" lon="-3.250096"><ele>410</ele><time>2022-03-29T12:52:01Z</time><name>PT4167</name></trkpt>
<trkpt lat="54.442630" lon="-3.250095"><ele>409</ele><time>2022-03-29T12:52:02Z</time><name>PT4168</name></trkpt>
<trkpt lat="54.442633" lon="-3.250089"><ele>409</ele><time>2022-03-29T12:52:02Z</time><name>PT4169</name></trkpt>
<trkpt lat="54.442631" lon="-3.250086"><ele>409</ele><time>2022-03-29T12:52:04Z</time><name>PT4170</name></trkpt>
<trkpt lat="54.442628" lon="-3.250097"><ele>408</ele><time>2022-03-29T12:52:05Z</time><name>PT4171</name></trkpt>
<trkpt lat="54.442626" lon="-3.250112"><ele>408</ele><time>2022-03-29T12:52:05Z</time><name>PT4172</name></trkpt>
<trkpt lat="54.442621" lon="-3.250124"><ele>408</ele><time>2022-03-29T12:52:07Z</time><name>PT4173</name></trkpt>
<trkpt lat="54.442617" lon="-3.250139"><ele>408</ele><time>2022-03-29T12:52:08Z</time><name>PT4174</name></trkpt>
<trkpt lat="54.442613" lon="-3.250148"><ele>408</ele><time>2022-03-29T12:52:09Z</time><name>PT4175</name></trkpt>
<trkpt lat="54.442606" lon="-3.250158"><ele>408</ele><time>2022-03-29T12:52:10Z</time><name>PT4176</name></trkpt>
<trkpt lat="54.442595" lon="-3.250172"><ele>407</ele><time>2022-03-29T12:52:11Z</time><name>PT4177</name></trkpt>
<trkpt lat="54.442585" lon="-3.250188"><ele>407</ele><time>2022-03-29T12:52:12Z</time><name>PT4178</name></trkpt>
<trkpt lat="54.442579" lon="-3.250202"><ele>406</ele><time>2022-03-29T12:52:13Z</time><name>PT4179</name></trkpt>
<trkpt lat="54.442572" lon="-3.250217"><ele>406</ele><time>2022-03-29T12:52:14Z</time><name>PT4180</name></trkpt>
<trkpt lat="54.442570" lon="-3.250224"><ele>405</ele><time>2022-03-29T12:52:14Z</time><name>PT4181</name></trkpt>
<trkpt lat="54.442566" lon="-3.250225"><ele>404</ele><time>2022-03-29T12:52:16Z</time><name>PT4182</name></trkpt>
<trkpt lat="54.442563" lon="-3.250219"><ele>403</ele><time>2022-03-29T12:52:17Z</time><name>PT4183</name></trkpt>
<trkpt lat="54.442550" lon="-3.250219"><ele>403</ele><time>2022-03-29T12:52:19Z</time><name>PT4184</name></trkpt>
<trkpt lat="54.442546" lon="-3.250217"><ele>402</ele><time>2022-03-29T12:52:20Z</time><name>PT4185</name></trkpt>
<trkpt lat="54.442543" lon="-3.250222"><ele>402</ele><time>2022-03-29T12:52:20Z</time><name>PT4186</name></trkpt>
<trkpt lat="54.442542" lon="-3.250229"><ele>401</ele><time>2022-03-29T12:52:22Z</time><name>PT4187</name></trkpt>
<trkpt lat="54.442549" lon="-3.250247"><ele>401</ele><time>2022-03-29T12:52:23Z</time><name>PT4188</name></trkpt>
<trkpt lat="54.442549" lon="-3.250268"><ele>401</ele><time>2022-03-29T12:52:23Z</time><name>PT4189</name></trkpt>
<trkpt lat="54.442542" lon="-3.250297"><ele>401</ele><time>2022-03-29T12:52:25Z</time><name>PT4190</name></trkpt>
<trkpt lat="54.442531" lon="-3.250323"><ele>401</ele><time>2022-03-29T12:52:26Z</time><name>PT4191</name></trkpt>
<trkpt lat="54.442527" lon="-3.250338"><ele>401</ele><time>2022-03-29T12:52:26Z</time><name>PT4192</name></trkpt>
<trkpt lat="54.442529" lon="-3.250348"><ele>400</ele><time>2022-03-29T12:52:28Z</time><name>PT4193</name></trkpt>
<trkpt lat="54.442530" lon="-3.250359"><ele>400</ele><time>2022-03-29T12:52:29Z</time><name>PT4194</name></trkpt>
<trkpt lat="54.442530" lon="-3.250380"><ele>400</ele><time>2022-03-29T12:52:29Z</time><name>PT4195</name></trkpt>
<trkpt lat="54.442526" lon="-3.250405"><ele>400</ele><time>2022-03-29T12:52:31Z</time><name>PT4196</name></trkpt>
<trkpt lat="54.442518" lon="-3.250428"><ele>399</ele><time>2022-03-29T12:52:32Z</time><name>PT4197</name></trkpt>
<trkpt lat="54.442514" lon="-3.250460"><ele>400</ele><time>2022-03-29T12:52:33Z</time><name>PT4198</name></trkpt>
<trkpt lat="54.442510" lon="-3.250487"><ele>400</ele><time>2022-03-29T12:52:34Z</time><name>PT4199</name></trkpt>
<trkpt lat="54.442506" lon="-3.250499"><ele>400</ele><time>2022-03-29T12:52:35Z</time><name>PT4200</name></trkpt>
<trkpt lat="54.442511" lon="-3.250505"><ele>399</ele><time>2022-03-29T12:52:35Z</time><name>PT4201</name></trkpt>
<trkpt lat="54.442511" lon="-3.250508"><ele>398</ele><time>2022-03-29T12:52:37Z</time><name>PT4202</name></trkpt>
<trkpt lat="54.442510" lon="-3.250518"><ele>398</ele><time>2022-03-29T12:52:38Z</time><name>PT4203</name></trkpt>
<trkpt lat="54.442507" lon="-3.250525"><ele>398</ele><time>2022-03-29T12:52:38Z</time><name>PT4204</name></trkpt>
<trkpt lat="54.442505" lon="-3.250531"><ele>398</ele><time>2022-03-29T12:52:40Z</time><name>PT4205</name></trkpt>
<trkpt lat="54.442502" lon="-3.250541"><ele>398</ele><time>2022-03-29T12:52:41Z</time><name>PT4206</name></trkpt>
<trkpt lat="54.442503" lon="-3.250551"><ele>397</ele><time>2022-03-29T12:52:41Z</time><name>PT4207</name></trkpt>
<trkpt lat="54.442504" lon="-3.250567"><ele>397</ele><time>2022-03-29T12:52:43Z</time><name>PT4208</name></trkpt>
<trkpt lat="54.442503" lon="-3.250586"><ele>397</ele><time>2022-03-29T12:52:44Z</time><name>PT4209</name></trkpt>
<trkpt lat="54.442501" lon="-3.250601"><ele>396</ele><time>2022-03-29T12:52:44Z</time><name>PT4210</name></trkpt>
<trkpt lat="54.442499" lon="-3.250616"><ele>396</ele><time>2022-03-29T12:52:46Z</time><name>PT4211</name></trkpt>
<trkpt lat="54.442497" lon="-3.250626"><ele>395</ele><time>2022-03-29T12:52:47Z</time><name>PT4212</name></trkpt>
<trkpt lat="54.442497" lon="-3.250635"><ele>395</ele><time>2022-03-29T12:52:47Z</time><name>PT4213</name></trkpt>
<trkpt lat="54.442494" lon="-3.250645"><ele>395</ele><time>2022-03-29T12:52:49Z</time><name>PT4214</name></trkpt>
<trkpt lat="54.442493" lon="-3.250646"><ele>394</ele><time>2022-03-29T12:52:50Z</time><name>PT4215</name></trkpt>
<trkpt lat="54.442490" lon="-3.250665"><ele>394</ele><time>2022-03-29T12:52:51Z</time><name>PT4216</name></trkpt>
<trkpt lat="54.442487" lon="-3.250686"><ele>393</ele><time>2022-03-29T12:52:52Z</time><name>PT4217</name></trkpt>
<trkpt lat="54.442485" lon="-3.250701"><ele>393</ele><time>2022-03-29T12:52:53Z</time><name>PT4218</name></trkpt>
<trkpt lat="54.442485" lon="-3.250707"><ele>393</ele><time>2022-03-29T12:52:54Z</time><name>PT4219</name></trkpt>
<trkpt lat="54.442484" lon="-3.250712"><ele>393</ele><time>2022-03-29T12:52:55Z</time><name>PT4220</name></trkpt>
<trkpt lat="54.442481" lon="-3.250727"><ele>393</ele><time>2022-03-29T12:52:56Z</time><name>PT4221</name></trkpt>
<trkpt lat="54.442477" lon="-3.250742"><ele>393</ele><time>2022-03-29T12:52:57Z</time><name>PT4222</name></trkpt>
<trkpt lat="54.442475" lon="-3.250760"><ele>392</ele><time>2022-03-29T12:52:58Z</time><name>PT4223</name></trkpt>
<trkpt lat="54.442473" lon="-3.250775"><ele>392</ele><time>2022-03-29T12:52:59Z</time><name>PT4224</name></trkpt>
<trkpt lat="54.442469" lon="-3.250787"><ele>392</ele><time>2022-03-29T12:53:00Z</time><name>PT4225</name></trkpt>
<trkpt lat="54.442467" lon="-3.250798"><ele>391</ele><time>2022-03-29T12:53:01Z</time><name>PT4226</name></trkpt>
<trkpt lat="54.442466" lon="-3.250806"><ele>391</ele><time>2022-03-29T12:53:02Z</time><name>PT4227</name></trkpt>
<trkpt lat="54.442466" lon="-3.250814"><ele>391</ele><time>2022-03-29T12:53:03Z</time><name>PT4228</name></trkpt>
<trkpt lat="54.442466" lon="-3.250822"><ele>391</ele><time>2022-03-29T12:53:04Z</time><name>PT4229</name></trkpt>
<trkpt lat="54.442467" lon="-3.250829"><ele>391</ele><time>2022-03-29T12:53:05Z</time><name>PT4230</name></trkpt>
<trkpt lat="54.442465" lon="-3.250836"><ele>390</ele><time>2022-03-29T12:53:05Z</time><name>PT4231</name></trkpt>
<trkpt lat="54.442462" lon="-3.250845"><ele>390</ele><time>2022-03-29T12:53:07Z</time><name>PT4232</name></trkpt>
<trkpt lat="54.442460" lon="-3.250853"><ele>390</ele><time>2022-03-29T12:53:08Z</time><name>PT4233</name></trkpt>
<trkpt lat="54.442457" lon="-3.250865"><ele>390</ele><time>2022-03-29T12:53:08Z</time><name>PT4234</name></trkpt>
<trkpt lat="54.442454" lon="-3.250877"><ele>390</ele><time>2022-03-29T12:53:10Z</time><name>PT4235</name></trkpt>
<trkpt lat="54.442451" lon="-3.250891"><ele>390</ele><time>2022-03-29T12:53:11Z</time><name>PT4236</name></trkpt>
<trkpt lat="54.442447" lon="-3.250909"><ele>390</ele><time>2022-03-29T12:53:11Z</time><name>PT4237</name></trkpt>
<trkpt lat="54.442444" lon="-3.250925"><ele>390</ele><time>2022-03-29T12:53:13Z</time><name>PT4238</name></trkpt>
<trkpt lat="54.442443" lon="-3.250942"><ele>390</ele><time>2022-03-29T12:53:14Z</time><name>PT4239</name></trkpt>
<trkpt lat="54.442442" lon="-3.250957"><ele>389</ele><time>2022-03-29T12:53:14Z</time><name>PT4240</name></trkpt>
<trkpt lat="54.442441" lon="-3.250969"><ele>388</ele><time>2022-03-29T12:53:16Z</time><name>PT4241</name></trkpt>
<trkpt lat="54.442439" lon="-3.250987"><ele>388</ele><time>2022-03-29T12:53:17Z</time><name>PT4242</name></trkpt>
<trkpt lat="54.442435" lon="-3.251001"><ele>387</ele><time>2022-03-29T12:53:17Z</time><name>PT4243</name></trkpt>
<trkpt lat="54.442433" lon="-3.251004"><ele>387</ele><time>2022-03-29T12:53:19Z</time><name>PT4244</name></trkpt>
<trkpt lat="54.442431" lon="-3.251018"><ele>387</ele><time>2022-03-29T12:53:20Z</time><name>PT4245</name></trkpt>
<trkpt lat="54.442436" lon="-3.251019"><ele>387</ele><time>2022-03-29T12:53:20Z</time><name>PT4246</name></trkpt>
<trkpt lat="54.442432" lon="-3.251026"><ele>387</ele><time>2022-03-29T12:53:22Z</time><name>PT4247</name></trkpt>
<trkpt lat="54.442434" lon="-3.251027"><ele>386</ele><time>2022-03-29T12:53:23Z</time><name>PT4248</name></trkpt>
<trkpt lat="54.442434" lon="-3.251032"><ele>386</ele><time>2022-03-29T12:53:23Z</time><name>PT4249</name></trkpt>
<trkpt lat="54.442429" lon="-3.251039"><ele>386</ele><time>2022-03-29T12:53:25Z</time><name>PT4250</name></trkpt>
<trkpt lat="54.442426" lon="-3.251050"><ele>386</ele><time>2022-03-29T12:53:26Z</time><name>PT4251</name></trkpt>
<trkpt lat="54.442425" lon="-3.251060"><ele>386</ele><time>2022-03-29T12:53:26Z</time><name>PT4252</name></trkpt>
<trkpt lat="54.442428" lon="-3.251062"><ele>385</ele><time>2022-03-29T12:53:28Z</time><name>PT4253</name></trkpt>
<trkpt lat="54.442431" lon="-3.251072"><ele>384</ele><time>2022-03-29T12:53:29Z</time><name>PT4254</name></trkpt>
<trkpt lat="54.442430" lon="-3.251087"><ele>384</ele><time>2022-03-29T12:53:29Z</time><name>PT4255</name></trkpt>
<trkpt lat="54.442430" lon="-3.251095"><ele>384</ele><time>2022-03-29T12:53:31Z</time><name>PT4256</name></trkpt>
<trkpt lat="54.442432" lon="-3.251099"><ele>383</ele><time>2022-03-29T12:53:32Z</time><name>PT4257</name></trkpt>
<trkpt lat="54.442435" lon="-3.251101"><ele>383</ele><time>2022-03-29T12:53:32Z</time><name>PT4258</name></trkpt>
<trkpt lat="54.442432" lon="-3.251128"><ele>383</ele><time>2022-03-29T12:53:40Z</time><name>PT4259</name></trkpt>
<trkpt lat="54.442427" lon="-3.251156"><ele>383</ele><time>2022-03-29T12:53:41Z</time><name>PT4260</name></trkpt>
<trkpt lat="54.442423" lon="-3.251182"><ele>382</ele><time>2022-03-29T12:53:41Z</time><name>PT4261</name></trkpt>
<trkpt lat="54.442424" lon="-3.251212"><ele>382</ele><time>2022-03-29T12:53:43Z</time><name>PT4262</name></trkpt>
<trkpt lat="54.442424" lon="-3.251235"><ele>381</ele><time>2022-03-29T12:53:44Z</time><name>PT4263</name></trkpt>
<trkpt lat="54.442423" lon="-3.251249"><ele>381</ele><time>2022-03-29T12:53:44Z</time><name>PT4264</name></trkpt>
<trkpt lat="54.442424" lon="-3.251267"><ele>381</ele><time>2022-03-29T12:53:46Z</time><name>PT4265</name></trkpt>
<trkpt lat="54.442428" lon="-3.251285"><ele>380</ele><time>2022-03-29T12:53:47Z</time><name>PT4266</name></trkpt>
<trkpt lat="54.442428" lon="-3.251297"><ele>380</ele><time>2022-03-29T12:53:47Z</time><name>PT4267</name></trkpt>
<trkpt lat="54.442427" lon="-3.251313"><ele>380</ele><time>2022-03-29T12:53:49Z</time><name>PT4268</name></trkpt>
<trkpt lat="54.442424" lon="-3.251321"><ele>380</ele><time>2022-03-29T12:53:50Z</time><name>PT4269</name></trkpt>
<trkpt lat="54.442420" lon="-3.251331"><ele>380</ele><time>2022-03-29T12:53:50Z</time><name>PT4270</name></trkpt>
<trkpt lat="54.442416" lon="-3.251349"><ele>379</ele><time>2022-03-29T12:53:52Z</time><name>PT4271</name></trkpt>
<trkpt lat="54.442413" lon="-3.251364"><ele>379</ele><time>2022-03-29T12:53:53Z</time><name>PT4272</name></trkpt>
<trkpt lat="54.442409" lon="-3.251373"><ele>379</ele><time>2022-03-29T12:53:53Z</time><name>PT4273</name></trkpt>
<trkpt lat="54.442406" lon="-3.251378"><ele>378</ele><time>2022-03-29T12:53:55Z</time><name>PT4274</name></trkpt>
<trkpt lat="54.442404" lon="-3.251385"><ele>378</ele><time>2022-03-29T12:53:56Z</time><name>PT4275</name></trkpt>
<trkpt lat="54.442404" lon="-3.251392"><ele>378</ele><time>2022-03-29T12:53:56Z</time><name>PT4276</name></trkpt>
<trkpt lat="54.442405" lon="-3.251399"><ele>377</ele><time>2022-03-29T12:53:58Z</time><name>PT4277</name></trkpt>
<trkpt lat="54.442407" lon="-3.251411"><ele>377</ele><time>2022-03-29T12:53:59Z</time><name>PT4278</name></trkpt>
<trkpt lat="54.442407" lon="-3.251435"><ele>376</ele><time>2022-03-29T12:53:59Z</time><name>PT4279</name></trkpt>
<trkpt lat="54.442407" lon="-3.251458"><ele>376</ele><time>2022-03-29T12:54:01Z</time><name>PT4280</name></trkpt>
<trkpt lat="54.442407" lon="-3.251469"><ele>376</ele><time>2022-03-29T12:54:02Z</time><name>PT4281</name></trkpt>
<trkpt lat="54.442408" lon="-3.251478"><ele>375</ele><time>2022-03-29T12:54:02Z</time><name>PT4282</name></trkpt>
<trkpt lat="54.442408" lon="-3.251486"><ele>375</ele><time>2022-03-29T12:54:04Z</time><name>PT4283</name></trkpt>
<trkpt lat="54.442408" lon="-3.251503"><ele>374</ele><time>2022-03-29T12:54:05Z</time><name>PT4284</name></trkpt>
<trkpt lat="54.442404" lon="-3.251527"><ele>374</ele><time>2022-03-29T12:54:05Z</time><name>PT4285</name></trkpt>
<trkpt lat="54.442401" lon="-3.251555"><ele>374</ele><time>2022-03-29T12:54:07Z</time><name>PT4286</name></trkpt>
<trkpt lat="54.442401" lon="-3.251582"><ele>373</ele><time>2022-03-29T12:54:08Z</time><name>PT4287</name></trkpt>
<trkpt lat="54.442403" lon="-3.251606"><ele>373</ele><time>2022-03-29T12:54:08Z</time><name>PT4288</name></trkpt>
<trkpt lat="54.442405" lon="-3.251616"><ele>373</ele><time>2022-03-29T12:54:10Z</time><name>PT4289</name></trkpt>
<trkpt lat="54.442407" lon="-3.251621"><ele>372</ele><time>2022-03-29T12:54:11Z</time><name>PT4290</name></trkpt>
<trkpt lat="54.442408" lon="-3.251627"><ele>372</ele><time>2022-03-29T12:54:11Z</time><name>PT4291</name></trkpt>
<trkpt lat="54.442409" lon="-3.251639"><ele>372</ele><time>2022-03-29T12:54:13Z</time><name>PT4292</name></trkpt>
<trkpt lat="54.442409" lon="-3.251653"><ele>372</ele><time>2022-03-29T12:54:14Z</time><name>PT4293</name></trkpt>
<trkpt lat="54.442409" lon="-3.251669"><ele>372</ele><time>2022-03-29T12:54:14Z</time><name>PT4294</name></trkpt>
<trkpt lat="54.442411" lon="-3.251689"><ele>372</ele><time>2022-03-29T12:54:16Z</time><name>PT4295</name></trkpt>
<trkpt lat="54.442412" lon="-3.251707"><ele>371</ele><time>2022-03-29T12:54:17Z</time><name>PT4296</name></trkpt>
<trkpt lat="54.442414" lon="-3.251715"><ele>371</ele><time>2022-03-29T12:54:17Z</time><name>PT4297</name></trkpt>
<trkpt lat="54.442415" lon="-3.251721"><ele>371</ele><time>2022-03-29T12:54:19Z</time><name>PT4298</name></trkpt>
<trkpt lat="54.442414" lon="-3.251731"><ele>371</ele><time>2022-03-29T12:54:20Z</time><name>PT4299</name></trkpt>
<trkpt lat="54.442413" lon="-3.251742"><ele>370</ele><time>2022-03-29T12:54:20Z</time><name>PT4300</name></trkpt>
<trkpt lat="54.442411" lon="-3.251749"><ele>370</ele><time>2022-03-29T12:54:22Z</time><name>PT4301</name></trkpt>
<trkpt lat="54.442410" lon="-3.251759"><ele>370</ele><time>2022-03-29T12:54:23Z</time><name>PT4302</name></trkpt>
<trkpt lat="54.442406" lon="-3.251780"><ele>369</ele><time>2022-03-29T12:54:23Z</time><name>PT4303</name></trkpt>
<trkpt lat="54.442409" lon="-3.251799"><ele>368</ele><time>2022-03-29T12:54:25Z</time><name>PT4304</name></trkpt>
<trkpt lat="54.442416" lon="-3.251819"><ele>368</ele><time>2022-03-29T12:54:26Z</time><name>PT4305</name></trkpt>
<trkpt lat="54.442420" lon="-3.251832"><ele>367</ele><time>2022-03-29T12:54:26Z</time><name>PT4306</name></trkpt>
<trkpt lat="54.442427" lon="-3.251841"><ele>368</ele><time>2022-03-29T12:54:28Z</time><name>PT4307</name></trkpt>
<trkpt lat="54.442432" lon="-3.251854"><ele>367</ele><time>2022-03-29T12:54:29Z</time><name>PT4308</name></trkpt>
<trkpt lat="54.442433" lon="-3.251861"><ele>367</ele><time>2022-03-29T12:54:29Z</time><name>PT4309</name></trkpt>
<trkpt lat="54.442434" lon="-3.251871"><ele>367</ele><time>2022-03-29T12:54:31Z</time><name>PT4310</name></trkpt>
<trkpt lat="54.442436" lon="-3.251887"><ele>366</ele><time>2022-03-29T12:54:32Z</time><name>PT4311</name></trkpt>
<trkpt lat="54.442440" lon="-3.251906"><ele>366</ele><time>2022-03-29T12:54:32Z</time><name>PT4312</name></trkpt>
<trkpt lat="54.442447" lon="-3.251923"><ele>366</ele><time>2022-03-29T12:54:34Z</time><name>PT4313</name></trkpt>
<trkpt lat="54.442454" lon="-3.251938"><ele>366</ele><time>2022-03-29T12:54:35Z</time><name>PT4314</name></trkpt>
<trkpt lat="54.442459" lon="-3.251951"><ele>365</ele><time>2022-03-29T12:54:35Z</time><name>PT4315</name></trkpt>
<trkpt lat="54.442461" lon="-3.251959"><ele>365</ele><time>2022-03-29T12:54:37Z</time><name>PT4316</name></trkpt>
<trkpt lat="54.442463" lon="-3.251964"><ele>365</ele><time>2022-03-29T12:54:38Z</time><name>PT4317</name></trkpt>
<trkpt lat="54.442464" lon="-3.251970"><ele>365</ele><time>2022-03-29T12:54:38Z</time><name>PT4318</name></trkpt>
<trkpt lat="54.442462" lon="-3.251976"><ele>364</ele><time>2022-03-29T12:54:40Z</time><name>PT4319</name></trkpt>
<trkpt lat="54.442455" lon="-3.251985"><ele>364</ele><time>2022-03-29T12:54:41Z</time><name>PT4320</name></trkpt>
<trkpt lat="54.442454" lon="-3.251995"><ele>363</ele><time>2022-03-29T12:54:41Z</time><name>PT4321</name></trkpt>
<trkpt lat="54.442446" lon="-3.252012"><ele>363</ele><time>2022-03-29T12:54:43Z</time><name>PT4322</name></trkpt>
<trkpt lat="54.442437" lon="-3.252038"><ele>363</ele><time>2022-03-29T12:54:44Z</time><name>PT4323</name></trkpt>
<trkpt lat="54.442433" lon="-3.252064"><ele>363</ele><time>2022-03-29T12:54:44Z</time><name>PT4324</name></trkpt>
<trkpt lat="54.442430" lon="-3.252087"><ele>363</ele><time>2022-03-29T12:54:46Z</time><name>PT4325</name></trkpt>
<trkpt lat="54.442430" lon="-3.252095"><ele>363</ele><time>2022-03-29T12:54:47Z</time><name>PT4326</name></trkpt>
<trkpt lat="54.442428" lon="-3.252097"><ele>362</ele><time>2022-03-29T12:54:47Z</time><name>PT4327</name></trkpt>
<trkpt lat="54.442419" lon="-3.252100"><ele>361</ele><time>2022-03-29T12:54:49Z</time><name>PT4328</name></trkpt>
<trkpt lat="54.442415" lon="-3.252104"><ele>361</ele><time>2022-03-29T12:54:50Z</time><name>PT4329</name></trkpt>
<trkpt lat="54.442412" lon="-3.252109"><ele>361</ele><time>2022-03-29T12:54:50Z</time><name>PT4330</name></trkpt>
<trkpt lat="54.442409" lon="-3.252122"><ele>362</ele><time>2022-03-29T12:54:52Z</time><name>PT4331</name></trkpt>
<trkpt lat="54.442403" lon="-3.252121"><ele>360</ele><time>2022-03-29T12:54:53Z</time><name>PT4332</name></trkpt>
<trkpt lat="54.442396" lon="-3.252127"><ele>360</ele><time>2022-03-29T12:54:53Z</time><name>PT4333</name></trkpt>
<trkpt lat="54.442395" lon="-3.252140"><ele>360</ele><time>2022-03-29T12:54:55Z</time><name>PT4334</name></trkpt>
<trkpt lat="54.442394" lon="-3.252149"><ele>360</ele><time>2022-03-29T12:54:56Z</time><name>PT4335</name></trkpt>
<trkpt lat="54.442392" lon="-3.252160"><ele>360</ele><time>2022-03-29T12:54:56Z</time><name>PT4336</name></trkpt>
<trkpt lat="54.442394" lon="-3.252169"><ele>359</ele><time>2022-03-29T12:54:58Z</time><name>PT4337</name></trkpt>
<trkpt lat="54.442390" lon="-3.252177"><ele>359</ele><time>2022-03-29T12:54:59Z</time><name>PT4338</name></trkpt>
<trkpt lat="54.442380" lon="-3.252208"><ele>359</ele><time>2022-03-29T12:54:59Z</time><name>PT4339</name></trkpt>
<trkpt lat="54.442363" lon="-3.252242"><ele>359</ele><time>2022-03-29T12:55:01Z</time><name>PT4340</name></trkpt>
<trkpt lat="54.442354" lon="-3.252264"><ele>359</ele><time>2022-03-29T12:55:02Z</time><name>PT4341</name></trkpt>
<trkpt lat="54.442348" lon="-3.252281"><ele>359</ele><time>2022-03-29T12:55:02Z</time><name>PT4342</name></trkpt>
<trkpt lat="54.442346" lon="-3.252290"><ele>358</ele><time>2022-03-29T12:55:04Z</time><name>PT4343</name></trkpt>
<trkpt lat="54.442344" lon="-3.252297"><ele>358</ele><time>2022-03-29T12:55:05Z</time><name>PT4344</name></trkpt>
<trkpt lat="54.442342" lon="-3.252307"><ele>358</ele><time>2022-03-29T12:55:05Z</time><name>PT4345</name></trkpt>
<trkpt lat="54.442337" lon="-3.252323"><ele>358</ele><time>2022-03-29T12:55:07Z</time><name>PT4346</name></trkpt>
<trkpt lat="54.442330" lon="-3.252338"><ele>358</ele><time>2022-03-29T12:55:08Z</time><name>PT4347</name></trkpt>
<trkpt lat="54.442332" lon="-3.252340"><ele>358</ele><time>2022-03-29T12:55:08Z</time><name>PT4348</name></trkpt>
<trkpt lat="54.442331" lon="-3.252348"><ele>358</ele><time>2022-03-29T12:55:10Z</time><name>PT4349</name></trkpt>
<trkpt lat="54.442324" lon="-3.252359"><ele>358</ele><time>2022-03-29T12:55:11Z</time><name>PT4350</name></trkpt>
<trkpt lat="54.442316" lon="-3.252367"><ele>357</ele><time>2022-03-29T12:55:11Z</time><name>PT4351</name></trkpt>
<trkpt lat="54.442306" lon="-3.252381"><ele>356</ele><time>2022-03-29T12:55:13Z</time><name>PT4352</name></trkpt>
<trkpt lat="54.442301" lon="-3.252386"><ele>356</ele><time>2022-03-29T12:55:14Z</time><name>PT4353</name></trkpt>
<trkpt lat="54.442300" lon="-3.252394"><ele>357</ele><time>2022-03-29T12:55:14Z</time><name>PT4354</name></trkpt>
<trkpt lat="54.442299" lon="-3.252407"><ele>356</ele><time>2022-03-29T12:55:16Z</time><name>PT4355</name></trkpt>
<trkpt lat="54.442295" lon="-3.252420"><ele>356</ele><time>2022-03-29T12:55:17Z</time><name>PT4356</name></trkpt>
<trkpt lat="54.442288" lon="-3.252438"><ele>357</ele><time>2022-03-29T12:55:17Z</time><name>PT4357</name></trkpt>
<trkpt lat="54.442280" lon="-3.252462"><ele>357</ele><time>2022-03-29T12:55:19Z</time><name>PT4358</name></trkpt>
<trkpt lat="54.442278" lon="-3.252483"><ele>357</ele><time>2022-03-29T12:55:20Z</time><name>PT4359</name></trkpt>
<trkpt lat="54.442276" lon="-3.252505"><ele>356</ele><time>2022-03-29T12:55:20Z</time><name>PT4360</name></trkpt>
<trkpt lat="54.442274" lon="-3.252522"><ele>357</ele><time>2022-03-29T12:55:22Z</time><name>PT4361</name></trkpt>
<trkpt lat="54.442274" lon="-3.252530"><ele>356</ele><time>2022-03-29T12:55:23Z</time><name>PT4362</name></trkpt>
<trkpt lat="54.442275" lon="-3.252544"><ele>356</ele><time>2022-03-29T12:55:23Z</time><name>PT4363</name></trkpt>
<trkpt lat="54.442269" lon="-3.252562"><ele>356</ele><time>2022-03-29T12:55:25Z</time><name>PT4364</name></trkpt>
<trkpt lat="54.442259" lon="-3.252639"><ele>355</ele><time>2022-03-29T12:55:29Z</time><name>PT4365</name></trkpt>
<trkpt lat="54.442249" lon="-3.252682"><ele>355</ele><time>2022-03-29T12:55:32Z</time><name>PT4366</name></trkpt>
<trkpt lat="54.442249" lon="-3.252731"><ele>355</ele><time>2022-03-29T12:55:35Z</time><name>PT4367</name></trkpt>
<trkpt lat="54.442227" lon="-3.252780"><ele>355</ele><time>2022-03-29T12:55:38Z</time><name>PT4368</name></trkpt>
<trkpt lat="54.442217" lon="-3.252806"><ele>355</ele><time>2022-03-29T12:55:41Z</time><name>PT4369</name></trkpt>
<trkpt lat="54.442200" lon="-3.252861"><ele>354</ele><time>2022-03-29T12:55:46Z</time><name>PT4370</name></trkpt>
<trkpt lat="54.442183" lon="-3.252902"><ele>354</ele><time>2022-03-29T12:55:50Z</time><name>PT4371</name></trkpt>
<trkpt lat="54.442163" lon="-3.252945"><ele>354</ele><time>2022-03-29T12:55:53Z</time><name>PT4372</name></trkpt>
<trkpt lat="54.442147" lon="-3.252979"><ele>353</ele><time>2022-03-29T12:55:58Z</time><name>PT4373</name></trkpt>
<trkpt lat="54.442126" lon="-3.252996"><ele>353</ele><time>2022-03-29T12:56:01Z</time><name>PT4374</name></trkpt>
<trkpt lat="54.442103" lon="-3.252993"><ele>352</ele><time>2022-03-29T12:56:04Z</time><name>PT4375</name></trkpt>
<trkpt lat="54.442081" lon="-3.253016"><ele>352</ele><time>2022-03-29T12:56:08Z</time><name>PT4376</name></trkpt>
<trkpt lat="54.442046" lon="-3.253050"><ele>351</ele><time>2022-03-29T12:56:11Z</time><name>PT4377</name></trkpt>
<trkpt lat="54.442044" lon="-3.253050"><ele>351</ele><time>2022-03-29T12:56:13Z</time><name>PT4378</name></trkpt>
<trkpt lat="54.442037" lon="-3.253051"><ele>351</ele><time>2022-03-29T12:56:14Z</time><name>PT4379</name></trkpt>
<trkpt lat="54.442034" lon="-3.253048"><ele>350</ele><time>2022-03-29T12:56:14Z</time><name>PT4380</name></trkpt>
<trkpt lat="54.442030" lon="-3.253050"><ele>350</ele><time>2022-03-29T12:56:16Z</time><name>PT4381</name></trkpt>
<trkpt lat="54.442028" lon="-3.253063"><ele>350</ele><time>2022-03-29T12:56:17Z</time><name>PT4382</name></trkpt>
<trkpt lat="54.442025" lon="-3.253085"><ele>350</ele><time>2022-03-29T12:56:17Z</time><name>PT4383</name></trkpt>
<trkpt lat="54.442020" lon="-3.253104"><ele>349</ele><time>2022-03-29T12:56:19Z</time><name>PT4384</name></trkpt>
<trkpt lat="54.442017" lon="-3.253116"><ele>349</ele><time>2022-03-29T12:56:20Z</time><name>PT4385</name></trkpt>
<trkpt lat="54.442016" lon="-3.253123"><ele>349</ele><time>2022-03-29T12:56:21Z</time><name>PT4386</name></trkpt>
<trkpt lat="54.442013" lon="-3.253137"><ele>349</ele><time>2022-03-29T12:56:22Z</time><name>PT4387</name></trkpt>
<trkpt lat="54.442004" lon="-3.253159"><ele>349</ele><time>2022-03-29T12:56:23Z</time><name>PT4388</name></trkpt>
<trkpt lat="54.442004" lon="-3.253172"><ele>349</ele><time>2022-03-29T12:56:23Z</time><name>PT4389</name></trkpt>
<trkpt lat="54.442002" lon="-3.253186"><ele>349</ele><time>2022-03-29T12:56:25Z</time><name>PT4390</name></trkpt>
<trkpt lat="54.441998" lon="-3.253208"><ele>349</ele><time>2022-03-29T12:56:26Z</time><name>PT4391</name></trkpt>
<trkpt lat="54.441992" lon="-3.253230"><ele>349</ele><time>2022-03-29T12:56:26Z</time><name>PT4392</name></trkpt>
<trkpt lat="54.441988" lon="-3.253238"><ele>348</ele><time>2022-03-29T12:56:28Z</time><name>PT4393</name></trkpt>
<trkpt lat="54.441985" lon="-3.253241"><ele>348</ele><time>2022-03-29T12:56:29Z</time><name>PT4394</name></trkpt>
<trkpt lat="54.441976" lon="-3.253253"><ele>347</ele><time>2022-03-29T12:56:30Z</time><name>PT4395</name></trkpt>
<trkpt lat="54.441973" lon="-3.253255"><ele>347</ele><time>2022-03-29T12:56:31Z</time><name>PT4396</name></trkpt>
<trkpt lat="54.441972" lon="-3.253252"><ele>347</ele><time>2022-03-29T12:56:32Z</time><name>PT4397</name></trkpt>
<trkpt lat="54.441972" lon="-3.253260"><ele>347</ele><time>2022-03-29T12:56:32Z</time><name>PT4398</name></trkpt>
<trkpt lat="54.441969" lon="-3.253273"><ele>347</ele><time>2022-03-29T12:56:34Z</time><name>PT4399</name></trkpt>
<trkpt lat="54.441963" lon="-3.253278"><ele>347</ele><time>2022-03-29T12:56:35Z</time><name>PT4400</name></trkpt>
<trkpt lat="54.441952" lon="-3.253288"><ele>347</ele><time>2022-03-29T12:56:36Z</time><name>PT4401</name></trkpt>
<trkpt lat="54.441940" lon="-3.253309"><ele>347</ele><time>2022-03-29T12:56:37Z</time><name>PT4402</name></trkpt>
<trkpt lat="54.441930" lon="-3.253329"><ele>347</ele><time>2022-03-29T12:56:38Z</time><name>PT4403</name></trkpt>
<trkpt lat="54.441925" lon="-3.253340"><ele>347</ele><time>2022-03-29T12:56:39Z</time><name>PT4404</name></trkpt>
<trkpt lat="54.441925" lon="-3.253344"><ele>347</ele><time>2022-03-29T12:56:40Z</time><name>PT4405</name></trkpt>
<trkpt lat="54.441923" lon="-3.253355"><ele>346</ele><time>2022-03-29T12:56:41Z</time><name>PT4406</name></trkpt>
<trkpt lat="54.441920" lon="-3.253375"><ele>347</ele><time>2022-03-29T12:56:41Z</time><name>PT4407</name></trkpt>
<trkpt lat="54.441916" lon="-3.253401"><ele>347</ele><time>2022-03-29T12:56:43Z</time><name>PT4408</name></trkpt>
<trkpt lat="54.441911" lon="-3.253423"><ele>346</ele><time>2022-03-29T12:56:44Z</time><name>PT4409</name></trkpt>
<trkpt lat="54.441908" lon="-3.253435"><ele>346</ele><time>2022-03-29T12:56:44Z</time><name>PT4410</name></trkpt>
<trkpt lat="54.441906" lon="-3.253443"><ele>346</ele><time>2022-03-29T12:56:46Z</time><name>PT4411</name></trkpt>
<trkpt lat="54.441902" lon="-3.253451"><ele>346</ele><time>2022-03-29T12:56:47Z</time><name>PT4412</name></trkpt>
<trkpt lat="54.441897" lon="-3.253466"><ele>346</ele><time>2022-03-29T12:56:47Z</time><name>PT4413</name></trkpt>
<trkpt lat="54.441894" lon="-3.253486"><ele>346</ele><time>2022-03-29T12:56:49Z</time><name>PT4414</name></trkpt>
<trkpt lat="54.441890" lon="-3.253500"><ele>345</ele><time>2022-03-29T12:56:50Z</time><name>PT4415</name></trkpt>
<trkpt lat="54.441891" lon="-3.253510"><ele>345</ele><time>2022-03-29T12:56:50Z</time><name>PT4416</name></trkpt>
<trkpt lat="54.441887" lon="-3.253516"><ele>344</ele><time>2022-03-29T12:56:52Z</time><name>PT4417</name></trkpt>
<trkpt lat="54.441883" lon="-3.253528"><ele>344</ele><time>2022-03-29T12:56:53Z</time><name>PT4418</name></trkpt>
<trkpt lat="54.441879" lon="-3.253545"><ele>344</ele><time>2022-03-29T12:56:53Z</time><name>PT4419</name></trkpt>
<trkpt lat="54.441874" lon="-3.253565"><ele>344</ele><time>2022-03-29T12:56:55Z</time><name>PT4420</name></trkpt>
<trkpt lat="54.441872" lon="-3.253594"><ele>343</ele><time>2022-03-29T12:56:56Z</time><name>PT4421</name></trkpt>
<trkpt lat="54.441871" lon="-3.253608"><ele>343</ele><time>2022-03-29T12:56:56Z</time><name>PT4422</name></trkpt>
<trkpt lat="54.441871" lon="-3.253615"><ele>342</ele><time>2022-03-29T12:56:58Z</time><name>PT4423</name></trkpt>
<trkpt lat="54.441864" lon="-3.253632"><ele>343</ele><time>2022-03-29T12:56:59Z</time><name>PT4424</name></trkpt>
<trkpt lat="54.441858" lon="-3.253652"><ele>343</ele><time>2022-03-29T12:56:59Z</time><name>PT4425</name></trkpt>
<trkpt lat="54.441853" lon="-3.253662"><ele>343</ele><time>2022-03-29T12:57:01Z</time><name>PT4426</name></trkpt>
<trkpt lat="54.441847" lon="-3.253674"><ele>343</ele><time>2022-03-29T12:57:02Z</time><name>PT4427</name></trkpt>
<trkpt lat="54.441841" lon="-3.253691"><ele>343</ele><time>2022-03-29T12:57:02Z</time><name>PT4428</name></trkpt>
<trkpt lat="54.441834" lon="-3.253719"><ele>343</ele><time>2022-03-29T12:57:04Z</time><name>PT4429</name></trkpt>
<trkpt lat="54.441827" lon="-3.253746"><ele>342</ele><time>2022-03-29T12:57:05Z</time><name>PT4430</name></trkpt>
<trkpt lat="54.441821" lon="-3.253758"><ele>342</ele><time>2022-03-29T12:57:05Z</time><name>PT4431</name></trkpt>
<trkpt lat="54.441815" lon="-3.253758"><ele>342</ele><time>2022-03-29T12:57:07Z</time><name>PT4432</name></trkpt>
<trkpt lat="54.441813" lon="-3.253759"><ele>341</ele><time>2022-03-29T12:57:08Z</time><name>PT4433</name></trkpt>
<trkpt lat="54.441810" lon="-3.253775"><ele>341</ele><time>2022-03-29T12:57:08Z</time><name>PT4434</name></trkpt>
<trkpt lat="54.441805" lon="-3.253802"><ele>341</ele><time>2022-03-29T12:57:10Z</time><name>PT4435</name></trkpt>
<trkpt lat="54.441800" lon="-3.253815"><ele>341</ele><time>2022-03-29T12:57:11Z</time><name>PT4436</name></trkpt>
<trkpt lat="54.441799" lon="-3.253818"><ele>341</ele><time>2022-03-29T12:57:11Z</time><name>PT4437</name></trkpt>
<trkpt lat="54.441799" lon="-3.253820"><ele>340</ele><time>2022-03-29T12:57:13Z</time><name>PT4438</name></trkpt>
<trkpt lat="54.441798" lon="-3.253838"><ele>340</ele><time>2022-03-29T12:57:14Z</time><name>PT4439</name></trkpt>
<trkpt lat="54.441795" lon="-3.253863"><ele>340</ele><time>2022-03-29T12:57:14Z</time><name>PT4440</name></trkpt>
<trkpt lat="54.441796" lon="-3.253884"><ele>340</ele><time>2022-03-29T12:57:16Z</time><name>PT4441</name></trkpt>
<trkpt lat="54.441798" lon="-3.253897"><ele>340</ele><time>2022-03-29T12:57:17Z</time><name>PT4442</name></trkpt>
<trkpt lat="54.441798" lon="-3.253913"><ele>340</ele><time>2022-03-29T12:57:17Z</time><name>PT4443</name></trkpt>
<trkpt lat="54.441796" lon="-3.253941"><ele>339</ele><time>2022-03-29T12:57:19Z</time><name>PT4444</name></trkpt>
<trkpt lat="54.441792" lon="-3.253964"><ele>339</ele><time>2022-03-29T12:57:20Z</time><name>PT4445</name></trkpt>
<trkpt lat="54.441790" lon="-3.253980"><ele>339</ele><time>2022-03-29T12:57:21Z</time><name>PT4446</name></trkpt>
<trkpt lat="54.441787" lon="-3.253989"><ele>339</ele><time>2022-03-29T12:57:22Z</time><name>PT4447</name></trkpt>
<trkpt lat="54.441783" lon="-3.254001"><ele>338</ele><time>2022-03-29T12:57:23Z</time><name>PT4448</name></trkpt>
<trkpt lat="54.441777" lon="-3.254018"><ele>338</ele><time>2022-03-29T12:57:23Z</time><name>PT4449</name></trkpt>
<trkpt lat="54.441770" lon="-3.254041"><ele>338</ele><time>2022-03-29T12:57:25Z</time><name>PT4450</name></trkpt>
<trkpt lat="54.441766" lon="-3.254055"><ele>337</ele><time>2022-03-29T12:57:26Z</time><name>PT4451</name></trkpt>
<trkpt lat="54.441762" lon="-3.254062"><ele>337</ele><time>2022-03-29T12:57:26Z</time><name>PT4452</name></trkpt>
<trkpt lat="54.441759" lon="-3.254068"><ele>336</ele><time>2022-03-29T12:57:28Z</time><name>PT4453</name></trkpt>
<trkpt lat="54.441756" lon="-3.254083"><ele>336</ele><time>2022-03-29T12:57:29Z</time><name>PT4454</name></trkpt>
<trkpt lat="54.441750" lon="-3.254111"><ele>336</ele><time>2022-03-29T12:57:29Z</time><name>PT4455</name></trkpt>
<trkpt lat="54.441745" lon="-3.254132"><ele>336</ele><time>2022-03-29T12:57:31Z</time><name>PT4456</name></trkpt>
<trkpt lat="54.441742" lon="-3.254141"><ele>336</ele><time>2022-03-29T12:57:32Z</time><name>PT4457</name></trkpt>
<trkpt lat="54.441738" lon="-3.254145"><ele>336</ele><time>2022-03-29T12:57:32Z</time><name>PT4458</name></trkpt>
<trkpt lat="54.441733" lon="-3.254157"><ele>336</ele><time>2022-03-29T12:57:34Z</time><name>PT4459</name></trkpt>
<trkpt lat="54.441725" lon="-3.254185"><ele>336</ele><time>2022-03-29T12:57:35Z</time><name>PT4460</name></trkpt>
<trkpt lat="54.441716" lon="-3.254211"><ele>336</ele><time>2022-03-29T12:57:35Z</time><name>PT4461</name></trkpt>
<trkpt lat="54.441715" lon="-3.254217"><ele>336</ele><time>2022-03-29T12:57:37Z</time><name>PT4462</name></trkpt>
<trkpt lat="54.441717" lon="-3.254227"><ele>335</ele><time>2022-03-29T12:57:38Z</time><name>PT4463</name></trkpt>
<trkpt lat="54.441717" lon="-3.254237"><ele>335</ele><time>2022-03-29T12:57:38Z</time><name>PT4464</name></trkpt>
<trkpt lat="54.441716" lon="-3.254260"><ele>335</ele><time>2022-03-29T12:57:40Z</time><name>PT4465</name></trkpt>
<trkpt lat="54.441715" lon="-3.254279"><ele>335</ele><time>2022-03-29T12:57:41Z</time><name>PT4466</name></trkpt>
<trkpt lat="54.441714" lon="-3.254292"><ele>335</ele><time>2022-03-29T12:57:41Z</time><name>PT4467</name></trkpt>
<trkpt lat="54.441715" lon="-3.254302"><ele>335</ele><time>2022-03-29T12:57:43Z</time><name>PT4468</name></trkpt>
<trkpt lat="54.441713" lon="-3.254324"><ele>334</ele><time>2022-03-29T12:57:44Z</time><name>PT4469</name></trkpt>
<trkpt lat="54.441712" lon="-3.254354"><ele>334</ele><time>2022-03-29T12:57:44Z</time><name>PT4470</name></trkpt>
<trkpt lat="54.441712" lon="-3.254378"><ele>334</ele><time>2022-03-29T12:57:46Z</time><name>PT4471</name></trkpt>
<trkpt lat="54.441712" lon="-3.254387"><ele>334</ele><time>2022-03-29T12:57:47Z</time><name>PT4472</name></trkpt>
<trkpt lat="54.441706" lon="-3.254384"><ele>333</ele><time>2022-03-29T12:57:47Z</time><name>PT4473</name></trkpt>
<trkpt lat="54.441706" lon="-3.254400"><ele>333</ele><time>2022-03-29T12:57:49Z</time><name>PT4474</name></trkpt>
<trkpt lat="54.441706" lon="-3.254422"><ele>333</ele><time>2022-03-29T12:57:50Z</time><name>PT4475</name></trkpt>
<trkpt lat="54.441706" lon="-3.254436"><ele>333</ele><time>2022-03-29T12:57:50Z</time><name>PT4476</name></trkpt>
<trkpt lat="54.441705" lon="-3.254446"><ele>333</ele><time>2022-03-29T12:57:52Z</time><name>PT4477</name></trkpt>
<trkpt lat="54.441705" lon="-3.254455"><ele>333</ele><time>2022-03-29T12:57:53Z</time><name>PT4478</name></trkpt>
<trkpt lat="54.441704" lon="-3.254472"><ele>333</ele><time>2022-03-29T12:57:53Z</time><name>PT4479</name></trkpt>
<trkpt lat="54.441703" lon="-3.254496"><ele>332</ele><time>2022-03-29T12:57:55Z</time><name>PT4480</name></trkpt>
<trkpt lat="54.441704" lon="-3.254514"><ele>332</ele><time>2022-03-29T12:57:56Z</time><name>PT4481</name></trkpt>
<trkpt lat="54.441708" lon="-3.254523"><ele>331</ele><time>2022-03-29T12:57:56Z</time><name>PT4482</name></trkpt>
<trkpt lat="54.441709" lon="-3.254529"><ele>331</ele><time>2022-03-29T12:57:58Z</time><name>PT4483</name></trkpt>
<trkpt lat="54.441709" lon="-3.254533"><ele>331</ele><time>2022-03-29T12:57:59Z</time><name>PT4484</name></trkpt>
<trkpt lat="54.441711" lon="-3.254543"><ele>330</ele><time>2022-03-29T12:57:59Z</time><name>PT4485</name></trkpt>
<trkpt lat="54.441716" lon="-3.254566"><ele>330</ele><time>2022-03-29T12:58:01Z</time><name>PT4486</name></trkpt>
<trkpt lat="54.441719" lon="-3.254588"><ele>330</ele><time>2022-03-29T12:58:02Z</time><name>PT4487</name></trkpt>
<trkpt lat="54.441720" lon="-3.254600"><ele>329</ele><time>2022-03-29T12:58:02Z</time><name>PT4488</name></trkpt>
<trkpt lat="54.441719" lon="-3.254615"><ele>329</ele><time>2022-03-29T12:58:04Z</time><name>PT4489</name></trkpt>
<trkpt lat="54.441718" lon="-3.254628"><ele>329</ele><time>2022-03-29T12:58:05Z</time><name>PT4490</name></trkpt>
<trkpt lat="54.441719" lon="-3.254640"><ele>329</ele><time>2022-03-29T12:58:05Z</time><name>PT4491</name></trkpt>
<trkpt lat="54.441719" lon="-3.254650"><ele>329</ele><time>2022-03-29T12:58:07Z</time><name>PT4492</name></trkpt>
<trkpt lat="54.441716" lon="-3.254660"><ele>329</ele><time>2022-03-29T12:58:08Z</time><name>PT4493</name></trkpt>
<trkpt lat="54.441719" lon="-3.254665"><ele>328</ele><time>2022-03-29T12:58:08Z</time><name>PT4494</name></trkpt>
<trkpt lat="54.441720" lon="-3.254665"><ele>327</ele><time>2022-03-29T12:58:10Z</time><name>PT4495</name></trkpt>
<trkpt lat="54.441717" lon="-3.254674"><ele>327</ele><time>2022-03-29T12:58:11Z</time><name>PT4496</name></trkpt>
<trkpt lat="54.441713" lon="-3.254683"><ele>327</ele><time>2022-03-29T12:58:11Z</time><name>PT4497</name></trkpt>
<trkpt lat="54.441708" lon="-3.254694"><ele>328</ele><time>2022-03-29T12:58:13Z</time><name>PT4498</name></trkpt>
<trkpt lat="54.441704" lon="-3.254716"><ele>327</ele><time>2022-03-29T12:58:14Z</time><name>PT4499</name></trkpt>
<trkpt lat="54.441701" lon="-3.254739"><ele>327</ele><time>2022-03-29T12:58:14Z</time><name>PT4500</name></trkpt>
<trkpt lat="54.441704" lon="-3.254753"><ele>327</ele><time>2022-03-29T12:58:16Z</time><name>PT4501</name></trkpt>
<trkpt lat="54.441707" lon="-3.254767"><ele>326</ele><time>2022-03-29T12:58:17Z</time><name>PT4502</name></trkpt>
<trkpt lat="54.441699" lon="-3.254793"><ele>326</ele><time>2022-03-29T12:58:17Z</time><name>PT4503</name></trkpt>
<trkpt lat="54.441694" lon="-3.254827"><ele>327</ele><time>2022-03-29T12:58:19Z</time><name>PT4504</name></trkpt>
<trkpt lat="54.441692" lon="-3.254844"><ele>327</ele><time>2022-03-29T12:58:20Z</time><name>PT4505</name></trkpt>
<trkpt lat="54.441691" lon="-3.254853"><ele>326</ele><time>2022-03-29T12:58:20Z</time><name>PT4506</name></trkpt>
<trkpt lat="54.441688" lon="-3.254876"><ele>326</ele><time>2022-03-29T12:58:22Z</time><name>PT4507</name></trkpt>
<trkpt lat="54.441686" lon="-3.254899"><ele>325</ele><time>2022-03-29T12:58:23Z</time><name>PT4508</name></trkpt>
<trkpt lat="54.441685" lon="-3.254911"><ele>325</ele><time>2022-03-29T12:58:24Z</time><name>PT4509</name></trkpt>
<trkpt lat="54.441684" lon="-3.254921"><ele>325</ele><time>2022-03-29T12:58:25Z</time><name>PT4510</name></trkpt>
<trkpt lat="54.441677" lon="-3.254941"><ele>325</ele><time>2022-03-29T12:58:26Z</time><name>PT4511</name></trkpt>
<trkpt lat="54.441672" lon="-3.254962"><ele>325</ele><time>2022-03-29T12:58:27Z</time><name>PT4512</name></trkpt>
<trkpt lat="54.441669" lon="-3.254970"><ele>324</ele><time>2022-03-29T12:58:28Z</time><name>PT4513</name></trkpt>
<trkpt lat="54.441666" lon="-3.254978"><ele>324</ele><time>2022-03-29T12:58:29Z</time><name>PT4514</name></trkpt>
<trkpt lat="54.441662" lon="-3.254996"><ele>324</ele><time>2022-03-29T12:58:29Z</time><name>PT4515</name></trkpt>
<trkpt lat="54.441656" lon="-3.255023"><ele>324</ele><time>2022-03-29T12:58:31Z</time><name>PT4516</name></trkpt>
<trkpt lat="54.441652" lon="-3.255050"><ele>324</ele><time>2022-03-29T12:58:32Z</time><name>PT4517</name></trkpt>
<trkpt lat="54.441650" lon="-3.255065"><ele>323</ele><time>2022-03-29T12:58:33Z</time><name>PT4518</name></trkpt>
<trkpt lat="54.441648" lon="-3.255069"><ele>323</ele><time>2022-03-29T12:58:34Z</time><name>PT4519</name></trkpt>
<trkpt lat="54.441645" lon="-3.255074"><ele>322</ele><time>2022-03-29T12:58:35Z</time><name>PT4520</name></trkpt>
<trkpt lat="54.441640" lon="-3.255096"><ele>322</ele><time>2022-03-29T12:58:35Z</time><name>PT4521</name></trkpt>
<trkpt lat="54.441636" lon="-3.255121"><ele>322</ele><time>2022-03-29T12:58:37Z</time><name>PT4522</name></trkpt>
<trkpt lat="54.441635" lon="-3.255130"><ele>322</ele><time>2022-03-29T12:58:38Z</time><name>PT4523</name></trkpt>
<trkpt lat="54.441633" lon="-3.255132"><ele>322</ele><time>2022-03-29T12:58:38Z</time><name>PT4524</name></trkpt>
<trkpt lat="54.441629" lon="-3.255146"><ele>322</ele><time>2022-03-29T12:58:40Z</time><name>PT4525</name></trkpt>
<trkpt lat="54.441626" lon="-3.255176"><ele>322</ele><time>2022-03-29T12:58:41Z</time><name>PT4526</name></trkpt>
<trkpt lat="54.441625" lon="-3.255199"><ele>322</ele><time>2022-03-29T12:58:41Z</time><name>PT4527</name></trkpt>
<trkpt lat="54.441626" lon="-3.255210"><ele>322</ele><time>2022-03-29T12:58:43Z</time><name>PT4528</name></trkpt>
<trkpt lat="54.441626" lon="-3.255220"><ele>321</ele><time>2022-03-29T12:58:44Z</time><name>PT4529</name></trkpt>
<trkpt lat="54.441624" lon="-3.255240"><ele>321</ele><time>2022-03-29T12:58:44Z</time><name>PT4530</name></trkpt>
<trkpt lat="54.441616" lon="-3.255274"><ele>321</ele><time>2022-03-29T12:58:46Z</time><name>PT4531</name></trkpt>
<trkpt lat="54.441611" lon="-3.255294"><ele>321</ele><time>2022-03-29T12:58:47Z</time><name>PT4532</name></trkpt>
<trkpt lat="54.441608" lon="-3.255309"><ele>321</ele><time>2022-03-29T12:58:47Z</time><name>PT4533</name></trkpt>
<trkpt lat="54.441606" lon="-3.255325"><ele>321</ele><time>2022-03-29T12:58:49Z</time><name>PT4534</name></trkpt>
<trkpt lat="54.441604" lon="-3.255338"><ele>321</ele><time>2022-03-29T12:58:50Z</time><name>PT4535</name></trkpt>
<trkpt lat="54.441604" lon="-3.255349"><ele>321</ele><time>2022-03-29T12:58:51Z</time><name>PT4536</name></trkpt>
<trkpt lat="54.441603" lon="-3.255362"><ele>320</ele><time>2022-03-29T12:58:52Z</time><name>PT4537</name></trkpt>
<trkpt lat="54.441600" lon="-3.255375"><ele>320</ele><time>2022-03-29T12:58:53Z</time><name>PT4538</name></trkpt>
<trkpt lat="54.441598" lon="-3.255385"><ele>320</ele><time>2022-03-29T12:58:53Z</time><name>PT4539</name></trkpt>
<trkpt lat="54.441598" lon="-3.255397"><ele>320</ele><time>2022-03-29T12:58:55Z</time><name>PT4540</name></trkpt>
<trkpt lat="54.441600" lon="-3.255408"><ele>320</ele><time>2022-03-29T12:58:56Z</time><name>PT4541</name></trkpt>
<trkpt lat="54.441598" lon="-3.255424"><ele>320</ele><time>2022-03-29T12:58:57Z</time><name>PT4542</name></trkpt>
<trkpt lat="54.441597" lon="-3.255446"><ele>319</ele><time>2022-03-29T12:58:58Z</time><name>PT4543</name></trkpt>
<trkpt lat="54.441598" lon="-3.255466"><ele>319</ele><time>2022-03-29T12:58:59Z</time><name>PT4544</name></trkpt>
<trkpt lat="54.441603" lon="-3.255474"><ele>319</ele><time>2022-03-29T12:59:00Z</time><name>PT4545</name></trkpt>
<trkpt lat="54.441606" lon="-3.255495"><ele>319</ele><time>2022-03-29T12:59:01Z</time><name>PT4546</name></trkpt>
<trkpt lat="54.441604" lon="-3.255524"><ele>319</ele><time>2022-03-29T12:59:02Z</time><name>PT4547</name></trkpt>
<trkpt lat="54.441602" lon="-3.255538"><ele>319</ele><time>2022-03-29T12:59:03Z</time><name>PT4548</name></trkpt>
<trkpt lat="54.441603" lon="-3.255540"><ele>319</ele><time>2022-03-29T12:59:04Z</time><name>PT4549</name></trkpt>
<trkpt lat="54.441600" lon="-3.255556"><ele>319</ele><time>2022-03-29T12:59:05Z</time><name>PT4550</name></trkpt>
<trkpt lat="54.441595" lon="-3.255586"><ele>319</ele><time>2022-03-29T12:59:06Z</time><name>PT4551</name></trkpt>
<trkpt lat="54.441593" lon="-3.255612"><ele>319</ele><time>2022-03-29T12:59:07Z</time><name>PT4552</name></trkpt>
<trkpt lat="54.441591" lon="-3.255617"><ele>318</ele><time>2022-03-29T12:59:08Z</time><name>PT4553</name></trkpt>
<trkpt lat="54.441589" lon="-3.255636"><ele>319</ele><time>2022-03-29T12:59:08Z</time><name>PT4554</name></trkpt>
<trkpt lat="54.441590" lon="-3.255658"><ele>319</ele><time>2022-03-29T12:59:10Z</time><name>PT4555</name></trkpt>
<trkpt lat="54.441591" lon="-3.255664"><ele>319</ele><time>2022-03-29T12:59:11Z</time><name>PT4556</name></trkpt>
<trkpt lat="54.441591" lon="-3.255681"><ele>319</ele><time>2022-03-29T12:59:11Z</time><name>PT4557</name></trkpt>
<trkpt lat="54.441592" lon="-3.255700"><ele>319</ele><time>2022-03-29T12:59:13Z</time><name>PT4558</name></trkpt>
<trkpt lat="54.441597" lon="-3.255707"><ele>319</ele><time>2022-03-29T12:59:14Z</time><name>PT4559</name></trkpt>
<trkpt lat="54.441598" lon="-3.255721"><ele>319</ele><time>2022-03-29T12:59:14Z</time><name>PT4560</name></trkpt>
<trkpt lat="54.441595" lon="-3.255737"><ele>319</ele><time>2022-03-29T12:59:16Z</time><name>PT4561</name></trkpt>
<trkpt lat="54.441594" lon="-3.255754"><ele>320</ele><time>2022-03-29T12:59:17Z</time><name>PT4562</name></trkpt>
<trkpt lat="54.441594" lon="-3.255771"><ele>320</ele><time>2022-03-29T12:59:17Z</time><name>PT4563</name></trkpt>
<trkpt lat="54.441593" lon="-3.255776"><ele>319</ele><time>2022-03-29T12:59:19Z</time><name>PT4564</name></trkpt>
<trkpt lat="54.441590" lon="-3.255804"><ele>319</ele><time>2022-03-29T12:59:20Z</time><name>PT4565</name></trkpt>
<trkpt lat="54.441585" lon="-3.255838"><ele>319</ele><time>2022-03-29T12:59:20Z</time><name>PT4566</name></trkpt>
<trkpt lat="54.441585" lon="-3.255852"><ele>319</ele><time>2022-03-29T12:59:22Z</time><name>PT4567</name></trkpt>
<trkpt lat="54.441578" lon="-3.255863"><ele>319</ele><time>2022-03-29T12:59:23Z</time><name>PT4568</name></trkpt>
<trkpt lat="54.441567" lon="-3.255890"><ele>318</ele><time>2022-03-29T12:59:23Z</time><name>PT4569</name></trkpt>
<trkpt lat="54.441562" lon="-3.255918"><ele>318</ele><time>2022-03-29T12:59:25Z</time><name>PT4570</name></trkpt>
<trkpt lat="54.441561" lon="-3.255932"><ele>318</ele><time>2022-03-29T12:59:26Z</time><name>PT4571</name></trkpt>
<trkpt lat="54.441561" lon="-3.255940"><ele>317</ele><time>2022-03-29T12:59:26Z</time><name>PT4572</name></trkpt>
<trkpt lat="54.441556" lon="-3.255958"><ele>318</ele><time>2022-03-29T12:59:28Z</time><name>PT4573</name></trkpt>
<trkpt lat="54.441548" lon="-3.255982"><ele>318</ele><time>2022-03-29T12:59:29Z</time><name>PT4574</name></trkpt>
<trkpt lat="54.441543" lon="-3.255998"><ele>318</ele><time>2022-03-29T12:59:29Z</time><name>PT4575</name></trkpt>
<trkpt lat="54.441545" lon="-3.256007"><ele>317</ele><time>2022-03-29T12:59:31Z</time><name>PT4576</name></trkpt>
<trkpt lat="54.441541" lon="-3.256022"><ele>317</ele><time>2022-03-29T12:59:32Z</time><name>PT4577</name></trkpt>
<trkpt lat="54.441533" lon="-3.256056"><ele>317</ele><time>2022-03-29T12:59:32Z</time><name>PT4578</name></trkpt>
<trkpt lat="54.441529" lon="-3.256081"><ele>317</ele><time>2022-03-29T12:59:34Z</time><name>PT4579</name></trkpt>
<trkpt lat="54.441526" lon="-3.256093"><ele>316</ele><time>2022-03-29T12:59:35Z</time><name>PT4580</name></trkpt>
<trkpt lat="54.441522" lon="-3.256108"><ele>316</ele><time>2022-03-29T12:59:35Z</time><name>PT4581</name></trkpt>
<trkpt lat="54.441514" lon="-3.256131"><ele>317</ele><time>2022-03-29T12:59:37Z</time><name>PT4582</name></trkpt>
<trkpt lat="54.441508" lon="-3.256155"><ele>316</ele><time>2022-03-29T12:59:38Z</time><name>PT4583</name></trkpt>
<trkpt lat="54.441507" lon="-3.256166"><ele>316</ele><time>2022-03-29T12:59:38Z</time><name>PT4584</name></trkpt>
<trkpt lat="54.441507" lon="-3.256168"><ele>316</ele><time>2022-03-29T12:59:40Z</time><name>PT4585</name></trkpt>
<trkpt lat="54.441505" lon="-3.256177"><ele>315</ele><time>2022-03-29T12:59:41Z</time><name>PT4586</name></trkpt>
<trkpt lat="54.441500" lon="-3.256204"><ele>316</ele><time>2022-03-29T12:59:41Z</time><name>PT4587</name></trkpt>
<trkpt lat="54.441492" lon="-3.256236"><ele>316</ele><time>2022-03-29T12:59:43Z</time><name>PT4588</name></trkpt>
<trkpt lat="54.441488" lon="-3.256253"><ele>316</ele><time>2022-03-29T12:59:44Z</time><name>PT4589</name></trkpt>
<trkpt lat="54.441489" lon="-3.256260"><ele>315</ele><time>2022-03-29T12:59:44Z</time><name>PT4590</name></trkpt>
<trkpt lat="54.441486" lon="-3.256277"><ele>316</ele><time>2022-03-29T12:59:46Z</time><name>PT4591</name></trkpt>
<trkpt lat="54.441481" lon="-3.256296"><ele>316</ele><time>2022-03-29T12:59:47Z</time><name>PT4592</name></trkpt>
<trkpt lat="54.441478" lon="-3.256317"><ele>316</ele><time>2022-03-29T12:59:47Z</time><name>PT4593</name></trkpt>
<trkpt lat="54.441477" lon="-3.256337"><ele>316</ele><time>2022-03-29T12:59:49Z</time><name>PT4594</name></trkpt>
<trkpt lat="54.441472" lon="-3.256355"><ele>316</ele><time>2022-03-29T12:59:49Z</time><name>PT4595</name></trkpt>
<trkpt lat="54.441465" lon="-3.256368"><ele>316</ele><time>2022-03-29T12:59:51Z</time><name>PT4596</name></trkpt>
<trkpt lat="54.441460" lon="-3.256387"><ele>316</ele><time>2022-03-29T12:59:52Z</time><name>PT4597</name></trkpt>
<trkpt lat="54.441457" lon="-3.256405"><ele>316</ele><time>2022-03-29T12:59:52Z</time><name>PT4598</name></trkpt>
<trkpt lat="54.441454" lon="-3.256424"><ele>315</ele><time>2022-03-29T12:59:54Z</time><name>PT4599</name></trkpt>
<trkpt lat="54.441450" lon="-3.256440"><ele>315</ele><time>2022-03-29T12:59:55Z</time><name>PT4600</name></trkpt>
<trkpt lat="54.441446" lon="-3.256456"><ele>315</ele><time>2022-03-29T12:59:55Z</time><name>PT4601</name></trkpt>
<trkpt lat="54.441450" lon="-3.256471"><ele>314</ele><time>2022-03-29T12:59:57Z</time><name>PT4602</name></trkpt>
<trkpt lat="54.441449" lon="-3.256482"><ele>314</ele><time>2022-03-29T12:59:58Z</time><name>PT4603</name></trkpt>
<trkpt lat="54.441442" lon="-3.256508"><ele>314</ele><time>2022-03-29T12:59:58Z</time><name>PT4604</name></trkpt>
<trkpt lat="54.441436" lon="-3.256535"><ele>315</ele><time>2022-03-29T13:00:00Z</time><name>PT4605</name></trkpt>
<trkpt lat="54.441434" lon="-3.256554"><ele>315</ele><time>2022-03-29T13:00:01Z</time><name>PT4606</name></trkpt>
<trkpt lat="54.441434" lon="-3.256562"><ele>315</ele><time>2022-03-29T13:00:01Z</time><name>PT4607</name></trkpt>
<trkpt lat="54.441433" lon="-3.256576"><ele>315</ele><time>2022-03-29T13:00:03Z</time><name>PT4608</name></trkpt>
<trkpt lat="54.441433" lon="-3.256586"><ele>315</ele><time>2022-03-29T13:00:04Z</time><name>PT4609</name></trkpt>
<trkpt lat="54.441436" lon="-3.256589"><ele>314</ele><time>2022-03-29T13:00:04Z</time><name>PT4610</name></trkpt>
<trkpt lat="54.441440" lon="-3.256599"><ele>314</ele><time>2022-03-29T13:00:06Z</time><name>PT4611</name></trkpt>
<trkpt lat="54.441444" lon="-3.256619"><ele>314</ele><time>2022-03-29T13:00:07Z</time><name>PT4612</name></trkpt>
<trkpt lat="54.441447" lon="-3.256645"><ele>314</ele><time>2022-03-29T13:00:07Z</time><name>PT4613</name></trkpt>
<trkpt lat="54.441449" lon="-3.256669"><ele>314</ele><time>2022-03-29T13:00:09Z</time><name>PT4614</name></trkpt>
<trkpt lat="54.441449" lon="-3.256678"><ele>313</ele><time>2022-03-29T13:00:10Z</time><name>PT4615</name></trkpt>
<trkpt lat="54.441446" lon="-3.256693"><ele>313</ele><time>2022-03-29T13:00:10Z</time><name>PT4616</name></trkpt>
<trkpt lat="54.441443" lon="-3.256718"><ele>313</ele><time>2022-03-29T13:00:12Z</time><name>PT4617</name></trkpt>
<trkpt lat="54.441440" lon="-3.256731"><ele>312</ele><time>2022-03-29T13:00:13Z</time><name>PT4618</name></trkpt>
<trkpt lat="54.441433" lon="-3.256740"><ele>313</ele><time>2022-03-29T13:00:14Z</time><name>PT4619</name></trkpt>
<trkpt lat="54.441420" lon="-3.256760"><ele>312</ele><time>2022-03-29T13:00:15Z</time><name>PT4620</name></trkpt>
<trkpt lat="54.441414" lon="-3.256772"><ele>312</ele><time>2022-03-29T13:00:16Z</time><name>PT4621</name></trkpt>
<trkpt lat="54.441413" lon="-3.256786"><ele>312</ele><time>2022-03-29T13:00:16Z</time><name>PT4622</name></trkpt>
<trkpt lat="54.441411" lon="-3.256819"><ele>312</ele><time>2022-03-29T13:00:18Z</time><name>PT4623</name></trkpt>
<trkpt lat="54.441409" lon="-3.256840"><ele>312</ele><time>2022-03-29T13:00:19Z</time><name>PT4624</name></trkpt>
<trkpt lat="54.441410" lon="-3.256848"><ele>312</ele><time>2022-03-29T13:00:19Z</time><name>PT4625</name></trkpt>
<trkpt lat="54.441407" lon="-3.256870"><ele>312</ele><time>2022-03-29T13:00:21Z</time><name>PT4626</name></trkpt>
<trkpt lat="54.441403" lon="-3.256893"><ele>312</ele><time>2022-03-29T13:00:22Z</time><name>PT4627</name></trkpt>
<trkpt lat="54.441402" lon="-3.256909"><ele>312</ele><time>2022-03-29T13:00:22Z</time><name>PT4628</name></trkpt>
<trkpt lat="54.441397" lon="-3.256936"><ele>312</ele><time>2022-03-29T13:00:24Z</time><name>PT4629</name></trkpt>
<trkpt lat="54.441397" lon="-3.256960"><ele>312</ele><time>2022-03-29T13:00:25Z</time><name>PT4630</name></trkpt>
<trkpt lat="54.441398" lon="-3.256966"><ele>312</ele><time>2022-03-29T13:00:25Z</time><name>PT4631</name></trkpt>
<trkpt lat="54.441396" lon="-3.256975"><ele>312</ele><time>2022-03-29T13:00:27Z</time><name>PT4632</name></trkpt>
<trkpt lat="54.441394" lon="-3.257000"><ele>312</ele><time>2022-03-29T13:00:28Z</time><name>PT4633</name></trkpt>
<trkpt lat="54.441391" lon="-3.257018"><ele>312</ele><time>2022-03-29T13:00:28Z</time><name>PT4634</name></trkpt>
<trkpt lat="54.441391" lon="-3.257026"><ele>312</ele><time>2022-03-29T13:00:30Z</time><name>PT4635</name></trkpt>
<trkpt lat="54.441391" lon="-3.257046"><ele>312</ele><time>2022-03-29T13:00:31Z</time><name>PT4636</name></trkpt>
<trkpt lat="54.441391" lon="-3.257077"><ele>313</ele><time>2022-03-29T13:00:31Z</time><name>PT4637</name></trkpt>
<trkpt lat="54.441388" lon="-3.257106"><ele>312</ele><time>2022-03-29T13:00:33Z</time><name>PT4638</name></trkpt>
<trkpt lat="54.441388" lon="-3.257114"><ele>312</ele><time>2022-03-29T13:00:34Z</time><name>PT4639</name></trkpt>
<trkpt lat="54.441387" lon="-3.257119"><ele>311</ele><time>2022-03-29T13:00:34Z</time><name>PT4640</name></trkpt>
<trkpt lat="54.441378" lon="-3.257139"><ele>311</ele><time>2022-03-29T13:00:36Z</time><name>PT4641</name></trkpt>
<trkpt lat="54.441369" lon="-3.257169"><ele>311</ele><time>2022-03-29T13:00:37Z</time><name>PT4642</name></trkpt>
<trkpt lat="54.441366" lon="-3.257183"><ele>310</ele><time>2022-03-29T13:00:37Z</time><name>PT4643</name></trkpt>
<trkpt lat="54.441368" lon="-3.257187"><ele>310</ele><time>2022-03-29T13:00:39Z</time><name>PT4644</name></trkpt>
<trkpt lat="54.441364" lon="-3.257209"><ele>310</ele><time>2022-03-29T13:00:40Z</time><name>PT4645</name></trkpt>
<trkpt lat="54.441358" lon="-3.257232"><ele>309</ele><time>2022-03-29T13:00:40Z</time><name>PT4646</name></trkpt>
<trkpt lat="54.441357" lon="-3.257240"><ele>309</ele><time>2022-03-29T13:00:42Z</time><name>PT4647</name></trkpt>
<trkpt lat="54.441353" lon="-3.257249"><ele>309</ele><time>2022-03-29T13:00:43Z</time><name>PT4648</name></trkpt>
<trkpt lat="54.441346" lon="-3.257266"><ele>309</ele><time>2022-03-29T13:00:43Z</time><name>PT4649</name></trkpt>
<trkpt lat="54.441341" lon="-3.257276"><ele>309</ele><time>2022-03-29T13:00:45Z</time><name>PT4650</name></trkpt>
<trkpt lat="54.441343" lon="-3.257281"><ele>309</ele><time>2022-03-29T13:00:46Z</time><name>PT4651</name></trkpt>
<trkpt lat="54.441338" lon="-3.257297"><ele>309</ele><time>2022-03-29T13:00:46Z</time><name>PT4652</name></trkpt>
<trkpt lat="54.441331" lon="-3.257324"><ele>310</ele><time>2022-03-29T13:00:48Z</time><name>PT4653</name></trkpt>
<trkpt lat="54.441326" lon="-3.257339"><ele>310</ele><time>2022-03-29T13:00:49Z</time><name>PT4654</name></trkpt>
<trkpt lat="54.441327" lon="-3.257346"><ele>309</ele><time>2022-03-29T13:00:50Z</time><name>PT4655</name></trkpt>
<trkpt lat="54.441327" lon="-3.257363"><ele>310</ele><time>2022-03-29T13:00:51Z</time><name>PT4656</name></trkpt>
<trkpt lat="54.441328" lon="-3.257396"><ele>310</ele><time>2022-03-29T13:00:52Z</time><name>PT4657</name></trkpt>
<trkpt lat="54.441328" lon="-3.257416"><ele>310</ele><time>2022-03-29T13:00:52Z</time><name>PT4658</name></trkpt>
<trkpt lat="54.441329" lon="-3.257424"><ele>310</ele><time>2022-03-29T13:00:54Z</time><name>PT4659</name></trkpt>
<trkpt lat="54.441322" lon="-3.257441"><ele>310</ele><time>2022-03-29T13:00:55Z</time><name>PT4660</name></trkpt>
<trkpt lat="54.441319" lon="-3.257467"><ele>310</ele><time>2022-03-29T13:00:55Z</time><name>PT4661</name></trkpt>
<trkpt lat="54.441320" lon="-3.257482"><ele>310</ele><time>2022-03-29T13:00:57Z</time><name>PT4662</name></trkpt>
<trkpt lat="54.441320" lon="-3.257490"><ele>309</ele><time>2022-03-29T13:00:58Z</time><name>PT4663</name></trkpt>
<trkpt lat="54.441312" lon="-3.257506"><ele>309</ele><time>2022-03-29T13:00:58Z</time><name>PT4664</name></trkpt>
<trkpt lat="54.441302" lon="-3.257526"><ele>309</ele><time>2022-03-29T13:01:00Z</time><name>PT4665</name></trkpt>
<trkpt lat="54.441297" lon="-3.257540"><ele>309</ele><time>2022-03-29T13:01:01Z</time><name>PT4666</name></trkpt>
<trkpt lat="54.441298" lon="-3.257550"><ele>309</ele><time>2022-03-29T13:01:01Z</time><name>PT4667</name></trkpt>
<trkpt lat="54.441298" lon="-3.257568"><ele>309</ele><time>2022-03-29T13:01:03Z</time><name>PT4668</name></trkpt>
<trkpt lat="54.441300" lon="-3.257601"><ele>310</ele><time>2022-03-29T13:01:04Z</time><name>PT4669</name></trkpt>
<trkpt lat="54.441298" lon="-3.257629"><ele>309</ele><time>2022-03-29T13:01:04Z</time><name>PT4670</name></trkpt>
<trkpt lat="54.441296" lon="-3.257649"><ele>310</ele><time>2022-03-29T13:01:06Z</time><name>PT4671</name></trkpt>
<trkpt lat="54.441296" lon="-3.257664"><ele>309</ele><time>2022-03-29T13:01:07Z</time><name>PT4672</name></trkpt>
<trkpt lat="54.441297" lon="-3.257688"><ele>309</ele><time>2022-03-29T13:01:07Z</time><name>PT4673</name></trkpt>
<trkpt lat="54.441299" lon="-3.257709"><ele>309</ele><time>2022-03-29T13:01:09Z</time><name>PT4674</name></trkpt>
<trkpt lat="54.441304" lon="-3.257722"><ele>309</ele><time>2022-03-29T13:01:10Z</time><name>PT4675</name></trkpt>
<trkpt lat="54.441306" lon="-3.257736"><ele>310</ele><time>2022-03-29T13:01:10Z</time><name>PT4676</name></trkpt>
<trkpt lat="54.441299" lon="-3.257763"><ele>309</ele><time>2022-03-29T13:01:12Z</time><name>PT4677</name></trkpt>
<trkpt lat="54.441299" lon="-3.257787"><ele>309</ele><time>2022-03-29T13:01:13Z</time><name>PT4678</name></trkpt>
<trkpt lat="54.441299" lon="-3.257796"><ele>309</ele><time>2022-03-29T13:01:13Z</time><name>PT4679</name></trkpt>
<trkpt lat="54.441297" lon="-3.257800"><ele>309</ele><time>2022-03-29T13:01:15Z</time><name>PT4680</name></trkpt>
<trkpt lat="54.441295" lon="-3.257820"><ele>309</ele><time>2022-03-29T13:01:16Z</time><name>PT4681</name></trkpt>
<trkpt lat="54.441297" lon="-3.257846"><ele>309</ele><time>2022-03-29T13:01:16Z</time><name>PT4682</name></trkpt>
<trkpt lat="54.441297" lon="-3.257857"><ele>309</ele><time>2022-03-29T13:01:18Z</time><name>PT4683</name></trkpt>
<trkpt lat="54.441299" lon="-3.257863"><ele>309</ele><time>2022-03-29T13:01:19Z</time><name>PT4684</name></trkpt>
<trkpt lat="54.441299" lon="-3.257893"><ele>309</ele><time>2022-03-29T13:01:19Z</time><name>PT4685</name></trkpt>
<trkpt lat="54.441300" lon="-3.257930"><ele>309</ele><time>2022-03-29T13:01:21Z</time><name>PT4686</name></trkpt>
<trkpt lat="54.441298" lon="-3.257951"><ele>309</ele><time>2022-03-29T13:01:22Z</time><name>PT4687</name></trkpt>
<trkpt lat="54.441294" lon="-3.257963"><ele>310</ele><time>2022-03-29T13:01:22Z</time><name>PT4688</name></trkpt>
<trkpt lat="54.441295" lon="-3.257979"><ele>310</ele><time>2022-03-29T13:01:24Z</time><name>PT4689</name></trkpt>
<trkpt lat="54.441293" lon="-3.257997"><ele>310</ele><time>2022-03-29T13:01:25Z</time><name>PT4690</name></trkpt>
<trkpt lat="54.441293" lon="-3.258014"><ele>309</ele><time>2022-03-29T13:01:25Z</time><name>PT4691</name></trkpt>
<trkpt lat="54.441294" lon="-3.258032"><ele>309</ele><time>2022-03-29T13:01:27Z</time><name>PT4692</name></trkpt>
<trkpt lat="54.441293" lon="-3.258046"><ele>309</ele><time>2022-03-29T13:01:28Z</time><name>PT4693</name></trkpt>
<trkpt lat="54.441293" lon="-3.258062"><ele>309</ele><time>2022-03-29T13:01:28Z</time><name>PT4694</name></trkpt>
<trkpt lat="54.441291" lon="-3.258076"><ele>309</ele><time>2022-03-29T13:01:30Z</time><name>PT4695</name></trkpt>
<trkpt lat="54.441289" lon="-3.258091"><ele>309</ele><time>2022-03-29T13:01:31Z</time><name>PT4696</name></trkpt>
<trkpt lat="54.441287" lon="-3.258107"><ele>309</ele><time>2022-03-29T13:01:31Z</time><name>PT4697</name></trkpt>
<trkpt lat="54.441287" lon="-3.258124"><ele>308</ele><time>2022-03-29T13:01:33Z</time><name>PT4698</name></trkpt>
<trkpt lat="54.441290" lon="-3.258137"><ele>308</ele><time>2022-03-29T13:01:34Z</time><name>PT4699</name></trkpt>
<trkpt lat="54.441291" lon="-3.258150"><ele>308</ele><time>2022-03-29T13:01:34Z</time><name>PT4700</name></trkpt>
<trkpt lat="54.441292" lon="-3.258171"><ele>308</ele><time>2022-03-29T13:01:36Z</time><name>PT4701</name></trkpt>
<trkpt lat="54.441291" lon="-3.258181"><ele>308</ele><time>2022-03-29T13:01:37Z</time><name>PT4702</name></trkpt>
<trkpt lat="54.441286" lon="-3.258191"><ele>307</ele><time>2022-03-29T13:01:37Z</time><name>PT4703</name></trkpt>
<trkpt lat="54.441278" lon="-3.258212"><ele>308</ele><time>2022-03-29T13:01:39Z</time><name>PT4704</name></trkpt>
<trkpt lat="54.441268" lon="-3.258232"><ele>307</ele><time>2022-03-29T13:01:40Z</time><name>PT4705</name></trkpt>
<trkpt lat="54.441268" lon="-3.258240"><ele>307</ele><time>2022-03-29T13:01:40Z</time><name>PT4706</name></trkpt>
<trkpt lat="54.441261" lon="-3.258255"><ele>307</ele><time>2022-03-29T13:01:42Z</time><name>PT4707</name></trkpt>
<trkpt lat="54.441254" lon="-3.258273"><ele>307</ele><time>2022-03-29T13:01:43Z</time><name>PT4708</name></trkpt>
<trkpt lat="54.441251" lon="-3.258280"><ele>307</ele><time>2022-03-29T13:01:43Z</time><name>PT4709</name></trkpt>
<trkpt lat="54.441243" lon="-3.258293"><ele>307</ele><time>2022-03-29T13:01:45Z</time><name>PT4710</name></trkpt>
<trkpt lat="54.441238" lon="-3.258313"><ele>307</ele><time>2022-03-29T13:01:46Z</time><name>PT4711</name></trkpt>
<trkpt lat="54.441234" lon="-3.258329"><ele>307</ele><time>2022-03-29T13:01:46Z</time><name>PT4712</name></trkpt>
<trkpt lat="54.441233" lon="-3.258341"><ele>306</ele><time>2022-03-29T13:01:48Z</time><name>PT4713</name></trkpt>
<trkpt lat="54.441227" lon="-3.258355"><ele>306</ele><time>2022-03-29T13:01:49Z</time><name>PT4714</name></trkpt>
<trkpt lat="54.441215" lon="-3.258377"><ele>306</ele><time>2022-03-29T13:01:49Z</time><name>PT4715</name></trkpt>
<trkpt lat="54.441213" lon="-3.258389"><ele>305</ele><time>2022-03-29T13:01:51Z</time><name>PT4716</name></trkpt>
<trkpt lat="54.441209" lon="-3.258397"><ele>305</ele><time>2022-03-29T13:01:52Z</time><name>PT4717</name></trkpt>
<trkpt lat="54.441206" lon="-3.258415"><ele>305</ele><time>2022-03-29T13:01:52Z</time><name>PT4718</name></trkpt>
<trkpt lat="54.441203" lon="-3.258425"><ele>304</ele><time>2022-03-29T13:01:54Z</time><name>PT4719</name></trkpt>
<trkpt lat="54.441202" lon="-3.258436"><ele>304</ele><time>2022-03-29T13:01:55Z</time><name>PT4720</name></trkpt>
<trkpt lat="54.441200" lon="-3.258462"><ele>304</ele><time>2022-03-29T13:01:55Z</time><name>PT4721</name></trkpt>
<trkpt lat="54.441198" lon="-3.258491"><ele>304</ele><time>2022-03-29T13:01:57Z</time><name>PT4722</name></trkpt>
<trkpt lat="54.441199" lon="-3.258501"><ele>304</ele><time>2022-03-29T13:01:58Z</time><name>PT4723</name></trkpt>
<trkpt lat="54.441197" lon="-3.258516"><ele>304</ele><time>2022-03-29T13:01:58Z</time><name>PT4724</name></trkpt>
<trkpt lat="54.441193" lon="-3.258540"><ele>304</ele><time>2022-03-29T13:02:00Z</time><name>PT4725</name></trkpt>
<trkpt lat="54.441190" lon="-3.258562"><ele>303</ele><time>2022-03-29T13:02:01Z</time><name>PT4726</name></trkpt>
<trkpt lat="54.441191" lon="-3.258565"><ele>303</ele><time>2022-03-29T13:02:01Z</time><name>PT4727</name></trkpt>
<trkpt lat="54.441191" lon="-3.258577"><ele>303</ele><time>2022-03-29T13:02:03Z</time><name>PT4728</name></trkpt>
<trkpt lat="54.441191" lon="-3.258606"><ele>303</ele><time>2022-03-29T13:02:04Z</time><name>PT4729</name></trkpt>
<trkpt lat="54.441191" lon="-3.258627"><ele>303</ele><time>2022-03-29T13:02:04Z</time><name>PT4730</name></trkpt>
<trkpt lat="54.441192" lon="-3.258638"><ele>303</ele><time>2022-03-29T13:02:06Z</time><name>PT4731</name></trkpt>
<trkpt lat="54.441192" lon="-3.258658"><ele>303</ele><time>2022-03-29T13:02:07Z</time><name>PT4732</name></trkpt>
<trkpt lat="54.441192" lon="-3.258687"><ele>303</ele><time>2022-03-29T13:02:07Z</time><name>PT4733</name></trkpt>
<trkpt lat="54.441191" lon="-3.258698"><ele>303</ele><time>2022-03-29T13:02:09Z</time><name>PT4734</name></trkpt>
<trkpt lat="54.441191" lon="-3.258712"><ele>303</ele><time>2022-03-29T13:02:10Z</time><name>PT4735</name></trkpt>
<trkpt lat="54.441187" lon="-3.258740"><ele>303</ele><time>2022-03-29T13:02:10Z</time><name>PT4736</name></trkpt>
<trkpt lat="54.441186" lon="-3.258760"><ele>303</ele><time>2022-03-29T13:02:12Z</time><name>PT4737</name></trkpt>
<trkpt lat="54.441187" lon="-3.258763"><ele>302</ele><time>2022-03-29T13:02:13Z</time><name>PT4738</name></trkpt>
<trkpt lat="54.441184" lon="-3.258780"><ele>302</ele><time>2022-03-29T13:02:13Z</time><name>PT4739</name></trkpt>
<trkpt lat="54.441182" lon="-3.258807"><ele>302</ele><time>2022-03-29T13:02:15Z</time><name>PT4740</name></trkpt>
<trkpt lat="54.441183" lon="-3.258823"><ele>302</ele><time>2022-03-29T13:02:16Z</time><name>PT4741</name></trkpt>
<trkpt lat="54.441183" lon="-3.258830"><ele>302</ele><time>2022-03-29T13:02:16Z</time><name>PT4742</name></trkpt>
<trkpt lat="54.441179" lon="-3.258853"><ele>302</ele><time>2022-03-29T13:02:18Z</time><name>PT4743</name></trkpt>
<trkpt lat="54.441176" lon="-3.258884"><ele>302</ele><time>2022-03-29T13:02:19Z</time><name>PT4744</name></trkpt>
<trkpt lat="54.441174" lon="-3.258898"><ele>302</ele><time>2022-03-29T13:02:19Z</time><name>PT4745</name></trkpt>
<trkpt lat="54.441170" lon="-3.258907"><ele>302</ele><time>2022-03-29T13:02:21Z</time><name>PT4746</name></trkpt>
<trkpt lat="54.441161" lon="-3.258928"><ele>302</ele><time>2022-03-29T13:02:22Z</time><name>PT4747</name></trkpt>
<trkpt lat="54.441153" lon="-3.258954"><ele>302</ele><time>2022-03-29T13:02:22Z</time><name>PT4748</name></trkpt>
<trkpt lat="54.441151" lon="-3.258966"><ele>302</ele><time>2022-03-29T13:02:24Z</time><name>PT4749</name></trkpt>
<trkpt lat="54.441150" lon="-3.258974"><ele>302</ele><time>2022-03-29T13:02:25Z</time><name>PT4750</name></trkpt>
<trkpt lat="54.441143" lon="-3.258999"><ele>302</ele><time>2022-03-29T13:02:25Z</time><name>PT4751</name></trkpt>
<trkpt lat="54.441137" lon="-3.259028"><ele>302</ele><time>2022-03-29T13:02:27Z</time><name>PT4752</name></trkpt>
<trkpt lat="54.441137" lon="-3.259034"><ele>302</ele><time>2022-03-29T13:02:28Z</time><name>PT4753</name></trkpt>
<trkpt lat="54.441132" lon="-3.259049"><ele>303</ele><time>2022-03-29T13:02:28Z</time><name>PT4754</name></trkpt>
<trkpt lat="54.441130" lon="-3.259075"><ele>303</ele><time>2022-03-29T13:02:30Z</time><name>PT4755</name></trkpt>
<trkpt lat="54.441128" lon="-3.259092"><ele>303</ele><time>2022-03-29T13:02:31Z</time><name>PT4756</name></trkpt>
<trkpt lat="54.441129" lon="-3.259104"><ele>303</ele><time>2022-03-29T13:02:31Z</time><name>PT4757</name></trkpt>
<trkpt lat="54.441128" lon="-3.259128"><ele>303</ele><time>2022-03-29T13:02:33Z</time><name>PT4758</name></trkpt>
<trkpt lat="54.441129" lon="-3.259145"><ele>303</ele><time>2022-03-29T13:02:34Z</time><name>PT4759</name></trkpt>
<trkpt lat="54.441130" lon="-3.259155"><ele>302</ele><time>2022-03-29T13:02:34Z</time><name>PT4760</name></trkpt>
<trkpt lat="54.441128" lon="-3.259174"><ele>302</ele><time>2022-03-29T13:02:36Z</time><name>PT4761</name></trkpt>
<trkpt lat="54.441125" lon="-3.259205"><ele>302</ele><time>2022-03-29T13:02:37Z</time><name>PT4762</name></trkpt>
<trkpt lat="54.441127" lon="-3.259225"><ele>302</ele><time>2022-03-29T13:02:37Z</time><name>PT4763</name></trkpt>
<trkpt lat="54.441129" lon="-3.259232"><ele>302</ele><time>2022-03-29T13:02:39Z</time><name>PT4764</name></trkpt>
<trkpt lat="54.441123" lon="-3.259255"><ele>303</ele><time>2022-03-29T13:02:40Z</time><name>PT4765</name></trkpt>
<trkpt lat="54.441115" lon="-3.259280"><ele>303</ele><time>2022-03-29T13:02:40Z</time><name>PT4766</name></trkpt>
<trkpt lat="54.441118" lon="-3.259294"><ele>303</ele><time>2022-03-29T13:02:42Z</time><name>PT4767</name></trkpt>
<trkpt lat="54.441117" lon="-3.259312"><ele>303</ele><time>2022-03-29T13:02:43Z</time><name>PT4768</name></trkpt>
<trkpt lat="54.441119" lon="-3.259339"><ele>302</ele><time>2022-03-29T13:02:43Z</time><name>PT4769</name></trkpt>
<trkpt lat="54.441120" lon="-3.259357"><ele>302</ele><time>2022-03-29T13:02:45Z</time><name>PT4770</name></trkpt>
<trkpt lat="54.441116" lon="-3.259372"><ele>302</ele><time>2022-03-29T13:02:46Z</time><name>PT4771</name></trkpt>
<trkpt lat="54.441109" lon="-3.259399"><ele>302</ele><time>2022-03-29T13:02:46Z</time><name>PT4772</name></trkpt>
<trkpt lat="54.441102" lon="-3.259417"><ele>301</ele><time>2022-03-29T13:02:48Z</time><name>PT4773</name></trkpt>
<trkpt lat="54.441103" lon="-3.259418"><ele>301</ele><time>2022-03-29T13:02:49Z</time><name>PT4774</name></trkpt>
<trkpt lat="54.441099" lon="-3.259427"><ele>301</ele><time>2022-03-29T13:02:49Z</time><name>PT4775</name></trkpt>
<trkpt lat="54.441093" lon="-3.259454"><ele>301</ele><time>2022-03-29T13:02:51Z</time><name>PT4776</name></trkpt>
<trkpt lat="54.441088" lon="-3.259460"><ele>301</ele><time>2022-03-29T13:02:52Z</time><name>PT4777</name></trkpt>
<trkpt lat="54.441089" lon="-3.259471"><ele>300</ele><time>2022-03-29T13:02:52Z</time><name>PT4778</name></trkpt>
<trkpt lat="54.441089" lon="-3.259490"><ele>300</ele><time>2022-03-29T13:02:54Z</time><name>PT4779</name></trkpt>
<trkpt lat="54.441087" lon="-3.259504"><ele>300</ele><time>2022-03-29T13:02:55Z</time><name>PT4780</name></trkpt>
<trkpt lat="54.441083" lon="-3.259512"><ele>300</ele><time>2022-03-29T13:02:55Z</time><name>PT4781</name></trkpt>
<trkpt lat="54.441076" lon="-3.259537"><ele>300</ele><time>2022-03-29T13:02:57Z</time><name>PT4782</name></trkpt>
<trkpt lat="54.441072" lon="-3.259557"><ele>300</ele><time>2022-03-29T13:02:58Z</time><name>PT4783</name></trkpt>
<trkpt lat="54.441072" lon="-3.259565"><ele>300</ele><time>2022-03-29T13:02:58Z</time><name>PT4784</name></trkpt>
<trkpt lat="54.441069" lon="-3.259585"><ele>300</ele><time>2022-03-29T13:03:00Z</time><name>PT4785</name></trkpt>
<trkpt lat="54.441065" lon="-3.259609"><ele>300</ele><time>2022-03-29T13:03:01Z</time><name>PT4786</name></trkpt>
<trkpt lat="54.441064" lon="-3.259628"><ele>300</ele><time>2022-03-29T13:03:01Z</time><name>PT4787</name></trkpt>
<trkpt lat="54.441063" lon="-3.259642"><ele>300</ele><time>2022-03-29T13:03:03Z</time><name>PT4788</name></trkpt>
<trkpt lat="54.441058" lon="-3.259664"><ele>300</ele><time>2022-03-29T13:03:04Z</time><name>PT4789</name></trkpt>
<trkpt lat="54.441058" lon="-3.259678"><ele>300</ele><time>2022-03-29T13:03:04Z</time><name>PT4790</name></trkpt>
<trkpt lat="54.441055" lon="-3.259688"><ele>300</ele><time>2022-03-29T13:03:06Z</time><name>PT4791</name></trkpt>
<trkpt lat="54.441049" lon="-3.259708"><ele>299</ele><time>2022-03-29T13:03:07Z</time><name>PT4792</name></trkpt>
<trkpt lat="54.441044" lon="-3.259721"><ele>299</ele><time>2022-03-29T13:03:07Z</time><name>PT4793</name></trkpt>
<trkpt lat="54.441040" lon="-3.259729"><ele>299</ele><time>2022-03-29T13:03:09Z</time><name>PT4794</name></trkpt>
<trkpt lat="54.441035" lon="-3.259753"><ele>300</ele><time>2022-03-29T13:03:10Z</time><name>PT4795</name></trkpt>
<trkpt lat="54.441030" lon="-3.259778"><ele>300</ele><time>2022-03-29T13:03:10Z</time><name>PT4796</name></trkpt>
<trkpt lat="54.441032" lon="-3.259787"><ele>300</ele><time>2022-03-29T13:03:12Z</time><name>PT4797</name></trkpt>
<trkpt lat="54.441032" lon="-3.259797"><ele>300</ele><time>2022-03-29T13:03:13Z</time><name>PT4798</name></trkpt>
<trkpt lat="54.441031" lon="-3.259822"><ele>299</ele><time>2022-03-29T13:03:13Z</time><name>PT4799</name></trkpt>
<trkpt lat="54.441032" lon="-3.259829"><ele>299</ele><time>2022-03-29T13:03:15Z</time><name>PT4800</name></trkpt>
<trkpt lat="54.441029" lon="-3.259844"><ele>299</ele><time>2022-03-29T13:03:16Z</time><name>PT4801</name></trkpt>
<trkpt lat="54.441025" lon="-3.259871"><ele>298</ele><time>2022-03-29T13:03:16Z</time><name>PT4802</name></trkpt>
<trkpt lat="54.441027" lon="-3.259886"><ele>298</ele><time>2022-03-29T13:03:18Z</time><name>PT4803</name></trkpt>
<trkpt lat="54.441029" lon="-3.259892"><ele>297</ele><time>2022-03-29T13:03:19Z</time><name>PT4804</name></trkpt>
<trkpt lat="54.441023" lon="-3.259910"><ele>297</ele><time>2022-03-29T13:03:19Z</time><name>PT4805</name></trkpt>
<trkpt lat="54.441012" lon="-3.259941"><ele>297</ele><time>2022-03-29T13:03:21Z</time><name>PT4806</name></trkpt>
<trkpt lat="54.441005" lon="-3.259965"><ele>297</ele><time>2022-03-29T13:03:22Z</time><name>PT4807</name></trkpt>
<trkpt lat="54.441006" lon="-3.259972"><ele>296</ele><time>2022-03-29T13:03:22Z</time><name>PT4808</name></trkpt>
<trkpt lat="54.441007" lon="-3.259975"><ele>296</ele><time>2022-03-29T13:03:24Z</time><name>PT4809</name></trkpt>
<trkpt lat="54.441009" lon="-3.260000"><ele>297</ele><time>2022-03-29T13:03:25Z</time><name>PT4810</name></trkpt>
<trkpt lat="54.441006" lon="-3.260026"><ele>296</ele><time>2022-03-29T13:03:25Z</time><name>PT4811</name></trkpt>
<trkpt lat="54.441003" lon="-3.260028"><ele>296</ele><time>2022-03-29T13:03:27Z</time><name>PT4812</name></trkpt>
<trkpt lat="54.441002" lon="-3.260038"><ele>296</ele><time>2022-03-29T13:03:28Z</time><name>PT4813</name></trkpt>
<trkpt lat="54.440992" lon="-3.260054"><ele>296</ele><time>2022-03-29T13:03:28Z</time><name>PT4814</name></trkpt>
<trkpt lat="54.440981" lon="-3.260071"><ele>296</ele><time>2022-03-29T13:03:30Z</time><name>PT4815</name></trkpt>
<trkpt lat="54.440977" lon="-3.260081"><ele>296</ele><time>2022-03-29T13:03:31Z</time><name>PT4816</name></trkpt>
<trkpt lat="54.440970" lon="-3.260087"><ele>296</ele><time>2022-03-29T13:03:31Z</time><name>PT4817</name></trkpt>
<trkpt lat="54.440956" lon="-3.260105"><ele>296</ele><time>2022-03-29T13:03:33Z</time><name>PT4818</name></trkpt>
<trkpt lat="54.440941" lon="-3.260121"><ele>296</ele><time>2022-03-29T13:03:34Z</time><name>PT4819</name></trkpt>
<trkpt lat="54.440932" lon="-3.260129"><ele>296</ele><time>2022-03-29T13:03:34Z</time><name>PT4820</name></trkpt>
<trkpt lat="54.440925" lon="-3.260139"><ele>295</ele><time>2022-03-29T13:03:36Z</time><name>PT4821</name></trkpt>
<trkpt lat="54.440920" lon="-3.260149"><ele>295</ele><time>2022-03-29T13:03:37Z</time><name>PT4822</name></trkpt>
<trkpt lat="54.440915" lon="-3.260158"><ele>295</ele><time>2022-03-29T13:03:37Z</time><name>PT4823</name></trkpt>
<trkpt lat="54.440908" lon="-3.260163"><ele>294</ele><time>2022-03-29T13:03:39Z</time><name>PT4824</name></trkpt>
<trkpt lat="54.440901" lon="-3.260168"><ele>294</ele><time>2022-03-29T13:03:40Z</time><name>PT4825</name></trkpt>
<trkpt lat="54.440892" lon="-3.260177"><ele>294</ele><time>2022-03-29T13:03:40Z</time><name>PT4826</name></trkpt>
<trkpt lat="54.440883" lon="-3.260187"><ele>296</ele><time>2022-03-29T13:03:42Z</time><name>PT4827</name></trkpt>
<trkpt lat="54.440872" lon="-3.260204"><ele>297</ele><time>2022-03-29T13:03:43Z</time><name>PT4828</name></trkpt>
<trkpt lat="54.440866" lon="-3.260225"><ele>296</ele><time>2022-03-29T13:03:43Z</time><name>PT4829</name></trkpt>
<trkpt lat="54.440867" lon="-3.260229"><ele>296</ele><time>2022-03-29T13:03:45Z</time><name>PT4830</name></trkpt>
<trkpt lat="54.440865" lon="-3.260236"><ele>295</ele><time>2022-03-29T13:03:46Z</time><name>PT4831</name></trkpt>
<trkpt lat="54.440855" lon="-3.260248"><ele>295</ele><time>2022-03-29T13:03:46Z</time><name>PT4832</name></trkpt>
<trkpt lat="54.440844" lon="-3.260270"><ele>296</ele><time>2022-03-29T13:03:48Z</time><name>PT4833</name></trkpt>
<trkpt lat="54.440834" lon="-3.260293"><ele>296</ele><time>2022-03-29T13:03:49Z</time><name>PT4834</name></trkpt>
<trkpt lat="54.440828" lon="-3.260303"><ele>295</ele><time>2022-03-29T13:03:49Z</time><name>PT4835</name></trkpt>
<trkpt lat="54.440826" lon="-3.260309"><ele>295</ele><time>2022-03-29T13:03:51Z</time><name>PT4836</name></trkpt>
<trkpt lat="54.440817" lon="-3.260319"><ele>295</ele><time>2022-03-29T13:03:52Z</time><name>PT4837</name></trkpt>
<trkpt lat="54.440805" lon="-3.260334"><ele>296</ele><time>2022-03-29T13:03:52Z</time><name>PT4838</name></trkpt>
<trkpt lat="54.440798" lon="-3.260346"><ele>296</ele><time>2022-03-29T13:03:54Z</time><name>PT4839</name></trkpt>
<trkpt lat="54.440794" lon="-3.260351"><ele>295</ele><time>2022-03-29T13:03:55Z</time><name>PT4840</name></trkpt>
<trkpt lat="54.440795" lon="-3.260363"><ele>295</ele><time>2022-03-29T13:03:55Z</time><name>PT4841</name></trkpt>
<trkpt lat="54.440794" lon="-3.260393"><ele>295</ele><time>2022-03-29T13:03:57Z</time><name>PT4842</name></trkpt>
<trkpt lat="54.440793" lon="-3.260416"><ele>295</ele><time>2022-03-29T13:03:58Z</time><name>PT4843</name></trkpt>
<trkpt lat="54.440796" lon="-3.260423"><ele>295</ele><time>2022-03-29T13:03:58Z</time><name>PT4844</name></trkpt>
<trkpt lat="54.440794" lon="-3.260440"><ele>295</ele><time>2022-03-29T13:04:00Z</time><name>PT4845</name></trkpt>
<trkpt lat="54.440790" lon="-3.260462"><ele>295</ele><time>2022-03-29T13:04:01Z</time><name>PT4846</name></trkpt>
<trkpt lat="54.440789" lon="-3.260479"><ele>295</ele><time>2022-03-29T13:04:01Z</time><name>PT4847</name></trkpt>
<trkpt lat="54.440787" lon="-3.260478"><ele>295</ele><time>2022-03-29T13:04:03Z</time><name>PT4848</name></trkpt>
<trkpt lat="54.440782" lon="-3.260489"><ele>295</ele><time>2022-03-29T13:04:04Z</time><name>PT4849</name></trkpt>
<trkpt lat="54.440774" lon="-3.260510"><ele>294</ele><time>2022-03-29T13:04:04Z</time><name>PT4850</name></trkpt>
<trkpt lat="54.440769" lon="-3.260521"><ele>294</ele><time>2022-03-29T13:04:06Z</time><name>PT4851</name></trkpt>
<trkpt lat="54.440765" lon="-3.260532"><ele>294</ele><time>2022-03-29T13:04:07Z</time><name>PT4852</name></trkpt>
<trkpt lat="54.440757" lon="-3.260547"><ele>294</ele><time>2022-03-29T13:04:07Z</time><name>PT4853</name></trkpt>
<trkpt lat="54.440751" lon="-3.260568"><ele>294</ele><time>2022-03-29T13:04:09Z</time><name>PT4854</name></trkpt>
<trkpt lat="54.440752" lon="-3.260574"><ele>294</ele><time>2022-03-29T13:04:10Z</time><name>PT4855</name></trkpt>
<trkpt lat="54.440753" lon="-3.260575"><ele>293</ele><time>2022-03-29T13:04:10Z</time><name>PT4856</name></trkpt>
<trkpt lat="54.440760" lon="-3.260589"><ele>294</ele><time>2022-03-29T13:04:12Z</time><name>PT4857</name></trkpt>
<trkpt lat="54.440764" lon="-3.260598"><ele>294</ele><time>2022-03-29T13:04:13Z</time><name>PT4858</name></trkpt>
<trkpt lat="54.440769" lon="-3.260610"><ele>294</ele><time>2022-03-29T13:04:13Z</time><name>PT4859</name></trkpt>
<trkpt lat="54.440773" lon="-3.260617"><ele>293</ele><time>2022-03-29T13:04:15Z</time><name>PT4860</name></trkpt>
<trkpt lat="54.440770" lon="-3.260619"><ele>293</ele><time>2022-03-29T13:04:16Z</time><name>PT4861</name></trkpt>
<trkpt lat="54.440772" lon="-3.260611"><ele>294</ele><time>2022-03-29T13:04:16Z</time><name>PT4862</name></trkpt>
<trkpt lat="54.440770" lon="-3.260606"><ele>294</ele><time>2022-03-29T13:04:18Z</time><name>PT4863</name></trkpt>
<trkpt lat="54.440769" lon="-3.260605"><ele>294</ele><time>2022-03-29T13:04:19Z</time><name>PT4864</name></trkpt>
<trkpt lat="54.440769" lon="-3.260599"><ele>294</ele><time>2022-03-29T13:04:19Z</time><name>PT4865</name></trkpt>
<trkpt lat="54.440767" lon="-3.260594"><ele>293</ele><time>2022-03-29T13:04:21Z</time><name>PT4866</name></trkpt>
<trkpt lat="54.440767" lon="-3.260596"><ele>293</ele><time>2022-03-29T13:04:22Z</time><name>PT4867</name></trkpt>
<trkpt lat="54.440766" lon="-3.260596"><ele>293</ele><time>2022-03-29T13:04:22Z</time><name>PT4868</name></trkpt>
<trkpt lat="54.440766" lon="-3.260597"><ele>293</ele><time>2022-03-29T13:04:24Z</time><name>PT4869</name></trkpt>
<trkpt lat="54.440763" lon="-3.260599"><ele>293</ele><time>2022-03-29T13:04:25Z</time><name>PT4870</name></trkpt>
<trkpt lat="54.440763" lon="-3.260601"><ele>293</ele><time>2022-03-29T13:04:25Z</time><name>PT4871</name></trkpt>
<trkpt lat="54.440766" lon="-3.260592"><ele>293</ele><time>2022-03-29T13:04:28Z</time><name>PT4872</name></trkpt>
<trkpt lat="54.440759" lon="-3.260585"><ele>294</ele><time>2022-03-29T13:04:28Z</time><name>PT4873</name></trkpt>
<trkpt lat="54.440753" lon="-3.260596"><ele>293</ele><time>2022-03-29T13:04:30Z</time><name>PT4874</name></trkpt>
<trkpt lat="54.440751" lon="-3.260611"><ele>293</ele><time>2022-03-29T13:04:31Z</time><name>PT4875</name></trkpt>
<trkpt lat="54.440739" lon="-3.260608"><ele>294</ele><time>2022-03-29T13:04:31Z</time><name>PT4876</name></trkpt>
<trkpt lat="54.440731" lon="-3.260608"><ele>294</ele><time>2022-03-29T13:04:33Z</time><name>PT4877</name></trkpt>
<trkpt lat="54.440721" lon="-3.260610"><ele>294</ele><time>2022-03-29T13:04:34Z</time><name>PT4878</name></trkpt>
<trkpt lat="54.440711" lon="-3.260612"><ele>294</ele><time>2022-03-29T13:04:34Z</time><name>PT4879</name></trkpt>
<trkpt lat="54.440703" lon="-3.260609"><ele>295</ele><time>2022-03-29T13:04:36Z</time><name>PT4880</name></trkpt>
<trkpt lat="54.440698" lon="-3.260602"><ele>294</ele><time>2022-03-29T13:04:37Z</time><name>PT4881</name></trkpt>
<trkpt lat="54.440697" lon="-3.260601"><ele>294</ele><time>2022-03-29T13:04:37Z</time><name>PT4882</name></trkpt>
<trkpt lat="54.440697" lon="-3.260603"><ele>294</ele><time>2022-03-29T13:04:39Z</time><name>PT4883</name></trkpt>
<trkpt lat="54.440696" lon="-3.260605"><ele>294</ele><time>2022-03-29T13:04:40Z</time><name>PT4884</name></trkpt>
<trkpt lat="54.440697" lon="-3.260610"><ele>293</ele><time>2022-03-29T13:04:40Z</time><name>PT4885</name></trkpt>
<trkpt lat="54.440697" lon="-3.260620"><ele>294</ele><time>2022-03-29T13:04:42Z</time><name>PT4886</name></trkpt>
<trkpt lat="54.440696" lon="-3.260622"><ele>293</ele><time>2022-03-29T13:04:43Z</time><name>PT4887</name></trkpt>
<trkpt lat="54.440694" lon="-3.260619"><ele>293</ele><time>2022-03-29T13:04:43Z</time><name>PT4888</name></trkpt>
<trkpt lat="54.440692" lon="-3.260621"><ele>293</ele><time>2022-03-29T13:04:45Z</time><name>PT4889</name></trkpt>
<trkpt lat="54.440694" lon="-3.260623"><ele>293</ele><time>2022-03-29T13:04:46Z</time><name>PT4890</name></trkpt>
<trkpt lat="54.440694" lon="-3.260621"><ele>293</ele><time>2022-03-29T13:04:46Z</time><name>PT4891</name></trkpt>
<trkpt lat="54.440697" lon="-3.260615"><ele>294</ele><time>2022-03-29T13:04:48Z</time><name>PT4892</name></trkpt>
<trkpt lat="54.440693" lon="-3.260618"><ele>294</ele><time>2022-03-29T13:04:49Z</time><name>PT4893</name></trkpt>
<trkpt lat="54.440693" lon="-3.260621"><ele>294</ele><time>2022-03-29T13:04:49Z</time><name>PT4894</name></trkpt>
<trkpt lat="54.440692" lon="-3.260624"><ele>293</ele><time>2022-03-29T13:04:51Z</time><name>PT4895</name></trkpt>
<trkpt lat="54.440692" lon="-3.260626"><ele>293</ele><time>2022-03-29T13:04:52Z</time><name>PT4896</name></trkpt>
<trkpt lat="54.440695" lon="-3.260628"><ele>293</ele><time>2022-03-29T13:05:09Z</time><name>PT4897</name></trkpt>
<trkpt lat="54.440695" lon="-3.260627"><ele>293</ele><time>2022-03-29T13:05:10Z</time><name>PT4898</name></trkpt>
<trkpt lat="54.440694" lon="-3.260627"><ele>293</ele><time>2022-03-29T13:05:10Z</time><name>PT4899</name></trkpt>
<trkpt lat="54.440693" lon="-3.260615"><ele>293</ele><time>2022-03-29T13:05:31Z</time><name>PT4900</name></trkpt>
<trkpt lat="54.440692" lon="-3.260609"><ele>293</ele><time>2022-03-29T13:05:31Z</time><name>PT4901</name></trkpt>
<trkpt lat="54.440689" lon="-3.260611"><ele>293</ele><time>2022-03-29T13:05:33Z</time><name>PT4902</name></trkpt>
<trkpt lat="54.440697" lon="-3.260583"><ele>293</ele><time>2022-03-29T13:10:36Z</time><name>PT4903</name></trkpt>
<trkpt lat="54.440695" lon="-3.260578"><ele>293</ele><time>2022-03-29T13:10:37Z</time><name>PT4904</name></trkpt>
<trkpt lat="54.440699" lon="-3.260575"><ele>294</ele><time>2022-03-29T13:10:39Z</time><name>PT4905</name></trkpt>
<trkpt lat="54.440702" lon="-3.260580"><ele>294</ele><time>2022-03-29T13:10:40Z</time><name>PT4906</name></trkpt>
<trkpt lat="54.440706" lon="-3.260595"><ele>294</ele><time>2022-03-29T13:10:40Z</time><name>PT4907</name></trkpt>
<trkpt lat="54.440703" lon="-3.260597"><ele>294</ele><time>2022-03-29T13:10:42Z</time><name>PT4908</name></trkpt>
<trkpt lat="54.440701" lon="-3.260603"><ele>294</ele><time>2022-03-29T13:10:51Z</time><name>PT4909</name></trkpt>
<trkpt lat="54.440703" lon="-3.260603"><ele>294</ele><time>2022-03-29T13:10:52Z</time><name>PT4910</name></trkpt>
<trkpt lat="54.440704" lon="-3.260603"><ele>294</ele><time>2022-03-29T13:10:52Z</time><name>PT4911</name></trkpt>
<trkpt lat="54.440703" lon="-3.260607"><ele>294</ele><time>2022-03-29T13:10:54Z</time><name>PT4912</name></trkpt>
<trkpt lat="54.440702" lon="-3.260606"><ele>294</ele><time>2022-03-29T13:10:55Z</time><name>PT4913</name></trkpt>
<trkpt lat="54.440701" lon="-3.260607"><ele>294</ele><time>2022-03-29T13:10:55Z</time><name>PT4914</name></trkpt>
<trkpt lat="54.440702" lon="-3.260605"><ele>294</ele><time>2022-03-29T13:10:57Z</time><name>PT4915</name></trkpt>
<trkpt lat="54.440704" lon="-3.260607"><ele>294</ele><time>2022-03-29T13:11:01Z</time><name>PT4916</name></trkpt>
<trkpt lat="54.440709" lon="-3.260601"><ele>294</ele><time>2022-03-29T13:11:01Z</time><name>PT4917</name></trkpt>
<trkpt lat="54.440713" lon="-3.260589"><ele>294</ele><time>2022-03-29T13:11:03Z</time><name>PT4918</name></trkpt>
<trkpt lat="54.440719" lon="-3.260576"><ele>293</ele><time>2022-03-29T13:11:04Z</time><name>PT4919</name></trkpt>
<trkpt lat="54.440725" lon="-3.260575"><ele>293</ele><time>2022-03-29T13:11:04Z</time><name>PT4920</name></trkpt>
<trkpt lat="54.440733" lon="-3.260571"><ele>292</ele><time>2022-03-29T13:11:06Z</time><name>PT4921</name></trkpt>
<trkpt lat="54.440736" lon="-3.260574"><ele>292</ele><time>2022-03-29T13:11:07Z</time><name>PT4922</name></trkpt>
<trkpt lat="54.440746" lon="-3.260580"><ele>292</ele><time>2022-03-29T13:11:07Z</time><name>PT4923</name></trkpt>
<trkpt lat="54.440752" lon="-3.260584"><ele>292</ele><time>2022-03-29T13:11:09Z</time><name>PT4924</name></trkpt>
<trkpt lat="54.440761" lon="-3.260579"><ele>292</ele><time>2022-03-29T13:11:10Z</time><name>PT4925</name></trkpt>
<trkpt lat="54.440774" lon="-3.260576"><ele>292</ele><time>2022-03-29T13:11:10Z</time><name>PT4926</name></trkpt>
<trkpt lat="54.440784" lon="-3.260579"><ele>292</ele><time>2022-03-29T13:11:12Z</time><name>PT4927</name></trkpt>
<trkpt lat="54.440793" lon="-3.260584"><ele>292</ele><time>2022-03-29T13:11:13Z</time><name>PT4928</name></trkpt>
<trkpt lat="54.440803" lon="-3.260585"><ele>292</ele><time>2022-03-29T13:11:13Z</time><name>PT4929</name></trkpt>
<trkpt lat="54.440817" lon="-3.260583"><ele>292</ele><time>2022-03-29T13:11:15Z</time><name>PT4930</name></trkpt>
<trkpt lat="54.440828" lon="-3.260584"><ele>292</ele><time>2022-03-29T13:11:16Z</time><name>PT4931</name></trkpt>
<trkpt lat="54.440843" lon="-3.260587"><ele>291</ele><time>2022-03-29T13:11:16Z</time><name>PT4932</name></trkpt>
<trkpt lat="54.440852" lon="-3.260591"><ele>291</ele><time>2022-03-29T13:11:18Z</time><name>PT4933</name></trkpt>
<trkpt lat="54.440862" lon="-3.260594"><ele>291</ele><time>2022-03-29T13:11:19Z</time><name>PT4934</name></trkpt>
<trkpt lat="54.440872" lon="-3.260594"><ele>291</ele><time>2022-03-29T13:11:19Z</time><name>PT4935</name></trkpt>
<trkpt lat="54.440881" lon="-3.260603"><ele>290</ele><time>2022-03-29T13:11:21Z</time><name>PT4936</name></trkpt>
<trkpt lat="54.440891" lon="-3.260606"><ele>291</ele><time>2022-03-29T13:11:22Z</time><name>PT4937</name></trkpt>
<trkpt lat="54.440899" lon="-3.260612"><ele>291</ele><time>2022-03-29T13:11:22Z</time><name>PT4938</name></trkpt>
<trkpt lat="54.440908" lon="-3.260617"><ele>291</ele><time>2022-03-29T13:11:24Z</time><name>PT4939</name></trkpt>
<trkpt lat="54.440916" lon="-3.260619"><ele>291</ele><time>2022-03-29T13:11:25Z</time><name>PT4940</name></trkpt>
<trkpt lat="54.440925" lon="-3.260622"><ele>291</ele><time>2022-03-29T13:11:25Z</time><name>PT4941</name></trkpt>
<trkpt lat="54.440936" lon="-3.260627"><ele>291</ele><time>2022-03-29T13:11:27Z</time><name>PT4942</name></trkpt>
<trkpt lat="54.440947" lon="-3.260631"><ele>291</ele><time>2022-03-29T13:11:28Z</time><name>PT4943</name></trkpt>
<trkpt lat="54.440958" lon="-3.260636"><ele>291</ele><time>2022-03-29T13:11:28Z</time><name>PT4944</name></trkpt>
<trkpt lat="54.440967" lon="-3.260639"><ele>290</ele><time>2022-03-29T13:11:30Z</time><name>PT4945</name></trkpt>
<trkpt lat="54.440976" lon="-3.260638"><ele>291</ele><time>2022-03-29T13:11:31Z</time><name>PT4946</name></trkpt>
<trkpt lat="54.440984" lon="-3.260637"><ele>290</ele><time>2022-03-29T13:11:31Z</time><name>PT4947</name></trkpt>
<trkpt lat="54.440998" lon="-3.260637"><ele>290</ele><time>2022-03-29T13:11:33Z</time><name>PT4948</name></trkpt>
<trkpt lat="54.441012" lon="-3.260641"><ele>290</ele><time>2022-03-29T13:11:34Z</time><name>PT4949</name></trkpt>
<trkpt lat="54.441022" lon="-3.260647"><ele>289</ele><time>2022-03-29T13:11:35Z</time><name>PT4950</name></trkpt>
<trkpt lat="54.441036" lon="-3.260650"><ele>289</ele><time>2022-03-29T13:11:36Z</time><name>PT4951</name></trkpt>
<trkpt lat="54.441046" lon="-3.260647"><ele>289</ele><time>2022-03-29T13:11:37Z</time><name>PT4952</name></trkpt>
<trkpt lat="54.441057" lon="-3.260641"><ele>289</ele><time>2022-03-29T13:11:37Z</time><name>PT4953</name></trkpt>
<trkpt lat="54.441066" lon="-3.260635"><ele>289</ele><time>2022-03-29T13:11:39Z</time><name>PT4954</name></trkpt>
<trkpt lat="54.441079" lon="-3.260634"><ele>289</ele><time>2022-03-29T13:11:40Z</time><name>PT4955</name></trkpt>
<trkpt lat="54.441089" lon="-3.260635"><ele>288</ele><time>2022-03-29T13:11:40Z</time><name>PT4956</name></trkpt>
<trkpt lat="54.441099" lon="-3.260637"><ele>288</ele><time>2022-03-29T13:11:42Z</time><name>PT4957</name></trkpt>
<trkpt lat="54.441107" lon="-3.260642"><ele>288</ele><time>2022-03-29T13:11:43Z</time><name>PT4958</name></trkpt>
<trkpt lat="54.441112" lon="-3.260650"><ele>288</ele><time>2022-03-29T13:11:43Z</time><name>PT4959</name></trkpt>
<trkpt lat="54.441117" lon="-3.260661"><ele>288</ele><time>2022-03-29T13:11:45Z</time><name>PT4960</name></trkpt>
<trkpt lat="54.441124" lon="-3.260662"><ele>288</ele><time>2022-03-29T13:11:46Z</time><name>PT4961</name></trkpt>
<trkpt lat="54.441130" lon="-3.260663"><ele>288</ele><time>2022-03-29T13:11:46Z</time><name>PT4962</name></trkpt>
<trkpt lat="54.441135" lon="-3.260668"><ele>288</ele><time>2022-03-29T13:11:48Z</time><name>PT4963</name></trkpt>
<trkpt lat="54.441136" lon="-3.260671"><ele>288</ele><time>2022-03-29T13:11:49Z</time><name>PT4964</name></trkpt>
<trkpt lat="54.441137" lon="-3.260670"><ele>288</ele><time>2022-03-29T13:11:49Z</time><name>PT4965</name></trkpt>
<trkpt lat="54.441138" lon="-3.260670"><ele>289</ele><time>2022-03-29T13:11:51Z</time><name>PT4966</name></trkpt>
<trkpt lat="54.441141" lon="-3.260677"><ele>288</ele><time>2022-03-29T13:11:57Z</time><name>PT4967</name></trkpt>
<trkpt lat="54.441148" lon="-3.260682"><ele>288</ele><time>2022-03-29T13:11:58Z</time><name>PT4968</name></trkpt>
<trkpt lat="54.441156" lon="-3.260683"><ele>288</ele><time>2022-03-29T13:11:58Z</time><name>PT4969</name></trkpt>
<trkpt lat="54.441164" lon="-3.260684"><ele>288</ele><time>2022-03-29T13:12:00Z</time><name>PT4970</name></trkpt>
<trkpt lat="54.441168" lon="-3.260679"><ele>288</ele><time>2022-03-29T13:12:01Z</time><name>PT4971</name></trkpt>
<trkpt lat="54.441171" lon="-3.260680"><ele>288</ele><time>2022-03-29T13:12:01Z</time><name>PT4972</name></trkpt>
<trkpt lat="54.441173" lon="-3.260679"><ele>288</ele><time>2022-03-29T13:12:03Z</time><name>PT4973</name></trkpt>
<trkpt lat="54.441174" lon="-3.260681"><ele>288</ele><time>2022-03-29T13:12:04Z</time><name>PT4974</name></trkpt>
<trkpt lat="54.441175" lon="-3.260675"><ele>289</ele><time>2022-03-29T13:12:07Z</time><name>PT4975</name></trkpt>
<trkpt lat="54.441181" lon="-3.260663"><ele>289</ele><time>2022-03-29T13:12:09Z</time><name>PT4976</name></trkpt>
<trkpt lat="54.441189" lon="-3.260653"><ele>289</ele><time>2022-03-29T13:12:10Z</time><name>PT4977</name></trkpt>
<trkpt lat="54.441198" lon="-3.260649"><ele>289</ele><time>2022-03-29T13:12:10Z</time><name>PT4978</name></trkpt>
<trkpt lat="54.441209" lon="-3.260647"><ele>290</ele><time>2022-03-29T13:12:12Z</time><name>PT4979</name></trkpt>
<trkpt lat="54.441219" lon="-3.260652"><ele>289</ele><time>2022-03-29T13:12:13Z</time><name>PT4980</name></trkpt>
<trkpt lat="54.441227" lon="-3.260660"><ele>289</ele><time>2022-03-29T13:12:13Z</time><name>PT4981</name></trkpt>
<trkpt lat="54.441235" lon="-3.260667"><ele>289</ele><time>2022-03-29T13:12:15Z</time><name>PT4982</name></trkpt>
<trkpt lat="54.441244" lon="-3.260676"><ele>289</ele><time>2022-03-29T13:12:16Z</time><name>PT4983</name></trkpt>
<trkpt lat="54.441253" lon="-3.260690"><ele>289</ele><time>2022-03-29T13:12:16Z</time><name>PT4984</name></trkpt>
<trkpt lat="54.441263" lon="-3.260700"><ele>288</ele><time>2022-03-29T13:12:18Z</time><name>PT4985</name></trkpt>
<trkpt lat="54.441273" lon="-3.260706"><ele>289</ele><time>2022-03-29T13:12:19Z</time><name>PT4986</name></trkpt>
<trkpt lat="54.441280" lon="-3.260718"><ele>289</ele><time>2022-03-29T13:12:19Z</time><name>PT4987</name></trkpt>
<trkpt lat="54.441287" lon="-3.260725"><ele>288</ele><time>2022-03-29T13:12:21Z</time><name>PT4988</name></trkpt>
<trkpt lat="54.441298" lon="-3.260727"><ele>288</ele><time>2022-03-29T13:12:22Z</time><name>PT4989</name></trkpt>
<trkpt lat="54.441306" lon="-3.260730"><ele>287</ele><time>2022-03-29T13:12:22Z</time><name>PT4990</name></trkpt>
<trkpt lat="54.441318" lon="-3.260738"><ele>287</ele><time>2022-03-29T13:12:24Z</time><name>PT4991</name></trkpt>
<trkpt lat="54.441327" lon="-3.260748"><ele>286</ele><time>2022-03-29T13:12:25Z</time><name>PT4992</name></trkpt>
<trkpt lat="54.441337" lon="-3.260756"><ele>287</ele><time>2022-03-29T13:12:25Z</time><name>PT4993</name></trkpt>
<trkpt lat="54.441344" lon="-3.260759"><ele>287</ele><time>2022-03-29T13:12:27Z</time><name>PT4994</name></trkpt>
<trkpt lat="54.441354" lon="-3.260763"><ele>287</ele><time>2022-03-29T13:12:28Z</time><name>PT4995</name></trkpt>
<trkpt lat="54.441365" lon="-3.260767"><ele>286</ele><time>2022-03-29T13:12:28Z</time><name>PT4996</name></trkpt>
<trkpt lat="54.441375" lon="-3.260773"><ele>287</ele><time>2022-03-29T13:12:30Z</time><name>PT4997</name></trkpt>
<trkpt lat="54.441382" lon="-3.260777"><ele>287</ele><time>2022-03-29T13:12:31Z</time><name>PT4998</name></trkpt>
<trkpt lat="54.441390" lon="-3.260780"><ele>286</ele><time>2022-03-29T13:12:31Z</time><name>PT4999</name></trkpt>
<trkpt lat="54.441399" lon="-3.260780"><ele>286</ele><time>2022-03-29T13:12:33Z</time><name>PT5000</name></trkpt>
<trkpt lat="54.441406" lon="-3.260780"><ele>285</ele><time>2022-03-29T13:12:34Z</time><name>PT5001</name></trkpt>
<trkpt lat="54.441448" lon="-3.260787"><ele>286</ele><time>2022-03-29T13:12:37Z</time><name>PT5002</name></trkpt>
<trkpt lat="54.441475" lon="-3.260789"><ele>286</ele><time>2022-03-29T13:12:40Z</time><name>PT5003</name></trkpt>
<trkpt lat="54.441511" lon="-3.260793"><ele>285</ele><time>2022-03-29T13:12:45Z</time><name>PT5004</name></trkpt>
<trkpt lat="54.441543" lon="-3.260818"><ele>284</ele><time>2022-03-29T13:12:49Z</time><name>PT5005</name></trkpt>
<trkpt lat="54.441568" lon="-3.260851"><ele>283</ele><time>2022-03-29T13:12:52Z</time><name>PT5006</name></trkpt>
<trkpt lat="54.441602" lon="-3.260880"><ele>283</ele><time>2022-03-29T13:12:55Z</time><name>PT5007</name></trkpt>
<trkpt lat="54.441624" lon="-3.260922"><ele>284</ele><time>2022-03-29T13:12:58Z</time><name>PT5008</name></trkpt>
<trkpt lat="54.441661" lon="-3.260968"><ele>283</ele><time>2022-03-29T13:13:03Z</time><name>PT5009</name></trkpt>
<trkpt lat="54.441689" lon="-3.261002"><ele>283</ele><time>2022-03-29T13:13:07Z</time><name>PT5010</name></trkpt>
<trkpt lat="54.441691" lon="-3.261005"><ele>283</ele><time>2022-03-29T13:13:10Z</time><name>PT5011</name></trkpt>
<trkpt lat="54.441713" lon="-3.261045"><ele>282</ele><time>2022-03-29T13:13:19Z</time><name>PT5012</name></trkpt>
<trkpt lat="54.441743" lon="-3.261095"><ele>282</ele><time>2022-03-29T13:13:24Z</time><name>PT5013</name></trkpt>
<trkpt lat="54.441786" lon="-3.261135"><ele>281</ele><time>2022-03-29T13:13:28Z</time><name>PT5014</name></trkpt>
<trkpt lat="54.441811" lon="-3.261166"><ele>282</ele><time>2022-03-29T13:13:31Z</time><name>PT5015</name></trkpt>
<trkpt lat="54.441837" lon="-3.261203"><ele>281</ele><time>2022-03-29T13:13:34Z</time><name>PT5016</name></trkpt>
<trkpt lat="54.441874" lon="-3.261233"><ele>281</ele><time>2022-03-29T13:13:37Z</time><name>PT5017</name></trkpt>
<trkpt lat="54.441897" lon="-3.261257"><ele>281</ele><time>2022-03-29T13:13:40Z</time><name>PT5018</name></trkpt>
<trkpt lat="54.441944" lon="-3.261280"><ele>282</ele><time>2022-03-29T13:13:45Z</time><name>PT5019</name></trkpt>
<trkpt lat="54.441966" lon="-3.261309"><ele>281</ele><time>2022-03-29T13:13:48Z</time><name>PT5020</name></trkpt>
<trkpt lat="54.441995" lon="-3.261357"><ele>282</ele><time>2022-03-29T13:13:52Z</time><name>PT5021</name></trkpt>
<trkpt lat="54.442012" lon="-3.261395"><ele>281</ele><time>2022-03-29T13:13:55Z</time><name>PT5022</name></trkpt>
<trkpt lat="54.442048" lon="-3.261408"><ele>281</ele><time>2022-03-29T13:13:58Z</time><name>PT5023</name></trkpt>
<trkpt lat="54.442080" lon="-3.261403"><ele>280</ele><time>2022-03-29T13:14:01Z</time><name>PT5024</name></trkpt>
<trkpt lat="54.442122" lon="-3.261422"><ele>279</ele><time>2022-03-29T13:14:06Z</time><name>PT5025</name></trkpt>
<trkpt lat="54.442150" lon="-3.261441"><ele>278</ele><time>2022-03-29T13:14:09Z</time><name>PT5026</name></trkpt>
<trkpt lat="54.442184" lon="-3.261464"><ele>278</ele><time>2022-03-29T13:14:13Z</time><name>PT5027</name></trkpt>
<trkpt lat="54.442203" lon="-3.261484"><ele>278</ele><time>2022-03-29T13:14:16Z</time><name>PT5028</name></trkpt>
<trkpt lat="54.442231" lon="-3.261485"><ele>278</ele><time>2022-03-29T13:14:19Z</time><name>PT5029</name></trkpt>
<trkpt lat="54.442274" lon="-3.261489"><ele>277</ele><time>2022-03-29T13:14:22Z</time><name>PT5030</name></trkpt>
<trkpt lat="54.442298" lon="-3.261503"><ele>277</ele><time>2022-03-29T13:14:25Z</time><name>PT5031</name></trkpt>
<trkpt lat="54.442330" lon="-3.261513"><ele>277</ele><time>2022-03-29T13:14:30Z</time><name>PT5032</name></trkpt>
<trkpt lat="54.442358" lon="-3.261535"><ele>276</ele><time>2022-03-29T13:14:33Z</time><name>PT5033</name></trkpt>
<trkpt lat="54.442380" lon="-3.261564"><ele>276</ele><time>2022-03-29T13:14:36Z</time><name>PT5034</name></trkpt>
<trkpt lat="54.442409" lon="-3.261597"><ele>276</ele><time>2022-03-29T13:14:40Z</time><name>PT5035</name></trkpt>
<trkpt lat="54.442446" lon="-3.261614"><ele>276</ele><time>2022-03-29T13:14:43Z</time><name>PT5036</name></trkpt>
<trkpt lat="54.442488" lon="-3.261623"><ele>276</ele><time>2022-03-29T13:14:48Z</time><name>PT5037</name></trkpt>
<trkpt lat="54.442532" lon="-3.261650"><ele>275</ele><time>2022-03-29T13:14:52Z</time><name>PT5038</name></trkpt>
<trkpt lat="54.442568" lon="-3.261668"><ele>275</ele><time>2022-03-29T13:14:55Z</time><name>PT5039</name></trkpt>
<trkpt lat="54.442596" lon="-3.261659"><ele>275</ele><time>2022-03-29T13:14:58Z</time><name>PT5040</name></trkpt>
<trkpt lat="54.442624" lon="-3.261672"><ele>274</ele><time>2022-03-29T13:15:03Z</time><name>PT5041</name></trkpt>
<trkpt lat="54.442651" lon="-3.261699"><ele>274</ele><time>2022-03-29T13:15:06Z</time><name>PT5042</name></trkpt>
<trkpt lat="54.442679" lon="-3.261709"><ele>274</ele><time>2022-03-29T13:15:10Z</time><name>PT5043</name></trkpt>
<trkpt lat="54.442720" lon="-3.261708"><ele>273</ele><time>2022-03-29T13:15:13Z</time><name>PT5044</name></trkpt>
<trkpt lat="54.442745" lon="-3.261740"><ele>273</ele><time>2022-03-29T13:15:16Z</time><name>PT5045</name></trkpt>
<trkpt lat="54.442785" lon="-3.261745"><ele>272</ele><time>2022-03-29T13:15:21Z</time><name>PT5046</name></trkpt>
<trkpt lat="54.442809" lon="-3.261757"><ele>272</ele><time>2022-03-29T13:15:25Z</time><name>PT5047</name></trkpt>
<trkpt lat="54.442833" lon="-3.261766"><ele>272</ele><time>2022-03-29T13:15:28Z</time><name>PT5048</name></trkpt>
<trkpt lat="54.442856" lon="-3.261795"><ele>272</ele><time>2022-03-29T13:15:31Z</time><name>PT5049</name></trkpt>
<trkpt lat="54.442886" lon="-3.261819"><ele>272</ele><time>2022-03-29T13:15:34Z</time><name>PT5050</name></trkpt>
<trkpt lat="54.442911" lon="-3.261834"><ele>272</ele><time>2022-03-29T13:15:37Z</time><name>PT5051</name></trkpt>
<trkpt lat="54.442936" lon="-3.261853"><ele>271</ele><time>2022-03-29T13:15:40Z</time><name>PT5052</name></trkpt>
<trkpt lat="54.442958" lon="-3.261886"><ele>271</ele><time>2022-03-29T13:15:45Z</time><name>PT5053</name></trkpt>
<trkpt lat="54.442979" lon="-3.261909"><ele>271</ele><time>2022-03-29T13:15:48Z</time><name>PT5054</name></trkpt>
<trkpt lat="54.443005" lon="-3.261954"><ele>270</ele><time>2022-03-29T13:15:52Z</time><name>PT5055</name></trkpt>
<trkpt lat="54.443030" lon="-3.262000"><ele>270</ele><time>2022-03-29T13:15:55Z</time><name>PT5056</name></trkpt>
<trkpt lat="54.443064" lon="-3.262023"><ele>269</ele><time>2022-03-29T13:16:00Z</time><name>PT5057</name></trkpt>
<trkpt lat="54.443092" lon="-3.262055"><ele>269</ele><time>2022-03-29T13:16:04Z</time><name>PT5058</name></trkpt>
<trkpt lat="54.443121" lon="-3.262064"><ele>269</ele><time>2022-03-29T13:16:07Z</time><name>PT5059</name></trkpt>
<trkpt lat="54.443152" lon="-3.262097"><ele>268</ele><time>2022-03-29T13:16:10Z</time><name>PT5060</name></trkpt>
<trkpt lat="54.443176" lon="-3.262123"><ele>268</ele><time>2022-03-29T13:16:13Z</time><name>PT5061</name></trkpt>
<trkpt lat="54.443208" lon="-3.262159"><ele>266</ele><time>2022-03-29T13:16:18Z</time><name>PT5062</name></trkpt>
<trkpt lat="54.443219" lon="-3.262194"><ele>266</ele><time>2022-03-29T13:16:21Z</time><name>PT5063</name></trkpt>
<trkpt lat="54.443243" lon="-3.262246"><ele>265</ele><time>2022-03-29T13:16:25Z</time><name>PT5064</name></trkpt>
<trkpt lat="54.443245" lon="-3.262305"><ele>265</ele><time>2022-03-29T13:16:28Z</time><name>PT5065</name></trkpt>
<trkpt lat="54.443250" lon="-3.262360"><ele>265</ele><time>2022-03-29T13:16:31Z</time><name>PT5066</name></trkpt>
<trkpt lat="54.443246" lon="-3.262415"><ele>264</ele><time>2022-03-29T13:16:36Z</time><name>PT5067</name></trkpt>
<trkpt lat="54.443248" lon="-3.262489"><ele>264</ele><time>2022-03-29T13:16:40Z</time><name>PT5068</name></trkpt>
<trkpt lat="54.443250" lon="-3.262532"><ele>264</ele><time>2022-03-29T13:16:43Z</time><name>PT5069</name></trkpt>
<trkpt lat="54.443252" lon="-3.262577"><ele>264</ele><time>2022-03-29T13:16:46Z</time><name>PT5070</name></trkpt>
<trkpt lat="54.443276" lon="-3.262623"><ele>264</ele><time>2022-03-29T13:16:51Z</time><name>PT5071</name></trkpt>
<trkpt lat="54.443300" lon="-3.262665"><ele>263</ele><time>2022-03-29T13:16:55Z</time><name>PT5072</name></trkpt>
<trkpt lat="54.443324" lon="-3.262689"><ele>262</ele><time>2022-03-29T13:16:58Z</time><name>PT5073</name></trkpt>
<trkpt lat="54.443352" lon="-3.262733"><ele>261</ele><time>2022-03-29T13:17:03Z</time><name>PT5074</name></trkpt>
<trkpt lat="54.443360" lon="-3.262792"><ele>260</ele><time>2022-03-29T13:17:07Z</time><name>PT5075</name></trkpt>
<trkpt lat="54.443366" lon="-3.262840"><ele>260</ele><time>2022-03-29T13:17:10Z</time><name>PT5076</name></trkpt>
<trkpt lat="54.443372" lon="-3.262869"><ele>259</ele><time>2022-03-29T13:17:13Z</time><name>PT5077</name></trkpt>
<trkpt lat="54.443396" lon="-3.262907"><ele>259</ele><time>2022-03-29T13:17:16Z</time><name>PT5078</name></trkpt>
<trkpt lat="54.443414" lon="-3.262935"><ele>258</ele><time>2022-03-29T13:17:21Z</time><name>PT5079</name></trkpt>
<trkpt lat="54.443437" lon="-3.262945"><ele>257</ele><time>2022-03-29T13:17:24Z</time><name>PT5080</name></trkpt>
<trkpt lat="54.443451" lon="-3.262961"><ele>256</ele><time>2022-03-29T13:17:27Z</time><name>PT5081</name></trkpt>
<trkpt lat="54.443487" lon="-3.262940"><ele>256</ele><time>2022-03-29T13:17:31Z</time><name>PT5082</name></trkpt>
<trkpt lat="54.443529" lon="-3.262929"><ele>256</ele><time>2022-03-29T13:17:34Z</time><name>PT5083</name></trkpt>
<trkpt lat="54.443561" lon="-3.262940"><ele>255</ele><time>2022-03-29T13:17:39Z</time><name>PT5084</name></trkpt>
<trkpt lat="54.443581" lon="-3.262961"><ele>255</ele><time>2022-03-29T13:17:42Z</time><name>PT5085</name></trkpt>
<trkpt lat="54.443606" lon="-3.262980"><ele>253</ele><time>2022-03-29T13:17:46Z</time><name>PT5086</name></trkpt>
<trkpt lat="54.443634" lon="-3.262981"><ele>253</ele><time>2022-03-29T13:17:49Z</time><name>PT5087</name></trkpt>
<trkpt lat="54.443675" lon="-3.262961"><ele>251</ele><time>2022-03-29T13:17:54Z</time><name>PT5088</name></trkpt>
<trkpt lat="54.443708" lon="-3.262942"><ele>252</ele><time>2022-03-29T13:17:58Z</time><name>PT5089</name></trkpt>
<trkpt lat="54.443730" lon="-3.262918"><ele>253</ele><time>2022-03-29T13:18:01Z</time><name>PT5090</name></trkpt>
<trkpt lat="54.443751" lon="-3.262883"><ele>252</ele><time>2022-03-29T13:18:04Z</time><name>PT5091</name></trkpt>
<trkpt lat="54.443772" lon="-3.262843"><ele>252</ele><time>2022-03-29T13:18:09Z</time><name>PT5092</name></trkpt>
<trkpt lat="54.443793" lon="-3.262831"><ele>252</ele><time>2022-03-29T13:18:12Z</time><name>PT5093</name></trkpt>
<trkpt lat="54.443810" lon="-3.262836"><ele>251</ele><time>2022-03-29T13:18:15Z</time><name>PT5094</name></trkpt>
<trkpt lat="54.443832" lon="-3.262863"><ele>250</ele><time>2022-03-29T13:18:19Z</time><name>PT5095</name></trkpt>
<trkpt lat="54.443861" lon="-3.262851"><ele>249</ele><time>2022-03-29T13:18:22Z</time><name>PT5096</name></trkpt>
<trkpt lat="54.443893" lon="-3.262839"><ele>248</ele><time>2022-03-29T13:18:25Z</time><name>PT5097</name></trkpt>
<trkpt lat="54.443912" lon="-3.262830"><ele>248</ele><time>2022-03-29T13:18:28Z</time><name>PT5098</name></trkpt>
<trkpt lat="54.443944" lon="-3.262804"><ele>247</ele><time>2022-03-29T13:18:33Z</time><name>PT5099</name></trkpt>
<trkpt lat="54.443970" lon="-3.262775"><ele>247</ele><time>2022-03-29T13:18:36Z</time><name>PT5100</name></trkpt>
<trkpt lat="54.444003" lon="-3.262759"><ele>248</ele><time>2022-03-29T13:18:40Z</time><name>PT5101</name></trkpt>
<trkpt lat="54.444033" lon="-3.262751"><ele>248</ele><time>2022-03-29T13:18:43Z</time><name>PT5102</name></trkpt>
<trkpt lat="54.444069" lon="-3.262736"><ele>247</ele><time>2022-03-29T13:18:46Z</time><name>PT5103</name></trkpt>
<trkpt lat="54.444110" lon="-3.262721"><ele>246</ele><time>2022-03-29T13:18:51Z</time><name>PT5104</name></trkpt>
<trkpt lat="54.444155" lon="-3.262733"><ele>245</ele><time>2022-03-29T13:18:55Z</time><name>PT5105</name></trkpt>
<trkpt lat="54.444189" lon="-3.262732"><ele>245</ele><time>2022-03-29T13:18:58Z</time><name>PT5106</name></trkpt>
<trkpt lat="54.444227" lon="-3.262733"><ele>245</ele><time>2022-03-29T13:19:01Z</time><name>PT5107</name></trkpt>
<trkpt lat="54.444273" lon="-3.262734"><ele>244</ele><time>2022-03-29T13:19:06Z</time><name>PT5108</name></trkpt>
<trkpt lat="54.444302" lon="-3.262716"><ele>244</ele><time>2022-03-29T13:19:09Z</time><name>PT5109</name></trkpt>
<trkpt lat="54.444336" lon="-3.262702"><ele>243</ele><time>2022-03-29T13:19:13Z</time><name>PT5110</name></trkpt>
<trkpt lat="54.444373" lon="-3.262693"><ele>243</ele><time>2022-03-29T13:19:16Z</time><name>PT5111</name></trkpt>
<trkpt lat="54.444403" lon="-3.262686"><ele>243</ele><time>2022-03-29T13:19:19Z</time><name>PT5112</name></trkpt>
<trkpt lat="54.444403" lon="-3.262680"><ele>243</ele><time>2022-03-29T13:19:24Z</time><name>PT5113</name></trkpt>
<trkpt lat="54.444414" lon="-3.262676"><ele>244</ele><time>2022-03-29T13:19:30Z</time><name>PT5114</name></trkpt>
<trkpt lat="54.444440" lon="-3.262681"><ele>243</ele><time>2022-03-29T13:19:34Z</time><name>PT5115</name></trkpt>
<trkpt lat="54.444467" lon="-3.262693"><ele>243</ele><time>2022-03-29T13:19:37Z</time><name>PT5116</name></trkpt>
<trkpt lat="54.444491" lon="-3.262693"><ele>242</ele><time>2022-03-29T13:19:40Z</time><name>PT5117</name></trkpt>
<trkpt lat="54.444520" lon="-3.262725"><ele>241</ele><time>2022-03-29T13:19:45Z</time><name>PT5118</name></trkpt>
<trkpt lat="54.444550" lon="-3.262724"><ele>241</ele><time>2022-03-29T13:19:48Z</time><name>PT5119</name></trkpt>
<trkpt lat="54.444580" lon="-3.262733"><ele>240</ele><time>2022-03-29T13:19:51Z</time><name>PT5120</name></trkpt>
<trkpt lat="54.444605" lon="-3.262734"><ele>239</ele><time>2022-03-29T13:19:54Z</time><name>PT5121</name></trkpt>
<trkpt lat="54.444649" lon="-3.262728"><ele>239</ele><time>2022-03-29T13:19:58Z</time><name>PT5122</name></trkpt>
<trkpt lat="54.444677" lon="-3.262730"><ele>238</ele><time>2022-03-29T13:20:01Z</time><name>PT5123</name></trkpt>
<trkpt lat="54.444714" lon="-3.262719"><ele>238</ele><time>2022-03-29T13:20:04Z</time><name>PT5124</name></trkpt>
<trkpt lat="54.444741" lon="-3.262707"><ele>238</ele><time>2022-03-29T13:20:07Z</time><name>PT5125</name></trkpt>
<trkpt lat="54.444774" lon="-3.262689"><ele>237</ele><time>2022-03-29T13:20:12Z</time><name>PT5126</name></trkpt>
<trkpt lat="54.444806" lon="-3.262687"><ele>236</ele><time>2022-03-29T13:20:16Z</time><name>PT5127</name></trkpt>
<trkpt lat="54.444840" lon="-3.262690"><ele>235</ele><time>2022-03-29T13:20:19Z</time><name>PT5128</name></trkpt>
<trkpt lat="54.444872" lon="-3.262684"><ele>233</ele><time>2022-03-29T13:20:24Z</time><name>PT5129</name></trkpt>
<trkpt lat="54.444911" lon="-3.262687"><ele>232</ele><time>2022-03-29T13:20:28Z</time><name>PT5130</name></trkpt>
<trkpt lat="54.444946" lon="-3.262690"><ele>231</ele><time>2022-03-29T13:20:31Z</time><name>PT5131</name></trkpt>
<trkpt lat="54.444976" lon="-3.262689"><ele>231</ele><time>2022-03-29T13:20:34Z</time><name>PT5132</name></trkpt>
<trkpt lat="54.444998" lon="-3.262687"><ele>230</ele><time>2022-03-29T13:20:37Z</time><name>PT5133</name></trkpt>
<trkpt lat="54.445011" lon="-3.262694"><ele>230</ele><time>2022-03-29T13:20:40Z</time><name>PT5134</name></trkpt>
<trkpt lat="54.445031" lon="-3.262695"><ele>230</ele><time>2022-03-29T13:20:45Z</time><name>PT5135</name></trkpt>
<trkpt lat="54.445041" lon="-3.262702"><ele>229</ele><time>2022-03-29T13:20:48Z</time><name>PT5136</name></trkpt>
<trkpt lat="54.445057" lon="-3.262719"><ele>229</ele><time>2022-03-29T13:20:52Z</time><name>PT5137</name></trkpt>
<trkpt lat="54.445071" lon="-3.262754"><ele>228</ele><time>2022-03-29T13:20:55Z</time><name>PT5138</name></trkpt>
<trkpt lat="54.445079" lon="-3.262779"><ele>226</ele><time>2022-03-29T13:21:00Z</time><name>PT5139</name></trkpt>
<trkpt lat="54.445094" lon="-3.262799"><ele>225</ele><time>2022-03-29T13:21:03Z</time><name>PT5140</name></trkpt>
<trkpt lat="54.445095" lon="-3.262806"><ele>225</ele><time>2022-03-29T13:21:06Z</time><name>PT5141</name></trkpt>
<trkpt lat="54.445090" lon="-3.262812"><ele>225</ele><time>2022-03-29T13:21:10Z</time><name>PT5142</name></trkpt>
<trkpt lat="54.445102" lon="-3.262817"><ele>224</ele><time>2022-03-29T13:21:16Z</time><name>PT5143</name></trkpt>
<trkpt lat="54.445124" lon="-3.262820"><ele>224</ele><time>2022-03-29T13:21:19Z</time><name>PT5144</name></trkpt>
<trkpt lat="54.445155" lon="-3.262804"><ele>223</ele><time>2022-03-29T13:21:24Z</time><name>PT5145</name></trkpt>
<trkpt lat="54.445176" lon="-3.262780"><ele>222</ele><time>2022-03-29T13:21:27Z</time><name>PT5146</name></trkpt>
<trkpt lat="54.445196" lon="-3.262778"><ele>222</ele><time>2022-03-29T13:21:30Z</time><name>PT5147</name></trkpt>
<trkpt lat="54.445225" lon="-3.262756"><ele>222</ele><time>2022-03-29T13:21:34Z</time><name>PT5148</name></trkpt>
<trkpt lat="54.445244" lon="-3.262728"><ele>222</ele><time>2022-03-29T13:21:37Z</time><name>PT5149</name></trkpt>
<trkpt lat="54.445254" lon="-3.262723"><ele>222</ele><time>2022-03-29T13:21:40Z</time><name>PT5150</name></trkpt>
<trkpt lat="54.445279" lon="-3.262693"><ele>222</ele><time>2022-03-29T13:21:43Z</time><name>PT5151</name></trkpt>
<trkpt lat="54.445307" lon="-3.262664"><ele>222</ele><time>2022-03-29T13:21:48Z</time><name>PT5152</name></trkpt>
<trkpt lat="54.445320" lon="-3.262652"><ele>221</ele><time>2022-03-29T13:21:51Z</time><name>PT5153</name></trkpt>
<trkpt lat="54.445341" lon="-3.262612"><ele>221</ele><time>2022-03-29T13:21:54Z</time><name>PT5154</name></trkpt>
<trkpt lat="54.445368" lon="-3.262595"><ele>220</ele><time>2022-03-29T13:21:58Z</time><name>PT5155</name></trkpt>
<trkpt lat="54.445392" lon="-3.262576"><ele>219</ele><time>2022-03-29T13:22:01Z</time><name>PT5156</name></trkpt>
<trkpt lat="54.445424" lon="-3.262564"><ele>219</ele><time>2022-03-29T13:22:04Z</time><name>PT5157</name></trkpt>
<trkpt lat="54.445455" lon="-3.262532"><ele>218</ele><time>2022-03-29T13:22:09Z</time><name>PT5158</name></trkpt>
<trkpt lat="54.445473" lon="-3.262520"><ele>217</ele><time>2022-03-29T13:22:13Z</time><name>PT5159</name></trkpt>
<trkpt lat="54.445497" lon="-3.262504"><ele>217</ele><time>2022-03-29T13:22:16Z</time><name>PT5160</name></trkpt>
<trkpt lat="54.445516" lon="-3.262461"><ele>216</ele><time>2022-03-29T13:22:19Z</time><name>PT5161</name></trkpt>
<trkpt lat="54.445545" lon="-3.262431"><ele>216</ele><time>2022-03-29T13:22:22Z</time><name>PT5162</name></trkpt>
<trkpt lat="54.445563" lon="-3.262415"><ele>215</ele><time>2022-03-29T13:22:25Z</time><name>PT5163</name></trkpt>
<trkpt lat="54.445571" lon="-3.262414"><ele>215</ele><time>2022-03-29T13:22:28Z</time><name>PT5164</name></trkpt>
<trkpt lat="54.445595" lon="-3.262374"><ele>215</ele><time>2022-03-29T13:22:33Z</time><name>PT5165</name></trkpt>
<trkpt lat="54.445617" lon="-3.262362"><ele>215</ele><time>2022-03-29T13:22:36Z</time><name>PT5166</name></trkpt>
<trkpt lat="54.445637" lon="-3.262350"><ele>216</ele><time>2022-03-29T13:22:40Z</time><name>PT5167</name></trkpt>
<trkpt lat="54.445653" lon="-3.262353"><ele>216</ele><time>2022-03-29T13:22:43Z</time><name>PT5168</name></trkpt>
<trkpt lat="54.445683" lon="-3.262339"><ele>215</ele><time>2022-03-29T13:22:46Z</time><name>PT5169</name></trkpt>
<trkpt lat="54.445713" lon="-3.262322"><ele>215</ele><time>2022-03-29T13:22:51Z</time><name>PT5170</name></trkpt>
<trkpt lat="54.445748" lon="-3.262312"><ele>216</ele><time>2022-03-29T13:22:55Z</time><name>PT5171</name></trkpt>
<trkpt lat="54.445784" lon="-3.262301"><ele>215</ele><time>2022-03-29T13:22:58Z</time><name>PT5172</name></trkpt>
<trkpt lat="54.445820" lon="-3.262328"><ele>215</ele><time>2022-03-29T13:23:03Z</time><name>PT5173</name></trkpt>
<trkpt lat="54.445837" lon="-3.262341"><ele>214</ele><time>2022-03-29T13:23:06Z</time><name>PT5174</name></trkpt>
<trkpt lat="54.445857" lon="-3.262353"><ele>215</ele><time>2022-03-29T13:23:09Z</time><name>PT5175</name></trkpt>
<trkpt lat="54.445894" lon="-3.262352"><ele>215</ele><time>2022-03-29T13:23:13Z</time><name>PT5176</name></trkpt>
<trkpt lat="54.445933" lon="-3.262343"><ele>214</ele><time>2022-03-29T13:23:16Z</time><name>PT5177</name></trkpt>
<trkpt lat="54.445962" lon="-3.262329"><ele>214</ele><time>2022-03-29T13:23:21Z</time><name>PT5178</name></trkpt>
<trkpt lat="54.445987" lon="-3.262317"><ele>214</ele><time>2022-03-29T13:23:25Z</time><name>PT5179</name></trkpt>
<trkpt lat="54.446014" lon="-3.262295"><ele>213</ele><time>2022-03-29T13:23:28Z</time><name>PT5180</name></trkpt>
<trkpt lat="54.446048" lon="-3.262283"><ele>213</ele><time>2022-03-29T13:23:33Z</time><name>PT5181</name></trkpt>
<trkpt lat="54.446072" lon="-3.262281"><ele>214</ele><time>2022-03-29T13:23:36Z</time><name>PT5182</name></trkpt>
<trkpt lat="54.446106" lon="-3.262264"><ele>213</ele><time>2022-03-29T13:23:40Z</time><name>PT5183</name></trkpt>
<trkpt lat="54.446140" lon="-3.262253"><ele>213</ele><time>2022-03-29T13:23:43Z</time><name>PT5184</name></trkpt>
<trkpt lat="54.446168" lon="-3.262243"><ele>212</ele><time>2022-03-29T13:23:46Z</time><name>PT5185</name></trkpt>
<trkpt lat="54.446201" lon="-3.262199"><ele>211</ele><time>2022-03-29T13:23:49Z</time><name>PT5186</name></trkpt>
<trkpt lat="54.446234" lon="-3.262173"><ele>211</ele><time>2022-03-29T13:23:54Z</time><name>PT5187</name></trkpt>
<trkpt lat="54.446257" lon="-3.262147"><ele>210</ele><time>2022-03-29T13:23:57Z</time><name>PT5188</name></trkpt>
<trkpt lat="54.446275" lon="-3.262109"><ele>210</ele><time>2022-03-29T13:24:00Z</time><name>PT5189</name></trkpt>
<trkpt lat="54.446293" lon="-3.262087"><ele>209</ele><time>2022-03-29T13:24:03Z</time><name>PT5190</name></trkpt>
<trkpt lat="54.446313" lon="-3.262066"><ele>209</ele><time>2022-03-29T13:24:06Z</time><name>PT5191</name></trkpt>
<trkpt lat="54.446330" lon="-3.262055"><ele>207</ele><time>2022-03-29T13:24:09Z</time><name>PT5192</name></trkpt>
<trkpt lat="54.446358" lon="-3.262021"><ele>207</ele><time>2022-03-29T13:24:12Z</time><name>PT5193</name></trkpt>
<trkpt lat="54.446392" lon="-3.261998"><ele>206</ele><time>2022-03-29T13:24:16Z</time><name>PT5194</name></trkpt>
<trkpt lat="54.446425" lon="-3.261983"><ele>206</ele><time>2022-03-29T13:24:19Z</time><name>PT5195</name></trkpt>
<trkpt lat="54.446460" lon="-3.261971"><ele>206</ele><time>2022-03-29T13:24:24Z</time><name>PT5196</name></trkpt>
<trkpt lat="54.446483" lon="-3.261963"><ele>206</ele><time>2022-03-29T13:24:28Z</time><name>PT5197</name></trkpt>
<trkpt lat="54.446505" lon="-3.261948"><ele>205</ele><time>2022-03-29T13:24:31Z</time><name>PT5198</name></trkpt>
<trkpt lat="54.446532" lon="-3.261931"><ele>205</ele><time>2022-03-29T13:24:34Z</time><name>PT5199</name></trkpt>
<trkpt lat="54.446554" lon="-3.261921"><ele>204</ele><time>2022-03-29T13:24:37Z</time><name>PT5200</name></trkpt>
<trkpt lat="54.446582" lon="-3.261902"><ele>203</ele><time>2022-03-29T13:24:40Z</time><name>PT5201</name></trkpt>
<trkpt lat="54.446606" lon="-3.261890"><ele>202</ele><time>2022-03-29T13:24:43Z</time><name>PT5202</name></trkpt>
<trkpt lat="54.446639" lon="-3.261865"><ele>202</ele><time>2022-03-29T13:24:48Z</time><name>PT5203</name></trkpt>
<trkpt lat="54.446666" lon="-3.261841"><ele>201</ele><time>2022-03-29T13:24:51Z</time><name>PT5204</name></trkpt>
<trkpt lat="54.446693" lon="-3.261799"><ele>200</ele><time>2022-03-29T13:24:55Z</time><name>PT5205</name></trkpt>
<trkpt lat="54.446713" lon="-3.261754"><ele>200</ele><time>2022-03-29T13:24:58Z</time><name>PT5206</name></trkpt>
<trkpt lat="54.446743" lon="-3.261699"><ele>200</ele><time>2022-03-29T13:25:01Z</time><name>PT5207</name></trkpt>
<trkpt lat="54.446781" lon="-3.261650"><ele>200</ele><time>2022-03-29T13:25:06Z</time><name>PT5208</name></trkpt>
<trkpt lat="54.446803" lon="-3.261624"><ele>199</ele><time>2022-03-29T13:25:09Z</time><name>PT5209</name></trkpt>
<trkpt lat="54.446830" lon="-3.261564"><ele>199</ele><time>2022-03-29T13:25:13Z</time><name>PT5210</name></trkpt>
<trkpt lat="54.446855" lon="-3.261539"><ele>199</ele><time>2022-03-29T13:25:16Z</time><name>PT5211</name></trkpt>
<trkpt lat="54.446885" lon="-3.261524"><ele>199</ele><time>2022-03-29T13:25:19Z</time><name>PT5212</name></trkpt>
<trkpt lat="54.446903" lon="-3.261514"><ele>199</ele><time>2022-03-29T13:25:24Z</time><name>PT5213</name></trkpt>
<trkpt lat="54.446926" lon="-3.261502"><ele>199</ele><time>2022-03-29T13:25:27Z</time><name>PT5214</name></trkpt>
<trkpt lat="54.446961" lon="-3.261480"><ele>199</ele><time>2022-03-29T13:25:31Z</time><name>PT5215</name></trkpt>
<trkpt lat="54.446991" lon="-3.261447"><ele>199</ele><time>2022-03-29T13:25:34Z</time><name>PT5216</name></trkpt>
<trkpt lat="54.447015" lon="-3.261423"><ele>198</ele><time>2022-03-29T13:25:37Z</time><name>PT5217</name></trkpt>
<trkpt lat="54.447042" lon="-3.261384"><ele>197</ele><time>2022-03-29T13:25:42Z</time><name>PT5218</name></trkpt>
<trkpt lat="54.447057" lon="-3.261369"><ele>197</ele><time>2022-03-29T13:25:45Z</time><name>PT5219</name></trkpt>
<trkpt lat="54.447064" lon="-3.261370"><ele>197</ele><time>2022-03-29T13:25:48Z</time><name>PT5220</name></trkpt>
<trkpt lat="54.447061" lon="-3.261369"><ele>198</ele><time>2022-03-29T13:25:52Z</time><name>PT5221</name></trkpt>
<trkpt lat="54.447070" lon="-3.261356"><ele>197</ele><time>2022-03-29T13:26:03Z</time><name>PT5222</name></trkpt>
<trkpt lat="54.447103" lon="-3.261333"><ele>197</ele><time>2022-03-29T13:26:07Z</time><name>PT5223</name></trkpt>
<trkpt lat="54.447127" lon="-3.261294"><ele>196</ele><time>2022-03-29T13:26:10Z</time><name>PT5224</name></trkpt>
<trkpt lat="54.447149" lon="-3.261247"><ele>196</ele><time>2022-03-29T13:26:15Z</time><name>PT5225</name></trkpt>
<trkpt lat="54.447170" lon="-3.261219"><ele>195</ele><time>2022-03-29T13:26:18Z</time><name>PT5226</name></trkpt>
<trkpt lat="54.447205" lon="-3.261187"><ele>195</ele><time>2022-03-29T13:26:22Z</time><name>PT5227</name></trkpt>
<trkpt lat="54.447236" lon="-3.261152"><ele>195</ele><time>2022-03-29T13:26:25Z</time><name>PT5228</name></trkpt>
<trkpt lat="54.447265" lon="-3.261116"><ele>194</ele><time>2022-03-29T13:26:30Z</time><name>PT5229</name></trkpt>
<trkpt lat="54.447310" lon="-3.261072"><ele>194</ele><time>2022-03-29T13:26:34Z</time><name>PT5230</name></trkpt>
<trkpt lat="54.447335" lon="-3.261033"><ele>193</ele><time>2022-03-29T13:26:37Z</time><name>PT5231</name></trkpt>
<trkpt lat="54.447356" lon="-3.260997"><ele>193</ele><time>2022-03-29T13:26:40Z</time><name>PT5232</name></trkpt>
<trkpt lat="54.447377" lon="-3.260957"><ele>193</ele><time>2022-03-29T13:26:43Z</time><name>PT5233</name></trkpt>
<trkpt lat="54.447402" lon="-3.260905"><ele>192</ele><time>2022-03-29T13:26:46Z</time><name>PT5234</name></trkpt>
<trkpt lat="54.447418" lon="-3.260852"><ele>191</ele><time>2022-03-29T13:26:51Z</time><name>PT5235</name></trkpt>
<trkpt lat="54.447437" lon="-3.260822"><ele>191</ele><time>2022-03-29T13:26:54Z</time><name>PT5236</name></trkpt>
<trkpt lat="54.447474" lon="-3.260792"><ele>192</ele><time>2022-03-29T13:26:58Z</time><name>PT5237</name></trkpt>
<trkpt lat="54.447501" lon="-3.260768"><ele>191</ele><time>2022-03-29T13:27:01Z</time><name>PT5238</name></trkpt>
<trkpt lat="54.447534" lon="-3.260755"><ele>190</ele><time>2022-03-29T13:27:04Z</time><name>PT5239</name></trkpt>
<trkpt lat="54.447565" lon="-3.260748"><ele>190</ele><time>2022-03-29T13:27:09Z</time><name>PT5240</name></trkpt>
<trkpt lat="54.447593" lon="-3.260731"><ele>189</ele><time>2022-03-29T13:27:12Z</time><name>PT5241</name></trkpt>
<trkpt lat="54.447622" lon="-3.260698"><ele>188</ele><time>2022-03-29T13:27:16Z</time><name>PT5242</name></trkpt>
<trkpt lat="54.447648" lon="-3.260642"><ele>187</ele><time>2022-03-29T13:27:19Z</time><name>PT5243</name></trkpt>
<trkpt lat="54.447660" lon="-3.260589"><ele>186</ele><time>2022-03-29T13:27:22Z</time><name>PT5244</name></trkpt>
<trkpt lat="54.447681" lon="-3.260527"><ele>185</ele><time>2022-03-29T13:27:27Z</time><name>PT5245</name></trkpt>
<trkpt lat="54.447712" lon="-3.260476"><ele>185</ele><time>2022-03-29T13:27:31Z</time><name>PT5246</name></trkpt>
<trkpt lat="54.447729" lon="-3.260464"><ele>185</ele><time>2022-03-29T13:27:34Z</time><name>PT5247</name></trkpt>
<trkpt lat="54.447746" lon="-3.260457"><ele>185</ele><time>2022-03-29T13:27:37Z</time><name>PT5248</name></trkpt>
<trkpt lat="54.447766" lon="-3.260469"><ele>185</ele><time>2022-03-29T13:27:40Z</time><name>PT5249</name></trkpt>
<trkpt lat="54.447795" lon="-3.260487"><ele>185</ele><time>2022-03-29T13:27:45Z</time><name>PT5250</name></trkpt>
<trkpt lat="54.447823" lon="-3.260487"><ele>184</ele><time>2022-03-29T13:27:48Z</time><name>PT5251</name></trkpt>
<trkpt lat="54.447866" lon="-3.260497"><ele>185</ele><time>2022-03-29T13:27:52Z</time><name>PT5252</name></trkpt>
<trkpt lat="54.447892" lon="-3.260502"><ele>185</ele><time>2022-03-29T13:27:55Z</time><name>PT5253</name></trkpt>
<trkpt lat="54.447916" lon="-3.260501"><ele>185</ele><time>2022-03-29T13:27:58Z</time><name>PT5254</name></trkpt>
<trkpt lat="54.447947" lon="-3.260514"><ele>184</ele><time>2022-03-29T13:28:01Z</time><name>PT5255</name></trkpt>
<trkpt lat="54.447972" lon="-3.260516"><ele>184</ele><time>2022-03-29T13:28:04Z</time><name>PT5256</name></trkpt>
<trkpt lat="54.448011" lon="-3.260520"><ele>183</ele><time>2022-03-29T13:28:09Z</time><name>PT5257</name></trkpt>
<trkpt lat="54.448040" lon="-3.260524"><ele>183</ele><time>2022-03-29T13:28:12Z</time><name>PT5258</name></trkpt>
<trkpt lat="54.448080" lon="-3.260515"><ele>183</ele><time>2022-03-29T13:28:16Z</time><name>PT5259</name></trkpt>
<trkpt lat="54.448108" lon="-3.260510"><ele>183</ele><time>2022-03-29T13:28:19Z</time><name>PT5260</name></trkpt>
<trkpt lat="54.448146" lon="-3.260502"><ele>182</ele><time>2022-03-29T13:28:22Z</time><name>PT5261</name></trkpt>
<trkpt lat="54.448187" lon="-3.260484"><ele>181</ele><time>2022-03-29T13:28:27Z</time><name>PT5262</name></trkpt>
<trkpt lat="54.448219" lon="-3.260476"><ele>181</ele><time>2022-03-29T13:28:30Z</time><name>PT5263</name></trkpt>
<trkpt lat="54.448258" lon="-3.260460"><ele>180</ele><time>2022-03-29T13:28:34Z</time><name>PT5264</name></trkpt>
<trkpt lat="54.448295" lon="-3.260443"><ele>179</ele><time>2022-03-29T13:28:37Z</time><name>PT5265</name></trkpt>
<trkpt lat="54.448338" lon="-3.260428"><ele>179</ele><time>2022-03-29T13:28:40Z</time><name>PT5266</name></trkpt>
<trkpt lat="54.448380" lon="-3.260395"><ele>178</ele><time>2022-03-29T13:28:45Z</time><name>PT5267</name></trkpt>
<trkpt lat="54.448396" lon="-3.260394"><ele>178</ele><time>2022-03-29T13:28:48Z</time><name>PT5268</name></trkpt>
<trkpt lat="54.448396" lon="-3.260393"><ele>178</ele><time>2022-03-29T13:28:52Z</time><name>PT5269</name></trkpt>
<trkpt lat="54.448421" lon="-3.260378"><ele>178</ele><time>2022-03-29T13:29:01Z</time><name>PT5270</name></trkpt>
<trkpt lat="54.448442" lon="-3.260355"><ele>177</ele><time>2022-03-29T13:29:04Z</time><name>PT5271</name></trkpt>
<trkpt lat="54.448472" lon="-3.260347"><ele>176</ele><time>2022-03-29T13:29:09Z</time><name>PT5272</name></trkpt>
<trkpt lat="54.448496" lon="-3.260335"><ele>176</ele><time>2022-03-29T13:29:13Z</time><name>PT5273</name></trkpt>
<trkpt lat="54.448534" lon="-3.260339"><ele>175</ele><time>2022-03-29T13:29:16Z</time><name>PT5274</name></trkpt>
<trkpt lat="54.448554" lon="-3.260317"><ele>174</ele><time>2022-03-29T13:29:19Z</time><name>PT5275</name></trkpt>
<trkpt lat="54.448580" lon="-3.260318"><ele>174</ele><time>2022-03-29T13:29:24Z</time><name>PT5276</name></trkpt>
<trkpt lat="54.448597" lon="-3.260307"><ele>173</ele><time>2022-03-29T13:29:27Z</time><name>PT5277</name></trkpt>
<trkpt lat="54.448622" lon="-3.260292"><ele>171</ele><time>2022-03-29T13:29:31Z</time><name>PT5278</name></trkpt>
<trkpt lat="54.448644" lon="-3.260283"><ele>171</ele><time>2022-03-29T13:29:34Z</time><name>PT5279</name></trkpt>
<trkpt lat="54.448669" lon="-3.260269"><ele>171</ele><time>2022-03-29T13:29:37Z</time><name>PT5280</name></trkpt>
<trkpt lat="54.448700" lon="-3.260257"><ele>169</ele><time>2022-03-29T13:29:40Z</time><name>PT5281</name></trkpt>
<trkpt lat="54.448730" lon="-3.260250"><ele>169</ele><time>2022-03-29T13:29:45Z</time><name>PT5282</name></trkpt>
<trkpt lat="54.448759" lon="-3.260244"><ele>167</ele><time>2022-03-29T13:29:48Z</time><name>PT5283</name></trkpt>
<trkpt lat="54.448791" lon="-3.260240"><ele>167</ele><time>2022-03-29T13:29:52Z</time><name>PT5284</name></trkpt>
<trkpt lat="54.448823" lon="-3.260235"><ele>166</ele><time>2022-03-29T13:29:55Z</time><name>PT5285</name></trkpt>
<trkpt lat="54.448848" lon="-3.260219"><ele>165</ele><time>2022-03-29T13:29:58Z</time><name>PT5286</name></trkpt>
<trkpt lat="54.448878" lon="-3.260189"><ele>165</ele><time>2022-03-29T13:30:03Z</time><name>PT5287</name></trkpt>
<trkpt lat="54.448905" lon="-3.260163"><ele>165</ele><time>2022-03-29T13:30:06Z</time><name>PT5288</name></trkpt>
<trkpt lat="54.448941" lon="-3.260138"><ele>165</ele><time>2022-03-29T13:30:10Z</time><name>PT5289</name></trkpt>
<trkpt lat="54.448969" lon="-3.260126"><ele>165</ele><time>2022-03-29T13:30:13Z</time><name>PT5290</name></trkpt>
<trkpt lat="54.449005" lon="-3.260091"><ele>164</ele><time>2022-03-29T13:30:16Z</time><name>PT5291</name></trkpt>
<trkpt lat="54.449039" lon="-3.260076"><ele>164</ele><time>2022-03-29T13:30:21Z</time><name>PT5292</name></trkpt>
<trkpt lat="54.449063" lon="-3.260072"><ele>163</ele><time>2022-03-29T13:30:24Z</time><name>PT5293</name></trkpt>
<trkpt lat="54.449098" lon="-3.260059"><ele>161</ele><time>2022-03-29T13:30:28Z</time><name>PT5294</name></trkpt>
<trkpt lat="54.449122" lon="-3.260047"><ele>161</ele><time>2022-03-29T13:30:31Z</time><name>PT5295</name></trkpt>
<trkpt lat="54.449156" lon="-3.260027"><ele>160</ele><time>2022-03-29T13:30:34Z</time><name>PT5296</name></trkpt>
<trkpt lat="54.449163" lon="-3.260023"><ele>161</ele><time>2022-03-29T13:30:37Z</time><name>PT5297</name></trkpt>
<trkpt lat="54.449164" lon="-3.260020"><ele>161</ele><time>2022-03-29T13:30:40Z</time><name>PT5298</name></trkpt>
<trkpt lat="54.449159" lon="-3.260026"><ele>161</ele><time>2022-03-29T13:30:49Z</time><name>PT5299</name></trkpt>
<trkpt lat="54.449156" lon="-3.260012"><ele>160</ele><time>2022-03-29T13:30:52Z</time><name>PT5300</name></trkpt>
<trkpt lat="54.449180" lon="-3.259992"><ele>160</ele><time>2022-03-29T13:31:49Z</time><name>PT5301</name></trkpt>
<trkpt lat="54.449215" lon="-3.259970"><ele>160</ele><time>2022-03-29T13:31:52Z</time><name>PT5302</name></trkpt>
<trkpt lat="54.449247" lon="-3.259949"><ele>159</ele><time>2022-03-29T13:31:57Z</time><name>PT5303</name></trkpt>
<trkpt lat="54.449245" lon="-3.259940"><ele>158</ele><time>2022-03-29T13:32:01Z</time><name>PT5304</name></trkpt>
<trkpt lat="54.449256" lon="-3.259917"><ele>157</ele><time>2022-03-29T13:32:04Z</time><name>PT5305</name></trkpt>
<trkpt lat="54.449277" lon="-3.259908"><ele>156</ele><time>2022-03-29T13:32:07Z</time><name>PT5306</name></trkpt>
<trkpt lat="54.449319" lon="-3.259897"><ele>157</ele><time>2022-03-29T13:32:12Z</time><name>PT5307</name></trkpt>
<trkpt lat="54.449358" lon="-3.259891"><ele>157</ele><time>2022-03-29T13:32:16Z</time><name>PT5308</name></trkpt>
<trkpt lat="54.449380" lon="-3.259908"><ele>157</ele><time>2022-03-29T13:32:19Z</time><name>PT5309</name></trkpt>
<trkpt lat="54.449399" lon="-3.259926"><ele>156</ele><time>2022-03-29T13:32:22Z</time><name>PT5310</name></trkpt>
<trkpt lat="54.449400" lon="-3.259925"><ele>156</ele><time>2022-03-29T13:32:25Z</time><name>PT5311</name></trkpt>
<trkpt lat="54.449403" lon="-3.259920"><ele>156</ele><time>2022-03-29T13:32:37Z</time><name>PT5312</name></trkpt>
<trkpt lat="54.449414" lon="-3.259968"><ele>155</ele><time>2022-03-29T13:32:40Z</time><name>PT5313</name></trkpt>
<trkpt lat="54.449428" lon="-3.259970"><ele>154</ele><time>2022-03-29T13:32:45Z</time><name>PT5314</name></trkpt>
<trkpt lat="54.449450" lon="-3.259962"><ele>155</ele><time>2022-03-29T13:32:48Z</time><name>PT5315</name></trkpt>
<trkpt lat="54.449478" lon="-3.259985"><ele>155</ele><time>2022-03-29T13:32:52Z</time><name>PT5316</name></trkpt>
<trkpt lat="54.449494" lon="-3.259995"><ele>153</ele><time>2022-03-29T13:32:55Z</time><name>PT5317</name></trkpt>
<trkpt lat="54.449524" lon="-3.259983"><ele>152</ele><time>2022-03-29T13:32:58Z</time><name>PT5318</name></trkpt>
<trkpt lat="54.449542" lon="-3.259971"><ele>152</ele><time>2022-03-29T13:33:01Z</time><name>PT5319</name></trkpt>
<trkpt lat="54.449569" lon="-3.259966"><ele>150</ele><time>2022-03-29T13:33:06Z</time><name>PT5320</name></trkpt>
<trkpt lat="54.449600" lon="-3.259957"><ele>150</ele><time>2022-03-29T13:33:10Z</time><name>PT5321</name></trkpt>
<trkpt lat="54.449621" lon="-3.259934"><ele>149</ele><time>2022-03-29T13:33:13Z</time><name>PT5322</name></trkpt>
<trkpt lat="54.449646" lon="-3.259915"><ele>149</ele><time>2022-03-29T13:33:16Z</time><name>PT5323</name></trkpt>
<trkpt lat="54.449666" lon="-3.259899"><ele>147</ele><time>2022-03-29T13:33:21Z</time><name>PT5324</name></trkpt>
<trkpt lat="54.449675" lon="-3.259887"><ele>147</ele><time>2022-03-29T13:33:25Z</time><name>PT5325</name></trkpt>
<trkpt lat="54.449668" lon="-3.259901"><ele>146</ele><time>2022-03-29T13:33:28Z</time><name>PT5326</name></trkpt>
<trkpt lat="54.449685" lon="-3.259925"><ele>145</ele><time>2022-03-29T13:33:36Z</time><name>PT5327</name></trkpt>
<trkpt lat="54.449680" lon="-3.259923"><ele>145</ele><time>2022-03-29T13:33:39Z</time><name>PT5328</name></trkpt>
<trkpt lat="54.449701" lon="-3.259926"><ele>145</ele><time>2022-03-29T13:33:43Z</time><name>PT5329</name></trkpt>
<trkpt lat="54.449701" lon="-3.259940"><ele>146</ele><time>2022-03-29T13:33:46Z</time><name>PT5330</name></trkpt>
<trkpt lat="54.449699" lon="-3.259959"><ele>147</ele><time>2022-03-29T13:33:49Z</time><name>PT5331</name></trkpt>
<trkpt lat="54.449702" lon="-3.259947"><ele>146</ele><time>2022-03-29T13:34:10Z</time><name>PT5332</name></trkpt>
<trkpt lat="54.449710" lon="-3.259897"><ele>146</ele><time>2022-03-29T13:34:13Z</time><name>PT5333</name></trkpt>
<trkpt lat="54.449741" lon="-3.259848"><ele>146</ele><time>2022-03-29T13:34:18Z</time><name>PT5334</name></trkpt>
<trkpt lat="54.449780" lon="-3.259825"><ele>143</ele><time>2022-03-29T13:34:22Z</time><name>PT5335</name></trkpt>
<trkpt lat="54.449807" lon="-3.259834"><ele>143</ele><time>2022-03-29T13:34:25Z</time><name>PT5336</name></trkpt>
<trkpt lat="54.449833" lon="-3.259846"><ele>143</ele><time>2022-03-29T13:34:28Z</time><name>PT5337</name></trkpt>
<trkpt lat="54.449876" lon="-3.259868"><ele>141</ele><time>2022-03-29T13:34:31Z</time><name>PT5338</name></trkpt>
<trkpt lat="54.449903" lon="-3.259866"><ele>141</ele><time>2022-03-29T13:34:34Z</time><name>PT5339</name></trkpt>
<trkpt lat="54.449944" lon="-3.259872"><ele>140</ele><time>2022-03-29T13:34:39Z</time><name>PT5340</name></trkpt>
<trkpt lat="54.449983" lon="-3.259865"><ele>140</ele><time>2022-03-29T13:34:42Z</time><name>PT5341</name></trkpt>
<trkpt lat="54.450023" lon="-3.259857"><ele>140</ele><time>2022-03-29T13:34:46Z</time><name>PT5342</name></trkpt>
<trkpt lat="54.450057" lon="-3.259841"><ele>139</ele><time>2022-03-29T13:34:49Z</time><name>PT5343</name></trkpt>
<trkpt lat="54.450093" lon="-3.259823"><ele>139</ele><time>2022-03-29T13:34:52Z</time><name>PT5344</name></trkpt>
<trkpt lat="54.450114" lon="-3.259822"><ele>137</ele><time>2022-03-29T13:34:55Z</time><name>PT5345</name></trkpt>
<trkpt lat="54.450147" lon="-3.259818"><ele>137</ele><time>2022-03-29T13:35:00Z</time><name>PT5346</name></trkpt>
<trkpt lat="54.450154" lon="-3.259808"><ele>136</ele><time>2022-03-29T13:35:03Z</time><name>PT5347</name></trkpt>
<trkpt lat="54.450155" lon="-3.259808"><ele>136</ele><time>2022-03-29T13:35:07Z</time><name>PT5348</name></trkpt>
<trkpt lat="54.450191" lon="-3.259781"><ele>136</ele><time>2022-03-29T13:35:16Z</time><name>PT5349</name></trkpt>
<trkpt lat="54.450226" lon="-3.259775"><ele>136</ele><time>2022-03-29T13:35:19Z</time><name>PT5350</name></trkpt>
<trkpt lat="54.450270" lon="-3.259793"><ele>135</ele><time>2022-03-29T13:35:24Z</time><name>PT5351</name></trkpt>
<trkpt lat="54.450301" lon="-3.259801"><ele>135</ele><time>2022-03-29T13:35:27Z</time><name>PT5352</name></trkpt>
<trkpt lat="54.450344" lon="-3.259801"><ele>134</ele><time>2022-03-29T13:35:31Z</time><name>PT5353</name></trkpt>
<trkpt lat="54.450386" lon="-3.259807"><ele>133</ele><time>2022-03-29T13:35:34Z</time><name>PT5354</name></trkpt>
<trkpt lat="54.450422" lon="-3.259818"><ele>132</ele><time>2022-03-29T13:35:39Z</time><name>PT5355</name></trkpt>
<trkpt lat="54.450468" lon="-3.259816"><ele>132</ele><time>2022-03-29T13:35:43Z</time><name>PT5356</name></trkpt>
<trkpt lat="54.450498" lon="-3.259818"><ele>131</ele><time>2022-03-29T13:35:46Z</time><name>PT5357</name></trkpt>
<trkpt lat="54.450526" lon="-3.259822"><ele>130</ele><time>2022-03-29T13:35:49Z</time><name>PT5358</name></trkpt>
<trkpt lat="54.450558" lon="-3.259822"><ele>130</ele><time>2022-03-29T13:35:54Z</time><name>PT5359</name></trkpt>
<trkpt lat="54.450589" lon="-3.259807"><ele>130</ele><time>2022-03-29T13:35:57Z</time><name>PT5360</name></trkpt>
<trkpt lat="54.450626" lon="-3.259807"><ele>128</ele><time>2022-03-29T13:36:01Z</time><name>PT5361</name></trkpt>
<trkpt lat="54.450647" lon="-3.259807"><ele>127</ele><time>2022-03-29T13:36:04Z</time><name>PT5362</name></trkpt>
<trkpt lat="54.450677" lon="-3.259810"><ele>125</ele><time>2022-03-29T13:36:08Z</time><name>PT5363</name></trkpt>
<trkpt lat="54.450719" lon="-3.259819"><ele>125</ele><time>2022-03-29T13:36:12Z</time><name>PT5364</name></trkpt>
<trkpt lat="54.450762" lon="-3.259830"><ele>124</ele><time>2022-03-29T13:36:16Z</time><name>PT5365</name></trkpt>
<trkpt lat="54.450797" lon="-3.259861"><ele>123</ele><time>2022-03-29T13:36:19Z</time><name>PT5366</name></trkpt>
<trkpt lat="54.450839" lon="-3.259888"><ele>124</ele><time>2022-03-29T13:36:24Z</time><name>PT5367</name></trkpt>
<trkpt lat="54.450867" lon="-3.259914"><ele>123</ele><time>2022-03-29T13:36:27Z</time><name>PT5368</name></trkpt>
<trkpt lat="54.450893" lon="-3.259920"><ele>123</ele><time>2022-03-29T13:36:30Z</time><name>PT5369</name></trkpt>
<trkpt lat="54.450902" lon="-3.259941"><ele>121</ele><time>2022-03-29T13:36:34Z</time><name>PT5370</name></trkpt>
<trkpt lat="54.450903" lon="-3.259946"><ele>121</ele><time>2022-03-29T13:36:37Z</time><name>PT5371</name></trkpt>
<trkpt lat="54.450903" lon="-3.259946"><ele>121</ele><time>2022-03-29T13:36:55Z</time><name>PT5372</name></trkpt>
<trkpt lat="54.450949" lon="-3.259922"><ele>120</ele><time>2022-03-29T13:37:00Z</time><name>PT5373</name></trkpt>
<trkpt lat="54.451003" lon="-3.259894"><ele>119</ele><time>2022-03-29T13:37:04Z</time><name>PT5374</name></trkpt>
<trkpt lat="54.451034" lon="-3.259877"><ele>119</ele><time>2022-03-29T13:37:07Z</time><name>PT5375</name></trkpt>
<trkpt lat="54.451063" lon="-3.259836"><ele>118</ele><time>2022-03-29T13:37:10Z</time><name>PT5376</name></trkpt>
<trkpt lat="54.451091" lon="-3.259823"><ele>118</ele><time>2022-03-29T13:37:13Z</time><name>PT5377</name></trkpt>
<trkpt lat="54.451140" lon="-3.259786"><ele>118</ele><time>2022-03-29T13:37:16Z</time><name>PT5378</name></trkpt>
<trkpt lat="54.451177" lon="-3.259766"><ele>118</ele><time>2022-03-29T13:37:19Z</time><name>PT5379</name></trkpt>
<trkpt lat="54.451210" lon="-3.259770"><ele>117</ele><time>2022-03-29T13:37:22Z</time><name>PT5380</name></trkpt>
<trkpt lat="54.451268" lon="-3.259744"><ele>115</ele><time>2022-03-29T13:37:27Z</time><name>PT5381</name></trkpt>
<trkpt lat="54.451313" lon="-3.259767"><ele>115</ele><time>2022-03-29T13:37:31Z</time><name>PT5382</name></trkpt>
<trkpt lat="54.451347" lon="-3.259776"><ele>116</ele><time>2022-03-29T13:37:34Z</time><name>PT5383</name></trkpt>
<trkpt lat="54.451375" lon="-3.259796"><ele>115</ele><time>2022-03-29T13:37:37Z</time><name>PT5384</name></trkpt>
<trkpt lat="54.451404" lon="-3.259804"><ele>115</ele><time>2022-03-29T13:37:40Z</time><name>PT5385</name></trkpt>
<trkpt lat="54.451422" lon="-3.259810"><ele>116</ele><time>2022-03-29T13:37:43Z</time><name>PT5386</name></trkpt>
<trkpt lat="54.451423" lon="-3.259810"><ele>116</ele><time>2022-03-29T13:37:46Z</time><name>PT5387</name></trkpt>
<trkpt lat="54.451460" lon="-3.259810"><ele>115</ele><time>2022-03-29T13:38:07Z</time><name>PT5388</name></trkpt>
<trkpt lat="54.451500" lon="-3.259799"><ele>114</ele><time>2022-03-29T13:38:10Z</time><name>PT5389</name></trkpt>
<trkpt lat="54.451533" lon="-3.259796"><ele>113</ele><time>2022-03-29T13:38:13Z</time><name>PT5390</name></trkpt>
<trkpt lat="54.451578" lon="-3.259779"><ele>113</ele><time>2022-03-29T13:38:18Z</time><name>PT5391</name></trkpt>
<trkpt lat="54.451613" lon="-3.259760"><ele>112</ele><time>2022-03-29T13:38:21Z</time><name>PT5392</name></trkpt>
<trkpt lat="54.451647" lon="-3.259747"><ele>112</ele><time>2022-03-29T13:38:24Z</time><name>PT5393</name></trkpt>
<trkpt lat="54.451688" lon="-3.259725"><ele>111</ele><time>2022-03-29T13:38:28Z</time><name>PT5394</name></trkpt>
<trkpt lat="54.451731" lon="-3.259709"><ele>109</ele><time>2022-03-29T13:38:31Z</time><name>PT5395</name></trkpt>
<trkpt lat="54.451762" lon="-3.259694"><ele>108</ele><time>2022-03-29T13:38:34Z</time><name>PT5396</name></trkpt>
<trkpt lat="54.451796" lon="-3.259691"><ele>107</ele><time>2022-03-29T13:38:37Z</time><name>PT5397</name></trkpt>
<trkpt lat="54.451843" lon="-3.259672"><ele>106</ele><time>2022-03-29T13:38:42Z</time><name>PT5398</name></trkpt>
<trkpt lat="54.451879" lon="-3.259659"><ele>106</ele><time>2022-03-29T13:38:45Z</time><name>PT5399</name></trkpt>
<trkpt lat="54.451916" lon="-3.259668"><ele>105</ele><time>2022-03-29T13:38:48Z</time><name>PT5400</name></trkpt>
<trkpt lat="54.451944" lon="-3.259691"><ele>105</ele><time>2022-03-29T13:38:51Z</time><name>PT5401</name></trkpt>
<trkpt lat="54.451972" lon="-3.259699"><ele>104</ele><time>2022-03-29T13:38:54Z</time><name>PT5402</name></trkpt>
<trkpt lat="54.451994" lon="-3.259717"><ele>104</ele><time>2022-03-29T13:38:58Z</time><name>PT5403</name></trkpt>
<trkpt lat="54.451993" lon="-3.259716"><ele>104</ele><time>2022-03-29T13:39:01Z</time><name>PT5404</name></trkpt>
<trkpt lat="54.452020" lon="-3.259707"><ele>104</ele><time>2022-03-29T13:39:10Z</time><name>PT5405</name></trkpt>
<trkpt lat="54.452052" lon="-3.259683"><ele>104</ele><time>2022-03-29T13:39:13Z</time><name>PT5406</name></trkpt>
<trkpt lat="54.452096" lon="-3.259651"><ele>104</ele><time>2022-03-29T13:39:18Z</time><name>PT5407</name></trkpt>
<trkpt lat="54.452138" lon="-3.259623"><ele>103</ele><time>2022-03-29T13:39:22Z</time><name>PT5408</name></trkpt>
<trkpt lat="54.452187" lon="-3.259599"><ele>103</ele><time>2022-03-29T13:39:25Z</time><name>PT5409</name></trkpt>
<trkpt lat="54.452228" lon="-3.259581"><ele>102</ele><time>2022-03-29T13:39:28Z</time><name>PT5410</name></trkpt>
<trkpt lat="54.452272" lon="-3.259573"><ele>102</ele><time>2022-03-29T13:39:31Z</time><name>PT5411</name></trkpt>
<trkpt lat="54.452320" lon="-3.259602"><ele>103</ele><time>2022-03-29T13:39:36Z</time><name>PT5412</name></trkpt>
<trkpt lat="54.452347" lon="-3.259643"><ele>103</ele><time>2022-03-29T13:39:39Z</time><name>PT5413</name></trkpt>
<trkpt lat="54.452390" lon="-3.259684"><ele>102</ele><time>2022-03-29T13:39:43Z</time><name>PT5414</name></trkpt>
<trkpt lat="54.452422" lon="-3.259689"><ele>101</ele><time>2022-03-29T13:39:46Z</time><name>PT5415</name></trkpt>
<trkpt lat="54.452453" lon="-3.259696"><ele>101</ele><time>2022-03-29T13:39:49Z</time><name>PT5416</name></trkpt>
<trkpt lat="54.452457" lon="-3.259696"><ele>101</ele><time>2022-03-29T13:39:54Z</time><name>PT5417</name></trkpt>
<trkpt lat="54.452457" lon="-3.259715"><ele>101</ele><time>2022-03-29T13:40:04Z</time><name>PT5418</name></trkpt>
<trkpt lat="54.452458" lon="-3.259719"><ele>101</ele><time>2022-03-29T13:40:07Z</time><name>PT5419</name></trkpt>
<trkpt lat="54.452502" lon="-3.259698"><ele>99</ele><time>2022-03-29T13:40:15Z</time><name>PT5420</name></trkpt>
<trkpt lat="54.452538" lon="-3.259682"><ele>98</ele><time>2022-03-29T13:40:18Z</time><name>PT5421</name></trkpt>
<trkpt lat="54.452589" lon="-3.259669"><ele>97</ele><time>2022-03-29T13:40:22Z</time><name>PT5422</name></trkpt>
<trkpt lat="54.452634" lon="-3.259622"><ele>95</ele><time>2022-03-29T13:40:25Z</time><name>PT5423</name></trkpt>
<trkpt lat="54.452666" lon="-3.259595"><ele>93</ele><time>2022-03-29T13:40:28Z</time><name>PT5424</name></trkpt>
<trkpt lat="54.452708" lon="-3.259578"><ele>93</ele><time>2022-03-29T13:40:31Z</time><name>PT5425</name></trkpt>
<trkpt lat="54.452750" lon="-3.259549"><ele>92</ele><time>2022-03-29T13:40:34Z</time><name>PT5426</name></trkpt>
<trkpt lat="54.452803" lon="-3.259526"><ele>92</ele><time>2022-03-29T13:40:39Z</time><name>PT5427</name></trkpt>
<trkpt lat="54.452858" lon="-3.259520"><ele>92</ele><time>2022-03-29T13:40:43Z</time><name>PT5428</name></trkpt>
<trkpt lat="54.452893" lon="-3.259512"><ele>91</ele><time>2022-03-29T13:40:46Z</time><name>PT5429</name></trkpt>
<trkpt lat="54.452941" lon="-3.259501"><ele>91</ele><time>2022-03-29T13:40:49Z</time><name>PT5430</name></trkpt>
<trkpt lat="54.452991" lon="-3.259496"><ele>90</ele><time>2022-03-29T13:40:54Z</time><name>PT5431</name></trkpt>
<trkpt lat="54.453038" lon="-3.259498"><ele>90</ele><time>2022-03-29T13:40:58Z</time><name>PT5432</name></trkpt>
<trkpt lat="54.453075" lon="-3.259485"><ele>91</ele><time>2022-03-29T13:41:01Z</time><name>PT5433</name></trkpt>
<trkpt lat="54.453135" lon="-3.259480"><ele>90</ele><time>2022-03-29T13:41:04Z</time><name>PT5434</name></trkpt>
<trkpt lat="54.453181" lon="-3.259497"><ele>89</ele><time>2022-03-29T13:41:09Z</time><name>PT5435</name></trkpt>
<trkpt lat="54.453215" lon="-3.259497"><ele>88</ele><time>2022-03-29T13:41:12Z</time><name>PT5436</name></trkpt>
<trkpt lat="54.453264" lon="-3.259515"><ele>88</ele><time>2022-03-29T13:41:16Z</time><name>PT5437</name></trkpt>
<trkpt lat="54.453319" lon="-3.259539"><ele>88</ele><time>2022-03-29T13:41:19Z</time><name>PT5438</name></trkpt>
<trkpt lat="54.453371" lon="-3.259559"><ele>89</ele><time>2022-03-29T13:41:24Z</time><name>PT5439</name></trkpt>
<trkpt lat="54.453431" lon="-3.259576"><ele>91</ele><time>2022-03-29T13:41:28Z</time><name>PT5440</name></trkpt>
<trkpt lat="54.453471" lon="-3.259600"><ele>90</ele><time>2022-03-29T13:41:31Z</time><name>PT5441</name></trkpt>
<trkpt lat="54.453511" lon="-3.259613"><ele>90</ele><time>2022-03-29T13:41:34Z</time><name>PT5442</name></trkpt>
<trkpt lat="54.453551" lon="-3.259634"><ele>90</ele><time>2022-03-29T13:41:37Z</time><name>PT5443</name></trkpt>
<trkpt lat="54.453612" lon="-3.259639"><ele>90</ele><time>2022-03-29T13:41:40Z</time><name>PT5444</name></trkpt>
<trkpt lat="54.453664" lon="-3.259666"><ele>90</ele><time>2022-03-29T13:41:45Z</time><name>PT5445</name></trkpt>
<trkpt lat="54.453693" lon="-3.259681"><ele>90</ele><time>2022-03-29T13:41:48Z</time><name>PT5446</name></trkpt>
<trkpt lat="54.453714" lon="-3.259700"><ele>89</ele><time>2022-03-29T13:41:51Z</time><name>PT5447</name></trkpt>
<trkpt lat="54.453719" lon="-3.259720"><ele>89</ele><time>2022-03-29T13:41:54Z</time><name>PT5448</name></trkpt>
<trkpt lat="54.453725" lon="-3.259723"><ele>89</ele><time>2022-03-29T13:41:57Z</time><name>PT5449</name></trkpt>
<trkpt lat="54.453762" lon="-3.259734"><ele>89</ele><time>2022-03-29T13:42:01Z</time><name>PT5450</name></trkpt>
<trkpt lat="54.453796" lon="-3.259741"><ele>89</ele><time>2022-03-29T13:42:04Z</time><name>PT5451</name></trkpt>
<trkpt lat="54.453843" lon="-3.259734"><ele>89</ele><time>2022-03-29T13:42:07Z</time><name>PT5452</name></trkpt>
<trkpt lat="54.453874" lon="-3.259735"><ele>89</ele><time>2022-03-29T13:42:10Z</time><name>PT5453</name></trkpt>
<trkpt lat="54.453908" lon="-3.259730"><ele>91</ele><time>2022-03-29T13:42:15Z</time><name>PT5454</name></trkpt>
<trkpt lat="54.453942" lon="-3.259707"><ele>92</ele><time>2022-03-29T13:42:19Z</time><name>PT5455</name></trkpt>
<trkpt lat="54.453959" lon="-3.259701"><ele>92</ele><time>2022-03-29T13:42:22Z</time><name>PT5456</name></trkpt>
<trkpt lat="54.453986" lon="-3.259699"><ele>93</ele><time>2022-03-29T13:42:27Z</time><name>PT5457</name></trkpt>
<trkpt lat="54.454020" lon="-3.259698"><ele>94</ele><time>2022-03-29T13:42:31Z</time><name>PT5458</name></trkpt>
<trkpt lat="54.454080" lon="-3.259701"><ele>93</ele><time>2022-03-29T13:42:34Z</time><name>PT5459</name></trkpt>
<trkpt lat="54.454108" lon="-3.259701"><ele>94</ele><time>2022-03-29T13:42:37Z</time><name>PT5460</name></trkpt>
<trkpt lat="54.454144" lon="-3.259711"><ele>95</ele><time>2022-03-29T13:42:40Z</time><name>PT5461</name></trkpt>
<trkpt lat="54.454188" lon="-3.259725"><ele>96</ele><time>2022-03-29T13:42:43Z</time><name>PT5462</name></trkpt>
<trkpt lat="54.454213" lon="-3.259722"><ele>96</ele><time>2022-03-29T13:42:47Z</time><name>PT5463</name></trkpt>
<trkpt lat="54.454245" lon="-3.259717"><ele>98</ele><time>2022-03-29T13:42:51Z</time><name>PT5464</name></trkpt>
<trkpt lat="54.454277" lon="-3.259714"><ele>97</ele><time>2022-03-29T13:42:54Z</time><name>PT5465</name></trkpt>
<trkpt lat="54.454329" lon="-3.259712"><ele>95</ele><time>2022-03-29T13:42:57Z</time><name>PT5466</name></trkpt>
<trkpt lat="54.454370" lon="-3.259713"><ele>95</ele><time>2022-03-29T13:43:01Z</time><name>PT5467</name></trkpt>
<trkpt lat="54.454408" lon="-3.259712"><ele>96</ele><time>2022-03-29T13:43:04Z</time><name>PT5468</name></trkpt>
<trkpt lat="54.454434" lon="-3.259715"><ele>97</ele><time>2022-03-29T13:43:07Z</time><name>PT5469</name></trkpt>
<trkpt lat="54.454468" lon="-3.259724"><ele>97</ele><time>2022-03-29T13:43:12Z</time><name>PT5470</name></trkpt>
<trkpt lat="54.454513" lon="-3.259738"><ele>96</ele><time>2022-03-29T13:43:16Z</time><name>PT5471</name></trkpt>
<trkpt lat="54.454533" lon="-3.259734"><ele>95</ele><time>2022-03-29T13:43:19Z</time><name>PT5472</name></trkpt>
<trkpt lat="54.454574" lon="-3.259733"><ele>94</ele><time>2022-03-29T13:43:22Z</time><name>PT5473</name></trkpt>
<trkpt lat="54.454591" lon="-3.259731"><ele>94</ele><time>2022-03-29T13:43:25Z</time><name>PT5474</name></trkpt>
<trkpt lat="54.454599" lon="-3.259730"><ele>91</ele><time>2022-03-29T13:43:30Z</time><name>PT5475</name></trkpt>
<trkpt lat="54.454614" lon="-3.259785"><ele>92</ele><time>2022-03-29T13:43:34Z</time><name>PT5476</name></trkpt>
<trkpt lat="54.454628" lon="-3.259776"><ele>92</ele><time>2022-03-29T13:43:48Z</time><name>PT5477</name></trkpt>
<trkpt lat="54.454686" lon="-3.259776"><ele>92</ele><time>2022-03-29T13:43:52Z</time><name>PT5478</name></trkpt>
<trkpt lat="54.454726" lon="-3.259788"><ele>92</ele><time>2022-03-29T13:43:55Z</time><name>PT5479</name></trkpt>
<trkpt lat="54.454747" lon="-3.259799"><ele>93</ele><time>2022-03-29T13:43:58Z</time><name>PT5480</name></trkpt>
<trkpt lat="54.454784" lon="-3.259803"><ele>93</ele><time>2022-03-29T13:44:01Z</time><name>PT5481</name></trkpt>
<trkpt lat="54.454829" lon="-3.259819"><ele>91</ele><time>2022-03-29T13:44:04Z</time><name>PT5482</name></trkpt>
<trkpt lat="54.454854" lon="-3.259832"><ele>91</ele><time>2022-03-29T13:44:09Z</time><name>PT5483</name></trkpt>
<trkpt lat="54.454858" lon="-3.259810"><ele>92</ele><time>2022-03-29T13:44:13Z</time><name>PT5484</name></trkpt>
<trkpt lat="54.454863" lon="-3.259819"><ele>92</ele><time>2022-03-29T13:44:16Z</time><name>PT5485</name></trkpt>
<trkpt lat="54.454888" lon="-3.259817"><ele>92</ele><time>2022-03-29T13:44:19Z</time><name>PT5486</name></trkpt>
<trkpt lat="54.454942" lon="-3.259827"><ele>93</ele><time>2022-03-29T13:44:24Z</time><name>PT5487</name></trkpt>
<trkpt lat="54.454969" lon="-3.259846"><ele>92</ele><time>2022-03-29T13:44:27Z</time><name>PT5488</name></trkpt>
<trkpt lat="54.454985" lon="-3.259901"><ele>92</ele><time>2022-03-29T13:44:30Z</time><name>PT5489</name></trkpt>
<trkpt lat="54.455016" lon="-3.259986"><ele>94</ele><time>2022-03-29T13:44:34Z</time><name>PT5490</name></trkpt>
<trkpt lat="54.455027" lon="-3.260094"><ele>94</ele><time>2022-03-29T13:44:37Z</time><name>PT5491</name></trkpt>
<trkpt lat="54.455039" lon="-3.260181"><ele>93</ele><time>2022-03-29T13:44:42Z</time><name>PT5492</name></trkpt>
<trkpt lat="54.455051" lon="-3.260240"><ele>92</ele><time>2022-03-29T13:44:45Z</time><name>PT5493</name></trkpt>
<trkpt lat="54.455074" lon="-3.260316"><ele>92</ele><time>2022-03-29T13:44:49Z</time><name>PT5494</name></trkpt>
<trkpt lat="54.455089" lon="-3.260378"><ele>91</ele><time>2022-03-29T13:44:52Z</time><name>PT5495</name></trkpt>
<trkpt lat="54.455105" lon="-3.260458"><ele>91</ele><time>2022-03-29T13:44:55Z</time><name>PT5496</name></trkpt>
<trkpt lat="54.455115" lon="-3.260506"><ele>90</ele><time>2022-03-29T13:45:00Z</time><name>PT5497</name></trkpt>
<trkpt lat="54.455104" lon="-3.260543"><ele>88</ele><time>2022-03-29T13:45:04Z</time><name>PT5498</name></trkpt>
<trkpt lat="54.455097" lon="-3.260558"><ele>87</ele><time>2022-03-29T13:45:07Z</time><name>PT5499</name></trkpt>
<trkpt lat="54.455096" lon="-3.260584"><ele>87</ele><time>2022-03-29T13:45:10Z</time><name>PT5500</name></trkpt>
<trkpt lat="54.455092" lon="-3.260620"><ele>88</ele><time>2022-03-29T13:45:15Z</time><name>PT5501</name></trkpt>
<trkpt lat="54.455098" lon="-3.260634"><ele>87</ele><time>2022-03-29T13:45:19Z</time><name>PT5502</name></trkpt>
<trkpt lat="54.455099" lon="-3.260639"><ele>87</ele><time>2022-03-29T13:45:22Z</time><name>PT5503</name></trkpt>
<trkpt lat="54.455099" lon="-3.260641"><ele>87</ele><time>2022-03-29T13:45:27Z</time><name>PT5504</name></trkpt>
<trkpt lat="54.455104" lon="-3.260650"><ele>87</ele><time>2022-03-29T13:45:30Z</time><name>PT5505</name></trkpt>
<trkpt lat="54.455114" lon="-3.260708"><ele>87</ele><time>2022-03-29T13:45:34Z</time><name>PT5506</name></trkpt>
<trkpt lat="54.455126" lon="-3.260765"><ele>87</ele><time>2022-03-29T13:45:37Z</time><name>PT5507</name></trkpt>
<trkpt lat="54.455137" lon="-3.260844"><ele>86</ele><time>2022-03-29T13:45:40Z</time><name>PT5508</name></trkpt>
<trkpt lat="54.455152" lon="-3.260929"><ele>86</ele><time>2022-03-29T13:45:45Z</time><name>PT5509</name></trkpt>
<trkpt lat="54.455161" lon="-3.260981"><ele>85</ele><time>2022-03-29T13:45:48Z</time><name>PT5510</name></trkpt>
<trkpt lat="54.455172" lon="-3.261026"><ele>84</ele><time>2022-03-29T13:45:51Z</time><name>PT5511</name></trkpt>
<trkpt lat="54.455190" lon="-3.261089"><ele>82</ele><time>2022-03-29T13:45:55Z</time><name>PT5512</name></trkpt>
<trkpt lat="54.455222" lon="-3.261145"><ele>81</ele><time>2022-03-29T13:45:58Z</time><name>PT5513</name></trkpt>
<trkpt lat="54.455243" lon="-3.261186"><ele>81</ele><time>2022-03-29T13:46:01Z</time><name>PT5514</name></trkpt>
<trkpt lat="54.455287" lon="-3.261212"><ele>81</ele><time>2022-03-29T13:46:06Z</time><name>PT5515</name></trkpt>
<trkpt lat="54.455332" lon="-3.261232"><ele>80</ele><time>2022-03-29T13:46:10Z</time><name>PT5516</name></trkpt>
<trkpt lat="54.455365" lon="-3.261249"><ele>79</ele><time>2022-03-29T13:46:13Z</time><name>PT5517</name></trkpt>
<trkpt lat="54.455396" lon="-3.261256"><ele>79</ele><time>2022-03-29T13:46:16Z</time><name>PT5518</name></trkpt>
<trkpt lat="54.455436" lon="-3.261265"><ele>79</ele><time>2022-03-29T13:46:19Z</time><name>PT5519</name></trkpt>
<trkpt lat="54.455468" lon="-3.261263"><ele>79</ele><time>2022-03-29T13:46:22Z</time><name>PT5520</name></trkpt>
<trkpt lat="54.455515" lon="-3.261261"><ele>79</ele><time>2022-03-29T13:46:27Z</time><name>PT5521</name></trkpt>
<trkpt lat="54.455559" lon="-3.261258"><ele>79</ele><time>2022-03-29T13:46:31Z</time><name>PT5522</name></trkpt>
<trkpt lat="54.455605" lon="-3.261251"><ele>79</ele><time>2022-03-29T13:46:34Z</time><name>PT5523</name></trkpt>
<trkpt lat="54.455637" lon="-3.261219"><ele>79</ele><time>2022-03-29T13:46:37Z</time><name>PT5524</name></trkpt>
<trkpt lat="54.455678" lon="-3.261178"><ele>79</ele><time>2022-03-29T13:46:42Z</time><name>PT5525</name></trkpt>
<trkpt lat="54.455710" lon="-3.261147"><ele>78</ele><time>2022-03-29T13:46:45Z</time><name>PT5526</name></trkpt>
<trkpt lat="54.455750" lon="-3.261110"><ele>78</ele><time>2022-03-29T13:46:49Z</time><name>PT5527</name></trkpt>
<trkpt lat="54.455777" lon="-3.261081"><ele>78</ele><time>2022-03-29T13:46:52Z</time><name>PT5528</name></trkpt>
<trkpt lat="54.455812" lon="-3.261053"><ele>78</ele><time>2022-03-29T13:46:55Z</time><name>PT5529</name></trkpt>
<trkpt lat="54.455842" lon="-3.261022"><ele>78</ele><time>2022-03-29T13:46:58Z</time><name>PT5530</name></trkpt>
<trkpt lat="54.455872" lon="-3.260990"><ele>77</ele><time>2022-03-29T13:47:01Z</time><name>PT5531</name></trkpt>
<trkpt lat="54.455906" lon="-3.260966"><ele>79</ele><time>2022-03-29T13:47:06Z</time><name>PT5532</name></trkpt>
<trkpt lat="54.455944" lon="-3.260965"><ele>78</ele><time>2022-03-29T13:47:09Z</time><name>PT5533</name></trkpt>
<trkpt lat="54.455985" lon="-3.260982"><ele>78</ele><time>2022-03-29T13:47:12Z</time><name>PT5534</name></trkpt>
<trkpt lat="54.456013" lon="-3.261040"><ele>78</ele><time>2022-03-29T13:47:16Z</time><name>PT5535</name></trkpt>
<trkpt lat="54.456014" lon="-3.261052"><ele>78</ele><time>2022-03-29T13:47:19Z</time><name>PT5536</name></trkpt>
<trkpt lat="54.456039" lon="-3.261072"><ele>78</ele><time>2022-03-29T13:47:22Z</time><name>PT5537</name></trkpt>
<trkpt lat="54.456065" lon="-3.261081"><ele>79</ele><time>2022-03-29T13:47:25Z</time><name>PT5538</name></trkpt>
<trkpt lat="54.456093" lon="-3.261071"><ele>78</ele><time>2022-03-29T13:47:28Z</time><name>PT5539</name></trkpt>
<trkpt lat="54.456124" lon="-3.261058"><ele>77</ele><time>2022-03-29T13:47:31Z</time><name>PT5540</name></trkpt>
<trkpt lat="54.456161" lon="-3.261034"><ele>76</ele><time>2022-03-29T13:47:36Z</time><name>PT5541</name></trkpt>
<trkpt lat="54.456175" lon="-3.261008"><ele>76</ele><time>2022-03-29T13:47:39Z</time><name>PT5542</name></trkpt>
<trkpt lat="54.456205" lon="-3.260973"><ele>75</ele><time>2022-03-29T13:47:43Z</time><name>PT5543</name></trkpt>
<trkpt lat="54.456246" lon="-3.260917"><ele>75</ele><time>2022-03-29T13:47:46Z</time><name>PT5544</name></trkpt>
<trkpt lat="54.456270" lon="-3.260870"><ele>76</ele><time>2022-03-29T13:47:49Z</time><name>PT5545</name></trkpt>
<trkpt lat="54.456298" lon="-3.260827"><ele>76</ele><time>2022-03-29T13:47:54Z</time><name>PT5546</name></trkpt>
<trkpt lat="54.456327" lon="-3.260785"><ele>76</ele><time>2022-03-29T13:47:58Z</time><name>PT5547</name></trkpt>
<trkpt lat="54.456369" lon="-3.260735"><ele>76</ele><time>2022-03-29T13:48:01Z</time><name>PT5548</name></trkpt>
<trkpt lat="54.456410" lon="-3.260688"><ele>75</ele><time>2022-03-29T13:48:04Z</time><name>PT5549</name></trkpt>
<trkpt lat="54.456447" lon="-3.260644"><ele>76</ele><time>2022-03-29T13:48:09Z</time><name>PT5550</name></trkpt>
<trkpt lat="54.456483" lon="-3.260608"><ele>76</ele><time>2022-03-29T13:48:13Z</time><name>PT5551</name></trkpt>
<trkpt lat="54.456512" lon="-3.260568"><ele>76</ele><time>2022-03-29T13:48:16Z</time><name>PT5552</name></trkpt>
<trkpt lat="54.456541" lon="-3.260542"><ele>76</ele><time>2022-03-29T13:48:19Z</time><name>PT5553</name></trkpt>
<trkpt lat="54.456576" lon="-3.260505"><ele>75</ele><time>2022-03-29T13:48:24Z</time><name>PT5554</name></trkpt>
<trkpt lat="54.456600" lon="-3.260480"><ele>76</ele><time>2022-03-29T13:48:28Z</time><name>PT5555</name></trkpt>
<trkpt lat="54.456625" lon="-3.260445"><ele>76</ele><time>2022-03-29T13:48:31Z</time><name>PT5556</name></trkpt>
<trkpt lat="54.456641" lon="-3.260423"><ele>77</ele><time>2022-03-29T13:48:34Z</time><name>PT5557</name></trkpt>
<trkpt lat="54.456708" lon="-3.260371"><ele>76</ele><time>2022-03-29T13:48:37Z</time><name>PT5558</name></trkpt>
<trkpt lat="54.456755" lon="-3.260324"><ele>75</ele><time>2022-03-29T13:48:42Z</time><name>PT5559</name></trkpt>
<trkpt lat="54.456816" lon="-3.260264"><ele>77</ele><time>2022-03-29T13:48:46Z</time><name>PT5560</name></trkpt>
<trkpt lat="54.456862" lon="-3.260208"><ele>76</ele><time>2022-03-29T13:48:49Z</time><name>PT5561</name></trkpt>
<trkpt lat="54.456901" lon="-3.260166"><ele>75</ele><time>2022-03-29T13:48:54Z</time><name>PT5562</name></trkpt>
<trkpt lat="54.456931" lon="-3.260118"><ele>75</ele><time>2022-03-29T13:48:57Z</time><name>PT5563</name></trkpt>
<trkpt lat="54.456966" lon="-3.260082"><ele>75</ele><time>2022-03-29T13:49:01Z</time><name>PT5564</name></trkpt>
<trkpt lat="54.456995" lon="-3.260048"><ele>75</ele><time>2022-03-29T13:49:04Z</time><name>PT5565</name></trkpt>
<trkpt lat="54.457028" lon="-3.260018"><ele>75</ele><time>2022-03-29T13:49:07Z</time><name>PT5566</name></trkpt>
<trkpt lat="54.457078" lon="-3.259996"><ele>74</ele><time>2022-03-29T13:49:12Z</time><name>PT5567</name></trkpt>
<trkpt lat="54.457103" lon="-3.259977"><ele>73</ele><time>2022-03-29T13:49:15Z</time><name>PT5568</name></trkpt>
<trkpt lat="54.457131" lon="-3.259948"><ele>74</ele><time>2022-03-29T13:49:18Z</time><name>PT5569</name></trkpt>
<trkpt lat="54.457164" lon="-3.259912"><ele>74</ele><time>2022-03-29T13:49:22Z</time><name>PT5570</name></trkpt>
<trkpt lat="54.457188" lon="-3.259882"><ele>74</ele><time>2022-03-29T13:49:25Z</time><name>PT5571</name></trkpt>
<trkpt lat="54.457232" lon="-3.259840"><ele>73</ele><time>2022-03-29T13:49:28Z</time><name>PT5572</name></trkpt>
<trkpt lat="54.457264" lon="-3.259819"><ele>73</ele><time>2022-03-29T13:49:31Z</time><name>PT5573</name></trkpt>
<trkpt lat="54.457311" lon="-3.259779"><ele>73</ele><time>2022-03-29T13:49:36Z</time><name>PT5574</name></trkpt>
<trkpt lat="54.457359" lon="-3.259732"><ele>73</ele><time>2022-03-29T13:49:40Z</time><name>PT5575</name></trkpt>
<trkpt lat="54.457389" lon="-3.259710"><ele>73</ele><time>2022-03-29T13:49:43Z</time><name>PT5576</name></trkpt>
<trkpt lat="54.457431" lon="-3.259683"><ele>73</ele><time>2022-03-29T13:49:46Z</time><name>PT5577</name></trkpt>
<trkpt lat="54.457476" lon="-3.259625"><ele>75</ele><time>2022-03-29T13:49:51Z</time><name>PT5578</name></trkpt>
<trkpt lat="54.457512" lon="-3.259561"><ele>75</ele><time>2022-03-29T13:49:55Z</time><name>PT5579</name></trkpt>
<trkpt lat="54.457539" lon="-3.259501"><ele>75</ele><time>2022-03-29T13:49:58Z</time><name>PT5580</name></trkpt>
<trkpt lat="54.457552" lon="-3.259472"><ele>74</ele><time>2022-03-29T13:50:01Z</time><name>PT5581</name></trkpt>
<trkpt lat="54.457583" lon="-3.259470"><ele>73</ele><time>2022-03-29T13:50:06Z</time><name>PT5582</name></trkpt>
<trkpt lat="54.457597" lon="-3.259461"><ele>73</ele><time>2022-03-29T13:50:10Z</time><name>PT5583</name></trkpt>
<trkpt lat="54.457611" lon="-3.259458"><ele>74</ele><time>2022-03-29T13:50:13Z</time><name>PT5584</name></trkpt>
<trkpt lat="54.457640" lon="-3.259452"><ele>74</ele><time>2022-03-29T13:50:16Z</time><name>PT5585</name></trkpt>
<trkpt lat="54.457669" lon="-3.259445"><ele>74</ele><time>2022-03-29T13:50:19Z</time><name>PT5586</name></trkpt>
<trkpt lat="54.457707" lon="-3.259426"><ele>75</ele><time>2022-03-29T13:50:22Z</time><name>PT5587</name></trkpt>
<trkpt lat="54.457742" lon="-3.259409"><ele>73</ele><time>2022-03-29T13:50:25Z</time><name>PT5588</name></trkpt>
<trkpt lat="54.457784" lon="-3.259391"><ele>73</ele><time>2022-03-29T13:50:30Z</time><name>PT5589</name></trkpt>
<trkpt lat="54.457821" lon="-3.259366"><ele>72</ele><time>2022-03-29T13:50:34Z</time><name>PT5590</name></trkpt>
<trkpt lat="54.457849" lon="-3.259350"><ele>73</ele><time>2022-03-29T13:50:37Z</time><name>PT5591</name></trkpt>
<trkpt lat="54.457877" lon="-3.259320"><ele>74</ele><time>2022-03-29T13:50:40Z</time><name>PT5592</name></trkpt>
<trkpt lat="54.457907" lon="-3.259265"><ele>73</ele><time>2022-03-29T13:50:43Z</time><name>PT5593</name></trkpt>
<trkpt lat="54.457933" lon="-3.259214"><ele>74</ele><time>2022-03-29T13:50:48Z</time><name>PT5594</name></trkpt>
<trkpt lat="54.457959" lon="-3.259170"><ele>75</ele><time>2022-03-29T13:50:51Z</time><name>PT5595</name></trkpt>
<trkpt lat="54.457976" lon="-3.259126"><ele>75</ele><time>2022-03-29T13:50:54Z</time><name>PT5596</name></trkpt>
<trkpt lat="54.457990" lon="-3.259062"><ele>76</ele><time>2022-03-29T13:50:58Z</time><name>PT5597</name></trkpt>
<trkpt lat="54.458013" lon="-3.259000"><ele>76</ele><time>2022-03-29T13:51:01Z</time><name>PT5598</name></trkpt>
<trkpt lat="54.458030" lon="-3.258936"><ele>75</ele><time>2022-03-29T13:51:06Z</time><name>PT5599</name></trkpt>
<trkpt lat="54.458066" lon="-3.258851"><ele>73</ele><time>2022-03-29T13:51:10Z</time><name>PT5600</name></trkpt>
<trkpt lat="54.458098" lon="-3.258793"><ele>71</ele><time>2022-03-29T13:51:13Z</time><name>PT5601</name></trkpt>
<trkpt lat="54.458131" lon="-3.258728"><ele>70</ele><time>2022-03-29T13:51:16Z</time><name>PT5602</name></trkpt>
<trkpt lat="54.458148" lon="-3.258660"><ele>71</ele><time>2022-03-29T13:51:21Z</time><name>PT5603</name></trkpt>
<trkpt lat="54.458156" lon="-3.258595"><ele>71</ele><time>2022-03-29T13:51:25Z</time><name>PT5604</name></trkpt>
<trkpt lat="54.458175" lon="-3.258545"><ele>72</ele><time>2022-03-29T13:51:28Z</time><name>PT5605</name></trkpt>
<trkpt lat="54.458194" lon="-3.258491"><ele>72</ele><time>2022-03-29T13:51:31Z</time><name>PT5606</name></trkpt>
<trkpt lat="54.458215" lon="-3.258422"><ele>71</ele><time>2022-03-29T13:51:34Z</time><name>PT5607</name></trkpt>
<trkpt lat="54.458226" lon="-3.258371"><ele>72</ele><time>2022-03-29T13:51:37Z</time><name>PT5608</name></trkpt>
<trkpt lat="54.458249" lon="-3.258296"><ele>69</ele><time>2022-03-29T13:51:40Z</time><name>PT5609</name></trkpt>
<trkpt lat="54.458287" lon="-3.258242"><ele>69</ele><time>2022-03-29T13:51:45Z</time><name>PT5610</name></trkpt>
<trkpt lat="54.458309" lon="-3.258201"><ele>69</ele><time>2022-03-29T13:51:48Z</time><name>PT5611</name></trkpt>
<trkpt lat="54.458330" lon="-3.258163"><ele>69</ele><time>2022-03-29T13:51:51Z</time><name>PT5612</name></trkpt>
<trkpt lat="54.458353" lon="-3.258116"><ele>69</ele><time>2022-03-29T13:51:55Z</time><name>PT5613</name></trkpt>
<trkpt lat="54.458377" lon="-3.258054"><ele>70</ele><time>2022-03-29T13:51:58Z</time><name>PT5614</name></trkpt>
<trkpt lat="54.458398" lon="-3.258002"><ele>71</ele><time>2022-03-29T13:52:03Z</time><name>PT5615</name></trkpt>
<trkpt lat="54.458412" lon="-3.257951"><ele>72</ele><time>2022-03-29T13:52:06Z</time><name>PT5616</name></trkpt>
<trkpt lat="54.458426" lon="-3.257894"><ele>72</ele><time>2022-03-29T13:52:09Z</time><name>PT5617</name></trkpt>
<trkpt lat="54.458454" lon="-3.257832"><ele>73</ele><time>2022-03-29T13:52:13Z</time><name>PT5618</name></trkpt>
<trkpt lat="54.458467" lon="-3.257790"><ele>73</ele><time>2022-03-29T13:52:16Z</time><name>PT5619</name></trkpt>
<trkpt lat="54.458486" lon="-3.257749"><ele>73</ele><time>2022-03-29T13:52:19Z</time><name>PT5620</name></trkpt>
<trkpt lat="54.458494" lon="-3.257744"><ele>73</ele><time>2022-03-29T13:52:24Z</time><name>PT5621</name></trkpt>
<trkpt lat="54.458493" lon="-3.257744"><ele>73</ele><time>2022-03-29T13:52:28Z</time><name>PT5622</name></trkpt>
<trkpt lat="54.458509" lon="-3.257724"><ele>73</ele><time>2022-03-29T13:52:31Z</time><name>PT5623</name></trkpt>
<trkpt lat="54.458535" lon="-3.257691"><ele>73</ele><time>2022-03-29T13:52:34Z</time><name>PT5624</name></trkpt>
<trkpt lat="54.458572" lon="-3.257657"><ele>73</ele><time>2022-03-29T13:52:37Z</time><name>PT5625</name></trkpt>
<trkpt lat="54.458599" lon="-3.257634"><ele>73</ele><time>2022-03-29T13:52:40Z</time><name>PT5626</name></trkpt>
<trkpt lat="54.458632" lon="-3.257612"><ele>72</ele><time>2022-03-29T13:52:43Z</time><name>PT5627</name></trkpt>
<trkpt lat="54.458672" lon="-3.257572"><ele>72</ele><time>2022-03-29T13:52:48Z</time><name>PT5628</name></trkpt>
<trkpt lat="54.458703" lon="-3.257540"><ele>72</ele><time>2022-03-29T13:52:51Z</time><name>PT5629</name></trkpt>
<trkpt lat="54.458734" lon="-3.257517"><ele>72</ele><time>2022-03-29T13:52:54Z</time><name>PT5630</name></trkpt>
<trkpt lat="54.458773" lon="-3.257487"><ele>72</ele><time>2022-03-29T13:52:58Z</time><name>PT5631</name></trkpt>
<trkpt lat="54.458810" lon="-3.257455"><ele>72</ele><time>2022-03-29T13:53:01Z</time><name>PT5632</name></trkpt>
<trkpt lat="54.458853" lon="-3.257419"><ele>72</ele><time>2022-03-29T13:53:06Z</time><name>PT5633</name></trkpt>
<trkpt lat="54.458884" lon="-3.257391"><ele>72</ele><time>2022-03-29T13:53:09Z</time><name>PT5634</name></trkpt>
<trkpt lat="54.458925" lon="-3.257357"><ele>72</ele><time>2022-03-29T13:53:13Z</time><name>PT5635</name></trkpt>
<trkpt lat="54.458952" lon="-3.257335"><ele>72</ele><time>2022-03-29T13:53:16Z</time><name>PT5636</name></trkpt>
<trkpt lat="54.458994" lon="-3.257312"><ele>72</ele><time>2022-03-29T13:53:19Z</time><name>PT5637</name></trkpt>
<trkpt lat="54.459026" lon="-3.257310"><ele>72</ele><time>2022-03-29T13:53:22Z</time><name>PT5638</name></trkpt>
<trkpt lat="54.459069" lon="-3.257288"><ele>72</ele><time>2022-03-29T13:53:27Z</time><name>PT5639</name></trkpt>
<trkpt lat="54.459102" lon="-3.257275"><ele>72</ele><time>2022-03-29T13:53:30Z</time><name>PT5640</name></trkpt>
<trkpt lat="54.459135" lon="-3.257271"><ele>72</ele><time>2022-03-29T13:53:33Z</time><name>PT5641</name></trkpt>
<trkpt lat="54.459165" lon="-3.257261"><ele>71</ele><time>2022-03-29T13:53:36Z</time><name>PT5642</name></trkpt>
<trkpt lat="54.459201" lon="-3.257244"><ele>70</ele><time>2022-03-29T13:53:40Z</time><name>PT5643</name></trkpt>
<trkpt lat="54.459227" lon="-3.257238"><ele>70</ele><time>2022-03-29T13:53:43Z</time><name>PT5644</name></trkpt>
<trkpt lat="54.459271" lon="-3.257229"><ele>70</ele><time>2022-03-29T13:53:46Z</time><name>PT5645</name></trkpt>
<trkpt lat="54.459316" lon="-3.257223"><ele>70</ele><time>2022-03-29T13:53:51Z</time><name>PT5646</name></trkpt>
<trkpt lat="54.459352" lon="-3.257210"><ele>70</ele><time>2022-03-29T13:53:55Z</time><name>PT5647</name></trkpt>
<trkpt lat="54.459383" lon="-3.257189"><ele>70</ele><time>2022-03-29T13:53:58Z</time><name>PT5648</name></trkpt>
<trkpt lat="54.459414" lon="-3.257152"><ele>70</ele><time>2022-03-29T13:54:01Z</time><name>PT5649</name></trkpt>
<trkpt lat="54.459450" lon="-3.257113"><ele>71</ele><time>2022-03-29T13:54:04Z</time><name>PT5650</name></trkpt>
<trkpt lat="54.459485" lon="-3.257072"><ele>71</ele><time>2022-03-29T13:54:09Z</time><name>PT5651</name></trkpt>
<trkpt lat="54.459523" lon="-3.257036"><ele>72</ele><time>2022-03-29T13:54:13Z</time><name>PT5652</name></trkpt>
<trkpt lat="54.459567" lon="-3.257004"><ele>72</ele><time>2022-03-29T13:54:16Z</time><name>PT5653</name></trkpt>
<trkpt lat="54.459613" lon="-3.256975"><ele>72</ele><time>2022-03-29T13:54:21Z</time><name>PT5654</name></trkpt>
<trkpt lat="54.459661" lon="-3.256947"><ele>72</ele><time>2022-03-29T13:54:25Z</time><name>PT5655</name></trkpt>
<trkpt lat="54.459698" lon="-3.256928"><ele>73</ele><time>2022-03-29T13:54:28Z</time><name>PT5656</name></trkpt>
<trkpt lat="54.459743" lon="-3.256911"><ele>73</ele><time>2022-03-29T13:54:31Z</time><name>PT5657</name></trkpt>
<trkpt lat="54.459786" lon="-3.256884"><ele>73</ele><time>2022-03-29T13:54:36Z</time><name>PT5658</name></trkpt>
<trkpt lat="54.459821" lon="-3.256872"><ele>73</ele><time>2022-03-29T13:54:39Z</time><name>PT5659</name></trkpt>
<trkpt lat="54.459864" lon="-3.256851"><ele>74</ele><time>2022-03-29T13:54:43Z</time><name>PT5660</name></trkpt>
<trkpt lat="54.459908" lon="-3.256829"><ele>74</ele><time>2022-03-29T13:54:46Z</time><name>PT5661</name></trkpt>
<trkpt lat="54.459939" lon="-3.256806"><ele>75</ele><time>2022-03-29T13:54:49Z</time><name>PT5662</name></trkpt>
<trkpt lat="54.459978" lon="-3.256802"><ele>77</ele><time>2022-03-29T13:54:54Z</time><name>PT5663</name></trkpt>
<trkpt lat="54.460016" lon="-3.256779"><ele>78</ele><time>2022-03-29T13:54:58Z</time><name>PT5664</name></trkpt>
<trkpt lat="54.460054" lon="-3.256763"><ele>78</ele><time>2022-03-29T13:55:01Z</time><name>PT5665</name></trkpt>
<trkpt lat="54.460095" lon="-3.256743"><ele>79</ele><time>2022-03-29T13:55:04Z</time><name>PT5666</name></trkpt>
<trkpt lat="54.460143" lon="-3.256725"><ele>80</ele><time>2022-03-29T13:55:07Z</time><name>PT5667</name></trkpt>
<trkpt lat="54.460175" lon="-3.256707"><ele>80</ele><time>2022-03-29T13:55:10Z</time><name>PT5668</name></trkpt>
<trkpt lat="54.460230" lon="-3.256692"><ele>78</ele><time>2022-03-29T13:55:15Z</time><name>PT5669</name></trkpt>
<trkpt lat="54.460268" lon="-3.256668"><ele>78</ele><time>2022-03-29T13:55:18Z</time><name>PT5670</name></trkpt>
<trkpt lat="54.460302" lon="-3.256646"><ele>77</ele><time>2022-03-29T13:55:21Z</time><name>PT5671</name></trkpt>
<trkpt lat="54.460331" lon="-3.256617"><ele>77</ele><time>2022-03-29T13:55:24Z</time><name>PT5672</name></trkpt>
<trkpt lat="54.460354" lon="-3.256571"><ele>77</ele><time>2022-03-29T13:55:27Z</time><name>PT5673</name></trkpt>
<trkpt lat="54.460388" lon="-3.256511"><ele>77</ele><time>2022-03-29T13:55:31Z</time><name>PT5674</name></trkpt>
<trkpt lat="54.460417" lon="-3.256474"><ele>77</ele><time>2022-03-29T13:55:34Z</time><name>PT5675</name></trkpt>
<trkpt lat="54.460454" lon="-3.256448"><ele>78</ele><time>2022-03-29T13:55:37Z</time><name>PT5676</name></trkpt>
<trkpt lat="54.460507" lon="-3.256408"><ele>76</ele><time>2022-03-29T13:55:42Z</time><name>PT5677</name></trkpt>
<trkpt lat="54.460550" lon="-3.256360"><ele>77</ele><time>2022-03-29T13:55:46Z</time><name>PT5678</name></trkpt>
<trkpt lat="54.460597" lon="-3.256331"><ele>77</ele><time>2022-03-29T13:55:49Z</time><name>PT5679</name></trkpt>
<trkpt lat="54.460635" lon="-3.256310"><ele>76</ele><time>2022-03-29T13:55:52Z</time><name>PT5680</name></trkpt>
<trkpt lat="54.460684" lon="-3.256304"><ele>74</ele><time>2022-03-29T13:55:57Z</time><name>PT5681</name></trkpt>
<trkpt lat="54.460694" lon="-3.256325"><ele>73</ele><time>2022-03-29T13:56:00Z</time><name>PT5682</name></trkpt>
<trkpt lat="54.460694" lon="-3.256327"><ele>74</ele><time>2022-03-29T13:56:03Z</time><name>PT5683</name></trkpt>
<trkpt lat="54.460705" lon="-3.256290"><ele>74</ele><time>2022-03-29T13:56:06Z</time><name>PT5684</name></trkpt>
<trkpt lat="54.460751" lon="-3.256236"><ele>74</ele><time>2022-03-29T13:56:10Z</time><name>PT5685</name></trkpt>
<trkpt lat="54.460776" lon="-3.256204"><ele>74</ele><time>2022-03-29T13:56:13Z</time><name>PT5686</name></trkpt>
<trkpt lat="54.460803" lon="-3.256175"><ele>74</ele><time>2022-03-29T13:56:16Z</time><name>PT5687</name></trkpt>
<trkpt lat="54.460841" lon="-3.256135"><ele>74</ele><time>2022-03-29T13:56:19Z</time><name>PT5688</name></trkpt>
<trkpt lat="54.460888" lon="-3.256107"><ele>74</ele><time>2022-03-29T13:56:22Z</time><name>PT5689</name></trkpt>
<trkpt lat="54.460945" lon="-3.256113"><ele>73</ele><time>2022-03-29T13:56:27Z</time><name>PT5690</name></trkpt>
<trkpt lat="54.460984" lon="-3.256128"><ele>73</ele><time>2022-03-29T13:56:31Z</time><name>PT5691</name></trkpt>
<trkpt lat="54.461022" lon="-3.256140"><ele>74</ele><time>2022-03-29T13:56:34Z</time><name>PT5692</name></trkpt>
<trkpt lat="54.461053" lon="-3.256180"><ele>73</ele><time>2022-03-29T13:56:39Z</time><name>PT5693</name></trkpt>
<trkpt lat="54.461072" lon="-3.256167"><ele>74</ele><time>2022-03-29T13:56:42Z</time><name>PT5694</name></trkpt>
<trkpt lat="54.461096" lon="-3.256172"><ele>74</ele><time>2022-03-29T13:56:45Z</time><name>PT5695</name></trkpt>
<trkpt lat="54.461134" lon="-3.256192"><ele>73</ele><time>2022-03-29T13:56:49Z</time><name>PT5696</name></trkpt>
<trkpt lat="54.461159" lon="-3.256204"><ele>73</ele><time>2022-03-29T13:56:52Z</time><name>PT5697</name></trkpt>
<trkpt lat="54.461178" lon="-3.256177"><ele>73</ele><time>2022-03-29T13:56:55Z</time><name>PT5698</name></trkpt>
<trkpt lat="54.461199" lon="-3.256144"><ele>73</ele><time>2022-03-29T13:56:58Z</time><name>PT5699</name></trkpt>
<trkpt lat="54.461237" lon="-3.256103"><ele>74</ele><time>2022-03-29T13:57:01Z</time><name>PT5700</name></trkpt>
<trkpt lat="54.461272" lon="-3.256087"><ele>74</ele><time>2022-03-29T13:57:04Z</time><name>PT5701</name></trkpt>
<trkpt lat="54.461322" lon="-3.256068"><ele>74</ele><time>2022-03-29T13:57:09Z</time><name>PT5702</name></trkpt>
<trkpt lat="54.461362" lon="-3.256060"><ele>74</ele><time>2022-03-29T13:57:12Z</time><name>PT5703</name></trkpt>
<trkpt lat="54.461400" lon="-3.256051"><ele>74</ele><time>2022-03-29T13:57:15Z</time><name>PT5704</name></trkpt>
<trkpt lat="54.461449" lon="-3.256042"><ele>74</ele><time>2022-03-29T13:57:19Z</time><name>PT5705</name></trkpt>
<trkpt lat="54.461486" lon="-3.256033"><ele>74</ele><time>2022-03-29T13:57:22Z</time><name>PT5706</name></trkpt>
<trkpt lat="54.461535" lon="-3.256012"><ele>74</ele><time>2022-03-29T13:57:25Z</time><name>PT5707</name></trkpt>
<trkpt lat="54.461584" lon="-3.256005"><ele>75</ele><time>2022-03-29T13:57:30Z</time><name>PT5708</name></trkpt>
<trkpt lat="54.461633" lon="-3.256003"><ele>75</ele><time>2022-03-29T13:57:34Z</time><name>PT5709</name></trkpt>
<trkpt lat="54.461670" lon="-3.255996"><ele>75</ele><time>2022-03-29T13:57:37Z</time><name>PT5710</name></trkpt>
<trkpt lat="54.461717" lon="-3.256015"><ele>74</ele><time>2022-03-29T13:57:40Z</time><name>PT5711</name></trkpt>
<trkpt lat="54.461760" lon="-3.256075"><ele>74</ele><time>2022-03-29T13:57:45Z</time><name>PT5712</name></trkpt>
<trkpt lat="54.461767" lon="-3.256129"><ele>74</ele><time>2022-03-29T13:57:48Z</time><name>PT5713</name></trkpt>
<trkpt lat="54.461799" lon="-3.256160"><ele>74</ele><time>2022-03-29T13:57:52Z</time><name>PT5714</name></trkpt>
<trkpt lat="54.461826" lon="-3.256167"><ele>74</ele><time>2022-03-29T13:57:55Z</time><name>PT5715</name></trkpt>
<trkpt lat="54.461858" lon="-3.256147"><ele>75</ele><time>2022-03-29T13:57:58Z</time><name>PT5716</name></trkpt>
<trkpt lat="54.461884" lon="-3.256146"><ele>74</ele><time>2022-03-29T13:58:01Z</time><name>PT5717</name></trkpt>
<trkpt lat="54.461931" lon="-3.256152"><ele>75</ele><time>2022-03-29T13:58:04Z</time><name>PT5718</name></trkpt>
<trkpt lat="54.461964" lon="-3.256161"><ele>75</ele><time>2022-03-29T13:58:07Z</time><name>PT5719</name></trkpt>
<trkpt lat="54.461993" lon="-3.256166"><ele>76</ele><time>2022-03-29T13:58:10Z</time><name>PT5720</name></trkpt>
<trkpt lat="54.462017" lon="-3.256169"><ele>75</ele><time>2022-03-29T13:58:15Z</time><name>PT5721</name></trkpt>
<trkpt lat="54.462030" lon="-3.256191"><ele>76</ele><time>2022-03-29T13:58:18Z</time><name>PT5722</name></trkpt>
<trkpt lat="54.462038" lon="-3.256215"><ele>77</ele><time>2022-03-29T13:58:22Z</time><name>PT5723</name></trkpt>
<trkpt lat="54.462042" lon="-3.256212"><ele>76</ele><time>2022-03-29T13:58:25Z</time><name>PT5724</name></trkpt>
<trkpt lat="54.462067" lon="-3.256222"><ele>76</ele><time>2022-03-29T13:58:31Z</time><name>PT5725</name></trkpt>
<trkpt lat="54.462128" lon="-3.256253"><ele>77</ele><time>2022-03-29T13:58:36Z</time><name>PT5726</name></trkpt>
<trkpt lat="54.462174" lon="-3.256280"><ele>77</ele><time>2022-03-29T13:58:40Z</time><name>PT5727</name></trkpt>
<trkpt lat="54.462200" lon="-3.256305"><ele>76</ele><time>2022-03-29T13:58:43Z</time><name>PT5728</name></trkpt>
<trkpt lat="54.462242" lon="-3.256335"><ele>76</ele><time>2022-03-29T13:58:46Z</time><name>PT5729</name></trkpt>
<trkpt lat="54.462287" lon="-3.256362"><ele>76</ele><time>2022-03-29T13:58:51Z</time><name>PT5730</name></trkpt>
<trkpt lat="54.462327" lon="-3.256380"><ele>76</ele><time>2022-03-29T13:58:55Z</time><name>PT5731</name></trkpt>
<trkpt lat="54.462373" lon="-3.256402"><ele>76</ele><time>2022-03-29T13:58:58Z</time><name>PT5732</name></trkpt>
<trkpt lat="54.462417" lon="-3.256426"><ele>76</ele><time>2022-03-29T13:59:03Z</time><name>PT5733</name></trkpt>
<trkpt lat="54.462461" lon="-3.256440"><ele>76</ele><time>2022-03-29T13:59:07Z</time><name>PT5734</name></trkpt>
<trkpt lat="54.462507" lon="-3.256450"><ele>76</ele><time>2022-03-29T13:59:10Z</time><name>PT5735</name></trkpt>
<trkpt lat="54.462558" lon="-3.256458"><ele>77</ele><time>2022-03-29T13:59:15Z</time><name>PT5736</name></trkpt>
<trkpt lat="54.462585" lon="-3.256468"><ele>76</ele><time>2022-03-29T13:59:18Z</time><name>PT5737</name></trkpt>
<trkpt lat="54.462634" lon="-3.256481"><ele>76</ele><time>2022-03-29T13:59:22Z</time><name>PT5738</name></trkpt>
<trkpt lat="54.462663" lon="-3.256495"><ele>75</ele><time>2022-03-29T13:59:25Z</time><name>PT5739</name></trkpt>
<trkpt lat="54.462696" lon="-3.256501"><ele>75</ele><time>2022-03-29T13:59:28Z</time><name>PT5740</name></trkpt>
<trkpt lat="54.462746" lon="-3.256489"><ele>76</ele><time>2022-03-29T13:59:31Z</time><name>PT5741</name></trkpt>
<trkpt lat="54.462779" lon="-3.256497"><ele>76</ele><time>2022-03-29T13:59:34Z</time><name>PT5742</name></trkpt>
<trkpt lat="54.462811" lon="-3.256488"><ele>76</ele><time>2022-03-29T13:59:37Z</time><name>PT5743</name></trkpt>
<trkpt lat="54.462853" lon="-3.256488"><ele>76</ele><time>2022-03-29T13:59:42Z</time><name>PT5744</name></trkpt>
<trkpt lat="54.462895" lon="-3.256479"><ele>76</ele><time>2022-03-29T13:59:46Z</time><name>PT5745</name></trkpt>
<trkpt lat="54.462926" lon="-3.256473"><ele>77</ele><time>2022-03-29T13:59:49Z</time><name>PT5746</name></trkpt>
<trkpt lat="54.462970" lon="-3.256474"><ele>77</ele><time>2022-03-29T13:59:52Z</time><name>PT5747</name></trkpt>
<trkpt lat="54.463003" lon="-3.256458"><ele>76</ele><time>2022-03-29T13:59:57Z</time><name>PT5748</name></trkpt>
<trkpt lat="54.463038" lon="-3.256453"><ele>75</ele><time>2022-03-29T14:00:00Z</time><name>PT5749</name></trkpt>
<trkpt lat="54.463076" lon="-3.256444"><ele>75</ele><time>2022-03-29T14:00:03Z</time><name>PT5750</name></trkpt>
<trkpt lat="54.463122" lon="-3.256438"><ele>76</ele><time>2022-03-29T14:00:06Z</time><name>PT5751</name></trkpt>
<trkpt lat="54.463171" lon="-3.256424"><ele>76</ele><time>2022-03-29T14:00:10Z</time><name>PT5752</name></trkpt>
<trkpt lat="54.463220" lon="-3.256399"><ele>76</ele><time>2022-03-29T14:00:13Z</time><name>PT5753</name></trkpt>
<trkpt lat="54.463249" lon="-3.256395"><ele>75</ele><time>2022-03-29T14:00:16Z</time><name>PT5754</name></trkpt>
<trkpt lat="54.463298" lon="-3.256398"><ele>76</ele><time>2022-03-29T14:00:21Z</time><name>PT5755</name></trkpt>
<trkpt lat="54.463335" lon="-3.256404"><ele>76</ele><time>2022-03-29T14:00:24Z</time><name>PT5756</name></trkpt>
<trkpt lat="54.463382" lon="-3.256416"><ele>76</ele><time>2022-03-29T14:00:28Z</time><name>PT5757</name></trkpt>
<trkpt lat="54.463413" lon="-3.256420"><ele>76</ele><time>2022-03-29T14:00:31Z</time><name>PT5758</name></trkpt>
<trkpt lat="54.463462" lon="-3.256434"><ele>77</ele><time>2022-03-29T14:00:34Z</time><name>PT5759</name></trkpt>
<trkpt lat="54.463501" lon="-3.256455"><ele>77</ele><time>2022-03-29T14:00:39Z</time><name>PT5760</name></trkpt>
<trkpt lat="54.463530" lon="-3.256474"><ele>77</ele><time>2022-03-29T14:00:42Z</time><name>PT5761</name></trkpt>
<trkpt lat="54.463576" lon="-3.256503"><ele>78</ele><time>2022-03-29T14:00:46Z</time><name>PT5762</name></trkpt>
<trkpt lat="54.463610" lon="-3.256517"><ele>78</ele><time>2022-03-29T14:00:49Z</time><name>PT5763</name></trkpt>
<trkpt lat="54.463641" lon="-3.256542"><ele>77</ele><time>2022-03-29T14:00:52Z</time><name>PT5764</name></trkpt>
<trkpt lat="54.463673" lon="-3.256565"><ele>78</ele><time>2022-03-29T14:00:55Z</time><name>PT5765</name></trkpt>
<trkpt lat="54.463697" lon="-3.256595"><ele>78</ele><time>2022-03-29T14:00:58Z</time><name>PT5766</name></trkpt>
<trkpt lat="54.463738" lon="-3.256641"><ele>78</ele><time>2022-03-29T14:01:01Z</time><name>PT5767</name></trkpt>
<trkpt lat="54.463768" lon="-3.256677"><ele>78</ele><time>2022-03-29T14:01:06Z</time><name>PT5768</name></trkpt>
<trkpt lat="54.463797" lon="-3.256697"><ele>77</ele><time>2022-03-29T14:01:09Z</time><name>PT5769</name></trkpt>
<trkpt lat="54.463844" lon="-3.256723"><ele>78</ele><time>2022-03-29T14:01:13Z</time><name>PT5770</name></trkpt>
<trkpt lat="54.463878" lon="-3.256736"><ele>77</ele><time>2022-03-29T14:01:16Z</time><name>PT5771</name></trkpt>
<trkpt lat="54.463904" lon="-3.256727"><ele>78</ele><time>2022-03-29T14:01:19Z</time><name>PT5772</name></trkpt>
<trkpt lat="54.463920" lon="-3.256733"><ele>78</ele><time>2022-03-29T14:01:24Z</time><name>PT5773</name></trkpt>
<trkpt lat="54.463946" lon="-3.256734"><ele>78</ele><time>2022-03-29T14:01:27Z</time><name>PT5774</name></trkpt>
<trkpt lat="54.463970" lon="-3.256745"><ele>79</ele><time>2022-03-29T14:01:30Z</time><name>PT5775</name></trkpt>
<trkpt lat="54.464004" lon="-3.256737"><ele>79</ele><time>2022-03-29T14:01:34Z</time><name>PT5776</name></trkpt>
<trkpt lat="54.464045" lon="-3.256715"><ele>79</ele><time>2022-03-29T14:01:37Z</time><name>PT5777</name></trkpt>
<trkpt lat="54.464074" lon="-3.256694"><ele>79</ele><time>2022-03-29T14:01:40Z</time><name>PT5778</name></trkpt>
<trkpt lat="54.464109" lon="-3.256665"><ele>80</ele><time>2022-03-29T14:01:45Z</time><name>PT5779</name></trkpt>
<trkpt lat="54.464149" lon="-3.256643"><ele>80</ele><time>2022-03-29T14:01:49Z</time><name>PT5780</name></trkpt>
<trkpt lat="54.464189" lon="-3.256618"><ele>80</ele><time>2022-03-29T14:01:52Z</time><name>PT5781</name></trkpt>
<trkpt lat="54.464225" lon="-3.256583"><ele>79</ele><time>2022-03-29T14:01:57Z</time><name>PT5782</name></trkpt>
<trkpt lat="54.464266" lon="-3.256563"><ele>79</ele><time>2022-03-29T14:02:00Z</time><name>PT5783</name></trkpt>
<trkpt lat="54.464318" lon="-3.256550"><ele>79</ele><time>2022-03-29T14:02:04Z</time><name>PT5784</name></trkpt>
<trkpt lat="54.464373" lon="-3.256538"><ele>79</ele><time>2022-03-29T14:02:07Z</time><name>PT5785</name></trkpt>
<trkpt lat="54.464418" lon="-3.256535"><ele>79</ele><time>2022-03-29T14:02:10Z</time><name>PT5786</name></trkpt>
<trkpt lat="54.464468" lon="-3.256521"><ele>80</ele><time>2022-03-29T14:02:15Z</time><name>PT5787</name></trkpt>
<trkpt lat="54.464507" lon="-3.256517"><ele>80</ele><time>2022-03-29T14:02:18Z</time><name>PT5788</name></trkpt>
<trkpt lat="54.464552" lon="-3.256516"><ele>80</ele><time>2022-03-29T14:02:22Z</time><name>PT5789</name></trkpt>
<trkpt lat="54.464588" lon="-3.256511"><ele>80</ele><time>2022-03-29T14:02:25Z</time><name>PT5790</name></trkpt>
<trkpt lat="54.464637" lon="-3.256515"><ele>80</ele><time>2022-03-29T14:02:28Z</time><name>PT5791</name></trkpt>
<trkpt lat="54.464684" lon="-3.256508"><ele>80</ele><time>2022-03-29T14:02:33Z</time><name>PT5792</name></trkpt>
<trkpt lat="54.464709" lon="-3.256521"><ele>80</ele><time>2022-03-29T14:02:36Z</time><name>PT5793</name></trkpt>
<trkpt lat="54.464739" lon="-3.256529"><ele>79</ele><time>2022-03-29T14:02:39Z</time><name>PT5794</name></trkpt>
<trkpt lat="54.464773" lon="-3.256521"><ele>79</ele><time>2022-03-29T14:02:42Z</time><name>PT5795</name></trkpt>
<trkpt lat="54.464824" lon="-3.256507"><ele>79</ele><time>2022-03-29T14:02:46Z</time><name>PT5796</name></trkpt>
<trkpt lat="54.464864" lon="-3.256496"><ele>79</ele><time>2022-03-29T14:02:49Z</time><name>PT5797</name></trkpt>
<trkpt lat="54.464904" lon="-3.256486"><ele>79</ele><time>2022-03-29T14:02:52Z</time><name>PT5798</name></trkpt>
<trkpt lat="54.464955" lon="-3.256477"><ele>79</ele><time>2022-03-29T14:02:55Z</time><name>PT5799</name></trkpt>
<trkpt lat="54.464995" lon="-3.256472"><ele>80</ele><time>2022-03-29T14:02:58Z</time><name>PT5800</name></trkpt>
<trkpt lat="54.465045" lon="-3.256452"><ele>80</ele><time>2022-03-29T14:03:03Z</time><name>PT5801</name></trkpt>
<trkpt lat="54.465095" lon="-3.256448"><ele>80</ele><time>2022-03-29T14:03:07Z</time><name>PT5802</name></trkpt>
<trkpt lat="54.465135" lon="-3.256452"><ele>80</ele><time>2022-03-29T14:03:10Z</time><name>PT5803</name></trkpt>
<trkpt lat="54.465120" lon="-3.256442"><ele>80</ele><time>2022-03-29T14:03:15Z</time><name>PT5804</name></trkpt>
<trkpt lat="54.465096" lon="-3.256430"><ele>80</ele><time>2022-03-29T14:03:18Z</time><name>PT5805</name></trkpt>
<trkpt lat="54.465092" lon="-3.256423"><ele>81</ele><time>2022-03-29T14:03:21Z</time><name>PT5806</name></trkpt>
<trkpt lat="54.465094" lon="-3.256424"><ele>81</ele><time>2022-03-29T14:03:25Z</time><name>PT5807</name></trkpt>
<trkpt lat="54.465100" lon="-3.256425"><ele>80</ele><time>2022-03-29T14:03:39Z</time><name>PT5808</name></trkpt>
<trkpt lat="54.465146" lon="-3.256423"><ele>80</ele><time>2022-03-29T14:03:42Z</time><name>PT5809</name></trkpt>
<trkpt lat="54.465202" lon="-3.256413"><ele>80</ele><time>2022-03-29T14:03:46Z</time><name>PT5810</name></trkpt>
<trkpt lat="54.465255" lon="-3.256415"><ele>80</ele><time>2022-03-29T14:03:49Z</time><name>PT5811</name></trkpt>
<trkpt lat="54.465306" lon="-3.256415"><ele>80</ele><time>2022-03-29T14:03:54Z</time><name>PT5812</name></trkpt>
<trkpt lat="54.465354" lon="-3.256419"><ele>80</ele><time>2022-03-29T14:03:58Z</time><name>PT5813</name></trkpt>
<trkpt lat="54.465392" lon="-3.256423"><ele>80</ele><time>2022-03-29T14:04:01Z</time><name>PT5814</name></trkpt>
<trkpt lat="54.465442" lon="-3.256437"><ele>81</ele><time>2022-03-29T14:04:04Z</time><name>PT5815</name></trkpt>
<trkpt lat="54.465492" lon="-3.256449"><ele>81</ele><time>2022-03-29T14:04:09Z</time><name>PT5816</name></trkpt>
<trkpt lat="54.465531" lon="-3.256463"><ele>81</ele><time>2022-03-29T14:04:12Z</time><name>PT5817</name></trkpt>
<trkpt lat="54.465577" lon="-3.256489"><ele>81</ele><time>2022-03-29T14:04:16Z</time><name>PT5818</name></trkpt>
<trkpt lat="54.465611" lon="-3.256502"><ele>81</ele><time>2022-03-29T14:04:19Z</time><name>PT5819</name></trkpt>
<trkpt lat="54.465660" lon="-3.256513"><ele>81</ele><time>2022-03-29T14:04:22Z</time><name>PT5820</name></trkpt>
<trkpt lat="54.465696" lon="-3.256525"><ele>81</ele><time>2022-03-29T14:04:25Z</time><name>PT5821</name></trkpt>
<trkpt lat="54.465743" lon="-3.256537"><ele>81</ele><time>2022-03-29T14:04:30Z</time><name>PT5822</name></trkpt>
<trkpt lat="54.465793" lon="-3.256541"><ele>81</ele><time>2022-03-29T14:04:34Z</time><name>PT5823</name></trkpt>
<trkpt lat="54.465838" lon="-3.256540"><ele>81</ele><time>2022-03-29T14:04:37Z</time><name>PT5824</name></trkpt>
<trkpt lat="54.465886" lon="-3.256540"><ele>81</ele><time>2022-03-29T14:04:42Z</time><name>PT5825</name></trkpt>
<trkpt lat="54.465932" lon="-3.256534"><ele>81</ele><time>2022-03-29T14:04:46Z</time><name>PT5826</name></trkpt>
<trkpt lat="54.465969" lon="-3.256535"><ele>81</ele><time>2022-03-29T14:04:49Z</time><name>PT5827</name></trkpt>
<trkpt lat="54.466007" lon="-3.256541"><ele>80</ele><time>2022-03-29T14:04:52Z</time><name>PT5828</name></trkpt>
<trkpt lat="54.466043" lon="-3.256546"><ele>80</ele><time>2022-03-29T14:04:55Z</time><name>PT5829</name></trkpt>
<trkpt lat="54.466091" lon="-3.256552"><ele>80</ele><time>2022-03-29T14:04:58Z</time><name>PT5830</name></trkpt>
<trkpt lat="54.466140" lon="-3.256566"><ele>80</ele><time>2022-03-29T14:05:03Z</time><name>PT5831</name></trkpt>
<trkpt lat="54.466186" lon="-3.256581"><ele>80</ele><time>2022-03-29T14:05:07Z</time><name>PT5832</name></trkpt>
<trkpt lat="54.466223" lon="-3.256583"><ele>80</ele><time>2022-03-29T14:05:10Z</time><name>PT5833</name></trkpt>
<trkpt lat="54.466270" lon="-3.256598"><ele>81</ele><time>2022-03-29T14:05:13Z</time><name>PT5834</name></trkpt>
<trkpt lat="54.466309" lon="-3.256602"><ele>81</ele><time>2022-03-29T14:05:16Z</time><name>PT5835</name></trkpt>
<trkpt lat="54.466348" lon="-3.256604"><ele>80</ele><time>2022-03-29T14:05:19Z</time><name>PT5836</name></trkpt>
<trkpt lat="54.466396" lon="-3.256603"><ele>81</ele><time>2022-03-29T14:05:24Z</time><name>PT5837</name></trkpt>
<trkpt lat="54.466445" lon="-3.256592"><ele>81</ele><time>2022-03-29T14:05:28Z</time><name>PT5838</name></trkpt>
<trkpt lat="54.466482" lon="-3.256582"><ele>81</ele><time>2022-03-29T14:05:31Z</time><name>PT5839</name></trkpt>
<trkpt lat="54.466519" lon="-3.256575"><ele>82</ele><time>2022-03-29T14:05:34Z</time><name>PT5840</name></trkpt>
<trkpt lat="54.466563" lon="-3.256543"><ele>82</ele><time>2022-03-29T14:05:37Z</time><name>PT5841</name></trkpt>
<trkpt lat="54.466595" lon="-3.256523"><ele>82</ele><time>2022-03-29T14:05:40Z</time><name>PT5842</name></trkpt>
<trkpt lat="54.466635" lon="-3.256488"><ele>82</ele><time>2022-03-29T14:05:45Z</time><name>PT5843</name></trkpt>
<trkpt lat="54.466667" lon="-3.256455"><ele>82</ele><time>2022-03-29T14:05:48Z</time><name>PT5844</name></trkpt>
<trkpt lat="54.466705" lon="-3.256425"><ele>82</ele><time>2022-03-29T14:05:52Z</time><name>PT5845</name></trkpt>
<trkpt lat="54.466736" lon="-3.256396"><ele>81</ele><time>2022-03-29T14:05:55Z</time><name>PT5846</name></trkpt>
<trkpt lat="54.466786" lon="-3.256359"><ele>80</ele><time>2022-03-29T14:05:58Z</time><name>PT5847</name></trkpt>
<trkpt lat="54.466823" lon="-3.256343"><ele>81</ele><time>2022-03-29T14:06:01Z</time><name>PT5848</name></trkpt>
<trkpt lat="54.466869" lon="-3.256325"><ele>81</ele><time>2022-03-29T14:06:06Z</time><name>PT5849</name></trkpt>
<trkpt lat="54.466918" lon="-3.256314"><ele>81</ele><time>2022-03-29T14:06:10Z</time><name>PT5850</name></trkpt>
<trkpt lat="54.466953" lon="-3.256314"><ele>81</ele><time>2022-03-29T14:06:13Z</time><name>PT5851</name></trkpt>
<trkpt lat="54.467002" lon="-3.256306"><ele>81</ele><time>2022-03-29T14:06:16Z</time><name>PT5852</name></trkpt>
<trkpt lat="54.467037" lon="-3.256301"><ele>81</ele><time>2022-03-29T14:06:19Z</time><name>PT5853</name></trkpt>
<trkpt lat="54.467072" lon="-3.256294"><ele>81</ele><time>2022-03-29T14:06:22Z</time><name>PT5854</name></trkpt>
<trkpt lat="54.467119" lon="-3.256290"><ele>81</ele><time>2022-03-29T14:06:27Z</time><name>PT5855</name></trkpt>
<trkpt lat="54.467157" lon="-3.256279"><ele>81</ele><time>2022-03-29T14:06:30Z</time><name>PT5856</name></trkpt>
<trkpt lat="54.467204" lon="-3.256278"><ele>82</ele><time>2022-03-29T14:06:34Z</time><name>PT5857</name></trkpt>
<trkpt lat="54.467240" lon="-3.256282"><ele>82</ele><time>2022-03-29T14:06:37Z</time><name>PT5858</name></trkpt>
<trkpt lat="54.467291" lon="-3.256269"><ele>83</ele><time>2022-03-29T14:06:40Z</time><name>PT5859</name></trkpt>
<trkpt lat="54.467327" lon="-3.256270"><ele>83</ele><time>2022-03-29T14:06:43Z</time><name>PT5860</name></trkpt>
<trkpt lat="54.467372" lon="-3.256269"><ele>83</ele><time>2022-03-29T14:06:48Z</time><name>PT5861</name></trkpt>
<trkpt lat="54.467392" lon="-3.256329"><ele>83</ele><time>2022-03-29T14:06:52Z</time><name>PT5862</name></trkpt>
<trkpt lat="54.467406" lon="-3.256389"><ele>83</ele><time>2022-03-29T14:06:55Z</time><name>PT5863</name></trkpt>
<trkpt lat="54.467417" lon="-3.256432"><ele>83</ele><time>2022-03-29T14:06:58Z</time><name>PT5864</name></trkpt>
<trkpt lat="54.467454" lon="-3.256472"><ele>83</ele><time>2022-03-29T14:07:01Z</time><name>PT5865</name></trkpt>
<trkpt lat="54.467485" lon="-3.256503"><ele>83</ele><time>2022-03-29T14:07:04Z</time><name>PT5866</name></trkpt>
<trkpt lat="54.467531" lon="-3.256527"><ele>82</ele><time>2022-03-29T14:07:09Z</time><name>PT5867</name></trkpt>
<trkpt lat="54.467579" lon="-3.256534"><ele>83</ele><time>2022-03-29T14:07:13Z</time><name>PT5868</name></trkpt>
<trkpt lat="54.467609" lon="-3.256537"><ele>83</ele><time>2022-03-29T14:07:16Z</time><name>PT5869</name></trkpt>
<trkpt lat="54.467650" lon="-3.256534"><ele>83</ele><time>2022-03-29T14:07:19Z</time><name>PT5870</name></trkpt>
<trkpt lat="54.467680" lon="-3.256536"><ele>83</ele><time>2022-03-29T14:07:22Z</time><name>PT5871</name></trkpt>
<trkpt lat="54.467703" lon="-3.256559"><ele>83</ele><time>2022-03-29T14:07:25Z</time><name>PT5872</name></trkpt>
<trkpt lat="54.467722" lon="-3.256605"><ele>82</ele><time>2022-03-29T14:07:30Z</time><name>PT5873</name></trkpt>
<trkpt lat="54.467723" lon="-3.256651"><ele>81</ele><time>2022-03-29T14:07:33Z</time><name>PT5874</name></trkpt>
<trkpt lat="54.467742" lon="-3.256684"><ele>82</ele><time>2022-03-29T14:07:36Z</time><name>PT5875</name></trkpt>
<trkpt lat="54.467758" lon="-3.256726"><ele>82</ele><time>2022-03-29T14:07:39Z</time><name>PT5876</name></trkpt>
<trkpt lat="54.467784" lon="-3.256753"><ele>84</ele><time>2022-03-29T14:07:43Z</time><name>PT5877</name></trkpt>
<trkpt lat="54.467814" lon="-3.256765"><ele>84</ele><time>2022-03-29T14:07:46Z</time><name>PT5878</name></trkpt>
<trkpt lat="54.467855" lon="-3.256772"><ele>84</ele><time>2022-03-29T14:07:49Z</time><name>PT5879</name></trkpt>
<trkpt lat="54.467890" lon="-3.256768"><ele>85</ele><time>2022-03-29T14:07:54Z</time><name>PT5880</name></trkpt>
<trkpt lat="54.467923" lon="-3.256748"><ele>87</ele><time>2022-03-29T14:07:58Z</time><name>PT5881</name></trkpt>
<trkpt lat="54.467942" lon="-3.256749"><ele>87</ele><time>2022-03-29T14:08:01Z</time><name>PT5882</name></trkpt>
<trkpt lat="54.467973" lon="-3.256739"><ele>88</ele><time>2022-03-29T14:08:04Z</time><name>PT5883</name></trkpt>
<trkpt lat="54.468009" lon="-3.256731"><ele>86</ele><time>2022-03-29T14:08:07Z</time><name>PT5884</name></trkpt>
<trkpt lat="54.468046" lon="-3.256709"><ele>84</ele><time>2022-03-29T14:08:10Z</time><name>PT5885</name></trkpt>
<trkpt lat="54.468085" lon="-3.256687"><ele>83</ele><time>2022-03-29T14:08:13Z</time><name>PT5886</name></trkpt>
<trkpt lat="54.468107" lon="-3.256686"><ele>84</ele><time>2022-03-29T14:08:16Z</time><name>PT5887</name></trkpt>
<trkpt lat="54.468124" lon="-3.256658"><ele>83</ele><time>2022-03-29T14:08:21Z</time><name>PT5888</name></trkpt>
<trkpt lat="54.468150" lon="-3.256629"><ele>84</ele><time>2022-03-29T14:08:24Z</time><name>PT5889</name></trkpt>
<trkpt lat="54.468178" lon="-3.256628"><ele>85</ele><time>2022-03-29T14:08:28Z</time><name>PT5890</name></trkpt>
<trkpt lat="54.468194" lon="-3.256625"><ele>86</ele><time>2022-03-29T14:08:31Z</time><name>PT5891</name></trkpt>
<trkpt lat="54.468205" lon="-3.256638"><ele>86</ele><time>2022-03-29T14:08:34Z</time><name>PT5892</name></trkpt>
<trkpt lat="54.468204" lon="-3.256597"><ele>85</ele><time>2022-03-29T14:08:37Z</time><name>PT5893</name></trkpt>
<trkpt lat="54.468236" lon="-3.256569"><ele>85</ele><time>2022-03-29T14:08:42Z</time><name>PT5894</name></trkpt>
<trkpt lat="54.468266" lon="-3.256568"><ele>84</ele><time>2022-03-29T14:08:46Z</time><name>PT5895</name></trkpt>
<trkpt lat="54.468275" lon="-3.256572"><ele>83</ele><time>2022-03-29T14:08:49Z</time><name>PT5896</name></trkpt>
<trkpt lat="54.468291" lon="-3.256566"><ele>82</ele><time>2022-03-29T14:08:52Z</time><name>PT5897</name></trkpt>
<trkpt lat="54.468311" lon="-3.256573"><ele>83</ele><time>2022-03-29T14:08:55Z</time><name>PT5898</name></trkpt>
<trkpt lat="54.468317" lon="-3.256577"><ele>84</ele><time>2022-03-29T14:08:58Z</time><name>PT5899</name></trkpt>
<trkpt lat="54.468317" lon="-3.256586"><ele>85</ele><time>2022-03-29T14:09:10Z</time><name>PT5900</name></trkpt>
<trkpt lat="54.468283" lon="-3.256590"><ele>85</ele><time>2022-03-29T14:09:13Z</time><name>PT5901</name></trkpt>
<trkpt lat="54.468263" lon="-3.256589"><ele>86</ele><time>2022-03-29T14:09:16Z</time><name>PT5902</name></trkpt>
<trkpt lat="54.468257" lon="-3.256578"><ele>86</ele><time>2022-03-29T14:09:21Z</time><name>PT5903</name></trkpt>
<trkpt lat="54.468255" lon="-3.256581"><ele>86</ele><time>2022-03-29T14:09:24Z</time><name>PT5904</name></trkpt>
<trkpt lat="54.468248" lon="-3.256581"><ele>86</ele><time>2022-03-29T14:09:28Z</time><name>PT5905</name></trkpt>
<trkpt lat="54.468259" lon="-3.256584"><ele>87</ele><time>2022-03-29T14:09:34Z</time><name>PT5906</name></trkpt>
<trkpt lat="54.468253" lon="-3.256583"><ele>87</ele><time>2022-03-29T14:09:42Z</time><name>PT5907</name></trkpt>
<trkpt lat="54.468249" lon="-3.256579"><ele>87</ele><time>2022-03-29T14:09:46Z</time><name>PT5908</name></trkpt>
<trkpt lat="54.468255" lon="-3.256585"><ele>88</ele><time>2022-03-29T14:09:58Z</time><name>PT5909</name></trkpt>
<trkpt lat="54.468260" lon="-3.256595"><ele>88</ele><time>2022-03-29T14:10:06Z</time><name>PT5910</name></trkpt>
<trkpt lat="54.468258" lon="-3.256596"><ele>89</ele><time>2022-03-29T14:10:19Z</time><name>PT5911</name></trkpt>
<trkpt lat="54.468262" lon="-3.256595"><ele>89</ele><time>2022-03-29T14:10:22Z</time><name>PT5912</name></trkpt>
<trkpt lat="54.468260" lon="-3.256601"><ele>90</ele><time>2022-03-29T14:10:34Z</time><name>PT5913</name></trkpt>
<trkpt lat="54.468249" lon="-3.256662"><ele>89</ele><time>2022-03-29T14:10:52Z</time><name>PT5914</name></trkpt>
<trkpt lat="54.468238" lon="-3.256697"><ele>91</ele><time>2022-03-29T14:10:55Z</time><name>PT5915</name></trkpt>
<trkpt lat="54.468235" lon="-3.256693"><ele>90</ele><time>2022-03-29T14:10:58Z</time><name>PT5916</name></trkpt>
<trkpt lat="54.468226" lon="-3.256693"><ele>90</ele><time>2022-03-29T14:11:01Z</time><name>PT5917</name></trkpt>
<trkpt lat="54.468233" lon="-3.256705"><ele>90</ele><time>2022-03-29T14:11:04Z</time><name>PT5918</name></trkpt>
<trkpt lat="54.468221" lon="-3.256731"><ele>90</ele><time>2022-03-29T14:11:09Z</time><name>PT5919</name></trkpt>
<trkpt lat="54.468218" lon="-3.256725"><ele>88</ele><time>2022-03-29T14:11:27Z</time><name>PT5920</name></trkpt>
<trkpt lat="54.468218" lon="-3.256709"><ele>87</ele><time>2022-03-29T14:11:31Z</time><name>PT5921</name></trkpt>
<trkpt lat="54.468212" lon="-3.256668"><ele>86</ele><time>2022-03-29T14:11:37Z</time><name>PT5922</name></trkpt>
<trkpt lat="54.468202" lon="-3.256614"><ele>86</ele><time>2022-03-29T14:11:40Z</time><name>PT5923</name></trkpt>
<trkpt lat="54.468199" lon="-3.256650"><ele>86</ele><time>2022-03-29T14:11:43Z</time><name>PT5924</name></trkpt>
<trkpt lat="54.468217" lon="-3.256684"><ele>86</ele><time>2022-03-29T14:11:46Z</time><name>PT5925</name></trkpt>
<trkpt lat="54.468224" lon="-3.256719"><ele>87</ele><time>2022-03-29T14:11:51Z</time><name>PT5926</name></trkpt>
<trkpt lat="54.468221" lon="-3.256720"><ele>88</ele><time>2022-03-29T14:11:54Z</time><name>PT5927</name></trkpt>
<trkpt lat="54.468219" lon="-3.256708"><ele>87</ele><time>2022-03-29T14:12:34Z</time><name>PT5928</name></trkpt>
<trkpt lat="54.468209" lon="-3.256675"><ele>88</ele><time>2022-03-29T14:12:37Z</time><name>PT5929</name></trkpt>
<trkpt lat="54.468198" lon="-3.256622"><ele>88</ele><time>2022-03-29T14:12:42Z</time><name>PT5930</name></trkpt>
<trkpt lat="54.468233" lon="-3.256589"><ele>87</ele><time>2022-03-29T14:12:46Z</time><name>PT5931</name></trkpt>
<trkpt lat="54.468243" lon="-3.256585"><ele>86</ele><time>2022-03-29T14:12:49Z</time><name>PT5932</name></trkpt>
<trkpt lat="54.468255" lon="-3.256585"><ele>86</ele><time>2022-03-29T14:13:01Z</time><name>PT5933</name></trkpt>
<trkpt lat="54.468257" lon="-3.256583"><ele>86</ele><time>2022-03-29T14:13:04Z</time><name>PT5934</name></trkpt>
<trkpt lat="54.468259" lon="-3.256586"><ele>86</ele><time>2022-03-29T14:13:16Z</time><name>PT5935</name></trkpt>
<trkpt lat="54.468258" lon="-3.256590"><ele>86</ele><time>2022-03-29T14:13:33Z</time><name>PT5936</name></trkpt>
<trkpt lat="54.468244" lon="-3.256597"><ele>87</ele><time>2022-03-29T14:13:37Z</time><name>PT5937</name></trkpt>
<trkpt lat="54.468231" lon="-3.256614"><ele>89</ele><time>2022-03-29T14:13:40Z</time><name>PT5938</name></trkpt>
<trkpt lat="54.468214" lon="-3.256638"><ele>89</ele><time>2022-03-29T14:13:43Z</time><name>PT5939</name></trkpt>
<trkpt lat="54.468201" lon="-3.256655"><ele>89</ele><time>2022-03-29T14:13:46Z</time><name>PT5940</name></trkpt>
<trkpt lat="54.468184" lon="-3.256672"><ele>90</ele><time>2022-03-29T14:13:49Z</time><name>PT5941</name></trkpt>
<trkpt lat="54.468177" lon="-3.256694"><ele>91</ele><time>2022-03-29T14:13:54Z</time><name>PT5942</name></trkpt>
<trkpt lat="54.468153" lon="-3.256702"><ele>89</ele><time>2022-03-29T14:13:57Z</time><name>PT5943</name></trkpt>
<trkpt lat="54.468131" lon="-3.256725"><ele>91</ele><time>2022-03-29T14:14:01Z</time><name>PT5944</name></trkpt>
<trkpt lat="54.468110" lon="-3.256731"><ele>90</ele><time>2022-03-29T14:14:04Z</time><name>PT5945</name></trkpt>
<trkpt lat="54.468092" lon="-3.256750"><ele>91</ele><time>2022-03-29T14:14:07Z</time><name>PT5946</name></trkpt>
<trkpt lat="54.468074" lon="-3.256765"><ele>93</ele><time>2022-03-29T14:14:10Z</time><name>PT5947</name></trkpt>
<trkpt lat="54.468049" lon="-3.256772"><ele>95</ele><time>2022-03-29T14:14:13Z</time><name>PT5948</name></trkpt>
<trkpt lat="54.468019" lon="-3.256777"><ele>97</ele><time>2022-03-29T14:14:18Z</time><name>PT5949</name></trkpt>
<trkpt lat="54.467993" lon="-3.256775"><ele>96</ele><time>2022-03-29T14:14:21Z</time><name>PT5950</name></trkpt>
<trkpt lat="54.467955" lon="-3.256789"><ele>97</ele><time>2022-03-29T14:14:24Z</time><name>PT5951</name></trkpt>
<trkpt lat="54.467898" lon="-3.256810"><ele>98</ele><time>2022-03-29T14:14:27Z</time><name>PT5952</name></trkpt>
<trkpt lat="54.467856" lon="-3.256812"><ele>98</ele><time>2022-03-29T14:14:30Z</time><name>PT5953</name></trkpt>
<trkpt lat="54.467814" lon="-3.256786"><ele>98</ele><time>2022-03-29T14:14:33Z</time><name>PT5954</name></trkpt>
<trkpt lat="54.467786" lon="-3.256752"><ele>97</ele><time>2022-03-29T14:14:36Z</time><name>PT5955</name></trkpt>
<trkpt lat="54.467772" lon="-3.256737"><ele>98</ele><time>2022-03-29T14:14:40Z</time><name>PT5956</name></trkpt>
<trkpt lat="54.467758" lon="-3.256719"><ele>98</ele><time>2022-03-29T14:14:43Z</time><name>PT5957</name></trkpt>
<trkpt lat="54.467759" lon="-3.256765"><ele>97</ele><time>2022-03-29T14:14:46Z</time><name>PT5958</name></trkpt>
<trkpt lat="54.467751" lon="-3.256807"><ele>97</ele><time>2022-03-29T14:14:51Z</time><name>PT5959</name></trkpt>
<trkpt lat="54.467739" lon="-3.256817"><ele>96</ele><time>2022-03-29T14:14:55Z</time><name>PT5960</name></trkpt>
<trkpt lat="54.467746" lon="-3.256827"><ele>96</ele><time>2022-03-29T14:14:58Z</time><name>PT5961</name></trkpt>
<trkpt lat="54.467738" lon="-3.256834"><ele>95</ele><time>2022-03-29T14:15:01Z</time><name>PT5962</name></trkpt>
<trkpt lat="54.467740" lon="-3.256838"><ele>95</ele><time>2022-03-29T14:15:06Z</time><name>PT5963</name></trkpt>
<trkpt lat="54.467734" lon="-3.256858"><ele>96</ele><time>2022-03-29T14:15:09Z</time><name>PT5964</name></trkpt>
<trkpt lat="54.467716" lon="-3.256877"><ele>94</ele><time>2022-03-29T14:15:13Z</time><name>PT5965</name></trkpt>
<trkpt lat="54.467709" lon="-3.256842"><ele>91</ele><time>2022-03-29T14:15:24Z</time><name>PT5966</name></trkpt>
<trkpt lat="54.467717" lon="-3.256860"><ele>92</ele><time>2022-03-29T14:15:28Z</time><name>PT5967</name></trkpt>
<trkpt lat="54.467711" lon="-3.256842"><ele>91</ele><time>2022-03-29T14:15:39Z</time><name>PT5968</name></trkpt>
<trkpt lat="54.467708" lon="-3.256851"><ele>90</ele><time>2022-03-29T14:15:43Z</time><name>PT5969</name></trkpt>
<trkpt lat="54.467715" lon="-3.256870"><ele>88</ele><time>2022-03-29T14:15:46Z</time><name>PT5970</name></trkpt>
<trkpt lat="54.467703" lon="-3.256872"><ele>88</ele><time>2022-03-29T14:15:49Z</time><name>PT5971</name></trkpt>
<trkpt lat="54.467702" lon="-3.256859"><ele>88</ele><time>2022-03-29T14:15:54Z</time><name>PT5972</name></trkpt>
<trkpt lat="54.467707" lon="-3.256849"><ele>87</ele><time>2022-03-29T14:15:57Z</time><name>PT5973</name></trkpt>
<trkpt lat="54.467702" lon="-3.256857"><ele>85</ele><time>2022-03-29T14:16:01Z</time><name>PT5974</name></trkpt>
<trkpt lat="54.467702" lon="-3.256866"><ele>85</ele><time>2022-03-29T14:16:04Z</time><name>PT5975</name></trkpt>
<trkpt lat="54.467692" lon="-3.256890"><ele>87</ele><time>2022-03-29T14:16:07Z</time><name>PT5976</name></trkpt>
<trkpt lat="54.467705" lon="-3.256892"><ele>87</ele><time>2022-03-29T14:16:12Z</time><name>PT5977</name></trkpt>
<trkpt lat="54.467704" lon="-3.256894"><ele>88</ele><time>2022-03-29T14:16:15Z</time><name>PT5978</name></trkpt>
<trkpt lat="54.467683" lon="-3.256914"><ele>89</ele><time>2022-03-29T14:16:19Z</time><name>PT5979</name></trkpt>
<trkpt lat="54.467666" lon="-3.256908"><ele>88</ele><time>2022-03-29T14:18:25Z</time><name>PT5980</name></trkpt>
<trkpt lat="54.467654" lon="-3.256909"><ele>87</ele><time>2022-03-29T14:19:10Z</time><name>PT5981</name></trkpt>
<trkpt lat="54.467649" lon="-3.256885"><ele>87</ele><time>2022-03-29T14:35:51Z</time><name>PT5982</name></trkpt>
<trkpt lat="54.467647" lon="-3.256886"><ele>88</ele><time>2022-03-29T14:46:00Z</time><name>PT5983</name></trkpt>
<trkpt lat="54.467643" lon="-3.256884"><ele>88</ele><time>2022-03-29T14:46:03Z</time><name>PT5984</name></trkpt>
<trkpt lat="54.467642" lon="-3.256880"><ele>88</ele><time>2022-03-29T14:58:29Z</time><name>PT5985</name></trkpt>
<trkpt lat="54.467631" lon="-3.256870"><ele>90</ele><time>2022-03-29T14:58:33Z</time><name>PT5986</name></trkpt>
<trkpt lat="54.467630" lon="-3.256857"><ele>88</ele><time>2022-03-29T14:58:36Z</time><name>PT5987</name></trkpt>
<trkpt lat="54.467627" lon="-3.256857"><ele>88</ele><time>2022-03-29T14:58:39Z</time><name>PT5988</name></trkpt>
<trkpt lat="54.467618" lon="-3.256853"><ele>88</ele><time>2022-03-29T14:58:51Z</time><name>PT5989</name></trkpt>
<trkpt lat="54.467622" lon="-3.256876"><ele>88</ele><time>2022-03-29T15:10:12Z</time><name>PT5990</name></trkpt>
<trkpt lat="54.467627" lon="-3.256885"><ele>85</ele><time>2022-03-29T15:13:51Z</time><name>PT5991</name></trkpt>
<trkpt lat="54.467628" lon="-3.256889"><ele>84</ele><time>2022-03-29T15:13:54Z</time><name>PT5992</name></trkpt>
<trkpt lat="54.467626" lon="-3.256863"><ele>86</ele><time>2022-03-29T15:25:22Z</time><name>PT5993</name></trkpt>
<trkpt lat="54.467614" lon="-3.256869"><ele>86</ele><time>2022-03-29T15:25:26Z</time><name>PT5994</name></trkpt>
<trkpt lat="54.467640" lon="-3.256842"><ele>88</ele><time>2022-03-29T15:25:29Z</time><name>PT5995</name></trkpt>
<trkpt lat="54.467662" lon="-3.256810"><ele>88</ele><time>2022-03-29T15:25:32Z</time><name>PT5996</name></trkpt>
<trkpt lat="54.467672" lon="-3.256795"><ele>89</ele><time>2022-03-29T15:25:35Z</time><name>PT5997</name></trkpt>
<trkpt lat="54.467670" lon="-3.256795"><ele>91</ele><time>2022-03-29T15:25:38Z</time><name>PT5998</name></trkpt>
<trkpt lat="54.467641" lon="-3.256840"><ele>93</ele><time>2022-03-29T15:25:43Z</time><name>PT5999</name></trkpt>
<trkpt lat="54.467592" lon="-3.256635"><ele>89</ele><time>2022-03-29T15:25:47Z</time><name>PT6000</name></trkpt>
<trkpt lat="54.467663" lon="-3.256603"><ele>91</ele><time>2022-03-29T15:25:50Z</time><name>PT6001</name></trkpt>
<trkpt lat="54.467629" lon="-3.256633"><ele>90</ele><time>2022-03-29T15:25:55Z</time><name>PT6002</name></trkpt>
<trkpt lat="54.467629" lon="-3.256688"><ele>93</ele><time>2022-03-29T15:25:58Z</time><name>PT6003</name></trkpt>
<trkpt lat="54.467635" lon="-3.256671"><ele>93</ele><time>2022-03-29T15:26:01Z</time><name>PT6004</name></trkpt>
<trkpt lat="54.467605" lon="-3.256641"><ele>97</ele><time>2022-03-29T15:26:23Z</time><name>PT6005</name></trkpt>
<trkpt lat="54.467600" lon="-3.256635"><ele>96</ele><time>2022-03-29T15:26:28Z</time><name>PT6006</name></trkpt>
<trkpt lat="54.467627" lon="-3.256618"><ele>94</ele><time>2022-03-29T15:26:31Z</time><name>PT6007</name></trkpt>
<trkpt lat="54.467637" lon="-3.256606"><ele>93</ele><time>2022-03-29T15:26:35Z</time><name>PT6008</name></trkpt>
<trkpt lat="54.467669" lon="-3.256551"><ele>91</ele><time>2022-03-29T15:26:38Z</time><name>PT6009</name></trkpt>
<trkpt lat="54.467671" lon="-3.256542"><ele>90</ele><time>2022-03-29T15:26:41Z</time><name>PT6010</name></trkpt>
<trkpt lat="54.467673" lon="-3.256576"><ele>90</ele><time>2022-03-29T15:26:46Z</time><name>PT6011</name></trkpt>
<trkpt lat="54.467647" lon="-3.256603"><ele>89</ele><time>2022-03-29T15:26:53Z</time><name>PT6012</name></trkpt>
<trkpt lat="54.467628" lon="-3.256599"><ele>89</ele><time>2022-03-29T15:26:58Z</time><name>PT6013</name></trkpt>
<trkpt lat="54.467621" lon="-3.256600"><ele>87</ele><time>2022-03-29T15:27:28Z</time><name>PT6014</name></trkpt>
<trkpt lat="54.467612" lon="-3.256606"><ele>86</ele><time>2022-03-29T15:27:29Z</time><name>PT6015</name></trkpt>
<trkpt lat="54.467602" lon="-3.256618"><ele>87</ele><time>2022-03-29T15:27:29Z</time><name>PT6016</name></trkpt>
<trkpt lat="54.467583" lon="-3.256646"><ele>87</ele><time>2022-03-29T15:27:31Z</time><name>PT6017</name></trkpt>
<trkpt lat="54.467571" lon="-3.256657"><ele>88</ele><time>2022-03-29T15:27:32Z</time><name>PT6018</name></trkpt></trkseg></trk></gpx>